<?xml version='1.0' encoding='UTF-8'?><gpx version="1.1" creator="JPX - https://github.com/jenetics/jpx" xmlns="http://www.topografix.com/GPX/1/1"><trk><trkseg><trkpt lat="42.3803027074749" lon="14.36697461194665"><ele>6.0</ele><time>2026-05-02T06:55:55Z</time></trkpt><trkpt lat="42.380228520546815" lon="14.367110692821566"><ele>6.0</ele><time>2026-05-02T06:55:57Z</time></trkpt><trkpt lat="42.38018023522818" lon="14.367196399473404"><ele>6.0</ele><time>2026-05-02T06:55:58Z</time></trkpt><trkpt lat="42.380125912004175" lon="14.367286465596553"><ele>6.0</ele><time>2026-05-02T06:55:59Z</time></trkpt><trkpt lat="42.38007979068213" lon="14.367387408142031"><ele>6.0</ele><time>2026-05-02T06:56:00Z</time></trkpt><trkpt lat="42.38003526400089" lon="14.367501585307085"><ele>5.666666666666667</ele><time>2026-05-02T06:56:01Z</time></trkpt><trkpt lat="42.37998649717745" lon="14.36759459738918"><ele>5.333333333333333</ele><time>2026-05-02T06:56:02Z</time></trkpt><trkpt lat="42.3799302790524" lon="14.367687956665167"><ele>5.0</ele><time>2026-05-02T06:56:03Z</time></trkpt><trkpt lat="42.379878309250756" lon="14.367781938306138"><ele>4.666666666666666</ele><time>2026-05-02T06:56:04Z</time></trkpt><trkpt lat="42.37983423438261" lon="14.367862459644114"><ele>4.333333333333333</ele><time>2026-05-02T06:56:05Z</time></trkpt><trkpt lat="42.379793772685524" lon="14.367930376630849"><ele>4.0</ele><time>2026-05-02T06:56:06Z</time></trkpt><trkpt lat="42.379751775866474" lon="14.36800990210073"><ele>3.8000000000000003</ele><time>2026-05-02T06:56:07Z</time></trkpt><trkpt lat="42.37969619060483" lon="14.368107517786333"><ele>3.6000000000000005</ele><time>2026-05-02T06:56:08Z</time></trkpt><trkpt lat="42.379632527600094" lon="14.368203452670086"><ele>3.4</ele><time>2026-05-02T06:56:09Z</time></trkpt><trkpt lat="42.37958555008508" lon="14.368328042770587"><ele>3.2</ele><time>2026-05-02T06:56:10Z</time></trkpt><trkpt lat="42.37952553784522" lon="14.368438117291303"><ele>3.0</ele><time>2026-05-02T06:56:11Z</time></trkpt><trkpt lat="42.37945482942103" lon="14.368550872779624"><ele>3.25</ele><time>2026-05-02T06:56:12Z</time></trkpt><trkpt lat="42.3793817359547" lon="14.368668815049569"><ele>3.5</ele><time>2026-05-02T06:56:13Z</time></trkpt><trkpt lat="42.37932180760626" lon="14.368802310997479"><ele>3.75</ele><time>2026-05-02T06:56:14Z</time></trkpt><trkpt lat="42.379253622346866" lon="14.368937532079094"><ele>4.0</ele><time>2026-05-02T06:56:15Z</time></trkpt><trkpt lat="42.37918583898836" lon="14.369075617751864"><ele>4.0</ele><time>2026-05-02T06:56:16Z</time></trkpt><trkpt lat="42.37910864892873" lon="14.369213073170688"><ele>4.0</ele><time>2026-05-02T06:56:17Z</time></trkpt><trkpt lat="42.379031260903275" lon="14.369353064471964"><ele>4.0</ele><time>2026-05-02T06:56:18Z</time></trkpt><trkpt lat="42.378953457458564" lon="14.369491707588637"><ele>4.0</ele><time>2026-05-02T06:56:19Z</time></trkpt><trkpt lat="42.378875156562266" lon="14.369634673300135"><ele>4.25</ele><time>2026-05-02T06:56:20Z</time></trkpt><trkpt lat="42.37880763092887" lon="14.369784287438149"><ele>4.5</ele><time>2026-05-02T06:56:21Z</time></trkpt><trkpt lat="42.378758005247356" lon="14.369942035753203"><ele>4.75</ele><time>2026-05-02T06:56:22Z</time></trkpt><trkpt lat="42.378725536435226" lon="14.370109763272461"><ele>5.0</ele><time>2026-05-02T06:56:23Z</time></trkpt><trkpt lat="42.3787099253137" lon="14.370282579751658"><ele>5.0</ele><time>2026-05-02T06:56:24Z</time></trkpt><trkpt lat="42.37871176973136" lon="14.370460826566706"><ele>5.0</ele><time>2026-05-02T06:56:25Z</time></trkpt><trkpt lat="42.37872003183826" lon="14.370645555914118"><ele>5.0</ele><time>2026-05-02T06:56:26Z</time></trkpt><trkpt lat="42.3787078146717" lon="14.37083107821402"><ele>5.0</ele><time>2026-05-02T06:56:27Z</time></trkpt><trkpt lat="42.37869874343101" lon="14.371018136884556"><ele>4.75</ele><time>2026-05-02T06:56:28Z</time></trkpt><trkpt lat="42.378675255412375" lon="14.371198244463095"><ele>4.5</ele><time>2026-05-02T06:56:29Z</time></trkpt><trkpt lat="42.37861940140376" lon="14.371369009750644"><ele>4.25</ele><time>2026-05-02T06:56:30Z</time></trkpt><trkpt lat="42.3785505356748" lon="14.371538007456959"><ele>4.0</ele><time>2026-05-02T06:56:31Z</time></trkpt><trkpt lat="42.37849382439198" lon="14.371712156733645"><ele>4.0</ele><time>2026-05-02T06:56:32Z</time></trkpt><trkpt lat="42.37841943158463" lon="14.371870799773351"><ele>4.0</ele><time>2026-05-02T06:56:33Z</time></trkpt><trkpt lat="42.37835006422454" lon="14.372033783525394"><ele>4.0</ele><time>2026-05-02T06:56:34Z</time></trkpt><trkpt lat="42.37827962081815" lon="14.372195404869544"><ele>4.0</ele><time>2026-05-02T06:56:35Z</time></trkpt><trkpt lat="42.37821121762641" lon="14.372358724707855"><ele>4.5</ele><time>2026-05-02T06:56:36Z</time></trkpt><trkpt lat="42.378129251467506" lon="14.372510846533443"><ele>5.0</ele><time>2026-05-02T06:56:37Z</time></trkpt><trkpt lat="42.378069591377006" lon="14.372684299185682"><ele>5.5</ele><time>2026-05-02T06:56:38Z</time></trkpt><trkpt lat="42.37799644030227" lon="14.372848030681585"><ele>6.0</ele><time>2026-05-02T06:56:39Z</time></trkpt><trkpt lat="42.37792567409794" lon="14.373013184179555"><ele>10.0</ele><time>2026-05-02T06:56:40Z</time></trkpt><trkpt lat="42.37785126034581" lon="14.373175177589948"><ele>14.0</ele><time>2026-05-02T06:56:41Z</time></trkpt><trkpt lat="42.37777189094356" lon="14.373324384905738"><ele>18.0</ele><time>2026-05-02T06:56:42Z</time></trkpt><trkpt lat="42.377684019440366" lon="14.373454304390552"><ele>22.0</ele><time>2026-05-02T06:56:43Z</time></trkpt><trkpt lat="42.37756440450748" lon="14.373551789512401"><ele>22.0</ele><time>2026-05-02T06:56:44Z</time></trkpt><trkpt lat="42.377422666497154" lon="14.373607781867603"><ele>22.0</ele><time>2026-05-02T06:56:45Z</time></trkpt><trkpt lat="42.37726976517446" lon="14.37362932704245"><ele>22.0</ele><time>2026-05-02T06:56:46Z</time></trkpt><trkpt lat="42.37712325309377" lon="14.373703951064364"><ele>20.666666666666664</ele><time>2026-05-02T06:56:47Z</time></trkpt><trkpt lat="42.37696875124488" lon="14.373757334804127"><ele>19.333333333333332</ele><time>2026-05-02T06:56:48Z</time></trkpt><trkpt lat="42.376813470854366" lon="14.373789095983252"><ele>18.0</ele><time>2026-05-02T06:56:49Z</time></trkpt><trkpt lat="42.37666990071412" lon="14.373839140435374"><ele>25.666666666666664</ele><time>2026-05-02T06:56:50Z</time></trkpt><trkpt lat="42.37652497415395" lon="14.373886472444747"><ele>33.33333333333333</ele><time>2026-05-02T06:56:51Z</time></trkpt><trkpt lat="42.37637449991838" lon="14.37391054979792"><ele>41.0</ele><time>2026-05-02T06:56:52Z</time></trkpt><trkpt lat="42.37622072434148" lon="14.37390288674365"><ele>37.0</ele><time>2026-05-02T06:56:53Z</time></trkpt><trkpt lat="42.37606698340326" lon="14.37385422061462"><ele>33.0</ele><time>2026-05-02T06:56:54Z</time></trkpt><trkpt lat="42.375916300780816" lon="14.373790715435614"><ele>29.0</ele><time>2026-05-02T06:56:55Z</time></trkpt><trkpt lat="42.37576188654753" lon="14.373738508719923"><ele>29.0</ele><time>2026-05-02T06:56:56Z</time></trkpt><trkpt lat="42.37562175756273" lon="14.373662839398982"><ele>29.0</ele><time>2026-05-02T06:56:57Z</time></trkpt><trkpt lat="42.375500235681734" lon="14.373593570940919"><ele>29.0</ele><time>2026-05-02T06:56:58Z</time></trkpt><trkpt lat="42.37539332029471" lon="14.373550471252088"><ele>29.0</ele><time>2026-05-02T06:56:59Z</time></trkpt><trkpt lat="42.37531043208465" lon="14.373556079575946"><ele>30.75</ele><time>2026-05-02T06:57:00Z</time></trkpt><trkpt lat="42.375229586257184" lon="14.373594646256054"><ele>32.5</ele><time>2026-05-02T06:57:01Z</time></trkpt><trkpt lat="42.37516092725503" lon="14.373693762959851"><ele>34.25</ele><time>2026-05-02T06:57:02Z</time></trkpt><trkpt lat="42.3751071825766" lon="14.373851229105693"><ele>36.0</ele><time>2026-05-02T06:57:03Z</time></trkpt><trkpt lat="42.37507090222555" lon="14.374043969902765"><ele>38.0</ele><time>2026-05-02T06:57:04Z</time></trkpt><trkpt lat="42.3750476879353" lon="14.374246382205282"><ele>40.0</ele><time>2026-05-02T06:57:05Z</time></trkpt><trkpt lat="42.37502995958768" lon="14.374438712262648"><ele>42.0</ele><time>2026-05-02T06:57:06Z</time></trkpt><trkpt lat="42.37501777516298" lon="14.374626614580142"><ele>44.0</ele><time>2026-05-02T06:57:07Z</time></trkpt><trkpt lat="42.375024446934674" lon="14.3748153187214"><ele>45.0</ele><time>2026-05-02T06:57:08Z</time></trkpt><trkpt lat="42.37506045077512" lon="14.375014773096495"><ele>46.0</ele><time>2026-05-02T06:57:09Z</time></trkpt><trkpt lat="42.37513020368078" lon="14.375216300010933"><ele>47.0</ele><time>2026-05-02T06:57:10Z</time></trkpt><trkpt lat="42.3752101669492" lon="14.375414279130649"><ele>47.75</ele><time>2026-05-02T06:57:11Z</time></trkpt><trkpt lat="42.375279122826484" lon="14.375604845992351"><ele>48.5</ele><time>2026-05-02T06:57:12Z</time></trkpt><trkpt lat="42.375326597140045" lon="14.375797696460788"><ele>49.25</ele><time>2026-05-02T06:57:13Z</time></trkpt><trkpt lat="42.37537358317992" lon="14.375973906275876"><ele>50.0</ele><time>2026-05-02T06:57:14Z</time></trkpt><trkpt lat="42.37538881435923" lon="14.376166574389355"><ele>52.0</ele><time>2026-05-02T06:57:15Z</time></trkpt><trkpt lat="42.37537257949963" lon="14.376368837539061"><ele>54.0</ele><time>2026-05-02T06:57:16Z</time></trkpt><trkpt lat="42.375327536047365" lon="14.376570600508064"><ele>56.0</ele><time>2026-05-02T06:57:17Z</time></trkpt><trkpt lat="42.37523808372865" lon="14.376737016467823"><ele>56.0</ele><time>2026-05-02T06:57:18Z</time></trkpt><trkpt lat="42.37514745245095" lon="14.376908066003645"><ele>56.0</ele><time>2026-05-02T06:57:19Z</time></trkpt><trkpt lat="42.37505052791025" lon="14.377075575909997"><ele>56.0</ele><time>2026-05-02T06:57:20Z</time></trkpt><trkpt lat="42.37495256839422" lon="14.377239269219844"><ele>56.66666666666667</ele><time>2026-05-02T06:57:21Z</time></trkpt><trkpt lat="42.374853720026884" lon="14.377404447848656"><ele>57.33333333333333</ele><time>2026-05-02T06:57:22Z</time></trkpt><trkpt lat="42.37474767824737" lon="14.377586295140578"><ele>58.0</ele><time>2026-05-02T06:57:23Z</time></trkpt><trkpt lat="42.37463387436797" lon="14.377779293143169"><ele>58.0</ele><time>2026-05-02T06:57:24Z</time></trkpt><trkpt lat="42.37452022962505" lon="14.377971513429593"><ele>58.0</ele><time>2026-05-02T06:57:25Z</time></trkpt><trkpt lat="42.37440819571843" lon="14.378161009132352"><ele>58.0</ele><time>2026-05-02T06:57:26Z</time></trkpt><trkpt lat="42.37430466646087" lon="14.378365788809761"><ele>58.666666666666664</ele><time>2026-05-02T06:57:27Z</time></trkpt><trkpt lat="42.374185570846684" lon="14.378559429531382"><ele>59.33333333333333</ele><time>2026-05-02T06:57:28Z</time></trkpt><trkpt lat="42.374064519119884" lon="14.378758632049568"><ele>60.0</ele><time>2026-05-02T06:57:29Z</time></trkpt><trkpt lat="42.37394313514941" lon="14.378958448584095"><ele>60.0</ele><time>2026-05-02T06:57:30Z</time></trkpt><trkpt lat="42.373823376248595" lon="14.379164228181734"><ele>60.0</ele><time>2026-05-02T06:57:31Z</time></trkpt><trkpt lat="42.3737008835837" lon="14.379368691957994"><ele>60.0</ele><time>2026-05-02T06:57:32Z</time></trkpt><trkpt lat="42.37357859997573" lon="14.379574067252081"><ele>60.33333333333333</ele><time>2026-05-02T06:57:33Z</time></trkpt><trkpt lat="42.37345951646462" lon="14.379779306451049"><ele>60.666666666666664</ele><time>2026-05-02T06:57:34Z</time></trkpt><trkpt lat="42.37334150337683" lon="14.37998713577852"><ele>61.0</ele><time>2026-05-02T06:57:35Z</time></trkpt><trkpt lat="42.37322200752681" lon="14.38018859419568"><ele>61.0</ele><time>2026-05-02T06:57:36Z</time></trkpt><trkpt lat="42.37310212027759" lon="14.380388412501617"><ele>61.0</ele><time>2026-05-02T06:57:37Z</time></trkpt><trkpt lat="42.37298844338156" lon="14.380575524007394"><ele>61.0</ele><time>2026-05-02T06:57:38Z</time></trkpt><trkpt lat="42.372883440576814" lon="14.380751288644461"><ele>61.0</ele><time>2026-05-02T06:57:39Z</time></trkpt><trkpt lat="42.372787119861776" lon="14.38090442108113"><ele>61.0</ele><time>2026-05-02T06:57:40Z</time></trkpt><trkpt lat="42.37270792747734" lon="14.381028292612847"><ele>61.0</ele><time>2026-05-02T06:57:41Z</time></trkpt><trkpt lat="42.37262091887463" lon="14.381160683699417"><ele>61.0</ele><time>2026-05-02T06:57:42Z</time></trkpt><trkpt lat="42.3725189011719" lon="14.381297326122395"><ele>61.0</ele><time>2026-05-02T06:57:43Z</time></trkpt><trkpt lat="42.37240291433689" lon="14.381438583446375"><ele>61.0</ele><time>2026-05-02T06:57:44Z</time></trkpt><trkpt lat="42.372287361111596" lon="14.381583761088303"><ele>61.0</ele><time>2026-05-02T06:57:45Z</time></trkpt><trkpt lat="42.37216739801005" lon="14.381733806252855"><ele>61.0</ele><time>2026-05-02T06:57:46Z</time></trkpt><trkpt lat="42.37205077221005" lon="14.381875620286957"><ele>61.0</ele><time>2026-05-02T06:57:47Z</time></trkpt><trkpt lat="42.37195344258816" lon="14.381999333880387"><ele>61.0</ele><time>2026-05-02T06:57:48Z</time></trkpt><trkpt lat="42.37185135402042" lon="14.382119409074722"><ele>61.0</ele><time>2026-05-02T06:57:49Z</time></trkpt><trkpt lat="42.371760251392345" lon="14.382227861392158"><ele>61.0</ele><time>2026-05-02T06:57:50Z</time></trkpt><trkpt lat="42.37167298454539" lon="14.382339455014632"><ele>61.0</ele><time>2026-05-02T06:57:51Z</time></trkpt><trkpt lat="42.37157974647913" lon="14.38245231947664"><ele>61.0</ele><time>2026-05-02T06:57:52Z</time></trkpt><trkpt lat="42.37147358785659" lon="14.38258129214204"><ele>61.0</ele><time>2026-05-02T06:57:53Z</time></trkpt><trkpt lat="42.37136929037265" lon="14.382729005114811"><ele>61.0</ele><time>2026-05-02T06:57:54Z</time></trkpt><trkpt lat="42.37123799745277" lon="14.382863505695973"><ele>61.0</ele><time>2026-05-02T06:57:55Z</time></trkpt><trkpt lat="42.37110982001126" lon="14.383021033128026"><ele>61.0</ele><time>2026-05-02T06:57:56Z</time></trkpt><trkpt lat="42.37097977705256" lon="14.383182589569781"><ele>61.33333333333333</ele><time>2026-05-02T06:57:57Z</time></trkpt><trkpt lat="42.37084342701536" lon="14.383349129204774"><ele>61.66666666666667</ele><time>2026-05-02T06:57:58Z</time></trkpt><trkpt lat="42.37070257566584" lon="14.38351277032283"><ele>62.0</ele><time>2026-05-02T06:57:59Z</time></trkpt><trkpt lat="42.37057088715778" lon="14.3836930836931"><ele>61.66666666666667</ele><time>2026-05-02T06:58:00Z</time></trkpt><trkpt lat="42.37043009954251" lon="14.38385622570189"><ele>61.33333333333333</ele><time>2026-05-02T06:58:01Z</time></trkpt><trkpt lat="42.37028929939218" lon="14.384029966732593"><ele>61.0</ele><time>2026-05-02T06:58:02Z</time></trkpt><trkpt lat="42.37014846644816" lon="14.384199245429143"><ele>61.0</ele><time>2026-05-02T06:58:03Z</time></trkpt><trkpt lat="42.37000709567388" lon="14.3843701047604"><ele>61.0</ele><time>2026-05-02T06:58:04Z</time></trkpt><trkpt lat="42.36985923060457" lon="14.384543595474215"><ele>61.0</ele><time>2026-05-02T06:58:05Z</time></trkpt><trkpt lat="42.36971774406503" lon="14.384720851290863"><ele>60.33333333333333</ele><time>2026-05-02T06:58:06Z</time></trkpt><trkpt lat="42.36957378846035" lon="14.384901849237663"><ele>59.66666666666667</ele><time>2026-05-02T06:58:07Z</time></trkpt><trkpt lat="42.36942525770781" lon="14.385078230329398"><ele>59.0</ele><time>2026-05-02T06:58:08Z</time></trkpt><trkpt lat="42.369280142252826" lon="14.385251711451714"><ele>59.0</ele><time>2026-05-02T06:58:09Z</time></trkpt><trkpt lat="42.369135958122875" lon="14.3854305307831"><ele>59.0</ele><time>2026-05-02T06:58:10Z</time></trkpt><trkpt lat="42.36898984173583" lon="14.385622305834504"><ele>59.0</ele><time>2026-05-02T06:58:11Z</time></trkpt><trkpt lat="42.36884091658187" lon="14.385811072545831"><ele>56.0</ele><time>2026-05-02T06:58:12Z</time></trkpt><trkpt lat="42.368686951977104" lon="14.385998406340828"><ele>53.0</ele><time>2026-05-02T06:58:13Z</time></trkpt><trkpt lat="42.368539215278794" lon="14.386187515617236"><ele>50.0</ele><time>2026-05-02T06:58:14Z</time></trkpt><trkpt lat="42.36838697051903" lon="14.386369904902516"><ele>49.333333333333336</ele><time>2026-05-02T06:58:15Z</time></trkpt><trkpt lat="42.36823613957915" lon="14.386555813558452"><ele>48.66666666666667</ele><time>2026-05-02T06:58:16Z</time></trkpt><trkpt lat="42.36808932457275" lon="14.386742411213522"><ele>48.0</ele><time>2026-05-02T06:58:17Z</time></trkpt><trkpt lat="42.367942946601325" lon="14.386927782802527"><ele>50.0</ele><time>2026-05-02T06:58:18Z</time></trkpt><trkpt lat="42.36780041920546" lon="14.387111143738665"><ele>52.0</ele><time>2026-05-02T06:58:19Z</time></trkpt><trkpt lat="42.367656232236776" lon="14.387292088316606"><ele>54.0</ele><time>2026-05-02T06:58:20Z</time></trkpt><trkpt lat="42.36751188169178" lon="14.387466923310738"><ele>55.33333333333333</ele><time>2026-05-02T06:58:21Z</time></trkpt><trkpt lat="42.36736259704654" lon="14.387631312487164"><ele>56.666666666666664</ele><time>2026-05-02T06:58:22Z</time></trkpt><trkpt lat="42.36721071625602" lon="14.38780406974905"><ele>58.0</ele><time>2026-05-02T06:58:23Z</time></trkpt><trkpt lat="42.367053263059226" lon="14.387952435297825"><ele>59.33333333333333</ele><time>2026-05-02T06:58:24Z</time></trkpt><trkpt lat="42.3668935234155" lon="14.38810264581224"><ele>60.66666666666667</ele><time>2026-05-02T06:58:25Z</time></trkpt><trkpt lat="42.36673162515181" lon="14.38824456692792"><ele>62.0</ele><time>2026-05-02T06:58:26Z</time></trkpt><trkpt lat="42.3665666803132" lon="14.388390552901837"><ele>62.0</ele><time>2026-05-02T06:58:27Z</time></trkpt><trkpt lat="42.36640248144509" lon="14.388538415037447"><ele>62.0</ele><time>2026-05-02T06:58:28Z</time></trkpt><trkpt lat="42.36623726967292" lon="14.388687296346955"><ele>62.0</ele><time>2026-05-02T06:58:29Z</time></trkpt><trkpt lat="42.36607000521923" lon="14.38883603561889"><ele>62.0</ele><time>2026-05-02T06:58:30Z</time></trkpt><trkpt lat="42.36591407172035" lon="14.389006133803012"><ele>62.0</ele><time>2026-05-02T06:58:31Z</time></trkpt><trkpt lat="42.36577527732333" lon="14.389193166566235"><ele>62.0</ele><time>2026-05-02T06:58:32Z</time></trkpt><trkpt lat="42.365641856093006" lon="14.389390895270719"><ele>62.333333333333336</ele><time>2026-05-02T06:58:33Z</time></trkpt><trkpt lat="42.365506866393424" lon="14.389596307410127"><ele>62.66666666666667</ele><time>2026-05-02T06:58:34Z</time></trkpt><trkpt lat="42.365379682605166" lon="14.389796606780424"><ele>63.0</ele><time>2026-05-02T06:58:35Z</time></trkpt><trkpt lat="42.36525719092932" lon="14.389988244731033"><ele>63.0</ele><time>2026-05-02T06:58:36Z</time></trkpt><trkpt lat="42.365129711892365" lon="14.390185918453533"><ele>63.0</ele><time>2026-05-02T06:58:37Z</time></trkpt><trkpt lat="42.365001749184124" lon="14.390387428672602"><ele>63.0</ele><time>2026-05-02T06:58:38Z</time></trkpt><trkpt lat="42.36487740648426" lon="14.39058994566465"><ele>62.33333333333333</ele><time>2026-05-02T06:58:39Z</time></trkpt><trkpt lat="42.36474819609338" lon="14.390792516831844"><ele>61.666666666666664</ele><time>2026-05-02T06:58:40Z</time></trkpt><trkpt lat="42.364618895798685" lon="14.39099370144582"><ele>61.0</ele><time>2026-05-02T06:58:41Z</time></trkpt><trkpt lat="42.3644894649492" lon="14.391194909245039"><ele>59.666666666666664</ele><time>2026-05-02T06:58:42Z</time></trkpt><trkpt lat="42.364362234504505" lon="14.39139791374112"><ele>58.33333333333333</ele><time>2026-05-02T06:58:43Z</time></trkpt><trkpt lat="42.364232999240514" lon="14.391600910861765"><ele>57.0</ele><time>2026-05-02T06:58:44Z</time></trkpt><trkpt lat="42.36410561537205" lon="14.391807542266596"><ele>57.0</ele><time>2026-05-02T06:58:45Z</time></trkpt><trkpt lat="42.363978164318276" lon="14.392010325317653"><ele>57.0</ele><time>2026-05-02T06:58:46Z</time></trkpt><trkpt lat="42.36384853232695" lon="14.392208426062263"><ele>57.0</ele><time>2026-05-02T06:58:47Z</time></trkpt><trkpt lat="42.363718250233916" lon="14.392406237603641"><ele>56.66666666666667</ele><time>2026-05-02T06:58:48Z</time></trkpt><trkpt lat="42.36358885467394" lon="14.39260686762042"><ele>56.333333333333336</ele><time>2026-05-02T06:58:49Z</time></trkpt><trkpt lat="42.36346013327454" lon="14.392808480968398"><ele>56.0</ele><time>2026-05-02T06:58:50Z</time></trkpt><trkpt lat="42.36333343593384" lon="14.393008450045674"><ele>57.0</ele><time>2026-05-02T06:58:51Z</time></trkpt><trkpt lat="42.36320661619782" lon="14.39320822323605"><ele>58.0</ele><time>2026-05-02T06:58:52Z</time></trkpt><trkpt lat="42.363079673625414" lon="14.393406657051193"><ele>59.0</ele><time>2026-05-02T06:58:53Z</time></trkpt><trkpt lat="42.36295848430309" lon="14.393598215854588"><ele>56.66666666666667</ele><time>2026-05-02T06:58:54Z</time></trkpt><trkpt lat="42.362843047643395" lon="14.393783695620133"><ele>54.33333333333333</ele><time>2026-05-02T06:58:55Z</time></trkpt><trkpt lat="42.362731672640834" lon="14.393962085943578"><ele>52.0</ele><time>2026-05-02T06:58:56Z</time></trkpt><trkpt lat="42.36263428897046" lon="14.394123811129498"><ele>52.0</ele><time>2026-05-02T06:58:57Z</time></trkpt><trkpt lat="42.36255840829632" lon="14.394265120142732"><ele>52.0</ele><time>2026-05-02T06:58:58Z</time></trkpt><trkpt lat="42.36251041957099" lon="14.394412944124737"><ele>52.0</ele><time>2026-05-02T06:58:59Z</time></trkpt><trkpt lat="42.362499464040155" lon="14.394563119930048"><ele>52.0</ele><time>2026-05-02T06:59:00Z</time></trkpt><trkpt lat="42.362540047833726" lon="14.394713211968552"><ele>49.5</ele><time>2026-05-02T06:59:01Z</time></trkpt><trkpt lat="42.36262825778416" lon="14.394854087212202"><ele>47.0</ele><time>2026-05-02T06:59:02Z</time></trkpt><trkpt lat="42.36274218207651" lon="14.394984720704048"><ele>44.5</ele><time>2026-05-02T06:59:03Z</time></trkpt><trkpt lat="42.36284088777892" lon="14.395142048896156"><ele>42.0</ele><time>2026-05-02T06:59:04Z</time></trkpt><trkpt lat="42.36291944640055" lon="14.39531552414082"><ele>38.333333333333336</ele><time>2026-05-02T06:59:05Z</time></trkpt><trkpt lat="42.36296426546905" lon="14.395510625601332"><ele>34.66666666666667</ele><time>2026-05-02T06:59:06Z</time></trkpt><trkpt lat="42.362975847661495" lon="14.395716328890627"><ele>31.0</ele><time>2026-05-02T06:59:07Z</time></trkpt><trkpt lat="42.362982882120804" lon="14.395922251387836"><ele>31.0</ele><time>2026-05-02T06:59:08Z</time></trkpt><trkpt lat="42.3630163767847" lon="14.3961188660128"><ele>31.0</ele><time>2026-05-02T06:59:09Z</time></trkpt><trkpt lat="42.36309484983684" lon="14.396298684105352"><ele>31.0</ele><time>2026-05-02T06:59:10Z</time></trkpt><trkpt lat="42.36320341069846" lon="14.396470252869678"><ele>34.66666666666667</ele><time>2026-05-02T06:59:11Z</time></trkpt><trkpt lat="42.36331196945198" lon="14.39664184253007"><ele>38.333333333333336</ele><time>2026-05-02T06:59:12Z</time></trkpt><trkpt lat="42.36341402183464" lon="14.396813357125565"><ele>42.0</ele><time>2026-05-02T06:59:13Z</time></trkpt><trkpt lat="42.363498607446935" lon="14.3969628723504"><ele>42.0</ele><time>2026-05-02T06:59:14Z</time></trkpt><trkpt lat="42.363577036654334" lon="14.397087861020305"><ele>42.0</ele><time>2026-05-02T06:59:15Z</time></trkpt><trkpt lat="42.36364886997782" lon="14.397200011763195"><ele>42.0</ele><time>2026-05-02T06:59:16Z</time></trkpt><trkpt lat="42.36370633997644" lon="14.397300889733845"><ele>42.0</ele><time>2026-05-02T06:59:17Z</time></trkpt><trkpt lat="42.363761139626355" lon="14.397396479798376"><ele>42.0</ele><time>2026-05-02T06:59:18Z</time></trkpt><trkpt lat="42.36379017159012" lon="14.397494999198011"><ele>39.833333333333336</ele><time>2026-05-02T06:59:19Z</time></trkpt><trkpt lat="42.36377552340226" lon="14.397590288366906"><ele>37.666666666666664</ele><time>2026-05-02T06:59:20Z</time></trkpt><trkpt lat="42.36372532745945" lon="14.397663491558276"><ele>35.5</ele><time>2026-05-02T06:59:21Z</time></trkpt><trkpt lat="42.36365449672172" lon="14.397716442242112"><ele>33.33333333333333</ele><time>2026-05-02T06:59:22Z</time></trkpt><trkpt lat="42.36356443457202" lon="14.397722519804576"><ele>31.166666666666664</ele><time>2026-05-02T06:59:23Z</time></trkpt><trkpt lat="42.363484345143014" lon="14.397667952791803"><ele>29.0</ele><time>2026-05-02T06:59:24Z</time></trkpt><trkpt lat="42.36342556059505" lon="14.397584959005227"><ele>29.0</ele><time>2026-05-02T06:59:25Z</time></trkpt><trkpt lat="42.36338452054803" lon="14.397482839648813"><ele>29.0</ele><time>2026-05-02T06:59:26Z</time></trkpt><trkpt lat="42.36333139999908" lon="14.397388887815293"><ele>29.0</ele><time>2026-05-02T06:59:27Z</time></trkpt><trkpt lat="42.36327236741535" lon="14.397288918927767"><ele>29.0</ele><time>2026-05-02T06:59:28Z</time></trkpt><trkpt lat="42.36321011762216" lon="14.397186052507575"><ele>29.0</ele><time>2026-05-02T06:59:29Z</time></trkpt><trkpt lat="42.36314689282409" lon="14.397083927805866"><ele>26.75</ele><time>2026-05-02T06:59:30Z</time></trkpt><trkpt lat="42.363079183319684" lon="14.396973646738013"><ele>24.5</ele><time>2026-05-02T06:59:31Z</time></trkpt><trkpt lat="42.36301131163476" lon="14.396855823303085"><ele>22.25</ele><time>2026-05-02T06:59:32Z</time></trkpt><trkpt lat="42.362940585408026" lon="14.396732439695374"><ele>20.0</ele><time>2026-05-02T06:59:33Z</time></trkpt><trkpt lat="42.362865825931834" lon="14.396606901775197"><ele>20.0</ele><time>2026-05-02T06:59:34Z</time></trkpt><trkpt lat="42.36279219886362" lon="14.396478751021489"><ele>20.0</ele><time>2026-05-02T06:59:35Z</time></trkpt><trkpt lat="42.36271707170424" lon="14.396355289421688"><ele>20.0</ele><time>2026-05-02T06:59:36Z</time></trkpt><trkpt lat="42.36264193941674" lon="14.396232290705294"><ele>20.0</ele><time>2026-05-02T06:59:37Z</time></trkpt><trkpt lat="42.36256844328455" lon="14.39611218300042"><ele>22.75</ele><time>2026-05-02T06:59:38Z</time></trkpt><trkpt lat="42.36249562619808" lon="14.395987138762543"><ele>25.5</ele><time>2026-05-02T06:59:39Z</time></trkpt><trkpt lat="42.362425596842385" lon="14.395861931126682"><ele>28.25</ele><time>2026-05-02T06:59:40Z</time></trkpt><trkpt lat="42.362341426839926" lon="14.395742988469717"><ele>31.0</ele><time>2026-05-02T06:59:41Z</time></trkpt><trkpt lat="42.36226825088243" lon="14.395619302372449"><ele>29.200000000000003</ele><time>2026-05-02T06:59:42Z</time></trkpt><trkpt lat="42.36220105546497" lon="14.395499387838218"><ele>27.400000000000002</ele><time>2026-05-02T06:59:43Z</time></trkpt><trkpt lat="42.36213650827706" lon="14.395373306664041"><ele>25.6</ele><time>2026-05-02T06:59:44Z</time></trkpt><trkpt lat="42.362067382174494" lon="14.3952515423159"><ele>23.8</ele><time>2026-05-02T06:59:45Z</time></trkpt><trkpt lat="42.36200217750396" lon="14.395130967464796"><ele>22.0</ele><time>2026-05-02T06:59:46Z</time></trkpt><trkpt lat="42.36192808264801" lon="14.395025069338843"><ele>22.0</ele><time>2026-05-02T06:59:47Z</time></trkpt><trkpt lat="42.36185058875694" lon="14.394946412788892"><ele>22.0</ele><time>2026-05-02T06:59:48Z</time></trkpt><trkpt lat="42.36176459073795" lon="14.394891950943599"><ele>22.0</ele><time>2026-05-02T06:59:49Z</time></trkpt><trkpt lat="42.36166631422603" lon="14.394873200867389"><ele>22.0</ele><time>2026-05-02T06:59:50Z</time></trkpt><trkpt lat="42.36156441928701" lon="14.394887660727052"><ele>22.0</ele><time>2026-05-02T06:59:51Z</time></trkpt><trkpt lat="42.3614680028859" lon="14.394943752903757"><ele>22.0</ele><time>2026-05-02T06:59:52Z</time></trkpt><trkpt lat="42.361375588264615" lon="14.39501699615683"><ele>22.0</ele><time>2026-05-02T06:59:53Z</time></trkpt><trkpt lat="42.36129172300114" lon="14.395105847127104"><ele>22.0</ele><time>2026-05-02T06:59:54Z</time></trkpt><trkpt lat="42.36121263342493" lon="14.395199994511273"><ele>22.0</ele><time>2026-05-02T06:59:55Z</time></trkpt><trkpt lat="42.36115437593712" lon="14.395317037171205"><ele>22.0</ele><time>2026-05-02T06:59:56Z</time></trkpt><trkpt lat="42.361117382982115" lon="14.395454988556915"><ele>21.8</ele><time>2026-05-02T06:59:57Z</time></trkpt><trkpt lat="42.36111408668546" lon="14.395604156752793"><ele>21.6</ele><time>2026-05-02T06:59:58Z</time></trkpt><trkpt lat="42.36113584094623" lon="14.395747600771504"><ele>21.400000000000002</ele><time>2026-05-02T06:59:59Z</time></trkpt><trkpt lat="42.36115316057965" lon="14.395879047683426"><ele>21.200000000000003</ele><time>2026-05-02T07:00:00Z</time></trkpt><trkpt lat="42.36113501629542" lon="14.396001344702572"><ele>21.0</ele><time>2026-05-02T07:00:01Z</time></trkpt><trkpt lat="42.36109007555235" lon="14.396109531230938"><ele>21.0</ele><time>2026-05-02T07:00:02Z</time></trkpt><trkpt lat="42.361014376155595" lon="14.396185741101469"><ele>21.0</ele><time>2026-05-02T07:00:03Z</time></trkpt><trkpt lat="42.36092550731145" lon="14.396236557718339"><ele>21.0</ele><time>2026-05-02T07:00:04Z</time></trkpt><trkpt lat="42.36082223958492" lon="14.396264673510757"><ele>21.0</ele><time>2026-05-02T07:00:05Z</time></trkpt><trkpt lat="42.36071793839349" lon="14.396295412254327"><ele>21.0</ele><time>2026-05-02T07:00:06Z</time></trkpt><trkpt lat="42.36061161263819" lon="14.39633300281883"><ele>21.5</ele><time>2026-05-02T07:00:07Z</time></trkpt><trkpt lat="42.3604991682898" lon="14.396374697922562"><ele>22.0</ele><time>2026-05-02T07:00:08Z</time></trkpt><trkpt lat="42.36038586591365" lon="14.396412660591624"><ele>22.5</ele><time>2026-05-02T07:00:09Z</time></trkpt><trkpt lat="42.360264770927635" lon="14.396461552154076"><ele>23.0</ele><time>2026-05-02T07:00:10Z</time></trkpt><trkpt lat="42.360142584670676" lon="14.396497297773324"><ele>23.0</ele><time>2026-05-02T07:00:11Z</time></trkpt><trkpt lat="42.360014356804875" lon="14.396551149515266"><ele>23.0</ele><time>2026-05-02T07:00:12Z</time></trkpt><trkpt lat="42.35989107031618" lon="14.396584544456996"><ele>23.0</ele><time>2026-05-02T07:00:13Z</time></trkpt><trkpt lat="42.35977886296353" lon="14.396637276741648"><ele>23.0</ele><time>2026-05-02T07:00:14Z</time></trkpt><trkpt lat="42.359657692114816" lon="14.396668965433454"><ele>23.599999999999998</ele><time>2026-05-02T07:00:15Z</time></trkpt><trkpt lat="42.359550236098116" lon="14.396718783552448"><ele>24.2</ele><time>2026-05-02T07:00:16Z</time></trkpt><trkpt lat="42.35943540305481" lon="14.396711141296299"><ele>24.8</ele><time>2026-05-02T07:00:17Z</time></trkpt><trkpt lat="42.35932855016744" lon="14.39669758697608"><ele>25.4</ele><time>2026-05-02T07:00:18Z</time></trkpt><trkpt lat="42.359222994806636" lon="14.396649691613886"><ele>26.0</ele><time>2026-05-02T07:00:19Z</time></trkpt><trkpt lat="42.35910937634188" lon="14.396608853466555"><ele>26.0</ele><time>2026-05-02T07:00:20Z</time></trkpt><trkpt lat="42.35899356257238" lon="14.396584571154003"><ele>26.0</ele><time>2026-05-02T07:00:21Z</time></trkpt><trkpt lat="42.358867181872895" lon="14.396565527825944"><ele>26.0</ele><time>2026-05-02T07:00:22Z</time></trkpt><trkpt lat="42.358743062529435" lon="14.396560771609021"><ele>26.0</ele><time>2026-05-02T07:00:23Z</time></trkpt><trkpt lat="42.358630385591404" lon="14.396576310476377"><ele>25.4</ele><time>2026-05-02T07:00:24Z</time></trkpt><trkpt lat="42.35852176575616" lon="14.396594931711341"><ele>24.8</ele><time>2026-05-02T07:00:25Z</time></trkpt><trkpt lat="42.35841955255896" lon="14.396632823911336"><ele>24.2</ele><time>2026-05-02T07:00:26Z</time></trkpt><trkpt lat="42.35833474815674" lon="14.39665857138626"><ele>23.599999999999998</ele><time>2026-05-02T07:00:27Z</time></trkpt><trkpt lat="42.35828828875893" lon="14.39682703195507"><ele>23.0</ele><time>2026-05-02T07:00:28Z</time></trkpt><trkpt lat="42.35825133228619" lon="14.396965451563307"><ele>23.0</ele><time>2026-05-02T07:00:29Z</time></trkpt><trkpt lat="42.35824277379887" lon="14.397081907869126"><ele>23.0</ele><time>2026-05-02T07:00:30Z</time></trkpt><trkpt lat="42.35828910071921" lon="14.397176320812989"><ele>23.0</ele><time>2026-05-02T07:00:31Z</time></trkpt><trkpt lat="42.358374135683675" lon="14.397321101845193"><ele>23.0</ele><time>2026-05-02T07:00:32Z</time></trkpt><trkpt lat="42.35849004119111" lon="14.397415680833053"><ele>23.0</ele><time>2026-05-02T07:00:33Z</time></trkpt><trkpt lat="42.3585782515117" lon="14.397475802447183"><ele>23.799999999999997</ele><time>2026-05-02T07:00:34Z</time></trkpt><trkpt lat="42.35868708902046" lon="14.39748863009319"><ele>24.6</ele><time>2026-05-02T07:00:35Z</time></trkpt><trkpt lat="42.35882164827748" lon="14.397551650868373"><ele>25.400000000000002</ele><time>2026-05-02T07:00:36Z</time></trkpt><trkpt lat="42.35892236225903" lon="14.39760124097187"><ele>26.200000000000003</ele><time>2026-05-02T07:00:37Z</time></trkpt><trkpt lat="42.358997915965425" lon="14.397661593672456"><ele>27.0</ele><time>2026-05-02T07:00:38Z</time></trkpt><trkpt lat="42.35907251616939" lon="14.39773019419106"><ele>27.0</ele><time>2026-05-02T07:00:39Z</time></trkpt><trkpt lat="42.35915842945563" lon="14.397780728939471"><ele>27.000000000000004</ele><time>2026-05-02T07:00:40Z</time></trkpt><trkpt lat="42.35925761583523" lon="14.397809054345514"><ele>27.000000000000004</ele><time>2026-05-02T07:00:41Z</time></trkpt><trkpt lat="42.35936482820128" lon="14.397826620568042"><ele>27.0</ele><time>2026-05-02T07:00:42Z</time></trkpt><trkpt lat="42.359475297949345" lon="14.397824156177283"><ele>27.0</ele><time>2026-05-02T07:00:43Z</time></trkpt><trkpt lat="42.359585911803165" lon="14.397823335579695"><ele>27.0</ele><time>2026-05-02T07:00:44Z</time></trkpt><trkpt lat="42.35969907585976" lon="14.397819332435049"><ele>27.0</ele><time>2026-05-02T07:00:45Z</time></trkpt><trkpt lat="42.359823264053645" lon="14.397809136369906"><ele>27.0</ele><time>2026-05-02T07:00:46Z</time></trkpt><trkpt lat="42.35994152561313" lon="14.397794127826318"><ele>27.0</ele><time>2026-05-02T07:00:47Z</time></trkpt><trkpt lat="42.36006004939921" lon="14.397788139584137"><ele>26.75</ele><time>2026-05-02T07:00:48Z</time></trkpt><trkpt lat="42.36018500300872" lon="14.397781767959541"><ele>26.5</ele><time>2026-05-02T07:00:49Z</time></trkpt><trkpt lat="42.360295091224316" lon="14.397791938017981"><ele>26.25</ele><time>2026-05-02T07:00:50Z</time></trkpt><trkpt lat="42.360414311689105" lon="14.397751019008249"><ele>26.0</ele><time>2026-05-02T07:00:51Z</time></trkpt><trkpt lat="42.360536948188326" lon="14.397751317727783"><ele>25.25</ele><time>2026-05-02T07:00:52Z</time></trkpt><trkpt lat="42.3606601950263" lon="14.397762159295413"><ele>24.5</ele><time>2026-05-02T07:00:53Z</time></trkpt><trkpt lat="42.36078393578219" lon="14.397807570465309"><ele>23.75</ele><time>2026-05-02T07:00:54Z</time></trkpt><trkpt lat="42.36090365762094" lon="14.397859079181256"><ele>23.0</ele><time>2026-05-02T07:00:55Z</time></trkpt><trkpt lat="42.36098466050855" lon="14.397983521745608"><ele>28.5</ele><time>2026-05-02T07:00:56Z</time></trkpt><trkpt lat="42.361065897256296" lon="14.398120187597792"><ele>34.0</ele><time>2026-05-02T07:00:57Z</time></trkpt><trkpt lat="42.361136171683434" lon="14.39827003416346"><ele>39.5</ele><time>2026-05-02T07:00:58Z</time></trkpt><trkpt lat="42.36118684988566" lon="14.398430053816396"><ele>45.0</ele><time>2026-05-02T07:00:59Z</time></trkpt><trkpt lat="42.361191763929455" lon="14.398605250488917"><ele>45.0</ele><time>2026-05-02T07:01:00Z</time></trkpt><trkpt lat="42.36123789958871" lon="14.398767054656231"><ele>45.0</ele><time>2026-05-02T07:01:01Z</time></trkpt><trkpt lat="42.36128957804688" lon="14.398919655866868"><ele>45.0</ele><time>2026-05-02T07:01:02Z</time></trkpt><trkpt lat="42.36135804423872" lon="14.399053491223881"><ele>45.0</ele><time>2026-05-02T07:01:03Z</time></trkpt><trkpt lat="42.36141244066378" lon="14.39918062269279"><ele>42.5</ele><time>2026-05-02T07:01:04Z</time></trkpt><trkpt lat="42.36143708298572" lon="14.399319529361389"><ele>40.0</ele><time>2026-05-02T07:01:05Z</time></trkpt><trkpt lat="42.3614318254419" lon="14.399483304288353"><ele>37.5</ele><time>2026-05-02T07:01:06Z</time></trkpt><trkpt lat="42.36141111105824" lon="14.399637439108584"><ele>35.0</ele><time>2026-05-02T07:01:07Z</time></trkpt><trkpt lat="42.361378583372506" lon="14.399806388605633"><ele>40.0</ele><time>2026-05-02T07:01:08Z</time></trkpt><trkpt lat="42.361349139245384" lon="14.39998062534745"><ele>45.0</ele><time>2026-05-02T07:01:09Z</time></trkpt><trkpt lat="42.361319599404084" lon="14.400152685142785"><ele>50.0</ele><time>2026-05-02T07:01:10Z</time></trkpt><trkpt lat="42.3612892665685" lon="14.400321762497047"><ele>55.0</ele><time>2026-05-02T07:01:11Z</time></trkpt><trkpt lat="42.36126347565357" lon="14.40048145443821"><ele>54.4</ele><time>2026-05-02T07:01:12Z</time></trkpt><trkpt lat="42.36120478103761" lon="14.400600461724597"><ele>53.8</ele><time>2026-05-02T07:01:13Z</time></trkpt><trkpt lat="42.36112435995671" lon="14.400679141342776"><ele>53.2</ele><time>2026-05-02T07:01:14Z</time></trkpt><trkpt lat="42.361015672807326" lon="14.400690072772825"><ele>52.6</ele><time>2026-05-02T07:01:15Z</time></trkpt><trkpt lat="42.36091718127576" lon="14.400737043613063"><ele>52.0</ele><time>2026-05-02T07:01:16Z</time></trkpt><trkpt lat="42.36081938020948" lon="14.4007528736163"><ele>52.0</ele><time>2026-05-02T07:01:17Z</time></trkpt><trkpt lat="42.36072361540959" lon="14.4007944841733"><ele>52.0</ele><time>2026-05-02T07:01:18Z</time></trkpt><trkpt lat="42.36063240951477" lon="14.400885120975621"><ele>52.0</ele><time>2026-05-02T07:01:19Z</time></trkpt><trkpt lat="42.36056866948327" lon="14.401015334477703"><ele>52.0</ele><time>2026-05-02T07:01:20Z</time></trkpt><trkpt lat="42.36053170086191" lon="14.40116841095479"><ele>52.0</ele><time>2026-05-02T07:01:21Z</time></trkpt><trkpt lat="42.360510208840026" lon="14.401323505977231"><ele>54.25</ele><time>2026-05-02T07:01:22Z</time></trkpt><trkpt lat="42.3604877521058" lon="14.401481143680796"><ele>56.5</ele><time>2026-05-02T07:01:23Z</time></trkpt><trkpt lat="42.36045476163013" lon="14.401627979453458"><ele>58.75</ele><time>2026-05-02T07:01:24Z</time></trkpt><trkpt lat="42.360407056674376" lon="14.401763678818503"><ele>61.0</ele><time>2026-05-02T07:01:25Z</time></trkpt><trkpt lat="42.360344999223955" lon="14.40188981000273"><ele>61.0</ele><time>2026-05-02T07:01:26Z</time></trkpt><trkpt lat="42.36026681412726" lon="14.402005613179298"><ele>61.0</ele><time>2026-05-02T07:01:27Z</time></trkpt><trkpt lat="42.36018856605419" lon="14.402119084694668"><ele>61.0</ele><time>2026-05-02T07:01:28Z</time></trkpt><trkpt lat="42.360111290254544" lon="14.402239876970024"><ele>61.0</ele><time>2026-05-02T07:01:29Z</time></trkpt><trkpt lat="42.36002972199569" lon="14.402353889592854"><ele>61.8</ele><time>2026-05-02T07:01:30Z</time></trkpt><trkpt lat="42.35995161542858" lon="14.402464462135177"><ele>62.599999999999994</ele><time>2026-05-02T07:01:31Z</time></trkpt><trkpt lat="42.359882580110536" lon="14.402578107306883"><ele>63.4</ele><time>2026-05-02T07:01:32Z</time></trkpt><trkpt lat="42.359818288137376" lon="14.402677862781742"><ele>64.2</ele><time>2026-05-02T07:01:33Z</time></trkpt><trkpt lat="42.359759860747424" lon="14.402770748771076"><ele>65.0</ele><time>2026-05-02T07:01:34Z</time></trkpt><trkpt lat="42.35969213751833" lon="14.402857116603757"><ele>65.0</ele><time>2026-05-02T07:01:35Z</time></trkpt><trkpt lat="42.35961901962392" lon="14.40292287323077"><ele>65.0</ele><time>2026-05-02T07:01:36Z</time></trkpt><trkpt lat="42.35953375697248" lon="14.402965910398194"><ele>65.0</ele><time>2026-05-02T07:01:37Z</time></trkpt><trkpt lat="42.359439007707245" lon="14.402980427053523"><ele>65.0</ele><time>2026-05-02T07:01:38Z</time></trkpt><trkpt lat="42.35934541720339" lon="14.402974156013318"><ele>65.0</ele><time>2026-05-02T07:01:39Z</time></trkpt><trkpt lat="42.35924460777785" lon="14.402971197138813"><ele>65.0</ele><time>2026-05-02T07:01:40Z</time></trkpt><trkpt lat="42.35914976407481" lon="14.402962993501609"><ele>65.0</ele><time>2026-05-02T07:01:41Z</time></trkpt><trkpt lat="42.35905311535664" lon="14.40295585780215"><ele>65.0</ele><time>2026-05-02T07:01:42Z</time></trkpt><trkpt lat="42.3589537602159" lon="14.402949445887558"><ele>65.0</ele><time>2026-05-02T07:01:43Z</time></trkpt><trkpt lat="42.358861002283014" lon="14.402943094208517"><ele>65.0</ele><time>2026-05-02T07:01:44Z</time></trkpt><trkpt lat="42.35875893345448" lon="14.402957117314134"><ele>64.83333333333334</ele><time>2026-05-02T07:01:45Z</time></trkpt><trkpt lat="42.358672070095054" lon="14.40295062754012"><ele>64.66666666666667</ele><time>2026-05-02T07:01:46Z</time></trkpt><trkpt lat="42.35857893415498" lon="14.402961444862521"><ele>64.5</ele><time>2026-05-02T07:01:47Z</time></trkpt><trkpt lat="42.35849598337875" lon="14.402952398847983"><ele>64.33333333333333</ele><time>2026-05-02T07:01:48Z</time></trkpt><trkpt lat="42.35841031045655" lon="14.40295108255045"><ele>64.16666666666666</ele><time>2026-05-02T07:01:49Z</time></trkpt><trkpt lat="42.35832559414827" lon="14.402947190458287"><ele>64.0</ele><time>2026-05-02T07:01:50Z</time></trkpt><trkpt lat="42.358236433574746" lon="14.402944000295227"><ele>64.0</ele><time>2026-05-02T07:01:51Z</time></trkpt><trkpt lat="42.35814340303295" lon="14.402939603189994"><ele>64.0</ele><time>2026-05-02T07:01:52Z</time></trkpt><trkpt lat="42.35805908777634" lon="14.402938241282545"><ele>64.0</ele><time>2026-05-02T07:01:53Z</time></trkpt><trkpt lat="42.357962366959995" lon="14.402941483566417"><ele>64.0</ele><time>2026-05-02T07:01:54Z</time></trkpt><trkpt lat="42.35786266440916" lon="14.402947897004195"><ele>64.0</ele><time>2026-05-02T07:01:55Z</time></trkpt><trkpt lat="42.35776730899308" lon="14.402948794642143"><ele>64.5</ele><time>2026-05-02T07:01:56Z</time></trkpt><trkpt lat="42.35767725052766" lon="14.402943841859736"><ele>65.0</ele><time>2026-05-02T07:01:57Z</time></trkpt><trkpt lat="42.357589020549824" lon="14.402939078272595"><ele>65.5</ele><time>2026-05-02T07:01:58Z</time></trkpt><trkpt lat="42.3575046509388" lon="14.402939458245578"><ele>66.0</ele><time>2026-05-02T07:01:59Z</time></trkpt><trkpt lat="42.357433573553166" lon="14.402933428398972"><ele>66.5</ele><time>2026-05-02T07:02:00Z</time></trkpt><trkpt lat="42.35736059481223" lon="14.402935940028765"><ele>67.0</ele><time>2026-05-02T07:02:01Z</time></trkpt><trkpt lat="42.3572432712805" lon="14.402924920186692"><ele>66.4</ele><time>2026-05-02T07:02:03Z</time></trkpt><trkpt lat="42.35717241045803" lon="14.402909228133828"><ele>65.80000000000001</ele><time>2026-05-02T07:02:05Z</time></trkpt><trkpt lat="42.35709710182749" lon="14.402892170159118"><ele>65.2</ele><time>2026-05-02T07:02:08Z</time></trkpt><trkpt lat="42.35701375618706" lon="14.402871114220208"><ele>64.60000000000001</ele><time>2026-05-02T07:02:11Z</time></trkpt><trkpt lat="42.3569396772178" lon="14.402983685056707"><ele>64.0</ele><time>2026-05-02T07:02:12Z</time></trkpt><trkpt lat="42.35699602735701" lon="14.403127238944485"><ele>63.666666666666664</ele><time>2026-05-02T07:02:13Z</time></trkpt><trkpt lat="42.35700931578311" lon="14.403226239395144"><ele>63.33333333333333</ele><time>2026-05-02T07:02:14Z</time></trkpt><trkpt lat="42.3570249460971" lon="14.403338928651756"><ele>63.0</ele><time>2026-05-02T07:02:15Z</time></trkpt><trkpt lat="42.35703481469666" lon="14.403453065122303"><ele>62.66666666666667</ele><time>2026-05-02T07:02:16Z</time></trkpt><trkpt lat="42.35704086641605" lon="14.403546178902669"><ele>62.333333333333336</ele><time>2026-05-02T07:02:17Z</time></trkpt><trkpt lat="42.35705492526192" lon="14.403657100388614"><ele>62.0</ele><time>2026-05-02T07:02:19Z</time></trkpt><trkpt lat="42.35705668147895" lon="14.403773232603386"><ele>62.00000000000001</ele><time>2026-05-02T07:02:21Z</time></trkpt><trkpt lat="42.35715513084368" lon="14.403796002696925"><ele>62.0</ele><time>2026-05-02T07:02:22Z</time></trkpt><trkpt lat="42.357222623226406" lon="14.403817430567553"><ele>62.0</ele><time>2026-05-02T07:02:23Z</time></trkpt><trkpt lat="42.357283791360324" lon="14.403858856210105"><ele>62.0</ele><time>2026-05-02T07:02:24Z</time></trkpt><trkpt lat="42.357358423925994" lon="14.40389435894301"><ele>62.00000000000001</ele><time>2026-05-02T07:02:25Z</time></trkpt><trkpt lat="42.35743601312982" lon="14.403922278166917"><ele>62.0</ele><time>2026-05-02T07:02:26Z</time></trkpt><trkpt lat="42.35751571065912" lon="14.403959494650811"><ele>62.2</ele><time>2026-05-02T07:02:27Z</time></trkpt><trkpt lat="42.357604150921475" lon="14.404018548914117"><ele>62.400000000000006</ele><time>2026-05-02T07:02:28Z</time></trkpt><trkpt lat="42.35768830001016" lon="14.404070421308667"><ele>62.599999999999994</ele><time>2026-05-02T07:02:29Z</time></trkpt><trkpt lat="42.35777029187908" lon="14.404107901247178"><ele>62.8</ele><time>2026-05-02T07:02:30Z</time></trkpt><trkpt lat="42.35784320365482" lon="14.40417407296163"><ele>63.0</ele><time>2026-05-02T07:02:31Z</time></trkpt><trkpt lat="42.35791346236639" lon="14.404247438093128"><ele>63.0</ele><time>2026-05-02T07:02:32Z</time></trkpt><trkpt lat="42.35798815044854" lon="14.404313086111063"><ele>63.0</ele><time>2026-05-02T07:02:33Z</time></trkpt><trkpt lat="42.35806998857727" lon="14.4043865874118"><ele>63.0</ele><time>2026-05-02T07:02:34Z</time></trkpt><trkpt lat="42.358157054555434" lon="14.404465109900658"><ele>63.0</ele><time>2026-05-02T07:02:35Z</time></trkpt><trkpt lat="42.35824310046906" lon="14.404544967950187"><ele>63.0</ele><time>2026-05-02T07:02:36Z</time></trkpt><trkpt lat="42.35832880647146" lon="14.404631224656463"><ele>62.599999999999994</ele><time>2026-05-02T07:02:37Z</time></trkpt><trkpt lat="42.35841082147353" lon="14.404729734748484"><ele>62.199999999999996</ele><time>2026-05-02T07:02:38Z</time></trkpt><trkpt lat="42.358485090409815" lon="14.404837756434512"><ele>61.8</ele><time>2026-05-02T07:02:39Z</time></trkpt><trkpt lat="42.35856677658586" lon="14.404942500470849"><ele>61.4</ele><time>2026-05-02T07:02:40Z</time></trkpt><trkpt lat="42.35861763167523" lon="14.40507017761413"><ele>61.0</ele><time>2026-05-02T07:02:41Z</time></trkpt><trkpt lat="42.35866821437568" lon="14.405172193678498"><ele>60.99999999999999</ele><time>2026-05-02T07:02:42Z</time></trkpt><trkpt lat="42.35870361655723" lon="14.405258918880918"><ele>61.0</ele><time>2026-05-02T07:02:43Z</time></trkpt><trkpt lat="42.3587138355491" lon="14.405351127485902"><ele>61.0</ele><time>2026-05-02T07:02:44Z</time></trkpt><trkpt lat="42.3586888883466" lon="14.405448150012857"><ele>61.0</ele><time>2026-05-02T07:02:45Z</time></trkpt><trkpt lat="42.35862933587438" lon="14.405520955241357"><ele>60.99999999999999</ele><time>2026-05-02T07:02:46Z</time></trkpt><trkpt lat="42.35860097280453" lon="14.40561577363606"><ele>61.0</ele><time>2026-05-02T07:02:47Z</time></trkpt><trkpt lat="42.35855111614453" lon="14.405704298553214"><ele>60.666666666666664</ele><time>2026-05-02T07:02:48Z</time></trkpt><trkpt lat="42.35850216619175" lon="14.405795012966763"><ele>60.33333333333333</ele><time>2026-05-02T07:02:49Z</time></trkpt><trkpt lat="42.35847728408767" lon="14.40591372268959"><ele>60.0</ele><time>2026-05-02T07:02:50Z</time></trkpt><trkpt lat="42.35841216110873" lon="14.406044617794104"><ele>59.66666666666667</ele><time>2026-05-02T07:02:52Z</time></trkpt><trkpt lat="42.358381025265544" lon="14.406122330552767"><ele>59.333333333333336</ele><time>2026-05-02T07:02:53Z</time></trkpt><trkpt lat="42.3583582781219" lon="14.4062050702996"><ele>59.0</ele><time>2026-05-02T07:02:54Z</time></trkpt><trkpt lat="42.35832967382856" lon="14.406284093839176"><ele>59.0</ele><time>2026-05-02T07:02:55Z</time></trkpt><trkpt lat="42.35828099265238" lon="14.406376029521708"><ele>59.00000000000001</ele><time>2026-05-02T07:02:57Z</time></trkpt><trkpt lat="42.3584236223779" lon="14.406282353232463"><ele>59.00000000000001</ele><time>2026-05-02T07:03:01Z</time></trkpt><trkpt lat="42.35842628638152" lon="14.406132357835855"><ele>59.0</ele><time>2026-05-02T07:03:08Z</time></trkpt><trkpt lat="42.35845872742901" lon="14.40604394180559"><ele>59.0</ele><time>2026-05-02T07:03:09Z</time></trkpt><trkpt lat="42.35848966854588" lon="14.40595287801321"><ele>59.00000000000001</ele><time>2026-05-02T07:03:10Z</time></trkpt><trkpt lat="42.35853352778941" lon="14.405815807996337"><ele>59.0</ele><time>2026-05-02T07:03:12Z</time></trkpt><trkpt lat="42.358581617726564" lon="14.405700045623057"><ele>59.0</ele><time>2026-05-02T07:03:14Z</time></trkpt><trkpt lat="42.358621133400774" lon="14.405617408952219"><ele>59.0</ele><time>2026-05-02T07:03:15Z</time></trkpt><trkpt lat="42.35866824853955" lon="14.405531098343026"><ele>59.00000000000001</ele><time>2026-05-02T07:03:16Z</time></trkpt><trkpt lat="42.35871615022214" lon="14.405441506197894"><ele>59.0</ele><time>2026-05-02T07:03:17Z</time></trkpt><trkpt lat="42.35874403886743" lon="14.405335141959387"><ele>59.400000000000006</ele><time>2026-05-02T07:03:18Z</time></trkpt><trkpt lat="42.35873995446838" lon="14.405234363724254"><ele>59.800000000000004</ele><time>2026-05-02T07:03:19Z</time></trkpt><trkpt lat="42.35870214776226" lon="14.405117028098047"><ele>60.199999999999996</ele><time>2026-05-02T07:03:20Z</time></trkpt><trkpt lat="42.35862323758262" lon="14.405004800478496"><ele>60.599999999999994</ele><time>2026-05-02T07:03:21Z</time></trkpt><trkpt lat="42.358571599566964" lon="14.404910494416386"><ele>61.0</ele><time>2026-05-02T07:03:22Z</time></trkpt><trkpt lat="42.35850912635804" lon="14.404806548705235"><ele>61.0</ele><time>2026-05-02T07:03:23Z</time></trkpt><trkpt lat="42.358438847933186" lon="14.404703922232683"><ele>60.99999999999999</ele><time>2026-05-02T07:03:24Z</time></trkpt><trkpt lat="42.35836675856899" lon="14.404614888618386"><ele>60.99999999999999</ele><time>2026-05-02T07:03:25Z</time></trkpt><trkpt lat="42.35829761101067" lon="14.404542253022827"><ele>61.0</ele><time>2026-05-02T07:03:26Z</time></trkpt><trkpt lat="42.35821834695443" lon="14.404466984404886"><ele>61.0</ele><time>2026-05-02T07:03:27Z</time></trkpt><trkpt lat="42.35812909854345" lon="14.404385863986548"><ele>61.4</ele><time>2026-05-02T07:03:28Z</time></trkpt><trkpt lat="42.35805721851817" lon="14.404321037290051"><ele>61.8</ele><time>2026-05-02T07:03:29Z</time></trkpt><trkpt lat="42.35797859002137" lon="14.404251070212203"><ele>62.199999999999996</ele><time>2026-05-02T07:03:30Z</time></trkpt><trkpt lat="42.35789308014627" lon="14.40417591027011"><ele>62.599999999999994</ele><time>2026-05-02T07:03:31Z</time></trkpt><trkpt lat="42.35780118290292" lon="14.404099748996272"><ele>63.0</ele><time>2026-05-02T07:03:32Z</time></trkpt><trkpt lat="42.357702746718644" lon="14.404029952847424"><ele>63.0</ele><time>2026-05-02T07:03:33Z</time></trkpt><trkpt lat="42.35760250409634" lon="14.40398810989395"><ele>63.0</ele><time>2026-05-02T07:03:34Z</time></trkpt><trkpt lat="42.3575111445975" lon="14.403923374775777"><ele>63.0</ele><time>2026-05-02T07:03:35Z</time></trkpt><trkpt lat="42.35741464153995" lon="14.403875697683695"><ele>63.0</ele><time>2026-05-02T07:03:36Z</time></trkpt><trkpt lat="42.35732037761572" lon="14.403831738611265"><ele>63.0</ele><time>2026-05-02T07:03:37Z</time></trkpt><trkpt lat="42.357239021972234" lon="14.403796315958814"><ele>62.833333333333336</ele><time>2026-05-02T07:03:38Z</time></trkpt><trkpt lat="42.35717120105865" lon="14.403766786408644"><ele>62.66666666666667</ele><time>2026-05-02T07:03:39Z</time></trkpt><trkpt lat="42.357056732118544" lon="14.403735536157088"><ele>62.5</ele><time>2026-05-02T07:03:41Z</time></trkpt><trkpt lat="42.35707728273778" lon="14.403627961527596"><ele>62.333333333333336</ele><time>2026-05-02T07:03:43Z</time></trkpt><trkpt lat="42.35705605980163" lon="14.40349540501816"><ele>62.16666666666667</ele><time>2026-05-02T07:03:45Z</time></trkpt><trkpt lat="42.357049518522075" lon="14.403403474287634"><ele>62.0</ele><time>2026-05-02T07:03:46Z</time></trkpt><trkpt lat="42.357056333753896" lon="14.403300955728836"><ele>62.00000000000001</ele><time>2026-05-02T07:03:47Z</time></trkpt><trkpt lat="42.3570519045828" lon="14.403202863882044"><ele>62.0</ele><time>2026-05-02T07:03:48Z</time></trkpt><trkpt lat="42.357047480832094" lon="14.403104892030552"><ele>62.0</ele><time>2026-05-02T07:03:49Z</time></trkpt><trkpt lat="42.35704209247996" lon="14.402989674859173"><ele>62.0</ele><time>2026-05-02T07:03:51Z</time></trkpt><trkpt lat="42.35701806242777" lon="14.402871361610236"><ele>62.00000000000001</ele><time>2026-05-02T07:03:54Z</time></trkpt><trkpt lat="42.356956848789025" lon="14.402776183273602"><ele>62.0</ele><time>2026-05-02T07:03:56Z</time></trkpt><trkpt lat="42.35689769411274" lon="14.402689285159664"><ele>62.333333333333336</ele><time>2026-05-02T07:04:00Z</time></trkpt><trkpt lat="42.35685459864382" lon="14.4026219642133"><ele>62.66666666666667</ele><time>2026-05-02T07:04:02Z</time></trkpt><trkpt lat="42.35680863985237" lon="14.402550170446126"><ele>63.0</ele><time>2026-05-02T07:04:04Z</time></trkpt><trkpt lat="42.35674758225229" lon="14.402454790057911"><ele>63.33333333333333</ele><time>2026-05-02T07:04:06Z</time></trkpt><trkpt lat="42.356672254935184" lon="14.402339015051847"><ele>63.666666666666664</ele><time>2026-05-02T07:04:08Z</time></trkpt><trkpt lat="42.35662754070257" lon="14.402270183094199"><ele>64.0</ele><time>2026-05-02T07:04:09Z</time></trkpt><trkpt lat="42.35658260691393" lon="14.402201013182884"><ele>64.5</ele><time>2026-05-02T07:04:10Z</time></trkpt><trkpt lat="42.35653068057752" lon="14.402121079120267"><ele>65.0</ele><time>2026-05-02T07:04:11Z</time></trkpt><trkpt lat="42.356475080150496" lon="14.40203437779086"><ele>65.5</ele><time>2026-05-02T07:04:12Z</time></trkpt><trkpt lat="42.356418448055905" lon="14.40194655365941"><ele>66.0</ele><time>2026-05-02T07:04:13Z</time></trkpt><trkpt lat="42.35636013381412" lon="14.401856655966364"><ele>66.5</ele><time>2026-05-02T07:04:14Z</time></trkpt><trkpt lat="42.356301718759596" lon="14.401766514530358"><ele>67.0</ele><time>2026-05-02T07:04:15Z</time></trkpt><trkpt lat="42.35624644078039" lon="14.40168102217084"><ele>67.5</ele><time>2026-05-02T07:04:16Z</time></trkpt><trkpt lat="42.35618428884012" lon="14.401585099095039"><ele>68.0</ele><time>2026-05-02T07:04:17Z</time></trkpt><trkpt lat="42.35612750573923" lon="14.40149764654856"><ele>68.5</ele><time>2026-05-02T07:04:18Z</time></trkpt><trkpt lat="42.35606827737423" lon="14.401406427049702"><ele>69.0</ele><time>2026-05-02T07:04:19Z</time></trkpt><trkpt lat="42.356009616507954" lon="14.401316083889615"><ele>69.5</ele><time>2026-05-02T07:04:20Z</time></trkpt><trkpt lat="42.35595025287784" lon="14.401225192844809"><ele>70.0</ele><time>2026-05-02T07:04:21Z</time></trkpt><trkpt lat="42.355893499579665" lon="14.401137562759958"><ele>70.33333333333333</ele><time>2026-05-02T07:04:22Z</time></trkpt><trkpt lat="42.35583995971377" lon="14.4010541835628"><ele>70.66666666666666</ele><time>2026-05-02T07:04:23Z</time></trkpt><trkpt lat="42.35578706587462" lon="14.400971810147496"><ele>71.0</ele><time>2026-05-02T07:04:24Z</time></trkpt><trkpt lat="42.355733327217266" lon="14.40088786035368"><ele>71.33333333333333</ele><time>2026-05-02T07:04:25Z</time></trkpt><trkpt lat="42.3556799728887" lon="14.400804467108701"><ele>71.66666666666667</ele><time>2026-05-02T07:04:26Z</time></trkpt><trkpt lat="42.35562529711931" lon="14.400719009320746"><ele>72.0</ele><time>2026-05-02T07:04:27Z</time></trkpt><trkpt lat="42.355569500554516" lon="14.400630841734182"><ele>72.0</ele><time>2026-05-02T07:04:28Z</time></trkpt><trkpt lat="42.35551341034004" lon="14.400542310342765"><ele>72.0</ele><time>2026-05-02T07:04:29Z</time></trkpt><trkpt lat="42.35545596136527" lon="14.4004516343925"><ele>72.0</ele><time>2026-05-02T07:04:30Z</time></trkpt><trkpt lat="42.35539786144835" lon="14.400359691658927"><ele>72.0</ele><time>2026-05-02T07:04:31Z</time></trkpt><trkpt lat="42.35533911024156" lon="14.400265943232684"><ele>72.0</ele><time>2026-05-02T07:04:32Z</time></trkpt><trkpt lat="42.35528088475431" lon="14.400173033603211"><ele>72.0</ele><time>2026-05-02T07:04:33Z</time></trkpt><trkpt lat="42.35522116794529" lon="14.400076468207356"><ele>72.0</ele><time>2026-05-02T07:04:34Z</time></trkpt><trkpt lat="42.355161424599515" lon="14.399979510864798"><ele>72.0</ele><time>2026-05-02T07:04:35Z</time></trkpt><trkpt lat="42.35510059020224" lon="14.39988176983891"><ele>72.0</ele><time>2026-05-02T07:04:36Z</time></trkpt><trkpt lat="42.35504464467314" lon="14.399795292657725"><ele>72.0</ele><time>2026-05-02T07:04:37Z</time></trkpt><trkpt lat="42.35499431715727" lon="14.399717499406503"><ele>72.0</ele><time>2026-05-02T07:04:38Z</time></trkpt><trkpt lat="42.35495223771926" lon="14.399652455531662"><ele>72.0</ele><time>2026-05-02T07:04:39Z</time></trkpt><trkpt lat="42.35489258571461" lon="14.399562315647533"><ele>69.8</ele><time>2026-05-02T07:04:41Z</time></trkpt><trkpt lat="42.35485085001096" lon="14.399471653361484"><ele>67.6</ele><time>2026-05-02T07:04:43Z</time></trkpt><trkpt lat="42.354823300568114" lon="14.399325296257166"><ele>65.39999999999999</ele><time>2026-05-02T07:04:45Z</time></trkpt><trkpt lat="42.354745837802696" lon="14.399259237597988"><ele>63.199999999999996</ele><time>2026-05-02T07:04:47Z</time></trkpt><trkpt lat="42.35464522080874" lon="14.399302959883489"><ele>61.0</ele><time>2026-05-02T07:04:49Z</time></trkpt><trkpt lat="42.35459775593451" lon="14.399470267216138"><ele>59.0</ele><time>2026-05-02T07:04:51Z</time></trkpt><trkpt lat="42.35456728748023" lon="14.399565501291605"><ele>56.99999999999999</ele><time>2026-05-02T07:04:52Z</time></trkpt><trkpt lat="42.35449724189063" lon="14.399640131327422"><ele>55.0</ele><time>2026-05-02T07:04:53Z</time></trkpt><trkpt lat="42.354337881264655" lon="14.39955287854261"><ele>53.0</ele><time>2026-05-02T07:04:54Z</time></trkpt><trkpt lat="42.35427756550123" lon="14.399614854358484"><ele>51.0</ele><time>2026-05-02T07:04:55Z</time></trkpt><trkpt lat="42.35420968349228" lon="14.399656514758238"><ele>51.0</ele><time>2026-05-02T07:04:56Z</time></trkpt><trkpt lat="42.3541370147507" lon="14.39967997178879"><ele>51.0</ele><time>2026-05-02T07:04:57Z</time></trkpt><trkpt lat="42.35406701662296" lon="14.399682386397854"><ele>51.0</ele><time>2026-05-02T07:04:58Z</time></trkpt><trkpt lat="42.35399167164589" lon="14.399671274303495"><ele>51.0</ele><time>2026-05-02T07:04:59Z</time></trkpt><trkpt lat="42.353924982172764" lon="14.399643349778879"><ele>51.0</ele><time>2026-05-02T07:05:00Z</time></trkpt><trkpt lat="42.35385733712822" lon="14.399597143872697"><ele>51.0</ele><time>2026-05-02T07:05:01Z</time></trkpt><trkpt lat="42.353780988279844" lon="14.399537837023715"><ele>51.199999999999996</ele><time>2026-05-02T07:05:02Z</time></trkpt><trkpt lat="42.35370031277966" lon="14.39946986878453"><ele>51.4</ele><time>2026-05-02T07:05:03Z</time></trkpt><trkpt lat="42.35362928914068" lon="14.399404959859078"><ele>51.6</ele><time>2026-05-02T07:05:04Z</time></trkpt><trkpt lat="42.35357562378679" lon="14.399353358134208"><ele>51.8</ele><time>2026-05-02T07:05:05Z</time></trkpt><trkpt lat="42.3535109072047" lon="14.399306187172861"><ele>52.0</ele><time>2026-05-02T07:05:07Z</time></trkpt><trkpt lat="42.35323453679131" lon="14.399799554787052"><ele>55.400000000000006</ele><time>2026-05-02T07:05:08Z</time></trkpt><trkpt lat="42.353177802997614" lon="14.399914926519422"><ele>58.800000000000004</ele><time>2026-05-02T07:05:09Z</time></trkpt><trkpt lat="42.35313620345932" lon="14.400031636136072"><ele>62.2</ele><time>2026-05-02T07:05:10Z</time></trkpt><trkpt lat="42.35309082278801" lon="14.400136465685677"><ele>65.60000000000001</ele><time>2026-05-02T07:05:11Z</time></trkpt><trkpt lat="42.35304811442095" lon="14.400249392202257"><ele>69.0</ele><time>2026-05-02T07:05:12Z</time></trkpt><trkpt lat="42.35299588086979" lon="14.400349132267088"><ele>69.5</ele><time>2026-05-02T07:05:13Z</time></trkpt><trkpt lat="42.35294397979765" lon="14.400445507229376"><ele>70.0</ele><time>2026-05-02T07:05:14Z</time></trkpt><trkpt lat="42.35290187938796" lon="14.400544793383697"><ele>70.5</ele><time>2026-05-02T07:05:15Z</time></trkpt><trkpt lat="42.35285909677101" lon="14.400637040392228"><ele>71.0</ele><time>2026-05-02T07:05:16Z</time></trkpt><trkpt lat="42.352819898268066" lon="14.400732376087335"><ele>71.5</ele><time>2026-05-02T07:05:17Z</time></trkpt><trkpt lat="42.35277710547616" lon="14.400816646209826"><ele>72.0</ele><time>2026-05-02T07:05:18Z</time></trkpt><trkpt lat="42.35273720625249" lon="14.400901023548816"><ele>72.5</ele><time>2026-05-02T07:05:19Z</time></trkpt><trkpt lat="42.35269401575401" lon="14.40098055296838"><ele>73.0</ele><time>2026-05-02T07:05:20Z</time></trkpt><trkpt lat="42.35265418860329" lon="14.401059949140985"><ele>73.5</ele><time>2026-05-02T07:05:21Z</time></trkpt><trkpt lat="42.3525927531023" lon="14.401190849406897"><ele>74.0</ele><time>2026-05-02T07:05:23Z</time></trkpt><trkpt lat="42.35255700423562" lon="14.401295696304556"><ele>74.5</ele><time>2026-05-02T07:05:25Z</time></trkpt><trkpt lat="42.35251136569113" lon="14.401422888967614"><ele>75.0</ele><time>2026-05-02T07:05:28Z</time></trkpt><trkpt lat="42.3524793434053" lon="14.401508474172449"><ele>75.0</ele><time>2026-05-02T07:05:30Z</time></trkpt><trkpt lat="42.352400159876844" lon="14.401530839729485"><ele>75.0</ele><time>2026-05-02T07:05:32Z</time></trkpt><trkpt lat="42.35230895127009" lon="14.401478892653516"><ele>75.0</ele><time>2026-05-02T07:05:34Z</time></trkpt><trkpt lat="42.35221267104308" lon="14.401467709319446"><ele>75.0</ele><time>2026-05-02T07:05:36Z</time></trkpt><trkpt lat="42.35214502934884" lon="14.401443626897901"><ele>75.0</ele><time>2026-05-02T07:05:39Z</time></trkpt><trkpt lat="42.35208150496676" lon="14.401431408433256"><ele>75.0</ele><time>2026-05-02T07:05:44Z</time></trkpt><trkpt lat="42.35201348443564" lon="14.401384218207708"><ele>75.0</ele><time>2026-05-02T07:05:48Z</time></trkpt><trkpt lat="42.351937269357336" lon="14.401385012193348"><ele>75.0</ele><time>2026-05-02T07:05:53Z</time></trkpt><trkpt lat="42.351851048335725" lon="14.401366105036423"><ele>75.0</ele><time>2026-05-02T07:05:56Z</time></trkpt><trkpt lat="42.3517719066646" lon="14.401332313774951"><ele>75.0</ele><time>2026-05-02T07:05:58Z</time></trkpt><trkpt lat="42.351692609858695" lon="14.401314121242033"><ele>75.0</ele><time>2026-05-02T07:06:01Z</time></trkpt><trkpt lat="42.351596267621815" lon="14.40128871772415"><ele>75.0</ele><time>2026-05-02T07:06:04Z</time></trkpt><trkpt lat="42.35150963635727" lon="14.401273255248874"><ele>75.0</ele><time>2026-05-02T07:06:06Z</time></trkpt><trkpt lat="42.351416372756724" lon="14.40127815251978"><ele>75.0</ele><time>2026-05-02T07:06:08Z</time></trkpt><trkpt lat="42.35130870145629" lon="14.401240798616136"><ele>75.0</ele><time>2026-05-02T07:06:10Z</time></trkpt><trkpt lat="42.35119392865614" lon="14.4012190784254"><ele>75.0</ele><time>2026-05-02T07:06:12Z</time></trkpt><trkpt lat="42.351131393812885" lon="14.401195263321876"><ele>75.0</ele><time>2026-05-02T07:06:13Z</time></trkpt><trkpt lat="42.3510565644907" lon="14.401184673412995"><ele>75.2</ele><time>2026-05-02T07:06:14Z</time></trkpt><trkpt lat="42.35093353538109" lon="14.401149784472018"><ele>75.4</ele><time>2026-05-02T07:06:16Z</time></trkpt><trkpt lat="42.35086380038149" lon="14.401147774688706"><ele>75.6</ele><time>2026-05-02T07:06:17Z</time></trkpt><trkpt lat="42.3508007241269" lon="14.401131334310067"><ele>75.8</ele><time>2026-05-02T07:06:18Z</time></trkpt><trkpt lat="42.35069669282623" lon="14.401101946405442"><ele>76.0</ele><time>2026-05-02T07:06:20Z</time></trkpt><trkpt lat="42.350606987590936" lon="14.401076690869258"><ele>76.0</ele><time>2026-05-02T07:06:22Z</time></trkpt><trkpt lat="42.35052322447365" lon="14.401056075841328"><ele>76.0</ele><time>2026-05-02T07:06:24Z</time></trkpt><trkpt lat="42.35048192282313" lon="14.401151745749527"><ele>76.0</ele><time>2026-05-02T07:06:26Z</time></trkpt><trkpt lat="42.35047462509793" lon="14.401252434184475"><ele>76.0</ele><time>2026-05-02T07:06:27Z</time></trkpt><trkpt lat="42.35046784904553" lon="14.40136012094286"><ele>76.0</ele><time>2026-05-02T07:06:28Z</time></trkpt><trkpt lat="42.350457301360215" lon="14.401465801703537"><ele>76.0</ele><time>2026-05-02T07:06:29Z</time></trkpt><trkpt lat="42.35043328038909" lon="14.401549272186866"><ele>76.0</ele><time>2026-05-02T07:06:30Z</time></trkpt><trkpt lat="42.350429450906766" lon="14.401648488137825"><ele>76.0</ele><time>2026-05-02T07:06:31Z</time></trkpt><trkpt lat="42.350419497909385" lon="14.401735412288042"><ele>76.0</ele><time>2026-05-02T07:06:32Z</time></trkpt><trkpt lat="42.35040581386694" lon="14.40184812822657"><ele>76.0</ele><time>2026-05-02T07:06:34Z</time></trkpt><trkpt lat="42.35037462651275" lon="14.401967479467896"><ele>76.0</ele><time>2026-05-02T07:06:36Z</time></trkpt><trkpt lat="42.35036263214939" lon="14.402079961800696"><ele>76.0</ele><time>2026-05-02T07:06:37Z</time></trkpt><trkpt lat="42.35036526003648" lon="14.402166187982681"><ele>76.0</ele><time>2026-05-02T07:06:38Z</time></trkpt><trkpt lat="42.350345239545746" lon="14.402252728104212"><ele>76.0</ele><time>2026-05-02T07:06:41Z</time></trkpt><trkpt lat="42.35027920834955" lon="14.40225412285316"><ele>76.0</ele><time>2026-05-02T07:06:43Z</time></trkpt><trkpt lat="42.3502026229398" lon="14.402192378641047"><ele>76.0</ele><time>2026-05-02T07:06:44Z</time></trkpt><trkpt lat="42.350120010951436" lon="14.402173218387784"><ele>76.0</ele><time>2026-05-02T07:06:45Z</time></trkpt><trkpt lat="42.35002894676002" lon="14.402152208304702"><ele>76.0</ele><time>2026-05-02T07:06:46Z</time></trkpt><trkpt lat="42.34993889169076" lon="14.402135901036955"><ele>76.0</ele><time>2026-05-02T07:06:47Z</time></trkpt><trkpt lat="42.34983990718721" lon="14.40212294406868"><ele>76.0</ele><time>2026-05-02T07:06:48Z</time></trkpt><trkpt lat="42.349747356148455" lon="14.402111964938412"><ele>76.0</ele><time>2026-05-02T07:06:49Z</time></trkpt><trkpt lat="42.34965377681129" lon="14.402119413881037"><ele>76.0</ele><time>2026-05-02T07:06:50Z</time></trkpt><trkpt lat="42.34957338833431" lon="14.402122990870671"><ele>76.0</ele><time>2026-05-02T07:06:51Z</time></trkpt><trkpt lat="42.34947773001421" lon="14.40215502259048"><ele>76.33333333333333</ele><time>2026-05-02T07:06:53Z</time></trkpt><trkpt lat="42.349281178700785" lon="14.402241703494512"><ele>76.66666666666667</ele><time>2026-05-02T07:07:34Z</time></trkpt><trkpt lat="42.3491681506995" lon="14.402239627643654"><ele>77.0</ele><time>2026-05-02T07:07:35Z</time></trkpt><trkpt lat="42.349049591810484" lon="14.402154137181993"><ele>77.5</ele><time>2026-05-02T07:07:36Z</time></trkpt><trkpt lat="42.34891916530305" lon="14.40216061176777"><ele>78.0</ele><time>2026-05-02T07:07:37Z</time></trkpt><trkpt lat="42.34880104634143" lon="14.402165695057615"><ele>78.5</ele><time>2026-05-02T07:07:38Z</time></trkpt><trkpt lat="42.348680551260315" lon="14.402170686800895"><ele>79.0</ele><time>2026-05-02T07:07:39Z</time></trkpt><trkpt lat="42.34857195880408" lon="14.402174373673773"><ele>79.0</ele><time>2026-05-02T07:07:40Z</time></trkpt><trkpt lat="42.34847109306515" lon="14.402177262945576"><ele>79.0</ele><time>2026-05-02T07:07:41Z</time></trkpt><trkpt lat="42.34836795420447" lon="14.402179631240609"><ele>79.0</ele><time>2026-05-02T07:07:42Z</time></trkpt><trkpt lat="42.34825822312701" lon="14.402178821624569"><ele>79.0</ele><time>2026-05-02T07:07:43Z</time></trkpt><trkpt lat="42.34813794866552" lon="14.4021630936204"><ele>79.0</ele><time>2026-05-02T07:07:44Z</time></trkpt><trkpt lat="42.34803095299467" lon="14.402141126295051"><ele>79.2</ele><time>2026-05-02T07:07:45Z</time></trkpt><trkpt lat="42.34791794293895" lon="14.402113171910548"><ele>79.4</ele><time>2026-05-02T07:07:46Z</time></trkpt><trkpt lat="42.347814706181126" lon="14.402086129940889"><ele>79.6</ele><time>2026-05-02T07:07:47Z</time></trkpt><trkpt lat="42.347713837424806" lon="14.402059818206563"><ele>79.8</ele><time>2026-05-02T07:07:48Z</time></trkpt><trkpt lat="42.347618196566664" lon="14.402033821281442"><ele>80.0</ele><time>2026-05-02T07:07:49Z</time></trkpt><trkpt lat="42.34750198933636" lon="14.402001671724971"><ele>80.0</ele><time>2026-05-02T07:07:50Z</time></trkpt><trkpt lat="42.34738587125301" lon="14.401969958972352"><ele>80.0</ele><time>2026-05-02T07:07:51Z</time></trkpt><trkpt lat="42.34727463582421" lon="14.401939691198548"><ele>80.0</ele><time>2026-05-02T07:07:52Z</time></trkpt><trkpt lat="42.347151679753274" lon="14.401906234170143"><ele>80.0</ele><time>2026-05-02T07:07:53Z</time></trkpt><trkpt lat="42.347040013638484" lon="14.40187584902575"><ele>80.5</ele><time>2026-05-02T07:07:54Z</time></trkpt><trkpt lat="42.346918362808395" lon="14.401843243386372"><ele>81.0</ele><time>2026-05-02T07:07:55Z</time></trkpt><trkpt lat="42.346787531712046" lon="14.401858714385549"><ele>81.5</ele><time>2026-05-02T07:07:56Z</time></trkpt><trkpt lat="42.34667633577451" lon="14.401815725358846"><ele>82.0</ele><time>2026-05-02T07:07:57Z</time></trkpt><trkpt lat="42.34656123661258" lon="14.401779423956002"><ele>82.0</ele><time>2026-05-02T07:07:58Z</time></trkpt><trkpt lat="42.346447729372585" lon="14.401738976240463"><ele>82.0</ele><time>2026-05-02T07:07:59Z</time></trkpt><trkpt lat="42.34634094425799" lon="14.401668511733204"><ele>82.0</ele><time>2026-05-02T07:08:00Z</time></trkpt><trkpt lat="42.34623367873528" lon="14.40162719122696"><ele>82.0</ele><time>2026-05-02T07:08:01Z</time></trkpt><trkpt lat="42.34611687004926" lon="14.401583328533013"><ele>82.0</ele><time>2026-05-02T07:08:02Z</time></trkpt><trkpt lat="42.345995551601476" lon="14.401542924814095"><ele>82.0</ele><time>2026-05-02T07:08:03Z</time></trkpt><trkpt lat="42.345870092146505" lon="14.40149842403645"><ele>82.0</ele><time>2026-05-02T07:08:04Z</time></trkpt><trkpt lat="42.34574431635085" lon="14.401452673352777"><ele>82.0</ele><time>2026-05-02T07:08:05Z</time></trkpt><trkpt lat="42.345618627985516" lon="14.401406954388566"><ele>81.75</ele><time>2026-05-02T07:08:06Z</time></trkpt><trkpt lat="42.34549234305779" lon="14.401361440912055"><ele>81.5</ele><time>2026-05-02T07:08:07Z</time></trkpt><trkpt lat="42.345366048785024" lon="14.401316324156962"><ele>81.25</ele><time>2026-05-02T07:08:08Z</time></trkpt><trkpt lat="42.345241344779865" lon="14.401271777219634"><ele>81.0</ele><time>2026-05-02T07:08:09Z</time></trkpt><trkpt lat="42.3451159382628" lon="14.401224236042218"><ele>81.0</ele><time>2026-05-02T07:08:10Z</time></trkpt><trkpt lat="42.34499646901942" lon="14.401180281921594"><ele>81.0</ele><time>2026-05-02T07:08:11Z</time></trkpt><trkpt lat="42.34488840971584" lon="14.40114218635698"><ele>81.0</ele><time>2026-05-02T07:08:12Z</time></trkpt><trkpt lat="42.344782835274835" lon="14.401133194556529"><ele>81.0</ele><time>2026-05-02T07:08:13Z</time></trkpt><trkpt lat="42.34469256634979" lon="14.401157168520774"><ele>81.0</ele><time>2026-05-02T07:08:14Z</time></trkpt><trkpt lat="42.344620329584366" lon="14.401147029586294"><ele>81.19999999999999</ele><time>2026-05-02T07:08:15Z</time></trkpt><trkpt lat="42.34455250176305" lon="14.401125543782834"><ele>81.39999999999999</ele><time>2026-05-02T07:08:16Z</time></trkpt><trkpt lat="42.344457953414306" lon="14.401162683338066"><ele>81.6</ele><time>2026-05-02T07:08:18Z</time></trkpt><trkpt lat="42.34445636527206" lon="14.401309816371562"><ele>81.8</ele><time>2026-05-02T07:08:20Z</time></trkpt><trkpt lat="42.344551854017126" lon="14.401347083313365"><ele>82.0</ele><time>2026-05-02T07:08:22Z</time></trkpt><trkpt lat="42.344622333924335" lon="14.401301830159337"><ele>82.0</ele><time>2026-05-02T07:08:23Z</time></trkpt><trkpt lat="42.34469456590772" lon="14.401231594429973"><ele>82.0</ele><time>2026-05-02T07:08:24Z</time></trkpt><trkpt lat="42.34478797477015" lon="14.40117016573607"><ele>82.0</ele><time>2026-05-02T07:08:25Z</time></trkpt><trkpt lat="42.3449074875839" lon="14.401182467326084"><ele>82.0</ele><time>2026-05-02T07:08:26Z</time></trkpt><trkpt lat="42.34502893115512" lon="14.401223889807012"><ele>82.0</ele><time>2026-05-02T07:08:27Z</time></trkpt><trkpt lat="42.34512581031958" lon="14.401267154675793"><ele>82.0</ele><time>2026-05-02T07:08:28Z</time></trkpt><trkpt lat="42.34520910587958" lon="14.401294829473915"><ele>82.0</ele><time>2026-05-02T07:08:29Z</time></trkpt><trkpt lat="42.345282944498884" lon="14.40131443518345"><ele>82.0</ele><time>2026-05-02T07:08:30Z</time></trkpt><trkpt lat="42.34534594871076" lon="14.40133508842075"><ele>82.0</ele><time>2026-05-02T07:08:31Z</time></trkpt><trkpt lat="42.34541090843257" lon="14.4013625946716"><ele>82.0</ele><time>2026-05-02T07:08:32Z</time></trkpt><trkpt lat="42.34548244756852" lon="14.401388092012896"><ele>82.0</ele><time>2026-05-02T07:08:33Z</time></trkpt><trkpt lat="42.345599596382264" lon="14.401433049587084"><ele>82.0</ele><time>2026-05-02T07:08:35Z</time></trkpt><trkpt lat="42.34566991423186" lon="14.401456001404934"><ele>82.0</ele><time>2026-05-02T07:08:36Z</time></trkpt><trkpt lat="42.34574204566973" lon="14.401485454832825"><ele>82.0</ele><time>2026-05-02T07:08:37Z</time></trkpt><trkpt lat="42.34581828269398" lon="14.401517088543386"><ele>82.0</ele><time>2026-05-02T07:08:38Z</time></trkpt><trkpt lat="42.34589257639661" lon="14.401547050143206"><ele>82.0</ele><time>2026-05-02T07:08:39Z</time></trkpt><trkpt lat="42.34596541353599" lon="14.401575892139155"><ele>82.0</ele><time>2026-05-02T07:08:40Z</time></trkpt><trkpt lat="42.34603998258878" lon="14.401605561429854"><ele>82.0</ele><time>2026-05-02T07:08:41Z</time></trkpt><trkpt lat="42.34611815504855" lon="14.401626640051155"><ele>82.0</ele><time>2026-05-02T07:08:42Z</time></trkpt><trkpt lat="42.34619163750084" lon="14.401658142584745"><ele>82.0</ele><time>2026-05-02T07:08:43Z</time></trkpt><trkpt lat="42.34626743673952" lon="14.401684928983803"><ele>82.0</ele><time>2026-05-02T07:08:44Z</time></trkpt><trkpt lat="42.346340497284274" lon="14.4017096926337"><ele>82.0</ele><time>2026-05-02T07:08:45Z</time></trkpt><trkpt lat="42.346404724135866" lon="14.401748987046478"><ele>82.0</ele><time>2026-05-02T07:08:46Z</time></trkpt><trkpt lat="42.34647142799281" lon="14.40177815743166"><ele>82.0</ele><time>2026-05-02T07:08:47Z</time></trkpt><trkpt lat="42.34656743047725" lon="14.401861427436957"><ele>82.0</ele><time>2026-05-02T07:08:49Z</time></trkpt><trkpt lat="42.346496111990234" lon="14.401985463509288"><ele>82.0</ele><time>2026-05-02T07:11:47Z</time></trkpt><trkpt lat="42.34641952012425" lon="14.401965877804239"><ele>82.0</ele><time>2026-05-02T07:12:00Z</time></trkpt><trkpt lat="42.34650926190159" lon="14.401939713869108"><ele>82.0</ele><time>2026-05-02T07:12:44Z</time></trkpt><trkpt lat="42.34656373334397" lon="14.401868544930855"><ele>82.0</ele><time>2026-05-02T07:12:46Z</time></trkpt><trkpt lat="42.34678943079633" lon="14.401759669159778"><ele>82.0</ele><time>2026-05-02T07:13:24Z</time></trkpt><trkpt lat="42.34672272332694" lon="14.401789010133806"><ele>82.0</ele><time>2026-05-02T07:13:37Z</time></trkpt><trkpt lat="42.34664717670522" lon="14.401779202675469"><ele>82.0</ele><time>2026-05-02T07:13:38Z</time></trkpt><trkpt lat="42.34656215850339" lon="14.401771378008235"><ele>82.0</ele><time>2026-05-02T07:13:39Z</time></trkpt><trkpt lat="42.34646716288984" lon="14.401751882290606"><ele>82.0</ele><time>2026-05-02T07:13:40Z</time></trkpt><trkpt lat="42.34637311954609" lon="14.401709827011693"><ele>82.0</ele><time>2026-05-02T07:13:41Z</time></trkpt><trkpt lat="42.34627590171587" lon="14.401673732118223"><ele>82.0</ele><time>2026-05-02T07:13:42Z</time></trkpt><trkpt lat="42.34616197921906" lon="14.401632197325522"><ele>82.0</ele><time>2026-05-02T07:13:43Z</time></trkpt><trkpt lat="42.34604971167136" lon="14.401592287953017"><ele>82.0</ele><time>2026-05-02T07:13:44Z</time></trkpt><trkpt lat="42.345934642568366" lon="14.401523493075482"><ele>82.0</ele><time>2026-05-02T07:13:45Z</time></trkpt><trkpt lat="42.34581099989909" lon="14.401479992689406"><ele>82.0</ele><time>2026-05-02T07:13:46Z</time></trkpt><trkpt lat="42.34568500176616" lon="14.401464688485227"><ele>82.0</ele><time>2026-05-02T07:13:47Z</time></trkpt><trkpt lat="42.345565414967304" lon="14.401435293923496"><ele>81.8</ele><time>2026-05-02T07:13:48Z</time></trkpt><trkpt lat="42.34544964620383" lon="14.401406510793903"><ele>81.6</ele><time>2026-05-02T07:13:49Z</time></trkpt><trkpt lat="42.34534025560229" lon="14.401368763384216"><ele>81.39999999999999</ele><time>2026-05-02T07:13:50Z</time></trkpt><trkpt lat="42.34523829398427" lon="14.40133574962953"><ele>81.19999999999999</ele><time>2026-05-02T07:13:51Z</time></trkpt><trkpt lat="42.34513075486156" lon="14.40130745171848"><ele>81.0</ele><time>2026-05-02T07:13:52Z</time></trkpt><trkpt lat="42.34503266290438" lon="14.401269907037918"><ele>81.0</ele><time>2026-05-02T07:13:53Z</time></trkpt><trkpt lat="42.34494172424602" lon="14.401223579871331"><ele>81.0</ele><time>2026-05-02T07:13:54Z</time></trkpt><trkpt lat="42.34486195361657" lon="14.401194105401292"><ele>81.0</ele><time>2026-05-02T07:13:55Z</time></trkpt><trkpt lat="42.34477696842677" lon="14.401175341322368"><ele>81.0</ele><time>2026-05-02T07:13:56Z</time></trkpt><trkpt lat="42.344711075592265" lon="14.401146151011242"><ele>81.0</ele><time>2026-05-02T07:13:57Z</time></trkpt><trkpt lat="42.344635270866995" lon="14.401146458962634"><ele>81.0</ele><time>2026-05-02T07:13:58Z</time></trkpt><trkpt lat="42.344568987997334" lon="14.401131679851108"><ele>81.19999999999999</ele><time>2026-05-02T07:13:59Z</time></trkpt><trkpt lat="42.34450336095657" lon="14.401119651436343"><ele>81.39999999999999</ele><time>2026-05-02T07:14:00Z</time></trkpt><trkpt lat="42.34444602966965" lon="14.401168958606727"><ele>81.6</ele><time>2026-05-02T07:14:01Z</time></trkpt><trkpt lat="42.34437726080344" lon="14.401214117955854"><ele>81.8</ele><time>2026-05-02T07:14:02Z</time></trkpt><trkpt lat="42.344397680986184" lon="14.401394896549776"><ele>82.0</ele><time>2026-05-02T07:14:03Z</time></trkpt><trkpt lat="42.34438996891457" lon="14.401540097967786"><ele>80.75</ele><time>2026-05-02T07:14:04Z</time></trkpt><trkpt lat="42.34436874994189" lon="14.401685361617181"><ele>79.5</ele><time>2026-05-02T07:14:05Z</time></trkpt><trkpt lat="42.344353715976816" lon="14.401831311133883"><ele>78.25</ele><time>2026-05-02T07:14:06Z</time></trkpt><trkpt lat="42.34438433418736" lon="14.401996442844581"><ele>77.0</ele><time>2026-05-02T07:14:07Z</time></trkpt><trkpt lat="42.34445230881933" lon="14.40215242556269"><ele>76.75</ele><time>2026-05-02T07:14:08Z</time></trkpt><trkpt lat="42.34453688772925" lon="14.40231454841772"><ele>76.5</ele><time>2026-05-02T07:14:09Z</time></trkpt><trkpt lat="42.34464126064427" lon="14.402438338352782"><ele>76.25</ele><time>2026-05-02T07:14:10Z</time></trkpt><trkpt lat="42.3447447801267" lon="14.4025609652255"><ele>76.0</ele><time>2026-05-02T07:14:11Z</time></trkpt><trkpt lat="42.3448493185853" lon="14.402682016167645"><ele>76.0</ele><time>2026-05-02T07:14:12Z</time></trkpt><trkpt lat="42.3449452661456" lon="14.402805014615515"><ele>76.0</ele><time>2026-05-02T07:14:13Z</time></trkpt><trkpt lat="42.34503622736419" lon="14.402926988656114"><ele>76.0</ele><time>2026-05-02T07:14:14Z</time></trkpt><trkpt lat="42.34511104868336" lon="14.403059520011821"><ele>76.0</ele><time>2026-05-02T07:14:15Z</time></trkpt><trkpt lat="42.34518596310449" lon="14.403182104177148"><ele>73.75</ele><time>2026-05-02T07:14:16Z</time></trkpt><trkpt lat="42.34525633494475" lon="14.403312418592929"><ele>71.5</ele><time>2026-05-02T07:14:17Z</time></trkpt><trkpt lat="42.34531930377124" lon="14.403452501340784"><ele>69.25</ele><time>2026-05-02T07:14:18Z</time></trkpt><trkpt lat="42.345380275218915" lon="14.403600334513197"><ele>67.0</ele><time>2026-05-02T07:14:19Z</time></trkpt><trkpt lat="42.34543699024528" lon="14.403748836909324"><ele>68.5</ele><time>2026-05-02T07:14:20Z</time></trkpt><trkpt lat="42.34548843227482" lon="14.403895020326322"><ele>70.0</ele><time>2026-05-02T07:14:21Z</time></trkpt><trkpt lat="42.34553773630316" lon="14.404037542698742"><ele>71.5</ele><time>2026-05-02T07:14:22Z</time></trkpt><trkpt lat="42.345572975685606" lon="14.404179299479685"><ele>73.0</ele><time>2026-05-02T07:14:23Z</time></trkpt><trkpt lat="42.345616151260415" lon="14.404309231991068"><ele>73.0</ele><time>2026-05-02T07:14:24Z</time></trkpt><trkpt lat="42.34565929718226" lon="14.4044390755283"><ele>73.0</ele><time>2026-05-02T07:14:25Z</time></trkpt><trkpt lat="42.34569736643616" lon="14.404553641087066"><ele>73.0</ele><time>2026-05-02T07:14:26Z</time></trkpt><trkpt lat="42.345735988974994" lon="14.404669871918724"><ele>73.0</ele><time>2026-05-02T07:14:27Z</time></trkpt><trkpt lat="42.345775750787475" lon="14.404789532165259"><ele>73.0</ele><time>2026-05-02T07:14:28Z</time></trkpt><trkpt lat="42.34581120181645" lon="14.404895433812303"><ele>71.4</ele><time>2026-05-02T07:14:29Z</time></trkpt><trkpt lat="42.345861894755615" lon="14.40500972027994"><ele>69.8</ele><time>2026-05-02T07:14:30Z</time></trkpt><trkpt lat="42.34587955425968" lon="14.405139537903432"><ele>68.2</ele><time>2026-05-02T07:14:31Z</time></trkpt><trkpt lat="42.34590486645621" lon="14.405270161868575"><ele>66.6</ele><time>2026-05-02T07:14:32Z</time></trkpt><trkpt lat="42.34592624185954" lon="14.40541277549966"><ele>65.0</ele><time>2026-05-02T07:14:33Z</time></trkpt><trkpt lat="42.34593924367245" lon="14.40556502780815"><ele>63.8</ele><time>2026-05-02T07:14:34Z</time></trkpt><trkpt lat="42.34594674783765" lon="14.405719362332976"><ele>62.6</ele><time>2026-05-02T07:14:35Z</time></trkpt><trkpt lat="42.34595262521064" lon="14.40586985882302"><ele>61.400000000000006</ele><time>2026-05-02T07:14:36Z</time></trkpt><trkpt lat="42.345957655679236" lon="14.406016980318839"><ele>60.2</ele><time>2026-05-02T07:14:37Z</time></trkpt><trkpt lat="42.34596222457343" lon="14.406161937196542"><ele>59.0</ele><time>2026-05-02T07:14:38Z</time></trkpt><trkpt lat="42.345966601708504" lon="14.406300810213967"><ele>58.2</ele><time>2026-05-02T07:14:39Z</time></trkpt><trkpt lat="42.345970931189825" lon="14.406438171311546"><ele>57.400000000000006</ele><time>2026-05-02T07:14:40Z</time></trkpt><trkpt lat="42.34597513873531" lon="14.406571663575289"><ele>56.6</ele><time>2026-05-02T07:14:41Z</time></trkpt><trkpt lat="42.34597918929675" lon="14.40670563652504"><ele>55.8</ele><time>2026-05-02T07:14:42Z</time></trkpt><trkpt lat="42.34598256092746" lon="14.406837774294459"><ele>55.0</ele><time>2026-05-02T07:14:43Z</time></trkpt><trkpt lat="42.34598593085497" lon="14.40696984516387"><ele>55.0</ele><time>2026-05-02T07:14:44Z</time></trkpt><trkpt lat="42.34600475437366" lon="14.40710458464573"><ele>55.0</ele><time>2026-05-02T07:14:45Z</time></trkpt><trkpt lat="42.3459992065183" lon="14.407239556410259"><ele>55.0</ele><time>2026-05-02T07:14:46Z</time></trkpt><trkpt lat="42.346006523017365" lon="14.407379568342842"><ele>55.0</ele><time>2026-05-02T07:14:47Z</time></trkpt><trkpt lat="42.34600856630504" lon="14.407513028087264"><ele>55.0</ele><time>2026-05-02T07:14:48Z</time></trkpt><trkpt lat="42.34598894798258" lon="14.407636620803043"><ele>54.666666666666664</ele><time>2026-05-02T07:14:49Z</time></trkpt><trkpt lat="42.345949526140075" lon="14.407745678574477"><ele>54.33333333333333</ele><time>2026-05-02T07:14:50Z</time></trkpt><trkpt lat="42.34586966222298" lon="14.407813737434974"><ele>54.0</ele><time>2026-05-02T07:14:51Z</time></trkpt><trkpt lat="42.345782372294146" lon="14.407859261670383"><ele>53.66666666666667</ele><time>2026-05-02T07:14:52Z</time></trkpt><trkpt lat="42.34569488684004" lon="14.407856230840956"><ele>53.333333333333336</ele><time>2026-05-02T07:14:53Z</time></trkpt><trkpt lat="42.3456155595599" lon="14.407818001838168"><ele>53.0</ele><time>2026-05-02T07:14:54Z</time></trkpt><trkpt lat="42.34556350969039" lon="14.407751545087743"><ele>50.0</ele><time>2026-05-02T07:14:55Z</time></trkpt><trkpt lat="42.34552071262072" lon="14.407675302052809"><ele>47.0</ele><time>2026-05-02T07:14:56Z</time></trkpt><trkpt lat="42.345496033799016" lon="14.4075829256407"><ele>44.0</ele><time>2026-05-02T07:14:57Z</time></trkpt><trkpt lat="42.3454854204698" lon="14.407484784141461"><ele>41.0</ele><time>2026-05-02T07:14:58Z</time></trkpt><trkpt lat="42.345481126292135" lon="14.407384567770432"><ele>38.0</ele><time>2026-05-02T07:14:59Z</time></trkpt><trkpt lat="42.34547112795354" lon="14.40728587929066"><ele>35.0</ele><time>2026-05-02T07:15:00Z</time></trkpt><trkpt lat="42.34546565051045" lon="14.407173832748846"><ele>32.0</ele><time>2026-05-02T07:15:01Z</time></trkpt><trkpt lat="42.34546153092584" lon="14.40704139210397"><ele>32.0</ele><time>2026-05-02T07:15:02Z</time></trkpt><trkpt lat="42.345453913504315" lon="14.406897824454186"><ele>32.0</ele><time>2026-05-02T07:15:03Z</time></trkpt><trkpt lat="42.345446243501684" lon="14.406744002064372"><ele>32.0</ele><time>2026-05-02T07:15:04Z</time></trkpt><trkpt lat="42.34543997131051" lon="14.40659741984598"><ele>32.0</ele><time>2026-05-02T07:15:05Z</time></trkpt><trkpt lat="42.345428496749705" lon="14.406456254013074"><ele>32.0</ele><time>2026-05-02T07:15:06Z</time></trkpt><trkpt lat="42.345416279998844" lon="14.40630921624282"><ele>33.75</ele><time>2026-05-02T07:15:07Z</time></trkpt><trkpt lat="42.34538572478534" lon="14.406162867281958"><ele>35.5</ele><time>2026-05-02T07:15:08Z</time></trkpt><trkpt lat="42.34534368496454" lon="14.406008630879196"><ele>37.25</ele><time>2026-05-02T07:15:09Z</time></trkpt><trkpt lat="42.345292268747784" lon="14.405871627802355"><ele>39.0</ele><time>2026-05-02T07:15:10Z</time></trkpt><trkpt lat="42.34523750275101" lon="14.40574507404195"><ele>39.0</ele><time>2026-05-02T07:15:11Z</time></trkpt><trkpt lat="42.34518229935812" lon="14.40561919107753"><ele>39.0</ele><time>2026-05-02T07:15:12Z</time></trkpt><trkpt lat="42.34512603800214" lon="14.405501125045918"><ele>39.0</ele><time>2026-05-02T07:15:13Z</time></trkpt><trkpt lat="42.34507251398908" lon="14.405384651877558"><ele>39.0</ele><time>2026-05-02T07:15:14Z</time></trkpt><trkpt lat="42.34502226227124" lon="14.405270928156957"><ele>39.0</ele><time>2026-05-02T07:15:15Z</time></trkpt><trkpt lat="42.344974930510574" lon="14.405169338863514"><ele>40.166666666666664</ele><time>2026-05-02T07:15:16Z</time></trkpt><trkpt lat="42.34494867015868" lon="14.405068587177457"><ele>41.333333333333336</ele><time>2026-05-02T07:15:17Z</time></trkpt><trkpt lat="42.34490046469754" lon="14.405000517167013"><ele>42.5</ele><time>2026-05-02T07:15:18Z</time></trkpt><trkpt lat="42.34484183217973" lon="14.404953573648212"><ele>43.66666666666667</ele><time>2026-05-02T07:15:19Z</time></trkpt><trkpt lat="42.344775060765926" lon="14.404934264500525"><ele>44.833333333333336</ele><time>2026-05-02T07:15:20Z</time></trkpt><trkpt lat="42.34470799334983" lon="14.404933628575055"><ele>46.0</ele><time>2026-05-02T07:15:21Z</time></trkpt><trkpt lat="42.344606821595974" lon="14.404948698971259"><ele>42.0</ele><time>2026-05-02T07:15:23Z</time></trkpt><trkpt lat="42.34455646662411" lon="14.405002856188807"><ele>38.0</ele><time>2026-05-02T07:15:32Z</time></trkpt><trkpt lat="42.344538586142434" lon="14.40515621797883"><ele>34.0</ele><time>2026-05-02T07:15:42Z</time></trkpt><trkpt lat="42.34457304196113" lon="14.405265653832016"><ele>30.0</ele><time>2026-05-02T07:15:43Z</time></trkpt><trkpt lat="42.34462121783799" lon="14.405362151313026"><ele>26.0</ele><time>2026-05-02T07:15:44Z</time></trkpt><trkpt lat="42.344674570189945" lon="14.40547387389869"><ele>29.25</ele><time>2026-05-02T07:15:45Z</time></trkpt><trkpt lat="42.34472824106664" lon="14.405607823022926"><ele>32.5</ele><time>2026-05-02T07:15:46Z</time></trkpt><trkpt lat="42.34478390566657" lon="14.405777168890001"><ele>35.75</ele><time>2026-05-02T07:15:47Z</time></trkpt><trkpt lat="42.344843802972235" lon="14.40593652482183"><ele>39.0</ele><time>2026-05-02T07:15:48Z</time></trkpt><trkpt lat="42.34489900020355" lon="14.406097192236427"><ele>39.0</ele><time>2026-05-02T07:15:49Z</time></trkpt><trkpt lat="42.34494935729975" lon="14.406276818940716"><ele>39.0</ele><time>2026-05-02T07:15:50Z</time></trkpt><trkpt lat="42.34499286821833" lon="14.406465998241979"><ele>39.0</ele><time>2026-05-02T07:15:51Z</time></trkpt><trkpt lat="42.34498471871003" lon="14.406671968234875"><ele>39.0</ele><time>2026-05-02T07:15:52Z</time></trkpt><trkpt lat="42.344967123737376" lon="14.406876728096119"><ele>36.666666666666664</ele><time>2026-05-02T07:15:53Z</time></trkpt><trkpt lat="42.34494919003661" lon="14.407089555117985"><ele>34.33333333333333</ele><time>2026-05-02T07:15:54Z</time></trkpt><trkpt lat="42.344934224163374" lon="14.407306806459125"><ele>32.0</ele><time>2026-05-02T07:15:55Z</time></trkpt><trkpt lat="42.34492322861318" lon="14.407517384000913"><ele>31.5</ele><time>2026-05-02T07:15:56Z</time></trkpt><trkpt lat="42.344917983747195" lon="14.407728477359653"><ele>31.0</ele><time>2026-05-02T07:15:57Z</time></trkpt><trkpt lat="42.3449131732161" lon="14.407933143557852"><ele>30.5</ele><time>2026-05-02T07:15:58Z</time></trkpt><trkpt lat="42.34489961220136" lon="14.408121461645324"><ele>30.0</ele><time>2026-05-02T07:15:59Z</time></trkpt><trkpt lat="42.344870235057726" lon="14.408278259945728"><ele>28.5</ele><time>2026-05-02T07:16:00Z</time></trkpt><trkpt lat="42.34482514706314" lon="14.408422058148956"><ele>27.0</ele><time>2026-05-02T07:16:01Z</time></trkpt><trkpt lat="42.34475811482391" lon="14.408540846581815"><ele>25.5</ele><time>2026-05-02T07:16:02Z</time></trkpt><trkpt lat="42.3446740877917" lon="14.408650899943346"><ele>24.0</ele><time>2026-05-02T07:16:03Z</time></trkpt><trkpt lat="42.34459385063319" lon="14.408747053798264"><ele>21.75</ele><time>2026-05-02T07:16:04Z</time></trkpt><trkpt lat="42.34450461664113" lon="14.40884931906197"><ele>19.5</ele><time>2026-05-02T07:16:05Z</time></trkpt><trkpt lat="42.34440741221876" lon="14.408959812389696"><ele>17.25</ele><time>2026-05-02T07:16:06Z</time></trkpt><trkpt lat="42.34429317702146" lon="14.40908974858901"><ele>15.0</ele><time>2026-05-02T07:16:07Z</time></trkpt><trkpt lat="42.34417032645221" lon="14.40923001078644"><ele>15.0</ele><time>2026-05-02T07:16:08Z</time></trkpt><trkpt lat="42.344038983558484" lon="14.409380084556695"><ele>15.0</ele><time>2026-05-02T07:16:09Z</time></trkpt><trkpt lat="42.343910150060225" lon="14.409527291104583"><ele>15.0</ele><time>2026-05-02T07:16:10Z</time></trkpt><trkpt lat="42.34377657442924" lon="14.40967991601565"><ele>14.0</ele><time>2026-05-02T07:16:11Z</time></trkpt><trkpt lat="42.34364254027187" lon="14.40984990587293"><ele>13.0</ele><time>2026-05-02T07:16:12Z</time></trkpt><trkpt lat="42.34351911976851" lon="14.409987635898856"><ele>12.0</ele><time>2026-05-02T07:16:13Z</time></trkpt><trkpt lat="42.34341248014092" lon="14.410124073936224"><ele>12.0</ele><time>2026-05-02T07:16:14Z</time></trkpt><trkpt lat="42.34331710995522" lon="14.410225752542194"><ele>12.0</ele><time>2026-05-02T07:16:15Z</time></trkpt><trkpt lat="42.34322823135002" lon="14.410302809973146"><ele>12.0</ele><time>2026-05-02T07:16:16Z</time></trkpt><trkpt lat="42.34314470245116" lon="14.410388943956267"><ele>12.0</ele><time>2026-05-02T07:16:17Z</time></trkpt><trkpt lat="42.3430661802672" lon="14.410466552462388"><ele>12.0</ele><time>2026-05-02T07:16:18Z</time></trkpt><trkpt lat="42.342974915387984" lon="14.410546473472587"><ele>12.5</ele><time>2026-05-02T07:16:19Z</time></trkpt><trkpt lat="42.34286972405147" lon="14.41061683179712"><ele>13.0</ele><time>2026-05-02T07:16:20Z</time></trkpt><trkpt lat="42.34275446670852" lon="14.410682238556824"><ele>13.5</ele><time>2026-05-02T07:16:21Z</time></trkpt><trkpt lat="42.342634002657164" lon="14.41073946068567"><ele>14.0</ele><time>2026-05-02T07:16:22Z</time></trkpt><trkpt lat="42.342517792153345" lon="14.410818474891892"><ele>14.0</ele><time>2026-05-02T07:16:23Z</time></trkpt><trkpt lat="42.34239231457068" lon="14.410873126624441"><ele>14.0</ele><time>2026-05-02T07:16:24Z</time></trkpt><trkpt lat="42.34226354193485" lon="14.410928489899637"><ele>14.0</ele><time>2026-05-02T07:16:25Z</time></trkpt><trkpt lat="42.34213115094539" lon="14.410969242404665"><ele>14.0</ele><time>2026-05-02T07:16:26Z</time></trkpt><trkpt lat="42.34199370714844" lon="14.410970148824207"><ele>17.5</ele><time>2026-05-02T07:16:27Z</time></trkpt><trkpt lat="42.34185619037344" lon="14.410926554125716"><ele>21.0</ele><time>2026-05-02T07:16:28Z</time></trkpt><trkpt lat="42.341716981491174" lon="14.410889079646923"><ele>24.5</ele><time>2026-05-02T07:16:29Z</time></trkpt><trkpt lat="42.34156415224998" lon="14.410865253552377"><ele>28.0</ele><time>2026-05-02T07:16:30Z</time></trkpt><trkpt lat="42.34141988764411" lon="14.410812736793144"><ele>28.666666666666668</ele><time>2026-05-02T07:16:31Z</time></trkpt><trkpt lat="42.341271981707564" lon="14.410778301940224"><ele>29.333333333333336</ele><time>2026-05-02T07:16:32Z</time></trkpt><trkpt lat="42.34112330621648" lon="14.410749365039052"><ele>30.0</ele><time>2026-05-02T07:16:33Z</time></trkpt><trkpt lat="42.34097114817237" lon="14.410746728791217"><ele>30.0</ele><time>2026-05-02T07:16:34Z</time></trkpt><trkpt lat="42.34082502126898" lon="14.41076974384574"><ele>30.0</ele><time>2026-05-02T07:16:35Z</time></trkpt><trkpt lat="42.34067857745308" lon="14.410821347481027"><ele>30.0</ele><time>2026-05-02T07:16:36Z</time></trkpt><trkpt lat="42.34053255648902" lon="14.410914868986215"><ele>30.333333333333336</ele><time>2026-05-02T07:16:37Z</time></trkpt><trkpt lat="42.340394810845055" lon="14.410997289293645"><ele>30.666666666666668</ele><time>2026-05-02T07:16:38Z</time></trkpt><trkpt lat="42.340248699355094" lon="14.411085323706603"><ele>31.0</ele><time>2026-05-02T07:16:39Z</time></trkpt><trkpt lat="42.340098060551995" lon="14.411120489714538"><ele>31.0</ele><time>2026-05-02T07:16:40Z</time></trkpt><trkpt lat="42.33992028134298" lon="14.41114503747548"><ele>31.0</ele><time>2026-05-02T07:16:41Z</time></trkpt><trkpt lat="42.33976277572378" lon="14.411153650485444"><ele>31.0</ele><time>2026-05-02T07:16:42Z</time></trkpt><trkpt lat="42.33958919697475" lon="14.411141563458527"><ele>32.0</ele><time>2026-05-02T07:16:43Z</time></trkpt><trkpt lat="42.33942039006936" lon="14.411135950205157"><ele>33.0</ele><time>2026-05-02T07:16:44Z</time></trkpt><trkpt lat="42.33926819087022" lon="14.411175148133315"><ele>34.0</ele><time>2026-05-02T07:16:45Z</time></trkpt><trkpt lat="42.33910507874181" lon="14.411215096968299"><ele>34.0</ele><time>2026-05-02T07:16:46Z</time></trkpt><trkpt lat="42.33894498032113" lon="14.411317325791247"><ele>34.0</ele><time>2026-05-02T07:16:47Z</time></trkpt><trkpt lat="42.33880706115397" lon="14.411455295297616"><ele>34.0</ele><time>2026-05-02T07:16:48Z</time></trkpt><trkpt lat="42.338641969759614" lon="14.411530141596916"><ele>39.333333333333336</ele><time>2026-05-02T07:16:49Z</time></trkpt><trkpt lat="42.33847733826576" lon="14.411601100501853"><ele>44.66666666666667</ele><time>2026-05-02T07:16:50Z</time></trkpt><trkpt lat="42.338310696075844" lon="14.411647712323466"><ele>50.0</ele><time>2026-05-02T07:16:51Z</time></trkpt><trkpt lat="42.33815509205168" lon="14.411703689548213"><ele>53.0</ele><time>2026-05-02T07:16:52Z</time></trkpt><trkpt lat="42.33801933627088" lon="14.411721542447815"><ele>56.0</ele><time>2026-05-02T07:16:53Z</time></trkpt><trkpt lat="42.33790791984219" lon="14.411779459007613"><ele>59.0</ele><time>2026-05-02T07:16:54Z</time></trkpt><trkpt lat="42.337784357741164" lon="14.411904983407442"><ele>62.0</ele><time>2026-05-02T07:16:55Z</time></trkpt><trkpt lat="42.337671039734566" lon="14.412083205252095"><ele>60.0</ele><time>2026-05-02T07:16:56Z</time></trkpt><trkpt lat="42.33756556695076" lon="14.412265635648808"><ele>58.0</ele><time>2026-05-02T07:16:57Z</time></trkpt><trkpt lat="42.337487454740995" lon="14.412447622632413"><ele>56.0</ele><time>2026-05-02T07:16:58Z</time></trkpt><trkpt lat="42.33745173628026" lon="14.412670566396894"><ele>56.0</ele><time>2026-05-02T07:16:59Z</time></trkpt><trkpt lat="42.33748288930092" lon="14.412883549254007"><ele>56.0</ele><time>2026-05-02T07:17:00Z</time></trkpt><trkpt lat="42.33745117345838" lon="14.413038935430881"><ele>56.0</ele><time>2026-05-02T07:17:01Z</time></trkpt><trkpt lat="42.337370393474274" lon="14.413175149209213"><ele>56.0</ele><time>2026-05-02T07:17:02Z</time></trkpt><trkpt lat="42.3372279542424" lon="14.41330456040123"><ele>59.0</ele><time>2026-05-02T07:17:03Z</time></trkpt><trkpt lat="42.33709030975891" lon="14.413450997518655"><ele>62.0</ele><time>2026-05-02T07:17:04Z</time></trkpt><trkpt lat="42.33694880646406" lon="14.413603182672615"><ele>65.0</ele><time>2026-05-02T07:17:05Z</time></trkpt><trkpt lat="42.33681604157374" lon="14.413765064901558"><ele>64.66666666666667</ele><time>2026-05-02T07:17:06Z</time></trkpt><trkpt lat="42.336690991212784" lon="14.413959721282252"><ele>64.33333333333333</ele><time>2026-05-02T07:17:07Z</time></trkpt><trkpt lat="42.33658401725675" lon="14.414175964455184"><ele>64.0</ele><time>2026-05-02T07:17:08Z</time></trkpt><trkpt lat="42.33648482316469" lon="14.414394309736277"><ele>65.33333333333333</ele><time>2026-05-02T07:17:09Z</time></trkpt><trkpt lat="42.33637772549361" lon="14.414632520890988"><ele>66.66666666666667</ele><time>2026-05-02T07:17:10Z</time></trkpt><trkpt lat="42.33627149201239" lon="14.414858831150816"><ele>68.0</ele><time>2026-05-02T07:17:11Z</time></trkpt><trkpt lat="42.33615723936115" lon="14.415069687129112"><ele>68.0</ele><time>2026-05-02T07:17:12Z</time></trkpt><trkpt lat="42.33603534069196" lon="14.415273504373308"><ele>68.0</ele><time>2026-05-02T07:17:13Z</time></trkpt><trkpt lat="42.33592178720646" lon="14.415462019979788"><ele>68.0</ele><time>2026-05-02T07:17:14Z</time></trkpt><trkpt lat="42.33581518461144" lon="14.415631722315215"><ele>68.0</ele><time>2026-05-02T07:17:15Z</time></trkpt><trkpt lat="42.33569400040703" lon="14.415756885773908"><ele>68.0</ele><time>2026-05-02T07:17:16Z</time></trkpt><trkpt lat="42.33555263184534" lon="14.415835979129236"><ele>68.0</ele><time>2026-05-02T07:17:17Z</time></trkpt><trkpt lat="42.33540125332235" lon="14.415907521949254"><ele>68.0</ele><time>2026-05-02T07:17:18Z</time></trkpt><trkpt lat="42.33528292532234" lon="14.415981973741186"><ele>68.0</ele><time>2026-05-02T07:17:19Z</time></trkpt><trkpt lat="42.335204352411175" lon="14.416088225922012"><ele>68.0</ele><time>2026-05-02T07:17:20Z</time></trkpt><trkpt lat="42.33515688759484" lon="14.416249630462833"><ele>68.0</ele><time>2026-05-02T07:17:21Z</time></trkpt><trkpt lat="42.33518786099503" lon="14.416435352708314"><ele>68.2</ele><time>2026-05-02T07:17:22Z</time></trkpt><trkpt lat="42.335222470787535" lon="14.416626911668537"><ele>68.4</ele><time>2026-05-02T07:17:23Z</time></trkpt><trkpt lat="42.33521467982249" lon="14.416787166282862"><ele>68.60000000000001</ele><time>2026-05-02T07:17:24Z</time></trkpt><trkpt lat="42.33521496704042" lon="14.416905366529685"><ele>68.8</ele><time>2026-05-02T07:17:25Z</time></trkpt><trkpt lat="42.335204487753806" lon="14.417017575434414"><ele>69.0</ele><time>2026-05-02T07:17:26Z</time></trkpt><trkpt lat="42.33516984861512" lon="14.417132480408535"><ele>69.5</ele><time>2026-05-02T07:17:27Z</time></trkpt><trkpt lat="42.33510896989033" lon="14.41723715106886"><ele>70.0</ele><time>2026-05-02T07:17:28Z</time></trkpt><trkpt lat="42.335017055408635" lon="14.417336138611741"><ele>70.5</ele><time>2026-05-02T07:17:29Z</time></trkpt><trkpt lat="42.334890155238625" lon="14.417354316216228"><ele>71.0</ele><time>2026-05-02T07:17:30Z</time></trkpt><trkpt lat="42.33476874921526" lon="14.417387609940135"><ele>71.5</ele><time>2026-05-02T07:17:31Z</time></trkpt><trkpt lat="42.33463481596884" lon="14.41742608204841"><ele>72.0</ele><time>2026-05-02T07:17:32Z</time></trkpt><trkpt lat="42.334498761275015" lon="14.41746473702657"><ele>72.5</ele><time>2026-05-02T07:17:33Z</time></trkpt><trkpt lat="42.334356376908445" lon="14.417499503957398"><ele>73.0</ele><time>2026-05-02T07:17:34Z</time></trkpt><trkpt lat="42.33421386212197" lon="14.417537904275594"><ele>73.0</ele><time>2026-05-02T07:17:35Z</time></trkpt><trkpt lat="42.3340511699026" lon="14.417583377295129"><ele>73.0</ele><time>2026-05-02T07:17:36Z</time></trkpt><trkpt lat="42.33388286797544" lon="14.417607023200624"><ele>73.0</ele><time>2026-05-02T07:17:37Z</time></trkpt><trkpt lat="42.33371902634096" lon="14.41763543530714"><ele>73.66666666666666</ele><time>2026-05-02T07:17:38Z</time></trkpt><trkpt lat="42.33354900408776" lon="14.41764965087378"><ele>74.33333333333333</ele><time>2026-05-02T07:17:39Z</time></trkpt><trkpt lat="42.33338290952653" lon="14.417684359820003"><ele>75.0</ele><time>2026-05-02T07:17:40Z</time></trkpt><trkpt lat="42.33320764860954" lon="14.417709107334877"><ele>76.0</ele><time>2026-05-02T07:17:41Z</time></trkpt><trkpt lat="42.33303221692496" lon="14.417715261301502"><ele>77.0</ele><time>2026-05-02T07:17:42Z</time></trkpt><trkpt lat="42.332848754878135" lon="14.417679853370803"><ele>78.0</ele><time>2026-05-02T07:17:43Z</time></trkpt><trkpt lat="42.33267005000362" lon="14.417650010542639"><ele>78.0</ele><time>2026-05-02T07:17:44Z</time></trkpt><trkpt lat="42.332472625189894" lon="14.41763111486524"><ele>78.0</ele><time>2026-05-02T07:17:45Z</time></trkpt><trkpt lat="42.332278040432485" lon="14.41757543101275"><ele>78.0</ele><time>2026-05-02T07:17:46Z</time></trkpt><trkpt lat="42.33212853236266" lon="14.417543096386845"><ele>78.0</ele><time>2026-05-02T07:17:47Z</time></trkpt><trkpt lat="42.33195555895841" lon="14.41750896156441"><ele>78.0</ele><time>2026-05-02T07:17:48Z</time></trkpt><trkpt lat="42.33178275919657" lon="14.41748085397059"><ele>78.0</ele><time>2026-05-02T07:17:49Z</time></trkpt><trkpt lat="42.33162258453737" lon="14.41742844881815"><ele>78.0</ele><time>2026-05-02T07:17:50Z</time></trkpt><trkpt lat="42.3314658841753" lon="14.417400070003684"><ele>78.0</ele><time>2026-05-02T07:17:51Z</time></trkpt><trkpt lat="42.331321105969224" lon="14.417374399301341"><ele>78.0</ele><time>2026-05-02T07:17:52Z</time></trkpt><trkpt lat="42.331173661224284" lon="14.417368995187312"><ele>78.0</ele><time>2026-05-02T07:17:53Z</time></trkpt><trkpt lat="42.331040513887196" lon="14.41732208535499"><ele>78.0</ele><time>2026-05-02T07:17:54Z</time></trkpt><trkpt lat="42.33090459735678" lon="14.417305678971141"><ele>78.0</ele><time>2026-05-02T07:17:55Z</time></trkpt><trkpt lat="42.3307692629328" lon="14.417287993159784"><ele>78.0</ele><time>2026-05-02T07:17:56Z</time></trkpt><trkpt lat="42.33063109632427" lon="14.41727243834436"><ele>77.0</ele><time>2026-05-02T07:17:57Z</time></trkpt><trkpt lat="42.330493431682434" lon="14.417257614268516"><ele>76.0</ele><time>2026-05-02T07:17:58Z</time></trkpt><trkpt lat="42.33036029474971" lon="14.417256778766504"><ele>75.0</ele><time>2026-05-02T07:17:59Z</time></trkpt><trkpt lat="42.330226614390284" lon="14.417234730563287"><ele>74.0</ele><time>2026-05-02T07:18:00Z</time></trkpt><trkpt lat="42.330099654345794" lon="14.417213107150744"><ele>74.0</ele><time>2026-05-02T07:18:01Z</time></trkpt><trkpt lat="42.329970649207546" lon="14.417191219345973"><ele>74.0</ele><time>2026-05-02T07:18:02Z</time></trkpt><trkpt lat="42.32983925996277" lon="14.417176187143488"><ele>74.0</ele><time>2026-05-02T07:18:03Z</time></trkpt><trkpt lat="42.32971827063003" lon="14.41714075766669"><ele>74.0</ele><time>2026-05-02T07:18:04Z</time></trkpt><trkpt lat="42.329592328074625" lon="14.41708447165529"><ele>74.0</ele><time>2026-05-02T07:18:05Z</time></trkpt><trkpt lat="42.32947092440339" lon="14.41702161648829"><ele>74.0</ele><time>2026-05-02T07:18:06Z</time></trkpt><trkpt lat="42.32935047225158" lon="14.416952204798676"><ele>74.0</ele><time>2026-05-02T07:18:07Z</time></trkpt><trkpt lat="42.32923335670512" lon="14.4168865792818"><ele>74.0</ele><time>2026-05-02T07:18:08Z</time></trkpt><trkpt lat="42.329117649809966" lon="14.416826613978122"><ele>74.0</ele><time>2026-05-02T07:18:09Z</time></trkpt><trkpt lat="42.329008620774104" lon="14.416771857228742"><ele>74.0</ele><time>2026-05-02T07:18:10Z</time></trkpt><trkpt lat="42.32889870892996" lon="14.416729190981783"><ele>74.0</ele><time>2026-05-02T07:18:11Z</time></trkpt><trkpt lat="42.328791205444155" lon="14.416693525946432"><ele>74.0</ele><time>2026-05-02T07:18:12Z</time></trkpt><trkpt lat="42.32868333532894" lon="14.416674082693822"><ele>72.60000000000001</ele><time>2026-05-02T07:18:13Z</time></trkpt><trkpt lat="42.32857261186026" lon="14.416641671025074"><ele>71.2</ele><time>2026-05-02T07:18:14Z</time></trkpt><trkpt lat="42.32846841540335" lon="14.416638054106077"><ele>69.80000000000001</ele><time>2026-05-02T07:18:15Z</time></trkpt><trkpt lat="42.32837569252911" lon="14.416638054104983"><ele>68.4</ele><time>2026-05-02T07:18:16Z</time></trkpt><trkpt lat="42.32828942508915" lon="14.416661220171758"><ele>67.0</ele><time>2026-05-02T07:18:17Z</time></trkpt><trkpt lat="42.3282091879596" lon="14.416655904019446"><ele>67.0</ele><time>2026-05-02T07:18:18Z</time></trkpt><trkpt lat="42.32813817942196" lon="14.416635413543347"><ele>67.0</ele><time>2026-05-02T07:18:19Z</time></trkpt><trkpt lat="42.32806845349097" lon="14.416609281940179"><ele>67.0</ele><time>2026-05-02T07:18:20Z</time></trkpt><trkpt lat="42.327966784445024" lon="14.416559288015447"><ele>67.0</ele><time>2026-05-02T07:18:22Z</time></trkpt><trkpt lat="42.32788274932302" lon="14.416504921319309"><ele>67.0</ele><time>2026-05-02T07:18:24Z</time></trkpt><trkpt lat="42.327784434441874" lon="14.416473202193405"><ele>67.0</ele><time>2026-05-02T07:18:26Z</time></trkpt><trkpt lat="42.327741648748024" lon="14.4163715386235"><ele>66.66666666666666</ele><time>2026-05-02T07:18:27Z</time></trkpt><trkpt lat="42.327678537922544" lon="14.416390305312746"><ele>66.33333333333333</ele><time>2026-05-02T07:18:28Z</time></trkpt><trkpt lat="42.3276006566305" lon="14.416396762570674"><ele>66.0</ele><time>2026-05-02T07:18:29Z</time></trkpt><trkpt lat="42.32751367006314" lon="14.41639478319451"><ele>65.66666666666667</ele><time>2026-05-02T07:18:30Z</time></trkpt><trkpt lat="42.327420931697844" lon="14.416363720989033"><ele>65.33333333333334</ele><time>2026-05-02T07:18:31Z</time></trkpt><trkpt lat="42.32732930125559" lon="14.416308874620498"><ele>65.0</ele><time>2026-05-02T07:18:32Z</time></trkpt><trkpt lat="42.32723602391652" lon="14.416250148769752"><ele>65.0</ele><time>2026-05-02T07:18:33Z</time></trkpt><trkpt lat="42.327145077317375" lon="14.416184379131932"><ele>65.0</ele><time>2026-05-02T07:18:34Z</time></trkpt><trkpt lat="42.327043524447085" lon="14.416136244994906"><ele>65.0</ele><time>2026-05-02T07:18:35Z</time></trkpt><trkpt lat="42.32693692951179" lon="14.416115597407737"><ele>65.0</ele><time>2026-05-02T07:18:36Z</time></trkpt><trkpt lat="42.326826412949465" lon="14.416119351694192"><ele>65.0</ele><time>2026-05-02T07:18:37Z</time></trkpt><trkpt lat="42.32671657158554" lon="14.41615142797497"><ele>65.0</ele><time>2026-05-02T07:18:38Z</time></trkpt><trkpt lat="42.326604239511624" lon="14.416176001681494"><ele>65.0</ele><time>2026-05-02T07:18:39Z</time></trkpt><trkpt lat="42.32650996993305" lon="14.416278235760101"><ele>65.0</ele><time>2026-05-02T07:18:40Z</time></trkpt><trkpt lat="42.326420963075854" lon="14.416386806656064"><ele>65.0</ele><time>2026-05-02T07:18:41Z</time></trkpt><trkpt lat="42.326337001198866" lon="14.416503501176544"><ele>62.75</ele><time>2026-05-02T07:18:42Z</time></trkpt><trkpt lat="42.326259951263985" lon="14.416636423565954"><ele>60.5</ele><time>2026-05-02T07:18:43Z</time></trkpt><trkpt lat="42.32618540809941" lon="14.416769343382338"><ele>58.25</ele><time>2026-05-02T07:18:44Z</time></trkpt><trkpt lat="42.32609675206806" lon="14.416891817479549"><ele>56.0</ele><time>2026-05-02T07:18:45Z</time></trkpt><trkpt lat="42.326019980533005" lon="14.417022767463937"><ele>56.0</ele><time>2026-05-02T07:18:46Z</time></trkpt><trkpt lat="42.32594639673448" lon="14.4171485719479"><ele>56.0</ele><time>2026-05-02T07:18:47Z</time></trkpt><trkpt lat="42.325869970961506" lon="14.417279235404452"><ele>56.0</ele><time>2026-05-02T07:18:48Z</time></trkpt><trkpt lat="42.32580097832791" lon="14.417395835894482"><ele>56.0</ele><time>2026-05-02T07:18:49Z</time></trkpt><trkpt lat="42.32573116997178" lon="14.417510887401772"><ele>54.4</ele><time>2026-05-02T07:18:50Z</time></trkpt><trkpt lat="42.32567059767328" lon="14.417596621808265"><ele>52.8</ele><time>2026-05-02T07:18:51Z</time></trkpt><trkpt lat="42.325606691115375" lon="14.417670285419883"><ele>51.199999999999996</ele><time>2026-05-02T07:18:52Z</time></trkpt><trkpt lat="42.32552645253377" lon="14.417721772833518"><ele>49.599999999999994</ele><time>2026-05-02T07:18:53Z</time></trkpt><trkpt lat="42.32542854148696" lon="14.417757454069353"><ele>48.0</ele><time>2026-05-02T07:18:54Z</time></trkpt><trkpt lat="42.325325742051795" lon="14.417761848532596"><ele>47.0</ele><time>2026-05-02T07:18:55Z</time></trkpt><trkpt lat="42.325227350472375" lon="14.417734360627174"><ele>46.0</ele><time>2026-05-02T07:18:56Z</time></trkpt><trkpt lat="42.32511915581223" lon="14.4176730529402"><ele>45.0</ele><time>2026-05-02T07:18:57Z</time></trkpt><trkpt lat="42.325014548157554" lon="14.417599937335147"><ele>44.0</ele><time>2026-05-02T07:18:58Z</time></trkpt><trkpt lat="42.324897076703685" lon="14.417515420135942"><ele>44.0</ele><time>2026-05-02T07:18:59Z</time></trkpt><trkpt lat="42.32480097827479" lon="14.417435664250615"><ele>44.0</ele><time>2026-05-02T07:19:00Z</time></trkpt><trkpt lat="42.32470828699734" lon="14.417363803801372"><ele>44.0</ele><time>2026-05-02T07:19:01Z</time></trkpt><trkpt lat="42.324619315273836" lon="14.417303954625607"><ele>44.0</ele><time>2026-05-02T07:19:02Z</time></trkpt><trkpt lat="42.32453137475457" lon="14.41724131020726"><ele>44.0</ele><time>2026-05-02T07:19:03Z</time></trkpt><trkpt lat="42.32443653171658" lon="14.417183422602655"><ele>42.800000000000004</ele><time>2026-05-02T07:19:04Z</time></trkpt><trkpt lat="42.32434590827517" lon="14.41711679774843"><ele>41.6</ele><time>2026-05-02T07:19:05Z</time></trkpt><trkpt lat="42.32424836968869" lon="14.417056822045865"><ele>40.4</ele><time>2026-05-02T07:19:06Z</time></trkpt><trkpt lat="42.32415975119271" lon="14.4169951299887"><ele>39.2</ele><time>2026-05-02T07:19:07Z</time></trkpt><trkpt lat="42.32408274182638" lon="14.416926603526273"><ele>38.0</ele><time>2026-05-02T07:19:08Z</time></trkpt><trkpt lat="42.32402008847272" lon="14.416837349257186"><ele>38.0</ele><time>2026-05-02T07:19:09Z</time></trkpt><trkpt lat="42.32397762971891" lon="14.416725082655134"><ele>38.0</ele><time>2026-05-02T07:19:10Z</time></trkpt><trkpt lat="42.32396125888673" lon="14.416588229395412"><ele>38.0</ele><time>2026-05-02T07:19:11Z</time></trkpt><trkpt lat="42.32397621329366" lon="14.416446955636758"><ele>38.0</ele><time>2026-05-02T07:19:12Z</time></trkpt><trkpt lat="42.32399491162836" lon="14.416309504349336"><ele>38.0</ele><time>2026-05-02T07:19:13Z</time></trkpt><trkpt lat="42.32400278754533" lon="14.416190840109683"><ele>38.599999999999994</ele><time>2026-05-02T07:19:14Z</time></trkpt><trkpt lat="42.32398310593081" lon="14.416068124897366"><ele>39.199999999999996</ele><time>2026-05-02T07:19:15Z</time></trkpt><trkpt lat="42.32392702177305" lon="14.415956349181947"><ele>39.8</ele><time>2026-05-02T07:19:16Z</time></trkpt><trkpt lat="42.32383365931439" lon="14.415886491203512"><ele>40.4</ele><time>2026-05-02T07:19:17Z</time></trkpt><trkpt lat="42.32373098785501" lon="14.415862524626062"><ele>41.0</ele><time>2026-05-02T07:19:18Z</time></trkpt><trkpt lat="42.32363661989685" lon="14.415860894267745"><ele>41.0</ele><time>2026-05-02T07:19:19Z</time></trkpt><trkpt lat="42.32353171580386" lon="14.41588133982296"><ele>41.0</ele><time>2026-05-02T07:19:20Z</time></trkpt><trkpt lat="42.32345395696048" lon="14.415954074638131"><ele>41.0</ele><time>2026-05-02T07:19:21Z</time></trkpt><trkpt lat="42.32337983522857" lon="14.416042445314472"><ele>41.0</ele><time>2026-05-02T07:19:22Z</time></trkpt><trkpt lat="42.32335483937151" lon="14.416184679691717"><ele>41.0</ele><time>2026-05-02T07:19:23Z</time></trkpt><trkpt lat="42.32334462780521" lon="14.416314715383102"><ele>39.0</ele><time>2026-05-02T07:19:24Z</time></trkpt><trkpt lat="42.32334925297743" lon="14.416454528299912"><ele>37.0</ele><time>2026-05-02T07:19:25Z</time></trkpt><trkpt lat="42.32335582127635" lon="14.416601536881492"><ele>35.0</ele><time>2026-05-02T07:19:26Z</time></trkpt><trkpt lat="42.32334476221259" lon="14.416751981205982"><ele>33.0</ele><time>2026-05-02T07:19:27Z</time></trkpt><trkpt lat="42.3233483079634" lon="14.41692516089835"><ele>33.0</ele><time>2026-05-02T07:19:28Z</time></trkpt><trkpt lat="42.32333718535865" lon="14.417098033317002"><ele>33.0</ele><time>2026-05-02T07:19:29Z</time></trkpt><trkpt lat="42.323323623239126" lon="14.417275427256904"><ele>33.0</ele><time>2026-05-02T07:19:30Z</time></trkpt><trkpt lat="42.32333433283715" lon="14.417458086573887"><ele>33.0</ele><time>2026-05-02T07:19:31Z</time></trkpt><trkpt lat="42.32335108299311" lon="14.417626059530232"><ele>32.199999999999996</ele><time>2026-05-02T07:19:32Z</time></trkpt><trkpt lat="42.32338785784755" lon="14.417780879383308"><ele>31.4</ele><time>2026-05-02T07:19:33Z</time></trkpt><trkpt lat="42.323414628775296" lon="14.41793374262598"><ele>30.599999999999998</ele><time>2026-05-02T07:19:34Z</time></trkpt><trkpt lat="42.32343561207627" lon="14.418049191951589"><ele>29.799999999999997</ele><time>2026-05-02T07:19:35Z</time></trkpt><trkpt lat="42.32342510301047" lon="14.418156455305846"><ele>29.0</ele><time>2026-05-02T07:19:36Z</time></trkpt><trkpt lat="42.32341961701799" lon="14.418264429221185"><ele>27.4</ele><time>2026-05-02T07:19:37Z</time></trkpt><trkpt lat="42.32335768957098" lon="14.418348729269864"><ele>25.799999999999997</ele><time>2026-05-02T07:19:38Z</time></trkpt><trkpt lat="42.32328344638345" lon="14.418421362798528"><ele>24.200000000000003</ele><time>2026-05-02T07:19:39Z</time></trkpt><trkpt lat="42.32318988419829" lon="14.41846886904681"><ele>22.6</ele><time>2026-05-02T07:19:40Z</time></trkpt><trkpt lat="42.32308757805804" lon="14.418505016406652"><ele>21.0</ele><time>2026-05-02T07:19:41Z</time></trkpt><trkpt lat="42.322985400673275" lon="14.418494386933467"><ele>21.0</ele><time>2026-05-02T07:19:42Z</time></trkpt><trkpt lat="42.322882748764584" lon="14.41853860599141"><ele>21.0</ele><time>2026-05-02T07:19:43Z</time></trkpt><trkpt lat="42.32277147234986" lon="14.418599805049428"><ele>21.0</ele><time>2026-05-02T07:19:44Z</time></trkpt><trkpt lat="42.32269214918485" lon="14.418737402235434"><ele>21.0</ele><time>2026-05-02T07:19:45Z</time></trkpt><trkpt lat="42.32264446214333" lon="14.418877410881102"><ele>19.25</ele><time>2026-05-02T07:19:46Z</time></trkpt><trkpt lat="42.322604884434526" lon="14.419030776841828"><ele>17.5</ele><time>2026-05-02T07:19:47Z</time></trkpt><trkpt lat="42.322585490547766" lon="14.419174106398556"><ele>15.75</ele><time>2026-05-02T07:19:48Z</time></trkpt><trkpt lat="42.32255358385167" lon="14.419340216250564"><ele>14.0</ele><time>2026-05-02T07:19:49Z</time></trkpt><trkpt lat="42.32248869994134" lon="14.419508247267514"><ele>13.75</ele><time>2026-05-02T07:19:50Z</time></trkpt><trkpt lat="42.32245505487457" lon="14.419680687612546"><ele>13.5</ele><time>2026-05-02T07:19:51Z</time></trkpt><trkpt lat="42.322422127648814" lon="14.419861427089987"><ele>13.25</ele><time>2026-05-02T07:19:52Z</time></trkpt><trkpt lat="42.32238475757211" lon="14.42004578939121"><ele>13.0</ele><time>2026-05-02T07:19:53Z</time></trkpt><trkpt lat="42.322341878095465" lon="14.420231668738962"><ele>13.0</ele><time>2026-05-02T07:19:54Z</time></trkpt><trkpt lat="42.32231030320872" lon="14.420417116827347"><ele>13.0</ele><time>2026-05-02T07:19:55Z</time></trkpt><trkpt lat="42.32228631591788" lon="14.420602644245282"><ele>13.0</ele><time>2026-05-02T07:19:56Z</time></trkpt><trkpt lat="42.32223455376263" lon="14.42077944544987"><ele>13.0</ele><time>2026-05-02T07:19:57Z</time></trkpt><trkpt lat="42.322200145991594" lon="14.420962212254251"><ele>13.25</ele><time>2026-05-02T07:19:58Z</time></trkpt><trkpt lat="42.32218066448392" lon="14.421144498730902"><ele>13.5</ele><time>2026-05-02T07:19:59Z</time></trkpt><trkpt lat="42.32217031694973" lon="14.42133157497021"><ele>13.75</ele><time>2026-05-02T07:20:00Z</time></trkpt><trkpt lat="42.32216902005164" lon="14.421513745353902"><ele>14.0</ele><time>2026-05-02T07:20:01Z</time></trkpt><trkpt lat="42.32217955657035" lon="14.421686678760167"><ele>14.0</ele><time>2026-05-02T07:20:02Z</time></trkpt><trkpt lat="42.32219450503595" lon="14.421842733558778"><ele>13.999999999999998</ele><time>2026-05-02T07:20:03Z</time></trkpt><trkpt lat="42.32221407715256" lon="14.421982407598145"><ele>13.999999999999998</ele><time>2026-05-02T07:20:04Z</time></trkpt><trkpt lat="42.32223892879474" lon="14.422107968167682"><ele>14.0</ele><time>2026-05-02T07:20:05Z</time></trkpt><trkpt lat="42.322278967441655" lon="14.422214667045465"><ele>14.0</ele><time>2026-05-02T07:20:06Z</time></trkpt><trkpt lat="42.32230099046375" lon="14.422310667671951"><ele>14.399999999999999</ele><time>2026-05-02T07:20:07Z</time></trkpt><trkpt lat="42.32230262820452" lon="14.42247982998926"><ele>14.799999999999999</ele><time>2026-05-02T07:20:09Z</time></trkpt><trkpt lat="42.322287450561404" lon="14.422574153112716"><ele>15.200000000000001</ele><time>2026-05-02T07:20:10Z</time></trkpt><trkpt lat="42.32234120578085" lon="14.422717194885674"><ele>15.600000000000001</ele><time>2026-05-02T07:20:12Z</time></trkpt><trkpt lat="42.32240223349464" lon="14.422861368119175"><ele>16.0</ele><time>2026-05-02T07:20:14Z</time></trkpt><trkpt lat="42.32245863306352" lon="14.42292221793061"><ele>17.0</ele><time>2026-05-02T07:20:15Z</time></trkpt><trkpt lat="42.322505572154974" lon="14.42301533962572"><ele>18.0</ele><time>2026-05-02T07:20:16Z</time></trkpt><trkpt lat="42.322545957036745" lon="14.42312570955899"><ele>19.0</ele><time>2026-05-02T07:20:17Z</time></trkpt><trkpt lat="42.32259384262884" lon="14.423243985061402"><ele>20.0</ele><time>2026-05-02T07:20:18Z</time></trkpt><trkpt lat="42.32264636400614" lon="14.423373419287948"><ele>21.0</ele><time>2026-05-02T07:20:19Z</time></trkpt><trkpt lat="42.32269625262953" lon="14.423520857739067"><ele>21.0</ele><time>2026-05-02T07:20:20Z</time></trkpt><trkpt lat="42.32274683160321" lon="14.423669875423702"><ele>21.0</ele><time>2026-05-02T07:20:21Z</time></trkpt><trkpt lat="42.322789147057804" lon="14.423825880262992"><ele>21.0</ele><time>2026-05-02T07:20:22Z</time></trkpt><trkpt lat="42.32282692946306" lon="14.42398950055943"><ele>21.0</ele><time>2026-05-02T07:20:23Z</time></trkpt><trkpt lat="42.32285551909246" lon="14.424157383875679"><ele>22.75</ele><time>2026-05-02T07:20:24Z</time></trkpt><trkpt lat="42.32287355802839" lon="14.424331072773887"><ele>24.5</ele><time>2026-05-02T07:20:25Z</time></trkpt><trkpt lat="42.32288370792672" lon="14.424504915582013"><ele>26.25</ele><time>2026-05-02T07:20:26Z</time></trkpt><trkpt lat="42.32288391660444" lon="14.424682722327436"><ele>28.0</ele><time>2026-05-02T07:20:27Z</time></trkpt><trkpt lat="42.32287810280656" lon="14.424862479356097"><ele>29.0</ele><time>2026-05-02T07:20:28Z</time></trkpt><trkpt lat="42.322838030039065" lon="14.425029738320053"><ele>30.0</ele><time>2026-05-02T07:20:29Z</time></trkpt><trkpt lat="42.322796297949324" lon="14.42519759202467"><ele>31.0</ele><time>2026-05-02T07:20:30Z</time></trkpt><trkpt lat="42.32274264297378" lon="14.425360218205357"><ele>32.0</ele><time>2026-05-02T07:20:31Z</time></trkpt><trkpt lat="42.32268193117604" lon="14.425521393569024"><ele>32.0</ele><time>2026-05-02T07:20:32Z</time></trkpt><trkpt lat="42.32261304522091" lon="14.425675221032128"><ele>32.0</ele><time>2026-05-02T07:20:33Z</time></trkpt><trkpt lat="42.322525461405476" lon="14.425827211538925"><ele>32.0</ele><time>2026-05-02T07:20:34Z</time></trkpt><trkpt lat="42.32243098315248" lon="14.425974067474632"><ele>32.0</ele><time>2026-05-02T07:20:35Z</time></trkpt><trkpt lat="42.32233084190598" lon="14.42610248618558"><ele>33.0</ele><time>2026-05-02T07:20:36Z</time></trkpt><trkpt lat="42.32221763024166" lon="14.426230607859624"><ele>34.0</ele><time>2026-05-02T07:20:37Z</time></trkpt><trkpt lat="42.32210263001219" lon="14.42635615199776"><ele>35.0</ele><time>2026-05-02T07:20:38Z</time></trkpt><trkpt lat="42.32198612027641" lon="14.426481942959745"><ele>36.0</ele><time>2026-05-02T07:20:39Z</time></trkpt><trkpt lat="42.321865934774905" lon="14.426611414839693"><ele>36.0</ele><time>2026-05-02T07:20:40Z</time></trkpt><trkpt lat="42.32174806887736" lon="14.426738238870678"><ele>36.0</ele><time>2026-05-02T07:20:41Z</time></trkpt><trkpt lat="42.321641579754655" lon="14.426852821426829"><ele>36.0</ele><time>2026-05-02T07:20:42Z</time></trkpt><trkpt lat="42.32152612512713" lon="14.426977050818385"><ele>36.0</ele><time>2026-05-02T07:20:43Z</time></trkpt><trkpt lat="42.32140471384241" lon="14.427108241769812"><ele>36.0</ele><time>2026-05-02T07:20:44Z</time></trkpt><trkpt lat="42.321293172318164" lon="14.427226587170463"><ele>36.0</ele><time>2026-05-02T07:20:45Z</time></trkpt><trkpt lat="42.321175410915025" lon="14.42735012003014"><ele>36.0</ele><time>2026-05-02T07:20:46Z</time></trkpt><trkpt lat="42.32106554235849" lon="14.427468332625516"><ele>36.0</ele><time>2026-05-02T07:20:47Z</time></trkpt><trkpt lat="42.32095873335502" lon="14.427584021119165"><ele>36.0</ele><time>2026-05-02T07:20:48Z</time></trkpt><trkpt lat="42.32085168753395" lon="14.42769890223678"><ele>36.0</ele><time>2026-05-02T07:20:49Z</time></trkpt><trkpt lat="42.320746200640144" lon="14.427811927961502"><ele>36.0</ele><time>2026-05-02T07:20:50Z</time></trkpt><trkpt lat="42.32064984603927" lon="14.427943081401198"><ele>36.0</ele><time>2026-05-02T07:20:51Z</time></trkpt><trkpt lat="42.320538209893876" lon="14.428052962384033"><ele>37.75</ele><time>2026-05-02T07:20:52Z</time></trkpt><trkpt lat="42.32042807462797" lon="14.428169731766419"><ele>39.5</ele><time>2026-05-02T07:20:53Z</time></trkpt><trkpt lat="42.32031721423266" lon="14.428292367255132"><ele>41.25</ele><time>2026-05-02T07:20:54Z</time></trkpt><trkpt lat="42.32021045256764" lon="14.428424681179862"><ele>43.0</ele><time>2026-05-02T07:20:55Z</time></trkpt><trkpt lat="42.320099003237125" lon="14.428538998726056"><ele>43.0</ele><time>2026-05-02T07:20:56Z</time></trkpt><trkpt lat="42.31999898168746" lon="14.428681125035352"><ele>43.0</ele><time>2026-05-02T07:20:57Z</time></trkpt><trkpt lat="42.319900925936246" lon="14.428842065062899"><ele>43.0</ele><time>2026-05-02T07:20:58Z</time></trkpt><trkpt lat="42.31982089981469" lon="14.429003458732627"><ele>43.0</ele><time>2026-05-02T07:20:59Z</time></trkpt><trkpt lat="42.319746636639245" lon="14.429174446398124"><ele>44.66666666666667</ele><time>2026-05-02T07:21:00Z</time></trkpt><trkpt lat="42.31968046054093" lon="14.42936421108234"><ele>46.333333333333336</ele><time>2026-05-02T07:21:01Z</time></trkpt><trkpt lat="42.31962628720552" lon="14.429554952118439"><ele>48.0</ele><time>2026-05-02T07:21:02Z</time></trkpt><trkpt lat="42.319582980644284" lon="14.429756418052351"><ele>48.0</ele><time>2026-05-02T07:21:03Z</time></trkpt><trkpt lat="42.31954432148492" lon="14.429958404039155"><ele>48.0</ele><time>2026-05-02T07:21:04Z</time></trkpt><trkpt lat="42.31950483776346" lon="14.430158069719392"><ele>48.0</ele><time>2026-05-02T07:21:05Z</time></trkpt><trkpt lat="42.31946551435415" lon="14.43036149219728"><ele>46.666666666666664</ele><time>2026-05-02T07:21:06Z</time></trkpt><trkpt lat="42.319426368040176" lon="14.430568071424284"><ele>45.33333333333333</ele><time>2026-05-02T07:21:07Z</time></trkpt><trkpt lat="42.319388006338066" lon="14.430765057176808"><ele>44.0</ele><time>2026-05-02T07:21:08Z</time></trkpt><trkpt lat="42.319350681774274" lon="14.430957575308321"><ele>44.0</ele><time>2026-05-02T07:21:09Z</time></trkpt><trkpt lat="42.31931390068282" lon="14.431147290193834"><ele>44.0</ele><time>2026-05-02T07:21:10Z</time></trkpt><trkpt lat="42.31927831046858" lon="14.431330862588077"><ele>44.0</ele><time>2026-05-02T07:21:11Z</time></trkpt><trkpt lat="42.319243237347166" lon="14.431511767803599"><ele>44.0</ele><time>2026-05-02T07:21:12Z</time></trkpt><trkpt lat="42.319207220798674" lon="14.431692642358776"><ele>42.75</ele><time>2026-05-02T07:21:13Z</time></trkpt><trkpt lat="42.31917104800421" lon="14.431871321316347"><ele>41.5</ele><time>2026-05-02T07:21:14Z</time></trkpt><trkpt lat="42.31912105905647" lon="14.432053597802714"><ele>40.25</ele><time>2026-05-02T07:21:15Z</time></trkpt><trkpt lat="42.31905915672215" lon="14.43222717206196"><ele>39.0</ele><time>2026-05-02T07:21:16Z</time></trkpt><trkpt lat="42.3189953869213" lon="14.432410316173108"><ele>40.333333333333336</ele><time>2026-05-02T07:21:17Z</time></trkpt><trkpt lat="42.31890231409956" lon="14.432576376347816"><ele>41.66666666666667</ele><time>2026-05-02T07:21:18Z</time></trkpt><trkpt lat="42.318800208787344" lon="14.432739925013793"><ele>43.0</ele><time>2026-05-02T07:21:19Z</time></trkpt><trkpt lat="42.31869221497326" lon="14.432898952201326"><ele>39.333333333333336</ele><time>2026-05-02T07:21:20Z</time></trkpt><trkpt lat="42.31857972467193" lon="14.433060581297498"><ele>35.666666666666664</ele><time>2026-05-02T07:21:21Z</time></trkpt><trkpt lat="42.318467044943446" lon="14.43322526406457"><ele>32.0</ele><time>2026-05-02T07:21:22Z</time></trkpt><trkpt lat="42.318351939582605" lon="14.433389487435786"><ele>32.0</ele><time>2026-05-02T07:21:23Z</time></trkpt><trkpt lat="42.31821819313828" lon="14.433530581076312"><ele>32.0</ele><time>2026-05-02T07:21:24Z</time></trkpt><trkpt lat="42.31809433546532" lon="14.433684139511294"><ele>32.0</ele><time>2026-05-02T07:21:25Z</time></trkpt><trkpt lat="42.317964379006085" lon="14.43384525863462"><ele>31.0</ele><time>2026-05-02T07:21:26Z</time></trkpt><trkpt lat="42.31783642128782" lon="14.43400213010443"><ele>30.0</ele><time>2026-05-02T07:21:27Z</time></trkpt><trkpt lat="42.317713483904214" lon="14.434153452936696"><ele>29.0</ele><time>2026-05-02T07:21:28Z</time></trkpt><trkpt lat="42.31758945961952" lon="14.434307922665713"><ele>29.0</ele><time>2026-05-02T07:21:29Z</time></trkpt><trkpt lat="42.31746638532839" lon="14.43446120904768"><ele>29.0</ele><time>2026-05-02T07:21:30Z</time></trkpt><trkpt lat="42.31734626322736" lon="14.43461069920596"><ele>29.0</ele><time>2026-05-02T07:21:31Z</time></trkpt><trkpt lat="42.317234484041165" lon="14.434773755276252"><ele>31.0</ele><time>2026-05-02T07:21:32Z</time></trkpt><trkpt lat="42.31711719070753" lon="14.434909685602987"><ele>33.0</ele><time>2026-05-02T07:21:33Z</time></trkpt><trkpt lat="42.31700775487547" lon="14.435052910539948"><ele>35.0</ele><time>2026-05-02T07:21:34Z</time></trkpt><trkpt lat="42.31689793700737" lon="14.435190226734044"><ele>35.0</ele><time>2026-05-02T07:21:35Z</time></trkpt><trkpt lat="42.316785315385665" lon="14.435327281314722"><ele>35.0</ele><time>2026-05-02T07:21:36Z</time></trkpt><trkpt lat="42.31667280458901" lon="14.435457730693011"><ele>35.0</ele><time>2026-05-02T07:21:37Z</time></trkpt><trkpt lat="42.31655150276285" lon="14.435585997030637"><ele>34.0</ele><time>2026-05-02T07:21:38Z</time></trkpt><trkpt lat="42.31642279604495" lon="14.435703064759336"><ele>33.0</ele><time>2026-05-02T07:21:39Z</time></trkpt><trkpt lat="42.31628742983233" lon="14.43580800406982"><ele>32.0</ele><time>2026-05-02T07:21:40Z</time></trkpt><trkpt lat="42.31614867674567" lon="14.435906760945764"><ele>32.0</ele><time>2026-05-02T07:21:41Z</time></trkpt><trkpt lat="42.316006840976925" lon="14.435999871704153"><ele>32.0</ele><time>2026-05-02T07:21:42Z</time></trkpt><trkpt lat="42.315860305704234" lon="14.436097167527514"><ele>32.0</ele><time>2026-05-02T07:21:43Z</time></trkpt><trkpt lat="42.31571163926098" lon="14.436189635878952"><ele>29.666666666666664</ele><time>2026-05-02T07:21:44Z</time></trkpt><trkpt lat="42.31556219079157" lon="14.436278838005345"><ele>27.333333333333336</ele><time>2026-05-02T07:21:45Z</time></trkpt><trkpt lat="42.31541144972108" lon="14.436366708059815"><ele>25.0</ele><time>2026-05-02T07:21:46Z</time></trkpt><trkpt lat="42.31525962919376" lon="14.436460747979291"><ele>25.0</ele><time>2026-05-02T07:21:47Z</time></trkpt><trkpt lat="42.31510755175698" lon="14.436561570716217"><ele>25.0</ele><time>2026-05-02T07:21:48Z</time></trkpt><trkpt lat="42.31495492366804" lon="14.43666532954059"><ele>25.0</ele><time>2026-05-02T07:21:49Z</time></trkpt><trkpt lat="42.31480365462641" lon="14.436779531413428"><ele>23.333333333333336</ele><time>2026-05-02T07:21:50Z</time></trkpt><trkpt lat="42.31465364264044" lon="14.436897984620181"><ele>21.666666666666668</ele><time>2026-05-02T07:21:51Z</time></trkpt><trkpt lat="42.31450810522947" lon="14.437021156826969"><ele>20.0</ele><time>2026-05-02T07:21:52Z</time></trkpt><trkpt lat="42.31436515737279" lon="14.437145497970784"><ele>20.0</ele><time>2026-05-02T07:21:53Z</time></trkpt><trkpt lat="42.314220020214854" lon="14.437269024810885"><ele>20.0</ele><time>2026-05-02T07:21:54Z</time></trkpt><trkpt lat="42.31408188209298" lon="14.437391591785342"><ele>20.0</ele><time>2026-05-02T07:21:55Z</time></trkpt><trkpt lat="42.31394180515318" lon="14.43751446113225"><ele>21.0</ele><time>2026-05-02T07:21:56Z</time></trkpt><trkpt lat="42.313805022985115" lon="14.437637182539174"><ele>22.0</ele><time>2026-05-02T07:21:57Z</time></trkpt><trkpt lat="42.31366868410277" lon="14.437756430746798"><ele>23.0</ele><time>2026-05-02T07:21:58Z</time></trkpt><trkpt lat="42.31353460402088" lon="14.437871999100762"><ele>19.666666666666668</ele><time>2026-05-02T07:21:59Z</time></trkpt><trkpt lat="42.31339514860321" lon="14.437969940542105"><ele>16.333333333333332</ele><time>2026-05-02T07:22:00Z</time></trkpt><trkpt lat="42.31326516499949" lon="14.438085394842759"><ele>13.0</ele><time>2026-05-02T07:22:01Z</time></trkpt><trkpt lat="42.31313527382517" lon="14.438209200451983"><ele>16.333333333333332</ele><time>2026-05-02T07:22:02Z</time></trkpt><trkpt lat="42.31301458937357" lon="14.438346810345998"><ele>19.666666666666668</ele><time>2026-05-02T07:22:03Z</time></trkpt><trkpt lat="42.31290015300481" lon="14.438491023056548"><ele>23.0</ele><time>2026-05-02T07:22:04Z</time></trkpt><trkpt lat="42.312795126170464" lon="14.438646981704013"><ele>21.0</ele><time>2026-05-02T07:22:05Z</time></trkpt><trkpt lat="42.31270104909773" lon="14.438803277043325"><ele>19.0</ele><time>2026-05-02T07:22:06Z</time></trkpt><trkpt lat="42.31261511426972" lon="14.438962159830217"><ele>17.0</ele><time>2026-05-02T07:22:07Z</time></trkpt><trkpt lat="42.31253148173607" lon="14.439126870543634"><ele>15.0</ele><time>2026-05-02T07:22:08Z</time></trkpt><trkpt lat="42.31245217610521" lon="14.439283374953616"><ele>15.0</ele><time>2026-05-02T07:22:09Z</time></trkpt><trkpt lat="42.31237523497638" lon="14.439435213169093"><ele>15.0</ele><time>2026-05-02T07:22:10Z</time></trkpt><trkpt lat="42.31229648638516" lon="14.43959061816684"><ele>15.0</ele><time>2026-05-02T07:22:11Z</time></trkpt><trkpt lat="42.31221953507095" lon="14.439742476618116"><ele>15.0</ele><time>2026-05-02T07:22:12Z</time></trkpt><trkpt lat="42.31214397156467" lon="14.439895775513731"><ele>15.5</ele><time>2026-05-02T07:22:13Z</time></trkpt><trkpt lat="42.312084270389214" lon="14.440060753016741"><ele>16.0</ele><time>2026-05-02T07:22:14Z</time></trkpt><trkpt lat="42.312006528021946" lon="14.440212333089992"><ele>16.5</ele><time>2026-05-02T07:22:15Z</time></trkpt><trkpt lat="42.31193084802445" lon="14.440370055277361"><ele>17.0</ele><time>2026-05-02T07:22:16Z</time></trkpt><trkpt lat="42.31185034951964" lon="14.440515618085664"><ele>15.5</ele><time>2026-05-02T07:22:17Z</time></trkpt><trkpt lat="42.311773063914615" lon="14.44067057884071"><ele>14.0</ele><time>2026-05-02T07:22:18Z</time></trkpt><trkpt lat="42.31167747498006" lon="14.44081054109338"><ele>12.5</ele><time>2026-05-02T07:22:19Z</time></trkpt><trkpt lat="42.31159968737724" lon="14.440958099369597"><ele>11.0</ele><time>2026-05-02T07:22:20Z</time></trkpt><trkpt lat="42.31153137152026" lon="14.441114331730128"><ele>11.0</ele><time>2026-05-02T07:22:21Z</time></trkpt><trkpt lat="42.311426645661804" lon="14.441229455021555"><ele>11.0</ele><time>2026-05-02T07:22:22Z</time></trkpt><trkpt lat="42.31133722933447" lon="14.441353345894923"><ele>11.0</ele><time>2026-05-02T07:22:23Z</time></trkpt><trkpt lat="42.311225329721445" lon="14.441440565051254"><ele>11.0</ele><time>2026-05-02T07:22:24Z</time></trkpt><trkpt lat="42.31110809018267" lon="14.441504635843481"><ele>12.25</ele><time>2026-05-02T07:22:25Z</time></trkpt><trkpt lat="42.31098302189434" lon="14.44154445453238"><ele>13.5</ele><time>2026-05-02T07:22:26Z</time></trkpt><trkpt lat="42.310858097369184" lon="14.441578867858512"><ele>14.75</ele><time>2026-05-02T07:22:27Z</time></trkpt><trkpt lat="42.31072939865338" lon="14.441597860244503"><ele>16.0</ele><time>2026-05-02T07:22:28Z</time></trkpt><trkpt lat="42.31059586237684" lon="14.441600055063349"><ele>16.25</ele><time>2026-05-02T07:22:29Z</time></trkpt><trkpt lat="42.310462942051146" lon="14.44161891936306"><ele>16.5</ele><time>2026-05-02T07:22:30Z</time></trkpt><trkpt lat="42.31032780696878" lon="14.441637736194092"><ele>16.75</ele><time>2026-05-02T07:22:31Z</time></trkpt><trkpt lat="42.310198924216905" lon="14.441655682422065"><ele>17.0</ele><time>2026-05-02T07:22:32Z</time></trkpt><trkpt lat="42.31008177103736" lon="14.441671995378314"><ele>17.0</ele><time>2026-05-02T07:22:33Z</time></trkpt><trkpt lat="42.30996721395289" lon="14.441718733362917"><ele>17.0</ele><time>2026-05-02T07:22:34Z</time></trkpt><trkpt lat="42.309857231661105" lon="14.441732136661708"><ele>17.0</ele><time>2026-05-02T07:22:35Z</time></trkpt><trkpt lat="42.30974732859273" lon="14.441742035439173"><ele>17.0</ele><time>2026-05-02T07:22:36Z</time></trkpt><trkpt lat="42.309637429546015" lon="14.441752148097976"><ele>16.0</ele><time>2026-05-02T07:22:37Z</time></trkpt><trkpt lat="42.30952153556411" lon="14.441757481223286"><ele>15.0</ele><time>2026-05-02T07:22:38Z</time></trkpt><trkpt lat="42.30940654225744" lon="14.441767664355304"><ele>14.0</ele><time>2026-05-02T07:22:39Z</time></trkpt><trkpt lat="42.30928912090039" lon="14.441783653862506"><ele>13.0</ele><time>2026-05-02T07:22:40Z</time></trkpt><trkpt lat="42.309171686159566" lon="14.44180970142254"><ele>13.0</ele><time>2026-05-02T07:22:41Z</time></trkpt><trkpt lat="42.30905383005202" lon="14.441837488263024"><ele>13.0</ele><time>2026-05-02T07:22:42Z</time></trkpt><trkpt lat="42.308930360458895" lon="14.441867271521188"><ele>13.0</ele><time>2026-05-02T07:22:43Z</time></trkpt><trkpt lat="42.30880412611012" lon="14.441892287519574"><ele>13.0</ele><time>2026-05-02T07:22:44Z</time></trkpt><trkpt lat="42.30868643187797" lon="14.441949268056804"><ele>12.25</ele><time>2026-05-02T07:22:45Z</time></trkpt><trkpt lat="42.30856439833418" lon="14.442036604957234"><ele>11.5</ele><time>2026-05-02T07:22:46Z</time></trkpt><trkpt lat="42.3084471678033" lon="14.442143746421436"><ele>10.75</ele><time>2026-05-02T07:22:47Z</time></trkpt><trkpt lat="42.30833843683435" lon="14.442274648691617"><ele>10.0</ele><time>2026-05-02T07:22:48Z</time></trkpt><trkpt lat="42.30826249612453" lon="14.442433006233745"><ele>10.0</ele><time>2026-05-02T07:22:49Z</time></trkpt><trkpt lat="42.30818663414879" lon="14.442581380653538"><ele>10.0</ele><time>2026-05-02T07:22:50Z</time></trkpt><trkpt lat="42.30812517563257" lon="14.442737185127204"><ele>10.0</ele><time>2026-05-02T07:22:51Z</time></trkpt><trkpt lat="42.30808023396043" lon="14.442900417870513"><ele>10.0</ele><time>2026-05-02T07:22:52Z</time></trkpt><trkpt lat="42.30804928016077" lon="14.443057182278988"><ele>10.0</ele><time>2026-05-02T07:22:53Z</time></trkpt><trkpt lat="42.308025975490686" lon="14.443208571808574"><ele>10.0</ele><time>2026-05-02T07:22:54Z</time></trkpt><trkpt lat="42.30801136243355" lon="14.443357939629495"><ele>10.0</ele><time>2026-05-02T07:22:55Z</time></trkpt><trkpt lat="42.308007458842354" lon="14.443498664278737"><ele>10.0</ele><time>2026-05-02T07:22:56Z</time></trkpt><trkpt lat="42.30799486312769" lon="14.44363862681013"><ele>10.0</ele><time>2026-05-02T07:22:57Z</time></trkpt><trkpt lat="42.307992988512666" lon="14.44376907630893"><ele>10.833333333333334</ele><time>2026-05-02T07:22:58Z</time></trkpt><trkpt lat="42.3079876745255" lon="14.443890743113688"><ele>11.666666666666668</ele><time>2026-05-02T07:22:59Z</time></trkpt><trkpt lat="42.30798354684301" lon="14.443997344649905"><ele>12.5</ele><time>2026-05-02T07:23:00Z</time></trkpt><trkpt lat="42.30797372347768" lon="14.444125695473097"><ele>13.333333333333334</ele><time>2026-05-02T07:23:02Z</time></trkpt><trkpt lat="42.30798141143663" lon="14.444266304206277"><ele>14.166666666666666</ele><time>2026-05-02T07:23:09Z</time></trkpt><trkpt lat="42.30797833983851" lon="14.444352138684044"><ele>15.0</ele><time>2026-05-02T07:23:10Z</time></trkpt><trkpt lat="42.30793909362288" lon="14.444501959364016"><ele>15.0</ele><time>2026-05-02T07:23:12Z</time></trkpt><trkpt lat="42.307894393989756" lon="14.444572644250455"><ele>15.0</ele><time>2026-05-02T07:23:13Z</time></trkpt><trkpt lat="42.30783306319573" lon="14.444618914081726"><ele>15.0</ele><time>2026-05-02T07:23:14Z</time></trkpt><trkpt lat="42.307790827840044" lon="14.444689496601637"><ele>15.0</ele><time>2026-05-02T07:23:15Z</time></trkpt><trkpt lat="42.30780552792053" lon="14.444844408778152"><ele>15.0</ele><time>2026-05-02T07:23:17Z</time></trkpt><trkpt lat="42.307899106673524" lon="14.444963973876504"><ele>16.0</ele><time>2026-05-02T07:23:19Z</time></trkpt><trkpt lat="42.3079170060255" lon="14.445054675277534"><ele>17.0</ele><time>2026-05-02T07:23:20Z</time></trkpt><trkpt lat="42.30794088073828" lon="14.445141938315667"><ele>18.0</ele><time>2026-05-02T07:23:21Z</time></trkpt><trkpt lat="42.30797496712536" lon="14.445222454949946"><ele>19.0</ele><time>2026-05-02T07:23:23Z</time></trkpt><trkpt lat="42.30808573460597" lon="14.445469291172047"><ele>20.0</ele><time>2026-05-02T07:23:34Z</time></trkpt><trkpt lat="42.30811677947233" lon="14.445552778260438"><ele>18.0</ele><time>2026-05-02T07:23:35Z</time></trkpt><trkpt lat="42.30812993042002" lon="14.445673780209248"><ele>16.0</ele><time>2026-05-02T07:23:36Z</time></trkpt><trkpt lat="42.30816803717004" lon="14.445778029555212"><ele>14.0</ele><time>2026-05-02T07:23:37Z</time></trkpt><trkpt lat="42.3082809336936" lon="14.445893026449461"><ele>12.0</ele><time>2026-05-02T07:23:38Z</time></trkpt><trkpt lat="42.30834139762995" lon="14.446021066813595"><ele>10.0</ele><time>2026-05-02T07:23:39Z</time></trkpt><trkpt lat="42.30836744526897" lon="14.446225248420253"><ele>10.0</ele><time>2026-05-02T07:23:40Z</time></trkpt><trkpt lat="42.30829058197909" lon="14.44645417389319"><ele>10.0</ele><time>2026-05-02T07:23:41Z</time></trkpt><trkpt lat="42.308206310213876" lon="14.446680406190193"><ele>10.0</ele><time>2026-05-02T07:23:42Z</time></trkpt><trkpt lat="42.30808981993938" lon="14.446942347888774"><ele>10.666666666666668</ele><time>2026-05-02T07:23:43Z</time></trkpt><trkpt lat="42.307974516898476" lon="14.447153780175006"><ele>11.333333333333334</ele><time>2026-05-02T07:23:44Z</time></trkpt><trkpt lat="42.307886308980315" lon="14.447303692904484"><ele>12.0</ele><time>2026-05-02T07:23:45Z</time></trkpt><trkpt lat="42.307797402150214" lon="14.447443693209571"><ele>12.0</ele><time>2026-05-02T07:23:46Z</time></trkpt><trkpt lat="42.30763116941327" lon="14.44759192455588"><ele>12.0</ele><time>2026-05-02T07:23:47Z</time></trkpt><trkpt lat="42.307465644980034" lon="14.447588150765903"><ele>12.0</ele><time>2026-05-02T07:23:48Z</time></trkpt><trkpt lat="42.30736140710188" lon="14.447669213256356"><ele>12.0</ele><time>2026-05-02T07:23:49Z</time></trkpt><trkpt lat="42.307263598211335" lon="14.447770891167169"><ele>12.0</ele><time>2026-05-02T07:23:50Z</time></trkpt><trkpt lat="42.307174522362615" lon="14.447891128076682"><ele>12.0</ele><time>2026-05-02T07:23:51Z</time></trkpt><trkpt lat="42.30708188063617" lon="14.448026242602024"><ele>12.0</ele><time>2026-05-02T07:23:52Z</time></trkpt><trkpt lat="42.306987935264765" lon="14.448167451265455"><ele>13.0</ele><time>2026-05-02T07:23:53Z</time></trkpt><trkpt lat="42.306888886770935" lon="14.44831632994106"><ele>14.0</ele><time>2026-05-02T07:23:54Z</time></trkpt><trkpt lat="42.306753027246344" lon="14.448400594311083"><ele>15.0</ele><time>2026-05-02T07:23:55Z</time></trkpt><trkpt lat="42.30666867491066" lon="14.44852792230079"><ele>16.0</ele><time>2026-05-02T07:23:56Z</time></trkpt><trkpt lat="42.3065899826661" lon="14.44865317194229"><ele>16.0</ele><time>2026-05-02T07:23:57Z</time></trkpt><trkpt lat="42.30651627783396" lon="14.448782081260097"><ele>16.0</ele><time>2026-05-02T07:23:58Z</time></trkpt><trkpt lat="42.306470833606205" lon="14.448933964657613"><ele>16.0</ele><time>2026-05-02T07:23:59Z</time></trkpt><trkpt lat="42.306393726640124" lon="14.449043211350252"><ele>16.0</ele><time>2026-05-02T07:24:00Z</time></trkpt><trkpt lat="42.30631546972109" lon="14.449156714281383"><ele>15.25</ele><time>2026-05-02T07:24:01Z</time></trkpt><trkpt lat="42.306221879097485" lon="14.449251366558498"><ele>14.5</ele><time>2026-05-02T07:24:02Z</time></trkpt><trkpt lat="42.30612738012623" lon="14.44935479283423"><ele>13.75</ele><time>2026-05-02T07:24:03Z</time></trkpt><trkpt lat="42.306021563566446" lon="14.449463030505592"><ele>13.0</ele><time>2026-05-02T07:24:04Z</time></trkpt><trkpt lat="42.305905363964634" lon="14.449557335483192"><ele>12.25</ele><time>2026-05-02T07:24:05Z</time></trkpt><trkpt lat="42.30578448558962" lon="14.44963463204663"><ele>11.5</ele><time>2026-05-02T07:24:06Z</time></trkpt><trkpt lat="42.305685000385786" lon="14.449735670988165"><ele>10.75</ele><time>2026-05-02T07:24:07Z</time></trkpt><trkpt lat="42.305582166226415" lon="14.449838986365023"><ele>10.0</ele><time>2026-05-02T07:24:08Z</time></trkpt><trkpt lat="42.3054680777019" lon="14.44994932627355"><ele>10.0</ele><time>2026-05-02T07:24:09Z</time></trkpt><trkpt lat="42.30532912977477" lon="14.450082503891885"><ele>10.0</ele><time>2026-05-02T07:24:10Z</time></trkpt><trkpt lat="42.30521171383451" lon="14.450194202014092"><ele>10.0</ele><time>2026-05-02T07:24:11Z</time></trkpt><trkpt lat="42.30510026833069" lon="14.450301077028486"><ele>10.0</ele><time>2026-05-02T07:24:12Z</time></trkpt><trkpt lat="42.30498650770516" lon="14.450412949150433"><ele>10.0</ele><time>2026-05-02T07:24:13Z</time></trkpt><trkpt lat="42.30488540350906" lon="14.450514053323658"><ele>10.0</ele><time>2026-05-02T07:24:14Z</time></trkpt><trkpt lat="42.30477555932553" lon="14.450626655295682"><ele>10.0</ele><time>2026-05-02T07:24:15Z</time></trkpt><trkpt lat="42.30467148382002" lon="14.450733365675891"><ele>12.25</ele><time>2026-05-02T07:24:16Z</time></trkpt><trkpt lat="42.30456399485808" lon="14.450846451561947"><ele>14.5</ele><time>2026-05-02T07:24:17Z</time></trkpt><trkpt lat="42.3044737022423" lon="14.45096364845268"><ele>16.75</ele><time>2026-05-02T07:24:18Z</time></trkpt><trkpt lat="42.30435655077831" lon="14.45105475516626"><ele>19.0</ele><time>2026-05-02T07:24:19Z</time></trkpt><trkpt lat="42.30424207407769" lon="14.451184281943581"><ele>17.75</ele><time>2026-05-02T07:24:20Z</time></trkpt><trkpt lat="42.304149628319244" lon="14.451327001095946"><ele>16.5</ele><time>2026-05-02T07:24:21Z</time></trkpt><trkpt lat="42.304053587010245" lon="14.451475202743971"><ele>15.25</ele><time>2026-05-02T07:24:22Z</time></trkpt><trkpt lat="42.30398065199479" lon="14.451633741485121"><ele>14.0</ele><time>2026-05-02T07:24:23Z</time></trkpt><trkpt lat="42.30389712906639" lon="14.45181639353648"><ele>16.75</ele><time>2026-05-02T07:24:24Z</time></trkpt><trkpt lat="42.303819062153046" lon="14.451979808931663"><ele>19.5</ele><time>2026-05-02T07:24:25Z</time></trkpt><trkpt lat="42.303747872245836" lon="14.452154010206085"><ele>22.25</ele><time>2026-05-02T07:24:26Z</time></trkpt><trkpt lat="42.30369196333729" lon="14.452320571168322"><ele>25.0</ele><time>2026-05-02T07:24:27Z</time></trkpt><trkpt lat="42.30362350793502" lon="14.452470380189494"><ele>25.0</ele><time>2026-05-02T07:24:28Z</time></trkpt><trkpt lat="42.30355483981214" lon="14.452620543664233"><ele>25.0</ele><time>2026-05-02T07:24:29Z</time></trkpt><trkpt lat="42.303487848923986" lon="14.452772283370134"><ele>25.0</ele><time>2026-05-02T07:24:30Z</time></trkpt><trkpt lat="42.30342696506871" lon="14.452922896888657"><ele>25.0</ele><time>2026-05-02T07:24:31Z</time></trkpt><trkpt lat="42.30335717215733" lon="14.453073124812741"><ele>25.75</ele><time>2026-05-02T07:24:32Z</time></trkpt><trkpt lat="42.30329150323071" lon="14.45322318121388"><ele>26.5</ele><time>2026-05-02T07:24:33Z</time></trkpt><trkpt lat="42.30321260318481" lon="14.453365836216875"><ele>27.25</ele><time>2026-05-02T07:24:34Z</time></trkpt><trkpt lat="42.30313075531696" lon="14.453505242090351"><ele>28.0</ele><time>2026-05-02T07:24:35Z</time></trkpt><trkpt lat="42.30304153897316" lon="14.453639290066258"><ele>28.0</ele><time>2026-05-02T07:24:36Z</time></trkpt><trkpt lat="42.302937541183724" lon="14.45375683714951"><ele>28.0</ele><time>2026-05-02T07:24:37Z</time></trkpt><trkpt lat="42.30283883547066" lon="14.453867963490122"><ele>28.0</ele><time>2026-05-02T07:24:38Z</time></trkpt><trkpt lat="42.30273310608927" lon="14.453973427787234"><ele>28.0</ele><time>2026-05-02T07:24:39Z</time></trkpt><trkpt lat="42.30261881592097" lon="14.454075942518353"><ele>27.25</ele><time>2026-05-02T07:24:40Z</time></trkpt><trkpt lat="42.302517931879905" lon="14.454166808043649"><ele>26.5</ele><time>2026-05-02T07:24:41Z</time></trkpt><trkpt lat="42.30241588787894" lon="14.454269594637319"><ele>25.75</ele><time>2026-05-02T07:24:42Z</time></trkpt><trkpt lat="42.30230177930101" lon="14.454376126779799"><ele>25.0</ele><time>2026-05-02T07:24:43Z</time></trkpt><trkpt lat="42.30217480595995" lon="14.45446575384351"><ele>27.0</ele><time>2026-05-02T07:24:44Z</time></trkpt><trkpt lat="42.30206794116018" lon="14.454591700434747"><ele>29.0</ele><time>2026-05-02T07:24:45Z</time></trkpt><trkpt lat="42.302003605351416" lon="14.454743153404449"><ele>31.0</ele><time>2026-05-02T07:24:46Z</time></trkpt><trkpt lat="42.30193656493924" lon="14.454930469983553"><ele>33.0</ele><time>2026-05-02T07:24:47Z</time></trkpt><trkpt lat="42.301871441157054" lon="14.455127791517244"><ele>33.0</ele><time>2026-05-02T07:24:48Z</time></trkpt><trkpt lat="42.30181582405419" lon="14.455320021805873"><ele>33.0</ele><time>2026-05-02T07:24:49Z</time></trkpt><trkpt lat="42.30175249503364" lon="14.455500252445818"><ele>33.0</ele><time>2026-05-02T07:24:50Z</time></trkpt><trkpt lat="42.30169837988937" lon="14.455652325941218"><ele>33.0</ele><time>2026-05-02T07:24:51Z</time></trkpt><trkpt lat="42.301640294185184" lon="14.455817163031833"><ele>33.0</ele><time>2026-05-02T07:24:52Z</time></trkpt><trkpt lat="42.30156396140324" lon="14.45597447381306"><ele>33.0</ele><time>2026-05-02T07:24:53Z</time></trkpt><trkpt lat="42.30149245816005" lon="14.456125739426081"><ele>33.0</ele><time>2026-05-02T07:24:54Z</time></trkpt><trkpt lat="42.30141858177646" lon="14.45627132164763"><ele>33.0</ele><time>2026-05-02T07:24:55Z</time></trkpt><trkpt lat="42.301346086041704" lon="14.45643577349558"><ele>33.0</ele><time>2026-05-02T07:24:56Z</time></trkpt><trkpt lat="42.3012502155023" lon="14.4565845151625"><ele>33.0</ele><time>2026-05-02T07:24:57Z</time></trkpt><trkpt lat="42.301151351200126" lon="14.456743275909986"><ele>33.0</ele><time>2026-05-02T07:24:58Z</time></trkpt><trkpt lat="42.301062730945716" lon="14.456869220346972"><ele>33.0</ele><time>2026-05-02T07:24:59Z</time></trkpt><trkpt lat="42.30097567345167" lon="14.456992041237912"><ele>28.5</ele><time>2026-05-02T07:25:00Z</time></trkpt><trkpt lat="42.300889720647696" lon="14.457120151475872"><ele>24.0</ele><time>2026-05-02T07:25:01Z</time></trkpt><trkpt lat="42.30079476699753" lon="14.4572278756714"><ele>19.5</ele><time>2026-05-02T07:25:02Z</time></trkpt><trkpt lat="42.3007150444174" lon="14.457338653838546"><ele>15.0</ele><time>2026-05-02T07:25:03Z</time></trkpt><trkpt lat="42.30063607078681" lon="14.45745209633625"><ele>17.0</ele><time>2026-05-02T07:25:04Z</time></trkpt><trkpt lat="42.300552626397746" lon="14.457562188444713"><ele>19.0</ele><time>2026-05-02T07:25:05Z</time></trkpt><trkpt lat="42.300487601480086" lon="14.457689798005353"><ele>21.0</ele><time>2026-05-02T07:25:06Z</time></trkpt><trkpt lat="42.30043897136164" lon="14.457818563421268"><ele>23.0</ele><time>2026-05-02T07:25:07Z</time></trkpt><trkpt lat="42.30040128296582" lon="14.457940386020113"><ele>25.0</ele><time>2026-05-02T07:25:08Z</time></trkpt><trkpt lat="42.30037869810297" lon="14.458052513463537"><ele>25.0</ele><time>2026-05-02T07:25:09Z</time></trkpt><trkpt lat="42.30035294982028" lon="14.458178390807232"><ele>25.0</ele><time>2026-05-02T07:25:10Z</time></trkpt><trkpt lat="42.3003245036996" lon="14.458303488036586"><ele>25.0</ele><time>2026-05-02T07:25:11Z</time></trkpt><trkpt lat="42.30028705289409" lon="14.458432892978571"><ele>25.0</ele><time>2026-05-02T07:25:12Z</time></trkpt><trkpt lat="42.30022180510078" lon="14.458558297301272"><ele>25.0</ele><time>2026-05-02T07:25:13Z</time></trkpt><trkpt lat="42.300145025427526" lon="14.458669116706842"><ele>25.0</ele><time>2026-05-02T07:25:14Z</time></trkpt><trkpt lat="42.300060726080034" lon="14.458765034538988"><ele>25.0</ele><time>2026-05-02T07:25:15Z</time></trkpt><trkpt lat="42.29997900900063" lon="14.45884792262975"><ele>25.0</ele><time>2026-05-02T07:25:16Z</time></trkpt><trkpt lat="42.29990895826693" lon="14.45893989851515"><ele>25.0</ele><time>2026-05-02T07:25:17Z</time></trkpt><trkpt lat="42.29984235052306" lon="14.459038671902155"><ele>25.0</ele><time>2026-05-02T07:25:18Z</time></trkpt><trkpt lat="42.29979875268905" lon="14.459165603355219"><ele>22.6</ele><time>2026-05-02T07:25:19Z</time></trkpt><trkpt lat="42.299796532246845" lon="14.459306403524343"><ele>20.2</ele><time>2026-05-02T07:25:20Z</time></trkpt><trkpt lat="42.29980487016008" lon="14.459409211622168"><ele>17.8</ele><time>2026-05-02T07:25:21Z</time></trkpt><trkpt lat="42.299809955098645" lon="14.459515933081223"><ele>15.4</ele><time>2026-05-02T07:25:23Z</time></trkpt><trkpt lat="42.2999185064665" lon="14.45961475787191"><ele>13.0</ele><time>2026-05-02T07:26:29Z</time></trkpt><trkpt lat="42.29995828646962" lon="14.459688156373922"><ele>12.714285714285714</ele><time>2026-05-02T07:26:40Z</time></trkpt><trkpt lat="42.299985390072955" lon="14.459770376035099"><ele>12.428571428571429</ele><time>2026-05-02T07:26:45Z</time></trkpt><trkpt lat="42.300019694844025" lon="14.459850594982651"><ele>12.142857142857142</ele><time>2026-05-02T07:26:51Z</time></trkpt><trkpt lat="42.30003291525426" lon="14.459941261770712"><ele>11.857142857142858</ele><time>2026-05-02T07:26:56Z</time></trkpt><trkpt lat="42.30005983716008" lon="14.460024938480469"><ele>11.571428571428571</ele><time>2026-05-02T07:27:04Z</time></trkpt><trkpt lat="42.3000883805401" lon="14.460102877786694"><ele>11.285714285714286</ele><time>2026-05-02T07:27:11Z</time></trkpt><trkpt lat="42.30008826718555" lon="14.460198408215035"><ele>11.0</ele><time>2026-05-02T07:27:18Z</time></trkpt><trkpt lat="42.3001144131349" lon="14.460291490027526"><ele>11.0</ele><time>2026-05-02T07:27:25Z</time></trkpt><trkpt lat="42.300123464412174" lon="14.46038287182034"><ele>11.0</ele><time>2026-05-02T07:27:32Z</time></trkpt><trkpt lat="42.30015814489565" lon="14.46046034552251"><ele>11.0</ele><time>2026-05-02T07:28:26Z</time></trkpt><trkpt lat="42.30010564157083" lon="14.460395448997241"><ele>11.0</ele><time>2026-05-02T07:36:55Z</time></trkpt><trkpt lat="42.30008628796305" lon="14.460311154474763"><ele>11.0</ele><time>2026-05-02T07:37:00Z</time></trkpt><trkpt lat="42.30009086435313" lon="14.460220560998158"><ele>11.0</ele><time>2026-05-02T07:37:06Z</time></trkpt><trkpt lat="42.300087004072005" lon="14.460133872693591"><ele>11.0</ele><time>2026-05-02T07:37:13Z</time></trkpt><trkpt lat="42.30006106891908" lon="14.460045728347328"><ele>11.0</ele><time>2026-05-02T07:37:19Z</time></trkpt><trkpt lat="42.30003734759187" lon="14.459964279066881"><ele>11.0</ele><time>2026-05-02T07:37:25Z</time></trkpt><trkpt lat="42.30001170051831" lon="14.459883653071902"><ele>11.0</ele><time>2026-05-02T07:37:31Z</time></trkpt><trkpt lat="42.29997858549014" lon="14.459802964336948"><ele>11.0</ele><time>2026-05-02T07:37:36Z</time></trkpt><trkpt lat="42.29996255935347" lon="14.459706478596154"><ele>11.0</ele><time>2026-05-02T07:37:42Z</time></trkpt><trkpt lat="42.300024903167326" lon="14.459670541196664"><ele>11.0</ele><time>2026-05-02T07:37:53Z</time></trkpt><trkpt lat="42.30005827306919" lon="14.459592594594342"><ele>11.0</ele><time>2026-05-02T07:37:58Z</time></trkpt><trkpt lat="42.30009286469209" lon="14.459515432924785"><ele>11.285714285714286</ele><time>2026-05-02T07:38:04Z</time></trkpt><trkpt lat="42.300125967350496" lon="14.459431850763384"><ele>11.571428571428571</ele><time>2026-05-02T07:38:10Z</time></trkpt><trkpt lat="42.300163159985274" lon="14.459338346409783"><ele>11.857142857142858</ele><time>2026-05-02T07:38:15Z</time></trkpt><trkpt lat="42.3001669115504" lon="14.459235374351698"><ele>12.142857142857142</ele><time>2026-05-02T07:38:21Z</time></trkpt><trkpt lat="42.30019448706191" lon="14.459148432897843"><ele>12.428571428571429</ele><time>2026-05-02T07:38:26Z</time></trkpt><trkpt lat="42.300240206400765" lon="14.459086369209137"><ele>12.714285714285714</ele><time>2026-05-02T07:38:31Z</time></trkpt><trkpt lat="42.300296410778614" lon="14.459165305143921"><ele>13.0</ele><time>2026-05-02T07:38:39Z</time></trkpt><trkpt lat="42.300355184389595" lon="14.459216582479366"><ele>13.0</ele><time>2026-05-02T07:38:44Z</time></trkpt><trkpt lat="42.30035858055516" lon="14.459303552662519"><ele>13.0</ele><time>2026-05-02T07:38:48Z</time></trkpt><trkpt lat="42.3003600319121" lon="14.459388707089614"><ele>13.0</ele><time>2026-05-02T07:38:52Z</time></trkpt><trkpt lat="42.30033883168866" lon="14.459471915475582"><ele>13.0</ele><time>2026-05-02T07:38:57Z</time></trkpt><trkpt lat="42.3003051155948" lon="14.459545524805"><ele>13.0</ele><time>2026-05-02T07:39:03Z</time></trkpt><trkpt lat="42.30027998987496" lon="14.459631812349404"><ele>13.0</ele><time>2026-05-02T07:39:09Z</time></trkpt><trkpt lat="42.30029860710619" lon="14.459725731524054"><ele>13.0</ele><time>2026-05-02T07:39:34Z</time></trkpt><trkpt lat="42.30027017987017" lon="14.459803621659088"><ele>13.0</ele><time>2026-05-02T07:39:40Z</time></trkpt><trkpt lat="42.30027921384898" lon="14.459896188957336"><ele>13.0</ele><time>2026-05-02T07:39:54Z</time></trkpt><trkpt lat="42.300246633692254" lon="14.459807326963888"><ele>13.0</ele><time>2026-05-02T07:43:25Z</time></trkpt><trkpt lat="42.3002659889122" lon="14.459722975704366"><ele>13.0</ele><time>2026-05-02T07:43:51Z</time></trkpt><trkpt lat="42.30026854147994" lon="14.459584382584232"><ele>13.0</ele><time>2026-05-02T07:45:08Z</time></trkpt><trkpt lat="42.30030153242321" lon="14.459499598273144"><ele>13.0</ele><time>2026-05-02T07:45:11Z</time></trkpt><trkpt lat="42.30033810010188" lon="14.459429958860536"><ele>13.0</ele><time>2026-05-02T07:45:16Z</time></trkpt><trkpt lat="42.30035832371083" lon="14.459349331730145"><ele>13.0</ele><time>2026-05-02T07:45:23Z</time></trkpt><trkpt lat="42.30033516031384" lon="14.459253093651638"><ele>13.0</ele><time>2026-05-02T07:45:33Z</time></trkpt><trkpt lat="42.300287445453215" lon="14.459188732300381"><ele>13.0</ele><time>2026-05-02T07:45:40Z</time></trkpt><trkpt lat="42.30023346801204" lon="14.45913341474546"><ele>13.0</ele><time>2026-05-02T07:45:47Z</time></trkpt><trkpt lat="42.300193024226694" lon="14.459212693755148"><ele>13.0</ele><time>2026-05-02T07:45:53Z</time></trkpt><trkpt lat="42.3001771109906" lon="14.459318758503535"><ele>13.0</ele><time>2026-05-02T07:46:01Z</time></trkpt><trkpt lat="42.300156083387364" lon="14.459413175265107"><ele>13.0</ele><time>2026-05-02T07:46:07Z</time></trkpt><trkpt lat="42.30010466879132" lon="14.459491694254712"><ele>13.0</ele><time>2026-05-02T07:46:15Z</time></trkpt><trkpt lat="42.3000731148233" lon="14.459585986954343"><ele>13.0</ele><time>2026-05-02T07:46:23Z</time></trkpt><trkpt lat="42.30002618682703" lon="14.459659833989239"><ele>13.0</ele><time>2026-05-02T07:46:33Z</time></trkpt><trkpt lat="42.29996200947312" lon="14.459650919099733"><ele>13.0</ele><time>2026-05-02T07:46:41Z</time></trkpt><trkpt lat="42.29990278348673" lon="14.459610598822966"><ele>13.0</ele><time>2026-05-02T07:46:46Z</time></trkpt><trkpt lat="42.299841659137854" lon="14.459579461798093"><ele>13.0</ele><time>2026-05-02T07:46:52Z</time></trkpt><trkpt lat="42.2998235935774" lon="14.459680412953297"><ele>13.0</ele><time>2026-05-02T07:47:52Z</time></trkpt><trkpt lat="42.29981322694633" lon="14.459595240696146"><ele>12.600000000000001</ele><time>2026-05-02T07:48:03Z</time></trkpt><trkpt lat="42.29992883011261" lon="14.459712282179687"><ele>12.200000000000001</ele><time>2026-05-02T07:48:50Z</time></trkpt><trkpt lat="42.29996644341544" lon="14.45981232645734"><ele>11.8</ele><time>2026-05-02T07:48:51Z</time></trkpt><trkpt lat="42.30000036053025" lon="14.459921260921307"><ele>11.4</ele><time>2026-05-02T07:48:52Z</time></trkpt><trkpt lat="42.30002379653601" lon="14.460043065805014"><ele>11.0</ele><time>2026-05-02T07:48:53Z</time></trkpt><trkpt lat="42.300011397544864" lon="14.460186069370568"><ele>11.0</ele><time>2026-05-02T07:48:54Z</time></trkpt><trkpt lat="42.29999261902003" lon="14.460321877480794"><ele>11.0</ele><time>2026-05-02T07:48:55Z</time></trkpt><trkpt lat="42.29995146798749" lon="14.460469814230821"><ele>11.0</ele><time>2026-05-02T07:48:56Z</time></trkpt><trkpt lat="42.299887897752484" lon="14.460608823930723"><ele>11.0</ele><time>2026-05-02T07:48:57Z</time></trkpt><trkpt lat="42.299806308840324" lon="14.460737910963939"><ele>13.25</ele><time>2026-05-02T07:48:58Z</time></trkpt><trkpt lat="42.2996981625622" lon="14.46083012388701"><ele>15.5</ele><time>2026-05-02T07:48:59Z</time></trkpt><trkpt lat="42.29957522818931" lon="14.460893470933268"><ele>17.75</ele><time>2026-05-02T07:49:00Z</time></trkpt><trkpt lat="42.29945442284376" lon="14.460954448148545"><ele>20.0</ele><time>2026-05-02T07:49:01Z</time></trkpt><trkpt lat="42.29931008462905" lon="14.460964817486515"><ele>20.0</ele><time>2026-05-02T07:49:02Z</time></trkpt><trkpt lat="42.2991802851075" lon="14.460993380280536"><ele>20.0</ele><time>2026-05-02T07:49:03Z</time></trkpt><trkpt lat="42.2990467783033" lon="14.46105747845096"><ele>20.0</ele><time>2026-05-02T07:49:04Z</time></trkpt><trkpt lat="42.29891970673459" lon="14.461146299274576"><ele>20.0</ele><time>2026-05-02T07:49:05Z</time></trkpt><trkpt lat="42.298795401502524" lon="14.46124447342967"><ele>20.666666666666668</ele><time>2026-05-02T07:49:06Z</time></trkpt><trkpt lat="42.29866573014769" lon="14.461349320621006"><ele>21.333333333333332</ele><time>2026-05-02T07:49:07Z</time></trkpt><trkpt lat="42.2985363689927" lon="14.461472602945754"><ele>22.0</ele><time>2026-05-02T07:49:08Z</time></trkpt><trkpt lat="42.298421393239586" lon="14.461621238715843"><ele>22.0</ele><time>2026-05-02T07:49:09Z</time></trkpt><trkpt lat="42.298311979894706" lon="14.461778560968241"><ele>22.0</ele><time>2026-05-02T07:49:10Z</time></trkpt><trkpt lat="42.298198400484196" lon="14.461941085224808"><ele>22.0</ele><time>2026-05-02T07:49:11Z</time></trkpt><trkpt lat="42.29808095997841" lon="14.462092861247854"><ele>24.0</ele><time>2026-05-02T07:49:12Z</time></trkpt><trkpt lat="42.29796312006359" lon="14.462243251503136"><ele>26.0</ele><time>2026-05-02T07:49:13Z</time></trkpt><trkpt lat="42.29784294714515" lon="14.462384682310443"><ele>28.0</ele><time>2026-05-02T07:49:14Z</time></trkpt><trkpt lat="42.297692099605044" lon="14.462476734385831"><ele>28.0</ele><time>2026-05-02T07:49:15Z</time></trkpt><trkpt lat="42.29753376725537" lon="14.462544458193975"><ele>28.0</ele><time>2026-05-02T07:49:16Z</time></trkpt><trkpt lat="42.29736746744304" lon="14.462607217538615"><ele>28.0</ele><time>2026-05-02T07:49:17Z</time></trkpt><trkpt lat="42.29720476002342" lon="14.462635403757552"><ele>33.333333333333336</ele><time>2026-05-02T07:49:18Z</time></trkpt><trkpt lat="42.297045888219245" lon="14.462684439422448"><ele>38.666666666666664</ele><time>2026-05-02T07:49:19Z</time></trkpt><trkpt lat="42.29689464624715" lon="14.462777931296714"><ele>44.0</ele><time>2026-05-02T07:49:20Z</time></trkpt><trkpt lat="42.29675535311721" lon="14.462905103422642"><ele>39.666666666666664</ele><time>2026-05-02T07:49:21Z</time></trkpt><trkpt lat="42.2966379723578" lon="14.463066175655628"><ele>35.333333333333336</ele><time>2026-05-02T07:49:22Z</time></trkpt><trkpt lat="42.29654555943815" lon="14.46326248811875"><ele>31.0</ele><time>2026-05-02T07:49:23Z</time></trkpt><trkpt lat="42.29646458962374" lon="14.463458321810228"><ele>35.66666666666667</ele><time>2026-05-02T07:49:24Z</time></trkpt><trkpt lat="42.296372565695656" lon="14.463632089851377"><ele>40.333333333333336</ele><time>2026-05-02T07:49:25Z</time></trkpt><trkpt lat="42.296251763481344" lon="14.463775324987733"><ele>45.0</ele><time>2026-05-02T07:49:26Z</time></trkpt><trkpt lat="42.29610360494852" lon="14.463875570917905"><ele>45.0</ele><time>2026-05-02T07:49:27Z</time></trkpt><trkpt lat="42.295963856500464" lon="14.463989680620598"><ele>45.0</ele><time>2026-05-02T07:49:28Z</time></trkpt><trkpt lat="42.2958301097786" lon="14.464114674185387"><ele>45.0</ele><time>2026-05-02T07:49:29Z</time></trkpt><trkpt lat="42.29568659848523" lon="14.464223585869913"><ele>46.33333333333333</ele><time>2026-05-02T07:49:30Z</time></trkpt><trkpt lat="42.295545449395135" lon="14.464336352621254"><ele>47.666666666666664</ele><time>2026-05-02T07:49:31Z</time></trkpt><trkpt lat="42.295408669476195" lon="14.464462292486722"><ele>49.0</ele><time>2026-05-02T07:49:32Z</time></trkpt><trkpt lat="42.295290384484765" lon="14.464624152556194"><ele>49.0</ele><time>2026-05-02T07:49:33Z</time></trkpt><trkpt lat="42.29519652232665" lon="14.464823857783035"><ele>49.0</ele><time>2026-05-02T07:49:34Z</time></trkpt><trkpt lat="42.29510533648253" lon="14.465041790564172"><ele>49.0</ele><time>2026-05-02T07:49:34.999Z</time></trkpt><trkpt lat="42.295011907327556" lon="14.465260410266886"><ele>48.33333333333333</ele><time>2026-05-02T07:49:35.999Z</time></trkpt><trkpt lat="42.294917833998824" lon="14.465475047713612"><ele>47.666666666666664</ele><time>2026-05-02T07:49:36.999Z</time></trkpt><trkpt lat="42.29482035080904" lon="14.465694847235996"><ele>47.0</ele><time>2026-05-02T07:49:37.999Z</time></trkpt><trkpt lat="42.29472737871225" lon="14.465919344886839"><ele>46.666666666666664</ele><time>2026-05-02T07:49:38.999Z</time></trkpt><trkpt lat="42.294622587090096" lon="14.46614259545833"><ele>46.333333333333336</ele><time>2026-05-02T07:49:39.999Z</time></trkpt><trkpt lat="42.29451777490045" lon="14.466370687468444"><ele>46.0</ele><time>2026-05-02T07:49:40.999Z</time></trkpt><trkpt lat="42.29441375382426" lon="14.466604842403978"><ele>46.0</ele><time>2026-05-02T07:49:41.999Z</time></trkpt><trkpt lat="42.29430648752882" lon="14.466832466604984"><ele>46.0</ele><time>2026-05-02T07:49:42.999Z</time></trkpt><trkpt lat="42.29420361365893" lon="14.467064218187712"><ele>46.0</ele><time>2026-05-02T07:49:43.999Z</time></trkpt><trkpt lat="42.29410540738047" lon="14.4672904829264"><ele>44.0</ele><time>2026-05-02T07:49:44.999Z</time></trkpt><trkpt lat="42.29404257746465" lon="14.467527557250701"><ele>42.0</ele><time>2026-05-02T07:49:45.999Z</time></trkpt><trkpt lat="42.294011542215415" lon="14.467774335354841"><ele>40.0</ele><time>2026-05-02T07:49:46.999Z</time></trkpt><trkpt lat="42.294015140768515" lon="14.468024187944318"><ele>41.66666666666667</ele><time>2026-05-02T07:49:47.999Z</time></trkpt><trkpt lat="42.29399362168229" lon="14.468263294695568"><ele>43.333333333333336</ele><time>2026-05-02T07:49:48.999Z</time></trkpt><trkpt lat="42.293924998506185" lon="14.468492211828247"><ele>45.0</ele><time>2026-05-02T07:49:49.999Z</time></trkpt><trkpt lat="42.29383121578106" lon="14.468703691311672"><ele>43.666666666666664</ele><time>2026-05-02T07:49:51Z</time></trkpt><trkpt lat="42.293696926572316" lon="14.468881581065403"><ele>42.33333333333333</ele><time>2026-05-02T07:49:52Z</time></trkpt><trkpt lat="42.293538617825305" lon="14.46902623630887"><ele>41.0</ele><time>2026-05-02T07:49:53Z</time></trkpt><trkpt lat="42.29336633808883" lon="14.46913896986924"><ele>41.0</ele><time>2026-05-02T07:49:54Z</time></trkpt><trkpt lat="42.29320440836115" lon="14.469273724960015"><ele>41.0</ele><time>2026-05-02T07:49:55Z</time></trkpt><trkpt lat="42.29304498590363" lon="14.469424489351676"><ele>41.0</ele><time>2026-05-02T07:49:56Z</time></trkpt><trkpt lat="42.292896109330435" lon="14.4696024524895"><ele>41.666666666666664</ele><time>2026-05-02T07:49:57Z</time></trkpt><trkpt lat="42.29275989203516" lon="14.469789753596837"><ele>42.333333333333336</ele><time>2026-05-02T07:49:58Z</time></trkpt><trkpt lat="42.292629158179" lon="14.469984861458661"><ele>43.0</ele><time>2026-05-02T07:49:59Z</time></trkpt><trkpt lat="42.29252198368221" lon="14.470210349384276"><ele>43.0</ele><time>2026-05-02T07:50:00Z</time></trkpt><trkpt lat="42.29242901451066" lon="14.470429134613386"><ele>43.0</ele><time>2026-05-02T07:50:01Z</time></trkpt><trkpt lat="42.29233902387415" lon="14.470639186148242"><ele>43.0</ele><time>2026-05-02T07:50:02Z</time></trkpt><trkpt lat="42.292253952007854" lon="14.470839215321377"><ele>43.0</ele><time>2026-05-02T07:50:03Z</time></trkpt><trkpt lat="42.29212755523409" lon="14.471002819802255"><ele>43.0</ele><time>2026-05-02T07:50:04Z</time></trkpt><trkpt lat="42.29198244978431" lon="14.471133851335058"><ele>43.0</ele><time>2026-05-02T07:50:05Z</time></trkpt><trkpt lat="42.29182367811606" lon="14.471259008174476"><ele>40.66666666666667</ele><time>2026-05-02T07:50:06Z</time></trkpt><trkpt lat="42.29166428031941" lon="14.471386374520794"><ele>38.333333333333336</ele><time>2026-05-02T07:50:07Z</time></trkpt><trkpt lat="42.29150872971258" lon="14.471510779062674"><ele>36.0</ele><time>2026-05-02T07:50:08Z</time></trkpt><trkpt lat="42.29134475356091" lon="14.47162608948187"><ele>36.0</ele><time>2026-05-02T07:50:09Z</time></trkpt><trkpt lat="42.29120338096488" lon="14.47174047608128"><ele>36.0</ele><time>2026-05-02T07:50:10Z</time></trkpt><trkpt lat="42.29107135960529" lon="14.471862356447364"><ele>36.0</ele><time>2026-05-02T07:50:11Z</time></trkpt><trkpt lat="42.290961092821554" lon="14.472013946892268"><ele>33.0</ele><time>2026-05-02T07:50:12Z</time></trkpt><trkpt lat="42.29088071502121" lon="14.47221756351942"><ele>30.0</ele><time>2026-05-02T07:50:13Z</time></trkpt><trkpt lat="42.290835009498224" lon="14.47244185528187"><ele>27.0</ele><time>2026-05-02T07:50:14Z</time></trkpt><trkpt lat="42.29082249426317" lon="14.472680262888073"><ele>27.0</ele><time>2026-05-02T07:50:15Z</time></trkpt><trkpt lat="42.29082972967663" lon="14.472930394931865"><ele>27.0</ele><time>2026-05-02T07:50:16Z</time></trkpt><trkpt lat="42.29082241315153" lon="14.473170170493548"><ele>27.0</ele><time>2026-05-02T07:50:17Z</time></trkpt><trkpt lat="42.290801788046636" lon="14.473407336453736"><ele>23.333333333333332</ele><time>2026-05-02T07:50:18Z</time></trkpt><trkpt lat="42.29078719033891" lon="14.47362216128169"><ele>19.666666666666664</ele><time>2026-05-02T07:50:19Z</time></trkpt><trkpt lat="42.29073102190507" lon="14.473824587684911"><ele>16.0</ele><time>2026-05-02T07:50:20Z</time></trkpt><trkpt lat="42.290666658300985" lon="14.474014410347692"><ele>17.0</ele><time>2026-05-02T07:50:21Z</time></trkpt><trkpt lat="42.29058625277674" lon="14.474195472392937"><ele>18.0</ele><time>2026-05-02T07:50:22Z</time></trkpt><trkpt lat="42.29049375724802" lon="14.474373541268235"><ele>19.0</ele><time>2026-05-02T07:50:23Z</time></trkpt><trkpt lat="42.29036334157316" lon="14.474506079105227"><ele>16.333333333333332</ele><time>2026-05-02T07:50:24Z</time></trkpt><trkpt lat="42.29023567485371" lon="14.474637788881143"><ele>13.666666666666666</ele><time>2026-05-02T07:50:25Z</time></trkpt><trkpt lat="42.2900883131792" lon="14.474740920956451"><ele>11.0</ele><time>2026-05-02T07:50:26Z</time></trkpt><trkpt lat="42.28994821995253" lon="14.474874514367615"><ele>11.0</ele><time>2026-05-02T07:50:27Z</time></trkpt><trkpt lat="42.28979545419337" lon="14.474983074497956"><ele>11.0</ele><time>2026-05-02T07:50:28Z</time></trkpt><trkpt lat="42.28964677295821" lon="14.4751015864386"><ele>11.0</ele><time>2026-05-02T07:50:29Z</time></trkpt><trkpt lat="42.28951053367909" lon="14.47523464954765"><ele>12.666666666666666</ele><time>2026-05-02T07:50:30Z</time></trkpt><trkpt lat="42.28939091860393" lon="14.475398887639813"><ele>14.333333333333332</ele><time>2026-05-02T07:50:31Z</time></trkpt><trkpt lat="42.28932513351858" lon="14.475613604343035"><ele>16.0</ele><time>2026-05-02T07:50:32Z</time></trkpt><trkpt lat="42.289287435853886" lon="14.475841132517017"><ele>16.0</ele><time>2026-05-02T07:50:33Z</time></trkpt><trkpt lat="42.289280389202744" lon="14.476080936938413"><ele>16.0</ele><time>2026-05-02T07:50:34Z</time></trkpt><trkpt lat="42.289250201663606" lon="14.476308623939536"><ele>16.0</ele><time>2026-05-02T07:50:35Z</time></trkpt><trkpt lat="42.289211174200126" lon="14.476524775817401"><ele>14.333333333333332</ele><time>2026-05-02T07:50:36Z</time></trkpt><trkpt lat="42.289140747791066" lon="14.476720232268658"><ele>12.666666666666666</ele><time>2026-05-02T07:50:37Z</time></trkpt><trkpt lat="42.28906326191364" lon="14.47691119648676"><ele>11.0</ele><time>2026-05-02T07:50:38Z</time></trkpt><trkpt lat="42.288964278154836" lon="14.477097346868167"><ele>13.0</ele><time>2026-05-02T07:50:39Z</time></trkpt><trkpt lat="42.28885512774792" lon="14.47726893671873"><ele>15.0</ele><time>2026-05-02T07:50:40Z</time></trkpt><trkpt lat="42.28875297810073" lon="14.47745106929369"><ele>17.0</ele><time>2026-05-02T07:50:41Z</time></trkpt><trkpt lat="42.28864009090076" lon="14.477625959578274"><ele>17.0</ele><time>2026-05-02T07:50:42Z</time></trkpt><trkpt lat="42.288524787015255" lon="14.477802109069993"><ele>17.0</ele><time>2026-05-02T07:50:43Z</time></trkpt><trkpt lat="42.28840550336391" lon="14.477977779354964"><ele>17.0</ele><time>2026-05-02T07:50:44Z</time></trkpt><trkpt lat="42.288288249340404" lon="14.47815659424875"><ele>18.333333333333336</ele><time>2026-05-02T07:50:45Z</time></trkpt><trkpt lat="42.28816511912243" lon="14.478337177808443"><ele>19.666666666666668</ele><time>2026-05-02T07:50:46Z</time></trkpt><trkpt lat="42.288034645619874" lon="14.478522226869892"><ele>21.0</ele><time>2026-05-02T07:50:47Z</time></trkpt><trkpt lat="42.28791832915737" lon="14.478713668436274"><ele>18.666666666666668</ele><time>2026-05-02T07:50:48Z</time></trkpt><trkpt lat="42.28780375881106" lon="14.478904123862014"><ele>16.333333333333336</ele><time>2026-05-02T07:50:49Z</time></trkpt><trkpt lat="42.28770159695017" lon="14.479108437503712"><ele>14.0</ele><time>2026-05-02T07:50:50Z</time></trkpt><trkpt lat="42.28760253364116" lon="14.479321131409584"><ele>14.0</ele><time>2026-05-02T07:50:51Z</time></trkpt><trkpt lat="42.287518440263646" lon="14.479549132727168"><ele>14.0</ele><time>2026-05-02T07:50:52Z</time></trkpt><trkpt lat="42.28744459478567" lon="14.47978367836549"><ele>14.0</ele><time>2026-05-02T07:50:53Z</time></trkpt><trkpt lat="42.28736711778338" lon="14.480009297822773"><ele>14.0</ele><time>2026-05-02T07:50:54Z</time></trkpt><trkpt lat="42.28726834250262" lon="14.480220117981393"><ele>14.0</ele><time>2026-05-02T07:50:55Z</time></trkpt><trkpt lat="42.28716947262631" lon="14.480403420704803"><ele>14.0</ele><time>2026-05-02T07:50:56Z</time></trkpt><trkpt lat="42.28706331083008" lon="14.480568468459255"><ele>14.0</ele><time>2026-05-02T07:50:57Z</time></trkpt><trkpt lat="42.28694487533728" lon="14.480717803576841"><ele>14.0</ele><time>2026-05-02T07:50:58Z</time></trkpt><trkpt lat="42.286803874853895" lon="14.4808509298335"><ele>14.0</ele><time>2026-05-02T07:50:59Z</time></trkpt><trkpt lat="42.286667190921584" lon="14.480978101177474"><ele>14.0</ele><time>2026-05-02T07:51:00Z</time></trkpt><trkpt lat="42.286533379783734" lon="14.48110699313831"><ele>14.0</ele><time>2026-05-02T07:51:01Z</time></trkpt><trkpt lat="42.28639345360623" lon="14.481235438042052"><ele>14.0</ele><time>2026-05-02T07:51:02Z</time></trkpt><trkpt lat="42.28626354427509" lon="14.481365665250262"><ele>15.0</ele><time>2026-05-02T07:51:03Z</time></trkpt><trkpt lat="42.28613230888091" lon="14.481500860953053"><ele>16.0</ele><time>2026-05-02T07:51:04Z</time></trkpt><trkpt lat="42.28600227781918" lon="14.481623386113514"><ele>17.0</ele><time>2026-05-02T07:51:05Z</time></trkpt><trkpt lat="42.285869869133904" lon="14.481750953772003"><ele>17.0</ele><time>2026-05-02T07:51:06Z</time></trkpt><trkpt lat="42.28574026795998" lon="14.481875316623677"><ele>17.0</ele><time>2026-05-02T07:51:07Z</time></trkpt><trkpt lat="42.2856197971079" lon="14.482005658365132"><ele>17.0</ele><time>2026-05-02T07:51:08Z</time></trkpt><trkpt lat="42.28549323714117" lon="14.482136392511379"><ele>19.0</ele><time>2026-05-02T07:51:09Z</time></trkpt><trkpt lat="42.28535970466237" lon="14.482262505592397"><ele>21.0</ele><time>2026-05-02T07:51:10Z</time></trkpt><trkpt lat="42.28522835050269" lon="14.48239086153069"><ele>23.0</ele><time>2026-05-02T07:51:11Z</time></trkpt><trkpt lat="42.28509721186823" lon="14.4825194513759"><ele>23.0</ele><time>2026-05-02T07:51:12Z</time></trkpt><trkpt lat="42.28496726230908" lon="14.48265031717519"><ele>23.0</ele><time>2026-05-02T07:51:13Z</time></trkpt><trkpt lat="42.28486195764754" lon="14.48281336223021"><ele>23.0</ele><time>2026-05-02T07:51:14Z</time></trkpt><trkpt lat="42.28475099040349" lon="14.482984889952533"><ele>24.666666666666668</ele><time>2026-05-02T07:51:15Z</time></trkpt><trkpt lat="42.28464213087024" lon="14.483162631382672"><ele>26.333333333333336</ele><time>2026-05-02T07:51:16Z</time></trkpt><trkpt lat="42.28452999038821" lon="14.483337971876201"><ele>28.0</ele><time>2026-05-02T07:51:17Z</time></trkpt><trkpt lat="42.28441607884734" lon="14.483520737706485"><ele>28.0</ele><time>2026-05-02T07:51:18Z</time></trkpt><trkpt lat="42.28430338676928" lon="14.483707605178802"><ele>28.0</ele><time>2026-05-02T07:51:19Z</time></trkpt><trkpt lat="42.28417343730572" lon="14.483881542028168"><ele>28.0</ele><time>2026-05-02T07:51:20Z</time></trkpt><trkpt lat="42.28402994638824" lon="14.484034652446315"><ele>29.0</ele><time>2026-05-02T07:51:21Z</time></trkpt><trkpt lat="42.2838780665169" lon="14.484177332043105"><ele>30.0</ele><time>2026-05-02T07:51:22Z</time></trkpt><trkpt lat="42.283724919457555" lon="14.484317992543826"><ele>31.0</ele><time>2026-05-02T07:51:23Z</time></trkpt><trkpt lat="42.28356611183267" lon="14.4844627303757"><ele>27.0</ele><time>2026-05-02T07:51:24Z</time></trkpt><trkpt lat="42.28341081681455" lon="14.484615778702455"><ele>23.0</ele><time>2026-05-02T07:51:25Z</time></trkpt><trkpt lat="42.28326131519496" lon="14.484780402800064"><ele>19.0</ele><time>2026-05-02T07:51:26Z</time></trkpt><trkpt lat="42.28312153468363" lon="14.484955207874247"><ele>20.333333333333332</ele><time>2026-05-02T07:51:27Z</time></trkpt><trkpt lat="42.28299077566411" lon="14.485149711712149"><ele>21.666666666666668</ele><time>2026-05-02T07:51:28Z</time></trkpt><trkpt lat="42.28287126232426" lon="14.485354763569699"><ele>23.0</ele><time>2026-05-02T07:51:29Z</time></trkpt><trkpt lat="42.282753700940674" lon="14.485565446054137"><ele>23.0</ele><time>2026-05-02T07:51:30Z</time></trkpt><trkpt lat="42.28264016654254" lon="14.485778438832929"><ele>23.0</ele><time>2026-05-02T07:51:31Z</time></trkpt><trkpt lat="42.28252184599434" lon="14.485988832534646"><ele>23.0</ele><time>2026-05-02T07:51:32Z</time></trkpt><trkpt lat="42.28240194173456" lon="14.486198909120574"><ele>24.0</ele><time>2026-05-02T07:51:33Z</time></trkpt><trkpt lat="42.28227666330859" lon="14.48640859874396"><ele>25.0</ele><time>2026-05-02T07:51:34Z</time></trkpt><trkpt lat="42.28215311267957" lon="14.486618710674382"><ele>26.0</ele><time>2026-05-02T07:51:35Z</time></trkpt><trkpt lat="42.28202886909775" lon="14.486827438971439"><ele>26.0</ele><time>2026-05-02T07:51:36Z</time></trkpt><trkpt lat="42.281903647660165" lon="14.487038835047178"><ele>26.0</ele><time>2026-05-02T07:51:37Z</time></trkpt><trkpt lat="42.281790274536306" lon="14.487254867841811"><ele>26.0</ele><time>2026-05-02T07:51:38Z</time></trkpt><trkpt lat="42.28167636079798" lon="14.487467109292378"><ele>25.333333333333332</ele><time>2026-05-02T07:51:39Z</time></trkpt><trkpt lat="42.281554144575544" lon="14.487676548316879"><ele>24.666666666666664</ele><time>2026-05-02T07:51:40Z</time></trkpt><trkpt lat="42.28143617838331" lon="14.487884245357279"><ele>24.0</ele><time>2026-05-02T07:51:41Z</time></trkpt><trkpt lat="42.281319378986204" lon="14.488091057111873"><ele>24.0</ele><time>2026-05-02T07:51:42Z</time></trkpt><trkpt lat="42.28121037747072" lon="14.48829598641664"><ele>24.0</ele><time>2026-05-02T07:51:43Z</time></trkpt><trkpt lat="42.281096750393836" lon="14.48849812697906"><ele>24.0</ele><time>2026-05-02T07:51:44Z</time></trkpt><trkpt lat="42.28098763775078" lon="14.488693365919696"><ele>26.333333333333336</ele><time>2026-05-02T07:51:45Z</time></trkpt><trkpt lat="42.2808668288599" lon="14.488883619309656"><ele>28.666666666666668</ele><time>2026-05-02T07:51:46Z</time></trkpt><trkpt lat="42.28073870785842" lon="14.489059525223924"><ele>31.0</ele><time>2026-05-02T07:51:47Z</time></trkpt><trkpt lat="42.280589679395135" lon="14.489202694028519"><ele>31.0</ele><time>2026-05-02T07:51:48Z</time></trkpt><trkpt lat="42.280437490413235" lon="14.489353444029943"><ele>31.0</ele><time>2026-05-02T07:51:49Z</time></trkpt><trkpt lat="42.28028836634076" lon="14.489504257556266"><ele>31.0</ele><time>2026-05-02T07:51:50Z</time></trkpt><trkpt lat="42.28014162782447" lon="14.489653423399522"><ele>30.333333333333336</ele><time>2026-05-02T07:51:51Z</time></trkpt><trkpt lat="42.27999251587579" lon="14.489805087662083"><ele>29.666666666666664</ele><time>2026-05-02T07:51:52Z</time></trkpt><trkpt lat="42.27984448986394" lon="14.489956157893968"><ele>29.0</ele><time>2026-05-02T07:51:53Z</time></trkpt><trkpt lat="42.27969787526342" lon="14.490106747608449"><ele>29.0</ele><time>2026-05-02T07:51:54Z</time></trkpt><trkpt lat="42.27954713342475" lon="14.490261781011766"><ele>29.0</ele><time>2026-05-02T07:51:55Z</time></trkpt><trkpt lat="42.27939141013749" lon="14.490421937708552"><ele>29.0</ele><time>2026-05-02T07:51:56Z</time></trkpt><trkpt lat="42.27923981235899" lon="14.490577851429014"><ele>28.333333333333332</ele><time>2026-05-02T07:51:57Z</time></trkpt><trkpt lat="42.27909322749124" lon="14.490731124996547"><ele>27.666666666666664</ele><time>2026-05-02T07:51:58Z</time></trkpt><trkpt lat="42.278942742317795" lon="14.49088772105526"><ele>27.0</ele><time>2026-05-02T07:51:59Z</time></trkpt><trkpt lat="42.278796029914275" lon="14.491036889037884"><ele>27.0</ele><time>2026-05-02T07:52:00Z</time></trkpt><trkpt lat="42.27863946671064" lon="14.491195888009129"><ele>27.0</ele><time>2026-05-02T07:52:01Z</time></trkpt><trkpt lat="42.27848519098121" lon="14.491352113782419"><ele>27.0</ele><time>2026-05-02T07:52:02Z</time></trkpt><trkpt lat="42.2783235528498" lon="14.491513439489822"><ele>21.333333333333332</ele><time>2026-05-02T07:52:03Z</time></trkpt><trkpt lat="42.27816654006665" lon="14.49166799662919"><ele>15.666666666666668</ele><time>2026-05-02T07:52:04Z</time></trkpt><trkpt lat="42.27800712201657" lon="14.491822457474504"><ele>10.0</ele><time>2026-05-02T07:52:05Z</time></trkpt><trkpt lat="42.27784827053552" lon="14.491974734583616"><ele>8.0</ele><time>2026-05-02T07:52:06Z</time></trkpt><trkpt lat="42.27769275215115" lon="14.492124230456426"><ele>6.0</ele><time>2026-05-02T07:52:07Z</time></trkpt><trkpt lat="42.27753725171562" lon="14.492276813495206"><ele>4.0</ele><time>2026-05-02T07:52:08Z</time></trkpt><trkpt lat="42.27740039123108" lon="14.492451257857978"><ele>4.0</ele><time>2026-05-02T07:52:09Z</time></trkpt><trkpt lat="42.277242407416395" lon="14.49261171522196"><ele>4.0</ele><time>2026-05-02T07:52:10Z</time></trkpt><trkpt lat="42.277114887403854" lon="14.49278507052485"><ele>4.0</ele><time>2026-05-02T07:52:11Z</time></trkpt><trkpt lat="42.27700193729189" lon="14.49297758630363"><ele>4.0</ele><time>2026-05-02T07:52:12Z</time></trkpt><trkpt lat="42.27685248956094" lon="14.493154708173675"><ele>4.0</ele><time>2026-05-02T07:52:13Z</time></trkpt><trkpt lat="42.2767344288518" lon="14.493333176839553"><ele>4.0</ele><time>2026-05-02T07:52:14Z</time></trkpt><trkpt lat="42.27662011815102" lon="14.493512186522302"><ele>4.0</ele><time>2026-05-02T07:52:15Z</time></trkpt><trkpt lat="42.276488531832214" lon="14.493690367753722"><ele>4.0</ele><time>2026-05-02T07:52:16Z</time></trkpt><trkpt lat="42.27636565654914" lon="14.493872308137096"><ele>4.0</ele><time>2026-05-02T07:52:17Z</time></trkpt><trkpt lat="42.2762306183888" lon="14.49405458373183"><ele>8.333333333333334</ele><time>2026-05-02T07:52:18Z</time></trkpt><trkpt lat="42.2760944091462" lon="14.49423289805516"><ele>12.666666666666668</ele><time>2026-05-02T07:52:19Z</time></trkpt><trkpt lat="42.27595045392102" lon="14.494409484533406"><ele>17.0</ele><time>2026-05-02T07:52:20Z</time></trkpt><trkpt lat="42.27582522766407" lon="14.494584144435379"><ele>14.333333333333334</ele><time>2026-05-02T07:52:21Z</time></trkpt><trkpt lat="42.275692646707796" lon="14.494754373943046"><ele>11.666666666666668</ele><time>2026-05-02T07:52:22Z</time></trkpt><trkpt lat="42.27555431161095" lon="14.494921820176911"><ele>9.0</ele><time>2026-05-02T07:52:23Z</time></trkpt><trkpt lat="42.27542026924661" lon="14.495082965399769"><ele>11.0</ele><time>2026-05-02T07:52:24Z</time></trkpt><trkpt lat="42.275275201969265" lon="14.495258456455614"><ele>13.0</ele><time>2026-05-02T07:52:25Z</time></trkpt><trkpt lat="42.27516170493558" lon="14.49542908917861"><ele>15.0</ele><time>2026-05-02T07:52:26Z</time></trkpt><trkpt lat="42.27502376279927" lon="14.495600078402294"><ele>15.0</ele><time>2026-05-02T07:52:27Z</time></trkpt><trkpt lat="42.27489119152415" lon="14.495770441596544"><ele>15.0</ele><time>2026-05-02T07:52:28Z</time></trkpt><trkpt lat="42.274757137303006" lon="14.495942555456327"><ele>15.0</ele><time>2026-05-02T07:52:29Z</time></trkpt><trkpt lat="42.27461587978661" lon="14.496116526634074"><ele>16.333333333333332</ele><time>2026-05-02T07:52:30Z</time></trkpt><trkpt lat="42.27447909987965" lon="14.496289498948268"><ele>17.666666666666664</ele><time>2026-05-02T07:52:31Z</time></trkpt><trkpt lat="42.2743369444288" lon="14.49646728072376"><ele>19.0</ele><time>2026-05-02T07:52:32Z</time></trkpt><trkpt lat="42.274193140114406" lon="14.49664218548106"><ele>19.0</ele><time>2026-05-02T07:52:33Z</time></trkpt><trkpt lat="42.27405111627556" lon="14.496822041811411"><ele>19.0</ele><time>2026-05-02T07:52:34Z</time></trkpt><trkpt lat="42.27390328511205" lon="14.496999464401531"><ele>19.0</ele><time>2026-05-02T07:52:35Z</time></trkpt><trkpt lat="42.273775895910376" lon="14.497199496669468"><ele>19.666666666666664</ele><time>2026-05-02T07:52:36Z</time></trkpt><trkpt lat="42.2736893123846" lon="14.497417142352818"><ele>20.333333333333332</ele><time>2026-05-02T07:52:37Z</time></trkpt><trkpt lat="42.2735987031127" lon="14.497655578319149"><ele>21.0</ele><time>2026-05-02T07:52:38Z</time></trkpt><trkpt lat="42.27352012840041" lon="14.497894384955162"><ele>19.0</ele><time>2026-05-02T07:52:39Z</time></trkpt><trkpt lat="42.273428759521785" lon="14.498134952896983"><ele>17.0</ele><time>2026-05-02T07:52:40Z</time></trkpt><trkpt lat="42.27334483350431" lon="14.498378401559945"><ele>15.0</ele><time>2026-05-02T07:52:41Z</time></trkpt><trkpt lat="42.273256794536216" lon="14.498614990205338"><ele>12.666666666666666</ele><time>2026-05-02T07:52:42Z</time></trkpt><trkpt lat="42.27316698472005" lon="14.498850922686097"><ele>10.333333333333332</ele><time>2026-05-02T07:52:43Z</time></trkpt><trkpt lat="42.27306634506524" lon="14.499082038227005"><ele>8.0</ele><time>2026-05-02T07:52:44Z</time></trkpt><trkpt lat="42.27297995091512" lon="14.499311146878085"><ele>13.0</ele><time>2026-05-02T07:52:45Z</time></trkpt><trkpt lat="42.27290167218858" lon="14.499535691198236"><ele>18.0</ele><time>2026-05-02T07:52:46Z</time></trkpt><trkpt lat="42.27280621248178" lon="14.49975506666204"><ele>23.0</ele><time>2026-05-02T07:52:47Z</time></trkpt><trkpt lat="42.27270690021181" lon="14.499962962303709"><ele>23.0</ele><time>2026-05-02T07:52:48Z</time></trkpt><trkpt lat="42.272582966572806" lon="14.500140335158429"><ele>23.0</ele><time>2026-05-02T07:52:49Z</time></trkpt><trkpt lat="42.2724488604187" lon="14.50030452511212"><ele>23.0</ele><time>2026-05-02T07:52:50Z</time></trkpt><trkpt lat="42.27230693974726" lon="14.500456683237209"><ele>24.0</ele><time>2026-05-02T07:52:51Z</time></trkpt><trkpt lat="42.27216112700657" lon="14.500614339814087"><ele>25.0</ele><time>2026-05-02T07:52:52Z</time></trkpt><trkpt lat="42.272017067226194" lon="14.500773193944962"><ele>26.0</ele><time>2026-05-02T07:52:53Z</time></trkpt><trkpt lat="42.27187952970712" lon="14.500928219089303"><ele>26.0</ele><time>2026-05-02T07:52:54Z</time></trkpt><trkpt lat="42.27174683597908" lon="14.501080854086636"><ele>26.0</ele><time>2026-05-02T07:52:55Z</time></trkpt><trkpt lat="42.271612919500065" lon="14.50122920479721"><ele>26.0</ele><time>2026-05-02T07:52:56Z</time></trkpt><trkpt lat="42.271483715781244" lon="14.501376619412257"><ele>24.666666666666664</ele><time>2026-05-02T07:52:57Z</time></trkpt><trkpt lat="42.27134495116236" lon="14.501515650567228"><ele>23.333333333333332</ele><time>2026-05-02T07:52:58Z</time></trkpt><trkpt lat="42.27120024606689" lon="14.50162369697877"><ele>22.0</ele><time>2026-05-02T07:52:59Z</time></trkpt><trkpt lat="42.27103479324917" lon="14.50171597796689"><ele>22.0</ele><time>2026-05-02T07:53:00Z</time></trkpt><trkpt lat="42.270860209354176" lon="14.501771402147483"><ele>22.0</ele><time>2026-05-02T07:53:01Z</time></trkpt><trkpt lat="42.270686722467964" lon="14.50182340745481"><ele>22.0</ele><time>2026-05-02T07:53:02Z</time></trkpt><trkpt lat="42.27051408565056" lon="14.501870314454356"><ele>23.666666666666664</ele><time>2026-05-02T07:53:03Z</time></trkpt><trkpt lat="42.2703409310249" lon="14.50191904479252"><ele>25.333333333333332</ele><time>2026-05-02T07:53:04Z</time></trkpt><trkpt lat="42.270182433893964" lon="14.501970522298796"><ele>27.0</ele><time>2026-05-02T07:53:05Z</time></trkpt><trkpt lat="42.270024934704246" lon="14.502019172244273"><ele>27.0</ele><time>2026-05-02T07:53:06Z</time></trkpt><trkpt lat="42.26987415584973" lon="14.502041544750055"><ele>27.0</ele><time>2026-05-02T07:53:07Z</time></trkpt><trkpt lat="42.26972894285373" lon="14.50209620045082"><ele>27.0</ele><time>2026-05-02T07:53:08Z</time></trkpt><trkpt lat="42.26958337139467" lon="14.50212503065919"><ele>21.0</ele><time>2026-05-02T07:53:09Z</time></trkpt><trkpt lat="42.2694273768297" lon="14.502151554662415"><ele>15.0</ele><time>2026-05-02T07:53:10Z</time></trkpt><trkpt lat="42.269275270045846" lon="14.502156178048825"><ele>9.0</ele><time>2026-05-02T07:53:11Z</time></trkpt><trkpt lat="42.269103189771094" lon="14.502125847483022"><ele>11.666666666666668</ele><time>2026-05-02T07:53:12Z</time></trkpt><trkpt lat="42.268950968286156" lon="14.502058766677054"><ele>14.333333333333334</ele><time>2026-05-02T07:53:13Z</time></trkpt><trkpt lat="42.26880832428199" lon="14.501991722495948"><ele>17.0</ele><time>2026-05-02T07:53:14Z</time></trkpt><trkpt lat="42.26867385578567" lon="14.501933544714394"><ele>17.0</ele><time>2026-05-02T07:53:15Z</time></trkpt><trkpt lat="42.26854044907325" lon="14.501878282788667"><ele>17.0</ele><time>2026-05-02T07:53:16Z</time></trkpt><trkpt lat="42.268409575383174" lon="14.501825002333103"><ele>17.0</ele><time>2026-05-02T07:53:17Z</time></trkpt><trkpt lat="42.26828236609102" lon="14.50176824870379"><ele>17.0</ele><time>2026-05-02T07:53:18Z</time></trkpt><trkpt lat="42.26816530067695" lon="14.501719242572838"><ele>15.6</ele><time>2026-05-02T07:53:19Z</time></trkpt><trkpt lat="42.26806392403812" lon="14.501674269051586"><ele>14.2</ele><time>2026-05-02T07:53:20Z</time></trkpt><trkpt lat="42.26798083063775" lon="14.501635018268075"><ele>12.8</ele><time>2026-05-02T07:53:21Z</time></trkpt><trkpt lat="42.267900677134435" lon="14.501602561595423"><ele>11.4</ele><time>2026-05-02T07:53:22Z</time></trkpt><trkpt lat="42.267821166544785" lon="14.501562989179096"><ele>10.0</ele><time>2026-05-02T07:53:23Z</time></trkpt><trkpt lat="42.26773775401433" lon="14.501513384442363"><ele>10.0</ele><time>2026-05-02T07:53:24Z</time></trkpt><trkpt lat="42.26765283233573" lon="14.501452193105168"><ele>10.0</ele><time>2026-05-02T07:53:25Z</time></trkpt><trkpt lat="42.26756641242221" lon="14.501375683215478"><ele>10.0</ele><time>2026-05-02T07:53:26Z</time></trkpt><trkpt lat="42.26748345419076" lon="14.501291443682787"><ele>10.0</ele><time>2026-05-02T07:53:27Z</time></trkpt><trkpt lat="42.26739898449384" lon="14.501197688504861"><ele>10.0</ele><time>2026-05-02T07:53:28Z</time></trkpt><trkpt lat="42.26731405931332" lon="14.501099293057749"><ele>11.5</ele><time>2026-05-02T07:53:29Z</time></trkpt><trkpt lat="42.26721864326675" lon="14.501017906386915"><ele>13.0</ele><time>2026-05-02T07:53:30Z</time></trkpt><trkpt lat="42.26712201362759" lon="14.500927541200944"><ele>14.5</ele><time>2026-05-02T07:53:31Z</time></trkpt><trkpt lat="42.267010438641464" lon="14.500862791096106"><ele>16.0</ele><time>2026-05-02T07:53:32Z</time></trkpt><trkpt lat="42.26689532905591" lon="14.500838141673182"><ele>15.999999999999998</ele><time>2026-05-02T07:53:33Z</time></trkpt><trkpt lat="42.26680704818997" lon="14.50080441436484"><ele>16.0</ele><time>2026-05-02T07:53:34Z</time></trkpt><trkpt lat="42.26672838896941" lon="14.50078400830495"><ele>16.0</ele><time>2026-05-02T07:53:35Z</time></trkpt><trkpt lat="42.26666312419313" lon="14.500767164977058"><ele>16.0</ele><time>2026-05-02T07:53:36Z</time></trkpt><trkpt lat="42.266543846225304" lon="14.500727581199756"><ele>15.999999999999998</ele><time>2026-05-02T07:53:38Z</time></trkpt><trkpt lat="42.26647471832275" lon="14.50072098262743"><ele>16.0</ele><time>2026-05-02T07:53:39Z</time></trkpt><trkpt lat="42.266401690410696" lon="14.500718176948146"><ele>15.833333333333332</ele><time>2026-05-02T07:53:40Z</time></trkpt><trkpt lat="42.26632517129722" lon="14.500721161590898"><ele>15.666666666666666</ele><time>2026-05-02T07:53:41Z</time></trkpt><trkpt lat="42.26623485179656" lon="14.500726557402993"><ele>15.5</ele><time>2026-05-02T07:53:43Z</time></trkpt><trkpt lat="42.2661733217807" lon="14.50077570335649"><ele>15.333333333333332</ele><time>2026-05-02T07:54:01Z</time></trkpt><trkpt lat="42.26611003510693" lon="14.500788441298464"><ele>15.166666666666666</ele><time>2026-05-02T07:54:02Z</time></trkpt><trkpt lat="42.26601629108572" lon="14.500787713606906"><ele>15.0</ele><time>2026-05-02T07:54:04Z</time></trkpt><trkpt lat="42.26594859739957" lon="14.500774776771268"><ele>15.0</ele><time>2026-05-02T07:54:05Z</time></trkpt><trkpt lat="42.26586336005634" lon="14.500777056407113"><ele>15.0</ele><time>2026-05-02T07:54:08Z</time></trkpt><trkpt lat="42.26575438549933" lon="14.500708636913169"><ele>15.0</ele><time>2026-05-02T07:54:27Z</time></trkpt><trkpt lat="42.26565264123568" lon="14.5007047536082"><ele>15.0</ele><time>2026-05-02T07:54:28Z</time></trkpt><trkpt lat="42.265571117758334" lon="14.500697429821145"><ele>15.0</ele><time>2026-05-02T07:54:29Z</time></trkpt><trkpt lat="42.2654693710496" lon="14.50066166353109"><ele>13.5</ele><time>2026-05-02T07:54:30Z</time></trkpt><trkpt lat="42.26532139334486" lon="14.500656844973468"><ele>12.0</ele><time>2026-05-02T07:54:31Z</time></trkpt><trkpt lat="42.26519003497034" lon="14.500594864215321"><ele>10.5</ele><time>2026-05-02T07:54:32Z</time></trkpt><trkpt lat="42.26506268282348" lon="14.500543635775587"><ele>9.0</ele><time>2026-05-02T07:54:33Z</time></trkpt><trkpt lat="42.26493239592566" lon="14.500547070308729"><ele>9.0</ele><time>2026-05-02T07:54:34Z</time></trkpt><trkpt lat="42.26479135696644" lon="14.500534573267945"><ele>9.0</ele><time>2026-05-02T07:54:35Z</time></trkpt><trkpt lat="42.264653980878286" lon="14.500500105566445"><ele>9.0</ele><time>2026-05-02T07:54:36Z</time></trkpt><trkpt lat="42.2645203190833" lon="14.500493786882119"><ele>9.0</ele><time>2026-05-02T07:54:37Z</time></trkpt><trkpt lat="42.264369618952834" lon="14.50046700896623"><ele>8.0</ele><time>2026-05-02T07:54:38Z</time></trkpt><trkpt lat="42.264220006758684" lon="14.500436398533397"><ele>7.0</ele><time>2026-05-02T07:54:39Z</time></trkpt><trkpt lat="42.264064823611434" lon="14.500411647315431"><ele>6.0</ele><time>2026-05-02T07:54:40Z</time></trkpt><trkpt lat="42.2639104356589" lon="14.500388755822936"><ele>10.333333333333332</ele><time>2026-05-02T07:54:41Z</time></trkpt><trkpt lat="42.263750574879275" lon="14.500368371808985"><ele>14.666666666666666</ele><time>2026-05-02T07:54:42Z</time></trkpt><trkpt lat="42.26360498444997" lon="14.500324286329668"><ele>19.0</ele><time>2026-05-02T07:54:43Z</time></trkpt><trkpt lat="42.26343916088873" lon="14.500301451296911"><ele>19.0</ele><time>2026-05-02T07:54:44Z</time></trkpt><trkpt lat="42.26328149668834" lon="14.50029474774258"><ele>19.0</ele><time>2026-05-02T07:54:45Z</time></trkpt><trkpt lat="42.26311330582281" lon="14.500251606911515"><ele>19.0</ele><time>2026-05-02T07:54:46Z</time></trkpt><trkpt lat="42.262981567300045" lon="14.500246904560827"><ele>18.333333333333332</ele><time>2026-05-02T07:54:47Z</time></trkpt><trkpt lat="42.26282761926573" lon="14.500221869939722"><ele>17.666666666666668</ele><time>2026-05-02T07:54:48Z</time></trkpt><trkpt lat="42.26267617540742" lon="14.500200754651724"><ele>17.0</ele><time>2026-05-02T07:54:49Z</time></trkpt><trkpt lat="42.262517974249576" lon="14.500170523233473"><ele>17.0</ele><time>2026-05-02T07:54:50Z</time></trkpt><trkpt lat="42.262356084486484" lon="14.50016949204717"><ele>17.0</ele><time>2026-05-02T07:54:51Z</time></trkpt><trkpt lat="42.26219230584757" lon="14.5001863729546"><ele>17.0</ele><time>2026-05-02T07:54:52Z</time></trkpt><trkpt lat="42.262031406413165" lon="14.500229358342976"><ele>17.0</ele><time>2026-05-02T07:54:53Z</time></trkpt><trkpt lat="42.2618621908698" lon="14.500257155156438"><ele>17.0</ele><time>2026-05-02T07:54:54Z</time></trkpt><trkpt lat="42.261691572235456" lon="14.500281974929633"><ele>17.0</ele><time>2026-05-02T07:54:55Z</time></trkpt><trkpt lat="42.2615143440374" lon="14.500325174790756"><ele>17.0</ele><time>2026-05-02T07:54:56Z</time></trkpt><trkpt lat="42.2613433989123" lon="14.500354619141515"><ele>17.0</ele><time>2026-05-02T07:54:57Z</time></trkpt><trkpt lat="42.26116817800735" lon="14.500367370805044"><ele>17.0</ele><time>2026-05-02T07:54:58Z</time></trkpt><trkpt lat="42.26099126216269" lon="14.50040072185003"><ele>17.0</ele><time>2026-05-02T07:54:59Z</time></trkpt><trkpt lat="42.260884681698016" lon="14.500385519132209"><ele>17.0</ele><time>2026-05-02T07:55:00Z</time></trkpt><trkpt lat="42.26072052546936" lon="14.500430706885183"><ele>17.0</ele><time>2026-05-02T07:55:01Z</time></trkpt><trkpt lat="42.260524129212406" lon="14.500512832826391"><ele>15.666666666666668</ele><time>2026-05-02T07:55:02Z</time></trkpt><trkpt lat="42.26033694826717" lon="14.50062225909999"><ele>14.333333333333332</ele><time>2026-05-02T07:55:03Z</time></trkpt><trkpt lat="42.26017730661657" lon="14.500743003471802"><ele>13.0</ele><time>2026-05-02T07:55:04Z</time></trkpt><trkpt lat="42.260007030978635" lon="14.500864919420176"><ele>13.0</ele><time>2026-05-02T07:55:05Z</time></trkpt><trkpt lat="42.25986260348279" lon="14.50099302550314"><ele>13.0</ele><time>2026-05-02T07:55:06Z</time></trkpt><trkpt lat="42.259714591253726" lon="14.50113459862955"><ele>13.0</ele><time>2026-05-02T07:55:07Z</time></trkpt><trkpt lat="42.25955280120361" lon="14.501245857610273"><ele>10.666666666666666</ele><time>2026-05-02T07:55:08Z</time></trkpt><trkpt lat="42.25938570062949" lon="14.501385188033133"><ele>8.333333333333332</ele><time>2026-05-02T07:55:09Z</time></trkpt><trkpt lat="42.25922617177735" lon="14.501540947132073"><ele>6.0</ele><time>2026-05-02T07:55:10Z</time></trkpt><trkpt lat="42.259056181613076" lon="14.501666456950318"><ele>6.333333333333334</ele><time>2026-05-02T07:55:11Z</time></trkpt><trkpt lat="42.25889442467994" lon="14.501805250124763"><ele>6.666666666666667</ele><time>2026-05-02T07:55:12Z</time></trkpt><trkpt lat="42.25873162870599" lon="14.501944847042955"><ele>7.0</ele><time>2026-05-02T07:55:13Z</time></trkpt><trkpt lat="42.25856855803812" lon="14.502084938769627"><ele>7.0</ele><time>2026-05-02T07:55:14Z</time></trkpt><trkpt lat="42.25841051780932" lon="14.502222826127658"><ele>7.0</ele><time>2026-05-02T07:55:15Z</time></trkpt><trkpt lat="42.258252349397125" lon="14.502361207144357"><ele>7.0</ele><time>2026-05-02T07:55:16Z</time></trkpt><trkpt lat="42.25808694039111" lon="14.502502390004224"><ele>11.666666666666668</ele><time>2026-05-02T07:55:17Z</time></trkpt><trkpt lat="42.257912187463226" lon="14.502634332979394"><ele>16.333333333333332</ele><time>2026-05-02T07:55:18Z</time></trkpt><trkpt lat="42.25773822627122" lon="14.502758609843777"><ele>21.0</ele><time>2026-05-02T07:55:19Z</time></trkpt><trkpt lat="42.25755985541091" lon="14.50288335818057"><ele>19.666666666666668</ele><time>2026-05-02T07:55:20Z</time></trkpt><trkpt lat="42.25737755257363" lon="14.503009936026784"><ele>18.333333333333336</ele><time>2026-05-02T07:55:21Z</time></trkpt><trkpt lat="42.2571993834745" lon="14.503133083150331"><ele>17.0</ele><time>2026-05-02T07:55:22Z</time></trkpt><trkpt lat="42.25702080066294" lon="14.503257243421876"><ele>17.0</ele><time>2026-05-02T07:55:23Z</time></trkpt><trkpt lat="42.25683719457183" lon="14.503385957930796"><ele>17.0</ele><time>2026-05-02T07:55:24Z</time></trkpt><trkpt lat="42.256660295546205" lon="14.503510127774078"><ele>17.0</ele><time>2026-05-02T07:55:25Z</time></trkpt><trkpt lat="42.25649425883947" lon="14.503626673037141"><ele>17.0</ele><time>2026-05-02T07:55:26Z</time></trkpt><trkpt lat="42.25633348156562" lon="14.50373994305856"><ele>17.0</ele><time>2026-05-02T07:55:27Z</time></trkpt><trkpt lat="42.25619433860495" lon="14.503838949957954"><ele>17.0</ele><time>2026-05-02T07:55:28Z</time></trkpt><trkpt lat="42.25605569244387" lon="14.503947460412475"><ele>17.0</ele><time>2026-05-02T07:55:29Z</time></trkpt><trkpt lat="42.25594779806714" lon="14.504067168150133"><ele>17.0</ele><time>2026-05-02T07:55:30Z</time></trkpt><trkpt lat="42.25584305303709" lon="14.504143216200863"><ele>17.0</ele><time>2026-05-02T07:55:31Z</time></trkpt><trkpt lat="42.25578072966523" lon="14.504234801264047"><ele>17.0</ele><time>2026-05-02T07:55:32Z</time></trkpt><trkpt lat="42.25569780509665" lon="14.50428793444246"><ele>17.0</ele><time>2026-05-02T07:55:33Z</time></trkpt><trkpt lat="42.25561695684922" lon="14.50430589673201"><ele>16.333333333333336</ele><time>2026-05-02T07:55:34Z</time></trkpt><trkpt lat="42.25554076287332" lon="14.504300581388504"><ele>15.666666666666668</ele><time>2026-05-02T07:55:35Z</time></trkpt><trkpt lat="42.255471648804374" lon="14.504293842243195"><ele>15.0</ele><time>2026-05-02T07:55:36Z</time></trkpt><trkpt lat="42.255417940623666" lon="14.504345756460252"><ele>14.333333333333332</ele><time>2026-05-02T07:55:38Z</time></trkpt><trkpt lat="42.25541485699401" lon="14.504480194625557"><ele>13.666666666666666</ele><time>2026-05-02T07:55:39Z</time></trkpt><trkpt lat="42.25543386892159" lon="14.504597486030043"><ele>13.0</ele><time>2026-05-02T07:55:40Z</time></trkpt><trkpt lat="42.255417656378754" lon="14.504703214638454"><ele>12.999999999999998</ele><time>2026-05-02T07:55:41Z</time></trkpt><trkpt lat="42.255347870467766" lon="14.504785627558691"><ele>13.0</ele><time>2026-05-02T07:55:42Z</time></trkpt><trkpt lat="42.25525612880663" lon="14.504787483065583"><ele>13.0</ele><time>2026-05-02T07:55:43Z</time></trkpt><trkpt lat="42.25520154449527" lon="14.504855143753826"><ele>13.0</ele><time>2026-05-02T07:55:44Z</time></trkpt><trkpt lat="42.25514912486014" lon="14.504915024595833"><ele>12.999999999999998</ele><time>2026-05-02T07:55:45Z</time></trkpt><trkpt lat="42.25509195783852" lon="14.504974166871456"><ele>13.0</ele><time>2026-05-02T07:55:46Z</time></trkpt><trkpt lat="42.25502781576179" lon="14.505035370620744"><ele>13.0</ele><time>2026-05-02T07:55:47Z</time></trkpt><trkpt lat="42.25496061863701" lon="14.505095340345067"><ele>13.0</ele><time>2026-05-02T07:55:48Z</time></trkpt><trkpt lat="42.2548872482039" lon="14.505156239348869"><ele>13.0</ele><time>2026-05-02T07:55:49Z</time></trkpt><trkpt lat="42.25481105764511" lon="14.505217801601836"><ele>13.0</ele><time>2026-05-02T07:55:50Z</time></trkpt><trkpt lat="42.25473950850129" lon="14.505300475256725"><ele>13.0</ele><time>2026-05-02T07:55:51Z</time></trkpt><trkpt lat="42.25465295653441" lon="14.505369638221355"><ele>12.200000000000001</ele><time>2026-05-02T07:55:52Z</time></trkpt><trkpt lat="42.2545560797892" lon="14.505419592916972"><ele>11.4</ele><time>2026-05-02T07:55:53Z</time></trkpt><trkpt lat="42.2544622442853" lon="14.505492305632274"><ele>10.600000000000001</ele><time>2026-05-02T07:55:54Z</time></trkpt><trkpt lat="42.25436630131615" lon="14.505566136135382"><ele>9.8</ele><time>2026-05-02T07:55:55Z</time></trkpt><trkpt lat="42.25426929185968" lon="14.505640787345975"><ele>9.0</ele><time>2026-05-02T07:55:56Z</time></trkpt><trkpt lat="42.254173123476846" lon="14.505714791015896"><ele>9.0</ele><time>2026-05-02T07:55:57Z</time></trkpt><trkpt lat="42.25407543377666" lon="14.50581318608576"><ele>9.0</ele><time>2026-05-02T07:55:58Z</time></trkpt><trkpt lat="42.253974826328225" lon="14.505861930853301"><ele>9.0</ele><time>2026-05-02T07:55:59Z</time></trkpt><trkpt lat="42.25387972718935" lon="14.505949335342136"><ele>9.0</ele><time>2026-05-02T07:56:00Z</time></trkpt><trkpt lat="42.253774905952085" lon="14.50599602404722"><ele>10.75</ele><time>2026-05-02T07:56:01Z</time></trkpt><trkpt lat="42.253674708192854" lon="14.506046556024307"><ele>12.5</ele><time>2026-05-02T07:56:02Z</time></trkpt><trkpt lat="42.25357196631889" lon="14.50608548023351"><ele>14.25</ele><time>2026-05-02T07:56:03Z</time></trkpt><trkpt lat="42.25345983994194" lon="14.506132232912082"><ele>16.0</ele><time>2026-05-02T07:56:04Z</time></trkpt><trkpt lat="42.253343462540016" lon="14.506201022035476"><ele>15.600000000000001</ele><time>2026-05-02T07:56:05Z</time></trkpt><trkpt lat="42.253219512637386" lon="14.50626256593106"><ele>15.200000000000001</ele><time>2026-05-02T07:56:06Z</time></trkpt><trkpt lat="42.25313053861748" lon="14.506299398171208"><ele>14.799999999999999</ele><time>2026-05-02T07:56:07Z</time></trkpt><trkpt lat="42.25302848461261" lon="14.506323383164831"><ele>14.399999999999999</ele><time>2026-05-02T07:56:08Z</time></trkpt><trkpt lat="42.25293771535575" lon="14.506382116997774"><ele>14.0</ele><time>2026-05-02T07:56:09Z</time></trkpt><trkpt lat="42.25286374005138" lon="14.506449661885295"><ele>14.000000000000002</ele><time>2026-05-02T07:56:10Z</time></trkpt><trkpt lat="42.252791633854336" lon="14.506484048423085"><ele>14.0</ele><time>2026-05-02T07:56:11Z</time></trkpt><trkpt lat="42.252726985217464" lon="14.506517140352681"><ele>14.0</ele><time>2026-05-02T07:56:12Z</time></trkpt><trkpt lat="42.25266890750139" lon="14.506551411918638"><ele>14.0</ele><time>2026-05-02T07:56:13Z</time></trkpt><trkpt lat="42.25259897238698" lon="14.50660115252402"><ele>14.000000000000002</ele><time>2026-05-02T07:56:15Z</time></trkpt><trkpt lat="42.25253062622683" lon="14.506633107245976"><ele>14.0</ele><time>2026-05-02T07:56:18Z</time></trkpt><trkpt lat="42.25240252521053" lon="14.506709469160768"><ele>14.0</ele><time>2026-05-02T07:56:20Z</time></trkpt><trkpt lat="42.25234354370484" lon="14.506748068563295"><ele>14.0</ele><time>2026-05-02T07:56:21Z</time></trkpt><trkpt lat="42.25223812685979" lon="14.506844173963476"><ele>14.0</ele><time>2026-05-02T07:56:22Z</time></trkpt><trkpt lat="42.25211252104543" lon="14.506919138655219"><ele>14.0</ele><time>2026-05-02T07:56:23Z</time></trkpt><trkpt lat="42.25199039826104" lon="14.507020003494954"><ele>12.666666666666668</ele><time>2026-05-02T07:56:24Z</time></trkpt><trkpt lat="42.2518481701496" lon="14.50716889885675"><ele>11.333333333333334</ele><time>2026-05-02T07:56:25Z</time></trkpt><trkpt lat="42.25169800811591" lon="14.507340249108175"><ele>10.0</ele><time>2026-05-02T07:56:26Z</time></trkpt><trkpt lat="42.251567469788945" lon="14.507504267957748"><ele>10.0</ele><time>2026-05-02T07:56:27Z</time></trkpt><trkpt lat="42.251458731780204" lon="14.50764397680078"><ele>10.0</ele><time>2026-05-02T07:56:28Z</time></trkpt><trkpt lat="42.251354183238476" lon="14.50776284914023"><ele>10.0</ele><time>2026-05-02T07:56:29Z</time></trkpt><trkpt lat="42.25125637980054" lon="14.507877909459554"><ele>10.0</ele><time>2026-05-02T07:56:30Z</time></trkpt><trkpt lat="42.25116359912232" lon="14.507983621852793"><ele>11.75</ele><time>2026-05-02T07:56:31Z</time></trkpt><trkpt lat="42.251090950899396" lon="14.508108666976712"><ele>13.5</ele><time>2026-05-02T07:56:32Z</time></trkpt><trkpt lat="42.25099817701013" lon="14.508217366747326"><ele>15.25</ele><time>2026-05-02T07:56:33Z</time></trkpt><trkpt lat="42.2508836882161" lon="14.508328254008072"><ele>17.0</ele><time>2026-05-02T07:56:34Z</time></trkpt><trkpt lat="42.250778811635215" lon="14.508417914460319"><ele>17.0</ele><time>2026-05-02T07:56:35Z</time></trkpt><trkpt lat="42.2506651363336" lon="14.508544569047341"><ele>17.0</ele><time>2026-05-02T07:56:36Z</time></trkpt><trkpt lat="42.25056694660732" lon="14.508634398790907"><ele>17.0</ele><time>2026-05-02T07:56:37Z</time></trkpt><trkpt lat="42.250468859297065" lon="14.508749919408677"><ele>17.0</ele><time>2026-05-02T07:56:38Z</time></trkpt><trkpt lat="42.25040916568475" lon="14.508894636836281"><ele>17.25</ele><time>2026-05-02T07:56:39Z</time></trkpt><trkpt lat="42.25029576396622" lon="14.509014349823065"><ele>17.5</ele><time>2026-05-02T07:56:40Z</time></trkpt><trkpt lat="42.25019645039651" lon="14.509137172120717"><ele>17.75</ele><time>2026-05-02T07:56:41Z</time></trkpt><trkpt lat="42.250096108777306" lon="14.509247858146047"><ele>18.0</ele><time>2026-05-02T07:56:42Z</time></trkpt><trkpt lat="42.250008688109595" lon="14.509372577718635"><ele>18.0</ele><time>2026-05-02T07:56:43Z</time></trkpt><trkpt lat="42.2499110137102" lon="14.509493329479305"><ele>18.0</ele><time>2026-05-02T07:56:44Z</time></trkpt><trkpt lat="42.24981873866762" lon="14.509609788047673"><ele>18.0</ele><time>2026-05-02T07:56:45Z</time></trkpt><trkpt lat="42.24972490832593" lon="14.509722876674056"><ele>18.0</ele><time>2026-05-02T07:56:46Z</time></trkpt><trkpt lat="42.24963421038714" lon="14.50983874894942"><ele>19.0</ele><time>2026-05-02T07:56:47Z</time></trkpt><trkpt lat="42.24954672895911" lon="14.509959299186486"><ele>20.0</ele><time>2026-05-02T07:56:48Z</time></trkpt><trkpt lat="42.24946371227625" lon="14.510090721376251"><ele>21.0</ele><time>2026-05-02T07:56:49Z</time></trkpt><trkpt lat="42.249382052259286" lon="14.510228904793692"><ele>22.0</ele><time>2026-05-02T07:56:50Z</time></trkpt><trkpt lat="42.24929573230901" lon="14.510366900587984"><ele>23.0</ele><time>2026-05-02T07:56:51Z</time></trkpt><trkpt lat="42.249212257080345" lon="14.510505158089614"><ele>24.0</ele><time>2026-05-02T07:56:52Z</time></trkpt><trkpt lat="42.24912761927541" lon="14.510638985854609"><ele>25.0</ele><time>2026-05-02T07:56:53Z</time></trkpt><trkpt lat="42.24904185699323" lon="14.510763303664735"><ele>26.0</ele><time>2026-05-02T07:56:54Z</time></trkpt><trkpt lat="42.248950203225874" lon="14.510914436538316"><ele>26.0</ele><time>2026-05-02T07:56:55Z</time></trkpt><trkpt lat="42.24885822378206" lon="14.511063896394575"><ele>26.0</ele><time>2026-05-02T07:56:56Z</time></trkpt><trkpt lat="42.248764596417644" lon="14.51122015190678"><ele>26.0</ele><time>2026-05-02T07:56:57Z</time></trkpt><trkpt lat="42.24867841038739" lon="14.511361832410872"><ele>26.0</ele><time>2026-05-02T07:56:58Z</time></trkpt><trkpt lat="42.248585857996375" lon="14.511501666519981"><ele>23.5</ele><time>2026-05-02T07:56:59Z</time></trkpt><trkpt lat="42.24850238672573" lon="14.511664173436948"><ele>21.0</ele><time>2026-05-02T07:57:00Z</time></trkpt><trkpt lat="42.24836700531742" lon="14.511771572385491"><ele>18.5</ele><time>2026-05-02T07:57:01Z</time></trkpt><trkpt lat="42.24832270659806" lon="14.511946179263655"><ele>16.0</ele><time>2026-05-02T07:57:02Z</time></trkpt><trkpt lat="42.24823462205357" lon="14.512096355649598"><ele>17.25</ele><time>2026-05-02T07:57:03Z</time></trkpt><trkpt lat="42.24814636352204" lon="14.512241306259694"><ele>18.5</ele><time>2026-05-02T07:57:04Z</time></trkpt><trkpt lat="42.24803896716475" lon="14.512388068171903"><ele>19.75</ele><time>2026-05-02T07:57:05Z</time></trkpt><trkpt lat="42.24795094934009" lon="14.51253727632203"><ele>21.0</ele><time>2026-05-02T07:57:06Z</time></trkpt><trkpt lat="42.24787183855306" lon="14.512697852723479"><ele>21.0</ele><time>2026-05-02T07:57:07Z</time></trkpt><trkpt lat="42.24777475209584" lon="14.512848762380184"><ele>21.0</ele><time>2026-05-02T07:57:08Z</time></trkpt><trkpt lat="42.24768283699314" lon="14.513017449067096"><ele>21.0</ele><time>2026-05-02T07:57:09Z</time></trkpt><trkpt lat="42.247589928347935" lon="14.51318455455231"><ele>19.333333333333332</ele><time>2026-05-02T07:57:10Z</time></trkpt><trkpt lat="42.247496465989634" lon="14.51335221145472"><ele>17.666666666666664</ele><time>2026-05-02T07:57:11Z</time></trkpt><trkpt lat="42.24741453548747" lon="14.513532224213487"><ele>16.0</ele><time>2026-05-02T07:57:12Z</time></trkpt><trkpt lat="42.247312382454616" lon="14.513708546197336"><ele>16.0</ele><time>2026-05-02T07:57:13Z</time></trkpt><trkpt lat="42.24721266322263" lon="14.51388316661556"><ele>16.0</ele><time>2026-05-02T07:57:14Z</time></trkpt><trkpt lat="42.2471116425179" lon="14.514059617794075"><ele>16.0</ele><time>2026-05-02T07:57:15Z</time></trkpt><trkpt lat="42.247008618785095" lon="14.514237382213718"><ele>16.0</ele><time>2026-05-02T07:57:16Z</time></trkpt><trkpt lat="42.24690969119578" lon="14.514414471457814"><ele>16.0</ele><time>2026-05-02T07:57:17Z</time></trkpt><trkpt lat="42.2468154101133" lon="14.514596284835243"><ele>16.0</ele><time>2026-05-02T07:57:18Z</time></trkpt><trkpt lat="42.24671754797503" lon="14.514777853930479"><ele>15.666666666666666</ele><time>2026-05-02T07:57:19Z</time></trkpt><trkpt lat="42.246621391686894" lon="14.514955331588265"><ele>15.333333333333332</ele><time>2026-05-02T07:57:20Z</time></trkpt><trkpt lat="42.24652253217929" lon="14.51513220403015"><ele>15.0</ele><time>2026-05-02T07:57:21Z</time></trkpt><trkpt lat="42.24642290812584" lon="14.515310438036883"><ele>14.333333333333332</ele><time>2026-05-02T07:57:22Z</time></trkpt><trkpt lat="42.24632138171704" lon="14.515489537137212"><ele>13.666666666666666</ele><time>2026-05-02T07:57:23Z</time></trkpt><trkpt lat="42.246222044924565" lon="14.515667883172211"><ele>13.0</ele><time>2026-05-02T07:57:24Z</time></trkpt><trkpt lat="42.2461153924244" lon="14.51583778638417"><ele>13.0</ele><time>2026-05-02T07:57:25Z</time></trkpt><trkpt lat="42.24601086022632" lon="14.516007913785232"><ele>13.0</ele><time>2026-05-02T07:57:26Z</time></trkpt><trkpt lat="42.245907166058814" lon="14.516176375999898"><ele>13.0</ele><time>2026-05-02T07:57:27Z</time></trkpt><trkpt lat="42.24580177209689" lon="14.516341638117622"><ele>12.333333333333332</ele><time>2026-05-02T07:57:28Z</time></trkpt><trkpt lat="42.24569236391027" lon="14.516509289762856"><ele>11.666666666666666</ele><time>2026-05-02T07:57:29Z</time></trkpt><trkpt lat="42.24558508269813" lon="14.516674971665998"><ele>11.0</ele><time>2026-05-02T07:57:30Z</time></trkpt><trkpt lat="42.24547874886875" lon="14.516840942508106"><ele>11.0</ele><time>2026-05-02T07:57:31Z</time></trkpt><trkpt lat="42.24537500070908" lon="14.517003675113179"><ele>11.0</ele><time>2026-05-02T07:57:32Z</time></trkpt><trkpt lat="42.24527311327123" lon="14.517170011602463"><ele>11.0</ele><time>2026-05-02T07:57:33Z</time></trkpt><trkpt lat="42.24516153588439" lon="14.517336718379172"><ele>10.333333333333332</ele><time>2026-05-02T07:57:34Z</time></trkpt><trkpt lat="42.245056939690485" lon="14.517500806107332"><ele>9.666666666666666</ele><time>2026-05-02T07:57:35Z</time></trkpt><trkpt lat="42.244951670479374" lon="14.517663312180115"><ele>9.0</ele><time>2026-05-02T07:57:36Z</time></trkpt><trkpt lat="42.24484470122837" lon="14.51782007733883"><ele>9.0</ele><time>2026-05-02T07:57:37Z</time></trkpt><trkpt lat="42.244734798259564" lon="14.517976485965285"><ele>9.0</ele><time>2026-05-02T07:57:38Z</time></trkpt><trkpt lat="42.24462565859613" lon="14.518132458983079"><ele>9.0</ele><time>2026-05-02T07:57:39Z</time></trkpt><trkpt lat="42.24451472789251" lon="14.51829061179745"><ele>9.0</ele><time>2026-05-02T07:57:40Z</time></trkpt><trkpt lat="42.24440068350153" lon="14.51844121755577"><ele>9.0</ele><time>2026-05-02T07:57:41Z</time></trkpt><trkpt lat="42.244286457495186" lon="14.51858620602982"><ele>9.0</ele><time>2026-05-02T07:57:42Z</time></trkpt><trkpt lat="42.244178229955466" lon="14.518729562119749"><ele>9.0</ele><time>2026-05-02T07:57:43Z</time></trkpt><trkpt lat="42.24406575526312" lon="14.518867406835291"><ele>9.0</ele><time>2026-05-02T07:57:44Z</time></trkpt><trkpt lat="42.24395339846105" lon="14.519004491862148"><ele>9.0</ele><time>2026-05-02T07:57:45Z</time></trkpt><trkpt lat="42.24384755201685" lon="14.519141021608602"><ele>9.25</ele><time>2026-05-02T07:57:46Z</time></trkpt><trkpt lat="42.24373875241791" lon="14.519264158406687"><ele>9.5</ele><time>2026-05-02T07:57:47Z</time></trkpt><trkpt lat="42.24363393084003" lon="14.519383598959314"><ele>9.75</ele><time>2026-05-02T07:57:48Z</time></trkpt><trkpt lat="42.243524321220605" lon="14.51949355646496"><ele>10.0</ele><time>2026-05-02T07:57:49Z</time></trkpt><trkpt lat="42.243404833922874" lon="14.519594217674717"><ele>10.0</ele><time>2026-05-02T07:57:50Z</time></trkpt><trkpt lat="42.24329114509485" lon="14.519676911643845"><ele>10.0</ele><time>2026-05-02T07:57:51Z</time></trkpt><trkpt lat="42.24318092272523" lon="14.519740820580369"><ele>10.0</ele><time>2026-05-02T07:57:52Z</time></trkpt><trkpt lat="42.243067817208036" lon="14.51979273987237"><ele>10.0</ele><time>2026-05-02T07:57:53Z</time></trkpt><trkpt lat="42.24294996946749" lon="14.519838753640595"><ele>10.0</ele><time>2026-05-02T07:57:54Z</time></trkpt><trkpt lat="42.2428318667894" lon="14.519877550010653"><ele>10.0</ele><time>2026-05-02T07:57:55Z</time></trkpt><trkpt lat="42.24270621468022" lon="14.519909116330634"><ele>10.0</ele><time>2026-05-02T07:57:56Z</time></trkpt><trkpt lat="42.24257904686575" lon="14.519933704783956"><ele>10.0</ele><time>2026-05-02T07:57:57Z</time></trkpt><trkpt lat="42.24244278955404" lon="14.519942820205712"><ele>10.0</ele><time>2026-05-02T07:57:58Z</time></trkpt><trkpt lat="42.24230637572843" lon="14.519949041046672"><ele>10.0</ele><time>2026-05-02T07:57:59Z</time></trkpt><trkpt lat="42.24216150483688" lon="14.519940589423165"><ele>10.0</ele><time>2026-05-02T07:58:00Z</time></trkpt><trkpt lat="42.24201888814498" lon="14.5199170323886"><ele>10.0</ele><time>2026-05-02T07:58:01Z</time></trkpt><trkpt lat="42.24187699886045" lon="14.519878147218218"><ele>9.0</ele><time>2026-05-02T07:58:02Z</time></trkpt><trkpt lat="42.241731726023" lon="14.519809884830305"><ele>8.0</ele><time>2026-05-02T07:58:03Z</time></trkpt><trkpt lat="42.241582523844556" lon="14.519729838171461"><ele>7.0</ele><time>2026-05-02T07:58:04Z</time></trkpt><trkpt lat="42.24143560581" lon="14.519641780994098"><ele>7.333333333333334</ele><time>2026-05-02T07:58:05Z</time></trkpt><trkpt lat="42.24127627320773" lon="14.519552001435304"><ele>7.666666666666666</ele><time>2026-05-02T07:58:06Z</time></trkpt><trkpt lat="42.24112286110161" lon="14.519452161697338"><ele>8.0</ele><time>2026-05-02T07:58:07Z</time></trkpt><trkpt lat="42.24096939578769" lon="14.519355985917091"><ele>8.0</ele><time>2026-05-02T07:58:08Z</time></trkpt><trkpt lat="42.240810482784504" lon="14.519252664428086"><ele>8.0</ele><time>2026-05-02T07:58:09Z</time></trkpt><trkpt lat="42.24064622683889" lon="14.519150140290566"><ele>8.0</ele><time>2026-05-02T07:58:10Z</time></trkpt><trkpt lat="42.240483640322935" lon="14.51903971889133"><ele>8.0</ele><time>2026-05-02T07:58:11Z</time></trkpt><trkpt lat="42.240323647788415" lon="14.518922636329972"><ele>8.0</ele><time>2026-05-02T07:58:12Z</time></trkpt><trkpt lat="42.240161375965315" lon="14.51881002040422"><ele>8.0</ele><time>2026-05-02T07:58:13Z</time></trkpt><trkpt lat="42.23999651596282" lon="14.51869811445529"><ele>8.0</ele><time>2026-05-02T07:58:14Z</time></trkpt><trkpt lat="42.23982420532087" lon="14.518588017655716"><ele>8.0</ele><time>2026-05-02T07:58:15Z</time></trkpt><trkpt lat="42.23965177593534" lon="14.518477712904602"><ele>8.0</ele><time>2026-05-02T07:58:16Z</time></trkpt><trkpt lat="42.239478979617495" lon="14.51836588092131"><ele>8.0</ele><time>2026-05-02T07:58:17Z</time></trkpt><trkpt lat="42.23930679783397" lon="14.518253075676693"><ele>8.0</ele><time>2026-05-02T07:58:18Z</time></trkpt><trkpt lat="42.23913036155861" lon="14.518132925116996"><ele>8.0</ele><time>2026-05-02T07:58:19Z</time></trkpt><trkpt lat="42.238946218537436" lon="14.518018169898564"><ele>7.666666666666666</ele><time>2026-05-02T07:58:20Z</time></trkpt><trkpt lat="42.23876569957843" lon="14.517898229001649"><ele>7.333333333333334</ele><time>2026-05-02T07:58:21Z</time></trkpt><trkpt lat="42.23858326552879" lon="14.517777056682549"><ele>7.0</ele><time>2026-05-02T07:58:22Z</time></trkpt><trkpt lat="42.23840092898243" lon="14.517649747060027"><ele>7.0</ele><time>2026-05-02T07:58:23Z</time></trkpt><trkpt lat="42.238218155783095" lon="14.517527083685795"><ele>7.0</ele><time>2026-05-02T07:58:24Z</time></trkpt><trkpt lat="42.23803532787206" lon="14.517401609120054"><ele>7.0</ele><time>2026-05-02T07:58:25Z</time></trkpt><trkpt lat="42.23785154041754" lon="14.517279560483825"><ele>7.0</ele><time>2026-05-02T07:58:26Z</time></trkpt><trkpt lat="42.237665230877525" lon="14.517163472847207"><ele>7.0</ele><time>2026-05-02T07:58:27Z</time></trkpt><trkpt lat="42.237481305383156" lon="14.5170419392245"><ele>7.0</ele><time>2026-05-02T07:58:28Z</time></trkpt><trkpt lat="42.237299717462356" lon="14.51692037090818"><ele>7.0</ele><time>2026-05-02T07:58:29Z</time></trkpt><trkpt lat="42.23711550193735" lon="14.51679725396267"><ele>7.0</ele><time>2026-05-02T07:58:30Z</time></trkpt><trkpt lat="42.236931193987" lon="14.516673286715863"><ele>7.0</ele><time>2026-05-02T07:58:31Z</time></trkpt><trkpt lat="42.23675452919355" lon="14.51653340114018"><ele>7.0</ele><time>2026-05-02T07:58:32Z</time></trkpt><trkpt lat="42.2365703912655" lon="14.516410915496936"><ele>7.0</ele><time>2026-05-02T07:58:33Z</time></trkpt><trkpt lat="42.23638727967976" lon="14.516289872725103"><ele>7.0</ele><time>2026-05-02T07:58:34Z</time></trkpt><trkpt lat="42.236205914441186" lon="14.516169984288718"><ele>7.666666666666667</ele><time>2026-05-02T07:58:35Z</time></trkpt><trkpt lat="42.236018557919095" lon="14.516070487060658"><ele>8.333333333333334</ele><time>2026-05-02T07:58:36Z</time></trkpt><trkpt lat="42.23583863295913" lon="14.51594999422718"><ele>9.0</ele><time>2026-05-02T07:58:37Z</time></trkpt><trkpt lat="42.235657405728816" lon="14.51582942463955"><ele>8.0</ele><time>2026-05-02T07:58:38Z</time></trkpt><trkpt lat="42.23547704943201" lon="14.515709233060376"><ele>7.0</ele><time>2026-05-02T07:58:39Z</time></trkpt><trkpt lat="42.23529719224381" lon="14.515586499732125"><ele>6.0</ele><time>2026-05-02T07:58:40Z</time></trkpt><trkpt lat="42.23511844148567" lon="14.515465499237747"><ele>6.666666666666666</ele><time>2026-05-02T07:58:41Z</time></trkpt><trkpt lat="42.234940119363245" lon="14.515342912030583"><ele>7.333333333333333</ele><time>2026-05-02T07:58:42Z</time></trkpt><trkpt lat="42.23476425129979" lon="14.515220513124131"><ele>8.0</ele><time>2026-05-02T07:58:43Z</time></trkpt><trkpt lat="42.23458987643769" lon="14.515098118253897"><ele>8.0</ele><time>2026-05-02T07:58:44Z</time></trkpt><trkpt lat="42.23441716157777" lon="14.514979335423256"><ele>8.0</ele><time>2026-05-02T07:58:45Z</time></trkpt><trkpt lat="42.23424431428874" lon="14.514859744124669"><ele>8.0</ele><time>2026-05-02T07:58:46Z</time></trkpt><trkpt lat="42.2340741155877" lon="14.514736092282964"><ele>7.666666666666666</ele><time>2026-05-02T07:58:47Z</time></trkpt><trkpt lat="42.233905016264345" lon="14.51460634405976"><ele>7.333333333333334</ele><time>2026-05-02T07:58:48Z</time></trkpt><trkpt lat="42.233738437468446" lon="14.514476724638259"><ele>7.0</ele><time>2026-05-02T07:58:49Z</time></trkpt><trkpt lat="42.233572663742905" lon="14.514344338502973"><ele>7.0</ele><time>2026-05-02T07:58:50Z</time></trkpt><trkpt lat="42.233407044308635" lon="14.514209108654878"><ele>7.0</ele><time>2026-05-02T07:58:51Z</time></trkpt><trkpt lat="42.23324180067688" lon="14.514074524703192"><ele>7.0</ele><time>2026-05-02T07:58:52Z</time></trkpt><trkpt lat="42.23307788468772" lon="14.513933670417298"><ele>7.0</ele><time>2026-05-02T07:58:53Z</time></trkpt><trkpt lat="42.232912109369025" lon="14.51379196336894"><ele>7.0</ele><time>2026-05-02T07:58:54Z</time></trkpt><trkpt lat="42.232746813264605" lon="14.513641557260968"><ele>7.0</ele><time>2026-05-02T07:58:55Z</time></trkpt><trkpt lat="42.232584004100566" lon="14.513493310161744"><ele>7.0</ele><time>2026-05-02T07:58:56Z</time></trkpt><trkpt lat="42.23241904557641" lon="14.513340634650223"><ele>7.0</ele><time>2026-05-02T07:58:57Z</time></trkpt><trkpt lat="42.23225418608213" lon="14.513185735628557"><ele>7.0</ele><time>2026-05-02T07:58:58Z</time></trkpt><trkpt lat="42.23210012140297" lon="14.513007750006569"><ele>7.666666666666667</ele><time>2026-05-02T07:58:59Z</time></trkpt><trkpt lat="42.231936994628335" lon="14.512842457412068"><ele>8.333333333333334</ele><time>2026-05-02T07:59:00Z</time></trkpt><trkpt lat="42.23177752802197" lon="14.512679246904236"><ele>9.0</ele><time>2026-05-02T07:59:01Z</time></trkpt><trkpt lat="42.2316169174049" lon="14.512514865528725"><ele>9.0</ele><time>2026-05-02T07:59:02Z</time></trkpt><trkpt lat="42.23145884935935" lon="14.512352990896938"><ele>9.0</ele><time>2026-05-02T07:59:03Z</time></trkpt><trkpt lat="42.23128936125302" lon="14.51220368748876"><ele>9.0</ele><time>2026-05-02T07:59:04Z</time></trkpt><trkpt lat="42.23112854928203" lon="14.512038382046764"><ele>9.0</ele><time>2026-05-02T07:59:05Z</time></trkpt><trkpt lat="42.23097671053769" lon="14.511855087717514"><ele>9.0</ele><time>2026-05-02T07:59:06Z</time></trkpt><trkpt lat="42.23080565821187" lon="14.511703674465252"><ele>9.0</ele><time>2026-05-02T07:59:07Z</time></trkpt><trkpt lat="42.230646410144786" lon="14.511535475530488"><ele>8.666666666666666</ele><time>2026-05-02T07:59:08Z</time></trkpt><trkpt lat="42.230484823423616" lon="14.511373002596669"><ele>8.333333333333332</ele><time>2026-05-02T07:59:09Z</time></trkpt><trkpt lat="42.23033322948829" lon="14.511190647348368"><ele>8.0</ele><time>2026-05-02T07:59:10Z</time></trkpt><trkpt lat="42.23017574615104" lon="14.5110281080306"><ele>8.0</ele><time>2026-05-02T07:59:11Z</time></trkpt><trkpt lat="42.23001650343707" lon="14.510863752844314"><ele>8.0</ele><time>2026-05-02T07:59:12Z</time></trkpt><trkpt lat="42.22985214540375" lon="14.51069411811094"><ele>8.0</ele><time>2026-05-02T07:59:13Z</time></trkpt><trkpt lat="42.229684916953715" lon="14.51052152080007"><ele>9.0</ele><time>2026-05-02T07:59:14Z</time></trkpt><trkpt lat="42.229508869479474" lon="14.510339529080715"><ele>10.0</ele><time>2026-05-02T07:59:15Z</time></trkpt><trkpt lat="42.2293273468316" lon="14.51015170053034"><ele>10.0</ele><time>2026-05-02T07:59:16Z</time></trkpt><trkpt lat="42.22914268416376" lon="14.509959456409543"><ele>10.0</ele><time>2026-05-02T07:59:17Z</time></trkpt><trkpt lat="42.22895390595251" lon="14.509764144324016"><ele>9.5</ele><time>2026-05-02T07:59:18Z</time></trkpt><trkpt lat="42.22876064417259" lon="14.50956419347149"><ele>9.0</ele><time>2026-05-02T07:59:19Z</time></trkpt><trkpt lat="42.22856436030099" lon="14.509361115967161"><ele>9.0</ele><time>2026-05-02T07:59:20Z</time></trkpt><trkpt lat="42.228362841282426" lon="14.509152717619836"><ele>9.0</ele><time>2026-05-02T07:59:21Z</time></trkpt><trkpt lat="42.22815840944771" lon="14.50894132868338"><ele>9.0</ele><time>2026-05-02T07:59:22Z</time></trkpt><trkpt lat="42.2279539359349" lon="14.508731732086737"><ele>9.0</ele><time>2026-05-02T07:59:23Z</time></trkpt><trkpt lat="42.227748476005026" lon="14.508521764599827"><ele>9.0</ele><time>2026-05-02T07:59:24Z</time></trkpt><trkpt lat="42.22753336494984" lon="14.50832623658148"><ele>9.0</ele><time>2026-05-02T07:59:25Z</time></trkpt><trkpt lat="42.22732614545678" lon="14.508113022798808"><ele>10.5</ele><time>2026-05-02T07:59:26Z</time></trkpt><trkpt lat="42.22712785465784" lon="14.507883313151078"><ele>12.0</ele><time>2026-05-02T07:59:27Z</time></trkpt><trkpt lat="42.226924591827704" lon="14.507672032793709"><ele>12.0</ele><time>2026-05-02T07:59:28Z</time></trkpt><trkpt lat="42.22670883554885" lon="14.507475388439513"><ele>12.0</ele><time>2026-05-02T07:59:29Z</time></trkpt><trkpt lat="42.226511764912324" lon="14.507270250111805"><ele>12.0</ele><time>2026-05-02T07:59:30Z</time></trkpt><trkpt lat="42.226314997382794" lon="14.507064809262445"><ele>12.0</ele><time>2026-05-02T07:59:31Z</time></trkpt><trkpt lat="42.22613007257109" lon="14.506849694291374"><ele>12.0</ele><time>2026-05-02T07:59:32Z</time></trkpt><trkpt lat="42.22594506159467" lon="14.506658773363673"><ele>12.0</ele><time>2026-05-02T07:59:33Z</time></trkpt><trkpt lat="42.22576305090883" lon="14.506470837738137"><ele>12.333333333333332</ele><time>2026-05-02T07:59:34Z</time></trkpt><trkpt lat="42.22557842183923" lon="14.506280198497661"><ele>12.666666666666666</ele><time>2026-05-02T07:59:35Z</time></trkpt><trkpt lat="42.22541566320073" lon="14.50611214162805"><ele>13.0</ele><time>2026-05-02T07:59:36Z</time></trkpt><trkpt lat="42.225231337676625" lon="14.505921815812325"><ele>13.0</ele><time>2026-05-02T07:59:37Z</time></trkpt><trkpt lat="42.22507467737556" lon="14.505760055855522"><ele>13.0</ele><time>2026-05-02T07:59:38Z</time></trkpt><trkpt lat="42.224904835311655" lon="14.505584684924592"><ele>13.0</ele><time>2026-05-02T07:59:39Z</time></trkpt><trkpt lat="42.22473659486079" lon="14.505410967798468"><ele>13.666666666666666</ele><time>2026-05-02T07:59:40Z</time></trkpt><trkpt lat="42.2245665625048" lon="14.505235381492605"><ele>14.333333333333332</ele><time>2026-05-02T07:59:41Z</time></trkpt><trkpt lat="42.22439771888475" lon="14.505060901932726"><ele>15.0</ele><time>2026-05-02T07:59:42Z</time></trkpt><trkpt lat="42.22422814583632" lon="14.50488567931361"><ele>15.0</ele><time>2026-05-02T07:59:43Z</time></trkpt><trkpt lat="42.22405882227429" lon="14.504711724367562"><ele>15.0</ele><time>2026-05-02T07:59:44Z</time></trkpt><trkpt lat="42.223889922310065" lon="14.5045382037315"><ele>15.0</ele><time>2026-05-02T07:59:45Z</time></trkpt><trkpt lat="42.223719093139955" lon="14.50436269975318"><ele>16.0</ele><time>2026-05-02T07:59:46Z</time></trkpt><trkpt lat="42.22355388161189" lon="14.504192967150006"><ele>17.0</ele><time>2026-05-02T07:59:47Z</time></trkpt><trkpt lat="42.22335913642411" lon="14.504064873463024"><ele>18.0</ele><time>2026-05-02T07:59:48Z</time></trkpt><trkpt lat="42.223197221370135" lon="14.503885957024309"><ele>17.666666666666668</ele><time>2026-05-02T07:59:49Z</time></trkpt><trkpt lat="42.22301916181292" lon="14.503721904658482"><ele>17.333333333333336</ele><time>2026-05-02T07:59:50Z</time></trkpt><trkpt lat="42.22286823376564" lon="14.50355278941843"><ele>17.0</ele><time>2026-05-02T07:59:51Z</time></trkpt><trkpt lat="42.22271188049659" lon="14.503379010897023"><ele>17.0</ele><time>2026-05-02T07:59:52Z</time></trkpt><trkpt lat="42.22255573340461" lon="14.503203041020559"><ele>17.0</ele><time>2026-05-02T07:59:53Z</time></trkpt><trkpt lat="42.22239456763134" lon="14.503034384819179"><ele>17.0</ele><time>2026-05-02T07:59:54Z</time></trkpt><trkpt lat="42.222229434013414" lon="14.502868221304295"><ele>16.333333333333336</ele><time>2026-05-02T07:59:55Z</time></trkpt><trkpt lat="42.22206252686311" lon="14.502700286962503"><ele>15.666666666666668</ele><time>2026-05-02T07:59:56Z</time></trkpt><trkpt lat="42.221900766795905" lon="14.50252465335461"><ele>15.0</ele><time>2026-05-02T07:59:57Z</time></trkpt><trkpt lat="42.22172913072276" lon="14.502354740957438"><ele>15.0</ele><time>2026-05-02T07:59:58Z</time></trkpt><trkpt lat="42.221564671863796" lon="14.502174867996295"><ele>15.0</ele><time>2026-05-02T07:59:59Z</time></trkpt><trkpt lat="42.22140008218133" lon="14.50200165538047"><ele>15.0</ele><time>2026-05-02T08:00:00Z</time></trkpt><trkpt lat="42.221226333356114" lon="14.501834216194482"><ele>14.333333333333332</ele><time>2026-05-02T08:00:01Z</time></trkpt><trkpt lat="42.22105707076993" lon="14.501663230414295"><ele>13.666666666666666</ele><time>2026-05-02T08:00:02Z</time></trkpt><trkpt lat="42.22089145910934" lon="14.501492689546765"><ele>13.0</ele><time>2026-05-02T08:00:03Z</time></trkpt><trkpt lat="42.22072917466577" lon="14.501317733775226"><ele>13.666666666666666</ele><time>2026-05-02T08:00:04Z</time></trkpt><trkpt lat="42.22056585862309" lon="14.501145747926826"><ele>14.333333333333332</ele><time>2026-05-02T08:00:05Z</time></trkpt><trkpt lat="42.220404982265705" lon="14.500970490966859"><ele>15.0</ele><time>2026-05-02T08:00:06Z</time></trkpt><trkpt lat="42.2202439778349" lon="14.500800346244509"><ele>15.0</ele><time>2026-05-02T08:00:07Z</time></trkpt><trkpt lat="42.22008302829246" lon="14.500634046277442"><ele>15.0</ele><time>2026-05-02T08:00:08Z</time></trkpt><trkpt lat="42.2199222996039" lon="14.500469496172864"><ele>15.0</ele><time>2026-05-02T08:00:09Z</time></trkpt><trkpt lat="42.21976485714154" lon="14.500303650074745"><ele>15.333333333333332</ele><time>2026-05-02T08:00:10Z</time></trkpt><trkpt lat="42.219606261881275" lon="14.500143668705753"><ele>15.666666666666666</ele><time>2026-05-02T08:00:11Z</time></trkpt><trkpt lat="42.21944939570281" lon="14.49997849652165"><ele>16.0</ele><time>2026-05-02T08:00:12Z</time></trkpt><trkpt lat="42.21929064229309" lon="14.49982144450938"><ele>16.0</ele><time>2026-05-02T08:00:13Z</time></trkpt><trkpt lat="42.21913649914273" lon="14.49965599753388"><ele>16.0</ele><time>2026-05-02T08:00:14Z</time></trkpt><trkpt lat="42.21898443370532" lon="14.499491872265978"><ele>16.0</ele><time>2026-05-02T08:00:15Z</time></trkpt><trkpt lat="42.218825368116946" lon="14.499324883919437"><ele>16.0</ele><time>2026-05-02T08:00:16Z</time></trkpt><trkpt lat="42.218666223749445" lon="14.499158525027699"><ele>16.0</ele><time>2026-05-02T08:00:17Z</time></trkpt><trkpt lat="42.21850496933974" lon="14.498995456292183"><ele>16.0</ele><time>2026-05-02T08:00:18Z</time></trkpt><trkpt lat="42.21834496236187" lon="14.498827363245136"><ele>16.333333333333332</ele><time>2026-05-02T08:00:19Z</time></trkpt><trkpt lat="42.218181216306995" lon="14.4986626113391"><ele>16.666666666666668</ele><time>2026-05-02T08:00:20Z</time></trkpt><trkpt lat="42.21801773212627" lon="14.498495005786852"><ele>17.0</ele><time>2026-05-02T08:00:21Z</time></trkpt><trkpt lat="42.21785592062496" lon="14.498325952265775"><ele>17.0</ele><time>2026-05-02T08:00:22Z</time></trkpt><trkpt lat="42.217693368245946" lon="14.498154304687004"><ele>17.0</ele><time>2026-05-02T08:00:23Z</time></trkpt><trkpt lat="42.21753072033872" lon="14.497980855378733"><ele>17.0</ele><time>2026-05-02T08:00:24Z</time></trkpt><trkpt lat="42.21736510821658" lon="14.497811175281418"><ele>16.666666666666668</ele><time>2026-05-02T08:00:25Z</time></trkpt><trkpt lat="42.217199182599806" lon="14.497635942750774"><ele>16.333333333333332</ele><time>2026-05-02T08:00:26Z</time></trkpt><trkpt lat="42.217031747115215" lon="14.497463027687585"><ele>16.0</ele><time>2026-05-02T08:00:27Z</time></trkpt><trkpt lat="42.21686570167962" lon="14.497289508403005"><ele>16.0</ele><time>2026-05-02T08:00:28Z</time></trkpt><trkpt lat="42.216698446542196" lon="14.4971185980183"><ele>16.0</ele><time>2026-05-02T08:00:29Z</time></trkpt><trkpt lat="42.21653335648476" lon="14.496946333344887"><ele>16.0</ele><time>2026-05-02T08:00:30Z</time></trkpt><trkpt lat="42.21636699543932" lon="14.496773072387416"><ele>16.666666666666664</ele><time>2026-05-02T08:00:31Z</time></trkpt><trkpt lat="42.21620235224993" lon="14.496597631665464"><ele>17.333333333333332</ele><time>2026-05-02T08:00:32Z</time></trkpt><trkpt lat="42.21604060408307" lon="14.496424329821304"><ele>18.0</ele><time>2026-05-02T08:00:33Z</time></trkpt><trkpt lat="42.215877413112125" lon="14.496254143093463"><ele>18.333333333333332</ele><time>2026-05-02T08:00:34Z</time></trkpt><trkpt lat="42.21571648217236" lon="14.496085030321979"><ele>18.666666666666664</ele><time>2026-05-02T08:00:35Z</time></trkpt><trkpt lat="42.215564107409826" lon="14.495920314264948"><ele>19.0</ele><time>2026-05-02T08:00:36Z</time></trkpt><trkpt lat="42.215419975009404" lon="14.495756258102894"><ele>19.0</ele><time>2026-05-02T08:00:37Z</time></trkpt><trkpt lat="42.21527596166857" lon="14.495602239153"><ele>19.0</ele><time>2026-05-02T08:00:38Z</time></trkpt><trkpt lat="42.21514077833417" lon="14.495439893642112"><ele>19.0</ele><time>2026-05-02T08:00:39Z</time></trkpt><trkpt lat="42.21499879222405" lon="14.495308667135381"><ele>19.666666666666664</ele><time>2026-05-02T08:00:40Z</time></trkpt><trkpt lat="42.21485418373281" lon="14.495170537670587"><ele>20.333333333333332</ele><time>2026-05-02T08:00:41Z</time></trkpt><trkpt lat="42.21472286856893" lon="14.495020545823339"><ele>21.0</ele><time>2026-05-02T08:00:42Z</time></trkpt><trkpt lat="42.21458956033931" lon="14.494892002017519"><ele>21.666666666666668</ele><time>2026-05-02T08:00:43Z</time></trkpt><trkpt lat="42.21446218937244" lon="14.494754212559888"><ele>22.333333333333336</ele><time>2026-05-02T08:00:44Z</time></trkpt><trkpt lat="42.214339982901855" lon="14.494619856165283"><ele>23.0</ele><time>2026-05-02T08:00:45Z</time></trkpt><trkpt lat="42.21421259236723" lon="14.494487064362986"><ele>23.25</ele><time>2026-05-02T08:00:46Z</time></trkpt><trkpt lat="42.214089124247174" lon="14.494357969652697"><ele>23.5</ele><time>2026-05-02T08:00:47Z</time></trkpt><trkpt lat="42.21397311529514" lon="14.494237441846709"><ele>23.75</ele><time>2026-05-02T08:00:48Z</time></trkpt><trkpt lat="42.213859550494256" lon="14.494116045958508"><ele>24.0</ele><time>2026-05-02T08:00:49Z</time></trkpt><trkpt lat="42.21374225253515" lon="14.494003329695074"><ele>24.25</ele><time>2026-05-02T08:00:50Z</time></trkpt><trkpt lat="42.213630456571394" lon="14.493880678538789"><ele>24.5</ele><time>2026-05-02T08:00:51Z</time></trkpt><trkpt lat="42.213516404345214" lon="14.493761136073433"><ele>24.75</ele><time>2026-05-02T08:00:52Z</time></trkpt><trkpt lat="42.213400661558715" lon="14.493638918367672"><ele>25.0</ele><time>2026-05-02T08:00:53Z</time></trkpt><trkpt lat="42.2132790671693" lon="14.493518124615392"><ele>25.0</ele><time>2026-05-02T08:00:54Z</time></trkpt><trkpt lat="42.213148364814" lon="14.493387533927446"><ele>25.0</ele><time>2026-05-02T08:00:55Z</time></trkpt><trkpt lat="42.213021201019735" lon="14.49325379757705"><ele>25.0</ele><time>2026-05-02T08:00:56Z</time></trkpt><trkpt lat="42.212889970399395" lon="14.493119129714918"><ele>25.0</ele><time>2026-05-02T08:00:57Z</time></trkpt><trkpt lat="42.212759297746054" lon="14.492978569045388"><ele>25.0</ele><time>2026-05-02T08:00:58Z</time></trkpt><trkpt lat="42.21263029138676" lon="14.492840884421637"><ele>25.0</ele><time>2026-05-02T08:00:59Z</time></trkpt><trkpt lat="42.21250151166978" lon="14.492706664546366"><ele>24.666666666666668</ele><time>2026-05-02T08:01:00Z</time></trkpt><trkpt lat="42.21237451710061" lon="14.492575735690918"><ele>24.333333333333336</ele><time>2026-05-02T08:01:01Z</time></trkpt><trkpt lat="42.2122527933489" lon="14.492450934005204"><ele>24.0</ele><time>2026-05-02T08:01:02Z</time></trkpt><trkpt lat="42.212137619420346" lon="14.492325768145157"><ele>24.0</ele><time>2026-05-02T08:01:03Z</time></trkpt><trkpt lat="42.212018756633896" lon="14.492200746002359"><ele>24.0</ele><time>2026-05-02T08:01:04Z</time></trkpt><trkpt lat="42.21189894329655" lon="14.492072341735689"><ele>24.0</ele><time>2026-05-02T08:01:05Z</time></trkpt><trkpt lat="42.211774993178" lon="14.49194112626751"><ele>23.666666666666668</ele><time>2026-05-02T08:01:06Z</time></trkpt><trkpt lat="42.211649427788764" lon="14.491806025942111"><ele>23.333333333333336</ele><time>2026-05-02T08:01:07Z</time></trkpt><trkpt lat="42.211519400785164" lon="14.491674780583548"><ele>23.0</ele><time>2026-05-02T08:01:08Z</time></trkpt><trkpt lat="42.2113907071296" lon="14.491544248218414"><ele>23.0</ele><time>2026-05-02T08:01:09Z</time></trkpt><trkpt lat="42.211260811386886" lon="14.49140870632212"><ele>23.0</ele><time>2026-05-02T08:01:10Z</time></trkpt><trkpt lat="42.21113145396014" lon="14.49126996337575"><ele>23.0</ele><time>2026-05-02T08:01:11Z</time></trkpt><trkpt lat="42.211002773561475" lon="14.491129926079285"><ele>23.0</ele><time>2026-05-02T08:01:12Z</time></trkpt><trkpt lat="42.21087111078579" lon="14.490985092842452"><ele>23.0</ele><time>2026-05-02T08:01:13Z</time></trkpt><trkpt lat="42.210741333805835" lon="14.490853443880447"><ele>23.0</ele><time>2026-05-02T08:01:14Z</time></trkpt><trkpt lat="42.210609066055355" lon="14.490715340415148"><ele>23.0</ele><time>2026-05-02T08:01:15Z</time></trkpt><trkpt lat="42.210469062353035" lon="14.490585411530498"><ele>23.0</ele><time>2026-05-02T08:01:16Z</time></trkpt><trkpt lat="42.2103333650696" lon="14.490446883156345"><ele>23.0</ele><time>2026-05-02T08:01:17Z</time></trkpt><trkpt lat="42.210198768486265" lon="14.490308840588945"><ele>23.0</ele><time>2026-05-02T08:01:18Z</time></trkpt><trkpt lat="42.21006224988474" lon="14.490175757057225"><ele>23.0</ele><time>2026-05-02T08:01:19Z</time></trkpt><trkpt lat="42.20992726769666" lon="14.490038724217403"><ele>23.0</ele><time>2026-05-02T08:01:20Z</time></trkpt><trkpt lat="42.20979018899377" lon="14.48990832300718"><ele>23.0</ele><time>2026-05-02T08:01:21Z</time></trkpt><trkpt lat="42.209653412508814" lon="14.489774926911315"><ele>23.0</ele><time>2026-05-02T08:01:22Z</time></trkpt><trkpt lat="42.20951474519452" lon="14.489639244351936"><ele>23.0</ele><time>2026-05-02T08:01:23Z</time></trkpt><trkpt lat="42.20937687272854" lon="14.489513210835186"><ele>23.0</ele><time>2026-05-02T08:01:24Z</time></trkpt><trkpt lat="42.20923876896118" lon="14.489377794363"><ele>23.0</ele><time>2026-05-02T08:01:25Z</time></trkpt><trkpt lat="42.209099157297736" lon="14.489252733529547"><ele>23.0</ele><time>2026-05-02T08:01:26Z</time></trkpt><trkpt lat="42.20896077523215" lon="14.489114673554495"><ele>23.0</ele><time>2026-05-02T08:01:27Z</time></trkpt><trkpt lat="42.20881940384386" lon="14.488980450148546"><ele>23.0</ele><time>2026-05-02T08:01:28Z</time></trkpt><trkpt lat="42.20869314144218" lon="14.488819291358496"><ele>23.0</ele><time>2026-05-02T08:01:29Z</time></trkpt><trkpt lat="42.2085516189344" lon="14.488684646945888"><ele>23.333333333333336</ele><time>2026-05-02T08:01:30Z</time></trkpt><trkpt lat="42.20840874109733" lon="14.488549257086403"><ele>23.666666666666668</ele><time>2026-05-02T08:01:31Z</time></trkpt><trkpt lat="42.20826480232064" lon="14.488415059820149"><ele>24.0</ele><time>2026-05-02T08:01:32Z</time></trkpt><trkpt lat="42.20812084950557" lon="14.48827741342892"><ele>24.0</ele><time>2026-05-02T08:01:33Z</time></trkpt><trkpt lat="42.207975828646276" lon="14.488138695451196"><ele>24.0</ele><time>2026-05-02T08:01:34Z</time></trkpt><trkpt lat="42.20783276675136" lon="14.488001851299865"><ele>24.0</ele><time>2026-05-02T08:01:35Z</time></trkpt><trkpt lat="42.207688740611005" lon="14.487864084809482"><ele>24.0</ele><time>2026-05-02T08:01:36Z</time></trkpt><trkpt lat="42.207543210604086" lon="14.487725540466771"><ele>24.0</ele><time>2026-05-02T08:01:37Z</time></trkpt><trkpt lat="42.20739505831484" lon="14.487584717589232"><ele>24.0</ele><time>2026-05-02T08:01:38Z</time></trkpt><trkpt lat="42.20723665499032" lon="14.487434150815737"><ele>24.0</ele><time>2026-05-02T08:01:39Z</time></trkpt><trkpt lat="42.207069777421836" lon="14.487275529041238"><ele>24.0</ele><time>2026-05-02T08:01:40Z</time></trkpt><trkpt lat="42.20689755668643" lon="14.487111828433056"><ele>24.0</ele><time>2026-05-02T08:01:41Z</time></trkpt><trkpt lat="42.2067194132976" lon="14.48694249817791"><ele>24.0</ele><time>2026-05-02T08:01:42Z</time></trkpt><trkpt lat="42.20653490407007" lon="14.486767117018031"><ele>24.0</ele><time>2026-05-02T08:01:43Z</time></trkpt><trkpt lat="42.2063470308064" lon="14.486588538248622"><ele>23.5</ele><time>2026-05-02T08:01:44Z</time></trkpt><trkpt lat="42.206155104594956" lon="14.486406107037734"><ele>23.0</ele><time>2026-05-02T08:01:45Z</time></trkpt><trkpt lat="42.20596438719667" lon="14.486224824838546"><ele>24.0</ele><time>2026-05-02T08:01:46Z</time></trkpt><trkpt lat="42.20578132846453" lon="14.486050822413395"><ele>25.0</ele><time>2026-05-02T08:01:47Z</time></trkpt><trkpt lat="42.205603846581774" lon="14.485882120942401"><ele>26.0</ele><time>2026-05-02T08:01:48Z</time></trkpt><trkpt lat="42.205426409984476" lon="14.485713025854935"><ele>26.0</ele><time>2026-05-02T08:01:49Z</time></trkpt><trkpt lat="42.20524980772157" lon="14.48554448648671"><ele>26.0</ele><time>2026-05-02T08:01:50Z</time></trkpt><trkpt lat="42.20507365134967" lon="14.485376372657617"><ele>26.0</ele><time>2026-05-02T08:01:51Z</time></trkpt><trkpt lat="42.20490384108908" lon="14.485214315198156"><ele>25.333333333333332</ele><time>2026-05-02T08:01:52Z</time></trkpt><trkpt lat="42.20474144771859" lon="14.485059336007394"><ele>24.666666666666664</ele><time>2026-05-02T08:01:53Z</time></trkpt><trkpt lat="42.20458304221909" lon="14.484908162623412"><ele>24.0</ele><time>2026-05-02T08:01:54Z</time></trkpt><trkpt lat="42.20442213871453" lon="14.484754605278704"><ele>24.0</ele><time>2026-05-02T08:01:55Z</time></trkpt><trkpt lat="42.20426129054696" lon="14.484601100964797"><ele>24.0</ele><time>2026-05-02T08:01:56Z</time></trkpt><trkpt lat="42.20409785475876" lon="14.484445170500342"><ele>24.0</ele><time>2026-05-02T08:01:57Z</time></trkpt><trkpt lat="42.20393200669247" lon="14.484287272175168"><ele>24.333333333333336</ele><time>2026-05-02T08:01:58Z</time></trkpt><trkpt lat="42.20376742829601" lon="14.48413058128744"><ele>24.666666666666668</ele><time>2026-05-02T08:01:59Z</time></trkpt><trkpt lat="42.2035977834357" lon="14.483969066761514"><ele>25.0</ele><time>2026-05-02T08:02:00Z</time></trkpt><trkpt lat="42.203415352009955" lon="14.483795378484059"><ele>25.666666666666668</ele><time>2026-05-02T08:02:01Z</time></trkpt><trkpt lat="42.20323123312385" lon="14.483620083574852"><ele>26.333333333333336</ele><time>2026-05-02T08:02:02Z</time></trkpt><trkpt lat="42.203049495954936" lon="14.48344705627577"><ele>27.0</ele><time>2026-05-02T08:02:03Z</time></trkpt><trkpt lat="42.20287288370459" lon="14.483278908261054"><ele>27.0</ele><time>2026-05-02T08:02:04Z</time></trkpt><trkpt lat="42.202702536763454" lon="14.483116725298911"><ele>27.0</ele><time>2026-05-02T08:02:05Z</time></trkpt><trkpt lat="42.20253901558508" lon="14.482961040964998"><ele>27.0</ele><time>2026-05-02T08:02:06Z</time></trkpt><trkpt lat="42.202382909718324" lon="14.482812564495141"><ele>27.333333333333336</ele><time>2026-05-02T08:02:07Z</time></trkpt><trkpt lat="42.202235704495955" lon="14.48267327510654"><ele>27.666666666666668</ele><time>2026-05-02T08:02:08Z</time></trkpt><trkpt lat="42.20209260305561" lon="14.482537868765942"><ele>28.0</ele><time>2026-05-02T08:02:09Z</time></trkpt><trkpt lat="42.20195101242112" lon="14.482403300987526"><ele>28.0</ele><time>2026-05-02T08:02:10Z</time></trkpt><trkpt lat="42.201809221542945" lon="14.482267517177466"><ele>28.0</ele><time>2026-05-02T08:02:11Z</time></trkpt><trkpt lat="42.20166835306855" lon="14.482132616693969"><ele>28.0</ele><time>2026-05-02T08:02:12Z</time></trkpt><trkpt lat="42.20152618540103" lon="14.481996471981567"><ele>27.666666666666668</ele><time>2026-05-02T08:02:13Z</time></trkpt><trkpt lat="42.20138369774215" lon="14.481860020920493"><ele>27.333333333333336</ele><time>2026-05-02T08:02:14Z</time></trkpt><trkpt lat="42.201242396035205" lon="14.481724705565783"><ele>27.0</ele><time>2026-05-02T08:02:15Z</time></trkpt><trkpt lat="42.201101070123954" lon="14.481589366999827"><ele>27.0</ele><time>2026-05-02T08:02:16Z</time></trkpt><trkpt lat="42.20096156228565" lon="14.481455769518996"><ele>27.0</ele><time>2026-05-02T08:02:17Z</time></trkpt><trkpt lat="42.200817946095235" lon="14.481318237713214"><ele>27.0</ele><time>2026-05-02T08:02:18Z</time></trkpt><trkpt lat="42.200667343376935" lon="14.48117401535493"><ele>27.333333333333336</ele><time>2026-05-02T08:02:19Z</time></trkpt><trkpt lat="42.20050029974896" lon="14.481015005599565"><ele>27.666666666666668</ele><time>2026-05-02T08:02:20Z</time></trkpt><trkpt lat="42.200326329347135" lon="14.480849953855806"><ele>28.0</ele><time>2026-05-02T08:02:21Z</time></trkpt><trkpt lat="42.20013389271073" lon="14.480667382484896"><ele>28.0</ele><time>2026-05-02T08:02:22Z</time></trkpt><trkpt lat="42.19993288674634" lon="14.480476681137427"><ele>28.0</ele><time>2026-05-02T08:02:23Z</time></trkpt><trkpt lat="42.19972123548384" lon="14.480275880225287"><ele>29.5</ele><time>2026-05-02T08:02:24Z</time></trkpt><trkpt lat="42.19949951322246" lon="14.480065524606278"><ele>31.0</ele><time>2026-05-02T08:02:25Z</time></trkpt><trkpt lat="42.199274800358594" lon="14.479851686365192"><ele>31.0</ele><time>2026-05-02T08:02:26Z</time></trkpt><trkpt lat="42.19905924049035" lon="14.479645973546903"><ele>31.0</ele><time>2026-05-02T08:02:27Z</time></trkpt><trkpt lat="42.19885033898279" lon="14.479446614919283"><ele>31.0</ele><time>2026-05-02T08:02:28Z</time></trkpt><trkpt lat="42.198641115467886" lon="14.47926327160805"><ele>31.0</ele><time>2026-05-02T08:02:29Z</time></trkpt><trkpt lat="42.19844324985591" lon="14.479060463175742"><ele>31.0</ele><time>2026-05-02T08:02:30Z</time></trkpt><trkpt lat="42.198245564227996" lon="14.478871712553358"><ele>31.0</ele><time>2026-05-02T08:02:31Z</time></trkpt><trkpt lat="42.198050658969365" lon="14.478688921621865"><ele>30.5</ele><time>2026-05-02T08:02:32Z</time></trkpt><trkpt lat="42.19786019451405" lon="14.478505647098277"><ele>30.0</ele><time>2026-05-02T08:02:33Z</time></trkpt><trkpt lat="42.19767234759859" lon="14.4783195714091"><ele>30.0</ele><time>2026-05-02T08:02:34Z</time></trkpt><trkpt lat="42.197484733017234" lon="14.478143194613386"><ele>30.0</ele><time>2026-05-02T08:02:35Z</time></trkpt><trkpt lat="42.19729192575554" lon="14.477967024905547"><ele>31.0</ele><time>2026-05-02T08:02:36Z</time></trkpt><trkpt lat="42.197108317758364" lon="14.477786257175056"><ele>32.0</ele><time>2026-05-02T08:02:37Z</time></trkpt><trkpt lat="42.196925489302274" lon="14.477602756554269"><ele>32.0</ele><time>2026-05-02T08:02:38Z</time></trkpt><trkpt lat="42.196739791443264" lon="14.477422751745692"><ele>32.0</ele><time>2026-05-02T08:02:39Z</time></trkpt><trkpt lat="42.19655139954099" lon="14.47724616274995"><ele>32.0</ele><time>2026-05-02T08:02:40Z</time></trkpt><trkpt lat="42.19636422401012" lon="14.477069766290432"><ele>32.0</ele><time>2026-05-02T08:02:41Z</time></trkpt><trkpt lat="42.19617654062221" lon="14.476889367177384"><ele>32.0</ele><time>2026-05-02T08:02:42Z</time></trkpt><trkpt lat="42.19598636171734" lon="14.476717562082927"><ele>32.0</ele><time>2026-05-02T08:02:43Z</time></trkpt><trkpt lat="42.19579848647272" lon="14.476538121505591"><ele>31.5</ele><time>2026-05-02T08:02:44Z</time></trkpt><trkpt lat="42.19560877778138" lon="14.476359577663093"><ele>31.0</ele><time>2026-05-02T08:02:45Z</time></trkpt><trkpt lat="42.19541849376586" lon="14.47619046566347"><ele>31.0</ele><time>2026-05-02T08:02:46Z</time></trkpt><trkpt lat="42.19523027274856" lon="14.476011062235415"><ele>31.0</ele><time>2026-05-02T08:02:47Z</time></trkpt><trkpt lat="42.19504307481681" lon="14.475830481450148"><ele>31.0</ele><time>2026-05-02T08:02:48Z</time></trkpt><trkpt lat="42.19485499271761" lon="14.475650909249682"><ele>31.0</ele><time>2026-05-02T08:02:49Z</time></trkpt><trkpt lat="42.19466614378423" lon="14.475469251799788"><ele>32.0</ele><time>2026-05-02T08:02:50Z</time></trkpt><trkpt lat="42.194477528217185" lon="14.47528797974563"><ele>33.0</ele><time>2026-05-02T08:02:51Z</time></trkpt><trkpt lat="42.194289696086074" lon="14.475106177776013"><ele>33.0</ele><time>2026-05-02T08:02:52Z</time></trkpt><trkpt lat="42.194101180181626" lon="14.474926068547981"><ele>33.0</ele><time>2026-05-02T08:02:53Z</time></trkpt><trkpt lat="42.19391197731112" lon="14.474749032924716"><ele>32.5</ele><time>2026-05-02T08:02:54Z</time></trkpt><trkpt lat="42.19372308019679" lon="14.474569782967556"><ele>32.0</ele><time>2026-05-02T08:02:55Z</time></trkpt><trkpt lat="42.19353378767382" lon="14.474388424511343"><ele>32.0</ele><time>2026-05-02T08:02:56Z</time></trkpt><trkpt lat="42.193345382941274" lon="14.474207320403213"><ele>32.0</ele><time>2026-05-02T08:02:57Z</time></trkpt><trkpt lat="42.193156864219794" lon="14.474023590188642"><ele>32.0</ele><time>2026-05-02T08:02:58Z</time></trkpt><trkpt lat="42.19296693640611" lon="14.473839152185844"><ele>32.0</ele><time>2026-05-02T08:02:59Z</time></trkpt><trkpt lat="42.192776782366195" lon="14.473654462464662"><ele>32.0</ele><time>2026-05-02T08:03:00Z</time></trkpt><trkpt lat="42.19258241864897" lon="14.473477734296296"><ele>32.0</ele><time>2026-05-02T08:03:01Z</time></trkpt><trkpt lat="42.19239129360724" lon="14.473297893995932"><ele>32.0</ele><time>2026-05-02T08:03:02Z</time></trkpt><trkpt lat="42.192203377554335" lon="14.4731102430752"><ele>32.0</ele><time>2026-05-02T08:03:03Z</time></trkpt><trkpt lat="42.192012325200125" lon="14.472930948199304"><ele>32.5</ele><time>2026-05-02T08:03:04Z</time></trkpt><trkpt lat="42.19182085081665" lon="14.47275138854134"><ele>33.0</ele><time>2026-05-02T08:03:05Z</time></trkpt><trkpt lat="42.19162864875457" lon="14.47257071805185"><ele>32.5</ele><time>2026-05-02T08:03:06Z</time></trkpt><trkpt lat="42.19143705253192" lon="14.472389313536606"><ele>32.0</ele><time>2026-05-02T08:03:07Z</time></trkpt><trkpt lat="42.19124436117536" lon="14.472205744449983"><ele>31.5</ele><time>2026-05-02T08:03:08Z</time></trkpt><trkpt lat="42.19105339713865" lon="14.472020192516991"><ele>31.0</ele><time>2026-05-02T08:03:09Z</time></trkpt><trkpt lat="42.19086232365236" lon="14.471838073943548"><ele>31.0</ele><time>2026-05-02T08:03:10Z</time></trkpt><trkpt lat="42.19067111411991" lon="14.471647980346823"><ele>31.0</ele><time>2026-05-02T08:03:11Z</time></trkpt><trkpt lat="42.1904786840501" lon="14.471468223863491"><ele>31.0</ele><time>2026-05-02T08:03:12Z</time></trkpt><trkpt lat="42.19028847790873" lon="14.471281526906157"><ele>31.0</ele><time>2026-05-02T08:03:13Z</time></trkpt><trkpt lat="42.19009698588741" lon="14.471101506766777"><ele>31.5</ele><time>2026-05-02T08:03:14Z</time></trkpt><trkpt lat="42.18990580314359" lon="14.470920478702606"><ele>32.0</ele><time>2026-05-02T08:03:15Z</time></trkpt><trkpt lat="42.18971361986891" lon="14.470739021900815"><ele>32.5</ele><time>2026-05-02T08:03:16Z</time></trkpt><trkpt lat="42.18952152998628" lon="14.470558097137532"><ele>33.0</ele><time>2026-05-02T08:03:17Z</time></trkpt><trkpt lat="42.18933119634058" lon="14.470376263231966"><ele>33.0</ele><time>2026-05-02T08:03:18Z</time></trkpt><trkpt lat="42.18914105092091" lon="14.470196980130467"><ele>33.0</ele><time>2026-05-02T08:03:19Z</time></trkpt><trkpt lat="42.18895083870388" lon="14.470015821514169"><ele>33.0</ele><time>2026-05-02T08:03:20Z</time></trkpt><trkpt lat="42.188759178038225" lon="14.4698387614941"><ele>33.0</ele><time>2026-05-02T08:03:21Z</time></trkpt><trkpt lat="42.18857168633971" lon="14.469659535053287"><ele>33.0</ele><time>2026-05-02T08:03:22Z</time></trkpt><trkpt lat="42.18838323752187" lon="14.469482335315881"><ele>33.0</ele><time>2026-05-02T08:03:23Z</time></trkpt><trkpt lat="42.18819603348404" lon="14.469306017485946"><ele>34.0</ele><time>2026-05-02T08:03:24Z</time></trkpt><trkpt lat="42.18800879369984" lon="14.469129995197331"><ele>35.0</ele><time>2026-05-02T08:03:25Z</time></trkpt><trkpt lat="42.18782432862384" lon="14.468951127729515"><ele>36.0</ele><time>2026-05-02T08:03:26Z</time></trkpt><trkpt lat="42.18763896592687" lon="14.468775983860544"><ele>37.0</ele><time>2026-05-02T08:03:27Z</time></trkpt><trkpt lat="42.187453700948595" lon="14.468598592255054"><ele>37.5</ele><time>2026-05-02T08:03:28Z</time></trkpt><trkpt lat="42.187267382330624" lon="14.468419308247794"><ele>38.0</ele><time>2026-05-02T08:03:29Z</time></trkpt><trkpt lat="42.187081546084684" lon="14.46824043656907"><ele>38.0</ele><time>2026-05-02T08:03:30Z</time></trkpt><trkpt lat="42.1868959172089" lon="14.468058438240538"><ele>38.0</ele><time>2026-05-02T08:03:31Z</time></trkpt><trkpt lat="42.18670958334935" lon="14.467881319747933"><ele>38.0</ele><time>2026-05-02T08:03:32Z</time></trkpt><trkpt lat="42.18652268643391" lon="14.467701311156686"><ele>38.0</ele><time>2026-05-02T08:03:33Z</time></trkpt><trkpt lat="42.186335662113834" lon="14.467521612370552"><ele>38.0</ele><time>2026-05-02T08:03:34Z</time></trkpt><trkpt lat="42.186148762427614" lon="14.467344643959782"><ele>38.0</ele><time>2026-05-02T08:03:35Z</time></trkpt><trkpt lat="42.18596472679072" lon="14.467159961157071"><ele>38.5</ele><time>2026-05-02T08:03:36Z</time></trkpt><trkpt lat="42.18577819725191" lon="14.466983299872998"><ele>39.0</ele><time>2026-05-02T08:03:37Z</time></trkpt><trkpt lat="42.185593980453184" lon="14.466803951812697"><ele>39.0</ele><time>2026-05-02T08:03:38Z</time></trkpt><trkpt lat="42.185408464626725" lon="14.466625934295646"><ele>39.0</ele><time>2026-05-02T08:03:39Z</time></trkpt><trkpt lat="42.185224340262536" lon="14.466447518798546"><ele>41.5</ele><time>2026-05-02T08:03:40Z</time></trkpt><trkpt lat="42.18503948204322" lon="14.466266942444676"><ele>44.0</ele><time>2026-05-02T08:03:41Z</time></trkpt><trkpt lat="42.184855076288414" lon="14.466089712335512"><ele>42.0</ele><time>2026-05-02T08:03:42Z</time></trkpt><trkpt lat="42.18466355518442" lon="14.465919756054118"><ele>40.0</ele><time>2026-05-02T08:03:43Z</time></trkpt><trkpt lat="42.184477168220056" lon="14.465746046725142"><ele>40.0</ele><time>2026-05-02T08:03:44Z</time></trkpt><trkpt lat="42.18428852098853" lon="14.465564151333277"><ele>40.0</ele><time>2026-05-02T08:03:45Z</time></trkpt><trkpt lat="42.184098520680045" lon="14.465387972796272"><ele>40.5</ele><time>2026-05-02T08:03:46Z</time></trkpt><trkpt lat="42.18391358394201" lon="14.465195562021764"><ele>41.0</ele><time>2026-05-02T08:03:47Z</time></trkpt><trkpt lat="42.183721466697826" lon="14.465019877074326"><ele>41.0</ele><time>2026-05-02T08:03:48Z</time></trkpt><trkpt lat="42.1835312295756" lon="14.464833170707454"><ele>41.0</ele><time>2026-05-02T08:03:49Z</time></trkpt><trkpt lat="42.18333737103693" lon="14.464656847191739"><ele>41.0</ele><time>2026-05-02T08:03:50Z</time></trkpt><trkpt lat="42.183139467481716" lon="14.464476432770514"><ele>41.0</ele><time>2026-05-02T08:03:51Z</time></trkpt><trkpt lat="42.182947569430006" lon="14.4642919574445"><ele>41.0</ele><time>2026-05-02T08:03:52Z</time></trkpt><trkpt lat="42.18276145029137" lon="14.46411065730308"><ele>41.0</ele><time>2026-05-02T08:03:53Z</time></trkpt><trkpt lat="42.18257345775173" lon="14.46392597572335"><ele>40.0</ele><time>2026-05-02T08:03:54Z</time></trkpt><trkpt lat="42.182379543239115" lon="14.463756311815283"><ele>39.0</ele><time>2026-05-02T08:03:55Z</time></trkpt><trkpt lat="42.182195838137865" lon="14.463568806883755"><ele>39.0</ele><time>2026-05-02T08:03:56Z</time></trkpt><trkpt lat="42.18200501460319" lon="14.463389794264433"><ele>39.0</ele><time>2026-05-02T08:03:57Z</time></trkpt><trkpt lat="42.18181764828782" lon="14.463212976166785"><ele>39.0</ele><time>2026-05-02T08:03:58Z</time></trkpt><trkpt lat="42.18163106284256" lon="14.46303773106278"><ele>39.0</ele><time>2026-05-02T08:03:59Z</time></trkpt><trkpt lat="42.181444662974286" lon="14.462864875862245"><ele>40.0</ele><time>2026-05-02T08:04:00Z</time></trkpt><trkpt lat="42.18126045920779" lon="14.462688396063816"><ele>41.0</ele><time>2026-05-02T08:04:01Z</time></trkpt><trkpt lat="42.18107597629765" lon="14.462513831360583"><ele>41.0</ele><time>2026-05-02T08:04:02Z</time></trkpt><trkpt lat="42.18089182130079" lon="14.462337667894777"><ele>41.0</ele><time>2026-05-02T08:04:03Z</time></trkpt><trkpt lat="42.1807078730785" lon="14.462160681304082"><ele>41.5</ele><time>2026-05-02T08:04:04Z</time></trkpt><trkpt lat="42.18052141551738" lon="14.461984057722171"><ele>42.0</ele><time>2026-05-02T08:04:05Z</time></trkpt><trkpt lat="42.18033507038144" lon="14.461808439029184"><ele>42.0</ele><time>2026-05-02T08:04:06Z</time></trkpt><trkpt lat="42.180153617184814" lon="14.461628310396629"><ele>42.0</ele><time>2026-05-02T08:04:07Z</time></trkpt><trkpt lat="42.17996872310577" lon="14.461445690514104"><ele>42.5</ele><time>2026-05-02T08:04:08Z</time></trkpt><trkpt lat="42.17978502173688" lon="14.46127121188973"><ele>43.0</ele><time>2026-05-02T08:04:09Z</time></trkpt><trkpt lat="42.179603116528824" lon="14.461086134091344"><ele>43.0</ele><time>2026-05-02T08:04:10Z</time></trkpt><trkpt lat="42.179416071064544" lon="14.46091838641023"><ele>43.0</ele><time>2026-05-02T08:04:11Z</time></trkpt><trkpt lat="42.179228299027734" lon="14.460744497128143"><ele>43.0</ele><time>2026-05-02T08:04:12Z</time></trkpt><trkpt lat="42.17903952058458" lon="14.460571642463707"><ele>43.0</ele><time>2026-05-02T08:04:13Z</time></trkpt><trkpt lat="42.17885031773498" lon="14.460402183527581"><ele>43.0</ele><time>2026-05-02T08:04:14Z</time></trkpt><trkpt lat="42.178662443327156" lon="14.460227251993764"><ele>43.0</ele><time>2026-05-02T08:04:15Z</time></trkpt><trkpt lat="42.17847654191025" lon="14.460049376738656"><ele>43.0</ele><time>2026-05-02T08:04:16Z</time></trkpt><trkpt lat="42.17829387616559" lon="14.459868633773215"><ele>43.0</ele><time>2026-05-02T08:04:17Z</time></trkpt><trkpt lat="42.178104204244505" lon="14.459693595639985"><ele>44.0</ele><time>2026-05-02T08:04:18Z</time></trkpt><trkpt lat="42.17791746428786" lon="14.45951558702163"><ele>45.0</ele><time>2026-05-02T08:04:19Z</time></trkpt><trkpt lat="42.17773192167698" lon="14.459339070089284"><ele>45.0</ele><time>2026-05-02T08:04:20Z</time></trkpt><trkpt lat="42.17754818373015" lon="14.459164657164356"><ele>45.0</ele><time>2026-05-02T08:04:21Z</time></trkpt><trkpt lat="42.17736462789917" lon="14.458989678556668"><ele>45.0</ele><time>2026-05-02T08:04:22Z</time></trkpt><trkpt lat="42.17718132502681" lon="14.458811060338713"><ele>45.0</ele><time>2026-05-02T08:04:23Z</time></trkpt><trkpt lat="42.17699845754881" lon="14.458637913081992"><ele>45.0</ele><time>2026-05-02T08:04:24Z</time></trkpt><trkpt lat="42.17681569030115" lon="14.45846986456899"><ele>45.0</ele><time>2026-05-02T08:04:25Z</time></trkpt><trkpt lat="42.1766329571355" lon="14.458298537398015"><ele>45.666666666666664</ele><time>2026-05-02T08:04:26Z</time></trkpt><trkpt lat="42.176451139116935" lon="14.458129194609358"><ele>46.33333333333333</ele><time>2026-05-02T08:04:27Z</time></trkpt><trkpt lat="42.176268260511414" lon="14.457955024016774"><ele>47.0</ele><time>2026-05-02T08:04:28Z</time></trkpt><trkpt lat="42.17608769206672" lon="14.457776969410197"><ele>47.0</ele><time>2026-05-02T08:04:29Z</time></trkpt><trkpt lat="42.175906128649814" lon="14.457602124805453"><ele>47.0</ele><time>2026-05-02T08:04:30Z</time></trkpt><trkpt lat="42.175725018490404" lon="14.457427800304481"><ele>47.0</ele><time>2026-05-02T08:04:31Z</time></trkpt><trkpt lat="42.175542789581094" lon="14.457254741320964"><ele>48.0</ele><time>2026-05-02T08:04:32Z</time></trkpt><trkpt lat="42.1753577987995" lon="14.457088848025176"><ele>49.0</ele><time>2026-05-02T08:04:33Z</time></trkpt><trkpt lat="42.17517883433009" lon="14.456915404536407"><ele>50.0</ele><time>2026-05-02T08:04:34Z</time></trkpt><trkpt lat="42.17499643605315" lon="14.456743696878181"><ele>50.333333333333336</ele><time>2026-05-02T08:04:35Z</time></trkpt><trkpt lat="42.17481486140403" lon="14.456565135385901"><ele>50.66666666666667</ele><time>2026-05-02T08:04:36Z</time></trkpt><trkpt lat="42.17463271762266" lon="14.456388392354498"><ele>51.0</ele><time>2026-05-02T08:04:37Z</time></trkpt><trkpt lat="42.17445302000167" lon="14.456212300370796"><ele>51.66666666666667</ele><time>2026-05-02T08:04:38Z</time></trkpt><trkpt lat="42.17427456416497" lon="14.456041541233834"><ele>52.333333333333336</ele><time>2026-05-02T08:04:39Z</time></trkpt><trkpt lat="42.17409660441443" lon="14.455867344299799"><ele>53.0</ele><time>2026-05-02T08:04:40Z</time></trkpt><trkpt lat="42.17391771059406" lon="14.455697128935627"><ele>53.0</ele><time>2026-05-02T08:04:41Z</time></trkpt><trkpt lat="42.173737758952306" lon="14.455526669692718"><ele>53.0</ele><time>2026-05-02T08:04:42Z</time></trkpt><trkpt lat="42.173557232857284" lon="14.455357626746359"><ele>53.0</ele><time>2026-05-02T08:04:43Z</time></trkpt><trkpt lat="42.173377485158426" lon="14.455183426508992"><ele>52.333333333333336</ele><time>2026-05-02T08:04:44Z</time></trkpt><trkpt lat="42.17319797861716" lon="14.455013498378706"><ele>51.66666666666667</ele><time>2026-05-02T08:04:45Z</time></trkpt><trkpt lat="42.173017310734146" lon="14.454841301856323"><ele>51.0</ele><time>2026-05-02T08:04:46Z</time></trkpt><trkpt lat="42.172836586352595" lon="14.454671586263691"><ele>52.0</ele><time>2026-05-02T08:04:47Z</time></trkpt><trkpt lat="42.1726549233352" lon="14.454503217607828"><ele>53.0</ele><time>2026-05-02T08:04:48Z</time></trkpt><trkpt lat="42.1724746984016" lon="14.45432675040377"><ele>54.0</ele><time>2026-05-02T08:04:49Z</time></trkpt><trkpt lat="42.17229207838631" lon="14.454151611218961"><ele>54.0</ele><time>2026-05-02T08:04:50Z</time></trkpt><trkpt lat="42.172106335044624" lon="14.453974123997874"><ele>54.0</ele><time>2026-05-02T08:04:51Z</time></trkpt><trkpt lat="42.171920097917024" lon="14.453797274655301"><ele>54.5</ele><time>2026-05-02T08:04:52Z</time></trkpt><trkpt lat="42.171732091127964" lon="14.453621932025472"><ele>55.0</ele><time>2026-05-02T08:04:53Z</time></trkpt><trkpt lat="42.17154611396579" lon="14.45344398832551"><ele>55.0</ele><time>2026-05-02T08:04:54Z</time></trkpt><trkpt lat="42.17135798740199" lon="14.453265154142183"><ele>55.0</ele><time>2026-05-02T08:04:55Z</time></trkpt><trkpt lat="42.17116817551743" lon="14.453085737328275"><ele>55.5</ele><time>2026-05-02T08:04:56Z</time></trkpt><trkpt lat="42.170979180518515" lon="14.452907238191623"><ele>56.0</ele><time>2026-05-02T08:04:57Z</time></trkpt><trkpt lat="42.17078934915686" lon="14.452725655467617"><ele>53.5</ele><time>2026-05-02T08:04:58Z</time></trkpt><trkpt lat="42.170596430351814" lon="14.452546364004995"><ele>51.0</ele><time>2026-05-02T08:04:59Z</time></trkpt><trkpt lat="42.1704044041218" lon="14.452359466325104"><ele>51.0</ele><time>2026-05-02T08:05:00Z</time></trkpt><trkpt lat="42.17021417632184" lon="14.452175861214492"><ele>51.0</ele><time>2026-05-02T08:05:01Z</time></trkpt><trkpt lat="42.170021533609436" lon="14.451991942581389"><ele>51.5</ele><time>2026-05-02T08:05:02Z</time></trkpt><trkpt lat="42.1698271818191" lon="14.451811725814034"><ele>52.0</ele><time>2026-05-02T08:05:03Z</time></trkpt><trkpt lat="42.16963634946373" lon="14.451629971000548"><ele>52.0</ele><time>2026-05-02T08:05:04Z</time></trkpt><trkpt lat="42.169442538815815" lon="14.451446104926907"><ele>52.0</ele><time>2026-05-02T08:05:05Z</time></trkpt><trkpt lat="42.169249461820336" lon="14.451261960331546"><ele>52.5</ele><time>2026-05-02T08:05:06Z</time></trkpt><trkpt lat="42.16905622091561" lon="14.451079563507657"><ele>53.0</ele><time>2026-05-02T08:05:07Z</time></trkpt><trkpt lat="42.168862937270035" lon="14.450895827639366"><ele>50.5</ele><time>2026-05-02T08:05:08Z</time></trkpt><trkpt lat="42.16866693737797" lon="14.450717278507486"><ele>48.0</ele><time>2026-05-02T08:05:09Z</time></trkpt><trkpt lat="42.16847258864931" lon="14.45053435141026"><ele>48.0</ele><time>2026-05-02T08:05:10Z</time></trkpt><trkpt lat="42.16827985915789" lon="14.450346798372781"><ele>48.0</ele><time>2026-05-02T08:05:11Z</time></trkpt><trkpt lat="42.16808616164374" lon="14.450160275930342"><ele>48.0</ele><time>2026-05-02T08:05:12Z</time></trkpt><trkpt lat="42.16789164389647" lon="14.449976099942988"><ele>48.0</ele><time>2026-05-02T08:05:13Z</time></trkpt><trkpt lat="42.16769576625663" lon="14.449793042393416"><ele>48.5</ele><time>2026-05-02T08:05:14Z</time></trkpt><trkpt lat="42.16750167344109" lon="14.449602441472248"><ele>49.0</ele><time>2026-05-02T08:05:15Z</time></trkpt><trkpt lat="42.16730610337911" lon="14.449415457298862"><ele>49.0</ele><time>2026-05-02T08:05:16Z</time></trkpt><trkpt lat="42.16711107995158" lon="14.449227965873309"><ele>49.0</ele><time>2026-05-02T08:05:17Z</time></trkpt><trkpt lat="42.16691499216955" lon="14.449042415782344"><ele>49.0</ele><time>2026-05-02T08:05:18Z</time></trkpt><trkpt lat="42.16672037522743" lon="14.448859035474559"><ele>49.0</ele><time>2026-05-02T08:05:19Z</time></trkpt><trkpt lat="42.166527203258525" lon="14.448677092322278"><ele>49.0</ele><time>2026-05-02T08:05:20Z</time></trkpt><trkpt lat="42.16633700950871" lon="14.44848814935069"><ele>49.0</ele><time>2026-05-02T08:05:21Z</time></trkpt><trkpt lat="42.16614517282868" lon="14.44830491672675"><ele>49.0</ele><time>2026-05-02T08:05:22Z</time></trkpt><trkpt lat="42.16595204798899" lon="14.448123737809697"><ele>49.0</ele><time>2026-05-02T08:05:23Z</time></trkpt><trkpt lat="42.165759932185715" lon="14.44794412330744"><ele>49.666666666666664</ele><time>2026-05-02T08:05:24Z</time></trkpt><trkpt lat="42.16557520078316" lon="14.447770405948262"><ele>50.33333333333333</ele><time>2026-05-02T08:05:25Z</time></trkpt><trkpt lat="42.165399297369525" lon="14.447605269704889"><ele>51.0</ele><time>2026-05-02T08:05:26Z</time></trkpt><trkpt lat="42.16523189960494" lon="14.447445367351042"><ele>51.0</ele><time>2026-05-02T08:05:27Z</time></trkpt><trkpt lat="42.165072306914105" lon="14.447290525677213"><ele>51.0</ele><time>2026-05-02T08:05:28Z</time></trkpt><trkpt lat="42.1649175565802" lon="14.447144716003573"><ele>51.0</ele><time>2026-05-02T08:05:29Z</time></trkpt><trkpt lat="42.164761844725625" lon="14.447001223053134"><ele>50.33333333333333</ele><time>2026-05-02T08:05:30Z</time></trkpt><trkpt lat="42.164608820425045" lon="14.446856704185423"><ele>49.666666666666664</ele><time>2026-05-02T08:05:31Z</time></trkpt><trkpt lat="42.164461576497615" lon="14.44672238885564"><ele>49.0</ele><time>2026-05-02T08:05:32Z</time></trkpt><trkpt lat="42.164318596817836" lon="14.446587361441056"><ele>49.0</ele><time>2026-05-02T08:05:33Z</time></trkpt><trkpt lat="42.164174762834634" lon="14.446449242481986"><ele>49.0</ele><time>2026-05-02T08:05:34Z</time></trkpt><trkpt lat="42.1640187747198" lon="14.44630935872824"><ele>49.0</ele><time>2026-05-02T08:05:35Z</time></trkpt><trkpt lat="42.163853738185374" lon="14.446152279856436"><ele>49.0</ele><time>2026-05-02T08:05:36Z</time></trkpt><trkpt lat="42.16368032156963" lon="14.445982325150739"><ele>49.0</ele><time>2026-05-02T08:05:37Z</time></trkpt><trkpt lat="42.16350119746586" lon="14.445798536578858"><ele>49.0</ele><time>2026-05-02T08:05:38Z</time></trkpt><trkpt lat="42.16331250046246" lon="14.445614081571765"><ele>50.0</ele><time>2026-05-02T08:05:39Z</time></trkpt><trkpt lat="42.1631180251181" lon="14.445420872940279"><ele>51.0</ele><time>2026-05-02T08:05:40Z</time></trkpt><trkpt lat="42.162918752567684" lon="14.445227658814062"><ele>51.0</ele><time>2026-05-02T08:05:41Z</time></trkpt><trkpt lat="42.1627151577694" lon="14.445035190592018"><ele>51.0</ele><time>2026-05-02T08:05:42Z</time></trkpt><trkpt lat="42.162512593262065" lon="14.44484212196759"><ele>51.0</ele><time>2026-05-02T08:05:43Z</time></trkpt><trkpt lat="42.16230856097468" lon="14.444649089681873"><ele>51.0</ele><time>2026-05-02T08:05:44Z</time></trkpt><trkpt lat="42.1621042833237" lon="14.444455455673934"><ele>50.5</ele><time>2026-05-02T08:05:45Z</time></trkpt><trkpt lat="42.161900325433734" lon="14.444258169614853"><ele>50.0</ele><time>2026-05-02T08:05:46Z</time></trkpt><trkpt lat="42.16169407148889" lon="14.444066020976202"><ele>52.5</ele><time>2026-05-02T08:05:47Z</time></trkpt><trkpt lat="42.16148884291592" lon="14.443876414425922"><ele>55.0</ele><time>2026-05-02T08:05:48Z</time></trkpt><trkpt lat="42.161284447659135" lon="14.443686108061346"><ele>55.0</ele><time>2026-05-02T08:05:49Z</time></trkpt><trkpt lat="42.161083181983415" lon="14.443496070611554"><ele>55.0</ele><time>2026-05-02T08:05:50Z</time></trkpt><trkpt lat="42.16088079885794" lon="14.443308093737206"><ele>54.0</ele><time>2026-05-02T08:05:51Z</time></trkpt><trkpt lat="42.16067969895423" lon="14.443121566878167"><ele>53.0</ele><time>2026-05-02T08:05:52Z</time></trkpt><trkpt lat="42.160479599413634" lon="14.44293428347631"><ele>51.5</ele><time>2026-05-02T08:05:53Z</time></trkpt><trkpt lat="42.16027726340695" lon="14.44275860768338"><ele>50.0</ele><time>2026-05-02T08:05:54Z</time></trkpt><trkpt lat="42.16007857788008" lon="14.442571499868714"><ele>50.0</ele><time>2026-05-02T08:05:55Z</time></trkpt><trkpt lat="42.15988299910435" lon="14.442381691011276"><ele>50.0</ele><time>2026-05-02T08:05:56Z</time></trkpt><trkpt lat="42.1596853525769" lon="14.442168636009288"><ele>50.0</ele><time>2026-05-02T08:05:57Z</time></trkpt><trkpt lat="42.15949141781878" lon="14.441980237016008"><ele>50.0</ele><time>2026-05-02T08:05:58Z</time></trkpt><trkpt lat="42.15929608623696" lon="14.441800595822208"><ele>50.0</ele><time>2026-05-02T08:05:59Z</time></trkpt><trkpt lat="42.15910017331997" lon="14.441612723323841"><ele>50.0</ele><time>2026-05-02T08:06:00Z</time></trkpt><trkpt lat="42.1589024831469" lon="14.441423208835573"><ele>51.0</ele><time>2026-05-02T08:06:01Z</time></trkpt><trkpt lat="42.15870502885917" lon="14.441239703289536"><ele>52.0</ele><time>2026-05-02T08:06:02Z</time></trkpt><trkpt lat="42.15850699679475" lon="14.441045329961222"><ele>52.0</ele><time>2026-05-02T08:06:03Z</time></trkpt><trkpt lat="42.15830967248858" lon="14.440857893761809"><ele>52.0</ele><time>2026-05-02T08:06:04Z</time></trkpt><trkpt lat="42.158112577552785" lon="14.440670374798922"><ele>52.5</ele><time>2026-05-02T08:06:05Z</time></trkpt><trkpt lat="42.157915169642195" lon="14.440487174068421"><ele>53.0</ele><time>2026-05-02T08:06:06Z</time></trkpt><trkpt lat="42.15771793533461" lon="14.44029509018077"><ele>53.0</ele><time>2026-05-02T08:06:07Z</time></trkpt><trkpt lat="42.15752246233626" lon="14.440101826551183"><ele>53.0</ele><time>2026-05-02T08:06:08Z</time></trkpt><trkpt lat="42.15732176765781" lon="14.43991228929828"><ele>52.5</ele><time>2026-05-02T08:06:09Z</time></trkpt><trkpt lat="42.157122972757975" lon="14.439723798043183"><ele>52.0</ele><time>2026-05-02T08:06:10Z</time></trkpt><trkpt lat="42.156928961163715" lon="14.439534240375059"><ele>52.0</ele><time>2026-05-02T08:06:11Z</time></trkpt><trkpt lat="42.1567321380771" lon="14.439336801457001"><ele>52.0</ele><time>2026-05-02T08:06:12Z</time></trkpt><trkpt lat="42.1565342487767" lon="14.439146292370218"><ele>52.0</ele><time>2026-05-02T08:06:13Z</time></trkpt><trkpt lat="42.156336354743445" lon="14.438954700693063"><ele>52.0</ele><time>2026-05-02T08:06:14Z</time></trkpt><trkpt lat="42.15614301520095" lon="14.438744381072393"><ele>52.5</ele><time>2026-05-02T08:06:15Z</time></trkpt><trkpt lat="42.15596453449641" lon="14.438550799976024"><ele>53.0</ele><time>2026-05-02T08:06:16Z</time></trkpt><trkpt lat="42.15575244912052" lon="14.438376015667139"><ele>52.5</ele><time>2026-05-02T08:06:17Z</time></trkpt><trkpt lat="42.15555003891646" lon="14.438193350830709"><ele>52.0</ele><time>2026-05-02T08:06:18Z</time></trkpt><trkpt lat="42.155348796840265" lon="14.43800694676164"><ele>53.0</ele><time>2026-05-02T08:06:19Z</time></trkpt><trkpt lat="42.155148701862736" lon="14.43782363868581"><ele>54.0</ele><time>2026-05-02T08:06:20Z</time></trkpt><trkpt lat="42.15494992449338" lon="14.437638337667408"><ele>55.0</ele><time>2026-05-02T08:06:21Z</time></trkpt><trkpt lat="42.15475279999513" lon="14.437453938831847"><ele>56.0</ele><time>2026-05-02T08:06:22Z</time></trkpt><trkpt lat="42.15455498691279" lon="14.437271124809028"><ele>56.0</ele><time>2026-05-02T08:06:23Z</time></trkpt><trkpt lat="42.15436198343369" lon="14.43708981612577"><ele>56.0</ele><time>2026-05-02T08:06:24Z</time></trkpt><trkpt lat="42.154168632670014" lon="14.436911105859611"><ele>56.0</ele><time>2026-05-02T08:06:25Z</time></trkpt><trkpt lat="42.153980719093596" lon="14.436735764670612"><ele>56.0</ele><time>2026-05-02T08:06:26Z</time></trkpt><trkpt lat="42.15379295525624" lon="14.436557574444723"><ele>56.0</ele><time>2026-05-02T08:06:27Z</time></trkpt><trkpt lat="42.153606685307224" lon="14.436376676632781"><ele>56.0</ele><time>2026-05-02T08:06:28Z</time></trkpt><trkpt lat="42.15342351617709" lon="14.43620195163581"><ele>55.66666666666667</ele><time>2026-05-02T08:06:29Z</time></trkpt><trkpt lat="42.15324400119398" lon="14.436037103140137"><ele>55.33333333333333</ele><time>2026-05-02T08:06:30Z</time></trkpt><trkpt lat="42.15306651176785" lon="14.435871488707546"><ele>55.0</ele><time>2026-05-02T08:06:31Z</time></trkpt><trkpt lat="42.15289309652888" lon="14.43570442278657"><ele>55.0</ele><time>2026-05-02T08:06:32Z</time></trkpt><trkpt lat="42.15272588775323" lon="14.435521731390692"><ele>55.0</ele><time>2026-05-02T08:06:33Z</time></trkpt><trkpt lat="42.152554861032804" lon="14.435359511294232"><ele>55.0</ele><time>2026-05-02T08:06:34Z</time></trkpt><trkpt lat="42.152375728338875" lon="14.435213824555717"><ele>55.33333333333333</ele><time>2026-05-02T08:06:35Z</time></trkpt><trkpt lat="42.152203466883755" lon="14.435052890902938"><ele>55.66666666666667</ele><time>2026-05-02T08:06:36Z</time></trkpt><trkpt lat="42.15203171993002" lon="14.434891686278055"><ele>56.0</ele><time>2026-05-02T08:06:37Z</time></trkpt><trkpt lat="42.1518619505586" lon="14.434729470366248"><ele>56.0</ele><time>2026-05-02T08:06:38Z</time></trkpt><trkpt lat="42.15169981308421" lon="14.434550597933484"><ele>56.0</ele><time>2026-05-02T08:06:39Z</time></trkpt><trkpt lat="42.15152890826785" lon="14.434388914386806"><ele>56.0</ele><time>2026-05-02T08:06:40Z</time></trkpt><trkpt lat="42.151358236444786" lon="14.434227451258359"><ele>56.0</ele><time>2026-05-02T08:06:41Z</time></trkpt><trkpt lat="42.15118935685327" lon="14.434067683656549"><ele>56.0</ele><time>2026-05-02T08:06:42Z</time></trkpt><trkpt lat="42.1510212320824" lon="14.43390863016718"><ele>56.0</ele><time>2026-05-02T08:06:43Z</time></trkpt><trkpt lat="42.15085414830586" lon="14.433750136839988"><ele>55.66666666666667</ele><time>2026-05-02T08:06:44Z</time></trkpt><trkpt lat="42.15068920615776" lon="14.433593530524046"><ele>55.33333333333333</ele><time>2026-05-02T08:06:45Z</time></trkpt><trkpt lat="42.150524770450964" lon="14.43343732257206"><ele>55.0</ele><time>2026-05-02T08:06:46Z</time></trkpt><trkpt lat="42.15036116300812" lon="14.433281733366774"><ele>55.0</ele><time>2026-05-02T08:06:47Z</time></trkpt><trkpt lat="42.1501917412765" lon="14.43314031615156"><ele>55.0</ele><time>2026-05-02T08:06:48Z</time></trkpt><trkpt lat="42.15002696390094" lon="14.432981856794012"><ele>55.0</ele><time>2026-05-02T08:06:49Z</time></trkpt><trkpt lat="42.14986929139932" lon="14.432827915342894"><ele>55.33333333333333</ele><time>2026-05-02T08:06:50Z</time></trkpt><trkpt lat="42.14970590989472" lon="14.432674790123928"><ele>55.66666666666667</ele><time>2026-05-02T08:06:51Z</time></trkpt><trkpt lat="42.149544230955875" lon="14.432522545397855"><ele>56.0</ele><time>2026-05-02T08:06:52Z</time></trkpt><trkpt lat="42.14938038527271" lon="14.432367506079872"><ele>56.0</ele><time>2026-05-02T08:06:53Z</time></trkpt><trkpt lat="42.14921176930477" lon="14.432206642633046"><ele>56.0</ele><time>2026-05-02T08:06:54Z</time></trkpt><trkpt lat="42.14904104727174" lon="14.432047441090651"><ele>56.0</ele><time>2026-05-02T08:06:55Z</time></trkpt><trkpt lat="42.14887013349192" lon="14.431880479553879"><ele>56.333333333333336</ele><time>2026-05-02T08:06:56Z</time></trkpt><trkpt lat="42.148698477565766" lon="14.431713840777615"><ele>56.66666666666667</ele><time>2026-05-02T08:06:57Z</time></trkpt><trkpt lat="42.148525153385314" lon="14.431544203445489"><ele>57.0</ele><time>2026-05-02T08:06:58Z</time></trkpt><trkpt lat="42.148354316502115" lon="14.431370218373965"><ele>57.66666666666667</ele><time>2026-05-02T08:06:59Z</time></trkpt><trkpt lat="42.148176168654594" lon="14.431205778656063"><ele>58.333333333333336</ele><time>2026-05-02T08:07:00Z</time></trkpt><trkpt lat="42.14800460218633" lon="14.431042235077584"><ele>59.0</ele><time>2026-05-02T08:07:01Z</time></trkpt><trkpt lat="42.14783372961402" lon="14.430865007214516"><ele>59.0</ele><time>2026-05-02T08:07:02Z</time></trkpt><trkpt lat="42.14766354396478" lon="14.430699728050994"><ele>59.0</ele><time>2026-05-02T08:07:03Z</time></trkpt><trkpt lat="42.14749441528349" lon="14.430537715126743"><ele>59.0</ele><time>2026-05-02T08:07:04Z</time></trkpt><trkpt lat="42.147317860431095" lon="14.43039337228581"><ele>58.66666666666667</ele><time>2026-05-02T08:07:05Z</time></trkpt><trkpt lat="42.14715748054297" lon="14.430233542106292"><ele>58.33333333333333</ele><time>2026-05-02T08:07:06Z</time></trkpt><trkpt lat="42.146986109787754" lon="14.430098283216724"><ele>58.0</ele><time>2026-05-02T08:07:07Z</time></trkpt><trkpt lat="42.146840832618054" lon="14.429959373691798"><ele>58.0</ele><time>2026-05-02T08:07:08Z</time></trkpt><trkpt lat="42.14670056791436" lon="14.429801171910336"><ele>58.0</ele><time>2026-05-02T08:07:09Z</time></trkpt><trkpt lat="42.14653261195103" lon="14.429678658095765"><ele>58.0</ele><time>2026-05-02T08:07:10Z</time></trkpt><trkpt lat="42.146368233702326" lon="14.429532354256137"><ele>58.666666666666664</ele><time>2026-05-02T08:07:11Z</time></trkpt><trkpt lat="42.14620529268561" lon="14.429381741731413"><ele>59.33333333333333</ele><time>2026-05-02T08:07:12Z</time></trkpt><trkpt lat="42.14604089789082" lon="14.429229691824824"><ele>60.0</ele><time>2026-05-02T08:07:13Z</time></trkpt><trkpt lat="42.14587602022977" lon="14.42907535770798"><ele>60.0</ele><time>2026-05-02T08:07:14Z</time></trkpt><trkpt lat="42.145710929496396" lon="14.428915533155513"><ele>60.0</ele><time>2026-05-02T08:07:15Z</time></trkpt><trkpt lat="42.145544672647695" lon="14.428758881364608"><ele>60.0</ele><time>2026-05-02T08:07:16Z</time></trkpt><trkpt lat="42.14537565669564" lon="14.428612062560017"><ele>60.33333333333333</ele><time>2026-05-02T08:07:17Z</time></trkpt><trkpt lat="42.14521000010242" lon="14.42843778568373"><ele>60.666666666666664</ele><time>2026-05-02T08:07:18Z</time></trkpt><trkpt lat="42.14504097344896" lon="14.428276737580719"><ele>61.0</ele><time>2026-05-02T08:07:19Z</time></trkpt><trkpt lat="42.144873088029996" lon="14.428110464483387"><ele>61.33333333333333</ele><time>2026-05-02T08:07:20Z</time></trkpt><trkpt lat="42.14470452128128" lon="14.42794659126955"><ele>61.66666666666667</ele><time>2026-05-02T08:07:21Z</time></trkpt><trkpt lat="42.14453654009618" lon="14.42778363649608"><ele>62.0</ele><time>2026-05-02T08:07:22Z</time></trkpt><trkpt lat="42.144368112056895" lon="14.427624819121688"><ele>62.0</ele><time>2026-05-02T08:07:23Z</time></trkpt><trkpt lat="42.144201215310176" lon="14.427464298325022"><ele>62.0</ele><time>2026-05-02T08:07:24Z</time></trkpt><trkpt lat="42.1440338692796" lon="14.42731668385095"><ele>62.0</ele><time>2026-05-02T08:07:25Z</time></trkpt><trkpt lat="42.14386971456099" lon="14.427150687313972"><ele>63.333333333333336</ele><time>2026-05-02T08:07:26Z</time></trkpt><trkpt lat="42.143706007353906" lon="14.426985187952425"><ele>64.66666666666667</ele><time>2026-05-02T08:07:27Z</time></trkpt><trkpt lat="42.143542235989216" lon="14.426826122283947"><ele>66.0</ele><time>2026-05-02T08:07:28Z</time></trkpt><trkpt lat="42.14337762000244" lon="14.426665644654904"><ele>66.0</ele><time>2026-05-02T08:07:29Z</time></trkpt><trkpt lat="42.14321985354185" lon="14.426498931720788"><ele>66.0</ele><time>2026-05-02T08:07:30Z</time></trkpt><trkpt lat="42.14306425268034" lon="14.426337303795394"><ele>66.0</ele><time>2026-05-02T08:07:31Z</time></trkpt><trkpt lat="42.14290952644985" lon="14.426180832603963"><ele>66.33333333333333</ele><time>2026-05-02T08:07:32Z</time></trkpt><trkpt lat="42.14275652330107" lon="14.42602361973125"><ele>66.66666666666666</ele><time>2026-05-02T08:07:33Z</time></trkpt><trkpt lat="42.14260922430411" lon="14.425868402123664"><ele>67.0</ele><time>2026-05-02T08:07:34Z</time></trkpt><trkpt lat="42.142466887420795" lon="14.425727718688389"><ele>67.0</ele><time>2026-05-02T08:07:35Z</time></trkpt><trkpt lat="42.14232751975501" lon="14.425576708291837"><ele>67.0</ele><time>2026-05-02T08:07:36Z</time></trkpt><trkpt lat="42.14218979430222" lon="14.425414514047858"><ele>67.0</ele><time>2026-05-02T08:07:37Z</time></trkpt><trkpt lat="42.142051893229606" lon="14.425252805724234"><ele>67.0</ele><time>2026-05-02T08:07:38Z</time></trkpt><trkpt lat="42.1419100732753" lon="14.425087595956052"><ele>67.0</ele><time>2026-05-02T08:07:39Z</time></trkpt><trkpt lat="42.14176351159671" lon="14.424912239851766"><ele>67.0</ele><time>2026-05-02T08:07:40Z</time></trkpt><trkpt lat="42.141614570166446" lon="14.424731241084352"><ele>67.66666666666666</ele><time>2026-05-02T08:07:41Z</time></trkpt><trkpt lat="42.141459470099406" lon="14.424547143312262"><ele>68.33333333333333</ele><time>2026-05-02T08:07:42Z</time></trkpt><trkpt lat="42.141301725705254" lon="14.424358031864635"><ele>69.0</ele><time>2026-05-02T08:07:43Z</time></trkpt><trkpt lat="42.14114310632975" lon="14.424159038348286"><ele>69.0</ele><time>2026-05-02T08:07:44Z</time></trkpt><trkpt lat="42.14098491388236" lon="14.423956671289528"><ele>69.0</ele><time>2026-05-02T08:07:45Z</time></trkpt><trkpt lat="42.1408283866468" lon="14.423747359696446"><ele>69.0</ele><time>2026-05-02T08:07:46Z</time></trkpt><trkpt lat="42.1406700660314" lon="14.423543834453792"><ele>68.33333333333333</ele><time>2026-05-02T08:07:47Z</time></trkpt><trkpt lat="42.140513088683136" lon="14.423334190287624"><ele>67.66666666666666</ele><time>2026-05-02T08:07:48Z</time></trkpt><trkpt lat="42.140357495247855" lon="14.423121118432988"><ele>67.0</ele><time>2026-05-02T08:07:49Z</time></trkpt><trkpt lat="42.14020477627525" lon="14.422903180042852"><ele>66.66666666666666</ele><time>2026-05-02T08:07:50Z</time></trkpt><trkpt lat="42.14005212592813" lon="14.422685088744123"><ele>66.33333333333333</ele><time>2026-05-02T08:07:51Z</time></trkpt><trkpt lat="42.139903711307085" lon="14.422458045043069"><ele>66.0</ele><time>2026-05-02T08:07:52Z</time></trkpt><trkpt lat="42.13975568949839" lon="14.422236318759817"><ele>65.66666666666667</ele><time>2026-05-02T08:07:53Z</time></trkpt><trkpt lat="42.13960396184702" lon="14.422023742392412"><ele>65.33333333333334</ele><time>2026-05-02T08:07:54Z</time></trkpt><trkpt lat="42.13945584355696" lon="14.42180967294306"><ele>65.0</ele><time>2026-05-02T08:07:55Z</time></trkpt><trkpt lat="42.13930590180912" lon="14.421581598190171"><ele>65.0</ele><time>2026-05-02T08:07:56Z</time></trkpt><trkpt lat="42.13916725883762" lon="14.421346728177369"><ele>65.0</ele><time>2026-05-02T08:07:57Z</time></trkpt><trkpt lat="42.13901681073695" lon="14.421130199781153"><ele>65.0</ele><time>2026-05-02T08:07:58Z</time></trkpt><trkpt lat="42.138880170436614" lon="14.420898251684676"><ele>65.33333333333334</ele><time>2026-05-02T08:07:59Z</time></trkpt><trkpt lat="42.13874146304301" lon="14.420661437632809"><ele>65.66666666666667</ele><time>2026-05-02T08:08:00Z</time></trkpt><trkpt lat="42.13860561974768" lon="14.420429435473524"><ele>66.0</ele><time>2026-05-02T08:08:01Z</time></trkpt><trkpt lat="42.13847855655592" lon="14.420181901256129"><ele>66.5</ele><time>2026-05-02T08:08:02Z</time></trkpt><trkpt lat="42.138343713811494" lon="14.41993930854216"><ele>67.0</ele><time>2026-05-02T08:08:03Z</time></trkpt><trkpt lat="42.13821348244855" lon="14.419688794669524"><ele>67.33333333333333</ele><time>2026-05-02T08:08:04Z</time></trkpt><trkpt lat="42.13808280909063" lon="14.41944291913724"><ele>67.66666666666667</ele><time>2026-05-02T08:08:05Z</time></trkpt><trkpt lat="42.1379415449587" lon="14.419214398724176"><ele>68.0</ele><time>2026-05-02T08:08:06Z</time></trkpt><trkpt lat="42.13780515386517" lon="14.418975795292178"><ele>68.0</ele><time>2026-05-02T08:08:07Z</time></trkpt><trkpt lat="42.137671814519784" lon="14.41873498551841"><ele>68.0</ele><time>2026-05-02T08:08:08Z</time></trkpt><trkpt lat="42.13753820960099" lon="14.418495184898372"><ele>68.0</ele><time>2026-05-02T08:08:09Z</time></trkpt><trkpt lat="42.13740937580424" lon="14.418254701053232"><ele>67.66666666666667</ele><time>2026-05-02T08:08:10Z</time></trkpt><trkpt lat="42.137281765427986" lon="14.418013606908263"><ele>67.33333333333333</ele><time>2026-05-02T08:08:11Z</time></trkpt><trkpt lat="42.137147850070825" lon="14.417772289536892"><ele>67.0</ele><time>2026-05-02T08:08:12Z</time></trkpt><trkpt lat="42.13701414843752" lon="14.417530384927241"><ele>67.0</ele><time>2026-05-02T08:08:13Z</time></trkpt><trkpt lat="42.136920379613315" lon="14.41725083056068"><ele>67.0</ele><time>2026-05-02T08:08:14Z</time></trkpt><trkpt lat="42.136788231310504" lon="14.41700782390769"><ele>67.33333333333333</ele><time>2026-05-02T08:08:15Z</time></trkpt><trkpt lat="42.13666088938687" lon="14.416773689901014"><ele>67.66666666666667</ele><time>2026-05-02T08:08:16Z</time></trkpt><trkpt lat="42.13652727469616" lon="14.416528022750908"><ele>68.0</ele><time>2026-05-02T08:08:17Z</time></trkpt><trkpt lat="42.13639715657091" lon="14.416288784450158"><ele>68.33333333333334</ele><time>2026-05-02T08:08:18Z</time></trkpt><trkpt lat="42.1362667187689" lon="14.416048958405431"><ele>68.66666666666667</ele><time>2026-05-02T08:08:19Z</time></trkpt><trkpt lat="42.13613556779243" lon="14.415807821103565"><ele>69.0</ele><time>2026-05-02T08:08:20Z</time></trkpt><trkpt lat="42.136004685242554" lon="14.415567177205192"><ele>69.33333333333333</ele><time>2026-05-02T08:08:21Z</time></trkpt><trkpt lat="42.13587317752595" lon="14.415325570957448"><ele>69.66666666666666</ele><time>2026-05-02T08:08:22Z</time></trkpt><trkpt lat="42.13574183555407" lon="14.415084490058977"><ele>70.0</ele><time>2026-05-02T08:08:23Z</time></trkpt><trkpt lat="42.135610030525825" lon="14.414842559188049"><ele>70.66666666666666</ele><time>2026-05-02T08:08:24Z</time></trkpt><trkpt lat="42.135479014955145" lon="14.414601812434531"><ele>71.33333333333333</ele><time>2026-05-02T08:08:25Z</time></trkpt><trkpt lat="42.13534929311702" lon="14.414362830659387"><ele>72.0</ele><time>2026-05-02T08:08:26Z</time></trkpt><trkpt lat="42.13522164293056" lon="14.414127189949765"><ele>72.0</ele><time>2026-05-02T08:08:27Z</time></trkpt><trkpt lat="42.135102051170385" lon="14.413906373986004"><ele>72.0</ele><time>2026-05-02T08:08:28Z</time></trkpt><trkpt lat="42.13498702781133" lon="14.413695538635986"><ele>72.0</ele><time>2026-05-02T08:08:29Z</time></trkpt><trkpt lat="42.13487482513491" lon="14.413491719419342"><ele>72.0</ele><time>2026-05-02T08:08:30Z</time></trkpt><trkpt lat="42.13476608107969" lon="14.413294182873793"><ele>72.0</ele><time>2026-05-02T08:08:31Z</time></trkpt><trkpt lat="42.13466272303027" lon="14.413102694866554"><ele>72.0</ele><time>2026-05-02T08:08:32Z</time></trkpt><trkpt lat="42.134555930868416" lon="14.412901034982262"><ele>72.0</ele><time>2026-05-02T08:08:33Z</time></trkpt><trkpt lat="42.13444824940877" lon="14.412704900917534"><ele>72.0</ele><time>2026-05-02T08:08:34Z</time></trkpt><trkpt lat="42.13434198245787" lon="14.412511994355325"><ele>72.0</ele><time>2026-05-02T08:08:35Z</time></trkpt><trkpt lat="42.13423418542045" lon="14.41231684745828"><ele>71.33333333333333</ele><time>2026-05-02T08:08:36Z</time></trkpt><trkpt lat="42.13412849101811" lon="14.412121335235648"><ele>70.66666666666666</ele><time>2026-05-02T08:08:37Z</time></trkpt><trkpt lat="42.13402316960354" lon="14.41192675716751"><ele>70.0</ele><time>2026-05-02T08:08:38Z</time></trkpt><trkpt lat="42.133918598372965" lon="14.411733697747488"><ele>71.33333333333333</ele><time>2026-05-02T08:08:39Z</time></trkpt><trkpt lat="42.133817444665326" lon="14.411546947844935"><ele>72.66666666666667</ele><time>2026-05-02T08:08:40Z</time></trkpt><trkpt lat="42.133722059128594" lon="14.411371418214896"><ele>74.0</ele><time>2026-05-02T08:08:41Z</time></trkpt><trkpt lat="42.1336344923518" lon="14.41121053521945"><ele>74.0</ele><time>2026-05-02T08:08:42Z</time></trkpt><trkpt lat="42.133550154572994" lon="14.411055584759428"><ele>74.0</ele><time>2026-05-02T08:08:43Z</time></trkpt><trkpt lat="42.133462959224296" lon="14.410895345719362"><ele>74.0</ele><time>2026-05-02T08:08:44Z</time></trkpt><trkpt lat="42.133383431816355" lon="14.410748580919307"><ele>74.0</ele><time>2026-05-02T08:08:45Z</time></trkpt><trkpt lat="42.133307953555416" lon="14.410609288634276"><ele>74.0</ele><time>2026-05-02T08:08:46Z</time></trkpt><trkpt lat="42.13323394607594" lon="14.410472710692654"><ele>74.0</ele><time>2026-05-02T08:08:47Z</time></trkpt><trkpt lat="42.13315915762278" lon="14.410334691465152"><ele>74.0</ele><time>2026-05-02T08:08:48Z</time></trkpt><trkpt lat="42.13308930826906" lon="14.410205787136405"><ele>74.0</ele><time>2026-05-02T08:08:49Z</time></trkpt><trkpt lat="42.13301496858099" lon="14.41006914828396"><ele>74.75</ele><time>2026-05-02T08:08:50Z</time></trkpt><trkpt lat="42.13294089584723" lon="14.409932996200586"><ele>75.5</ele><time>2026-05-02T08:08:51Z</time></trkpt><trkpt lat="42.13284042100997" lon="14.40981189276374"><ele>76.25</ele><time>2026-05-02T08:08:52Z</time></trkpt><trkpt lat="42.13275094574197" lon="14.40966656521668"><ele>77.0</ele><time>2026-05-02T08:08:53Z</time></trkpt><trkpt lat="42.13266419047827" lon="14.409511391665314"><ele>78.0</ele><time>2026-05-02T08:08:54Z</time></trkpt><trkpt lat="42.1325714780335" lon="14.40935069048134"><ele>79.0</ele><time>2026-05-02T08:08:55Z</time></trkpt><trkpt lat="42.13250656852197" lon="14.409135134534157"><ele>80.0</ele><time>2026-05-02T08:08:56Z</time></trkpt><trkpt lat="42.13240513747591" lon="14.408948195494299"><ele>79.33333333333334</ele><time>2026-05-02T08:08:57Z</time></trkpt><trkpt lat="42.132295480760966" lon="14.40874609767522"><ele>78.66666666666667</ele><time>2026-05-02T08:08:58Z</time></trkpt><trkpt lat="42.13218598152775" lon="14.40854461670962"><ele>78.0</ele><time>2026-05-02T08:08:59Z</time></trkpt><trkpt lat="42.13206650971359" lon="14.408325292139986"><ele>78.0</ele><time>2026-05-02T08:09:00Z</time></trkpt><trkpt lat="42.13193757825896" lon="14.408088601772192"><ele>78.0</ele><time>2026-05-02T08:09:01Z</time></trkpt><trkpt lat="42.1318011440602" lon="14.407838137946667"><ele>78.0</ele><time>2026-05-02T08:09:02Z</time></trkpt><trkpt lat="42.13165400038971" lon="14.407568013891366"><ele>77.0</ele><time>2026-05-02T08:09:03Z</time></trkpt><trkpt lat="42.13150299930573" lon="14.407290808393507"><ele>76.0</ele><time>2026-05-02T08:09:04Z</time></trkpt><trkpt lat="42.131344141880156" lon="14.406999108076095"><ele>75.5</ele><time>2026-05-02T08:09:05Z</time></trkpt><trkpt lat="42.131183734582144" lon="14.406704455051333"><ele>75.0</ele><time>2026-05-02T08:09:06Z</time></trkpt><trkpt lat="42.131021830309834" lon="14.406407052227813"><ele>75.5</ele><time>2026-05-02T08:09:07Z</time></trkpt><trkpt lat="42.13085674200396" lon="14.406103800622443"><ele>76.0</ele><time>2026-05-02T08:09:08Z</time></trkpt><trkpt lat="42.13069009358424" lon="14.405797678721722"><ele>75.5</ele><time>2026-05-02T08:09:09Z</time></trkpt><trkpt lat="42.13052509622468" lon="14.405494589043627"><ele>75.0</ele><time>2026-05-02T08:09:10Z</time></trkpt><trkpt lat="42.130355439212664" lon="14.405182939849569"><ele>75.0</ele><time>2026-05-02T08:09:11Z</time></trkpt><trkpt lat="42.13018865212391" lon="14.404876562541576"><ele>75.0</ele><time>2026-05-02T08:09:12Z</time></trkpt><trkpt lat="42.130018863268454" lon="14.404564671157546"><ele>76.5</ele><time>2026-05-02T08:09:13Z</time></trkpt><trkpt lat="42.129849170496044" lon="14.404252956279414"><ele>78.0</ele><time>2026-05-02T08:09:14Z</time></trkpt><trkpt lat="42.129677885976236" lon="14.403938317495127"><ele>78.0</ele><time>2026-05-02T08:09:15Z</time></trkpt><trkpt lat="42.12950671742687" lon="14.403624676727906"><ele>78.0</ele><time>2026-05-02T08:09:16Z</time></trkpt><trkpt lat="42.12933412811922" lon="14.403306212115528"><ele>78.0</ele><time>2026-05-02T08:09:17Z</time></trkpt><trkpt lat="42.12916255421071" lon="14.402989632720331"><ele>78.0</ele><time>2026-05-02T08:09:18Z</time></trkpt><trkpt lat="42.12899132181899" lon="14.402674726460964"><ele>78.0</ele><time>2026-05-02T08:09:19Z</time></trkpt><trkpt lat="42.12881844996954" lon="14.402356805098051"><ele>78.0</ele><time>2026-05-02T08:09:20Z</time></trkpt><trkpt lat="42.128648705234546" lon="14.402044634682879"><ele>78.0</ele><time>2026-05-02T08:09:21Z</time></trkpt><trkpt lat="42.12847964590945" lon="14.401733724769842"><ele>78.0</ele><time>2026-05-02T08:09:22Z</time></trkpt><trkpt lat="42.12831076911596" lon="14.401423150549487"><ele>78.5</ele><time>2026-05-02T08:09:23Z</time></trkpt><trkpt lat="42.12814475684837" lon="14.401117844383998"><ele>79.0</ele><time>2026-05-02T08:09:24Z</time></trkpt><trkpt lat="42.127979763865774" lon="14.40081621433427"><ele>79.0</ele><time>2026-05-02T08:09:25Z</time></trkpt><trkpt lat="42.127816629545315" lon="14.400518289140413"><ele>79.0</ele><time>2026-05-02T08:09:26Z</time></trkpt><trkpt lat="42.12765432461517" lon="14.400222123898347"><ele>80.0</ele><time>2026-05-02T08:09:27Z</time></trkpt><trkpt lat="42.12749379726717" lon="14.39992745423657"><ele>81.0</ele><time>2026-05-02T08:09:28Z</time></trkpt><trkpt lat="42.12733419037499" lon="14.39963391064456"><ele>81.5</ele><time>2026-05-02T08:09:29Z</time></trkpt><trkpt lat="42.1271748638561" lon="14.399340880713796"><ele>82.0</ele><time>2026-05-02T08:09:30Z</time></trkpt><trkpt lat="42.12701463417791" lon="14.399046190267292"><ele>82.0</ele><time>2026-05-02T08:09:31Z</time></trkpt><trkpt lat="42.12685483727657" lon="14.39875229571339"><ele>82.0</ele><time>2026-05-02T08:09:32Z</time></trkpt><trkpt lat="42.12669650017396" lon="14.398461086004225"><ele>82.0</ele><time>2026-05-02T08:09:33Z</time></trkpt><trkpt lat="42.12653862569125" lon="14.398170727121302"><ele>82.0</ele><time>2026-05-02T08:09:34Z</time></trkpt><trkpt lat="42.12637737526034" lon="14.397874159288177"><ele>82.5</ele><time>2026-05-02T08:09:35Z</time></trkpt><trkpt lat="42.12621860114939" lon="14.397582145876106"><ele>83.0</ele><time>2026-05-02T08:09:36Z</time></trkpt><trkpt lat="42.12606163754695" lon="14.397293462233781"><ele>83.0</ele><time>2026-05-02T08:09:37Z</time></trkpt><trkpt lat="42.12590438733623" lon="14.397004251501935"><ele>83.0</ele><time>2026-05-02T08:09:38Z</time></trkpt><trkpt lat="42.125750280224985" lon="14.396721178343954"><ele>83.5</ele><time>2026-05-02T08:09:39Z</time></trkpt><trkpt lat="42.12559244150372" lon="14.396432307491667"><ele>84.0</ele><time>2026-05-02T08:09:40Z</time></trkpt><trkpt lat="42.12543583755098" lon="14.396145691208357"><ele>84.0</ele><time>2026-05-02T08:09:41Z</time></trkpt><trkpt lat="42.125279133479765" lon="14.395858278144592"><ele>84.0</ele><time>2026-05-02T08:09:42Z</time></trkpt><trkpt lat="42.12512174470242" lon="14.395569182287426"><ele>84.0</ele><time>2026-05-02T08:09:43Z</time></trkpt><trkpt lat="42.124967451497746" lon="14.39528577244261"><ele>84.0</ele><time>2026-05-02T08:09:44Z</time></trkpt><trkpt lat="42.12481255565533" lon="14.39500125562773"><ele>85.0</ele><time>2026-05-02T08:09:45Z</time></trkpt><trkpt lat="42.12465761282489" lon="14.394716652527823"><ele>86.0</ele><time>2026-05-02T08:09:46Z</time></trkpt><trkpt lat="42.124503943869136" lon="14.394434389321718"><ele>86.0</ele><time>2026-05-02T08:09:47Z</time></trkpt><trkpt lat="42.124347325939794" lon="14.394145864837885"><ele>86.0</ele><time>2026-05-02T08:09:48Z</time></trkpt><trkpt lat="42.124189542063256" lon="14.393855514180416"><ele>86.5</ele><time>2026-05-02T08:09:49Z</time></trkpt><trkpt lat="42.12403389865947" lon="14.393569395208365"><ele>87.0</ele><time>2026-05-02T08:09:50Z</time></trkpt><trkpt lat="42.12387607873319" lon="14.39327927520455"><ele>88.0</ele><time>2026-05-02T08:09:51Z</time></trkpt><trkpt lat="42.12371930081711" lon="14.39299107069522"><ele>89.0</ele><time>2026-05-02T08:09:52Z</time></trkpt><trkpt lat="42.12355881490316" lon="14.392697042911925"><ele>89.0</ele><time>2026-05-02T08:09:53Z</time></trkpt><trkpt lat="42.123400101946075" lon="14.392406536084824"><ele>89.0</ele><time>2026-05-02T08:09:54Z</time></trkpt><trkpt lat="42.12324132306103" lon="14.392115908479388"><ele>90.5</ele><time>2026-05-02T08:09:55Z</time></trkpt><trkpt lat="42.12308266367983" lon="14.391825497622765"><ele>92.0</ele><time>2026-05-02T08:09:56Z</time></trkpt><trkpt lat="42.122920473885216" lon="14.391528624316804"><ele>93.0</ele><time>2026-05-02T08:09:57Z</time></trkpt><trkpt lat="42.1227603610991" lon="14.391241255084566"><ele>94.0</ele><time>2026-05-02T08:09:58Z</time></trkpt><trkpt lat="42.12256480902257" lon="14.390988685524377"><ele>94.0</ele><time>2026-05-02T08:09:59Z</time></trkpt><trkpt lat="42.1224115208915" lon="14.390698358257724"><ele>94.0</ele><time>2026-05-02T08:10:00Z</time></trkpt><trkpt lat="42.122249130601794" lon="14.390405524956227"><ele>94.0</ele><time>2026-05-02T08:10:01Z</time></trkpt><trkpt lat="42.12209201870852" lon="14.390111721796382"><ele>94.0</ele><time>2026-05-02T08:10:02Z</time></trkpt><trkpt lat="42.12193122824392" lon="14.389822635430859"><ele>94.5</ele><time>2026-05-02T08:10:03Z</time></trkpt><trkpt lat="42.12177306139244" lon="14.38953152958761"><ele>95.0</ele><time>2026-05-02T08:10:04Z</time></trkpt><trkpt lat="42.121611476044656" lon="14.389241137718727"><ele>95.0</ele><time>2026-05-02T08:10:05Z</time></trkpt><trkpt lat="42.121451972365854" lon="14.388950960658162"><ele>95.0</ele><time>2026-05-02T08:10:06Z</time></trkpt><trkpt lat="42.12129283594162" lon="14.388661963061658"><ele>93.5</ele><time>2026-05-02T08:10:07Z</time></trkpt><trkpt lat="42.12112986217789" lon="14.388370888400264"><ele>92.0</ele><time>2026-05-02T08:10:08Z</time></trkpt><trkpt lat="42.12097658006401" lon="14.388085725297678"><ele>91.5</ele><time>2026-05-02T08:10:09Z</time></trkpt><trkpt lat="42.120827788255916" lon="14.387793175530042"><ele>91.0</ele><time>2026-05-02T08:10:10Z</time></trkpt><trkpt lat="42.120673218007596" lon="14.387511222775531"><ele>91.0</ele><time>2026-05-02T08:10:11Z</time></trkpt><trkpt lat="42.12052594454435" lon="14.387229035352401"><ele>91.0</ele><time>2026-05-02T08:10:12Z</time></trkpt><trkpt lat="42.12037255278295" lon="14.386955416004486"><ele>91.0</ele><time>2026-05-02T08:10:13Z</time></trkpt><trkpt lat="42.12022528249976" lon="14.386685105907606"><ele>91.0</ele><time>2026-05-02T08:10:14Z</time></trkpt><trkpt lat="42.12007930023967" lon="14.386421221822383"><ele>90.0</ele><time>2026-05-02T08:10:15Z</time></trkpt><trkpt lat="42.1199372304035" lon="14.386153367007157"><ele>89.0</ele><time>2026-05-02T08:10:16Z</time></trkpt><trkpt lat="42.11979966817678" lon="14.385880443298323"><ele>89.0</ele><time>2026-05-02T08:10:17Z</time></trkpt><trkpt lat="42.11965799880301" lon="14.385617305867525"><ele>89.0</ele><time>2026-05-02T08:10:18Z</time></trkpt><trkpt lat="42.119519232577495" lon="14.385358996369717"><ele>89.0</ele><time>2026-05-02T08:10:19Z</time></trkpt><trkpt lat="42.11937857963814" lon="14.38511002455833"><ele>89.0</ele><time>2026-05-02T08:10:20Z</time></trkpt><trkpt lat="42.11923945594599" lon="14.384868471676484"><ele>89.0</ele><time>2026-05-02T08:10:21Z</time></trkpt><trkpt lat="42.11910863333798" lon="14.384624811952781"><ele>89.0</ele><time>2026-05-02T08:10:22Z</time></trkpt><trkpt lat="42.118971822704026" lon="14.384388423291508"><ele>89.0</ele><time>2026-05-02T08:10:23Z</time></trkpt><trkpt lat="42.11884161980704" lon="14.384143133340471"><ele>88.66666666666667</ele><time>2026-05-02T08:10:24Z</time></trkpt><trkpt lat="42.11870981049846" lon="14.383908197260642"><ele>88.33333333333333</ele><time>2026-05-02T08:10:25Z</time></trkpt><trkpt lat="42.11858589542912" lon="14.383667944122907"><ele>88.0</ele><time>2026-05-02T08:10:26Z</time></trkpt><trkpt lat="42.11845577362648" lon="14.38343346189462"><ele>88.66666666666666</ele><time>2026-05-02T08:10:27Z</time></trkpt><trkpt lat="42.1183283371992" lon="14.383193132897379"><ele>89.33333333333333</ele><time>2026-05-02T08:10:28Z</time></trkpt><trkpt lat="42.11819964340021" lon="14.382964470187943"><ele>90.0</ele><time>2026-05-02T08:10:29Z</time></trkpt><trkpt lat="42.11807681887808" lon="14.382729921671814"><ele>90.0</ele><time>2026-05-02T08:10:30Z</time></trkpt><trkpt lat="42.11795464781777" lon="14.382495068149444"><ele>90.0</ele><time>2026-05-02T08:10:31Z</time></trkpt><trkpt lat="42.1178336139133" lon="14.382257245131031"><ele>90.0</ele><time>2026-05-02T08:10:32Z</time></trkpt><trkpt lat="42.11770394305084" lon="14.382028775448966"><ele>90.0</ele><time>2026-05-02T08:10:33Z</time></trkpt><trkpt lat="42.117574937505715" lon="14.381803938063587"><ele>90.0</ele><time>2026-05-02T08:10:34Z</time></trkpt><trkpt lat="42.11744966613994" lon="14.381573656101626"><ele>90.0</ele><time>2026-05-02T08:10:35Z</time></trkpt><trkpt lat="42.11732474452443" lon="14.381346890662737"><ele>90.0</ele><time>2026-05-02T08:10:36Z</time></trkpt><trkpt lat="42.11719995129364" lon="14.381113967866671"><ele>90.0</ele><time>2026-05-02T08:10:37Z</time></trkpt><trkpt lat="42.11707820666669" lon="14.380879994545733"><ele>90.0</ele><time>2026-05-02T08:10:38Z</time></trkpt><trkpt lat="42.116952655792744" lon="14.380653083240416"><ele>90.33333333333333</ele><time>2026-05-02T08:10:39Z</time></trkpt><trkpt lat="42.11683023348869" lon="14.380420280179079"><ele>90.66666666666666</ele><time>2026-05-02T08:10:40Z</time></trkpt><trkpt lat="42.116705264815906" lon="14.38018785414228"><ele>91.0</ele><time>2026-05-02T08:10:41Z</time></trkpt><trkpt lat="42.116578467089994" lon="14.379956223844054"><ele>90.66666666666666</ele><time>2026-05-02T08:10:42Z</time></trkpt><trkpt lat="42.11644808533668" lon="14.379727274139025"><ele>90.33333333333333</ele><time>2026-05-02T08:10:43Z</time></trkpt><trkpt lat="42.116321710882005" lon="14.37949906678952"><ele>90.0</ele><time>2026-05-02T08:10:44Z</time></trkpt><trkpt lat="42.11618917384675" lon="14.379268975803953"><ele>90.66666666666667</ele><time>2026-05-02T08:10:45Z</time></trkpt><trkpt lat="42.11605738586052" lon="14.379026942473493"><ele>91.33333333333334</ele><time>2026-05-02T08:10:46Z</time></trkpt><trkpt lat="42.1159353350883" lon="14.378782813201296"><ele>92.0</ele><time>2026-05-02T08:10:47Z</time></trkpt><trkpt lat="42.115808171114864" lon="14.378556115737826"><ele>92.0</ele><time>2026-05-02T08:10:48Z</time></trkpt><trkpt lat="42.11568584696369" lon="14.378321932852987"><ele>92.0</ele><time>2026-05-02T08:10:49Z</time></trkpt><trkpt lat="42.115555290692036" lon="14.378084222374781"><ele>92.0</ele><time>2026-05-02T08:10:50Z</time></trkpt><trkpt lat="42.115433683584655" lon="14.377852550628528"><ele>92.0</ele><time>2026-05-02T08:10:51Z</time></trkpt><trkpt lat="42.1152986350189" lon="14.377626664303897"><ele>92.0</ele><time>2026-05-02T08:10:52Z</time></trkpt><trkpt lat="42.115171671089634" lon="14.377402446660135"><ele>92.0</ele><time>2026-05-02T08:10:53Z</time></trkpt><trkpt lat="42.11504375013592" lon="14.377168101540255"><ele>92.0</ele><time>2026-05-02T08:10:54Z</time></trkpt><trkpt lat="42.114902471578674" lon="14.376946681499675"><ele>92.0</ele><time>2026-05-02T08:10:55Z</time></trkpt><trkpt lat="42.11476629964563" lon="14.37671497111922"><ele>92.0</ele><time>2026-05-02T08:10:56Z</time></trkpt><trkpt lat="42.114654062776275" lon="14.376466867334964"><ele>92.33333333333334</ele><time>2026-05-02T08:10:57Z</time></trkpt><trkpt lat="42.11452526370686" lon="14.37623219708254"><ele>92.66666666666667</ele><time>2026-05-02T08:10:58Z</time></trkpt><trkpt lat="42.11439820278879" lon="14.376004885651582"><ele>93.0</ele><time>2026-05-02T08:10:59Z</time></trkpt><trkpt lat="42.11426640509023" lon="14.375778158538232"><ele>93.0</ele><time>2026-05-02T08:11:00Z</time></trkpt><trkpt lat="42.11413432263331" lon="14.37555561476175"><ele>93.0</ele><time>2026-05-02T08:11:01Z</time></trkpt><trkpt lat="42.1140134655787" lon="14.375310660035657"><ele>93.0</ele><time>2026-05-02T08:11:02Z</time></trkpt><trkpt lat="42.113875615542476" lon="14.37508340674383"><ele>93.66666666666667</ele><time>2026-05-02T08:11:03Z</time></trkpt><trkpt lat="42.11376053598585" lon="14.37483144861269"><ele>94.33333333333334</ele><time>2026-05-02T08:11:04Z</time></trkpt><trkpt lat="42.11362013015108" lon="14.374618344617167"><ele>95.0</ele><time>2026-05-02T08:11:05Z</time></trkpt><trkpt lat="42.11347717909936" lon="14.374408880136368"><ele>95.0</ele><time>2026-05-02T08:11:06Z</time></trkpt><trkpt lat="42.11332092517263" lon="14.374217793584277"><ele>95.0</ele><time>2026-05-02T08:11:07Z</time></trkpt><trkpt lat="42.113187249290675" lon="14.374005108106765"><ele>95.0</ele><time>2026-05-02T08:11:08Z</time></trkpt><trkpt lat="42.11303535541459" lon="14.373814982351323"><ele>95.66666666666667</ele><time>2026-05-02T08:11:09Z</time></trkpt><trkpt lat="42.11289123683309" lon="14.373617340482296"><ele>96.33333333333334</ele><time>2026-05-02T08:11:10Z</time></trkpt><trkpt lat="42.11273845873721" lon="14.373421702153621"><ele>97.0</ele><time>2026-05-02T08:11:11Z</time></trkpt><trkpt lat="42.11259615951496" lon="14.373209002183795"><ele>97.0</ele><time>2026-05-02T08:11:12Z</time></trkpt><trkpt lat="42.112420908549126" lon="14.373022306825298"><ele>97.0</ele><time>2026-05-02T08:11:13Z</time></trkpt><trkpt lat="42.11225911221911" lon="14.37283635653565"><ele>97.0</ele><time>2026-05-02T08:11:14Z</time></trkpt><trkpt lat="42.11210177567568" lon="14.37263604027956"><ele>97.33333333333334</ele><time>2026-05-02T08:11:15Z</time></trkpt><trkpt lat="42.111930615885555" lon="14.372480435299305"><ele>97.66666666666666</ele><time>2026-05-02T08:11:16Z</time></trkpt><trkpt lat="42.111766494878715" lon="14.37230097182572"><ele>98.0</ele><time>2026-05-02T08:11:17Z</time></trkpt><trkpt lat="42.11159792451481" lon="14.372119154035575"><ele>98.66666666666666</ele><time>2026-05-02T08:11:18Z</time></trkpt><trkpt lat="42.11142512052798" lon="14.371955627214216"><ele>99.33333333333334</ele><time>2026-05-02T08:11:19Z</time></trkpt><trkpt lat="42.11124966766001" lon="14.371800891010718"><ele>100.0</ele><time>2026-05-02T08:11:20Z</time></trkpt><trkpt lat="42.11108012232847" lon="14.371626915810188"><ele>100.0</ele><time>2026-05-02T08:11:21Z</time></trkpt><trkpt lat="42.110904720822546" lon="14.37147027706503"><ele>100.0</ele><time>2026-05-02T08:11:22Z</time></trkpt><trkpt lat="42.11072784350801" lon="14.371316424346782"><ele>100.0</ele><time>2026-05-02T08:11:23Z</time></trkpt><trkpt lat="42.11054926007916" lon="14.371168285635925"><ele>99.66666666666667</ele><time>2026-05-02T08:11:24Z</time></trkpt><trkpt lat="42.110377378619184" lon="14.371017409927235"><ele>99.33333333333334</ele><time>2026-05-02T08:11:25Z</time></trkpt><trkpt lat="42.11019908038681" lon="14.370877860230078"><ele>99.0</ele><time>2026-05-02T08:11:26Z</time></trkpt><trkpt lat="42.11001320701133" lon="14.370735174474284"><ele>99.66666666666666</ele><time>2026-05-02T08:11:27Z</time></trkpt><trkpt lat="42.1098199179074" lon="14.370592069689176"><ele>100.33333333333333</ele><time>2026-05-02T08:11:28Z</time></trkpt><trkpt lat="42.109641318640364" lon="14.370435465445354"><ele>101.0</ele><time>2026-05-02T08:11:29Z</time></trkpt><trkpt lat="42.10945446430426" lon="14.370304685420773"><ele>101.0</ele><time>2026-05-02T08:11:30Z</time></trkpt><trkpt lat="42.10926245866024" lon="14.370173998746166"><ele>101.0</ele><time>2026-05-02T08:11:31Z</time></trkpt><trkpt lat="42.10908584798605" lon="14.370078425654112"><ele>101.0</ele><time>2026-05-02T08:11:32Z</time></trkpt><trkpt lat="42.1089124027183" lon="14.369967818672793"><ele>102.0</ele><time>2026-05-02T08:11:33Z</time></trkpt><trkpt lat="42.10873915370177" lon="14.369837557141821"><ele>103.0</ele><time>2026-05-02T08:11:34Z</time></trkpt><trkpt lat="42.108559140303825" lon="14.369729992193182"><ele>104.0</ele><time>2026-05-02T08:11:35Z</time></trkpt><trkpt lat="42.10837871377747" lon="14.369621057845727"><ele>104.0</ele><time>2026-05-02T08:11:36Z</time></trkpt><trkpt lat="42.108200236216504" lon="14.36951328860142"><ele>104.0</ele><time>2026-05-02T08:11:37Z</time></trkpt><trkpt lat="42.10802041439355" lon="14.36940462500471"><ele>104.0</ele><time>2026-05-02T08:11:38Z</time></trkpt><trkpt lat="42.107838601770716" lon="14.369294885065806"><ele>104.0</ele><time>2026-05-02T08:11:39Z</time></trkpt><trkpt lat="42.107656021239926" lon="14.369183858461339"><ele>104.0</ele><time>2026-05-02T08:11:40Z</time></trkpt><trkpt lat="42.107472086188416" lon="14.369072243887826"><ele>104.0</ele><time>2026-05-02T08:11:41Z</time></trkpt><trkpt lat="42.107284205191185" lon="14.368957963752"><ele>104.66666666666666</ele><time>2026-05-02T08:11:42Z</time></trkpt><trkpt lat="42.107092721565756" lon="14.368841900430288"><ele>105.33333333333334</ele><time>2026-05-02T08:11:43Z</time></trkpt><trkpt lat="42.10690016921854" lon="14.368723650604217"><ele>106.0</ele><time>2026-05-02T08:11:44Z</time></trkpt><trkpt lat="42.10670383348118" lon="14.368603979973338"><ele>106.0</ele><time>2026-05-02T08:11:45Z</time></trkpt><trkpt lat="42.10650351254064" lon="14.36848209123907"><ele>106.0</ele><time>2026-05-02T08:11:46Z</time></trkpt><trkpt lat="42.106299146040215" lon="14.368357553970725"><ele>106.0</ele><time>2026-05-02T08:11:47Z</time></trkpt><trkpt lat="42.106091311776986" lon="14.368232288923481"><ele>106.0</ele><time>2026-05-02T08:11:48Z</time></trkpt><trkpt lat="42.10587993748728" lon="14.36810489024402"><ele>106.0</ele><time>2026-05-02T08:11:49Z</time></trkpt><trkpt lat="42.10566823575692" lon="14.367977294219443"><ele>106.0</ele><time>2026-05-02T08:11:50Z</time></trkpt><trkpt lat="42.10544644295398" lon="14.367863917794997"><ele>106.0</ele><time>2026-05-02T08:11:51Z</time></trkpt><trkpt lat="42.10522992388608" lon="14.367731909247171"><ele>106.0</ele><time>2026-05-02T08:11:52Z</time></trkpt><trkpt lat="42.105012498821345" lon="14.367596802901797"><ele>106.0</ele><time>2026-05-02T08:11:53Z</time></trkpt><trkpt lat="42.10479552520713" lon="14.367453991658785"><ele>106.0</ele><time>2026-05-02T08:11:54Z</time></trkpt><trkpt lat="42.104574678550556" lon="14.367325158207311"><ele>106.0</ele><time>2026-05-02T08:11:55Z</time></trkpt><trkpt lat="42.10435325632255" lon="14.367192431263238"><ele>106.0</ele><time>2026-05-02T08:11:56Z</time></trkpt><trkpt lat="42.10413213553268" lon="14.367058715474544"><ele>106.0</ele><time>2026-05-02T08:11:57Z</time></trkpt><trkpt lat="42.103911065608365" lon="14.366920994361816"><ele>106.5</ele><time>2026-05-02T08:11:58Z</time></trkpt><trkpt lat="42.1036900321886" lon="14.366788051059528"><ele>107.0</ele><time>2026-05-02T08:11:59Z</time></trkpt><trkpt lat="42.10346820464056" lon="14.366655922217236"><ele>107.0</ele><time>2026-05-02T08:12:00Z</time></trkpt><trkpt lat="42.10324723840676" lon="14.366522782412337"><ele>107.0</ele><time>2026-05-02T08:12:01Z</time></trkpt><trkpt lat="42.10302580172388" lon="14.366392162398036"><ele>107.0</ele><time>2026-05-02T08:12:02Z</time></trkpt><trkpt lat="42.10280409492141" lon="14.366260439480428"><ele>107.0</ele><time>2026-05-02T08:12:03Z</time></trkpt><trkpt lat="42.102584184867496" lon="14.36612367942345"><ele>107.5</ele><time>2026-05-02T08:12:04Z</time></trkpt><trkpt lat="42.10236499951361" lon="14.365984964515542"><ele>108.0</ele><time>2026-05-02T08:12:05Z</time></trkpt><trkpt lat="42.10214802570387" lon="14.365852082238703"><ele>108.0</ele><time>2026-05-02T08:12:06Z</time></trkpt><trkpt lat="42.101928679331365" lon="14.365716774464474"><ele>108.0</ele><time>2026-05-02T08:12:07Z</time></trkpt><trkpt lat="42.10171082945211" lon="14.365587946007384"><ele>109.0</ele><time>2026-05-02T08:12:08Z</time></trkpt><trkpt lat="42.10149035453905" lon="14.365451589063595"><ele>110.0</ele><time>2026-05-02T08:12:09Z</time></trkpt><trkpt lat="42.101269399492864" lon="14.365332311522844"><ele>110.0</ele><time>2026-05-02T08:12:10Z</time></trkpt><trkpt lat="42.1010494417098" lon="14.365202004851469"><ele>110.0</ele><time>2026-05-02T08:12:11Z</time></trkpt><trkpt lat="42.100829529664686" lon="14.365067981415416"><ele>111.5</ele><time>2026-05-02T08:12:12Z</time></trkpt><trkpt lat="42.100610898352784" lon="14.364933916300284"><ele>113.0</ele><time>2026-05-02T08:12:13Z</time></trkpt><trkpt lat="42.100394319991146" lon="14.36479903606223"><ele>112.5</ele><time>2026-05-02T08:12:14Z</time></trkpt><trkpt lat="42.100178644394944" lon="14.364669003335338"><ele>112.0</ele><time>2026-05-02T08:12:15Z</time></trkpt><trkpt lat="42.09996338115574" lon="14.364536850023407"><ele>111.5</ele><time>2026-05-02T08:12:16Z</time></trkpt><trkpt lat="42.09974240119721" lon="14.364404419296777"><ele>111.0</ele><time>2026-05-02T08:12:17Z</time></trkpt><trkpt lat="42.09952759413858" lon="14.364276050922244"><ele>111.0</ele><time>2026-05-02T08:12:18Z</time></trkpt><trkpt lat="42.0993125416857" lon="14.364147880161095"><ele>111.0</ele><time>2026-05-02T08:12:19Z</time></trkpt><trkpt lat="42.09909573068059" lon="14.364015937346545"><ele>111.5</ele><time>2026-05-02T08:12:20Z</time></trkpt><trkpt lat="42.098879062694415" lon="14.363882856755646"><ele>112.0</ele><time>2026-05-02T08:12:21Z</time></trkpt><trkpt lat="42.098663896590026" lon="14.363751225568164"><ele>112.0</ele><time>2026-05-02T08:12:22Z</time></trkpt><trkpt lat="42.09846022579069" lon="14.363616898524661"><ele>112.0</ele><time>2026-05-02T08:12:23Z</time></trkpt><trkpt lat="42.09824866161563" lon="14.363489320732027"><ele>112.0</ele><time>2026-05-02T08:12:24Z</time></trkpt><trkpt lat="42.098036395463964" lon="14.363361319466087"><ele>112.0</ele><time>2026-05-02T08:12:25Z</time></trkpt><trkpt lat="42.09782047448401" lon="14.363231114234825"><ele>112.0</ele><time>2026-05-02T08:12:26Z</time></trkpt><trkpt lat="42.097601862624515" lon="14.363117884868657"><ele>112.0</ele><time>2026-05-02T08:12:27Z</time></trkpt><trkpt lat="42.097393481387" lon="14.362978436659473"><ele>113.0</ele><time>2026-05-02T08:12:28Z</time></trkpt><trkpt lat="42.09718576214691" lon="14.36283451149982"><ele>114.0</ele><time>2026-05-02T08:12:29Z</time></trkpt><trkpt lat="42.09698191575301" lon="14.362675836299847"><ele>114.0</ele><time>2026-05-02T08:12:30Z</time></trkpt><trkpt lat="42.09678053021918" lon="14.362512550465329"><ele>114.0</ele><time>2026-05-02T08:12:31Z</time></trkpt><trkpt lat="42.09658220115054" lon="14.362344980216989"><ele>114.5</ele><time>2026-05-02T08:12:32Z</time></trkpt><trkpt lat="42.096388040549506" lon="14.362172316971295"><ele>115.0</ele><time>2026-05-02T08:12:33Z</time></trkpt><trkpt lat="42.09619117836878" lon="14.362007385241872"><ele>115.0</ele><time>2026-05-02T08:12:34Z</time></trkpt><trkpt lat="42.09599575019182" lon="14.36183315421292"><ele>115.0</ele><time>2026-05-02T08:12:35Z</time></trkpt><trkpt lat="42.0957975747853" lon="14.361663898030825"><ele>115.0</ele><time>2026-05-02T08:12:36Z</time></trkpt><trkpt lat="42.09559992895796" lon="14.361490076907712"><ele>115.0</ele><time>2026-05-02T08:12:37Z</time></trkpt><trkpt lat="42.095398639524916" lon="14.36132283913722"><ele>115.0</ele><time>2026-05-02T08:12:38Z</time></trkpt><trkpt lat="42.09520165496528" lon="14.36114863986943"><ele>115.0</ele><time>2026-05-02T08:12:39Z</time></trkpt><trkpt lat="42.09500314095633" lon="14.360973289515863"><ele>116.5</ele><time>2026-05-02T08:12:40Z</time></trkpt><trkpt lat="42.09480483310142" lon="14.360797691137567"><ele>118.0</ele><time>2026-05-02T08:12:41Z</time></trkpt><trkpt lat="42.09460802502333" lon="14.360621578276453"><ele>117.5</ele><time>2026-05-02T08:12:42Z</time></trkpt><trkpt lat="42.09440942659861" lon="14.360444207715265"><ele>117.0</ele><time>2026-05-02T08:12:43Z</time></trkpt><trkpt lat="42.09420841398959" lon="14.360266492273944"><ele>116.5</ele><time>2026-05-02T08:12:44Z</time></trkpt><trkpt lat="42.094006713838326" lon="14.360092996815682"><ele>116.0</ele><time>2026-05-02T08:12:45Z</time></trkpt><trkpt lat="42.09380548306717" lon="14.359918144148999"><ele>116.0</ele><time>2026-05-02T08:12:46Z</time></trkpt><trkpt lat="42.09360373957807" lon="14.359742432641854"><ele>116.0</ele><time>2026-05-02T08:12:47Z</time></trkpt><trkpt lat="42.09340047147761" lon="14.359569850274054"><ele>117.0</ele><time>2026-05-02T08:12:48Z</time></trkpt><trkpt lat="42.09319855590095" lon="14.359390475898023"><ele>118.0</ele><time>2026-05-02T08:12:49Z</time></trkpt><trkpt lat="42.09299396699057" lon="14.359211511904498"><ele>118.0</ele><time>2026-05-02T08:12:50Z</time></trkpt><trkpt lat="42.092792032159004" lon="14.359037276128486"><ele>118.0</ele><time>2026-05-02T08:12:51Z</time></trkpt><trkpt lat="42.09259078688881" lon="14.358861226948731"><ele>120.0</ele><time>2026-05-02T08:12:52Z</time></trkpt><trkpt lat="42.092391976694465" lon="14.358682885400404"><ele>122.0</ele><time>2026-05-02T08:12:53Z</time></trkpt><trkpt lat="42.09219127831734" lon="14.35850899817978"><ele>122.0</ele><time>2026-05-02T08:12:54Z</time></trkpt><trkpt lat="42.09199466520353" lon="14.358332743025965"><ele>122.0</ele><time>2026-05-02T08:12:55Z</time></trkpt><trkpt lat="42.09179652512387" lon="14.35815411955747"><ele>122.0</ele><time>2026-05-02T08:12:56Z</time></trkpt><trkpt lat="42.091602458557794" lon="14.357980986533326"><ele>122.0</ele><time>2026-05-02T08:12:57Z</time></trkpt><trkpt lat="42.09140165036565" lon="14.357812676055236"><ele>122.0</ele><time>2026-05-02T08:12:58Z</time></trkpt><trkpt lat="42.09120467285716" lon="14.35764096697975"><ele>122.0</ele><time>2026-05-02T08:12:59Z</time></trkpt><trkpt lat="42.09100697410545" lon="14.357466996878417"><ele>122.0</ele><time>2026-05-02T08:13:00Z</time></trkpt><trkpt lat="42.09080694937743" lon="14.35727949922614"><ele>122.0</ele><time>2026-05-02T08:13:01Z</time></trkpt><trkpt lat="42.0906158430233" lon="14.357099547878933"><ele>120.5</ele><time>2026-05-02T08:13:02Z</time></trkpt><trkpt lat="42.09041363362939" lon="14.356921697210876"><ele>119.0</ele><time>2026-05-02T08:13:03Z</time></trkpt><trkpt lat="42.0902120383374" lon="14.356747426182817"><ele>119.0</ele><time>2026-05-02T08:13:04Z</time></trkpt><trkpt lat="42.090003654586866" lon="14.356579864592081"><ele>119.0</ele><time>2026-05-02T08:13:05Z</time></trkpt><trkpt lat="42.08979352989647" lon="14.356404123299141"><ele>122.0</ele><time>2026-05-02T08:13:06Z</time></trkpt><trkpt lat="42.08958568309586" lon="14.356224145710172"><ele>125.0</ele><time>2026-05-02T08:13:07Z</time></trkpt><trkpt lat="42.08938108175578" lon="14.356040036308666"><ele>125.0</ele><time>2026-05-02T08:13:08Z</time></trkpt><trkpt lat="42.08917055907418" lon="14.355867131992692"><ele>125.0</ele><time>2026-05-02T08:13:09Z</time></trkpt><trkpt lat="42.08895488092952" lon="14.355699615129552"><ele>123.5</ele><time>2026-05-02T08:13:10Z</time></trkpt><trkpt lat="42.0887370598562" lon="14.35554357658813"><ele>122.0</ele><time>2026-05-02T08:13:11Z</time></trkpt><trkpt lat="42.08850949058297" lon="14.355396055481842"><ele>122.0</ele><time>2026-05-02T08:13:12Z</time></trkpt><trkpt lat="42.08828189848648" lon="14.355264348327633"><ele>122.0</ele><time>2026-05-02T08:13:13Z</time></trkpt><trkpt lat="42.08804641218271" lon="14.355146042144833"><ele>123.5</ele><time>2026-05-02T08:13:14Z</time></trkpt><trkpt lat="42.08781558891259" lon="14.355038062536138"><ele>125.0</ele><time>2026-05-02T08:13:15Z</time></trkpt><trkpt lat="42.087583797971135" lon="14.35493779773274"><ele>124.5</ele><time>2026-05-02T08:13:16Z</time></trkpt><trkpt lat="42.08735813433077" lon="14.354845237467405"><ele>124.0</ele><time>2026-05-02T08:13:17Z</time></trkpt><trkpt lat="42.087111568175345" lon="14.354777587489593"><ele>124.0</ele><time>2026-05-02T08:13:18Z</time></trkpt><trkpt lat="42.08686968798699" lon="14.35472701886617"><ele>124.0</ele><time>2026-05-02T08:13:19Z</time></trkpt><trkpt lat="42.086634204762085" lon="14.354679622149071"><ele>123.0</ele><time>2026-05-02T08:13:20Z</time></trkpt><trkpt lat="42.08639677013881" lon="14.35464851081432"><ele>122.0</ele><time>2026-05-02T08:13:21Z</time></trkpt><trkpt lat="42.08615382863943" lon="14.35460414375188"><ele>122.0</ele><time>2026-05-02T08:13:22Z</time></trkpt><trkpt lat="42.08591585854507" lon="14.354561259383052"><ele>122.0</ele><time>2026-05-02T08:13:23Z</time></trkpt><trkpt lat="42.08567688248961" lon="14.354515349659751"><ele>122.5</ele><time>2026-05-02T08:13:24Z</time></trkpt><trkpt lat="42.085434709530084" lon="14.354470593209689"><ele>123.0</ele><time>2026-05-02T08:13:25Z</time></trkpt><trkpt lat="42.08519699548358" lon="14.354429691853483"><ele>123.0</ele><time>2026-05-02T08:13:26Z</time></trkpt><trkpt lat="42.08496014387496" lon="14.354389797508892"><ele>123.0</ele><time>2026-05-02T08:13:27Z</time></trkpt><trkpt lat="42.084723769836394" lon="14.354349507282762"><ele>124.5</ele><time>2026-05-02T08:13:28Z</time></trkpt><trkpt lat="42.08448951359115" lon="14.354308775333232"><ele>126.0</ele><time>2026-05-02T08:13:29Z</time></trkpt><trkpt lat="42.08425898021643" lon="14.354255371923827"><ele>128.0</ele><time>2026-05-02T08:13:30Z</time></trkpt><trkpt lat="42.08402631357666" lon="14.35419719998942"><ele>130.0</ele><time>2026-05-02T08:13:31Z</time></trkpt><trkpt lat="42.083796407749965" lon="14.354133263131136"><ele>130.0</ele><time>2026-05-02T08:13:32Z</time></trkpt><trkpt lat="42.08356874896455" lon="14.35405999580591"><ele>130.0</ele><time>2026-05-02T08:13:33Z</time></trkpt><trkpt lat="42.083340334337855" lon="14.353981896805903"><ele>128.5</ele><time>2026-05-02T08:13:34Z</time></trkpt><trkpt lat="42.08312076833066" lon="14.35389335855889"><ele>127.0</ele><time>2026-05-02T08:13:35Z</time></trkpt><trkpt lat="42.0829003493497" lon="14.353793705264982"><ele>127.0</ele><time>2026-05-02T08:13:36Z</time></trkpt><trkpt lat="42.082652418659364" lon="14.353701270496536"><ele>127.0</ele><time>2026-05-02T08:13:37Z</time></trkpt><trkpt lat="42.08243279510221" lon="14.353594174549173"><ele>127.0</ele><time>2026-05-02T08:13:38Z</time></trkpt><trkpt lat="42.08221403242612" lon="14.353480965875333"><ele>127.0</ele><time>2026-05-02T08:13:39Z</time></trkpt><trkpt lat="42.0819924106607" lon="14.353375330115883"><ele>127.0</ele><time>2026-05-02T08:13:40Z</time></trkpt><trkpt lat="42.08177584315473" lon="14.353267183487237"><ele>127.0</ele><time>2026-05-02T08:13:41Z</time></trkpt><trkpt lat="42.08155589374304" lon="14.353153616686615"><ele>128.0</ele><time>2026-05-02T08:13:42Z</time></trkpt><trkpt lat="42.0813250874741" lon="14.353062116976364"><ele>129.0</ele><time>2026-05-02T08:13:43Z</time></trkpt><trkpt lat="42.08110142436291" lon="14.352961932512162"><ele>129.0</ele><time>2026-05-02T08:13:44Z</time></trkpt><trkpt lat="42.08088249268543" lon="14.352863923523591"><ele>129.0</ele><time>2026-05-02T08:13:45Z</time></trkpt><trkpt lat="42.0806616613186" lon="14.352760126028569"><ele>130.5</ele><time>2026-05-02T08:13:46Z</time></trkpt><trkpt lat="42.08044209736911" lon="14.352660026488426"><ele>132.0</ele><time>2026-05-02T08:13:47Z</time></trkpt><trkpt lat="42.08022044112877" lon="14.352559930837286"><ele>132.0</ele><time>2026-05-02T08:13:48Z</time></trkpt><trkpt lat="42.08000355918" lon="14.352459906555694"><ele>132.0</ele><time>2026-05-02T08:13:49Z</time></trkpt><trkpt lat="42.07978594614589" lon="14.352357485317281"><ele>132.5</ele><time>2026-05-02T08:13:50Z</time></trkpt><trkpt lat="42.079569587390914" lon="14.352253153877193"><ele>133.0</ele><time>2026-05-02T08:13:51Z</time></trkpt><trkpt lat="42.07935612612637" lon="14.352143824793894"><ele>133.0</ele><time>2026-05-02T08:13:52Z</time></trkpt><trkpt lat="42.07914122502607" lon="14.352042057542475"><ele>133.0</ele><time>2026-05-02T08:13:53Z</time></trkpt><trkpt lat="42.07892657539834" lon="14.351941133418075"><ele>135.5</ele><time>2026-05-02T08:13:54Z</time></trkpt><trkpt lat="42.078712428098534" lon="14.351838279896016"><ele>138.0</ele><time>2026-05-02T08:13:55Z</time></trkpt><trkpt lat="42.078493371228994" lon="14.351756458344978"><ele>138.0</ele><time>2026-05-02T08:13:56Z</time></trkpt><trkpt lat="42.078271458430756" lon="14.351680306918606"><ele>138.0</ele><time>2026-05-02T08:13:57Z</time></trkpt><trkpt lat="42.07804912411717" lon="14.351611937869013"><ele>140.0</ele><time>2026-05-02T08:13:58Z</time></trkpt><trkpt lat="42.07782463699997" lon="14.351547749751932"><ele>142.0</ele><time>2026-05-02T08:13:59Z</time></trkpt><trkpt lat="42.07760320336507" lon="14.3515082860494"><ele>142.0</ele><time>2026-05-02T08:14:00Z</time></trkpt><trkpt lat="42.077372501301724" lon="14.351462327531758"><ele>142.0</ele><time>2026-05-02T08:14:01Z</time></trkpt><trkpt lat="42.077148366889" lon="14.35141853516529"><ele>142.0</ele><time>2026-05-02T08:14:02Z</time></trkpt><trkpt lat="42.07692121812869" lon="14.35139146141411"><ele>142.0</ele><time>2026-05-02T08:14:03Z</time></trkpt><trkpt lat="42.0766989179739" lon="14.351361826838042"><ele>141.33333333333334</ele><time>2026-05-02T08:14:04Z</time></trkpt><trkpt lat="42.07648263565159" lon="14.35133028175815"><ele>140.66666666666666</ele><time>2026-05-02T08:14:05Z</time></trkpt><trkpt lat="42.07628468187185" lon="14.351300357990498"><ele>140.0</ele><time>2026-05-02T08:14:06Z</time></trkpt><trkpt lat="42.076089309510145" lon="14.351273360619574"><ele>140.0</ele><time>2026-05-02T08:14:07Z</time></trkpt><trkpt lat="42.07590590312889" lon="14.351243608848623"><ele>140.0</ele><time>2026-05-02T08:14:08Z</time></trkpt><trkpt lat="42.07572999832011" lon="14.351222548969599"><ele>140.0</ele><time>2026-05-02T08:14:09Z</time></trkpt><trkpt lat="42.07556516711756" lon="14.351198890360322"><ele>139.0</ele><time>2026-05-02T08:14:10Z</time></trkpt><trkpt lat="42.07541480741292" lon="14.351174709311794"><ele>138.0</ele><time>2026-05-02T08:14:11Z</time></trkpt><trkpt lat="42.07529176787909" lon="14.351165533258776"><ele>137.0</ele><time>2026-05-02T08:14:12Z</time></trkpt><trkpt lat="42.07519048991139" lon="14.351142159868813"><ele>136.0</ele><time>2026-05-02T08:14:13Z</time></trkpt><trkpt lat="42.0751159456148" lon="14.351127105444924"><ele>136.66666666666669</ele><time>2026-05-02T08:14:14Z</time></trkpt><trkpt lat="42.07491641377067" lon="14.351109087786954"><ele>137.33333333333334</ele><time>2026-05-02T08:16:38Z</time></trkpt><trkpt lat="42.07476127133313" lon="14.351087284842764"><ele>138.0</ele><time>2026-05-02T08:16:39Z</time></trkpt><trkpt lat="42.074560041431184" lon="14.351048170509776"><ele>138.0</ele><time>2026-05-02T08:16:40Z</time></trkpt><trkpt lat="42.07433465909145" lon="14.350997667878202"><ele>138.0</ele><time>2026-05-02T08:16:41Z</time></trkpt><trkpt lat="42.07409248203857" lon="14.350935634746408"><ele>140.5</ele><time>2026-05-02T08:16:42Z</time></trkpt><trkpt lat="42.073848090617254" lon="14.350887017579826"><ele>143.0</ele><time>2026-05-02T08:16:43Z</time></trkpt><trkpt lat="42.073614542786615" lon="14.350823774463874"><ele>143.0</ele><time>2026-05-02T08:16:44Z</time></trkpt><trkpt lat="42.07338619169967" lon="14.350754090837722"><ele>143.0</ele><time>2026-05-02T08:16:45Z</time></trkpt><trkpt lat="42.07314999274201" lon="14.35067267396854"><ele>142.0</ele><time>2026-05-02T08:16:46Z</time></trkpt><trkpt lat="42.07292569607053" lon="14.35056685833261"><ele>141.0</ele><time>2026-05-02T08:16:47Z</time></trkpt><trkpt lat="42.072702167394944" lon="14.350462809304707"><ele>141.0</ele><time>2026-05-02T08:16:48Z</time></trkpt><trkpt lat="42.072478248577504" lon="14.35035781501801"><ele>141.0</ele><time>2026-05-02T08:16:49Z</time></trkpt><trkpt lat="42.072254721735455" lon="14.350238935365036"><ele>143.5</ele><time>2026-05-02T08:16:50Z</time></trkpt><trkpt lat="42.072036499721854" lon="14.350117201099398"><ele>146.0</ele><time>2026-05-02T08:16:51Z</time></trkpt><trkpt lat="42.071811190408845" lon="14.349986872932648"><ele>150.5</ele><time>2026-05-02T08:16:52Z</time></trkpt><trkpt lat="42.07158594436611" lon="14.349852960911178"><ele>155.0</ele><time>2026-05-02T08:16:53Z</time></trkpt><trkpt lat="42.0713616885059" lon="14.349719206191256"><ele>149.0</ele><time>2026-05-02T08:16:54Z</time></trkpt><trkpt lat="42.07113628151922" lon="14.349588863679255"><ele>143.0</ele><time>2026-05-02T08:16:55Z</time></trkpt><trkpt lat="42.07091432279427" lon="14.349459825122057"><ele>146.0</ele><time>2026-05-02T08:16:56Z</time></trkpt><trkpt lat="42.070682422311506" lon="14.34933761112742"><ele>149.0</ele><time>2026-05-02T08:16:57Z</time></trkpt><trkpt lat="42.070460990391716" lon="14.349210491696748"><ele>149.0</ele><time>2026-05-02T08:16:58Z</time></trkpt><trkpt lat="42.07024572068841" lon="14.34908881823595"><ele>149.0</ele><time>2026-05-02T08:16:59Z</time></trkpt><trkpt lat="42.069990516424284" lon="14.348988809685428"><ele>150.0</ele><time>2026-05-02T08:17:00Z</time></trkpt><trkpt lat="42.06975147631709" lon="14.348881879832174"><ele>151.0</ele><time>2026-05-02T08:17:01Z</time></trkpt><trkpt lat="42.069516794208496" lon="14.3487644283767"><ele>148.0</ele><time>2026-05-02T08:17:02Z</time></trkpt><trkpt lat="42.069278875202606" lon="14.3486787916462"><ele>145.0</ele><time>2026-05-02T08:17:03Z</time></trkpt><trkpt lat="42.06903334135016" lon="14.348604525178375"><ele>145.0</ele><time>2026-05-02T08:17:04Z</time></trkpt><trkpt lat="42.068803580996224" lon="14.348518571658433"><ele>145.0</ele><time>2026-05-02T08:17:05Z</time></trkpt><trkpt lat="42.06855368154276" lon="14.34845071222712"><ele>145.0</ele><time>2026-05-02T08:17:06Z</time></trkpt><trkpt lat="42.06830237499526" lon="14.34837820528805"><ele>145.0</ele><time>2026-05-02T08:17:07Z</time></trkpt><trkpt lat="42.068054865364545" lon="14.348328991872467"><ele>145.5</ele><time>2026-05-02T08:17:08Z</time></trkpt><trkpt lat="42.06780398573512" lon="14.348272447001504"><ele>146.0</ele><time>2026-05-02T08:17:09Z</time></trkpt><trkpt lat="42.06755209231203" lon="14.34822319449593"><ele>147.5</ele><time>2026-05-02T08:17:10Z</time></trkpt><trkpt lat="42.06731707177406" lon="14.348182720320324"><ele>149.0</ele><time>2026-05-02T08:17:11Z</time></trkpt><trkpt lat="42.06706611419285" lon="14.348153896195459"><ele>149.0</ele><time>2026-05-02T08:17:12Z</time></trkpt><trkpt lat="42.06681575795524" lon="14.348127622294953"><ele>149.0</ele><time>2026-05-02T08:17:13Z</time></trkpt><trkpt lat="42.066566875728846" lon="14.348127545891925"><ele>150.0</ele><time>2026-05-02T08:17:14Z</time></trkpt><trkpt lat="42.06633170972119" lon="14.348109673096934"><ele>151.0</ele><time>2026-05-02T08:17:15Z</time></trkpt><trkpt lat="42.066103032468185" lon="14.348099204213222"><ele>151.0</ele><time>2026-05-02T08:17:16Z</time></trkpt><trkpt lat="42.065862901013304" lon="14.34812032393619"><ele>151.0</ele><time>2026-05-02T08:17:17Z</time></trkpt><trkpt lat="42.065633747392326" lon="14.348133278622104"><ele>150.5</ele><time>2026-05-02T08:17:18Z</time></trkpt><trkpt lat="42.065404568568866" lon="14.348149953108486"><ele>150.0</ele><time>2026-05-02T08:17:19Z</time></trkpt><trkpt lat="42.065176157977376" lon="14.348158532567071"><ele>150.0</ele><time>2026-05-02T08:17:20Z</time></trkpt><trkpt lat="42.06495112439571" lon="14.348150389594752"><ele>150.0</ele><time>2026-05-02T08:17:21Z</time></trkpt><trkpt lat="42.064726925598166" lon="14.348168681928748"><ele>150.33333333333334</ele><time>2026-05-02T08:17:22Z</time></trkpt><trkpt lat="42.06451222273484" lon="14.348171903590622"><ele>150.66666666666669</ele><time>2026-05-02T08:17:23Z</time></trkpt><trkpt lat="42.06428212531685" lon="14.348195644353163"><ele>151.0</ele><time>2026-05-02T08:17:24Z</time></trkpt><trkpt lat="42.064063622521815" lon="14.348186093497956"><ele>151.0</ele><time>2026-05-02T08:17:25Z</time></trkpt><trkpt lat="42.063828611167" lon="14.3481585337673"><ele>151.0</ele><time>2026-05-02T08:17:26Z</time></trkpt><trkpt lat="42.0636041057902" lon="14.348117400016106"><ele>151.0</ele><time>2026-05-02T08:17:27Z</time></trkpt><trkpt lat="42.06337362643163" lon="14.348055382978135"><ele>151.0</ele><time>2026-05-02T08:17:28Z</time></trkpt><trkpt lat="42.06315119371651" lon="14.347985681347993"><ele>150.0</ele><time>2026-05-02T08:17:29Z</time></trkpt><trkpt lat="42.062937811234455" lon="14.347923348432998"><ele>149.0</ele><time>2026-05-02T08:17:30Z</time></trkpt><trkpt lat="42.06271903383271" lon="14.347854331272048"><ele>148.0</ele><time>2026-05-02T08:17:31Z</time></trkpt><trkpt lat="42.06250541803077" lon="14.34778064984343"><ele>149.0</ele><time>2026-05-02T08:17:32Z</time></trkpt><trkpt lat="42.062293650998626" lon="14.347723649303392"><ele>150.0</ele><time>2026-05-02T08:17:33Z</time></trkpt><trkpt lat="42.062082568541555" lon="14.347656186023409"><ele>151.0</ele><time>2026-05-02T08:17:34Z</time></trkpt><trkpt lat="42.06188119973193" lon="14.347584467142212"><ele>151.0</ele><time>2026-05-02T08:17:35Z</time></trkpt><trkpt lat="42.06167623801868" lon="14.347515610898887"><ele>151.0</ele><time>2026-05-02T08:17:36Z</time></trkpt><trkpt lat="42.06149106019663" lon="14.347442034626996"><ele>151.0</ele><time>2026-05-02T08:17:37Z</time></trkpt><trkpt lat="42.061317015295984" lon="14.34736892697763"><ele>152.25</ele><time>2026-05-02T08:17:38Z</time></trkpt><trkpt lat="42.061162273022326" lon="14.34730918437805"><ele>153.5</ele><time>2026-05-02T08:17:39Z</time></trkpt><trkpt lat="42.06103164062405" lon="14.347267414139292"><ele>154.75</ele><time>2026-05-02T08:17:40Z</time></trkpt><trkpt lat="42.06091788701515" lon="14.347235109451939"><ele>156.0</ele><time>2026-05-02T08:17:41Z</time></trkpt><trkpt lat="42.06082502337146" lon="14.347158132601027"><ele>159.25</ele><time>2026-05-02T08:17:42Z</time></trkpt><trkpt lat="42.06073979098384" lon="14.347045465702754"><ele>162.5</ele><time>2026-05-02T08:17:43Z</time></trkpt><trkpt lat="42.060691367379974" lon="14.346878824048739"><ele>165.75</ele><time>2026-05-02T08:17:44Z</time></trkpt><trkpt lat="42.06065538026681" lon="14.34670159459181"><ele>169.0</ele><time>2026-05-02T08:17:45Z</time></trkpt><trkpt lat="42.06062304102628" lon="14.346496427064665"><ele>170.6</ele><time>2026-05-02T08:17:46Z</time></trkpt><trkpt lat="42.06058630495105" lon="14.346309412081204"><ele>172.2</ele><time>2026-05-02T08:17:47Z</time></trkpt><trkpt lat="42.060558557520984" lon="14.346166332415153"><ele>173.79999999999998</ele><time>2026-05-02T08:17:48Z</time></trkpt><trkpt lat="42.06053055685828" lon="14.346052936361383"><ele>175.39999999999998</ele><time>2026-05-02T08:17:49Z</time></trkpt><trkpt lat="42.06049928246514" lon="14.345943675203413"><ele>177.0</ele><time>2026-05-02T08:17:50Z</time></trkpt><trkpt lat="42.06046566811014" lon="14.345811714468843"><ele>177.0</ele><time>2026-05-02T08:17:51Z</time></trkpt><trkpt lat="42.060436861128146" lon="14.345636012427455"><ele>177.0</ele><time>2026-05-02T08:17:52Z</time></trkpt><trkpt lat="42.06041429637335" lon="14.345443609539018"><ele>177.0</ele><time>2026-05-02T08:17:53Z</time></trkpt><trkpt lat="42.06041016343567" lon="14.345242719448585"><ele>177.0</ele><time>2026-05-02T08:17:54Z</time></trkpt><trkpt lat="42.06041781380277" lon="14.34504463364432"><ele>180.66666666666666</ele><time>2026-05-02T08:17:55Z</time></trkpt><trkpt lat="42.06044221765637" lon="14.344843156155388"><ele>184.33333333333331</ele><time>2026-05-02T08:17:56Z</time></trkpt><trkpt lat="42.06047271156143" lon="14.344646575097661"><ele>188.0</ele><time>2026-05-02T08:17:57Z</time></trkpt><trkpt lat="42.060489118040664" lon="14.344431548327739"><ele>188.33333333333331</ele><time>2026-05-02T08:17:58Z</time></trkpt><trkpt lat="42.06049847725311" lon="14.344205666643779"><ele>188.66666666666666</ele><time>2026-05-02T08:17:59Z</time></trkpt><trkpt lat="42.060485717323495" lon="14.3439438363647"><ele>189.0</ele><time>2026-05-02T08:18:00Z</time></trkpt><trkpt lat="42.060464976417464" lon="14.343700604154263"><ele>191.33333333333331</ele><time>2026-05-02T08:18:01Z</time></trkpt><trkpt lat="42.06047280250282" lon="14.343482146674582"><ele>193.66666666666666</ele><time>2026-05-02T08:18:02Z</time></trkpt><trkpt lat="42.06050301521612" lon="14.343265916562208"><ele>196.0</ele><time>2026-05-02T08:18:03Z</time></trkpt><trkpt lat="42.06055725018269" lon="14.343066712670822"><ele>200.0</ele><time>2026-05-02T08:18:04Z</time></trkpt><trkpt lat="42.06062409261765" lon="14.342856455828587"><ele>204.0</ele><time>2026-05-02T08:18:05Z</time></trkpt><trkpt lat="42.0606978030978" lon="14.342645013460036"><ele>208.0</ele><time>2026-05-02T08:18:06Z</time></trkpt><trkpt lat="42.06076360108274" lon="14.342433477936344"><ele>202.33333333333331</ele><time>2026-05-02T08:18:07Z</time></trkpt><trkpt lat="42.06082831653844" lon="14.342234451565904"><ele>196.66666666666666</ele><time>2026-05-02T08:18:08Z</time></trkpt><trkpt lat="42.060894370015376" lon="14.342026079759302"><ele>191.0</ele><time>2026-05-02T08:18:09Z</time></trkpt><trkpt lat="42.0609621600244" lon="14.34181091648081"><ele>191.0</ele><time>2026-05-02T08:18:10Z</time></trkpt><trkpt lat="42.06104808323488" lon="14.34159485038211"><ele>191.0</ele><time>2026-05-02T08:18:11Z</time></trkpt><trkpt lat="42.06113306272914" lon="14.341386392657549"><ele>191.0</ele><time>2026-05-02T08:18:12Z</time></trkpt><trkpt lat="42.0612616345204" lon="14.341183850565281"><ele>192.5</ele><time>2026-05-02T08:18:13Z</time></trkpt><trkpt lat="42.06137948809763" lon="14.341053129283898"><ele>194.0</ele><time>2026-05-02T08:18:14Z</time></trkpt><trkpt lat="42.06146238797396" lon="14.34088382475112"><ele>195.5</ele><time>2026-05-02T08:18:15Z</time></trkpt><trkpt lat="42.061538028333395" lon="14.34072847596029"><ele>197.0</ele><time>2026-05-02T08:18:16Z</time></trkpt><trkpt lat="42.06157516016161" lon="14.340570820875996"><ele>198.5</ele><time>2026-05-02T08:18:17Z</time></trkpt><trkpt lat="42.06158193709256" lon="14.340392901260314"><ele>200.0</ele><time>2026-05-02T08:18:18Z</time></trkpt><trkpt lat="42.06157634826394" lon="14.34023799307039"><ele>201.5</ele><time>2026-05-02T08:18:19Z</time></trkpt><trkpt lat="42.06152117091647" lon="14.340086779971964"><ele>203.0</ele><time>2026-05-02T08:18:20Z</time></trkpt><trkpt lat="42.061461900265314" lon="14.33994322902519"><ele>203.0</ele><time>2026-05-02T08:18:21Z</time></trkpt><trkpt lat="42.06143264318664" lon="14.339824193015138"><ele>203.0</ele><time>2026-05-02T08:18:22Z</time></trkpt><trkpt lat="42.06140878652959" lon="14.339671856946438"><ele>203.0</ele><time>2026-05-02T08:18:23Z</time></trkpt><trkpt lat="42.06141828736212" lon="14.339440117142011"><ele>203.0</ele><time>2026-05-02T08:18:24Z</time></trkpt><trkpt lat="42.06141057902589" lon="14.33923724137009"><ele>203.0</ele><time>2026-05-02T08:18:25Z</time></trkpt><trkpt lat="42.06140023086206" lon="14.339034636937866"><ele>203.0</ele><time>2026-05-02T08:18:26Z</time></trkpt><trkpt lat="42.061412354990075" lon="14.33881281662193"><ele>203.0</ele><time>2026-05-02T08:18:27Z</time></trkpt><trkpt lat="42.06144377305048" lon="14.33857818930788"><ele>203.0</ele><time>2026-05-02T08:18:28Z</time></trkpt><trkpt lat="42.06148188301996" lon="14.338356128355114"><ele>203.0</ele><time>2026-05-02T08:18:29Z</time></trkpt><trkpt lat="42.061523931865146" lon="14.338154769129964"><ele>203.0</ele><time>2026-05-02T08:18:30Z</time></trkpt><trkpt lat="42.06156125007151" lon="14.337978893960628"><ele>203.0</ele><time>2026-05-02T08:18:31Z</time></trkpt><trkpt lat="42.061597072152814" lon="14.337806391425431"><ele>203.0</ele><time>2026-05-02T08:18:32Z</time></trkpt><trkpt lat="42.06161458947432" lon="14.3377033163829"><ele>203.0</ele><time>2026-05-02T08:18:34Z</time></trkpt><trkpt lat="42.06161846451762" lon="14.337567403472766"><ele>203.0</ele><time>2026-05-02T08:18:36Z</time></trkpt><trkpt lat="42.06152449579852" lon="14.33744380743333"><ele>203.0</ele><time>2026-05-02T08:18:37Z</time></trkpt><trkpt lat="42.06144126409656" lon="14.337333718723029"><ele>203.0</ele><time>2026-05-02T08:18:38Z</time></trkpt><trkpt lat="42.061339511619046" lon="14.337228235244039"><ele>203.0</ele><time>2026-05-02T08:18:39Z</time></trkpt><trkpt lat="42.06125679048106" lon="14.337110436591734"><ele>203.0</ele><time>2026-05-02T08:18:40Z</time></trkpt><trkpt lat="42.06113448158097" lon="14.336982654348992"><ele>203.0</ele><time>2026-05-02T08:18:41Z</time></trkpt><trkpt lat="42.06102973834329" lon="14.336846002583442"><ele>204.66666666666669</ele><time>2026-05-02T08:18:42Z</time></trkpt><trkpt lat="42.06092128652304" lon="14.336714984494725"><ele>206.33333333333331</ele><time>2026-05-02T08:18:43Z</time></trkpt><trkpt lat="42.06080519808003" lon="14.336579907837061"><ele>208.0</ele><time>2026-05-02T08:18:44Z</time></trkpt><trkpt lat="42.060701912102424" lon="14.336425726347779"><ele>210.0</ele><time>2026-05-02T08:18:45Z</time></trkpt><trkpt lat="42.060600276250085" lon="14.336291279614718"><ele>212.0</ele><time>2026-05-02T08:18:46Z</time></trkpt><trkpt lat="42.06048006329887" lon="14.336177832907614"><ele>214.0</ele><time>2026-05-02T08:18:47Z</time></trkpt><trkpt lat="42.06040512459154" lon="14.33605259722957"><ele>216.0</ele><time>2026-05-02T08:18:48Z</time></trkpt><trkpt lat="42.06033354219355" lon="14.335943094610156"><ele>216.0</ele><time>2026-05-02T08:18:49Z</time></trkpt><trkpt lat="42.06025758191091" lon="14.335826771087305"><ele>216.0</ele><time>2026-05-02T08:18:50Z</time></trkpt><trkpt lat="42.0601761996309" lon="14.335721105734532"><ele>216.0</ele><time>2026-05-02T08:18:51Z</time></trkpt><trkpt lat="42.06006091618071" lon="14.335633805893801"><ele>216.0</ele><time>2026-05-02T08:18:52Z</time></trkpt><trkpt lat="42.05993000719865" lon="14.335567420427461"><ele>221.0</ele><time>2026-05-02T08:18:53Z</time></trkpt><trkpt lat="42.05978804240444" lon="14.335496585460056"><ele>226.0</ele><time>2026-05-02T08:18:54Z</time></trkpt><trkpt lat="42.05969938466347" lon="14.335374138741258"><ele>231.0</ele><time>2026-05-02T08:18:55Z</time></trkpt><trkpt lat="42.05959114297921" lon="14.335183804064886"><ele>231.0</ele><time>2026-05-02T08:18:56Z</time></trkpt><trkpt lat="42.05946277787434" lon="14.334954752994525"><ele>231.0</ele><time>2026-05-02T08:18:57Z</time></trkpt><trkpt lat="42.05935286859338" lon="14.334768120598318"><ele>231.0</ele><time>2026-05-02T08:18:58Z</time></trkpt><trkpt lat="42.05923323327925" lon="14.334559514631952"><ele>232.5</ele><time>2026-05-02T08:18:59Z</time></trkpt><trkpt lat="42.05912929099769" lon="14.334386092674013"><ele>234.0</ele><time>2026-05-02T08:19:00Z</time></trkpt><trkpt lat="42.05905271049181" lon="14.334244170667858"><ele>235.5</ele><time>2026-05-02T08:19:01Z</time></trkpt><trkpt lat="42.059006123874134" lon="14.334109285335373"><ele>237.0</ele><time>2026-05-02T08:19:02Z</time></trkpt><trkpt lat="42.05899346403162" lon="14.333966829267407"><ele>239.5</ele><time>2026-05-02T08:19:03Z</time></trkpt><trkpt lat="42.05902135048317" lon="14.333819453262466"><ele>242.0</ele><time>2026-05-02T08:19:04Z</time></trkpt><trkpt lat="42.05906693346266" lon="14.333621709978773"><ele>244.5</ele><time>2026-05-02T08:19:05Z</time></trkpt><trkpt lat="42.0591150344764" lon="14.333426149051444"><ele>247.0</ele><time>2026-05-02T08:19:06Z</time></trkpt><trkpt lat="42.05920815218563" lon="14.333288800850882"><ele>247.0</ele><time>2026-05-02T08:19:07Z</time></trkpt><trkpt lat="42.0593124000051" lon="14.33319156520031"><ele>247.0</ele><time>2026-05-02T08:19:08Z</time></trkpt><trkpt lat="42.05942971964674" lon="14.333052124457378"><ele>247.0</ele><time>2026-05-02T08:19:09Z</time></trkpt><trkpt lat="42.05955442254477" lon="14.332983192336586"><ele>247.0</ele><time>2026-05-02T08:19:10Z</time></trkpt><trkpt lat="42.059651615079154" lon="14.332915159905863"><ele>250.2</ele><time>2026-05-02T08:19:11Z</time></trkpt><trkpt lat="42.05971153154985" lon="14.332839647727464"><ele>253.39999999999998</ele><time>2026-05-02T08:19:12Z</time></trkpt><trkpt lat="42.05971831326671" lon="14.332732793471536"><ele>256.6</ele><time>2026-05-02T08:19:13Z</time></trkpt><trkpt lat="42.059695305110885" lon="14.332628373488468"><ele>259.8</ele><time>2026-05-02T08:19:14Z</time></trkpt><trkpt lat="42.05961756275091" lon="14.33252587314965"><ele>263.0</ele><time>2026-05-02T08:19:15Z</time></trkpt><trkpt lat="42.0595102113283" lon="14.33250319586634"><ele>263.0</ele><time>2026-05-02T08:19:16Z</time></trkpt><trkpt lat="42.05938911526698" lon="14.332557532792757"><ele>263.0</ele><time>2026-05-02T08:19:17Z</time></trkpt><trkpt lat="42.05924343079947" lon="14.332664563950253"><ele>263.0</ele><time>2026-05-02T08:19:18Z</time></trkpt><trkpt lat="42.05907584454756" lon="14.332806194527842"><ele>264.6666666666667</ele><time>2026-05-02T08:19:19Z</time></trkpt><trkpt lat="42.05887482879016" lon="14.332851915703579"><ele>266.3333333333333</ele><time>2026-05-02T08:19:20Z</time></trkpt><trkpt lat="42.05869183657069" lon="14.332899397212925"><ele>268.0</ele><time>2026-05-02T08:19:21Z</time></trkpt><trkpt lat="42.05852923111771" lon="14.332964764342522"><ele>272.5</ele><time>2026-05-02T08:19:22Z</time></trkpt><trkpt lat="42.05819335149858" lon="14.33300121016158"><ele>277.0</ele><time>2026-05-02T08:19:24Z</time></trkpt><trkpt lat="42.058065581717905" lon="14.333012137980653"><ele>277.0</ele><time>2026-05-02T08:19:25Z</time></trkpt><trkpt lat="42.05796512156338" lon="14.333032201512436"><ele>277.0</ele><time>2026-05-02T08:19:26Z</time></trkpt><trkpt lat="42.05788694389681" lon="14.333000757165609"><ele>277.0</ele><time>2026-05-02T08:19:27Z</time></trkpt><trkpt lat="42.05782482269904" lon="14.332918074554057"><ele>277.0</ele><time>2026-05-02T08:19:28Z</time></trkpt><trkpt lat="42.05780444420138" lon="14.332798539506197"><ele>277.0</ele><time>2026-05-02T08:19:29Z</time></trkpt><trkpt lat="42.0578437329956" lon="14.332680987463627"><ele>277.0</ele><time>2026-05-02T08:19:30Z</time></trkpt><trkpt lat="42.057993702571785" lon="14.332569810809243"><ele>277.0</ele><time>2026-05-02T08:19:32Z</time></trkpt><trkpt lat="42.058207395569916" lon="14.332550514312148"><ele>277.0</ele><time>2026-05-02T08:19:33Z</time></trkpt><trkpt lat="42.058378028337984" lon="14.332545694959087"><ele>275.2</ele><time>2026-05-02T08:19:34Z</time></trkpt><trkpt lat="42.05850331496542" lon="14.332543408853324"><ele>273.4</ele><time>2026-05-02T08:19:35Z</time></trkpt><trkpt lat="42.05860444082772" lon="14.332524057533224"><ele>271.6</ele><time>2026-05-02T08:19:36Z</time></trkpt><trkpt lat="42.05866991293118" lon="14.33249626950884"><ele>269.8</ele><time>2026-05-02T08:19:37Z</time></trkpt><trkpt lat="42.05869808526663" lon="14.332333651173277"><ele>268.0</ele><time>2026-05-02T08:19:39Z</time></trkpt><trkpt lat="42.058588218659665" lon="14.332235065591597"><ele>274.3333333333333</ele><time>2026-05-02T08:19:40Z</time></trkpt><trkpt lat="42.058455043636414" lon="14.332159393867386"><ele>280.6666666666667</ele><time>2026-05-02T08:19:41Z</time></trkpt><trkpt lat="42.058293381327516" lon="14.332101010248097"><ele>287.0</ele><time>2026-05-02T08:19:42Z</time></trkpt><trkpt lat="42.058148223584965" lon="14.332071507809783"><ele>287.0</ele><time>2026-05-02T08:19:43Z</time></trkpt><trkpt lat="42.058001823965796" lon="14.332054211749098"><ele>287.0</ele><time>2026-05-02T08:19:44Z</time></trkpt><trkpt lat="42.05786516463352" lon="14.332048745917067"><ele>287.0</ele><time>2026-05-02T08:19:45Z</time></trkpt><trkpt lat="42.05775884247931" lon="14.33203650267725"><ele>287.0</ele><time>2026-05-02T08:19:46Z</time></trkpt><trkpt lat="42.05767517778343" lon="14.332008030827673"><ele>287.0</ele><time>2026-05-02T08:19:47Z</time></trkpt><trkpt lat="42.05765329455193" lon="14.331904027388543"><ele>287.0</ele><time>2026-05-02T08:19:48Z</time></trkpt><trkpt lat="42.057668733104634" lon="14.331821426434912"><ele>287.0</ele><time>2026-05-02T08:19:49Z</time></trkpt><trkpt lat="42.05772250710764" lon="14.33173849892192"><ele>287.0</ele><time>2026-05-02T08:19:50Z</time></trkpt><trkpt lat="42.05781376838118" lon="14.33168420593581"><ele>287.0</ele><time>2026-05-02T08:19:51Z</time></trkpt><trkpt lat="42.05794651018954" lon="14.331642934419078"><ele>287.0</ele><time>2026-05-02T08:19:52Z</time></trkpt><trkpt lat="42.05809451349175" lon="14.331674651374621"><ele>287.0</ele><time>2026-05-02T08:19:53Z</time></trkpt><trkpt lat="42.058231591276105" lon="14.331667369694912"><ele>287.0</ele><time>2026-05-02T08:19:54Z</time></trkpt><trkpt lat="42.058367817735316" lon="14.331596653044906"><ele>287.0</ele><time>2026-05-02T08:19:55Z</time></trkpt><trkpt lat="42.058493434848636" lon="14.331476034892662"><ele>291.6666666666667</ele><time>2026-05-02T08:19:56Z</time></trkpt><trkpt lat="42.058623041815075" lon="14.331370512218614"><ele>296.3333333333333</ele><time>2026-05-02T08:19:57Z</time></trkpt><trkpt lat="42.05876562471996" lon="14.331237520843834"><ele>301.0</ele><time>2026-05-02T08:19:58Z</time></trkpt><trkpt lat="42.058914545899874" lon="14.331113815642146"><ele>301.0</ele><time>2026-05-02T08:19:59Z</time></trkpt><trkpt lat="42.059065091100265" lon="14.330996026277335"><ele>301.0</ele><time>2026-05-02T08:20:00Z</time></trkpt><trkpt lat="42.05920376367592" lon="14.330865242249823"><ele>301.0</ele><time>2026-05-02T08:20:01Z</time></trkpt><trkpt lat="42.05933201117242" lon="14.330767206265088"><ele>300.75</ele><time>2026-05-02T08:20:02Z</time></trkpt><trkpt lat="42.05943207193442" lon="14.330679159111119"><ele>300.5</ele><time>2026-05-02T08:20:03Z</time></trkpt><trkpt lat="42.05950786401384" lon="14.330566549748099"><ele>300.25</ele><time>2026-05-02T08:20:04Z</time></trkpt><trkpt lat="42.05953874119634" lon="14.330412766651753"><ele>300.0</ele><time>2026-05-02T08:20:05Z</time></trkpt><trkpt lat="42.059538892581315" lon="14.330254741102353"><ele>300.75</ele><time>2026-05-02T08:20:06Z</time></trkpt><trkpt lat="42.059490896633484" lon="14.330102125962833"><ele>301.5</ele><time>2026-05-02T08:20:07Z</time></trkpt><trkpt lat="42.059422333567476" lon="14.32995418218087"><ele>302.25</ele><time>2026-05-02T08:20:08Z</time></trkpt><trkpt lat="42.05933038632088" lon="14.329796951792051"><ele>303.0</ele><time>2026-05-02T08:20:09Z</time></trkpt><trkpt lat="42.059254933580554" lon="14.3296643123193"><ele>305.75</ele><time>2026-05-02T08:20:10Z</time></trkpt><trkpt lat="42.059147868991225" lon="14.329574013198068"><ele>308.5</ele><time>2026-05-02T08:20:11Z</time></trkpt><trkpt lat="42.059024971690256" lon="14.329572107345882"><ele>311.25</ele><time>2026-05-02T08:20:12Z</time></trkpt><trkpt lat="42.05890128974493" lon="14.329601661896413"><ele>314.0</ele><time>2026-05-02T08:20:13Z</time></trkpt><trkpt lat="42.058778640093536" lon="14.32966288682976"><ele>313.75</ele><time>2026-05-02T08:20:14Z</time></trkpt><trkpt lat="42.05865990188413" lon="14.329746214195227"><ele>313.5</ele><time>2026-05-02T08:20:15Z</time></trkpt><trkpt lat="42.05854058869699" lon="14.329828973501222"><ele>313.25</ele><time>2026-05-02T08:20:16Z</time></trkpt><trkpt lat="42.05841524760505" lon="14.329909556203917"><ele>313.0</ele><time>2026-05-02T08:20:17Z</time></trkpt><trkpt lat="42.05828941814981" lon="14.329982932297687"><ele>314.4</ele><time>2026-05-02T08:20:18Z</time></trkpt><trkpt lat="42.058166656800225" lon="14.330006376754097"><ele>315.8</ele><time>2026-05-02T08:20:19Z</time></trkpt><trkpt lat="42.05806248786266" lon="14.329978218884808"><ele>317.2</ele><time>2026-05-02T08:20:20Z</time></trkpt><trkpt lat="42.05796925908449" lon="14.32991151070186"><ele>318.6</ele><time>2026-05-02T08:20:21Z</time></trkpt><trkpt lat="42.05790259661515" lon="14.329819679188514"><ele>320.0</ele><time>2026-05-02T08:20:22Z</time></trkpt><trkpt lat="42.05784349354377" lon="14.32969938035274"><ele>322.25</ele><time>2026-05-02T08:20:23Z</time></trkpt><trkpt lat="42.057788799862394" lon="14.329566368197629"><ele>324.5</ele><time>2026-05-02T08:20:24Z</time></trkpt><trkpt lat="42.057748437635496" lon="14.329408356348559"><ele>326.75</ele><time>2026-05-02T08:20:25Z</time></trkpt><trkpt lat="42.05768988964797" lon="14.32924440131878"><ele>329.0</ele><time>2026-05-02T08:20:26Z</time></trkpt><trkpt lat="42.057685296099336" lon="14.329055622265756"><ele>331.0</ele><time>2026-05-02T08:20:27Z</time></trkpt><trkpt lat="42.05770204772577" lon="14.328874572273705"><ele>333.0</ele><time>2026-05-02T08:20:28Z</time></trkpt><trkpt lat="42.057719934001014" lon="14.328702490170128"><ele>335.0</ele><time>2026-05-02T08:20:29Z</time></trkpt><trkpt lat="42.05770632342735" lon="14.328554730295972"><ele>337.0</ele><time>2026-05-02T08:20:30Z</time></trkpt><trkpt lat="42.05770384441439" lon="14.328424315187775"><ele>337.0</ele><time>2026-05-02T08:20:31Z</time></trkpt><trkpt lat="42.05762758392268" lon="14.328321269936682"><ele>337.0</ele><time>2026-05-02T08:20:32Z</time></trkpt><trkpt lat="42.05752912006398" lon="14.328271163023441"><ele>337.0</ele><time>2026-05-02T08:20:33Z</time></trkpt><trkpt lat="42.05742112359432" lon="14.328328785964036"><ele>337.0</ele><time>2026-05-02T08:20:34Z</time></trkpt><trkpt lat="42.05735046366457" lon="14.328411683812567"><ele>337.0</ele><time>2026-05-02T08:20:35Z</time></trkpt><trkpt lat="42.05730645771745" lon="14.328531648960189"><ele>342.0</ele><time>2026-05-02T08:20:36Z</time></trkpt><trkpt lat="42.057294313191335" lon="14.328670249734797"><ele>347.0</ele><time>2026-05-02T08:20:37Z</time></trkpt><trkpt lat="42.057308781001524" lon="14.328825500308723"><ele>352.0</ele><time>2026-05-02T08:20:38Z</time></trkpt><trkpt lat="42.05731693471235" lon="14.329014745164294"><ele>357.0</ele><time>2026-05-02T08:20:39Z</time></trkpt><trkpt lat="42.05731711550962" lon="14.329215926094536"><ele>357.0</ele><time>2026-05-02T08:20:40Z</time></trkpt><trkpt lat="42.0573101118522" lon="14.329410028576532"><ele>357.0</ele><time>2026-05-02T08:20:41Z</time></trkpt><trkpt lat="42.05730108283218" lon="14.329581979259526"><ele>357.0</ele><time>2026-05-02T08:20:42Z</time></trkpt><trkpt lat="42.05728435633777" lon="14.329735585305666"><ele>357.0</ele><time>2026-05-02T08:20:43Z</time></trkpt><trkpt lat="42.0572098190923" lon="14.32985450700672"><ele>351.5</ele><time>2026-05-02T08:20:44Z</time></trkpt><trkpt lat="42.0570894596892" lon="14.329934414550376"><ele>346.0</ele><time>2026-05-02T08:20:45Z</time></trkpt><trkpt lat="42.05695387991164" lon="14.330000975422433"><ele>340.5</ele><time>2026-05-02T08:20:46Z</time></trkpt><trkpt lat="42.0568205113006" lon="14.330015384299989"><ele>335.0</ele><time>2026-05-02T08:20:47Z</time></trkpt><trkpt lat="42.05665887510753" lon="14.329967036439955"><ele>336.33333333333337</ele><time>2026-05-02T08:20:48Z</time></trkpt><trkpt lat="42.05650348123731" lon="14.329876544201202"><ele>337.6666666666667</ele><time>2026-05-02T08:20:49Z</time></trkpt><trkpt lat="42.056388844543356" lon="14.329803313879106"><ele>339.0</ele><time>2026-05-02T08:20:50Z</time></trkpt><trkpt lat="42.05623480594981" lon="14.329746391283097"><ele>341.0</ele><time>2026-05-02T08:20:51Z</time></trkpt><trkpt lat="42.05607971614888" lon="14.329701847995256"><ele>343.0</ele><time>2026-05-02T08:20:52Z</time></trkpt><trkpt lat="42.05592194024074" lon="14.329687914583582"><ele>345.0</ele><time>2026-05-02T08:20:53Z</time></trkpt><trkpt lat="42.055765175847846" lon="14.329735534800548"><ele>345.0</ele><time>2026-05-02T08:20:54Z</time></trkpt><trkpt lat="42.05561461525092" lon="14.329843423201751"><ele>345.0</ele><time>2026-05-02T08:20:55Z</time></trkpt><trkpt lat="42.055465358363676" lon="14.32993851666967"><ele>345.0</ele><time>2026-05-02T08:20:56Z</time></trkpt><trkpt lat="42.055341864588804" lon="14.330012331539457"><ele>345.0</ele><time>2026-05-02T08:20:57Z</time></trkpt><trkpt lat="42.05524267944584" lon="14.33005706843297"><ele>345.0</ele><time>2026-05-02T08:20:58Z</time></trkpt><trkpt lat="42.055138189317496" lon="14.330064599427974"><ele>345.0</ele><time>2026-05-02T08:20:59Z</time></trkpt><trkpt lat="42.0550463092066" lon="14.33002013226222"><ele>345.0</ele><time>2026-05-02T08:21:00Z</time></trkpt><trkpt lat="42.054974231420424" lon="14.329917596549835"><ele>345.0</ele><time>2026-05-02T08:21:01Z</time></trkpt><trkpt lat="42.054912786311206" lon="14.329793777109519"><ele>344.1666666666667</ele><time>2026-05-02T08:21:02Z</time></trkpt><trkpt lat="42.05486910794599" lon="14.329659082556278"><ele>343.3333333333333</ele><time>2026-05-02T08:21:03Z</time></trkpt><trkpt lat="42.054861976086364" lon="14.329536876615837"><ele>342.5</ele><time>2026-05-02T08:21:04Z</time></trkpt><trkpt lat="42.054883428982805" lon="14.329448541776411"><ele>341.66666666666663</ele><time>2026-05-02T08:21:05Z</time></trkpt><trkpt lat="42.054957055981745" lon="14.329425732125031"><ele>340.8333333333333</ele><time>2026-05-02T08:21:06Z</time></trkpt><trkpt lat="42.05502528056045" lon="14.329406194611012"><ele>340.0</ele><time>2026-05-02T08:21:07Z</time></trkpt><trkpt lat="42.05511718291272" lon="14.329377862295814"><ele>343.0</ele><time>2026-05-02T08:21:08Z</time></trkpt><trkpt lat="42.0552099442452" lon="14.329319758716418"><ele>346.0</ele><time>2026-05-02T08:21:09Z</time></trkpt><trkpt lat="42.05531532935333" lon="14.329280880583024"><ele>349.0</ele><time>2026-05-02T08:21:10Z</time></trkpt><trkpt lat="42.05541015288984" lon="14.329196882704416"><ele>352.0</ele><time>2026-05-02T08:21:11Z</time></trkpt><trkpt lat="42.05549344304603" lon="14.32910856689699"><ele>355.0</ele><time>2026-05-02T08:21:12Z</time></trkpt><trkpt lat="42.05558102192758" lon="14.329006026867711"><ele>355.0</ele><time>2026-05-02T08:21:13Z</time></trkpt><trkpt lat="42.05566674356491" lon="14.328902804405528"><ele>355.0</ele><time>2026-05-02T08:21:14Z</time></trkpt><trkpt lat="42.055718357726136" lon="14.328777919771909"><ele>355.0</ele><time>2026-05-02T08:21:15Z</time></trkpt><trkpt lat="42.055761465283574" lon="14.328679336275131"><ele>355.0</ele><time>2026-05-02T08:21:16Z</time></trkpt><trkpt lat="42.05575456804881" lon="14.328531078903465"><ele>355.0</ele><time>2026-05-02T08:21:17Z</time></trkpt><trkpt lat="42.0556962211535" lon="14.328415292341763"><ele>357.2</ele><time>2026-05-02T08:21:18Z</time></trkpt><trkpt lat="42.055642685048326" lon="14.328308702908407"><ele>359.4</ele><time>2026-05-02T08:21:19Z</time></trkpt><trkpt lat="42.055549333564706" lon="14.328308912325863"><ele>361.6</ele><time>2026-05-02T08:21:20Z</time></trkpt><trkpt lat="42.055468443595345" lon="14.32833956662834"><ele>363.8</ele><time>2026-05-02T08:21:21Z</time></trkpt><trkpt lat="42.05539188064557" lon="14.328407603128296"><ele>366.0</ele><time>2026-05-02T08:21:22Z</time></trkpt><trkpt lat="42.055315151348395" lon="14.328470663751368"><ele>366.0</ele><time>2026-05-02T08:21:23Z</time></trkpt><trkpt lat="42.05523346854103" lon="14.328530796366051"><ele>366.0</ele><time>2026-05-02T08:21:24Z</time></trkpt><trkpt lat="42.05514771649904" lon="14.328601855947763"><ele>366.0</ele><time>2026-05-02T08:21:25Z</time></trkpt><trkpt lat="42.05505358025157" lon="14.32865533816502"><ele>366.0</ele><time>2026-05-02T08:21:26Z</time></trkpt><trkpt lat="42.054947724500465" lon="14.328632552893168"><ele>366.0</ele><time>2026-05-02T08:21:27Z</time></trkpt><trkpt lat="42.05484988404768" lon="14.328577284137184"><ele>366.1666666666667</ele><time>2026-05-02T08:21:28Z</time></trkpt><trkpt lat="42.054762288411375" lon="14.328498183979189"><ele>366.3333333333333</ele><time>2026-05-02T08:21:29Z</time></trkpt><trkpt lat="42.05471309190404" lon="14.328393289950405"><ele>366.5</ele><time>2026-05-02T08:21:30Z</time></trkpt><trkpt lat="42.054703420827224" lon="14.328304705838248"><ele>366.66666666666663</ele><time>2026-05-02T08:21:31Z</time></trkpt><trkpt lat="42.05472452217885" lon="14.328215784086028"><ele>366.8333333333333</ele><time>2026-05-02T08:21:32Z</time></trkpt><trkpt lat="42.054773860744746" lon="14.328127862022226"><ele>367.0</ele><time>2026-05-02T08:21:33Z</time></trkpt><trkpt lat="42.05481569000337" lon="14.328022762640744"><ele>367.0</ele><time>2026-05-02T08:21:34Z</time></trkpt><trkpt lat="42.0548548129702" lon="14.327910451530249"><ele>367.0</ele><time>2026-05-02T08:21:35Z</time></trkpt><trkpt lat="42.05486221500961" lon="14.327787506425551"><ele>367.0</ele><time>2026-05-02T08:21:36Z</time></trkpt><trkpt lat="42.05483758928254" lon="14.327660377420546"><ele>367.0</ele><time>2026-05-02T08:21:37Z</time></trkpt><trkpt lat="42.05479945867558" lon="14.327530802148031"><ele>367.0</ele><time>2026-05-02T08:21:38Z</time></trkpt><trkpt lat="42.0547637483665" lon="14.327397079348847"><ele>367.0</ele><time>2026-05-02T08:21:39Z</time></trkpt><trkpt lat="42.05473510096885" lon="14.327259970425226"><ele>367.0</ele><time>2026-05-02T08:21:40Z</time></trkpt><trkpt lat="42.05475033249343" lon="14.327119564494225"><ele>367.0</ele><time>2026-05-02T08:21:41Z</time></trkpt><trkpt lat="42.05479760546765" lon="14.326989965487378"><ele>367.0</ele><time>2026-05-02T08:21:42Z</time></trkpt><trkpt lat="42.05485110720194" lon="14.326876740495043"><ele>367.0</ele><time>2026-05-02T08:21:43Z</time></trkpt><trkpt lat="42.054901756740634" lon="14.326756893483608"><ele>369.0</ele><time>2026-05-02T08:21:44Z</time></trkpt><trkpt lat="42.054922815751524" lon="14.326624094241605"><ele>371.0</ele><time>2026-05-02T08:21:45Z</time></trkpt><trkpt lat="42.054910480023054" lon="14.326486760917405"><ele>373.0</ele><time>2026-05-02T08:21:46Z</time></trkpt><trkpt lat="42.05488001031858" lon="14.326360438299632"><ele>375.0</ele><time>2026-05-02T08:21:47Z</time></trkpt><trkpt lat="42.05483318289185" lon="14.326249961452081"><ele>377.0</ele><time>2026-05-02T08:21:48Z</time></trkpt><trkpt lat="42.054735986645404" lon="14.326186924860995"><ele>379.0</ele><time>2026-05-02T08:21:49Z</time></trkpt><trkpt lat="42.05463954509372" lon="14.326150124808104"><ele>381.0</ele><time>2026-05-02T08:21:50Z</time></trkpt><trkpt lat="42.05453712233435" lon="14.32613867640685"><ele>383.0</ele><time>2026-05-02T08:21:51Z</time></trkpt><trkpt lat="42.05443461156975" lon="14.326145011093862"><ele>385.0</ele><time>2026-05-02T08:21:52Z</time></trkpt><trkpt lat="42.054331246881155" lon="14.326158314670401"><ele>387.0</ele><time>2026-05-02T08:21:53Z</time></trkpt><trkpt lat="42.05423680253452" lon="14.326165854968352"><ele>387.0</ele><time>2026-05-02T08:21:54Z</time></trkpt><trkpt lat="42.054156436162124" lon="14.326171353191917"><ele>387.0</ele><time>2026-05-02T08:21:55Z</time></trkpt><trkpt lat="42.054071027928124" lon="14.326149365685119"><ele>387.0</ele><time>2026-05-02T08:21:57Z</time></trkpt><trkpt lat="42.05399436194309" lon="14.3262086403849"><ele>387.0</ele><time>2026-05-02T08:23:12.999Z</time></trkpt><trkpt lat="42.05392631697948" lon="14.326049356582446"><ele>387.0</ele><time>2026-05-02T08:23:15.999Z</time></trkpt><trkpt lat="42.05391867894881" lon="14.325938734675859"><ele>387.0</ele><time>2026-05-02T08:23:16.999Z</time></trkpt><trkpt lat="42.05396932263313" lon="14.325834259669293"><ele>387.0</ele><time>2026-05-02T08:23:17.999Z</time></trkpt><trkpt lat="42.05403430933876" lon="14.325754735290799"><ele>387.0</ele><time>2026-05-02T08:23:18.999Z</time></trkpt><trkpt lat="42.05409810620671" lon="14.325650411740309"><ele>387.0</ele><time>2026-05-02T08:23:19.999Z</time></trkpt><trkpt lat="42.05419535006552" lon="14.32560485879368"><ele>387.0</ele><time>2026-05-02T08:23:20.999Z</time></trkpt><trkpt lat="42.05427086918639" lon="14.32549320592461"><ele>389.5</ele><time>2026-05-02T08:23:21.999Z</time></trkpt><trkpt lat="42.054353922942184" lon="14.325396928218103"><ele>392.0</ele><time>2026-05-02T08:23:22.999Z</time></trkpt><trkpt lat="42.05441583781525" lon="14.325243005544772"><ele>394.5</ele><time>2026-05-02T08:23:23.999Z</time></trkpt><trkpt lat="42.05450066069518" lon="14.325117252933126"><ele>397.0</ele><time>2026-05-02T08:23:24.999Z</time></trkpt><trkpt lat="42.05457162937103" lon="14.3249695398215"><ele>397.0</ele><time>2026-05-02T08:23:25.999Z</time></trkpt><trkpt lat="42.054635801385494" lon="14.324819951279851"><ele>397.0</ele><time>2026-05-02T08:23:26.999Z</time></trkpt><trkpt lat="42.05470279383685" lon="14.324676582654005"><ele>397.0</ele><time>2026-05-02T08:23:27.999Z</time></trkpt><trkpt lat="42.054784704713" lon="14.324550586855894"><ele>397.0</ele><time>2026-05-02T08:23:28.999Z</time></trkpt><trkpt lat="42.05490428891383" lon="14.32447772559336"><ele>398.75</ele><time>2026-05-02T08:23:29.999Z</time></trkpt><trkpt lat="42.05502706213922" lon="14.324429151643345"><ele>400.5</ele><time>2026-05-02T08:23:31Z</time></trkpt><trkpt lat="42.055139081692865" lon="14.324376925218786"><ele>402.25</ele><time>2026-05-02T08:23:32Z</time></trkpt><trkpt lat="42.0552432477141" lon="14.324323922356218"><ele>404.0</ele><time>2026-05-02T08:23:33Z</time></trkpt><trkpt lat="42.05534330576326" lon="14.324266179891831"><ele>404.0</ele><time>2026-05-02T08:23:34Z</time></trkpt><trkpt lat="42.05543944463528" lon="14.324210339239425"><ele>404.0</ele><time>2026-05-02T08:23:35Z</time></trkpt><trkpt lat="42.05551997015921" lon="14.324125221404616"><ele>404.0</ele><time>2026-05-02T08:23:36Z</time></trkpt><trkpt lat="42.0556000366467" lon="14.324030217324475"><ele>404.0</ele><time>2026-05-02T08:23:37Z</time></trkpt><trkpt lat="42.0556512593678" lon="14.323899688314219"><ele>404.0</ele><time>2026-05-02T08:23:38Z</time></trkpt><trkpt lat="42.055714159220976" lon="14.323763482075586"><ele>404.0</ele><time>2026-05-02T08:23:39Z</time></trkpt><trkpt lat="42.05576983422182" lon="14.323639465652601"><ele>404.0</ele><time>2026-05-02T08:23:40Z</time></trkpt><trkpt lat="42.05583326170595" lon="14.32351963863272"><ele>404.0</ele><time>2026-05-02T08:23:41Z</time></trkpt><trkpt lat="42.05589134098866" lon="14.323405746297414"><ele>404.0</ele><time>2026-05-02T08:23:42Z</time></trkpt><trkpt lat="42.05594307740058" lon="14.323286884790736"><ele>404.0</ele><time>2026-05-02T08:23:43Z</time></trkpt><trkpt lat="42.055969283790695" lon="14.323155931989579"><ele>405.49999999999994</ele><time>2026-05-02T08:23:44Z</time></trkpt><trkpt lat="42.05598247446793" lon="14.323041870022793"><ele>407.0</ele><time>2026-05-02T08:23:45Z</time></trkpt><trkpt lat="42.05593780568465" lon="14.322934983796497"><ele>408.5</ele><time>2026-05-02T08:23:46Z</time></trkpt><trkpt lat="42.0558701066562" lon="14.322876397463613"><ele>410.0</ele><time>2026-05-02T08:23:47Z</time></trkpt><trkpt lat="42.05578134059822" lon="14.322889552471844"><ele>411.49999999999994</ele><time>2026-05-02T08:23:48Z</time></trkpt><trkpt lat="42.0556985574812" lon="14.322934526658862"><ele>413.0</ele><time>2026-05-02T08:23:49Z</time></trkpt><trkpt lat="42.05562246495997" lon="14.322987439486049"><ele>412.49999999999994</ele><time>2026-05-02T08:23:50Z</time></trkpt><trkpt lat="42.0555485099943" lon="14.323035967131156"><ele>412.0</ele><time>2026-05-02T08:23:51Z</time></trkpt><trkpt lat="42.05547032930505" lon="14.323090658752314"><ele>411.5</ele><time>2026-05-02T08:23:52Z</time></trkpt><trkpt lat="42.05539045751398" lon="14.323146073543306"><ele>411.0</ele><time>2026-05-02T08:23:53Z</time></trkpt><trkpt lat="42.055308300084384" lon="14.3231946093429"><ele>410.49999999999994</ele><time>2026-05-02T08:23:54Z</time></trkpt><trkpt lat="42.05522535341002" lon="14.323221860351282"><ele>410.0</ele><time>2026-05-02T08:23:55Z</time></trkpt><trkpt lat="42.05514753358989" lon="14.323209045590387"><ele>410.0</ele><time>2026-05-02T08:23:56Z</time></trkpt><trkpt lat="42.05508572535552" lon="14.323141885430495"><ele>410.0</ele><time>2026-05-02T08:23:57Z</time></trkpt><trkpt lat="42.055064133539176" lon="14.323057033776768"><ele>410.0</ele><time>2026-05-02T08:23:58Z</time></trkpt><trkpt lat="42.055079754417996" lon="14.322963858447"><ele>410.0</ele><time>2026-05-02T08:23:59Z</time></trkpt><trkpt lat="42.05509731294798" lon="14.322878921059273"><ele>410.0</ele><time>2026-05-02T08:24:00Z</time></trkpt><trkpt lat="42.05512465876547" lon="14.322799129361162"><ele>410.0</ele><time>2026-05-02T08:24:01Z</time></trkpt><trkpt lat="42.055195454749494" lon="14.322724701998448"><ele>410.0</ele><time>2026-05-02T08:24:02Z</time></trkpt><trkpt lat="42.05526536297419" lon="14.322650856368423"><ele>411.99999999999994</ele><time>2026-05-02T08:24:03Z</time></trkpt><trkpt lat="42.055335323086105" lon="14.322583974224491"><ele>414.0</ele><time>2026-05-02T08:24:04Z</time></trkpt><trkpt lat="42.055397903740165" lon="14.322514010793387"><ele>416.0</ele><time>2026-05-02T08:24:05Z</time></trkpt><trkpt lat="42.055460251364444" lon="14.322432265056017"><ele>418.0</ele><time>2026-05-02T08:24:06Z</time></trkpt><trkpt lat="42.05549850420716" lon="14.322329652134545"><ele>419.99999999999994</ele><time>2026-05-02T08:24:07Z</time></trkpt><trkpt lat="42.055503924504315" lon="14.322217304177892"><ele>422.0</ele><time>2026-05-02T08:24:08Z</time></trkpt><trkpt lat="42.05546818127682" lon="14.32212841549394"><ele>424.49999999999994</ele><time>2026-05-02T08:24:09Z</time></trkpt><trkpt lat="42.05540191047744" lon="14.32207723054501"><ele>427.0</ele><time>2026-05-02T08:24:10Z</time></trkpt><trkpt lat="42.05532240467977" lon="14.322059644914711"><ele>429.5</ele><time>2026-05-02T08:24:11Z</time></trkpt><trkpt lat="42.055237253218635" lon="14.32205219700496"><ele>432.0</ele><time>2026-05-02T08:24:12Z</time></trkpt><trkpt lat="42.05514847599943" lon="14.322042237010733"><ele>434.49999999999994</ele><time>2026-05-02T08:24:13Z</time></trkpt><trkpt lat="42.055052063672676" lon="14.32203411616518"><ele>437.0</ele><time>2026-05-02T08:24:14Z</time></trkpt><trkpt lat="42.05494846401978" lon="14.322038606411848"><ele>437.20000000000005</ele><time>2026-05-02T08:24:15Z</time></trkpt><trkpt lat="42.05484127001575" lon="14.322038626578312"><ele>437.40000000000003</ele><time>2026-05-02T08:24:16Z</time></trkpt><trkpt lat="42.05473512966898" lon="14.322033030513277"><ele>437.59999999999997</ele><time>2026-05-02T08:24:17Z</time></trkpt><trkpt lat="42.05463631197768" lon="14.322027712324102"><ele>437.79999999999995</ele><time>2026-05-02T08:24:18Z</time></trkpt><trkpt lat="42.054533002293454" lon="14.322009758556023"><ele>438.0</ele><time>2026-05-02T08:24:19Z</time></trkpt><trkpt lat="42.05443160276773" lon="14.321992770187288"><ele>438.0</ele><time>2026-05-02T08:24:20Z</time></trkpt><trkpt lat="42.05433432795665" lon="14.321986250376884"><ele>437.99999999999994</ele><time>2026-05-02T08:24:21Z</time></trkpt><trkpt lat="42.054239896268435" lon="14.321982604146482"><ele>437.99999999999994</ele><time>2026-05-02T08:24:22Z</time></trkpt><trkpt lat="42.05414753348821" lon="14.321961022151429"><ele>438.0</ele><time>2026-05-02T08:24:23Z</time></trkpt><trkpt lat="42.054067413461325" lon="14.321911554629425"><ele>438.0</ele><time>2026-05-02T08:24:24Z</time></trkpt><trkpt lat="42.0540120327538" lon="14.321831256755102"><ele>438.0</ele><time>2026-05-02T08:24:25Z</time></trkpt><trkpt lat="42.05398771145809" lon="14.321752628246415"><ele>437.99999999999994</ele><time>2026-05-02T08:24:26Z</time></trkpt><trkpt lat="42.053991956913336" lon="14.321598916820532"><ele>437.99999999999994</ele><time>2026-05-02T08:24:28Z</time></trkpt><trkpt lat="42.054093007193586" lon="14.321522587168204"><ele>438.0</ele><time>2026-05-02T08:24:30Z</time></trkpt><trkpt lat="42.05416205539093" lon="14.321465108360739"><ele>438.0</ele><time>2026-05-02T08:24:31Z</time></trkpt><trkpt lat="42.054245882188965" lon="14.321446213689772"><ele>438.0</ele><time>2026-05-02T08:24:32Z</time></trkpt><trkpt lat="42.05432360941791" lon="14.321429612326764"><ele>438.0</ele><time>2026-05-02T08:24:33Z</time></trkpt><trkpt lat="42.054386355767264" lon="14.321413284137854"><ele>438.0</ele><time>2026-05-02T08:24:34Z</time></trkpt><trkpt lat="42.054452972898886" lon="14.321386123556517"><ele>438.0</ele><time>2026-05-02T08:24:35Z</time></trkpt><trkpt lat="42.0545266777541" lon="14.32134842757421"><ele>438.0</ele><time>2026-05-02T08:24:36Z</time></trkpt><trkpt lat="42.054595500794065" lon="14.321298512992318"><ele>438.0</ele><time>2026-05-02T08:24:37Z</time></trkpt><trkpt lat="42.0546555929989" lon="14.321217987237038"><ele>438.79999999999995</ele><time>2026-05-02T08:24:38Z</time></trkpt><trkpt lat="42.05470860604441" lon="14.321116671450763"><ele>439.59999999999997</ele><time>2026-05-02T08:24:39Z</time></trkpt><trkpt lat="42.054719252443526" lon="14.320982739333413"><ele>440.40000000000003</ele><time>2026-05-02T08:24:40Z</time></trkpt><trkpt lat="42.054738369425046" lon="14.320853177162494"><ele>441.20000000000005</ele><time>2026-05-02T08:24:41Z</time></trkpt><trkpt lat="42.05475998022326" lon="14.320716952399659"><ele>442.0</ele><time>2026-05-02T08:24:42Z</time></trkpt><trkpt lat="42.054816707464624" lon="14.3205837510506"><ele>444.25</ele><time>2026-05-02T08:24:43Z</time></trkpt><trkpt lat="42.05490000690411" lon="14.32048076530366"><ele>446.5</ele><time>2026-05-02T08:24:44Z</time></trkpt><trkpt lat="42.05498517344024" lon="14.320357556604666"><ele>448.75</ele><time>2026-05-02T08:24:45Z</time></trkpt><trkpt lat="42.05506901896252" lon="14.320233089939443"><ele>451.0</ele><time>2026-05-02T08:24:46Z</time></trkpt><trkpt lat="42.05514844773137" lon="14.320113946759793"><ele>453.8</ele><time>2026-05-02T08:24:47Z</time></trkpt><trkpt lat="42.05521570545965" lon="14.319991499929301"><ele>456.6</ele><time>2026-05-02T08:24:48Z</time></trkpt><trkpt lat="42.05529272377584" lon="14.319886473581178"><ele>459.4</ele><time>2026-05-02T08:24:49Z</time></trkpt><trkpt lat="42.05536687189876" lon="14.319784296488805"><ele>462.2</ele><time>2026-05-02T08:24:50Z</time></trkpt><trkpt lat="42.055433120046025" lon="14.319675490822215"><ele>465.0</ele><time>2026-05-02T08:24:51Z</time></trkpt><trkpt lat="42.05550028470446" lon="14.319558746234602"><ele>469.0</ele><time>2026-05-02T08:24:52Z</time></trkpt><trkpt lat="42.055558577977735" lon="14.319425724061235"><ele>473.0</ele><time>2026-05-02T08:24:53Z</time></trkpt><trkpt lat="42.05560656278491" lon="14.319282264798423"><ele>477.0</ele><time>2026-05-02T08:24:54Z</time></trkpt><trkpt lat="42.055654555667914" lon="14.319131519671828"><ele>481.0</ele><time>2026-05-02T08:24:55Z</time></trkpt><trkpt lat="42.0557100624004" lon="14.318991001133003"><ele>480.5</ele><time>2026-05-02T08:24:56Z</time></trkpt><trkpt lat="42.05575809880876" lon="14.31883820413903"><ele>480.0</ele><time>2026-05-02T08:24:57Z</time></trkpt><trkpt lat="42.05580342964166" lon="14.31868583898029"><ele>479.5</ele><time>2026-05-02T08:24:58Z</time></trkpt><trkpt lat="42.0558488786356" lon="14.31853307667277"><ele>479.0</ele><time>2026-05-02T08:24:59Z</time></trkpt><trkpt lat="42.05589506089827" lon="14.318382140356034"><ele>479.0</ele><time>2026-05-02T08:25:00Z</time></trkpt><trkpt lat="42.05594239837419" lon="14.318217964079405"><ele>479.0</ele><time>2026-05-02T08:25:01Z</time></trkpt><trkpt lat="42.05599947102217" lon="14.31804797699547"><ele>479.0</ele><time>2026-05-02T08:25:02Z</time></trkpt><trkpt lat="42.05604609677017" lon="14.317875143317387"><ele>479.0</ele><time>2026-05-02T08:25:03Z</time></trkpt><trkpt lat="42.056120497929115" lon="14.317716987245602"><ele>482.5</ele><time>2026-05-02T08:25:04Z</time></trkpt><trkpt lat="42.05618331475033" lon="14.317554004124144"><ele>486.0</ele><time>2026-05-02T08:25:05Z</time></trkpt><trkpt lat="42.0562783941609" lon="14.317406787316957"><ele>489.5</ele><time>2026-05-02T08:25:06Z</time></trkpt><trkpt lat="42.05637462144845" lon="14.317262637713768"><ele>493.0</ele><time>2026-05-02T08:25:07Z</time></trkpt><trkpt lat="42.05646932949026" lon="14.317117082971452"><ele>494.5</ele><time>2026-05-02T08:25:08Z</time></trkpt><trkpt lat="42.056559976487506" lon="14.316972954502615"><ele>496.0</ele><time>2026-05-02T08:25:09Z</time></trkpt><trkpt lat="42.05665582202496" lon="14.31682850013413"><ele>497.5</ele><time>2026-05-02T08:25:10Z</time></trkpt><trkpt lat="42.056731460620796" lon="14.316662346331666"><ele>499.0</ele><time>2026-05-02T08:25:11Z</time></trkpt><trkpt lat="42.05679884122932" lon="14.316486839374814"><ele>497.5</ele><time>2026-05-02T08:25:12Z</time></trkpt><trkpt lat="42.05685865243429" lon="14.316315065732518"><ele>496.0</ele><time>2026-05-02T08:25:13Z</time></trkpt><trkpt lat="42.05691189056937" lon="14.316152878380779"><ele>494.5</ele><time>2026-05-02T08:25:14Z</time></trkpt><trkpt lat="42.056973024109006" lon="14.316002717424512"><ele>493.0</ele><time>2026-05-02T08:25:15Z</time></trkpt><trkpt lat="42.05703874090988" lon="14.315873399244634"><ele>493.0</ele><time>2026-05-02T08:25:16Z</time></trkpt><trkpt lat="42.05710777491084" lon="14.315757228023607"><ele>492.99999999999994</ele><time>2026-05-02T08:25:17Z</time></trkpt><trkpt lat="42.05717989592295" lon="14.315648575489204"><ele>492.99999999999994</ele><time>2026-05-02T08:25:18Z</time></trkpt><trkpt lat="42.057251561233144" lon="14.31554092020465"><ele>493.0</ele><time>2026-05-02T08:25:19Z</time></trkpt><trkpt lat="42.057318201505524" lon="14.3154411003017"><ele>493.0</ele><time>2026-05-02T08:25:20Z</time></trkpt><trkpt lat="42.057363323723166" lon="14.31534192711299"><ele>494.00000000000006</ele><time>2026-05-02T08:25:21Z</time></trkpt><trkpt lat="42.0574176638327" lon="14.315278053808756"><ele>495.0</ele><time>2026-05-02T08:25:22Z</time></trkpt><trkpt lat="42.05748214351573" lon="14.31518614442827"><ele>496.0</ele><time>2026-05-02T08:25:24Z</time></trkpt><trkpt lat="42.057515596829084" lon="14.31510673109226"><ele>497.0</ele><time>2026-05-02T08:25:28Z</time></trkpt><trkpt lat="42.05762487016286" lon="14.315065739962026"><ele>498.00000000000006</ele><time>2026-05-02T08:25:30Z</time></trkpt><trkpt lat="42.05768704999583" lon="14.315019655852083"><ele>499.0</ele><time>2026-05-02T08:25:31Z</time></trkpt><trkpt lat="42.05775269757069" lon="14.314967379887305"><ele>499.0</ele><time>2026-05-02T08:25:32Z</time></trkpt><trkpt lat="42.057829660377635" lon="14.314910120589184"><ele>499.0</ele><time>2026-05-02T08:25:33Z</time></trkpt><trkpt lat="42.057889331017066" lon="14.314826592122582"><ele>499.0</ele><time>2026-05-02T08:25:34Z</time></trkpt><trkpt lat="42.05795255770659" lon="14.314736532403659"><ele>499.0</ele><time>2026-05-02T08:25:35Z</time></trkpt><trkpt lat="42.0580201672947" lon="14.314640229716375"><ele>499.0</ele><time>2026-05-02T08:25:36Z</time></trkpt><trkpt lat="42.05809341361513" lon="14.314535898092027"><ele>498.2</ele><time>2026-05-02T08:25:37Z</time></trkpt><trkpt lat="42.058164865296696" lon="14.314432443632167"><ele>497.4</ele><time>2026-05-02T08:25:38Z</time></trkpt><trkpt lat="42.05823590587346" lon="14.314326810524202"><ele>496.6</ele><time>2026-05-02T08:25:39Z</time></trkpt><trkpt lat="42.05829952905632" lon="14.314204102907652"><ele>495.8</ele><time>2026-05-02T08:25:40Z</time></trkpt><trkpt lat="42.058384360259026" lon="14.314109348090629"><ele>495.0</ele><time>2026-05-02T08:25:41Z</time></trkpt><trkpt lat="42.05847394896426" lon="14.314017234262064"><ele>495.0</ele><time>2026-05-02T08:25:42Z</time></trkpt><trkpt lat="42.058566120028516" lon="14.313932793167647"><ele>495.0</ele><time>2026-05-02T08:25:43Z</time></trkpt><trkpt lat="42.058666690135794" lon="14.31387099792926"><ele>495.0</ele><time>2026-05-02T08:25:44Z</time></trkpt><trkpt lat="42.058759665844356" lon="14.313779435980985"><ele>495.0</ele><time>2026-05-02T08:25:45Z</time></trkpt><trkpt lat="42.05884376671682" lon="14.313668614485964"><ele>494.0</ele><time>2026-05-02T08:25:46Z</time></trkpt><trkpt lat="42.05891412009202" lon="14.313546533403708"><ele>493.0</ele><time>2026-05-02T08:25:47Z</time></trkpt><trkpt lat="42.05898436855731" lon="14.31342762309735"><ele>492.0</ele><time>2026-05-02T08:25:48Z</time></trkpt><trkpt lat="42.059043402415675" lon="14.313297585155002"><ele>491.0</ele><time>2026-05-02T08:25:49Z</time></trkpt><trkpt lat="42.059125443928046" lon="14.313197668762868"><ele>490.4</ele><time>2026-05-02T08:25:50Z</time></trkpt><trkpt lat="42.05920591599295" lon="14.313090000421413"><ele>489.8</ele><time>2026-05-02T08:25:51Z</time></trkpt><trkpt lat="42.05929102532074" lon="14.312993065716002"><ele>489.19999999999993</ele><time>2026-05-02T08:25:52Z</time></trkpt><trkpt lat="42.05938430001865" lon="14.312914473309608"><ele>488.59999999999997</ele><time>2026-05-02T08:25:53Z</time></trkpt><trkpt lat="42.0594857699413" lon="14.312864152530855"><ele>488.0</ele><time>2026-05-02T08:25:54Z</time></trkpt><trkpt lat="42.05960389512594" lon="14.312853611611446"><ele>486.0</ele><time>2026-05-02T08:25:55Z</time></trkpt><trkpt lat="42.059723416220905" lon="14.312830237882656"><ele>484.0</ele><time>2026-05-02T08:25:56Z</time></trkpt><trkpt lat="42.059844686361444" lon="14.31279099349996"><ele>482.0</ele><time>2026-05-02T08:25:57Z</time></trkpt><trkpt lat="42.05997106682551" lon="14.312753388983412"><ele>480.0</ele><time>2026-05-02T08:25:58Z</time></trkpt><trkpt lat="42.060093781330494" lon="14.312709050063557"><ele>479.0</ele><time>2026-05-02T08:25:59Z</time></trkpt><trkpt lat="42.0602039775199" lon="14.312630928093704"><ele>478.0</ele><time>2026-05-02T08:26:00Z</time></trkpt><trkpt lat="42.060312534265336" lon="14.312543045912358"><ele>477.0</ele><time>2026-05-02T08:26:01Z</time></trkpt><trkpt lat="42.060421616742936" lon="14.312462558686368"><ele>476.0</ele><time>2026-05-02T08:26:02Z</time></trkpt><trkpt lat="42.060529261970494" lon="14.312393694775482"><ele>476.0</ele><time>2026-05-02T08:26:03Z</time></trkpt><trkpt lat="42.06061511494815" lon="14.312293267132196"><ele>476.0</ele><time>2026-05-02T08:26:04Z</time></trkpt><trkpt lat="42.06067166035137" lon="14.31215720274577"><ele>476.0</ele><time>2026-05-02T08:26:05Z</time></trkpt><trkpt lat="42.060718525620295" lon="14.312014761225791"><ele>476.0</ele><time>2026-05-02T08:26:06Z</time></trkpt><trkpt lat="42.060763736504704" lon="14.311870441518744"><ele>473.25</ele><time>2026-05-02T08:26:07Z</time></trkpt><trkpt lat="42.06081254669689" lon="14.311725103176347"><ele>470.5</ele><time>2026-05-02T08:26:08Z</time></trkpt><trkpt lat="42.06086643128982" lon="14.311576538048033"><ele>467.75</ele><time>2026-05-02T08:26:09Z</time></trkpt><trkpt lat="42.06092619407342" lon="14.31142826649097"><ele>465.0</ele><time>2026-05-02T08:26:10Z</time></trkpt><trkpt lat="42.06099591960371" lon="14.311291717528777"><ele>462.5</ele><time>2026-05-02T08:26:11Z</time></trkpt><trkpt lat="42.06108014679138" lon="14.311162029726733"><ele>460.0</ele><time>2026-05-02T08:26:12Z</time></trkpt><trkpt lat="42.0611630515615" lon="14.311038516333754"><ele>457.5</ele><time>2026-05-02T08:26:13Z</time></trkpt><trkpt lat="42.06126169888122" lon="14.310945801369867"><ele>455.0</ele><time>2026-05-02T08:26:14Z</time></trkpt><trkpt lat="42.061336178754715" lon="14.310831373945586"><ele>455.0</ele><time>2026-05-02T08:26:15Z</time></trkpt><trkpt lat="42.06140026467952" lon="14.310722069408142"><ele>455.0</ele><time>2026-05-02T08:26:16Z</time></trkpt><trkpt lat="42.061407769777915" lon="14.310566694108276"><ele>455.0</ele><time>2026-05-02T08:26:17Z</time></trkpt><trkpt lat="42.061378212269716" lon="14.310410107813315"><ele>455.0</ele><time>2026-05-02T08:26:18Z</time></trkpt><trkpt lat="42.061303538049835" lon="14.310267320450372"><ele>453.0</ele><time>2026-05-02T08:26:19Z</time></trkpt><trkpt lat="42.06125354573467" lon="14.310107357859982"><ele>451.0</ele><time>2026-05-02T08:26:20Z</time></trkpt><trkpt lat="42.06119480742007" lon="14.30997073211167"><ele>449.0</ele><time>2026-05-02T08:26:21Z</time></trkpt><trkpt lat="42.06115220054616" lon="14.309866107006115"><ele>447.0</ele><time>2026-05-02T08:26:22Z</time></trkpt><trkpt lat="42.06112208121449" lon="14.30977312292674"><ele>445.0</ele><time>2026-05-02T08:26:23Z</time></trkpt><trkpt lat="42.061145789687465" lon="14.309672421247422"><ele>441.75</ele><time>2026-05-02T08:26:24Z</time></trkpt><trkpt lat="42.06121607949788" lon="14.309608775759006"><ele>438.5</ele><time>2026-05-02T08:26:25Z</time></trkpt><trkpt lat="42.061318586059265" lon="14.309591104062449"><ele>435.25</ele><time>2026-05-02T08:26:26Z</time></trkpt><trkpt lat="42.06145211920297" lon="14.309604593878264"><ele>432.0</ele><time>2026-05-02T08:26:27Z</time></trkpt><trkpt lat="42.06158713290633" lon="14.309610706560637"><ele>433.8</ele><time>2026-05-02T08:26:28Z</time></trkpt><trkpt lat="42.06171081810206" lon="14.30959121992469"><ele>435.6</ele><time>2026-05-02T08:26:29Z</time></trkpt><trkpt lat="42.06181906140095" lon="14.309561116398863"><ele>437.40000000000003</ele><time>2026-05-02T08:26:30Z</time></trkpt><trkpt lat="42.061907444637555" lon="14.309516258420148"><ele>439.20000000000005</ele><time>2026-05-02T08:26:31Z</time></trkpt><trkpt lat="42.0619823131052" lon="14.309463316932383"><ele>441.0</ele><time>2026-05-02T08:26:32Z</time></trkpt><trkpt lat="42.062032730354915" lon="14.309331022173248"><ele>441.0</ele><time>2026-05-02T08:26:33Z</time></trkpt><trkpt lat="42.06207060215383" lon="14.309189711965669"><ele>441.0</ele><time>2026-05-02T08:26:34Z</time></trkpt><trkpt lat="42.062110729300116" lon="14.309033750519848"><ele>441.0</ele><time>2026-05-02T08:26:35Z</time></trkpt><trkpt lat="42.06215500371166" lon="14.308870269036555"><ele>441.0</ele><time>2026-05-02T08:26:36Z</time></trkpt><trkpt lat="42.06219147577922" lon="14.308732463867425"><ele>438.4</ele><time>2026-05-02T08:26:37Z</time></trkpt><trkpt lat="42.06221826031846" lon="14.308614570582444"><ele>435.8</ele><time>2026-05-02T08:26:38Z</time></trkpt><trkpt lat="42.06222399690373" lon="14.308504687459822"><ele>433.19999999999993</ele><time>2026-05-02T08:26:39Z</time></trkpt><trkpt lat="42.062190658809776" lon="14.308335371254921"><ele>430.59999999999997</ele><time>2026-05-02T08:26:41Z</time></trkpt><trkpt lat="42.06213165220272" lon="14.308277888798802"><ele>428.0</ele><time>2026-05-02T08:26:42Z</time></trkpt><trkpt lat="42.0619576403862" lon="14.308534268802493"><ele>427.99999999999994</ele><time>2026-05-02T08:26:45Z</time></trkpt><trkpt lat="42.061928493372314" lon="14.308630515062477"><ele>428.0</ele><time>2026-05-02T08:26:46Z</time></trkpt><trkpt lat="42.06184549783983" lon="14.30871230538012"><ele>428.0</ele><time>2026-05-02T08:26:48Z</time></trkpt><trkpt lat="42.0617715760023" lon="14.308624597768555"><ele>428.0</ele><time>2026-05-02T08:26:50Z</time></trkpt><trkpt lat="42.06177468116735" lon="14.308528721048601"><ele>427.99999999999994</ele><time>2026-05-02T08:26:51Z</time></trkpt><trkpt lat="42.061809702626405" lon="14.308429804923477"><ele>428.0</ele><time>2026-05-02T08:26:52Z</time></trkpt><trkpt lat="42.06185376176776" lon="14.308317606012778"><ele>428.0</ele><time>2026-05-02T08:26:53Z</time></trkpt><trkpt lat="42.0618948766683" lon="14.308194501971677"><ele>427.99999999999994</ele><time>2026-05-02T08:26:54Z</time></trkpt><trkpt lat="42.06193387796521" lon="14.308065381926554"><ele>427.99999999999994</ele><time>2026-05-02T08:26:55Z</time></trkpt><trkpt lat="42.061974295317256" lon="14.30793639379989"><ele>428.0</ele><time>2026-05-02T08:26:56Z</time></trkpt><trkpt lat="42.06202254045427" lon="14.307830599819322"><ele>428.0</ele><time>2026-05-02T08:26:57Z</time></trkpt><trkpt lat="42.06205537920233" lon="14.307729913490522"><ele>426.2</ele><time>2026-05-02T08:26:58Z</time></trkpt><trkpt lat="42.062083372618304" lon="14.307638528873925"><ele>424.4</ele><time>2026-05-02T08:26:59Z</time></trkpt><trkpt lat="42.062128354248784" lon="14.307503668540193"><ele>422.59999999999997</ele><time>2026-05-02T08:27:01Z</time></trkpt><trkpt lat="42.06219402633212" lon="14.307391126160422"><ele>420.79999999999995</ele><time>2026-05-02T08:27:03Z</time></trkpt><trkpt lat="42.062295466965324" lon="14.307343708708549"><ele>419.0</ele><time>2026-05-02T08:27:05Z</time></trkpt><trkpt lat="42.06237210075874" lon="14.30737122234382"><ele>419.0</ele><time>2026-05-02T08:27:07Z</time></trkpt><trkpt lat="42.06243500368279" lon="14.30741121325042"><ele>419.0</ele><time>2026-05-02T08:27:10Z</time></trkpt><trkpt lat="42.06249790224061" lon="14.307475197104646"><ele>419.0</ele><time>2026-05-02T08:27:12Z</time></trkpt><trkpt lat="42.06263318301663" lon="14.307353940140707"><ele>419.0</ele><time>2026-05-02T08:27:13Z</time></trkpt><trkpt lat="42.06270250497427" lon="14.30734635623901"><ele>419.0</ele><time>2026-05-02T08:27:14Z</time></trkpt><trkpt lat="42.06277432813867" lon="14.307359153640407"><ele>420.16666666666663</ele><time>2026-05-02T08:27:15Z</time></trkpt><trkpt lat="42.062857997823" lon="14.307375369742351"><ele>421.3333333333333</ele><time>2026-05-02T08:27:16Z</time></trkpt><trkpt lat="42.062940754690295" lon="14.307388099000702"><ele>422.5</ele><time>2026-05-02T08:27:17Z</time></trkpt><trkpt lat="42.06303142414339" lon="14.307415730456803"><ele>423.66666666666663</ele><time>2026-05-02T08:27:18Z</time></trkpt><trkpt lat="42.06312308974239" lon="14.30743492569061"><ele>424.8333333333333</ele><time>2026-05-02T08:27:19Z</time></trkpt><trkpt lat="42.06320417527833" lon="14.307468060187936"><ele>426.0</ele><time>2026-05-02T08:27:20Z</time></trkpt><trkpt lat="42.063275017650156" lon="14.307480307584196"><ele>423.1666666666667</ele><time>2026-05-02T08:27:21Z</time></trkpt><trkpt lat="42.06334149300896" lon="14.307488621605927"><ele>420.33333333333337</ele><time>2026-05-02T08:27:22Z</time></trkpt><trkpt lat="42.06340459344198" lon="14.307502262380925"><ele>417.5</ele><time>2026-05-02T08:27:23Z</time></trkpt><trkpt lat="42.06347930500869" lon="14.30754510730718"><ele>414.6666666666667</ele><time>2026-05-02T08:27:24Z</time></trkpt><trkpt lat="42.06353331376811" lon="14.307620777634735"><ele>411.83333333333337</ele><time>2026-05-02T08:27:25Z</time></trkpt><trkpt lat="42.063572897957236" lon="14.307727704884824"><ele>409.0</ele><time>2026-05-02T08:27:26Z</time></trkpt><trkpt lat="42.06361592885681" lon="14.3078143242778"><ele>409.0</ele><time>2026-05-02T08:27:27Z</time></trkpt><trkpt lat="42.06365680369428" lon="14.307939268495943"><ele>409.0</ele><time>2026-05-02T08:27:28Z</time></trkpt><trkpt lat="42.06371999414716" lon="14.308012700773668"><ele>409.0</ele><time>2026-05-02T08:27:29Z</time></trkpt><trkpt lat="42.063802861536224" lon="14.30805488794101"><ele>409.0</ele><time>2026-05-02T08:27:30Z</time></trkpt><trkpt lat="42.063896366426164" lon="14.308042006560186"><ele>409.0</ele><time>2026-05-02T08:27:31Z</time></trkpt><trkpt lat="42.06399048500865" lon="14.307998806672957"><ele>409.0</ele><time>2026-05-02T08:27:32Z</time></trkpt><trkpt lat="42.06407969678143" lon="14.307949691603897"><ele>409.0</ele><time>2026-05-02T08:27:33Z</time></trkpt><trkpt lat="42.064175889296884" lon="14.307916000930303"><ele>409.0</ele><time>2026-05-02T08:27:34Z</time></trkpt><trkpt lat="42.064285269146005" lon="14.307885259201743"><ele>409.0</ele><time>2026-05-02T08:27:35Z</time></trkpt><trkpt lat="42.064397120129165" lon="14.307871961115056"><ele>409.0</ele><time>2026-05-02T08:27:36Z</time></trkpt><trkpt lat="42.06450982702946" lon="14.307868818796345"><ele>405.6</ele><time>2026-05-02T08:27:37Z</time></trkpt><trkpt lat="42.06463070956536" lon="14.307871018065912"><ele>402.2</ele><time>2026-05-02T08:27:38Z</time></trkpt><trkpt lat="42.064753587447704" lon="14.307877755679474"><ele>398.8</ele><time>2026-05-02T08:27:39Z</time></trkpt><trkpt lat="42.06486360307933" lon="14.3078717046463"><ele>395.40000000000003</ele><time>2026-05-02T08:27:40Z</time></trkpt><trkpt lat="42.06495210550179" lon="14.307838550794473"><ele>392.0</ele><time>2026-05-02T08:27:41Z</time></trkpt><trkpt lat="42.06504630757027" lon="14.307801722909236"><ele>392.0</ele><time>2026-05-02T08:27:42Z</time></trkpt><trkpt lat="42.065120614588835" lon="14.30769370911116"><ele>392.0</ele><time>2026-05-02T08:27:43Z</time></trkpt><trkpt lat="42.065153887840076" lon="14.307539218646397"><ele>392.0</ele><time>2026-05-02T08:27:44Z</time></trkpt><trkpt lat="42.06517258589477" lon="14.30739015284199"><ele>392.0</ele><time>2026-05-02T08:27:45Z</time></trkpt><trkpt lat="42.06519220979374" lon="14.307237000091522"><ele>389.8</ele><time>2026-05-02T08:27:46Z</time></trkpt><trkpt lat="42.0652134399543" lon="14.307090044175032"><ele>387.6</ele><time>2026-05-02T08:27:47Z</time></trkpt><trkpt lat="42.06523717025792" lon="14.30694353853493"><ele>385.40000000000003</ele><time>2026-05-02T08:27:48Z</time></trkpt><trkpt lat="42.065251909481" lon="14.30679568551986"><ele>383.20000000000005</ele><time>2026-05-02T08:27:49Z</time></trkpt><trkpt lat="42.06529002042889" lon="14.30665767061024"><ele>381.0</ele><time>2026-05-02T08:27:50Z</time></trkpt><trkpt lat="42.06534634541194" lon="14.306531540604663"><ele>379.0</ele><time>2026-05-02T08:27:51Z</time></trkpt><trkpt lat="42.0653840057492" lon="14.306395087097679"><ele>377.0</ele><time>2026-05-02T08:27:52Z</time></trkpt><trkpt lat="42.065421517415" lon="14.306255244222074"><ele>375.0</ele><time>2026-05-02T08:27:53Z</time></trkpt><trkpt lat="42.06544987270033" lon="14.306113275860367"><ele>373.0</ele><time>2026-05-02T08:27:54Z</time></trkpt><trkpt lat="42.06548190411743" lon="14.30599234621057"><ele>371.0</ele><time>2026-05-02T08:27:55Z</time></trkpt><trkpt lat="42.06547923035687" lon="14.305859861846924"><ele>371.0</ele><time>2026-05-02T08:27:56Z</time></trkpt><trkpt lat="42.065446847979814" lon="14.305735260557066"><ele>371.0</ele><time>2026-05-02T08:27:57Z</time></trkpt><trkpt lat="42.06539482947401" lon="14.305617554785695"><ele>371.0</ele><time>2026-05-02T08:27:58Z</time></trkpt><trkpt lat="42.06534416649511" lon="14.305501806631638"><ele>371.0</ele><time>2026-05-02T08:27:59Z</time></trkpt><trkpt lat="42.06531316015475" lon="14.305399647239312"><ele>371.0</ele><time>2026-05-02T08:28:00Z</time></trkpt><trkpt lat="42.06530253834476" lon="14.305290033330166"><ele>369.8</ele><time>2026-05-02T08:28:01Z</time></trkpt><trkpt lat="42.06530162434843" lon="14.30518283982645"><ele>368.6</ele><time>2026-05-02T08:28:02Z</time></trkpt><trkpt lat="42.06530247966536" lon="14.30509377952429"><ele>367.4</ele><time>2026-05-02T08:28:03Z</time></trkpt><trkpt lat="42.065307482647" lon="14.304975233941917"><ele>366.2</ele><time>2026-05-02T08:28:05Z</time></trkpt><trkpt lat="42.06530638411854" lon="14.304856389527417"><ele>365.0</ele><time>2026-05-02T08:28:07Z</time></trkpt><trkpt lat="42.065307467273925" lon="14.30466190039441"><ele>364.6666666666667</ele><time>2026-05-02T08:28:09Z</time></trkpt><trkpt lat="42.065302495676676" lon="14.304539211245562"><ele>364.33333333333337</ele><time>2026-05-02T08:28:10Z</time></trkpt><trkpt lat="42.06529820691256" lon="14.30443169842952"><ele>364.0</ele><time>2026-05-02T08:28:11Z</time></trkpt><trkpt lat="42.065301317267696" lon="14.304340076522845"><ele>363.6666666666667</ele><time>2026-05-02T08:28:12Z</time></trkpt><trkpt lat="42.06534094407786" lon="14.304226324612685"><ele>363.3333333333333</ele><time>2026-05-02T08:28:14Z</time></trkpt><trkpt lat="42.06530533986493" lon="14.304301630313946"><ele>363.0</ele><time>2026-05-02T08:28:25Z</time></trkpt><trkpt lat="42.065342302959785" lon="14.304194804624872"><ele>362.99999999999994</ele><time>2026-05-02T08:29:23Z</time></trkpt><trkpt lat="42.06529447137637" lon="14.304128828183133"><ele>363.0</ele><time>2026-05-02T08:29:27Z</time></trkpt><trkpt lat="42.06525142749931" lon="14.304210017365232"><ele>363.0</ele><time>2026-05-02T08:29:35Z</time></trkpt><trkpt lat="42.06531919571295" lon="14.30418782682132"><ele>363.0</ele><time>2026-05-02T08:29:40Z</time></trkpt><trkpt lat="42.06532631800555" lon="14.304101280180394"><ele>363.0</ele><time>2026-05-02T08:29:44Z</time></trkpt><trkpt lat="42.06526589418732" lon="14.304042716296625"><ele>362.99999999999994</ele><time>2026-05-02T08:34:43Z</time></trkpt><trkpt lat="42.06522277700165" lon="14.303978959076938"><ele>363.0</ele><time>2026-05-02T08:34:49Z</time></trkpt><trkpt lat="42.06528110012489" lon="14.304020990285494"><ele>362.99999999999994</ele><time>2026-05-02T08:35:24Z</time></trkpt><trkpt lat="42.06532128865595" lon="14.304099247280003"><ele>363.0</ele><time>2026-05-02T08:35:30Z</time></trkpt><trkpt lat="42.06531584190891" lon="14.304194602360894"><ele>363.0</ele><time>2026-05-02T08:36:58Z</time></trkpt><trkpt lat="42.06529962805346" lon="14.304292606390096"><ele>363.0</ele><time>2026-05-02T08:37:04Z</time></trkpt><trkpt lat="42.065279370333904" lon="14.304379163002817"><ele>363.0</ele><time>2026-05-02T08:37:09Z</time></trkpt><trkpt lat="42.06527567659151" lon="14.304476646231553"><ele>362.99999999999994</ele><time>2026-05-02T08:37:14Z</time></trkpt><trkpt lat="42.0652822787357" lon="14.304562550089637"><ele>363.0</ele><time>2026-05-02T08:37:19Z</time></trkpt><trkpt lat="42.06528836191871" lon="14.304658370118327"><ele>363.2857142857143</ele><time>2026-05-02T08:37:24.001Z</time></trkpt><trkpt lat="42.065283593043056" lon="14.304758799468082"><ele>363.57142857142856</ele><time>2026-05-02T08:37:30.001Z</time></trkpt><trkpt lat="42.06528370099585" lon="14.304844647673761"><ele>363.8571428571429</ele><time>2026-05-02T08:37:35.001Z</time></trkpt><trkpt lat="42.065273361390766" lon="14.304933251148197"><ele>364.1428571428571</ele><time>2026-05-02T08:37:40.001Z</time></trkpt><trkpt lat="42.065278780140616" lon="14.305019868943122"><ele>364.42857142857144</ele><time>2026-05-02T08:37:45.001Z</time></trkpt><trkpt lat="42.065277093620175" lon="14.305113886355041"><ele>364.7142857142857</ele><time>2026-05-02T08:37:50.001Z</time></trkpt><trkpt lat="42.06525360963582" lon="14.305034828947775"><ele>365.0</ele><time>2026-05-02T08:38:34Z</time></trkpt><trkpt lat="42.06526261112776" lon="14.304947411512405"><ele>365.00000000000006</ele><time>2026-05-02T08:38:40.001Z</time></trkpt><trkpt lat="42.06526305168703" lon="14.30485754110283"><ele>365.0</ele><time>2026-05-02T08:38:45.001Z</time></trkpt><trkpt lat="42.06527489852402" lon="14.304752126241674"><ele>365.0</ele><time>2026-05-02T08:38:51.001Z</time></trkpt><trkpt lat="42.06527981905904" lon="14.30465329441599"><ele>365.0</ele><time>2026-05-02T08:38:57.001Z</time></trkpt><trkpt lat="42.06525496700846" lon="14.304570670339242"><ele>365.0</ele><time>2026-05-02T08:39:02.001Z</time></trkpt><trkpt lat="42.06525381920857" lon="14.304475130795707"><ele>365.00000000000006</ele><time>2026-05-02T08:39:08.001Z</time></trkpt><trkpt lat="42.06527711139203" lon="14.304396056792429"><ele>365.0</ele><time>2026-05-02T08:39:54.001Z</time></trkpt><trkpt lat="42.06527925240274" lon="14.304302646794335"><ele>364.7142857142857</ele><time>2026-05-02T08:39:59.001Z</time></trkpt><trkpt lat="42.0652927139163" lon="14.304210817157536"><ele>364.42857142857144</ele><time>2026-05-02T08:40:05.001Z</time></trkpt><trkpt lat="42.06529963398293" lon="14.30412516237198"><ele>364.1428571428571</ele><time>2026-05-02T08:40:11.001Z</time></trkpt><trkpt lat="42.06537183603505" lon="14.304113319244408"><ele>363.8571428571429</ele><time>2026-05-02T08:40:18.001Z</time></trkpt><trkpt lat="42.0653404790441" lon="14.304207229537761"><ele>363.57142857142856</ele><time>2026-05-02T08:40:41Z</time></trkpt><trkpt lat="42.06529887211462" lon="14.304288639524623"><ele>363.2857142857143</ele><time>2026-05-02T08:40:47Z</time></trkpt><trkpt lat="42.06527322210807" lon="14.304379109079779"><ele>363.0</ele><time>2026-05-02T08:40:55Z</time></trkpt><trkpt lat="42.065273212928886" lon="14.304280161587895"><ele>363.0</ele><time>2026-05-02T08:41:36Z</time></trkpt><trkpt lat="42.065302640502864" lon="14.304199744619744"><ele>363.0</ele><time>2026-05-02T08:41:42Z</time></trkpt><trkpt lat="42.06535283744377" lon="14.304142965925315"><ele>363.0</ele><time>2026-05-02T08:41:47Z</time></trkpt><trkpt lat="42.06531585291104" lon="14.304227047244414"><ele>363.0</ele><time>2026-05-02T08:55:07Z</time></trkpt><trkpt lat="42.065301790203804" lon="14.304380100229421"><ele>363.0</ele><time>2026-05-02T08:55:09Z</time></trkpt><trkpt lat="42.06529542497634" lon="14.304480313354539"><ele>363.0</ele><time>2026-05-02T08:55:10Z</time></trkpt><trkpt lat="42.065296111210024" lon="14.304595716456673"><ele>363.0</ele><time>2026-05-02T08:55:11Z</time></trkpt><trkpt lat="42.06529980362859" lon="14.304724654522461"><ele>363.0</ele><time>2026-05-02T08:55:12Z</time></trkpt><trkpt lat="42.065296984376886" lon="14.304843650506292"><ele>363.0</ele><time>2026-05-02T08:55:13Z</time></trkpt><trkpt lat="42.065297645985154" lon="14.304973593953072"><ele>363.0</ele><time>2026-05-02T08:55:14Z</time></trkpt><trkpt lat="42.065292055595975" lon="14.30511112603805"><ele>363.0</ele><time>2026-05-02T08:55:15Z</time></trkpt><trkpt lat="42.06528648998551" lon="14.305256432567546"><ele>363.4</ele><time>2026-05-02T08:55:16Z</time></trkpt><trkpt lat="42.065293454405925" lon="14.305387451964432"><ele>363.79999999999995</ele><time>2026-05-02T08:55:17Z</time></trkpt><trkpt lat="42.06532451105738" lon="14.305520372739323"><ele>364.2</ele><time>2026-05-02T08:55:18Z</time></trkpt><trkpt lat="42.06538555291551" lon="14.305660693930864"><ele>364.6</ele><time>2026-05-02T08:55:19Z</time></trkpt><trkpt lat="42.065447653081605" lon="14.305787491252344"><ele>365.0</ele><time>2026-05-02T08:55:20Z</time></trkpt><trkpt lat="42.065479364496774" lon="14.305927116637053"><ele>366.2</ele><time>2026-05-02T08:55:21Z</time></trkpt><trkpt lat="42.06547003582774" lon="14.306039400314562"><ele>367.4</ele><time>2026-05-02T08:55:22Z</time></trkpt><trkpt lat="42.065434687616985" lon="14.30618121028591"><ele>368.6</ele><time>2026-05-02T08:55:23Z</time></trkpt><trkpt lat="42.06538788739899" lon="14.30633258375772"><ele>369.8</ele><time>2026-05-02T08:55:24Z</time></trkpt><trkpt lat="42.06534624853547" lon="14.306475650817688"><ele>371.0</ele><time>2026-05-02T08:55:25Z</time></trkpt><trkpt lat="42.06530076008583" lon="14.30662649358797"><ele>373.5</ele><time>2026-05-02T08:55:26Z</time></trkpt><trkpt lat="42.06524330570923" lon="14.306758548217738"><ele>376.0</ele><time>2026-05-02T08:55:27Z</time></trkpt><trkpt lat="42.06521075441076" lon="14.306906879549354"><ele>378.5</ele><time>2026-05-02T08:55:28Z</time></trkpt><trkpt lat="42.065184861383415" lon="14.30705603807742"><ele>381.0</ele><time>2026-05-02T08:55:29Z</time></trkpt><trkpt lat="42.06516239880507" lon="14.30720588580145"><ele>383.20000000000005</ele><time>2026-05-02T08:55:30Z</time></trkpt><trkpt lat="42.06514334585375" lon="14.307354582697817"><ele>385.40000000000003</ele><time>2026-05-02T08:55:31Z</time></trkpt><trkpt lat="42.06512340295001" lon="14.307505693360628"><ele>387.6</ele><time>2026-05-02T08:55:32Z</time></trkpt><trkpt lat="42.06509925098152" lon="14.307637101257098"><ele>389.8</ele><time>2026-05-02T08:55:33Z</time></trkpt><trkpt lat="42.06505990886466" lon="14.307753778356037"><ele>392.0</ele><time>2026-05-02T08:55:34Z</time></trkpt><trkpt lat="42.064976902924755" lon="14.307823842454434"><ele>392.0</ele><time>2026-05-02T08:55:35Z</time></trkpt><trkpt lat="42.064870785084295" lon="14.30785109958818"><ele>392.0</ele><time>2026-05-02T08:55:36Z</time></trkpt><trkpt lat="42.06474535872193" lon="14.307834289596176"><ele>392.0</ele><time>2026-05-02T08:55:37Z</time></trkpt><trkpt lat="42.064617949162496" lon="14.307835711037338"><ele>392.0</ele><time>2026-05-02T08:55:38Z</time></trkpt><trkpt lat="42.064496717217764" lon="14.307849006039827"><ele>392.0</ele><time>2026-05-02T08:55:39Z</time></trkpt><trkpt lat="42.064379452606715" lon="14.307857847866181"><ele>392.0</ele><time>2026-05-02T08:55:40Z</time></trkpt><trkpt lat="42.06426079536262" lon="14.307862060437602"><ele>392.0</ele><time>2026-05-02T08:55:41Z</time></trkpt><trkpt lat="42.06414494367119" lon="14.307898587748056"><ele>392.0</ele><time>2026-05-02T08:55:42Z</time></trkpt><trkpt lat="42.06403915960016" lon="14.30793908952386"><ele>394.8333333333333</ele><time>2026-05-02T08:55:43Z</time></trkpt><trkpt lat="42.06395387013328" lon="14.307993865609614"><ele>397.66666666666663</ele><time>2026-05-02T08:55:44Z</time></trkpt><trkpt lat="42.0638742311538" lon="14.307994278530433"><ele>400.5</ele><time>2026-05-02T08:55:45Z</time></trkpt><trkpt lat="42.063811192611574" lon="14.308012703238424"><ele>403.33333333333337</ele><time>2026-05-02T08:55:46Z</time></trkpt><trkpt lat="42.063748654267364" lon="14.307980119383178"><ele>406.1666666666667</ele><time>2026-05-02T08:55:47Z</time></trkpt><trkpt lat="42.06369761677753" lon="14.307909397792065"><ele>409.0</ele><time>2026-05-02T08:55:48Z</time></trkpt><trkpt lat="42.06365619442125" lon="14.307825659607452"><ele>409.00000000000006</ele><time>2026-05-02T08:55:49Z</time></trkpt><trkpt lat="42.06363080820643" lon="14.307728923256484"><ele>409.0</ele><time>2026-05-02T08:55:50Z</time></trkpt><trkpt lat="42.06359462620902" lon="14.307630479518131"><ele>409.0</ele><time>2026-05-02T08:55:51Z</time></trkpt><trkpt lat="42.063543219292775" lon="14.3075322088623"><ele>409.0</ele><time>2026-05-02T08:55:52Z</time></trkpt><trkpt lat="42.06348857625351" lon="14.307465664039029"><ele>409.00000000000006</ele><time>2026-05-02T08:55:53Z</time></trkpt><trkpt lat="42.06338315761166" lon="14.307373793036511"><ele>409.0</ele><time>2026-05-02T08:55:55Z</time></trkpt><trkpt lat="42.063247572575776" lon="14.307443885187332"><ele>412.4</ele><time>2026-05-02T08:55:56Z</time></trkpt><trkpt lat="42.06313670398462" lon="14.307408621648245"><ele>415.79999999999995</ele><time>2026-05-02T08:55:57Z</time></trkpt><trkpt lat="42.063023597597955" lon="14.307384632518847"><ele>419.20000000000005</ele><time>2026-05-02T08:55:58Z</time></trkpt><trkpt lat="42.062925006332044" lon="14.307359329880741"><ele>422.6</ele><time>2026-05-02T08:55:59Z</time></trkpt><trkpt lat="42.06284983709997" lon="14.307340752813657"><ele>426.0</ele><time>2026-05-02T08:56:00Z</time></trkpt><trkpt lat="42.06274873682546" lon="14.307321684073262"><ele>426.0</ele><time>2026-05-02T08:56:02Z</time></trkpt><trkpt lat="42.06266912939853" lon="14.307311459928474"><ele>426.0</ele><time>2026-05-02T08:56:04Z</time></trkpt><trkpt lat="42.06257883983941" lon="14.30732545808292"><ele>426.0</ele><time>2026-05-02T08:56:06.001Z</time></trkpt><trkpt lat="42.062511071471114" lon="14.307311640902142"><ele>426.0</ele><time>2026-05-02T08:56:08.001Z</time></trkpt><trkpt lat="42.06244542766942" lon="14.307326211879484"><ele>426.0</ele><time>2026-05-02T08:56:10.001Z</time></trkpt><trkpt lat="42.06235348345546" lon="14.307352137614027"><ele>426.0</ele><time>2026-05-02T08:56:12.001Z</time></trkpt><trkpt lat="42.06229368047149" lon="14.307302338885012"><ele>424.6</ele><time>2026-05-02T08:56:13.001Z</time></trkpt><trkpt lat="42.06222811666132" lon="14.30732583608215"><ele>423.20000000000005</ele><time>2026-05-02T08:56:14.001Z</time></trkpt><trkpt lat="42.062138535997256" lon="14.307392058696507"><ele>421.79999999999995</ele><time>2026-05-02T08:56:16.001Z</time></trkpt><trkpt lat="42.06210181550286" lon="14.307501236079956"><ele>420.4</ele><time>2026-05-02T08:56:17.001Z</time></trkpt><trkpt lat="42.06210018201419" lon="14.307650121210342"><ele>419.0</ele><time>2026-05-02T08:56:18.001Z</time></trkpt><trkpt lat="42.06205824339663" lon="14.307768748327806"><ele>419.0</ele><time>2026-05-02T08:56:19.001Z</time></trkpt><trkpt lat="42.062009191213974" lon="14.307879109598463"><ele>419.0</ele><time>2026-05-02T08:56:20.001Z</time></trkpt><trkpt lat="42.06196895771899" lon="14.307988320807269"><ele>419.0</ele><time>2026-05-02T08:56:21.001Z</time></trkpt><trkpt lat="42.06190216387902" lon="14.308090117026715"><ele>419.0</ele><time>2026-05-02T08:56:22.001Z</time></trkpt><trkpt lat="42.061863388748954" lon="14.30820700960395"><ele>419.0</ele><time>2026-05-02T08:56:23.001Z</time></trkpt><trkpt lat="42.06182419871368" lon="14.308325152986884"><ele>420.79999999999995</ele><time>2026-05-02T08:56:24.001Z</time></trkpt><trkpt lat="42.06178696620618" lon="14.308437530384255"><ele>422.59999999999997</ele><time>2026-05-02T08:56:25.001Z</time></trkpt><trkpt lat="42.06177481966279" lon="14.308539917787964"><ele>424.4</ele><time>2026-05-02T08:56:26.001Z</time></trkpt><trkpt lat="42.061748543965145" lon="14.308637333482189"><ele>426.2</ele><time>2026-05-02T08:56:28.001Z</time></trkpt><trkpt lat="42.061854740001905" lon="14.308679559433555"><ele>428.0</ele><time>2026-05-02T08:56:37.001Z</time></trkpt><trkpt lat="42.061954926614476" lon="14.308657342029802"><ele>427.99999999999994</ele><time>2026-05-02T08:56:39.001Z</time></trkpt><trkpt lat="42.06198312209329" lon="14.308536664928004"><ele>428.0</ele><time>2026-05-02T08:56:40.001Z</time></trkpt><trkpt lat="42.06201868940494" lon="14.308433183668805"><ele>428.0</ele><time>2026-05-02T08:56:41.001Z</time></trkpt><trkpt lat="42.062050749134755" lon="14.308347555066147"><ele>428.0</ele><time>2026-05-02T08:56:42.001Z</time></trkpt><trkpt lat="42.06213193719387" lon="14.308319305421941"><ele>427.99999999999994</ele><time>2026-05-02T08:56:44.001Z</time></trkpt><trkpt lat="42.06219004838816" lon="14.308442238624075"><ele>428.0</ele><time>2026-05-02T08:56:46.001Z</time></trkpt><trkpt lat="42.06218674024699" lon="14.308614028412116"><ele>427.99999999999994</ele><time>2026-05-02T08:56:48.001Z</time></trkpt><trkpt lat="42.06216934651513" lon="14.308706358026216"><ele>428.0</ele><time>2026-05-02T08:56:49.001Z</time></trkpt><trkpt lat="42.0621390433309" lon="14.30880991936456"><ele>428.0</ele><time>2026-05-02T08:56:50.001Z</time></trkpt><trkpt lat="42.062111582901984" lon="14.308916670669321"><ele>428.0</ele><time>2026-05-02T08:56:51.001Z</time></trkpt><trkpt lat="42.062090491018665" lon="14.309029283083083"><ele>427.99999999999994</ele><time>2026-05-02T08:56:52.001Z</time></trkpt><trkpt lat="42.0620640834162" lon="14.30914412995405"><ele>428.0</ele><time>2026-05-02T08:56:53.001Z</time></trkpt><trkpt lat="42.06203535509334" lon="14.309256092163764"><ele>428.66666666666663</ele><time>2026-05-02T08:56:54.001Z</time></trkpt><trkpt lat="42.06200249306333" lon="14.309358337349089"><ele>429.3333333333333</ele><time>2026-05-02T08:56:55.001Z</time></trkpt><trkpt lat="42.06195736369318" lon="14.309439198673918"><ele>430.0</ele><time>2026-05-02T08:56:56.001Z</time></trkpt><trkpt lat="42.06189261353641" lon="14.3095029913406"><ele>430.66666666666663</ele><time>2026-05-02T08:56:57.001Z</time></trkpt><trkpt lat="42.061804577657945" lon="14.30953869935363"><ele>431.3333333333333</ele><time>2026-05-02T08:56:58.001Z</time></trkpt><trkpt lat="42.061711923669705" lon="14.309556938670793"><ele>432.0</ele><time>2026-05-02T08:56:59.001Z</time></trkpt><trkpt lat="42.06160397311588" lon="14.309560502620336"><ele>432.0</ele><time>2026-05-02T08:57:00.001Z</time></trkpt><trkpt lat="42.0615029249579" lon="14.309560267990065"><ele>432.00000000000006</ele><time>2026-05-02T08:57:01.001Z</time></trkpt><trkpt lat="42.06140251770108" lon="14.309562808955201"><ele>432.00000000000006</ele><time>2026-05-02T08:57:02.001Z</time></trkpt><trkpt lat="42.0613023929713" lon="14.309568475128218"><ele>432.0</ele><time>2026-05-02T08:57:03.001Z</time></trkpt><trkpt lat="42.0612106710715" lon="14.309581832411777"><ele>432.0</ele><time>2026-05-02T08:57:04.001Z</time></trkpt><trkpt lat="42.06113106802176" lon="14.30965324000965"><ele>434.6</ele><time>2026-05-02T08:57:05.001Z</time></trkpt><trkpt lat="42.06109130126018" lon="14.309752064610567"><ele>437.20000000000005</ele><time>2026-05-02T08:57:06.001Z</time></trkpt><trkpt lat="42.06110536978079" lon="14.30987331317737"><ele>439.8</ele><time>2026-05-02T08:57:07.001Z</time></trkpt><trkpt lat="42.06116999803227" lon="14.310002535975503"><ele>442.4</ele><time>2026-05-02T08:57:08.001Z</time></trkpt><trkpt lat="42.06122705456987" lon="14.310135121176607"><ele>445.0</ele><time>2026-05-02T08:57:09.001Z</time></trkpt><trkpt lat="42.061290392389225" lon="14.310282193467419"><ele>445.00000000000006</ele><time>2026-05-02T08:57:10.001Z</time></trkpt><trkpt lat="42.06135473917953" lon="14.31040183722638"><ele>445.0</ele><time>2026-05-02T08:57:11.001Z</time></trkpt><trkpt lat="42.06138029697085" lon="14.310523474865613"><ele>445.0</ele><time>2026-05-02T08:57:12.001Z</time></trkpt><trkpt lat="42.06138173173427" lon="14.310646783741342"><ele>445.0</ele><time>2026-05-02T08:57:13.001Z</time></trkpt><trkpt lat="42.06135804862644" lon="14.31074299177331"><ele>445.00000000000006</ele><time>2026-05-02T08:57:14.001Z</time></trkpt><trkpt lat="42.061319438920094" lon="14.310824731367735"><ele>445.0</ele><time>2026-05-02T08:57:15.001Z</time></trkpt><trkpt lat="42.061255143643756" lon="14.310909930500324"><ele>447.0</ele><time>2026-05-02T08:57:16.001Z</time></trkpt><trkpt lat="42.06118603671375" lon="14.31099319863343"><ele>449.0</ele><time>2026-05-02T08:57:17.001Z</time></trkpt><trkpt lat="42.06111127618307" lon="14.311079128501872"><ele>451.0</ele><time>2026-05-02T08:57:18.001Z</time></trkpt><trkpt lat="42.06103375626122" lon="14.311176101085072"><ele>453.0</ele><time>2026-05-02T08:57:19.001Z</time></trkpt><trkpt lat="42.06096601938606" lon="14.311295368609418"><ele>455.0</ele><time>2026-05-02T08:57:20.001Z</time></trkpt><trkpt lat="42.06089094249716" lon="14.311421597905392"><ele>457.25</ele><time>2026-05-02T08:57:21.001Z</time></trkpt><trkpt lat="42.06083123703314" lon="14.311571104912733"><ele>459.5</ele><time>2026-05-02T08:57:22.001Z</time></trkpt><trkpt lat="42.06077467720736" lon="14.311728688060708"><ele>461.75</ele><time>2026-05-02T08:57:23.001Z</time></trkpt><trkpt lat="42.06072274738883" lon="14.311886002059328"><ele>464.0</ele><time>2026-05-02T08:57:24Z</time></trkpt><trkpt lat="42.060673727697555" lon="14.312042424298243"><ele>464.0</ele><time>2026-05-02T08:57:25Z</time></trkpt><trkpt lat="42.06062216638349" lon="14.312188470762498"><ele>464.0</ele><time>2026-05-02T08:57:26Z</time></trkpt><trkpt lat="42.06055225248589" lon="14.312315458113117"><ele>464.0</ele><time>2026-05-02T08:57:27Z</time></trkpt><trkpt lat="42.06046462673638" lon="14.312425613887582"><ele>464.0</ele><time>2026-05-02T08:57:28Z</time></trkpt><trkpt lat="42.06035011561142" lon="14.31249972843983"><ele>467.0</ele><time>2026-05-02T08:57:29Z</time></trkpt><trkpt lat="42.060229567429786" lon="14.312576460082951"><ele>470.0</ele><time>2026-05-02T08:57:30Z</time></trkpt><trkpt lat="42.06011369624836" lon="14.312649276946226"><ele>473.0</ele><time>2026-05-02T08:57:31Z</time></trkpt><trkpt lat="42.05999510283688" lon="14.312707120567774"><ele>476.0</ele><time>2026-05-02T08:57:32Z</time></trkpt><trkpt lat="42.059871120117265" lon="14.312748329354164"><ele>477.0</ele><time>2026-05-02T08:57:33Z</time></trkpt><trkpt lat="42.05974215772699" lon="14.312776679753725"><ele>478.0</ele><time>2026-05-02T08:57:34Z</time></trkpt><trkpt lat="42.05961325119243" lon="14.312800930078096"><ele>479.0</ele><time>2026-05-02T08:57:35Z</time></trkpt><trkpt lat="42.05948621235821" lon="14.312837870389735"><ele>480.0</ele><time>2026-05-02T08:57:36Z</time></trkpt><trkpt lat="42.05936781552457" lon="14.312895954203533"><ele>480.0</ele><time>2026-05-02T08:57:37Z</time></trkpt><trkpt lat="42.05924488842228" lon="14.31296422144451"><ele>480.0</ele><time>2026-05-02T08:57:38Z</time></trkpt><trkpt lat="42.059145536614714" lon="14.313106274713883"><ele>480.0</ele><time>2026-05-02T08:57:39Z</time></trkpt><trkpt lat="42.059050703825555" lon="14.313249758145997"><ele>480.0</ele><time>2026-05-02T08:57:40Z</time></trkpt><trkpt lat="42.05895804332685" lon="14.313400205194839"><ele>482.75</ele><time>2026-05-02T08:57:41Z</time></trkpt><trkpt lat="42.05887065714084" lon="14.313549422112278"><ele>485.5</ele><time>2026-05-02T08:57:42Z</time></trkpt><trkpt lat="42.05878819151002" lon="14.31369642286858"><ele>488.25</ele><time>2026-05-02T08:57:43Z</time></trkpt><trkpt lat="42.058687028173445" lon="14.313819679775705"><ele>491.0</ele><time>2026-05-02T08:57:44Z</time></trkpt><trkpt lat="42.05857096766262" lon="14.313920780060831"><ele>491.5</ele><time>2026-05-02T08:57:45Z</time></trkpt><trkpt lat="42.05845601050965" lon="14.314016892391395"><ele>492.0</ele><time>2026-05-02T08:57:46Z</time></trkpt><trkpt lat="42.05834955666345" lon="14.314129214497337"><ele>492.5</ele><time>2026-05-02T08:57:47Z</time></trkpt><trkpt lat="42.05825831583215" lon="14.314253097699536"><ele>493.0</ele><time>2026-05-02T08:57:48Z</time></trkpt><trkpt lat="42.05817324955725" lon="14.31438621683603"><ele>493.0</ele><time>2026-05-02T08:57:49Z</time></trkpt><trkpt lat="42.05807786282323" lon="14.314509089454292"><ele>493.0</ele><time>2026-05-02T08:57:50Z</time></trkpt><trkpt lat="42.057986824999" lon="14.314631627077185"><ele>493.0</ele><time>2026-05-02T08:57:51Z</time></trkpt><trkpt lat="42.05789821658741" lon="14.314753247977059"><ele>493.0</ele><time>2026-05-02T08:57:52Z</time></trkpt><trkpt lat="42.05782381341412" lon="14.31485891219215"><ele>494.2</ele><time>2026-05-02T08:57:53Z</time></trkpt><trkpt lat="42.057752803163325" lon="14.314946719475646"><ele>495.4</ele><time>2026-05-02T08:57:54Z</time></trkpt><trkpt lat="42.057677795721524" lon="14.314993882606847"><ele>496.59999999999997</ele><time>2026-05-02T08:57:55Z</time></trkpt><trkpt lat="42.0576048454406" lon="14.31501762179433"><ele>497.79999999999995</ele><time>2026-05-02T08:57:56Z</time></trkpt><trkpt lat="42.05753505972057" lon="14.315036225374994"><ele>499.0</ele><time>2026-05-02T08:57:58Z</time></trkpt><trkpt lat="42.05743566525921" lon="14.315204953484873"><ele>499.79999999999995</ele><time>2026-05-02T08:58:01Z</time></trkpt><trkpt lat="42.05738143307376" lon="14.31528007844339"><ele>500.59999999999997</ele><time>2026-05-02T08:58:02Z</time></trkpt><trkpt lat="42.05730967878103" lon="14.315387006415946"><ele>501.4</ele><time>2026-05-02T08:58:03Z</time></trkpt><trkpt lat="42.05723405823839" lon="14.315500121141419"><ele>502.2</ele><time>2026-05-02T08:58:04Z</time></trkpt><trkpt lat="42.057151550104926" lon="14.315624064462652"><ele>503.0</ele><time>2026-05-02T08:58:05Z</time></trkpt><trkpt lat="42.05706289390281" lon="14.31575894001556"><ele>500.5</ele><time>2026-05-02T08:58:06Z</time></trkpt><trkpt lat="42.056988335738225" lon="14.315922413443273"><ele>498.0</ele><time>2026-05-02T08:58:07Z</time></trkpt><trkpt lat="42.05691488748391" lon="14.316084850851682"><ele>495.5</ele><time>2026-05-02T08:58:08Z</time></trkpt><trkpt lat="42.0568546281194" lon="14.316255408460759"><ele>493.0</ele><time>2026-05-02T08:58:09Z</time></trkpt><trkpt lat="42.05678109680618" lon="14.316433702104048"><ele>491.0</ele><time>2026-05-02T08:58:10Z</time></trkpt><trkpt lat="42.056713668652165" lon="14.3166133134897"><ele>489.0</ele><time>2026-05-02T08:58:11Z</time></trkpt><trkpt lat="42.05663302783146" lon="14.316793241310151"><ele>487.0</ele><time>2026-05-02T08:58:12Z</time></trkpt><trkpt lat="42.05655012409975" lon="14.316987066957328"><ele>489.0</ele><time>2026-05-02T08:58:13Z</time></trkpt><trkpt lat="42.05642773487756" lon="14.31713759684522"><ele>491.0</ele><time>2026-05-02T08:58:14Z</time></trkpt><trkpt lat="42.056314782418134" lon="14.317297155046003"><ele>493.0</ele><time>2026-05-02T08:58:15Z</time></trkpt><trkpt lat="42.05621189222351" lon="14.317458270027265"><ele>493.0</ele><time>2026-05-02T08:58:16Z</time></trkpt><trkpt lat="42.056122411105456" lon="14.317624378055235"><ele>493.0</ele><time>2026-05-02T08:58:17Z</time></trkpt><trkpt lat="42.056047341443175" lon="14.317801779813118"><ele>493.0</ele><time>2026-05-02T08:58:18Z</time></trkpt><trkpt lat="42.055985164531194" lon="14.317987912430368"><ele>488.33333333333337</ele><time>2026-05-02T08:58:19Z</time></trkpt><trkpt lat="42.055924188333705" lon="14.318179676565656"><ele>483.66666666666663</ele><time>2026-05-02T08:58:20Z</time></trkpt><trkpt lat="42.05586018760237" lon="14.318378108257724"><ele>479.0</ele><time>2026-05-02T08:58:21Z</time></trkpt><trkpt lat="42.05580036648116" lon="14.318575587047677"><ele>479.66666666666663</ele><time>2026-05-02T08:58:22Z</time></trkpt><trkpt lat="42.05575748997387" lon="14.318778047721327"><ele>480.33333333333337</ele><time>2026-05-02T08:58:23Z</time></trkpt><trkpt lat="42.05569942325954" lon="14.318966344034246"><ele>481.0</ele><time>2026-05-02T08:58:24.001Z</time></trkpt><trkpt lat="42.05563820789309" lon="14.31915487740377"><ele>481.0</ele><time>2026-05-02T08:58:25.001Z</time></trkpt><trkpt lat="42.05558017739543" lon="14.319336774663388"><ele>481.0</ele><time>2026-05-02T08:58:26.001Z</time></trkpt><trkpt lat="42.055510819371605" lon="14.319508183924007"><ele>481.0</ele><time>2026-05-02T08:58:27.001Z</time></trkpt><trkpt lat="42.05540910382846" lon="14.319660586571436"><ele>481.0</ele><time>2026-05-02T08:58:28.001Z</time></trkpt><trkpt lat="42.05530961407035" lon="14.319819855379414"><ele>475.6666666666667</ele><time>2026-05-02T08:58:29.001Z</time></trkpt><trkpt lat="42.0551978734127" lon="14.319977648669468"><ele>470.33333333333337</ele><time>2026-05-02T08:58:30.001Z</time></trkpt><trkpt lat="42.0550898462359" lon="14.320134812284111"><ele>465.0</ele><time>2026-05-02T08:58:31.001Z</time></trkpt><trkpt lat="42.05499296380867" lon="14.320280135901733"><ele>461.5</ele><time>2026-05-02T08:58:32.001Z</time></trkpt><trkpt lat="42.05489839140791" lon="14.320416570558388"><ele>458.0</ele><time>2026-05-02T08:58:33.001Z</time></trkpt><trkpt lat="42.054809962629285" lon="14.320553370708337"><ele>454.5</ele><time>2026-05-02T08:58:34.001Z</time></trkpt><trkpt lat="42.05473865218502" lon="14.320699936553511"><ele>451.0</ele><time>2026-05-02T08:58:35.001Z</time></trkpt><trkpt lat="42.054712630679" lon="14.32086330938139"><ele>449.20000000000005</ele><time>2026-05-02T08:58:36.001Z</time></trkpt><trkpt lat="42.05468902067193" lon="14.321028148336197"><ele>447.40000000000003</ele><time>2026-05-02T08:58:37.001Z</time></trkpt><trkpt lat="42.054659061256736" lon="14.321162630396579"><ele>445.6</ele><time>2026-05-02T08:58:38.001Z</time></trkpt><trkpt lat="42.05459443373214" lon="14.321261438674762"><ele>443.8</ele><time>2026-05-02T08:58:39.001Z</time></trkpt><trkpt lat="42.05449266485808" lon="14.321337563829916"><ele>442.0</ele><time>2026-05-02T08:58:40.001Z</time></trkpt><trkpt lat="42.054369673346606" lon="14.321377249928346"><ele>441.20000000000005</ele><time>2026-05-02T08:58:41.001Z</time></trkpt><trkpt lat="42.054245262980366" lon="14.32143200700077"><ele>440.40000000000003</ele><time>2026-05-02T08:58:42.001Z</time></trkpt><trkpt lat="42.05412868248521" lon="14.321471134151256"><ele>439.59999999999997</ele><time>2026-05-02T08:58:43.001Z</time></trkpt><trkpt lat="42.05403718900794" lon="14.32150906513929"><ele>438.79999999999995</ele><time>2026-05-02T08:58:44.001Z</time></trkpt><trkpt lat="42.053967666075" lon="14.321581793928711"><ele>438.0</ele><time>2026-05-02T08:58:45.001Z</time></trkpt><trkpt lat="42.05394161999991" lon="14.321699321153595"><ele>438.0</ele><time>2026-05-02T08:58:46.001Z</time></trkpt><trkpt lat="42.0539531863165" lon="14.321792222328913"><ele>438.0</ele><time>2026-05-02T08:58:47.001Z</time></trkpt><trkpt lat="42.05398853134595" lon="14.32187704614821"><ele>438.0</ele><time>2026-05-02T08:58:49.001Z</time></trkpt><trkpt lat="42.05407664617496" lon="14.321968361438286"><ele>438.0</ele><time>2026-05-02T08:59:04.001Z</time></trkpt><trkpt lat="42.05415123243604" lon="14.32199206004287"><ele>438.0</ele><time>2026-05-02T08:59:05.001Z</time></trkpt><trkpt lat="42.05424818975556" lon="14.322021084340815"><ele>438.0</ele><time>2026-05-02T08:59:06.001Z</time></trkpt><trkpt lat="42.054355486804035" lon="14.322029401898229"><ele>438.0</ele><time>2026-05-02T08:59:07.001Z</time></trkpt><trkpt lat="42.054476623893045" lon="14.32204236974355"><ele>438.0</ele><time>2026-05-02T08:59:08Z</time></trkpt><trkpt lat="42.05460463779604" lon="14.322056094672018"><ele>438.0</ele><time>2026-05-02T08:59:09Z</time></trkpt><trkpt lat="42.054730479608445" lon="14.322065505925503"><ele>438.0</ele><time>2026-05-02T08:59:10Z</time></trkpt><trkpt lat="42.05487304065685" lon="14.322057281958772"><ele>437.75</ele><time>2026-05-02T08:59:11Z</time></trkpt><trkpt lat="42.05501566806107" lon="14.322071076974407"><ele>437.5</ele><time>2026-05-02T08:59:12Z</time></trkpt><trkpt lat="42.05514278719719" lon="14.322074476377024"><ele>437.25</ele><time>2026-05-02T08:59:13Z</time></trkpt><trkpt lat="42.05524966416626" lon="14.322064509713233"><ele>437.0</ele><time>2026-05-02T08:59:14Z</time></trkpt><trkpt lat="42.05534427730483" lon="14.32207719528934"><ele>436.99999999999994</ele><time>2026-05-02T08:59:15Z</time></trkpt><trkpt lat="42.05542636240135" lon="14.32211953715488"><ele>437.0</ele><time>2026-05-02T08:59:16Z</time></trkpt><trkpt lat="42.05548206961124" lon="14.322200765395229"><ele>437.0</ele><time>2026-05-02T08:59:17Z</time></trkpt><trkpt lat="42.055490392285066" lon="14.32231504082626"><ele>437.0</ele><time>2026-05-02T08:59:18Z</time></trkpt><trkpt lat="42.05545074928587" lon="14.322413623590585"><ele>436.99999999999994</ele><time>2026-05-02T08:59:19Z</time></trkpt><trkpt lat="42.05538044678284" lon="14.322500662346041"><ele>437.0</ele><time>2026-05-02T08:59:20Z</time></trkpt><trkpt lat="42.055295456429285" lon="14.322582088131792"><ele>434.0</ele><time>2026-05-02T08:59:21Z</time></trkpt><trkpt lat="42.05520552688295" lon="14.322668067316775"><ele>431.00000000000006</ele><time>2026-05-02T08:59:22Z</time></trkpt><trkpt lat="42.05513261829288" lon="14.322761971652575"><ele>428.0</ele><time>2026-05-02T08:59:23Z</time></trkpt><trkpt lat="42.05507695290986" lon="14.322854389806567"><ele>425.0</ele><time>2026-05-02T08:59:24Z</time></trkpt><trkpt lat="42.05504877756449" lon="14.322962161868244"><ele>422.0</ele><time>2026-05-02T08:59:25Z</time></trkpt><trkpt lat="42.055063400574205" lon="14.323077585241776"><ele>419.6</ele><time>2026-05-02T08:59:26Z</time></trkpt><trkpt lat="42.055099050546744" lon="14.323197598405047"><ele>417.20000000000005</ele><time>2026-05-02T08:59:27Z</time></trkpt><trkpt lat="42.055187781587684" lon="14.323272386378369"><ele>414.8</ele><time>2026-05-02T08:59:28Z</time></trkpt><trkpt lat="42.05530880069409" lon="14.323241331648545"><ele>412.4</ele><time>2026-05-02T08:59:29Z</time></trkpt><trkpt lat="42.05539671828203" lon="14.323190144118936"><ele>410.0</ele><time>2026-05-02T08:59:30Z</time></trkpt><trkpt lat="42.055482128632995" lon="14.323122720673993"><ele>410.6</ele><time>2026-05-02T08:59:31Z</time></trkpt><trkpt lat="42.0555639112268" lon="14.323044902918904"><ele>411.2</ele><time>2026-05-02T08:59:32Z</time></trkpt><trkpt lat="42.05566413729558" lon="14.32298283492401"><ele>411.79999999999995</ele><time>2026-05-02T08:59:33Z</time></trkpt><trkpt lat="42.05575230584635" lon="14.322931177592752"><ele>412.4</ele><time>2026-05-02T08:59:34Z</time></trkpt><trkpt lat="42.05583422160984" lon="14.322907693188125"><ele>413.0</ele><time>2026-05-02T08:59:35Z</time></trkpt><trkpt lat="42.0559098672825" lon="14.322941254799423"><ele>413.0</ele><time>2026-05-02T08:59:36Z</time></trkpt><trkpt lat="42.05594602494605" lon="14.323028744815748"><ele>413.0</ele><time>2026-05-02T08:59:37Z</time></trkpt><trkpt lat="42.055941140056184" lon="14.323147527430079"><ele>413.0</ele><time>2026-05-02T08:59:38Z</time></trkpt><trkpt lat="42.05590764754634" lon="14.323261732756185"><ele>413.0</ele><time>2026-05-02T08:59:39Z</time></trkpt><trkpt lat="42.055859427329494" lon="14.323399078190862"><ele>413.0</ele><time>2026-05-02T08:59:40Z</time></trkpt><trkpt lat="42.05580348478146" lon="14.323540789539518"><ele>412.25</ele><time>2026-05-02T08:59:41Z</time></trkpt><trkpt lat="42.05572450326546" lon="14.32367765815116"><ele>411.5</ele><time>2026-05-02T08:59:42Z</time></trkpt><trkpt lat="42.05565469698844" lon="14.323829539069688"><ele>410.75</ele><time>2026-05-02T08:59:43Z</time></trkpt><trkpt lat="42.055587586685505" lon="14.323968940491351"><ele>410.0</ele><time>2026-05-02T08:59:44Z</time></trkpt><trkpt lat="42.05553376974807" lon="14.324052017645126"><ele>408.8</ele><time>2026-05-02T08:59:45Z</time></trkpt><trkpt lat="42.05548153118014" lon="14.32414418262276"><ele>407.6</ele><time>2026-05-02T08:59:46Z</time></trkpt><trkpt lat="42.05539133386414" lon="14.32421353710921"><ele>406.4</ele><time>2026-05-02T08:59:47Z</time></trkpt><trkpt lat="42.05529220784321" lon="14.324269027967782"><ele>405.2</ele><time>2026-05-02T08:59:48Z</time></trkpt><trkpt lat="42.05518643661552" lon="14.324329960493838"><ele>404.0</ele><time>2026-05-02T08:59:49Z</time></trkpt><trkpt lat="42.05506356310157" lon="14.324391485615322"><ele>404.5</ele><time>2026-05-02T08:59:50Z</time></trkpt><trkpt lat="42.05493635392791" lon="14.32445059113589"><ele>405.0</ele><time>2026-05-02T08:59:51Z</time></trkpt><trkpt lat="42.054810704215754" lon="14.324509343329884"><ele>405.5</ele><time>2026-05-02T08:59:52Z</time></trkpt><trkpt lat="42.05470597139314" lon="14.324610218315744"><ele>406.0</ele><time>2026-05-02T08:59:53Z</time></trkpt><trkpt lat="42.0546238467916" lon="14.32477051068019"><ele>403.0</ele><time>2026-05-02T08:59:54Z</time></trkpt><trkpt lat="42.054557661009525" lon="14.324953524509008"><ele>400.0</ele><time>2026-05-02T08:59:55Z</time></trkpt><trkpt lat="42.05446044886759" lon="14.325116771369633"><ele>397.0</ele><time>2026-05-02T08:59:56Z</time></trkpt><trkpt lat="42.05436309455195" lon="14.325300645826855"><ele>397.0</ele><time>2026-05-02T08:59:57Z</time></trkpt><trkpt lat="42.054277157763984" lon="14.325466921944628"><ele>397.0</ele><time>2026-05-02T08:59:58Z</time></trkpt><trkpt lat="42.05417450061943" lon="14.325575041168713"><ele>397.0</ele><time>2026-05-02T08:59:59Z</time></trkpt><trkpt lat="42.054072804144184" lon="14.325658942637933"><ele>397.0</ele><time>2026-05-02T09:00:00Z</time></trkpt><trkpt lat="42.05399356495619" lon="14.325734711051739"><ele>394.8</ele><time>2026-05-02T09:00:01Z</time></trkpt><trkpt lat="42.05393592078629" lon="14.325828381760433"><ele>392.6</ele><time>2026-05-02T09:00:02Z</time></trkpt><trkpt lat="42.05391439539218" lon="14.325940402889021"><ele>390.40000000000003</ele><time>2026-05-02T09:00:03Z</time></trkpt><trkpt lat="42.053937300992516" lon="14.326045393776518"><ele>388.20000000000005</ele><time>2026-05-02T09:00:04Z</time></trkpt><trkpt lat="42.05397343439924" lon="14.32615597717571"><ele>386.0</ele><time>2026-05-02T09:00:05Z</time></trkpt><trkpt lat="42.05409686346362" lon="14.326201795438639"><ele>386.25</ele><time>2026-05-02T09:00:06Z</time></trkpt><trkpt lat="42.054215937056526" lon="14.326180974427807"><ele>386.5</ele><time>2026-05-02T09:00:07Z</time></trkpt><trkpt lat="42.054350630015655" lon="14.32618832557629"><ele>386.75</ele><time>2026-05-02T09:00:08Z</time></trkpt><trkpt lat="42.0544843450783" lon="14.326176064224832"><ele>387.0</ele><time>2026-05-02T09:00:09Z</time></trkpt><trkpt lat="42.05461532457065" lon="14.326165486750352"><ele>387.0</ele><time>2026-05-02T09:00:10Z</time></trkpt><trkpt lat="42.05473307370474" lon="14.326205007882164"><ele>387.0</ele><time>2026-05-02T09:00:11Z</time></trkpt><trkpt lat="42.05483006177695" lon="14.32629580420438"><ele>387.0</ele><time>2026-05-02T09:00:12Z</time></trkpt><trkpt lat="42.054887827881814" lon="14.326427800585183"><ele>387.0</ele><time>2026-05-02T09:00:13Z</time></trkpt><trkpt lat="42.05490832832828" lon="14.326586855461219"><ele>384.5</ele><time>2026-05-02T09:00:14Z</time></trkpt><trkpt lat="42.054884133511266" lon="14.326755491317964"><ele>382.0</ele><time>2026-05-02T09:00:15Z</time></trkpt><trkpt lat="42.05482357272673" lon="14.326904531321865"><ele>379.5</ele><time>2026-05-02T09:00:16Z</time></trkpt><trkpt lat="42.0547590685631" lon="14.327028845268405"><ele>377.0</ele><time>2026-05-02T09:00:17Z</time></trkpt><trkpt lat="42.05472587477915" lon="14.327170298045637"><ele>374.5</ele><time>2026-05-02T09:00:18Z</time></trkpt><trkpt lat="42.05473316476185" lon="14.327336674023103"><ele>372.0</ele><time>2026-05-02T09:00:19Z</time></trkpt><trkpt lat="42.054767029378304" lon="14.32750590471791"><ele>369.5</ele><time>2026-05-02T09:00:20Z</time></trkpt><trkpt lat="42.05480451130606" lon="14.32764902689916"><ele>367.0</ele><time>2026-05-02T09:00:21Z</time></trkpt><trkpt lat="42.05484170384704" lon="14.327793735264548"><ele>367.0</ele><time>2026-05-02T09:00:22Z</time></trkpt><trkpt lat="42.05482461438848" lon="14.327941091506975"><ele>367.0</ele><time>2026-05-02T09:00:23Z</time></trkpt><trkpt lat="42.054768914928175" lon="14.328071117494918"><ele>367.0</ele><time>2026-05-02T09:00:24Z</time></trkpt><trkpt lat="42.0547076689158" lon="14.328184587257931"><ele>367.0</ele><time>2026-05-02T09:00:25Z</time></trkpt><trkpt lat="42.05466873416229" lon="14.328299128999555"><ele>367.0</ele><time>2026-05-02T09:00:26Z</time></trkpt><trkpt lat="42.05469896302817" lon="14.32842859938924"><ele>366.75</ele><time>2026-05-02T09:00:27Z</time></trkpt><trkpt lat="42.054767282879965" lon="14.32854671262564"><ele>366.5</ele><time>2026-05-02T09:00:28Z</time></trkpt><trkpt lat="42.05488026326659" lon="14.328626127192763"><ele>366.25</ele><time>2026-05-02T09:00:29Z</time></trkpt><trkpt lat="42.0549855580666" lon="14.328689132438136"><ele>366.0</ele><time>2026-05-02T09:00:30Z</time></trkpt><trkpt lat="42.055101943780095" lon="14.328665889237454"><ele>366.0</ele><time>2026-05-02T09:00:31Z</time></trkpt><trkpt lat="42.05521026462457" lon="14.328611306004587"><ele>366.0</ele><time>2026-05-02T09:00:32Z</time></trkpt><trkpt lat="42.05530854583674" lon="14.328524241018556"><ele>366.0</ele><time>2026-05-02T09:00:33Z</time></trkpt><trkpt lat="42.055393726972724" lon="14.328433940395218"><ele>366.0</ele><time>2026-05-02T09:00:34Z</time></trkpt><trkpt lat="42.05548783137797" lon="14.328373480546512"><ele>366.0</ele><time>2026-05-02T09:00:35Z</time></trkpt><trkpt lat="42.05557909815197" lon="14.328345094610558"><ele>366.0</ele><time>2026-05-02T09:00:36Z</time></trkpt><trkpt lat="42.05565812857547" lon="14.328364356331452"><ele>366.0</ele><time>2026-05-02T09:00:37Z</time></trkpt><trkpt lat="42.05570948454811" lon="14.328439815826973"><ele>366.0</ele><time>2026-05-02T09:00:38Z</time></trkpt><trkpt lat="42.0557324226149" lon="14.328562068195707"><ele>366.0</ele><time>2026-05-02T09:00:39Z</time></trkpt><trkpt lat="42.05572593077929" lon="14.328694912385277"><ele>366.0</ele><time>2026-05-02T09:00:40Z</time></trkpt><trkpt lat="42.0556924436377" lon="14.328816547549456"><ele>366.0</ele><time>2026-05-02T09:00:41Z</time></trkpt><trkpt lat="42.05561161206686" lon="14.328931168191598"><ele>363.25</ele><time>2026-05-02T09:00:42Z</time></trkpt><trkpt lat="42.05551489131824" lon="14.329042657390662"><ele>360.5</ele><time>2026-05-02T09:00:43Z</time></trkpt><trkpt lat="42.05540549880132" lon="14.329145511307603"><ele>357.75</ele><time>2026-05-02T09:00:44Z</time></trkpt><trkpt lat="42.05530331509047" lon="14.329238040746167"><ele>355.0</ele><time>2026-05-02T09:00:45Z</time></trkpt><trkpt lat="42.055198761067146" lon="14.32932365292282"><ele>355.0</ele><time>2026-05-02T09:00:46Z</time></trkpt><trkpt lat="42.055088965281456" lon="14.329356515379905"><ele>355.0</ele><time>2026-05-02T09:00:47Z</time></trkpt><trkpt lat="42.05499922041583" lon="14.329382284745606"><ele>355.0</ele><time>2026-05-02T09:00:48Z</time></trkpt><trkpt lat="42.05492148112773" lon="14.329416247955272"><ele>355.0</ele><time>2026-05-02T09:00:49Z</time></trkpt><trkpt lat="42.05485839820962" lon="14.329474408011642"><ele>355.0</ele><time>2026-05-02T09:00:50Z</time></trkpt><trkpt lat="42.05483072727066" lon="14.329603597124333"><ele>352.5</ele><time>2026-05-02T09:00:51Z</time></trkpt><trkpt lat="42.05486927912658" lon="14.329754755482732"><ele>350.0</ele><time>2026-05-02T09:00:52Z</time></trkpt><trkpt lat="42.054928739016574" lon="14.329894773346542"><ele>347.5</ele><time>2026-05-02T09:00:53Z</time></trkpt><trkpt lat="42.05500099104458" lon="14.330006632569857"><ele>345.0</ele><time>2026-05-02T09:00:54Z</time></trkpt><trkpt lat="42.05508990023691" lon="14.330085166123007"><ele>345.0</ele><time>2026-05-02T09:00:55Z</time></trkpt><trkpt lat="42.05520809629163" lon="14.33009111818769"><ele>345.0</ele><time>2026-05-02T09:00:56Z</time></trkpt><trkpt lat="42.055321848005725" lon="14.33006535400017"><ele>345.0</ele><time>2026-05-02T09:00:57Z</time></trkpt><trkpt lat="42.05543892744387" lon="14.329998727448393"><ele>345.0</ele><time>2026-05-02T09:00:58Z</time></trkpt><trkpt lat="42.055551618706495" lon="14.329920438126132"><ele>345.0</ele><time>2026-05-02T09:00:59Z</time></trkpt><trkpt lat="42.05567487174783" lon="14.329844045497955"><ele>345.0</ele><time>2026-05-02T09:01:00Z</time></trkpt><trkpt lat="42.055801341759626" lon="14.32977633443355"><ele>345.0</ele><time>2026-05-02T09:01:01Z</time></trkpt><trkpt lat="42.05593741807379" lon="14.329730860850743"><ele>345.0</ele><time>2026-05-02T09:01:02Z</time></trkpt><trkpt lat="42.05608162940073" lon="14.329727409262315"><ele>343.5</ele><time>2026-05-02T09:01:03Z</time></trkpt><trkpt lat="42.05621525246151" lon="14.32979598194962"><ele>342.0</ele><time>2026-05-02T09:01:04Z</time></trkpt><trkpt lat="42.05636333283915" lon="14.3298424208297"><ele>340.5</ele><time>2026-05-02T09:01:05Z</time></trkpt><trkpt lat="42.0564959727675" lon="14.329913954205292"><ele>339.0</ele><time>2026-05-02T09:01:06Z</time></trkpt><trkpt lat="42.056613092512436" lon="14.330003420583251"><ele>338.0</ele><time>2026-05-02T09:01:07Z</time></trkpt><trkpt lat="42.056745850711586" lon="14.330036731540428"><ele>337.0</ele><time>2026-05-02T09:01:08Z</time></trkpt><trkpt lat="42.05687688716953" lon="14.330048852256708"><ele>336.0</ele><time>2026-05-02T09:01:09Z</time></trkpt><trkpt lat="42.05700388560727" lon="14.330004824010311"><ele>335.0</ele><time>2026-05-02T09:01:10Z</time></trkpt><trkpt lat="42.05711726619055" lon="14.329972310345132"><ele>335.0</ele><time>2026-05-02T09:01:11Z</time></trkpt><trkpt lat="42.057212029046994" lon="14.329902491146417"><ele>335.0</ele><time>2026-05-02T09:01:12Z</time></trkpt><trkpt lat="42.057290876083286" lon="14.329778266626878"><ele>335.0</ele><time>2026-05-02T09:01:13Z</time></trkpt><trkpt lat="42.057341244944986" lon="14.329603418424767"><ele>335.0</ele><time>2026-05-02T09:01:14Z</time></trkpt><trkpt lat="42.0573434502226" lon="14.329394915306382"><ele>340.5</ele><time>2026-05-02T09:01:15Z</time></trkpt><trkpt lat="42.057343723251236" lon="14.329192182635845"><ele>346.0</ele><time>2026-05-02T09:01:16Z</time></trkpt><trkpt lat="42.057347354655015" lon="14.32899094290352"><ele>351.5</ele><time>2026-05-02T09:01:17Z</time></trkpt><trkpt lat="42.05734735465555" lon="14.328789797276423"><ele>357.0</ele><time>2026-05-02T09:01:18Z</time></trkpt><trkpt lat="42.05734043442003" lon="14.328636223221412"><ele>360.20000000000005</ele><time>2026-05-02T09:01:19Z</time></trkpt><trkpt lat="42.05736117980437" lon="14.328497248723899"><ele>363.4</ele><time>2026-05-02T09:01:20Z</time></trkpt><trkpt lat="42.057408532643535" lon="14.328401350066406"><ele>366.6</ele><time>2026-05-02T09:01:21Z</time></trkpt><trkpt lat="42.05748833768117" lon="14.328361094120094"><ele>369.79999999999995</ele><time>2026-05-02T09:01:22Z</time></trkpt><trkpt lat="42.057580457948504" lon="14.328375831221175"><ele>373.0</ele><time>2026-05-02T09:01:23Z</time></trkpt><trkpt lat="42.05767181271092" lon="14.32843905538417"><ele>364.0</ele><time>2026-05-02T09:01:24Z</time></trkpt><trkpt lat="42.05771261553236" lon="14.328575156125327"><ele>355.0</ele><time>2026-05-02T09:01:25Z</time></trkpt><trkpt lat="42.0576852811622" lon="14.328722212919647"><ele>346.0</ele><time>2026-05-02T09:01:26Z</time></trkpt><trkpt lat="42.05766830942551" lon="14.328875522857924"><ele>337.0</ele><time>2026-05-02T09:01:27Z</time></trkpt><trkpt lat="42.05766376618259" lon="14.329049408372397"><ele>335.0</ele><time>2026-05-02T09:01:28Z</time></trkpt><trkpt lat="42.05767533938797" lon="14.329227855636656"><ele>333.0</ele><time>2026-05-02T09:01:29Z</time></trkpt><trkpt lat="42.057720371628086" lon="14.329405764184576"><ele>331.0</ele><time>2026-05-02T09:01:30Z</time></trkpt><trkpt lat="42.057775190483284" lon="14.329585100367586"><ele>329.0</ele><time>2026-05-02T09:01:31Z</time></trkpt><trkpt lat="42.057847654664364" lon="14.32975246452383"><ele>326.75</ele><time>2026-05-02T09:01:32Z</time></trkpt><trkpt lat="42.05791208807361" lon="14.329875359001752"><ele>324.5</ele><time>2026-05-02T09:01:33Z</time></trkpt><trkpt lat="42.057991029211706" lon="14.329985940734156"><ele>322.25</ele><time>2026-05-02T09:01:34Z</time></trkpt><trkpt lat="42.05810503213513" lon="14.330023436560344"><ele>320.0</ele><time>2026-05-02T09:01:35Z</time></trkpt><trkpt lat="42.05822065475305" lon="14.330017792193663"><ele>321.25</ele><time>2026-05-02T09:01:36Z</time></trkpt><trkpt lat="42.05834616005302" lon="14.329969333521424"><ele>322.5</ele><time>2026-05-02T09:01:37Z</time></trkpt><trkpt lat="42.05847205052199" lon="14.329897974698401"><ele>323.75</ele><time>2026-05-02T09:01:38Z</time></trkpt><trkpt lat="42.05859101267865" lon="14.32980689564539"><ele>325.0</ele><time>2026-05-02T09:01:39Z</time></trkpt><trkpt lat="42.05871718292597" lon="14.32972121938181"><ele>325.0</ele><time>2026-05-02T09:01:40Z</time></trkpt><trkpt lat="42.05885753504838" lon="14.329642673804948"><ele>325.0</ele><time>2026-05-02T09:01:41Z</time></trkpt><trkpt lat="42.058992624564446" lon="14.329615862117773"><ele>325.0</ele><time>2026-05-02T09:01:42Z</time></trkpt><trkpt lat="42.05911195488665" lon="14.329596843157733"><ele>325.0</ele><time>2026-05-02T09:01:43Z</time></trkpt><trkpt lat="42.05921949659574" lon="14.32965275749976"><ele>319.5</ele><time>2026-05-02T09:01:44Z</time></trkpt><trkpt lat="42.059300934354866" lon="14.329782153318364"><ele>314.0</ele><time>2026-05-02T09:01:45Z</time></trkpt><trkpt lat="42.05939723797857" lon="14.329930997555362"><ele>308.5</ele><time>2026-05-02T09:01:46Z</time></trkpt><trkpt lat="42.059458075342654" lon="14.33007791656879"><ele>303.0</ele><time>2026-05-02T09:01:47Z</time></trkpt><trkpt lat="42.059502261715835" lon="14.330234923768236"><ele>303.0</ele><time>2026-05-02T09:01:48Z</time></trkpt><trkpt lat="42.05951228527454" lon="14.330391235197956"><ele>303.0</ele><time>2026-05-02T09:01:49Z</time></trkpt><trkpt lat="42.059484075757204" lon="14.330538895808072"><ele>303.0</ele><time>2026-05-02T09:01:50Z</time></trkpt><trkpt lat="42.05940097503576" lon="14.330675311138293"><ele>303.0</ele><time>2026-05-02T09:01:51Z</time></trkpt><trkpt lat="42.05928368056727" lon="14.330780175206572"><ele>302.3333333333333</ele><time>2026-05-02T09:01:52Z</time></trkpt><trkpt lat="42.059154833012" lon="14.330885658966796"><ele>301.66666666666663</ele><time>2026-05-02T09:01:53Z</time></trkpt><trkpt lat="42.05902623783084" lon="14.330993588333202"><ele>301.0</ele><time>2026-05-02T09:01:54Z</time></trkpt><trkpt lat="42.05887905345922" lon="14.33109027301835"><ele>301.0</ele><time>2026-05-02T09:01:55Z</time></trkpt><trkpt lat="42.058730866885966" lon="14.331214380549921"><ele>301.0</ele><time>2026-05-02T09:01:56Z</time></trkpt><trkpt lat="42.058600550311525" lon="14.331363121550881"><ele>301.0</ele><time>2026-05-02T09:01:57Z</time></trkpt><trkpt lat="42.05846653710723" lon="14.331463285227045"><ele>297.5</ele><time>2026-05-02T09:01:58Z</time></trkpt><trkpt lat="42.05835463312004" lon="14.331562194916568"><ele>294.0</ele><time>2026-05-02T09:01:59Z</time></trkpt><trkpt lat="42.05824283344107" lon="14.331649247231171"><ele>290.5</ele><time>2026-05-02T09:02:00Z</time></trkpt><trkpt lat="42.05811459004618" lon="14.331656847158339"><ele>287.0</ele><time>2026-05-02T09:02:01Z</time></trkpt><trkpt lat="42.05798572758802" lon="14.331636415360956"><ele>287.0</ele><time>2026-05-02T09:02:02Z</time></trkpt><trkpt lat="42.057863297640544" lon="14.33163263869152"><ele>287.0</ele><time>2026-05-02T09:02:03Z</time></trkpt><trkpt lat="42.0577552472274" lon="14.331674525893677"><ele>287.0</ele><time>2026-05-02T09:02:04Z</time></trkpt><trkpt lat="42.05767513625964" lon="14.331749020151973"><ele>287.0</ele><time>2026-05-02T09:02:05Z</time></trkpt><trkpt lat="42.057634499007214" lon="14.331851569133482"><ele>287.0</ele><time>2026-05-02T09:02:06Z</time></trkpt><trkpt lat="42.05764271727951" lon="14.331971213626275"><ele>287.0</ele><time>2026-05-02T09:02:07Z</time></trkpt><trkpt lat="42.057696197047605" lon="14.332061667599328"><ele>287.0</ele><time>2026-05-02T09:02:08Z</time></trkpt><trkpt lat="42.057779516059036" lon="14.332110978110611"><ele>287.0</ele><time>2026-05-02T09:02:09Z</time></trkpt><trkpt lat="42.05790474686506" lon="14.33211023619411"><ele>287.0</ele><time>2026-05-02T09:02:10Z</time></trkpt><trkpt lat="42.05805178874927" lon="14.332097556733501"><ele>287.0</ele><time>2026-05-02T09:02:11Z</time></trkpt><trkpt lat="42.05818631883976" lon="14.332121508583178"><ele>287.0</ele><time>2026-05-02T09:02:12Z</time></trkpt><trkpt lat="42.05831415826089" lon="14.332156246160025"><ele>287.0</ele><time>2026-05-02T09:02:13Z</time></trkpt><trkpt lat="42.05842974191647" lon="14.332205258386253"><ele>287.0</ele><time>2026-05-02T09:02:14Z</time></trkpt><trkpt lat="42.0585160195121" lon="14.332246236703694"><ele>287.0</ele><time>2026-05-02T09:02:15Z</time></trkpt><trkpt lat="42.0585757755837" lon="14.33228763009728"><ele>287.0</ele><time>2026-05-02T09:02:16Z</time></trkpt><trkpt lat="42.0586021762667" lon="14.332450758289694"><ele>285.0</ele><time>2026-05-02T09:02:18Z</time></trkpt><trkpt lat="42.058534878834465" lon="14.33249766244366"><ele>283.0</ele><time>2026-05-02T09:02:19Z</time></trkpt><trkpt lat="42.058451007892536" lon="14.332496599823248"><ele>281.0</ele><time>2026-05-02T09:02:20Z</time></trkpt><trkpt lat="42.05834763384827" lon="14.332503078043915"><ele>279.0</ele><time>2026-05-02T09:02:21Z</time></trkpt><trkpt lat="42.05822149200209" lon="14.33254377492484"><ele>277.0</ele><time>2026-05-02T09:02:22Z</time></trkpt><trkpt lat="42.0581084298232" lon="14.332563900232486"><ele>277.0</ele><time>2026-05-02T09:02:23Z</time></trkpt><trkpt lat="42.05800097299409" lon="14.332589880798366"><ele>277.0</ele><time>2026-05-02T09:02:24Z</time></trkpt><trkpt lat="42.0579094113147" lon="14.33263384142824"><ele>277.0</ele><time>2026-05-02T09:02:25Z</time></trkpt><trkpt lat="42.05784520068215" lon="14.332710013802169"><ele>277.0</ele><time>2026-05-02T09:02:26Z</time></trkpt><trkpt lat="42.05782613069067" lon="14.3328279974701"><ele>277.0</ele><time>2026-05-02T09:02:27Z</time></trkpt><trkpt lat="42.05785400948691" lon="14.332950887953707"><ele>277.0</ele><time>2026-05-02T09:02:28Z</time></trkpt><trkpt lat="42.05792792258211" lon="14.333046262444139"><ele>277.0</ele><time>2026-05-02T09:02:29Z</time></trkpt><trkpt lat="42.058030923301104" lon="14.333089349033644"><ele>277.0</ele><time>2026-05-02T09:02:30Z</time></trkpt><trkpt lat="42.05815080005425" lon="14.333078526929212"><ele>277.0</ele><time>2026-05-02T09:02:31Z</time></trkpt><trkpt lat="42.058283161522226" lon="14.333045006251218"><ele>274.75</ele><time>2026-05-02T09:02:32Z</time></trkpt><trkpt lat="42.05843084983712" lon="14.333007114849906"><ele>272.5</ele><time>2026-05-02T09:02:33Z</time></trkpt><trkpt lat="42.05857298253844" lon="14.332966223149898"><ele>270.25</ele><time>2026-05-02T09:02:34Z</time></trkpt><trkpt lat="42.05871899853762" lon="14.332929098151558"><ele>268.0</ele><time>2026-05-02T09:02:35Z</time></trkpt><trkpt lat="42.058868446785816" lon="14.332879905847303"><ele>268.0</ele><time>2026-05-02T09:02:36Z</time></trkpt><trkpt lat="42.05903024951378" lon="14.332831828610965"><ele>268.0</ele><time>2026-05-02T09:02:37Z</time></trkpt><trkpt lat="42.059180556488556" lon="14.33277276708743"><ele>268.0</ele><time>2026-05-02T09:02:38Z</time></trkpt><trkpt lat="42.05931966837089" lon="14.332717410501115"><ele>267.16666666666663</ele><time>2026-05-02T09:02:39Z</time></trkpt><trkpt lat="42.05943211687331" lon="14.332644271534502"><ele>266.3333333333333</ele><time>2026-05-02T09:02:40Z</time></trkpt><trkpt lat="42.05951561704725" lon="14.33260566894398"><ele>265.5</ele><time>2026-05-02T09:02:41Z</time></trkpt><trkpt lat="42.059581560519625" lon="14.332587638855227"><ele>264.6666666666667</ele><time>2026-05-02T09:02:42Z</time></trkpt><trkpt lat="42.05964484694244" lon="14.332639794545429"><ele>263.83333333333337</ele><time>2026-05-02T09:02:43Z</time></trkpt><trkpt lat="42.059669116983606" lon="14.332745245495701"><ele>263.0</ele><time>2026-05-02T09:02:44Z</time></trkpt><trkpt lat="42.0596409119867" lon="14.332858302280512"><ele>263.0</ele><time>2026-05-02T09:02:45Z</time></trkpt><trkpt lat="42.05957104155861" lon="14.332950357635541"><ele>263.0</ele><time>2026-05-02T09:02:46Z</time></trkpt><trkpt lat="42.05946140109373" lon="14.333028077424549"><ele>263.0</ele><time>2026-05-02T09:02:47Z</time></trkpt><trkpt lat="42.05934173032316" lon="14.333114084677613"><ele>263.0</ele><time>2026-05-02T09:02:48Z</time></trkpt><trkpt lat="42.05922790450983" lon="14.333210337855183"><ele>261.0</ele><time>2026-05-02T09:02:49Z</time></trkpt><trkpt lat="42.05913489695586" lon="14.333334276489262"><ele>259.0</ele><time>2026-05-02T09:02:50Z</time></trkpt><trkpt lat="42.0590652947551" lon="14.33350151270746"><ele>257.0</ele><time>2026-05-02T09:02:51Z</time></trkpt><trkpt lat="42.059020989383285" lon="14.333698421310796"><ele>255.0</ele><time>2026-05-02T09:02:52Z</time></trkpt><trkpt lat="42.058984995006746" lon="14.333878238285598"><ele>253.75</ele><time>2026-05-02T09:02:53Z</time></trkpt><trkpt lat="42.058967481571955" lon="14.334038724116775"><ele>252.5</ele><time>2026-05-02T09:02:54Z</time></trkpt><trkpt lat="42.05900805446253" lon="14.334202221662279"><ele>251.25</ele><time>2026-05-02T09:02:55Z</time></trkpt><trkpt lat="42.05908857097519" lon="14.3343698539124"><ele>250.0</ele><time>2026-05-02T09:02:56Z</time></trkpt><trkpt lat="42.059194844518856" lon="14.334535293432912"><ele>243.66666666666666</ele><time>2026-05-02T09:02:57Z</time></trkpt><trkpt lat="42.05928477828874" lon="14.334724509719221"><ele>237.33333333333331</ele><time>2026-05-02T09:02:58Z</time></trkpt><trkpt lat="42.05938711862596" lon="14.334895874016562"><ele>231.0</ele><time>2026-05-02T09:02:59Z</time></trkpt><trkpt lat="42.05948510872288" lon="14.335068968227876"><ele>231.0</ele><time>2026-05-02T09:03:00Z</time></trkpt><trkpt lat="42.05958284624092" lon="14.335243368360553"><ele>231.0</ele><time>2026-05-02T09:03:01Z</time></trkpt><trkpt lat="42.05968647894755" lon="14.33537838558768"><ele>231.0</ele><time>2026-05-02T09:03:02Z</time></trkpt><trkpt lat="42.05978915912281" lon="14.335512199603727"><ele>231.0</ele><time>2026-05-02T09:03:03Z</time></trkpt><trkpt lat="42.059932484105936" lon="14.335594928167975"><ele>226.0</ele><time>2026-05-02T09:03:04Z</time></trkpt><trkpt lat="42.06008550726014" lon="14.335670207917369"><ele>221.0</ele><time>2026-05-02T09:03:05Z</time></trkpt><trkpt lat="42.06022682142422" lon="14.335794370828035"><ele>216.0</ele><time>2026-05-02T09:03:06Z</time></trkpt><trkpt lat="42.06034299259617" lon="14.335948743781975"><ele>216.0</ele><time>2026-05-02T09:03:07Z</time></trkpt><trkpt lat="42.06045745362348" lon="14.336135678110631"><ele>216.0</ele><time>2026-05-02T09:03:08Z</time></trkpt><trkpt lat="42.06057677774812" lon="14.336311419973656"><ele>216.0</ele><time>2026-05-02T09:03:09Z</time></trkpt><trkpt lat="42.06069746904684" lon="14.336485496438772"><ele>213.33333333333331</ele><time>2026-05-02T09:03:10Z</time></trkpt><trkpt lat="42.060832469967714" lon="14.33665991513994"><ele>210.66666666666666</ele><time>2026-05-02T09:03:11Z</time></trkpt><trkpt lat="42.060968264658364" lon="14.336826695195295"><ele>208.0</ele><time>2026-05-02T09:03:12Z</time></trkpt><trkpt lat="42.06110425331108" lon="14.336987496783722"><ele>208.0</ele><time>2026-05-02T09:03:13Z</time></trkpt><trkpt lat="42.06123543795048" lon="14.337113695714224"><ele>208.0</ele><time>2026-05-02T09:03:14Z</time></trkpt><trkpt lat="42.0613501890749" lon="14.33725712767714"><ele>208.0</ele><time>2026-05-02T09:03:15Z</time></trkpt><trkpt lat="42.06143812609828" lon="14.337370662214775"><ele>208.0</ele><time>2026-05-02T09:03:16Z</time></trkpt><trkpt lat="42.061498583163136" lon="14.337465074119061"><ele>207.0</ele><time>2026-05-02T09:03:17Z</time></trkpt><trkpt lat="42.06155871728078" lon="14.337558030376542"><ele>206.0</ele><time>2026-05-02T09:03:18Z</time></trkpt><trkpt lat="42.06158560461302" lon="14.337674862682386"><ele>205.0</ele><time>2026-05-02T09:03:19Z</time></trkpt><trkpt lat="42.061574973776516" lon="14.337813096647148"><ele>204.0</ele><time>2026-05-02T09:03:20Z</time></trkpt><trkpt lat="42.0615273542343" lon="14.337985072604798"><ele>203.0</ele><time>2026-05-02T09:03:21Z</time></trkpt><trkpt lat="42.061479071033304" lon="14.338177812519579"><ele>203.0</ele><time>2026-05-02T09:03:22Z</time></trkpt><trkpt lat="42.061440022272905" lon="14.338401380015751"><ele>203.0</ele><time>2026-05-02T09:03:23Z</time></trkpt><trkpt lat="42.06141273177772" lon="14.338624058785845"><ele>203.0</ele><time>2026-05-02T09:03:24Z</time></trkpt><trkpt lat="42.06139075430978" lon="14.338867128554703"><ele>202.33333333333334</ele><time>2026-05-02T09:03:25Z</time></trkpt><trkpt lat="42.06139775194758" lon="14.339123136359095"><ele>201.66666666666669</ele><time>2026-05-02T09:03:26Z</time></trkpt><trkpt lat="42.061398091438384" lon="14.339388779777103"><ele>201.0</ele><time>2026-05-02T09:03:27Z</time></trkpt><trkpt lat="42.061429608001795" lon="14.339609166716501"><ele>201.5</ele><time>2026-05-02T09:03:28Z</time></trkpt><trkpt lat="42.06143796229391" lon="14.339796160921278"><ele>202.0</ele><time>2026-05-02T09:03:29Z</time></trkpt><trkpt lat="42.06145344377394" lon="14.33996902519262"><ele>202.5</ele><time>2026-05-02T09:03:30Z</time></trkpt><trkpt lat="42.061477601261856" lon="14.340137503675647"><ele>203.0</ele><time>2026-05-02T09:03:31Z</time></trkpt><trkpt lat="42.061517716337484" lon="14.340314256777864"><ele>203.0</ele><time>2026-05-02T09:03:32Z</time></trkpt><trkpt lat="42.061535284823435" lon="14.340501981977196"><ele>203.0</ele><time>2026-05-02T09:03:33Z</time></trkpt><trkpt lat="42.0615541382088" lon="14.340679907723521"><ele>203.0</ele><time>2026-05-02T09:03:34Z</time></trkpt><trkpt lat="42.06148696976423" lon="14.34084591093252"><ele>203.0</ele><time>2026-05-02T09:03:35Z</time></trkpt><trkpt lat="42.06139999073666" lon="14.341005810179972"><ele>201.0</ele><time>2026-05-02T09:03:36Z</time></trkpt><trkpt lat="42.06128686886927" lon="14.341173619163866"><ele>199.0</ele><time>2026-05-02T09:03:37Z</time></trkpt><trkpt lat="42.061197050551165" lon="14.34137782008785"><ele>197.0</ele><time>2026-05-02T09:03:38Z</time></trkpt><trkpt lat="42.061135747726496" lon="14.341603438934523"><ele>195.0</ele><time>2026-05-02T09:03:39Z</time></trkpt><trkpt lat="42.06103749375038" lon="14.341812671954614"><ele>193.0</ele><time>2026-05-02T09:03:40Z</time></trkpt><trkpt lat="42.060938784883575" lon="14.342021038687161"><ele>191.0</ele><time>2026-05-02T09:03:41Z</time></trkpt><trkpt lat="42.06085053095833" lon="14.342233298715236"><ele>196.66666666666666</ele><time>2026-05-02T09:03:42Z</time></trkpt><trkpt lat="42.060775180308305" lon="14.342450361680854"><ele>202.33333333333331</ele><time>2026-05-02T09:03:43Z</time></trkpt><trkpt lat="42.060702332859485" lon="14.342668764361614"><ele>208.0</ele><time>2026-05-02T09:03:44Z</time></trkpt><trkpt lat="42.060621056235476" lon="14.342870076251538"><ele>204.0</ele><time>2026-05-02T09:03:45Z</time></trkpt><trkpt lat="42.06055997946889" lon="14.343065508312456"><ele>200.0</ele><time>2026-05-02T09:03:46Z</time></trkpt><trkpt lat="42.06051162710123" lon="14.343267344686351"><ele>196.0</ele><time>2026-05-02T09:03:47Z</time></trkpt><trkpt lat="42.06048332721329" lon="14.343483288018662"><ele>196.0</ele><time>2026-05-02T09:03:48Z</time></trkpt><trkpt lat="42.060472197700186" lon="14.343715988660799"><ele>196.0</ele><time>2026-05-02T09:03:49Z</time></trkpt><trkpt lat="42.060468937198365" lon="14.343949008373768"><ele>196.0</ele><time>2026-05-02T09:03:50Z</time></trkpt><trkpt lat="42.060482944478075" lon="14.344175693353813"><ele>193.66666666666666</ele><time>2026-05-02T09:03:51Z</time></trkpt><trkpt lat="42.06049389150228" lon="14.344388547509805"><ele>191.33333333333331</ele><time>2026-05-02T09:03:52Z</time></trkpt><trkpt lat="42.060483658544456" lon="14.344604412963157"><ele>189.0</ele><time>2026-05-02T09:03:53Z</time></trkpt><trkpt lat="42.06044363913146" lon="14.344820759525973"><ele>188.66666666666666</ele><time>2026-05-02T09:03:54Z</time></trkpt><trkpt lat="42.06040921434151" lon="14.345042061124932"><ele>188.33333333333331</ele><time>2026-05-02T09:03:55Z</time></trkpt><trkpt lat="42.06039731032092" lon="14.345269772578872"><ele>188.0</ele><time>2026-05-02T09:03:56Z</time></trkpt><trkpt lat="42.060401768649456" lon="14.34547403910658"><ele>184.33333333333331</ele><time>2026-05-02T09:03:57Z</time></trkpt><trkpt lat="42.060424361846685" lon="14.34566884169915"><ele>180.66666666666666</ele><time>2026-05-02T09:03:58Z</time></trkpt><trkpt lat="42.060466147034525" lon="14.345862263208712"><ele>177.0</ele><time>2026-05-02T09:03:59Z</time></trkpt><trkpt lat="42.060483819827596" lon="14.346068851847013"><ele>177.0</ele><time>2026-05-02T09:04:00Z</time></trkpt><trkpt lat="42.06048212083364" lon="14.346261210716662"><ele>177.0</ele><time>2026-05-02T09:04:01Z</time></trkpt><trkpt lat="42.060467719073664" lon="14.346432789275921"><ele>177.0</ele><time>2026-05-02T09:04:02Z</time></trkpt><trkpt lat="42.06042340529563" lon="14.346606020272109"><ele>177.0</ele><time>2026-05-02T09:04:03Z</time></trkpt><trkpt lat="42.060356438187895" lon="14.346771411062981"><ele>175.0</ele><time>2026-05-02T09:04:04Z</time></trkpt><trkpt lat="42.06026932886171" lon="14.346901745960173"><ele>173.0</ele><time>2026-05-02T09:04:05Z</time></trkpt><trkpt lat="42.06015982480684" lon="14.346999796931208"><ele>171.0</ele><time>2026-05-02T09:04:06Z</time></trkpt><trkpt lat="42.06005935797769" lon="14.347053885643213"><ele>169.0</ele><time>2026-05-02T09:04:07Z</time></trkpt><trkpt lat="42.05997287354593" lon="14.34707560142394"><ele>170.75</ele><time>2026-05-02T09:04:08Z</time></trkpt><trkpt lat="42.059888532843054" lon="14.347092893475592"><ele>172.5</ele><time>2026-05-02T09:04:09Z</time></trkpt><trkpt lat="42.05975181071365" lon="14.347112312271916"><ele>174.25</ele><time>2026-05-02T09:04:10Z</time></trkpt><trkpt lat="42.05958494640833" lon="14.347091922945323"><ele>176.0</ele><time>2026-05-02T09:04:11Z</time></trkpt><trkpt lat="42.059398925199375" lon="14.34709711416262"><ele>176.0</ele><time>2026-05-02T09:04:12Z</time></trkpt><trkpt lat="42.059185517481076" lon="14.347108750853739"><ele>176.0</ele><time>2026-05-02T09:04:13Z</time></trkpt><trkpt lat="42.05894985807711" lon="14.347130900764169"><ele>173.0</ele><time>2026-05-02T09:04:14Z</time></trkpt><trkpt lat="42.05870817949085" lon="14.347160295897506"><ele>170.0</ele><time>2026-05-02T09:04:15Z</time></trkpt><trkpt lat="42.058450119857675" lon="14.347192875406114"><ele>165.0</ele><time>2026-05-02T09:04:16Z</time></trkpt><trkpt lat="42.058196529803325" lon="14.347242737078977"><ele>160.0</ele><time>2026-05-02T09:04:17Z</time></trkpt><trkpt lat="42.057930398412736" lon="14.347261095936881"><ele>160.0</ele><time>2026-05-02T09:04:18Z</time></trkpt><trkpt lat="42.05766758534361" lon="14.34729457657941"><ele>160.0</ele><time>2026-05-02T09:04:19Z</time></trkpt><trkpt lat="42.05741404208936" lon="14.347326497271192"><ele>163.0</ele><time>2026-05-02T09:04:20Z</time></trkpt><trkpt lat="42.05716464864939" lon="14.347364393388828"><ele>166.0</ele><time>2026-05-02T09:04:21Z</time></trkpt><trkpt lat="42.05691192102454" lon="14.34741418806196"><ele>166.0</ele><time>2026-05-02T09:04:22Z</time></trkpt><trkpt lat="42.05666581606089" lon="14.34748939111558"><ele>166.0</ele><time>2026-05-02T09:04:23Z</time></trkpt><trkpt lat="42.056425151678056" lon="14.347573013718717"><ele>169.0</ele><time>2026-05-02T09:04:24Z</time></trkpt><trkpt lat="42.05618703983141" lon="14.347669986536628"><ele>172.0</ele><time>2026-05-02T09:04:25Z</time></trkpt><trkpt lat="42.055954024295836" lon="14.347785196190012"><ele>172.5</ele><time>2026-05-02T09:04:26Z</time></trkpt><trkpt lat="42.05573093122078" lon="14.347909617972933"><ele>173.0</ele><time>2026-05-02T09:04:27Z</time></trkpt><trkpt lat="42.055512389942436" lon="14.348045526940306"><ele>173.0</ele><time>2026-05-02T09:04:28Z</time></trkpt><trkpt lat="42.05530962070968" lon="14.3481994899132"><ele>173.0</ele><time>2026-05-02T09:04:29Z</time></trkpt><trkpt lat="42.05510060844861" lon="14.348335538148293"><ele>171.0</ele><time>2026-05-02T09:04:30Z</time></trkpt><trkpt lat="42.0548932129239" lon="14.348473711118936"><ele>169.0</ele><time>2026-05-02T09:04:31Z</time></trkpt><trkpt lat="42.054690520864554" lon="14.348606774602583"><ele>169.0</ele><time>2026-05-02T09:04:32Z</time></trkpt><trkpt lat="42.05448370465909" lon="14.348735804383276"><ele>169.0</ele><time>2026-05-02T09:04:33Z</time></trkpt><trkpt lat="42.05427263574674" lon="14.348838218994267"><ele>175.0</ele><time>2026-05-02T09:04:34Z</time></trkpt><trkpt lat="42.054062299504345" lon="14.348972861734985"><ele>181.0</ele><time>2026-05-02T09:04:35Z</time></trkpt><trkpt lat="42.053847084268845" lon="14.349076080791326"><ele>181.0</ele><time>2026-05-02T09:04:36Z</time></trkpt><trkpt lat="42.05362322660506" lon="14.349141893967236"><ele>181.0</ele><time>2026-05-02T09:04:37Z</time></trkpt><trkpt lat="42.05340091222388" lon="14.349206317702723"><ele>181.0</ele><time>2026-05-02T09:04:38Z</time></trkpt><trkpt lat="42.053181814766965" lon="14.34927666209645"><ele>181.0</ele><time>2026-05-02T09:04:39Z</time></trkpt><trkpt lat="42.05295967583087" lon="14.34931883225987"><ele>181.0</ele><time>2026-05-02T09:04:40Z</time></trkpt><trkpt lat="42.05273941145355" lon="14.349366721718003"><ele>181.0</ele><time>2026-05-02T09:04:41Z</time></trkpt><trkpt lat="42.052523295687145" lon="14.349414688491834"><ele>181.0</ele><time>2026-05-02T09:04:42Z</time></trkpt><trkpt lat="42.052304713443306" lon="14.349442564569527"><ele>183.33333333333334</ele><time>2026-05-02T09:04:43Z</time></trkpt><trkpt lat="42.05208423362425" lon="14.349494443138331"><ele>185.66666666666666</ele><time>2026-05-02T09:04:44Z</time></trkpt><trkpt lat="42.05186359673811" lon="14.349556324851235"><ele>188.0</ele><time>2026-05-02T09:04:45Z</time></trkpt><trkpt lat="42.051652691911364" lon="14.349624960431798"><ele>186.0</ele><time>2026-05-02T09:04:46Z</time></trkpt><trkpt lat="42.05143712811051" lon="14.349704282476369"><ele>184.0</ele><time>2026-05-02T09:04:47Z</time></trkpt><trkpt lat="42.05122186486805" lon="14.349792692990755"><ele>182.0</ele><time>2026-05-02T09:04:48Z</time></trkpt><trkpt lat="42.05101033692675" lon="14.34989262601375"><ele>185.66666666666666</ele><time>2026-05-02T09:04:49Z</time></trkpt><trkpt lat="42.05079901491445" lon="14.3499952415594"><ele>189.33333333333331</ele><time>2026-05-02T09:04:50Z</time></trkpt><trkpt lat="42.050589362604896" lon="14.350094399974694"><ele>193.0</ele><time>2026-05-02T09:04:51Z</time></trkpt><trkpt lat="42.050383217393545" lon="14.350189325968525"><ele>193.0</ele><time>2026-05-02T09:04:52Z</time></trkpt><trkpt lat="42.05017304013593" lon="14.3502752165361"><ele>193.0</ele><time>2026-05-02T09:04:53Z</time></trkpt><trkpt lat="42.04996156061177" lon="14.350367561465156"><ele>193.0</ele><time>2026-05-02T09:04:54Z</time></trkpt><trkpt lat="42.04974772126479" lon="14.350420714275128"><ele>193.33333333333331</ele><time>2026-05-02T09:04:55Z</time></trkpt><trkpt lat="42.049530184042965" lon="14.350469164982933"><ele>193.66666666666669</ele><time>2026-05-02T09:04:56Z</time></trkpt><trkpt lat="42.04931275572483" lon="14.350502963570326"><ele>194.0</ele><time>2026-05-02T09:04:57Z</time></trkpt><trkpt lat="42.04909677234243" lon="14.350524341926652"><ele>196.66666666666669</ele><time>2026-05-02T09:04:58Z</time></trkpt><trkpt lat="42.0488790437602" lon="14.350535500021907"><ele>199.33333333333331</ele><time>2026-05-02T09:04:59Z</time></trkpt><trkpt lat="42.048663843610896" lon="14.35052912958665"><ele>202.0</ele><time>2026-05-02T09:05:00Z</time></trkpt><trkpt lat="42.048451879587226" lon="14.350504759304703"><ele>205.0</ele><time>2026-05-02T09:05:01Z</time></trkpt><trkpt lat="42.04823710203686" lon="14.350467719607167"><ele>208.0</ele><time>2026-05-02T09:05:02Z</time></trkpt><trkpt lat="42.048021637867755" lon="14.350413001578204"><ele>211.0</ele><time>2026-05-02T09:05:03Z</time></trkpt><trkpt lat="42.047808661113145" lon="14.350349153363583"><ele>211.0</ele><time>2026-05-02T09:05:04Z</time></trkpt><trkpt lat="42.04759747199346" lon="14.350272649905108"><ele>211.0</ele><time>2026-05-02T09:05:05Z</time></trkpt><trkpt lat="42.047390239953835" lon="14.35018712480109"><ele>211.0</ele><time>2026-05-02T09:05:06Z</time></trkpt><trkpt lat="42.047182739708845" lon="14.35009659246099"><ele>212.0</ele><time>2026-05-02T09:05:07Z</time></trkpt><trkpt lat="42.04697543368325" lon="14.35001188652987"><ele>213.0</ele><time>2026-05-02T09:05:08Z</time></trkpt><trkpt lat="42.046771869680526" lon="14.349957094456654"><ele>214.0</ele><time>2026-05-02T09:05:09Z</time></trkpt><trkpt lat="42.04657046282348" lon="14.349873340047987"><ele>217.33333333333331</ele><time>2026-05-02T09:05:10Z</time></trkpt><trkpt lat="42.046353442559" lon="14.349803631501144"><ele>220.66666666666669</ele><time>2026-05-02T09:05:11Z</time></trkpt><trkpt lat="42.04613258518587" lon="14.349749152929855"><ele>224.0</ele><time>2026-05-02T09:05:12Z</time></trkpt><trkpt lat="42.04591266706036" lon="14.349715885097028"><ele>219.5</ele><time>2026-05-02T09:05:13Z</time></trkpt><trkpt lat="42.04568014078627" lon="14.349679055200662"><ele>215.0</ele><time>2026-05-02T09:05:14Z</time></trkpt><trkpt lat="42.045454937496444" lon="14.34964126470341"><ele>215.0</ele><time>2026-05-02T09:05:15Z</time></trkpt><trkpt lat="42.045226578114175" lon="14.349619818449122"><ele>215.0</ele><time>2026-05-02T09:05:16Z</time></trkpt><trkpt lat="42.04499626378087" lon="14.349610044634087"><ele>215.5</ele><time>2026-05-02T09:05:17Z</time></trkpt><trkpt lat="42.044769318664365" lon="14.34959836461354"><ele>216.0</ele><time>2026-05-02T09:05:18Z</time></trkpt><trkpt lat="42.04454081801569" lon="14.34960737415206"><ele>216.0</ele><time>2026-05-02T09:05:19Z</time></trkpt><trkpt lat="42.04431124099857" lon="14.349630401489723"><ele>216.0</ele><time>2026-05-02T09:05:20Z</time></trkpt><trkpt lat="42.044085032660824" lon="14.349660494336263"><ele>213.5</ele><time>2026-05-02T09:05:21Z</time></trkpt><trkpt lat="42.04385944885745" lon="14.3496788840744"><ele>211.0</ele><time>2026-05-02T09:05:22Z</time></trkpt><trkpt lat="42.04363851263029" lon="14.349729328858828"><ele>219.5</ele><time>2026-05-02T09:05:23Z</time></trkpt><trkpt lat="42.04342104517934" lon="14.349783433753705"><ele>228.0</ele><time>2026-05-02T09:05:24Z</time></trkpt><trkpt lat="42.04319778925685" lon="14.349851352161892"><ele>228.0</ele><time>2026-05-02T09:05:25Z</time></trkpt><trkpt lat="42.04298425863824" lon="14.349936540829974"><ele>228.0</ele><time>2026-05-02T09:05:26Z</time></trkpt><trkpt lat="42.042777417959364" lon="14.350033616809451"><ele>228.0</ele><time>2026-05-02T09:05:27Z</time></trkpt><trkpt lat="42.042583359171275" lon="14.350144663968882"><ele>226.66666666666669</ele><time>2026-05-02T09:05:28Z</time></trkpt><trkpt lat="42.042404185022754" lon="14.350287006678704"><ele>225.33333333333334</ele><time>2026-05-02T09:05:29Z</time></trkpt><trkpt lat="42.04224586183161" lon="14.350471301288357"><ele>224.0</ele><time>2026-05-02T09:05:30Z</time></trkpt><trkpt lat="42.04211426077666" lon="14.350676024852001"><ele>224.0</ele><time>2026-05-02T09:05:31Z</time></trkpt><trkpt lat="42.04199319312512" lon="14.350876355025925"><ele>224.0</ele><time>2026-05-02T09:05:32Z</time></trkpt><trkpt lat="42.04188593269767" lon="14.351044284278776"><ele>224.0</ele><time>2026-05-02T09:05:33Z</time></trkpt><trkpt lat="42.04178577598033" lon="14.351208271832931"><ele>226.0</ele><time>2026-05-02T09:05:34Z</time></trkpt><trkpt lat="42.04170663361019" lon="14.351375747134659"><ele>228.0</ele><time>2026-05-02T09:05:35Z</time></trkpt><trkpt lat="42.04164043258929" lon="14.351548357046278"><ele>230.0</ele><time>2026-05-02T09:05:36Z</time></trkpt><trkpt lat="42.04160813204011" lon="14.35173648342308"><ele>232.0</ele><time>2026-05-02T09:05:37Z</time></trkpt><trkpt lat="42.04161925105457" lon="14.35191540333542"><ele>232.0</ele><time>2026-05-02T09:05:38Z</time></trkpt><trkpt lat="42.04166919514123" lon="14.35208703181432"><ele>232.0</ele><time>2026-05-02T09:05:39Z</time></trkpt><trkpt lat="42.04173989822187" lon="14.352222762214454"><ele>232.0</ele><time>2026-05-02T09:05:40Z</time></trkpt><trkpt lat="42.041815798151944" lon="14.35233713076137"><ele>232.0</ele><time>2026-05-02T09:05:41Z</time></trkpt><trkpt lat="42.0418987861139" lon="14.352419678984733"><ele>231.39999999999998</ele><time>2026-05-02T09:05:42Z</time></trkpt><trkpt lat="42.04198293291411" lon="14.352492585415147"><ele>230.79999999999998</ele><time>2026-05-02T09:05:43Z</time></trkpt><trkpt lat="42.04205276236732" lon="14.352589973343177"><ele>230.2</ele><time>2026-05-02T09:05:44Z</time></trkpt><trkpt lat="42.04209202458038" lon="14.352712174395519"><ele>229.6</ele><time>2026-05-02T09:05:45Z</time></trkpt><trkpt lat="42.042108182078024" lon="14.352845248068432"><ele>229.0</ele><time>2026-05-02T09:05:46Z</time></trkpt><trkpt lat="42.04208149661697" lon="14.352974841200737"><ele>229.6</ele><time>2026-05-02T09:05:47Z</time></trkpt><trkpt lat="42.04202750772701" lon="14.353097281623064"><ele>230.2</ele><time>2026-05-02T09:05:48Z</time></trkpt><trkpt lat="42.04195348525444" lon="14.353191586838468"><ele>230.79999999999998</ele><time>2026-05-02T09:05:49Z</time></trkpt><trkpt lat="42.04185513879431" lon="14.353253580516935"><ele>231.39999999999998</ele><time>2026-05-02T09:05:50Z</time></trkpt><trkpt lat="42.04173981057617" lon="14.353278788108565"><ele>232.0</ele><time>2026-05-02T09:05:51Z</time></trkpt><trkpt lat="42.041620498160036" lon="14.353301888755597"><ele>232.0</ele><time>2026-05-02T09:05:52Z</time></trkpt><trkpt lat="42.04151550426215" lon="14.35335702881235"><ele>232.0</ele><time>2026-05-02T09:05:53Z</time></trkpt><trkpt lat="42.04142133745894" lon="14.353412228117916"><ele>232.0</ele><time>2026-05-02T09:05:54Z</time></trkpt><trkpt lat="42.04132296556765" lon="14.35347646073668"><ele>232.0</ele><time>2026-05-02T09:05:55Z</time></trkpt><trkpt lat="42.04122211519961" lon="14.353547199683756"><ele>232.0</ele><time>2026-05-02T09:05:56Z</time></trkpt><trkpt lat="42.04112132725773" lon="14.353635948034732"><ele>232.0</ele><time>2026-05-02T09:05:57Z</time></trkpt><trkpt lat="42.041026587198616" lon="14.353734037072718"><ele>232.0</ele><time>2026-05-02T09:05:58Z</time></trkpt><trkpt lat="42.04093521145991" lon="14.353844669389147"><ele>232.0</ele><time>2026-05-02T09:05:59Z</time></trkpt><trkpt lat="42.04084181212909" lon="14.353971518229558"><ele>232.0</ele><time>2026-05-02T09:06:00Z</time></trkpt><trkpt lat="42.040743780765226" lon="14.35410510720504"><ele>233.0</ele><time>2026-05-02T09:06:01Z</time></trkpt><trkpt lat="42.040635257343546" lon="14.354247858487584"><ele>234.0</ele><time>2026-05-02T09:06:02Z</time></trkpt><trkpt lat="42.04051194042958" lon="14.354389518859493"><ele>235.0</ele><time>2026-05-02T09:06:03Z</time></trkpt><trkpt lat="42.04037032259211" lon="14.354524846408017"><ele>235.0</ele><time>2026-05-02T09:06:04Z</time></trkpt><trkpt lat="42.040218909096176" lon="14.35465092033203"><ele>235.0</ele><time>2026-05-02T09:06:05Z</time></trkpt><trkpt lat="42.04006099036541" lon="14.354747894964373"><ele>235.0</ele><time>2026-05-02T09:06:06Z</time></trkpt><trkpt lat="42.039900180546994" lon="14.354866376726918"><ele>237.33333333333331</ele><time>2026-05-02T09:06:07Z</time></trkpt><trkpt lat="42.03972967294641" lon="14.354945209233858"><ele>239.66666666666669</ele><time>2026-05-02T09:06:08Z</time></trkpt><trkpt lat="42.03954074960633" lon="14.355002850218979"><ele>242.0</ele><time>2026-05-02T09:06:09Z</time></trkpt><trkpt lat="42.03933233775231" lon="14.355044056657357"><ele>242.5</ele><time>2026-05-02T09:06:10Z</time></trkpt><trkpt lat="42.03910775971142" lon="14.35507243043295"><ele>243.0</ele><time>2026-05-02T09:06:11Z</time></trkpt><trkpt lat="42.0388690919251" lon="14.355080534159928"><ele>243.0</ele><time>2026-05-02T09:06:12Z</time></trkpt><trkpt lat="42.03861138595694" lon="14.355111388188918"><ele>243.0</ele><time>2026-05-02T09:06:13Z</time></trkpt><trkpt lat="42.03834637566982" lon="14.355143635491878"><ele>247.0</ele><time>2026-05-02T09:06:14Z</time></trkpt><trkpt lat="42.038077766831364" lon="14.355196827753732"><ele>251.0</ele><time>2026-05-02T09:06:15Z</time></trkpt><trkpt lat="42.0377980185859" lon="14.355219638385178"><ele>251.0</ele><time>2026-05-02T09:06:16Z</time></trkpt><trkpt lat="42.037519950289266" lon="14.35528279938638"><ele>251.0</ele><time>2026-05-02T09:06:17Z</time></trkpt><trkpt lat="42.03723266129647" lon="14.355335466553127"><ele>253.5</ele><time>2026-05-02T09:06:18Z</time></trkpt><trkpt lat="42.03694796572717" lon="14.355409086030297"><ele>256.0</ele><time>2026-05-02T09:06:19Z</time></trkpt><trkpt lat="42.036676827077976" lon="14.355488227760729"><ele>260.0</ele><time>2026-05-02T09:06:20Z</time></trkpt><trkpt lat="42.03639968653152" lon="14.35558137320376"><ele>264.0</ele><time>2026-05-02T09:06:21Z</time></trkpt><trkpt lat="42.03612755155914" lon="14.355683518546451"><ele>264.0</ele><time>2026-05-02T09:06:22Z</time></trkpt><trkpt lat="42.035868104699084" lon="14.355800472503153"><ele>264.0</ele><time>2026-05-02T09:06:23Z</time></trkpt><trkpt lat="42.035617862444646" lon="14.355933552576005"><ele>266.0</ele><time>2026-05-02T09:06:24Z</time></trkpt><trkpt lat="42.0353690077988" lon="14.356076961244083"><ele>268.0</ele><time>2026-05-02T09:06:25Z</time></trkpt><trkpt lat="42.03512946001484" lon="14.356230323634861"><ele>275.0</ele><time>2026-05-02T09:06:26Z</time></trkpt><trkpt lat="42.03489715188624" lon="14.356396935600035"><ele>282.0</ele><time>2026-05-02T09:06:27Z</time></trkpt><trkpt lat="42.03467992320692" lon="14.3565862604597"><ele>282.0</ele><time>2026-05-02T09:06:28Z</time></trkpt><trkpt lat="42.03445732371898" lon="14.356765418265855"><ele>282.0</ele><time>2026-05-02T09:06:29Z</time></trkpt><trkpt lat="42.03423837449609" lon="14.35694360847452"><ele>284.5</ele><time>2026-05-02T09:06:30Z</time></trkpt><trkpt lat="42.0340214214035" lon="14.35712403654821"><ele>287.0</ele><time>2026-05-02T09:06:31Z</time></trkpt><trkpt lat="42.033804533883036" lon="14.357306212476466"><ele>287.0</ele><time>2026-05-02T09:06:32Z</time></trkpt><trkpt lat="42.03359020541329" lon="14.357493706357248"><ele>287.0</ele><time>2026-05-02T09:06:33Z</time></trkpt><trkpt lat="42.03336504778371" lon="14.357655944105044"><ele>286.0</ele><time>2026-05-02T09:06:34Z</time></trkpt><trkpt lat="42.03314847113835" lon="14.35783854971878"><ele>285.0</ele><time>2026-05-02T09:06:35Z</time></trkpt><trkpt lat="42.03294365625815" lon="14.358032696862105"><ele>285.0</ele><time>2026-05-02T09:06:36Z</time></trkpt><trkpt lat="42.03273858549047" lon="14.358202740422481"><ele>285.0</ele><time>2026-05-02T09:06:37Z</time></trkpt><trkpt lat="42.032530616792634" lon="14.358346476881993"><ele>285.0</ele><time>2026-05-02T09:06:38Z</time></trkpt><trkpt lat="42.032344180326774" lon="14.358493515939474"><ele>285.0</ele><time>2026-05-02T09:06:39Z</time></trkpt><trkpt lat="42.03215776379016" lon="14.35863423920601"><ele>285.0</ele><time>2026-05-02T09:06:40Z</time></trkpt><trkpt lat="42.031985555220814" lon="14.35878189153151"><ele>288.0</ele><time>2026-05-02T09:06:41Z</time></trkpt><trkpt lat="42.03181085058722" lon="14.358896610203063"><ele>291.0</ele><time>2026-05-02T09:06:42Z</time></trkpt><trkpt lat="42.031634175621825" lon="14.359009977258797"><ele>294.0</ele><time>2026-05-02T09:06:43Z</time></trkpt><trkpt lat="42.03144898430232" lon="14.359113772736654"><ele>295.3333333333333</ele><time>2026-05-02T09:06:44Z</time></trkpt><trkpt lat="42.03125522703669" lon="14.359190974938004"><ele>296.66666666666663</ele><time>2026-05-02T09:06:45Z</time></trkpt><trkpt lat="42.03106954045591" lon="14.359299269629963"><ele>298.0</ele><time>2026-05-02T09:06:46Z</time></trkpt><trkpt lat="42.03087767114671" lon="14.359374897388614"><ele>298.0</ele><time>2026-05-02T09:06:47Z</time></trkpt><trkpt lat="42.03068668226422" lon="14.359446915872715"><ele>298.0</ele><time>2026-05-02T09:06:48Z</time></trkpt><trkpt lat="42.030483645943605" lon="14.359528733076909"><ele>298.0</ele><time>2026-05-02T09:06:49Z</time></trkpt><trkpt lat="42.03026659336039" lon="14.359584614492528"><ele>298.0</ele><time>2026-05-02T09:06:50Z</time></trkpt><trkpt lat="42.030037892224556" lon="14.359662475616519"><ele>298.0</ele><time>2026-05-02T09:06:51Z</time></trkpt><trkpt lat="42.02979957823013" lon="14.359743373466447"><ele>307.0</ele><time>2026-05-02T09:06:52Z</time></trkpt><trkpt lat="42.02955480672764" lon="14.359824865039945"><ele>316.0</ele><time>2026-05-02T09:06:53Z</time></trkpt><trkpt lat="42.02930550991976" lon="14.359908871712285"><ele>320.5</ele><time>2026-05-02T09:06:54Z</time></trkpt><trkpt lat="42.02905453659997" lon="14.359992622007661"><ele>325.0</ele><time>2026-05-02T09:06:55Z</time></trkpt><trkpt lat="42.028792253819425" lon="14.360082417618111"><ele>325.0</ele><time>2026-05-02T09:06:56Z</time></trkpt><trkpt lat="42.0285204936865" lon="14.360174922838159"><ele>325.0</ele><time>2026-05-02T09:06:57.023Z</time></trkpt><trkpt lat="42.02825493157362" lon="14.36026409464669"><ele>324.5</ele><time>2026-05-02T09:06:58.022Z</time></trkpt><trkpt lat="42.027981113068215" lon="14.360353940273074"><ele>324.0</ele><time>2026-05-02T09:06:59.015Z</time></trkpt><trkpt lat="42.02770887379279" lon="14.360447705206605"><ele>321.0</ele><time>2026-05-02T09:07:00.017Z</time></trkpt><trkpt lat="42.026233859399355" lon="14.361217282725834"><ele>322.0</ele><time>2026-05-02T09:07:06Z</time></trkpt><trkpt lat="42.02600012246924" lon="14.361379930690477"><ele>323.0</ele><time>2026-05-02T09:07:07Z</time></trkpt><trkpt lat="42.02579623005819" lon="14.361602527412353"><ele>323.0</ele><time>2026-05-02T09:07:08Z</time></trkpt><trkpt lat="42.02557397991956" lon="14.361754324748025"><ele>323.0</ele><time>2026-05-02T09:07:09Z</time></trkpt><trkpt lat="42.02542015758278" lon="14.36200453806014"><ele>324.0</ele><time>2026-05-02T09:07:10Z</time></trkpt><trkpt lat="42.02523433708743" lon="14.362220269522764"><ele>325.0</ele><time>2026-05-02T09:07:11Z</time></trkpt><trkpt lat="42.025049499406606" lon="14.362387360928542"><ele>323.5</ele><time>2026-05-02T09:07:12Z</time></trkpt><trkpt lat="42.02483471982774" lon="14.362575479498924"><ele>322.0</ele><time>2026-05-02T09:07:13Z</time></trkpt><trkpt lat="42.02464392553838" lon="14.362757067900029"><ele>322.0</ele><time>2026-05-02T09:07:14Z</time></trkpt><trkpt lat="42.02431094524013" lon="14.36272052674149"><ele>322.0</ele><time>2026-05-02T09:07:15Z</time></trkpt><trkpt lat="42.024174453007205" lon="14.362872010074103"><ele>323.3333333333333</ele><time>2026-05-02T09:07:16Z</time></trkpt><trkpt lat="42.024064015961116" lon="14.363040748239573"><ele>324.6666666666667</ele><time>2026-05-02T09:07:17Z</time></trkpt><trkpt lat="42.023857845631134" lon="14.3631205183492"><ele>326.0</ele><time>2026-05-02T09:07:18Z</time></trkpt><trkpt lat="42.023649372073464" lon="14.363190707205302"><ele>326.0</ele><time>2026-05-02T09:07:19Z</time></trkpt><trkpt lat="42.023432073779475" lon="14.36324657602895"><ele>326.0</ele><time>2026-05-02T09:07:20Z</time></trkpt><trkpt lat="42.023202382904906" lon="14.363270804511286"><ele>332.0</ele><time>2026-05-02T09:07:21Z</time></trkpt><trkpt lat="42.02296826918999" lon="14.363276939928651"><ele>338.0</ele><time>2026-05-02T09:07:22Z</time></trkpt><trkpt lat="42.02273036758202" lon="14.363292118724928"><ele>338.0</ele><time>2026-05-02T09:07:23Z</time></trkpt><trkpt lat="42.02249004765362" lon="14.363328458870143"><ele>338.0</ele><time>2026-05-02T09:07:24Z</time></trkpt><trkpt lat="42.02225045894589" lon="14.363374725051903"><ele>343.5</ele><time>2026-05-02T09:07:25Z</time></trkpt><trkpt lat="42.02201433802289" lon="14.363432215797012"><ele>349.0</ele><time>2026-05-02T09:07:26Z</time></trkpt><trkpt lat="42.02177921029857" lon="14.363511686259347"><ele>347.0</ele><time>2026-05-02T09:07:27Z</time></trkpt><trkpt lat="42.02155321832755" lon="14.363620071596298"><ele>345.0</ele><time>2026-05-02T09:07:28Z</time></trkpt><trkpt lat="42.02133246329096" lon="14.36374610028898"><ele>347.0</ele><time>2026-05-02T09:07:29Z</time></trkpt><trkpt lat="42.021113033373005" lon="14.363892973210366"><ele>349.0</ele><time>2026-05-02T09:07:30Z</time></trkpt><trkpt lat="42.0208999336684" lon="14.36404135299396"><ele>343.0</ele><time>2026-05-02T09:07:31Z</time></trkpt><trkpt lat="42.02069453384501" lon="14.364199169505675"><ele>337.0</ele><time>2026-05-02T09:07:32Z</time></trkpt><trkpt lat="42.02049653934227" lon="14.36436778575261"><ele>337.0</ele><time>2026-05-02T09:07:33Z</time></trkpt><trkpt lat="42.02028534246079" lon="14.364525518824864"><ele>337.0</ele><time>2026-05-02T09:07:34Z</time></trkpt><trkpt lat="42.020075416531256" lon="14.364677300792549"><ele>340.0</ele><time>2026-05-02T09:07:35Z</time></trkpt><trkpt lat="42.01986132004642" lon="14.364816384796788"><ele>343.0</ele><time>2026-05-02T09:07:36Z</time></trkpt><trkpt lat="42.01964048418841" lon="14.364941861158677"><ele>343.0</ele><time>2026-05-02T09:07:37Z</time></trkpt><trkpt lat="42.01942112239844" lon="14.365055612928524"><ele>343.0</ele><time>2026-05-02T09:07:38Z</time></trkpt><trkpt lat="42.019190025989126" lon="14.36514084488802"><ele>341.0</ele><time>2026-05-02T09:07:39Z</time></trkpt><trkpt lat="42.01895590434954" lon="14.365208611883915"><ele>339.0</ele><time>2026-05-02T09:07:40Z</time></trkpt><trkpt lat="42.018720869629625" lon="14.365257272237322"><ele>339.0</ele><time>2026-05-02T09:07:41Z</time></trkpt><trkpt lat="42.018483646124956" lon="14.365290405008508"><ele>339.0</ele><time>2026-05-02T09:07:42Z</time></trkpt><trkpt lat="42.01824174350766" lon="14.365301965822344"><ele>342.0</ele><time>2026-05-02T09:07:43Z</time></trkpt><trkpt lat="42.01799761736002" lon="14.365292054766716"><ele>345.0</ele><time>2026-05-02T09:07:44Z</time></trkpt><trkpt lat="42.017757652997105" lon="14.36526655587575"><ele>345.0</ele><time>2026-05-02T09:07:45Z</time></trkpt><trkpt lat="42.01751383623816" lon="14.365232676588827"><ele>345.0</ele><time>2026-05-02T09:07:46Z</time></trkpt><trkpt lat="42.01727528904251" lon="14.365210927851512"><ele>346.5</ele><time>2026-05-02T09:07:47Z</time></trkpt><trkpt lat="42.01703112320818" lon="14.36521505737448"><ele>348.0</ele><time>2026-05-02T09:07:48Z</time></trkpt><trkpt lat="42.01678726361089" lon="14.365238593939033"><ele>354.5</ele><time>2026-05-02T09:07:49Z</time></trkpt><trkpt lat="42.016546690269635" lon="14.365285262344111"><ele>361.0</ele><time>2026-05-02T09:07:50Z</time></trkpt><trkpt lat="42.01631120932004" lon="14.36534717939825"><ele>361.0</ele><time>2026-05-02T09:07:51Z</time></trkpt><trkpt lat="42.01607769411676" lon="14.36542680272403"><ele>361.0</ele><time>2026-05-02T09:07:52Z</time></trkpt><trkpt lat="42.015847501329795" lon="14.365528662612181"><ele>390.0</ele><time>2026-05-02T09:07:53Z</time></trkpt><trkpt lat="42.01562063150848" lon="14.365630527076256"><ele>419.0</ele><time>2026-05-02T09:07:54Z</time></trkpt><trkpt lat="42.01539052708951" lon="14.365734820079691"><ele>419.0</ele><time>2026-05-02T09:07:55.021Z</time></trkpt><trkpt lat="42.01516365807139" lon="14.365828589717541"><ele>419.0</ele><time>2026-05-02T09:07:56.019Z</time></trkpt><trkpt lat="42.01493590154839" lon="14.365919475504805"><ele>426.0</ele><time>2026-05-02T09:07:57.02Z</time></trkpt><trkpt lat="42.0147083120782" lon="14.366007861674472"><ele>433.0</ele><time>2026-05-02T09:07:58.019Z</time></trkpt><trkpt lat="42.01447963585012" lon="14.366099295650338"><ele>339.0</ele><time>2026-05-02T09:07:59.02Z</time></trkpt><trkpt lat="41.98328528091496" lon="14.381058001904172"><ele>339.0</ele><time>2026-05-02T09:10:16Z</time></trkpt><trkpt lat="41.9830779126305" lon="14.380735382451098"><ele>339.0</ele><time>2026-05-02T09:10:17Z</time></trkpt><trkpt lat="41.982877836601794" lon="14.38051267528383"><ele>338.0</ele><time>2026-05-02T09:10:18Z</time></trkpt><trkpt lat="41.982671138869584" lon="14.380401866523902"><ele>337.0</ele><time>2026-05-02T09:10:19Z</time></trkpt><trkpt lat="41.98245998169181" lon="14.380290698711018"><ele>336.0</ele><time>2026-05-02T09:10:20Z</time></trkpt><trkpt lat="41.98224919386392" lon="14.38017840498535"><ele>368.0</ele><time>2026-05-02T09:10:21Z</time></trkpt><trkpt lat="41.980984952191214" lon="14.378883938497427"><ele>368.0</ele><time>2026-05-02T09:10:28Z</time></trkpt><trkpt lat="41.980805734169756" lon="14.378687285756806"><ele>368.0</ele><time>2026-05-02T09:10:29Z</time></trkpt><trkpt lat="41.980612110218914" lon="14.378527688162933"><ele>368.0</ele><time>2026-05-02T09:10:30Z</time></trkpt><trkpt lat="41.98042201825072" lon="14.378353407022486"><ele>368.0</ele><time>2026-05-02T09:10:31Z</time></trkpt><trkpt lat="41.980226099369524" lon="14.378176002483846"><ele>370.5</ele><time>2026-05-02T09:10:32Z</time></trkpt><trkpt lat="41.98002049248451" lon="14.378006768868449"><ele>373.0</ele><time>2026-05-02T09:10:33.021Z</time></trkpt><trkpt lat="41.979811085366144" lon="14.377850183943394"><ele>373.0</ele><time>2026-05-02T09:10:34.012Z</time></trkpt><trkpt lat="41.979595444187055" lon="14.377705798177413"><ele>373.0</ele><time>2026-05-02T09:10:35.015Z</time></trkpt><trkpt lat="41.97936737584877" lon="14.377568748948427"><ele>372.5</ele><time>2026-05-02T09:10:36.021Z</time></trkpt><trkpt lat="41.97913529876089" lon="14.377448320621903"><ele>372.0</ele><time>2026-05-02T09:10:37.022Z</time></trkpt><trkpt lat="41.978887418437154" lon="14.377336122435318"><ele>372.0</ele><time>2026-05-02T09:10:38.023Z</time></trkpt><trkpt lat="41.97879107152628" lon="14.377374899073097"><ele>372.0</ele><time>2026-05-02T09:10:39Z</time></trkpt><trkpt lat="41.978551359146245" lon="14.377331711590049"><ele>372.0</ele><time>2026-05-02T09:10:40Z</time></trkpt><trkpt lat="41.97831165347596" lon="14.377276347987053"><ele>374.0</ele><time>2026-05-02T09:10:41Z</time></trkpt><trkpt lat="41.97807683527869" lon="14.377234172306101"><ele>376.0</ele><time>2026-05-02T09:10:42Z</time></trkpt><trkpt lat="41.97784915706824" lon="14.37721283042133"><ele>367.0</ele><time>2026-05-02T09:10:43Z</time></trkpt><trkpt lat="41.977613223799054" lon="14.37717709139568"><ele>358.0</ele><time>2026-05-02T09:10:44Z</time></trkpt><trkpt lat="41.97738137198039" lon="14.377168803747042"><ele>355.0</ele><time>2026-05-02T09:10:45Z</time></trkpt><trkpt lat="41.97714698088932" lon="14.377154022240905"><ele>352.0</ele><time>2026-05-02T09:10:46Z</time></trkpt><trkpt lat="41.97691508824729" lon="14.377110257273367"><ele>353.0</ele><time>2026-05-02T09:10:47Z</time></trkpt><trkpt lat="41.97668183570581" lon="14.377086172167587"><ele>354.0</ele><time>2026-05-02T09:10:48Z</time></trkpt><trkpt lat="41.976447660123874" lon="14.37708500127537"><ele>354.0</ele><time>2026-05-02T09:10:49Z</time></trkpt><trkpt lat="41.97620892572013" lon="14.377053047512385"><ele>354.0</ele><time>2026-05-02T09:10:50Z</time></trkpt><trkpt lat="41.97597175161362" lon="14.3770226137014"><ele>358.5</ele><time>2026-05-02T09:10:51Z</time></trkpt><trkpt lat="41.975736898950785" lon="14.376992855154393"><ele>363.0</ele><time>2026-05-02T09:10:52Z</time></trkpt><trkpt lat="41.97550238121408" lon="14.37696946463701"><ele>363.0</ele><time>2026-05-02T09:10:53Z</time></trkpt><trkpt lat="41.975263414179814" lon="14.376949614730707"><ele>363.0</ele><time>2026-05-02T09:10:54Z</time></trkpt><trkpt lat="41.975021563468665" lon="14.376938093758373"><ele>362.0</ele><time>2026-05-02T09:10:55Z</time></trkpt><trkpt lat="41.97478593998625" lon="14.376919328568606"><ele>361.0</ele><time>2026-05-02T09:10:56Z</time></trkpt><trkpt lat="41.974550788391554" lon="14.376875283728435"><ele>361.0</ele><time>2026-05-02T09:10:56.999Z</time></trkpt><trkpt lat="41.97431031953079" lon="14.376851263548996"><ele>361.0</ele><time>2026-05-02T09:10:57.999Z</time></trkpt><trkpt lat="41.97407378846446" lon="14.376827636710873"><ele>360.5</ele><time>2026-05-02T09:10:58.999Z</time></trkpt><trkpt lat="41.9738337798249" lon="14.376803300548382"><ele>360.0</ele><time>2026-05-02T09:10:59.999Z</time></trkpt><trkpt lat="41.973593775330734" lon="14.376778751354403"><ele>361.5</ele><time>2026-05-02T09:11:00.999Z</time></trkpt><trkpt lat="41.97335182586191" lon="14.376772027216553"><ele>363.0</ele><time>2026-05-02T09:11:01.999Z</time></trkpt><trkpt lat="41.97310920633964" lon="14.376743282412464"><ele>363.0</ele><time>2026-05-02T09:11:02.999Z</time></trkpt><trkpt lat="41.972867015705965" lon="14.376714470725819"><ele>363.0</ele><time>2026-05-02T09:11:03.999Z</time></trkpt><trkpt lat="41.97262511677809" lon="14.376681659589723"><ele>366.5</ele><time>2026-05-02T09:11:04.999Z</time></trkpt><trkpt lat="41.97238340893827" lon="14.3766494026977"><ele>370.0</ele><time>2026-05-02T09:11:05.999Z</time></trkpt><trkpt lat="41.97214014691301" lon="14.37661087022901"><ele>370.0</ele><time>2026-05-02T09:11:06.999Z</time></trkpt><trkpt lat="41.97190131678311" lon="14.376567484325582"><ele>370.0</ele><time>2026-05-02T09:11:07.999Z</time></trkpt><trkpt lat="41.97166242308654" lon="14.37651886250445"><ele>373.5</ele><time>2026-05-02T09:11:08.999Z</time></trkpt><trkpt lat="41.97142560979748" lon="14.376465314851302"><ele>377.0</ele><time>2026-05-02T09:11:09.999Z</time></trkpt><trkpt lat="41.971192581194074" lon="14.376406092943606"><ele>371.0</ele><time>2026-05-02T09:11:10.999Z</time></trkpt><trkpt lat="41.970948622071944" lon="14.376338496102033"><ele>365.0</ele><time>2026-05-02T09:11:11.999Z</time></trkpt><trkpt lat="41.97070232716421" lon="14.376269658093586"><ele>360.0</ele><time>2026-05-02T09:11:12.999Z</time></trkpt><trkpt lat="41.97045566783384" lon="14.376204365106748"><ele>355.0</ele><time>2026-05-02T09:11:13.999Z</time></trkpt><trkpt lat="41.97021682637378" lon="14.376107427257722"><ele>357.0</ele><time>2026-05-02T09:11:14.999Z</time></trkpt><trkpt lat="41.969974040944976" lon="14.376023956736498"><ele>359.0</ele><time>2026-05-02T09:11:15.999Z</time></trkpt><trkpt lat="41.96973433435134" lon="14.37593784198749"><ele>359.0</ele><time>2026-05-02T09:11:16.999Z</time></trkpt><trkpt lat="41.96949459094027" lon="14.375844965873712"><ele>359.0</ele><time>2026-05-02T09:11:17.999Z</time></trkpt><trkpt lat="41.969254464743095" lon="14.37576135473094"><ele>366.0</ele><time>2026-05-02T09:11:18.999Z</time></trkpt><trkpt lat="41.96903062662788" lon="14.375631113050495"><ele>373.0</ele><time>2026-05-02T09:11:19.999Z</time></trkpt><trkpt lat="41.968797017885095" lon="14.375523098421606"><ele>366.0</ele><time>2026-05-02T09:11:20.999Z</time></trkpt><trkpt lat="41.96857604544604" lon="14.375388163405933"><ele>359.0</ele><time>2026-05-02T09:11:21.999Z</time></trkpt><trkpt lat="41.96836043762649" lon="14.375246280783514"><ele>366.5</ele><time>2026-05-02T09:11:22.999Z</time></trkpt><trkpt lat="41.968146764346095" lon="14.37508865965518"><ele>374.0</ele><time>2026-05-02T09:11:23.999Z</time></trkpt><trkpt lat="41.9679455839069" lon="14.374933121133138"><ele>374.0</ele><time>2026-05-02T09:11:24.999Z</time></trkpt><trkpt lat="41.96774120953129" lon="14.374755827246762"><ele>374.0</ele><time>2026-05-02T09:11:25.999Z</time></trkpt><trkpt lat="41.96753504548807" lon="14.374568204479623"><ele>374.5</ele><time>2026-05-02T09:11:27.019Z</time></trkpt><trkpt lat="41.96733413827846" lon="14.374378767451772"><ele>375.0</ele><time>2026-05-02T09:11:28.018Z</time></trkpt><trkpt lat="41.96713726587204" lon="14.374190270037905"><ele>375.0</ele><time>2026-05-02T09:11:28.999Z</time></trkpt><trkpt lat="41.966937345067976" lon="14.3739807154198"><ele>375.0</ele><time>2026-05-02T09:11:29.999Z</time></trkpt><trkpt lat="41.96673381033228" lon="14.373808229671079"><ele>369.5</ele><time>2026-05-02T09:11:30.999Z</time></trkpt><trkpt lat="41.966533380467055" lon="14.373615119572902"><ele>364.0</ele><time>2026-05-02T09:11:31.999Z</time></trkpt><trkpt lat="41.96633657527666" lon="14.373419622902466"><ele>364.0</ele><time>2026-05-02T09:11:32.999Z</time></trkpt><trkpt lat="41.96614133292471" lon="14.373232391696927"><ele>364.0</ele><time>2026-05-02T09:11:33.999Z</time></trkpt><trkpt lat="41.96594804301452" lon="14.373045823517785"><ele>362.0</ele><time>2026-05-02T09:11:34.999Z</time></trkpt><trkpt lat="41.96575710608016" lon="14.372854056555447"><ele>360.0</ele><time>2026-05-02T09:11:35.999Z</time></trkpt><trkpt lat="41.96556509882533" lon="14.37266366030515"><ele>360.0</ele><time>2026-05-02T09:11:36.999Z</time></trkpt><trkpt lat="41.96537061474468" lon="14.372479146496342"><ele>360.0</ele><time>2026-05-02T09:11:37.999Z</time></trkpt><trkpt lat="41.96517815934371" lon="14.372285448911883"><ele>351.0</ele><time>2026-05-02T09:11:38.999Z</time></trkpt><trkpt lat="41.96498471187436" lon="14.372096624074103"><ele>342.0</ele><time>2026-05-02T09:11:39.999Z</time></trkpt><trkpt lat="41.96478789153275" lon="14.371913298562733"><ele>342.0</ele><time>2026-05-02T09:11:40.999Z</time></trkpt><trkpt lat="41.96459050182048" lon="14.37172572685985"><ele>342.0</ele><time>2026-05-02T09:11:41.999Z</time></trkpt><trkpt lat="41.96439284808416" lon="14.371535747848823"><ele>336.5</ele><time>2026-05-02T09:11:42.999Z</time></trkpt><trkpt lat="41.96419618997135" lon="14.37134018969501"><ele>331.0</ele><time>2026-05-02T09:11:43.999Z</time></trkpt><trkpt lat="41.9639990054252" lon="14.371143553575637"><ele>331.0</ele><time>2026-05-02T09:11:44.999Z</time></trkpt><trkpt lat="41.96378282163122" lon="14.370947001259633"><ele>331.0</ele><time>2026-05-02T09:11:45.999Z</time></trkpt><trkpt lat="41.963551996395836" lon="14.370738365011842"><ele>341.0</ele><time>2026-05-02T09:11:46.999Z</time></trkpt><trkpt lat="41.963313430800376" lon="14.370520105921708"><ele>351.0</ele><time>2026-05-02T09:11:47.999Z</time></trkpt><trkpt lat="41.96308093046621" lon="14.37030250044176"><ele>351.0</ele><time>2026-05-02T09:11:48.999Z</time></trkpt><trkpt lat="41.96285588954729" lon="14.370103645660643"><ele>351.0</ele><time>2026-05-02T09:11:49.999Z</time></trkpt><trkpt lat="41.9626389111166" lon="14.369926942140056"><ele>359.0</ele><time>2026-05-02T09:11:50.999Z</time></trkpt><trkpt lat="41.9624255036958" lon="14.369764248038253"><ele>367.0</ele><time>2026-05-02T09:11:51.999Z</time></trkpt><trkpt lat="41.9622113349243" lon="14.369607657149343"><ele>367.0</ele><time>2026-05-02T09:11:52.999Z</time></trkpt><trkpt lat="41.961997188841906" lon="14.369469517301162"><ele>367.0</ele><time>2026-05-02T09:11:53.999Z</time></trkpt><trkpt lat="41.96178075561745" lon="14.369339599695609"><ele>377.0</ele><time>2026-05-02T09:11:54.999Z</time></trkpt><trkpt lat="41.961560825598816" lon="14.369223296393823"><ele>387.0</ele><time>2026-05-02T09:11:55.999Z</time></trkpt><trkpt lat="41.96133712226662" lon="14.369119853503559"><ele>387.0</ele><time>2026-05-02T09:11:57.018Z</time></trkpt><trkpt lat="41.96111904162398" lon="14.36903455670303"><ele>387.0</ele><time>2026-05-02T09:11:58.019Z</time></trkpt><trkpt lat="41.96091173841461" lon="14.368963551453161"><ele>387.0</ele><time>2026-05-02T09:11:59.02Z</time></trkpt><trkpt lat="41.96070922239405" lon="14.368906802901266"><ele>391.5</ele><time>2026-05-02T09:12:00.021Z</time></trkpt><trkpt lat="41.960517881858074" lon="14.368865139017192"><ele>396.0</ele><time>2026-05-02T09:12:01.015Z</time></trkpt><trkpt lat="41.959853114678054" lon="14.368679459749735"><ele>385.6666666666667</ele><time>2026-05-02T09:12:04.999Z</time></trkpt><trkpt lat="41.95970832899296" lon="14.368667892224554"><ele>375.33333333333337</ele><time>2026-05-02T09:12:05.999Z</time></trkpt><trkpt lat="41.95954869556006" lon="14.368655521055564"><ele>365.0</ele><time>2026-05-02T09:12:06.999Z</time></trkpt><trkpt lat="41.959388133152665" lon="14.368632153758723"><ele>365.0</ele><time>2026-05-02T09:12:07.999Z</time></trkpt><trkpt lat="41.95921943303029" lon="14.368619220423012"><ele>365.0</ele><time>2026-05-02T09:12:08.999Z</time></trkpt><trkpt lat="41.95905022788402" lon="14.368622342513207"><ele>365.0</ele><time>2026-05-02T09:12:09.999Z</time></trkpt><trkpt lat="41.95888039555416" lon="14.368633862186464"><ele>365.0</ele><time>2026-05-02T09:12:10.999Z</time></trkpt><trkpt lat="41.95870736926381" lon="14.368650035980743"><ele>365.0</ele><time>2026-05-02T09:12:11.999Z</time></trkpt><trkpt lat="41.958534017488816" lon="14.368678588823482"><ele>365.0</ele><time>2026-05-02T09:12:12.999Z</time></trkpt><trkpt lat="41.95834891714956" lon="14.36870375558086"><ele>365.0</ele><time>2026-05-02T09:12:13.999Z</time></trkpt><trkpt lat="41.95817509534577" lon="14.368726866696507"><ele>365.0</ele><time>2026-05-02T09:12:14.999Z</time></trkpt><trkpt lat="41.95799486583125" lon="14.36873964804361"><ele>365.0</ele><time>2026-05-02T09:12:15.999Z</time></trkpt><trkpt lat="41.95782842034164" lon="14.368750064222787"><ele>365.0</ele><time>2026-05-02T09:12:16.999Z</time></trkpt><trkpt lat="41.95766220661627" lon="14.368742553294535"><ele>365.0</ele><time>2026-05-02T09:12:17.999Z</time></trkpt><trkpt lat="41.95748964736032" lon="14.368725265177252"><ele>365.0</ele><time>2026-05-02T09:12:18.999Z</time></trkpt><trkpt lat="41.957323543042655" lon="14.3687087504498"><ele>362.6666666666667</ele><time>2026-05-02T09:12:19.999Z</time></trkpt><trkpt lat="41.957156804063885" lon="14.368681968916485"><ele>360.3333333333333</ele><time>2026-05-02T09:12:20.999Z</time></trkpt><trkpt lat="41.95698936937263" lon="14.368647799052024"><ele>358.0</ele><time>2026-05-02T09:12:21.999Z</time></trkpt><trkpt lat="41.95682394653518" lon="14.36860863481393"><ele>357.66666666666663</ele><time>2026-05-02T09:12:22.999Z</time></trkpt><trkpt lat="41.956659725068405" lon="14.368562641393291"><ele>357.3333333333333</ele><time>2026-05-02T09:12:23.999Z</time></trkpt><trkpt lat="41.956506235472006" lon="14.368506210640184"><ele>357.0</ele><time>2026-05-02T09:12:24.999Z</time></trkpt><trkpt lat="41.956351682051874" lon="14.368433783452838"><ele>357.0</ele><time>2026-05-02T09:12:25.999Z</time></trkpt><trkpt lat="41.95618212756439" lon="14.368362582854612"><ele>357.0</ele><time>2026-05-02T09:12:26.999Z</time></trkpt><trkpt lat="41.95601914797145" lon="14.368279190930826"><ele>357.0</ele><time>2026-05-02T09:12:27.999Z</time></trkpt><trkpt lat="41.95587095467717" lon="14.368190392129549"><ele>358.0</ele><time>2026-05-02T09:12:28.999Z</time></trkpt><trkpt lat="41.95574544546123" lon="14.368113375521457"><ele>359.0</ele><time>2026-05-02T09:12:29.999Z</time></trkpt><trkpt lat="41.955637830601226" lon="14.368050973591798"><ele>360.0</ele><time>2026-05-02T09:12:30.999Z</time></trkpt><trkpt lat="41.95555810767421" lon="14.367999950053926"><ele>361.0</ele><time>2026-05-02T09:12:31.999Z</time></trkpt><trkpt lat="41.95549014011839" lon="14.367960010111279"><ele>362.0</ele><time>2026-05-02T09:12:32.999Z</time></trkpt><trkpt lat="41.95544486500117" lon="14.367885517433024"><ele>362.0</ele><time>2026-05-02T09:12:33.999Z</time></trkpt><trkpt lat="41.95538584316153" lon="14.367836845345085"><ele>362.0</ele><time>2026-05-02T09:12:34.999Z</time></trkpt><trkpt lat="41.955322715685455" lon="14.36778321339348"><ele>362.0</ele><time>2026-05-02T09:12:35.999Z</time></trkpt><trkpt lat="41.95526051239057" lon="14.36772982213661"><ele>362.0</ele><time>2026-05-02T09:12:36.999Z</time></trkpt><trkpt lat="41.95518512633431" lon="14.367662747717466"><ele>362.0</ele><time>2026-05-02T09:12:37.999Z</time></trkpt><trkpt lat="41.9551050970598" lon="14.367590091610635"><ele>362.0</ele><time>2026-05-02T09:12:38.999Z</time></trkpt><trkpt lat="41.955022393178275" lon="14.367511603540567"><ele>362.0</ele><time>2026-05-02T09:12:39.999Z</time></trkpt><trkpt lat="41.954939476842995" lon="14.367443847061194"><ele>362.0</ele><time>2026-05-02T09:12:41Z</time></trkpt><trkpt lat="41.954880214375095" lon="14.367359208890454"><ele>362.0</ele><time>2026-05-02T09:12:42Z</time></trkpt><trkpt lat="41.95481838343711" lon="14.367299887218731"><ele>362.0</ele><time>2026-05-02T09:12:43Z</time></trkpt><trkpt lat="41.95476137457914" lon="14.367238796915364"><ele>362.0</ele><time>2026-05-02T09:12:44Z</time></trkpt><trkpt lat="41.954713648238204" lon="14.36718082209112"><ele>362.0</ele><time>2026-05-02T09:12:45Z</time></trkpt><trkpt lat="41.95462415349803" lon="14.367095285041911"><ele>363.0</ele><time>2026-05-02T09:12:47Z</time></trkpt><trkpt lat="41.95455389169937" lon="14.367018381471192"><ele>364.0</ele><time>2026-05-02T09:12:49Z</time></trkpt><trkpt lat="41.95450907926535" lon="14.366926920840122"><ele>365.0</ele><time>2026-05-02T09:12:52Z</time></trkpt><trkpt lat="41.9544110697055" lon="14.366856278034378"><ele>366.0</ele><time>2026-05-02T09:13:15Z</time></trkpt><trkpt lat="41.954285835315076" lon="14.366722740354211"><ele>367.0</ele><time>2026-05-02T09:13:16Z</time></trkpt><trkpt lat="41.95413512879913" lon="14.366582495866963"><ele>367.0</ele><time>2026-05-02T09:13:17Z</time></trkpt><trkpt lat="41.95396923477478" lon="14.366397192763088"><ele>367.0</ele><time>2026-05-02T09:13:18Z</time></trkpt><trkpt lat="41.95380585841518" lon="14.366196769191498"><ele>367.0</ele><time>2026-05-02T09:13:19Z</time></trkpt><trkpt lat="41.953630575137595" lon="14.366011197908866"><ele>368.5</ele><time>2026-05-02T09:13:20Z</time></trkpt><trkpt lat="41.95346569325356" lon="14.365825828148722"><ele>370.0</ele><time>2026-05-02T09:13:21Z</time></trkpt><trkpt lat="41.95328106863628" lon="14.365617195621716"><ele>361.0</ele><time>2026-05-02T09:13:22Z</time></trkpt><trkpt lat="41.95307906592206" lon="14.365406951713627"><ele>352.0</ele><time>2026-05-02T09:13:23Z</time></trkpt><trkpt lat="41.95290781866194" lon="14.365190535903885"><ele>352.0</ele><time>2026-05-02T09:13:24Z</time></trkpt><trkpt lat="41.95274111581694" lon="14.364951981068646"><ele>352.0</ele><time>2026-05-02T09:13:25Z</time></trkpt><trkpt lat="41.95258977881372" lon="14.364710923872192"><ele>347.5</ele><time>2026-05-02T09:13:26Z</time></trkpt><trkpt lat="41.95244822128799" lon="14.364467505878851"><ele>343.0</ele><time>2026-05-02T09:13:27Z</time></trkpt><trkpt lat="41.952309962126726" lon="14.364227849833162"><ele>343.0</ele><time>2026-05-02T09:13:28Z</time></trkpt><trkpt lat="41.95218298636548" lon="14.36397939834684"><ele>343.0</ele><time>2026-05-02T09:13:29Z</time></trkpt><trkpt lat="41.952069590211025" lon="14.363709219973911"><ele>338.3333333333333</ele><time>2026-05-02T09:13:30Z</time></trkpt><trkpt lat="41.951960272612034" lon="14.363449053061379"><ele>333.6666666666667</ele><time>2026-05-02T09:13:31Z</time></trkpt><trkpt lat="41.95185095517165" lon="14.363194688432438"><ele>329.0</ele><time>2026-05-02T09:13:32Z</time></trkpt><trkpt lat="41.951738612205055" lon="14.362917102459717"><ele>328.0</ele><time>2026-05-02T09:13:33Z</time></trkpt><trkpt lat="41.951632949478515" lon="14.362644362494843"><ele>327.0</ele><time>2026-05-02T09:13:34Z</time></trkpt><trkpt lat="41.951529471338354" lon="14.362369583864048"><ele>322.0</ele><time>2026-05-02T09:13:35Z</time></trkpt><trkpt lat="41.951418732680885" lon="14.362102268977841"><ele>317.0</ele><time>2026-05-02T09:13:36Z</time></trkpt><trkpt lat="41.951324846286205" lon="14.36182482987464"><ele>317.0</ele><time>2026-05-02T09:13:37Z</time></trkpt><trkpt lat="41.95121730349132" lon="14.361549397470442"><ele>317.0</ele><time>2026-05-02T09:13:38Z</time></trkpt><trkpt lat="41.951094498038906" lon="14.36127966257693"><ele>312.5</ele><time>2026-05-02T09:13:39Z</time></trkpt><trkpt lat="41.951002198693956" lon="14.36099587505769"><ele>308.0</ele><time>2026-05-02T09:13:40Z</time></trkpt><trkpt lat="41.950894508664426" lon="14.36071843856012"><ele>309.0</ele><time>2026-05-02T09:13:41Z</time></trkpt><trkpt lat="41.95078850637289" lon="14.360443939078747"><ele>310.0</ele><time>2026-05-02T09:13:42Z</time></trkpt><trkpt lat="41.95068215772256" lon="14.360168542781826"><ele>310.0</ele><time>2026-05-02T09:13:43Z</time></trkpt><trkpt lat="41.950576186017955" lon="14.359894122578721"><ele>310.0</ele><time>2026-05-02T09:13:44Z</time></trkpt><trkpt lat="41.95046863960524" lon="14.359620036578663"><ele>302.5</ele><time>2026-05-02T09:13:45Z</time></trkpt><trkpt lat="41.95035977664595" lon="14.35934411409627"><ele>295.0</ele><time>2026-05-02T09:13:46Z</time></trkpt><trkpt lat="41.95025093779622" lon="14.35906955294131"><ele>292.5</ele><time>2026-05-02T09:13:47Z</time></trkpt><trkpt lat="41.95014097112353" lon="14.358794886704054"><ele>290.0</ele><time>2026-05-02T09:13:48Z</time></trkpt><trkpt lat="41.95001728562726" lon="14.358531103187612"><ele>290.0</ele><time>2026-05-02T09:13:49Z</time></trkpt><trkpt lat="41.94990396950064" lon="14.358257133562491"><ele>290.0</ele><time>2026-05-02T09:13:50Z</time></trkpt><trkpt lat="41.94978994422334" lon="14.35798608216115"><ele>285.0</ele><time>2026-05-02T09:13:51Z</time></trkpt><trkpt lat="41.9496875833154" lon="14.357701347761004"><ele>280.0</ele><time>2026-05-02T09:13:52Z</time></trkpt><trkpt lat="41.94957011511633" lon="14.357426612067032"><ele>278.0</ele><time>2026-05-02T09:13:53Z</time></trkpt><trkpt lat="41.94944941886461" lon="14.357154804491655"><ele>276.0</ele><time>2026-05-02T09:13:54Z</time></trkpt><trkpt lat="41.94932894681908" lon="14.35688647211929"><ele>275.5</ele><time>2026-05-02T09:13:55Z</time></trkpt><trkpt lat="41.949207571650796" lon="14.356619588771878"><ele>275.0</ele><time>2026-05-02T09:13:56Z</time></trkpt><trkpt lat="41.94906879887109" lon="14.356367062638352"><ele>275.0</ele><time>2026-05-02T09:13:57Z</time></trkpt><trkpt lat="41.94894174228234" lon="14.356104040242593"><ele>275.0</ele><time>2026-05-02T09:13:58Z</time></trkpt><trkpt lat="41.948811407508686" lon="14.355849968864103"><ele>275.0</ele><time>2026-05-02T09:13:59Z</time></trkpt><trkpt lat="41.94868037638294" lon="14.355591328843607"><ele>275.0</ele><time>2026-05-02T09:14:00Z</time></trkpt><trkpt lat="41.94854751620264" lon="14.355338756069141"><ele>273.5</ele><time>2026-05-02T09:14:01Z</time></trkpt><trkpt lat="41.9484171074068" lon="14.355080495247158"><ele>272.0</ele><time>2026-05-02T09:14:02Z</time></trkpt><trkpt lat="41.94828144029843" lon="14.354830805972513"><ele>274.5</ele><time>2026-05-02T09:14:03Z</time></trkpt><trkpt lat="41.948140055951335" lon="14.354587778769497"><ele>277.0</ele><time>2026-05-02T09:14:04Z</time></trkpt><trkpt lat="41.94799948132369" lon="14.354346015945318"><ele>277.0</ele><time>2026-05-02T09:14:05Z</time></trkpt><trkpt lat="41.947854453664895" lon="14.354113887620688"><ele>277.0</ele><time>2026-05-02T09:14:06Z</time></trkpt><trkpt lat="41.94770925251675" lon="14.3538778211118"><ele>276.5</ele><time>2026-05-02T09:14:07Z</time></trkpt><trkpt lat="41.94756268181539" lon="14.353639120335524"><ele>276.0</ele><time>2026-05-02T09:14:08Z</time></trkpt><trkpt lat="41.94741217611876" lon="14.353402099189948"><ele>277.5</ele><time>2026-05-02T09:14:09Z</time></trkpt><trkpt lat="41.94725404600293" lon="14.353170116510041"><ele>279.0</ele><time>2026-05-02T09:14:10Z</time></trkpt><trkpt lat="41.94709240378417" lon="14.352941044403249"><ele>279.0</ele><time>2026-05-02T09:14:11Z</time></trkpt><trkpt lat="41.94692964967225" lon="14.352710590275054"><ele>279.0</ele><time>2026-05-02T09:14:12Z</time></trkpt><trkpt lat="41.94676641481624" lon="14.3524790328836"><ele>284.0</ele><time>2026-05-02T09:14:13Z</time></trkpt><trkpt lat="41.94659871222252" lon="14.35225469920702"><ele>289.0</ele><time>2026-05-02T09:14:14Z</time></trkpt><trkpt lat="41.946432179375165" lon="14.352032989198197"><ele>289.0</ele><time>2026-05-02T09:14:15Z</time></trkpt><trkpt lat="41.94626263778457" lon="14.351811099042028"><ele>289.0</ele><time>2026-05-02T09:14:16Z</time></trkpt><trkpt lat="41.9460911613133" lon="14.351593671750397"><ele>289.0</ele><time>2026-05-02T09:14:17Z</time></trkpt><trkpt lat="41.945918180205545" lon="14.351382991899696"><ele>289.0</ele><time>2026-05-02T09:14:18Z</time></trkpt><trkpt lat="41.94574617735095" lon="14.351170970567532"><ele>295.0</ele><time>2026-05-02T09:14:19Z</time></trkpt><trkpt lat="41.94557151409157" lon="14.350957756385778"><ele>301.0</ele><time>2026-05-02T09:14:20Z</time></trkpt><trkpt lat="41.94539923062098" lon="14.350736632823603"><ele>297.5</ele><time>2026-05-02T09:14:21Z</time></trkpt><trkpt lat="41.94522384795735" lon="14.350528858225232"><ele>294.0</ele><time>2026-05-02T09:14:22Z</time></trkpt><trkpt lat="41.9450468545683" lon="14.350320396026474"><ele>304.0</ele><time>2026-05-02T09:14:23Z</time></trkpt><trkpt lat="41.944869740954616" lon="14.350115156503144"><ele>314.0</ele><time>2026-05-02T09:14:24Z</time></trkpt><trkpt lat="41.94469112272909" lon="14.349905376369971"><ele>310.5</ele><time>2026-05-02T09:14:25Z</time></trkpt><trkpt lat="41.944510652181435" lon="14.349705424854434"><ele>307.0</ele><time>2026-05-02T09:14:26Z</time></trkpt><trkpt lat="41.9443297712491" lon="14.349502963681658"><ele>320.5</ele><time>2026-05-02T09:14:27Z</time></trkpt><trkpt lat="41.944149159679206" lon="14.349296728809847"><ele>334.0</ele><time>2026-05-02T09:14:28Z</time></trkpt><trkpt lat="41.94396572376635" lon="14.349091196908157"><ele>334.0</ele><time>2026-05-02T09:14:29Z</time></trkpt><trkpt lat="41.94378109764494" lon="14.34888551888862"><ele>334.0</ele><time>2026-05-02T09:14:30Z</time></trkpt><trkpt lat="41.9435974570768" lon="14.348677083382622"><ele>333.5</ele><time>2026-05-02T09:14:31Z</time></trkpt><trkpt lat="41.94341240357774" lon="14.34846964655079"><ele>333.0</ele><time>2026-05-02T09:14:32Z</time></trkpt><trkpt lat="41.94322726184927" lon="14.348264519547785"><ele>333.0</ele><time>2026-05-02T09:14:33Z</time></trkpt><trkpt lat="41.943040906293916" lon="14.348058673948405"><ele>333.0</ele><time>2026-05-02T09:14:34Z</time></trkpt><trkpt lat="41.942853575657196" lon="14.347850691442082"><ele>337.5</ele><time>2026-05-02T09:14:35Z</time></trkpt><trkpt lat="41.94266597597725" lon="14.347635661910433"><ele>342.0</ele><time>2026-05-02T09:14:36Z</time></trkpt><trkpt lat="41.94247733329411" lon="14.347427842644239"><ele>346.5</ele><time>2026-05-02T09:14:37Z</time></trkpt><trkpt lat="41.942291492410575" lon="14.347212442924155"><ele>351.0</ele><time>2026-05-02T09:14:38Z</time></trkpt><trkpt lat="41.94210789769205" lon="14.346994675333171"><ele>351.0</ele><time>2026-05-02T09:14:39Z</time></trkpt><trkpt lat="41.94192484524018" lon="14.346769027839546"><ele>351.0</ele><time>2026-05-02T09:14:40Z</time></trkpt><trkpt lat="41.941732987033376" lon="14.346558050175648"><ele>362.5</ele><time>2026-05-02T09:14:41Z</time></trkpt><trkpt lat="41.941541845430606" lon="14.346339653629304"><ele>374.0</ele><time>2026-05-02T09:14:42Z</time></trkpt><trkpt lat="41.941350948442846" lon="14.346124171543318"><ele>374.0</ele><time>2026-05-02T09:14:43Z</time></trkpt><trkpt lat="41.941161252374066" lon="14.345909349868144"><ele>374.0</ele><time>2026-05-02T09:14:44Z</time></trkpt><trkpt lat="41.94097097180113" lon="14.345696989162876"><ele>381.5</ele><time>2026-05-02T09:14:45Z</time></trkpt><trkpt lat="41.940782808826384" lon="14.345473871954386"><ele>389.0</ele><time>2026-05-02T09:14:46Z</time></trkpt><trkpt lat="41.940591938027204" lon="14.345261229588083"><ele>389.0</ele><time>2026-05-02T09:14:47Z</time></trkpt><trkpt lat="41.94040120563858" lon="14.345043336933958"><ele>389.0</ele><time>2026-05-02T09:14:48Z</time></trkpt><trkpt lat="41.94021106992412" lon="14.344827143587647"><ele>395.5</ele><time>2026-05-02T09:14:49Z</time></trkpt><trkpt lat="41.94002221752343" lon="14.344608404568808"><ele>402.0</ele><time>2026-05-02T09:14:50Z</time></trkpt><trkpt lat="41.93983311801937" lon="14.344395091028847"><ele>402.0</ele><time>2026-05-02T09:14:51Z</time></trkpt><trkpt lat="41.939644210206396" lon="14.344176407875478"><ele>402.0</ele><time>2026-05-02T09:14:52Z</time></trkpt><trkpt lat="41.93945638680899" lon="14.343957379801262"><ele>402.5</ele><time>2026-05-02T09:14:53Z</time></trkpt><trkpt lat="41.93926929210189" lon="14.343741047253248"><ele>403.0</ele><time>2026-05-02T09:14:54Z</time></trkpt><trkpt lat="41.939081756950294" lon="14.343529948830959"><ele>406.5</ele><time>2026-05-02T09:14:55Z</time></trkpt><trkpt lat="41.93889711583294" lon="14.343314359389806"><ele>410.0</ele><time>2026-05-02T09:14:56Z</time></trkpt><trkpt lat="41.93871800791118" lon="14.343092255878561"><ele>410.0</ele><time>2026-05-02T09:14:57Z</time></trkpt><trkpt lat="41.93853648372824" lon="14.342874829914802"><ele>410.0</ele><time>2026-05-02T09:14:58Z</time></trkpt><trkpt lat="41.93835689683891" lon="14.342651128341695"><ele>413.5</ele><time>2026-05-02T09:14:59Z</time></trkpt><trkpt lat="41.938175108987856" lon="14.34244054110929"><ele>417.0</ele><time>2026-05-02T09:15:00Z</time></trkpt><trkpt lat="41.937991756216555" lon="14.342222391857126"><ele>414.5</ele><time>2026-05-02T09:15:01Z</time></trkpt><trkpt lat="41.93781092951711" lon="14.34200564025268"><ele>412.0</ele><time>2026-05-02T09:15:02Z</time></trkpt><trkpt lat="41.937628247542" lon="14.341784692876164"><ele>411.0</ele><time>2026-05-02T09:15:03Z</time></trkpt><trkpt lat="41.93744586687771" lon="14.341567604479428"><ele>410.0</ele><time>2026-05-02T09:15:04Z</time></trkpt><trkpt lat="41.937265978528316" lon="14.341342503540398"><ele>410.0</ele><time>2026-05-02T09:15:05Z</time></trkpt><trkpt lat="41.93708903717947" lon="14.341117213032055"><ele>410.0</ele><time>2026-05-02T09:15:06Z</time></trkpt><trkpt lat="41.936910107910315" lon="14.34089392919008"><ele>410.0</ele><time>2026-05-02T09:15:07Z</time></trkpt><trkpt lat="41.93673229100228" lon="14.340673288715182"><ele>410.0</ele><time>2026-05-02T09:15:08Z</time></trkpt><trkpt lat="41.93655799397533" lon="14.340450115088721"><ele>410.5</ele><time>2026-05-02T09:15:09Z</time></trkpt><trkpt lat="41.93638418747013" lon="14.340224595743992"><ele>411.0</ele><time>2026-05-02T09:15:10Z</time></trkpt><trkpt lat="41.93621201385024" lon="14.339993858435646"><ele>411.0</ele><time>2026-05-02T09:15:11Z</time></trkpt><trkpt lat="41.93603710189156" lon="14.339770187023277"><ele>411.0</ele><time>2026-05-02T09:15:12Z</time></trkpt><trkpt lat="41.93587083723609" lon="14.339532696009902"><ele>415.5</ele><time>2026-05-02T09:15:13Z</time></trkpt><trkpt lat="41.93569529264975" lon="14.339308277845761"><ele>420.0</ele><time>2026-05-02T09:15:14Z</time></trkpt><trkpt lat="41.93551583596966" lon="14.339088240177878"><ele>416.0</ele><time>2026-05-02T09:15:15Z</time></trkpt><trkpt lat="41.935337995461026" lon="14.338868085785744"><ele>412.0</ele><time>2026-05-02T09:15:16Z</time></trkpt><trkpt lat="41.93515607028281" lon="14.338669922587567"><ele>418.5</ele><time>2026-05-02T09:15:17Z</time></trkpt><trkpt lat="41.93497213044816" lon="14.338472375853465"><ele>425.0</ele><time>2026-05-02T09:15:18Z</time></trkpt><trkpt lat="41.93479130202095" lon="14.338267946987068"><ele>425.0</ele><time>2026-05-02T09:15:19Z</time></trkpt><trkpt lat="41.93460377967524" lon="14.338076709021621"><ele>425.0</ele><time>2026-05-02T09:15:20Z</time></trkpt><trkpt lat="41.934421182177985" lon="14.337871533901607"><ele>423.0</ele><time>2026-05-02T09:15:21Z</time></trkpt><trkpt lat="41.93423196929505" lon="14.337690418317381"><ele>421.0</ele><time>2026-05-02T09:15:22Z</time></trkpt><trkpt lat="41.93404602133716" lon="14.337498772432395"><ele>423.5</ele><time>2026-05-02T09:15:23Z</time></trkpt><trkpt lat="41.93385838166666" lon="14.337314074555664"><ele>426.0</ele><time>2026-05-02T09:15:24Z</time></trkpt><trkpt lat="41.933671642233115" lon="14.337124678051588"><ele>426.0</ele><time>2026-05-02T09:15:25Z</time></trkpt><trkpt lat="41.933481695946625" lon="14.336937145681423"><ele>426.0</ele><time>2026-05-02T09:15:26Z</time></trkpt><trkpt lat="41.93330077446017" lon="14.336746465238658"><ele>428.0</ele><time>2026-05-02T09:15:27Z</time></trkpt><trkpt lat="41.933120705530975" lon="14.336545749417606"><ele>430.0</ele><time>2026-05-02T09:15:28Z</time></trkpt><trkpt lat="41.932942448197444" lon="14.336340203019988"><ele>425.5</ele><time>2026-05-02T09:15:29Z</time></trkpt><trkpt lat="41.932772593372434" lon="14.336125248460911"><ele>421.0</ele><time>2026-05-02T09:15:30Z</time></trkpt><trkpt lat="41.93260510427513" lon="14.3359101770911"><ele>423.0</ele><time>2026-05-02T09:15:31Z</time></trkpt><trkpt lat="41.9324433061785" lon="14.335693348149919"><ele>425.0</ele><time>2026-05-02T09:15:32Z</time></trkpt><trkpt lat="41.93228781747502" lon="14.335464601131497"><ele>425.0</ele><time>2026-05-02T09:15:33Z</time></trkpt><trkpt lat="41.93213728237652" lon="14.335229735549387"><ele>425.0</ele><time>2026-05-02T09:15:34Z</time></trkpt><trkpt lat="41.931995527366645" lon="14.33497078126753"><ele>425.0</ele><time>2026-05-02T09:15:35Z</time></trkpt><trkpt lat="41.931868185131854" lon="14.33472517292284"><ele>425.0</ele><time>2026-05-02T09:15:36Z</time></trkpt><trkpt lat="41.93175250399806" lon="14.334453725972027"><ele>433.0</ele><time>2026-05-02T09:15:37Z</time></trkpt><trkpt lat="41.931641562235285" lon="14.334176201622117"><ele>441.0</ele><time>2026-05-02T09:15:38Z</time></trkpt><trkpt lat="41.93153723057343" lon="14.333901837492427"><ele>445.0</ele><time>2026-05-02T09:15:39Z</time></trkpt><trkpt lat="41.93144206705605" lon="14.333624167485953"><ele>449.0</ele><time>2026-05-02T09:15:40Z</time></trkpt><trkpt lat="41.931356445636574" lon="14.333338664113935"><ele>448.5</ele><time>2026-05-02T09:15:41Z</time></trkpt><trkpt lat="41.931279785815526" lon="14.333046652951664"><ele>448.0</ele><time>2026-05-02T09:15:42Z</time></trkpt><trkpt lat="41.93121730570288" lon="14.332748353630214"><ele>448.0</ele><time>2026-05-02T09:15:43Z</time></trkpt><trkpt lat="41.93116299314182" lon="14.332453472546058"><ele>448.0</ele><time>2026-05-02T09:15:44Z</time></trkpt><trkpt lat="41.9311202983529" lon="14.332150584217711"><ele>447.0</ele><time>2026-05-02T09:15:45Z</time></trkpt><trkpt lat="41.931082145997124" lon="14.331857420545123"><ele>446.0</ele><time>2026-05-02T09:15:46Z</time></trkpt><trkpt lat="41.93104972500289" lon="14.331549243676799"><ele>443.66666666666663</ele><time>2026-05-02T09:15:47Z</time></trkpt><trkpt lat="41.931029410303914" lon="14.33124492344567"><ele>441.33333333333337</ele><time>2026-05-02T09:15:48Z</time></trkpt><trkpt lat="41.93101570513747" lon="14.330947883162656"><ele>439.0</ele><time>2026-05-02T09:15:49Z</time></trkpt><trkpt lat="41.93101065417266" lon="14.330647691006362"><ele>437.6666666666667</ele><time>2026-05-02T09:15:50Z</time></trkpt><trkpt lat="41.93101724346237" lon="14.330346526003014"><ele>436.33333333333337</ele><time>2026-05-02T09:15:51Z</time></trkpt><trkpt lat="41.93103360340733" lon="14.330045086069164"><ele>435.0</ele><time>2026-05-02T09:15:52Z</time></trkpt><trkpt lat="41.931054858245474" lon="14.329749522251635"><ele>432.0</ele><time>2026-05-02T09:15:53Z</time></trkpt><trkpt lat="41.931082619039096" lon="14.3294532875224"><ele>429.0</ele><time>2026-05-02T09:15:54Z</time></trkpt><trkpt lat="41.93110964240963" lon="14.329151432758783"><ele>426.0</ele><time>2026-05-02T09:15:55Z</time></trkpt><trkpt lat="41.93113561258162" lon="14.328853225830587"><ele>417.0</ele><time>2026-05-02T09:15:56Z</time></trkpt><trkpt lat="41.931164591329306" lon="14.328549932288192"><ele>408.0</ele><time>2026-05-02T09:15:57Z</time></trkpt><trkpt lat="41.93120067874845" lon="14.328246825962031"><ele>407.0</ele><time>2026-05-02T09:15:58Z</time></trkpt><trkpt lat="41.931230214602536" lon="14.327945408152214"><ele>406.0</ele><time>2026-05-02T09:15:59Z</time></trkpt><trkpt lat="41.93126401255738" lon="14.327641308612533"><ele>406.0</ele><time>2026-05-02T09:16:00Z</time></trkpt><trkpt lat="41.9312977068861" lon="14.327340222247702"><ele>406.0</ele><time>2026-05-02T09:16:01Z</time></trkpt><trkpt lat="41.931327191100124" lon="14.327038343462421"><ele>413.0</ele><time>2026-05-02T09:16:02Z</time></trkpt><trkpt lat="41.93135566222395" lon="14.32673242298392"><ele>420.0</ele><time>2026-05-02T09:16:03Z</time></trkpt><trkpt lat="41.93138822173571" lon="14.32642659517193"><ele>425.0</ele><time>2026-05-02T09:16:04Z</time></trkpt><trkpt lat="41.93142204574964" lon="14.326121793777439"><ele>430.0</ele><time>2026-05-02T09:16:05Z</time></trkpt><trkpt lat="41.93145377635552" lon="14.325818103130318"><ele>434.0</ele><time>2026-05-02T09:16:06Z</time></trkpt><trkpt lat="41.931486228817505" lon="14.32551580820091"><ele>438.0</ele><time>2026-05-02T09:16:07Z</time></trkpt><trkpt lat="41.93151733322248" lon="14.325212718259598"><ele>438.0</ele><time>2026-05-02T09:16:08Z</time></trkpt><trkpt lat="41.931546438458106" lon="14.324911063340375"><ele>438.0</ele><time>2026-05-02T09:16:09Z</time></trkpt><trkpt lat="41.93157327227093" lon="14.324609671354382"><ele>445.0</ele><time>2026-05-02T09:16:10Z</time></trkpt><trkpt lat="41.931598861279255" lon="14.32430848177567"><ele>452.0</ele><time>2026-05-02T09:16:11Z</time></trkpt><trkpt lat="41.931623419329696" lon="14.32400691204727"><ele>456.5</ele><time>2026-05-02T09:16:12Z</time></trkpt><trkpt lat="41.93164862760281" lon="14.323702458054141"><ele>461.0</ele><time>2026-05-02T09:16:13Z</time></trkpt><trkpt lat="41.93168574550315" lon="14.32340258447548"><ele>461.0</ele><time>2026-05-02T09:16:14Z</time></trkpt><trkpt lat="41.93170792413442" lon="14.323100880507381"><ele>461.0</ele><time>2026-05-02T09:16:15Z</time></trkpt><trkpt lat="41.931729287433534" lon="14.322798733649961"><ele>461.0</ele><time>2026-05-02T09:16:16Z</time></trkpt><trkpt lat="41.9317478266626" lon="14.322494605931578"><ele>461.0</ele><time>2026-05-02T09:16:17Z</time></trkpt><trkpt lat="41.93176522485765" lon="14.322187657582365"><ele>463.0</ele><time>2026-05-02T09:16:18Z</time></trkpt><trkpt lat="41.93178108296711" lon="14.321880400146265"><ele>465.0</ele><time>2026-05-02T09:16:19Z</time></trkpt><trkpt lat="41.931795458097845" lon="14.321575972785007"><ele>465.5</ele><time>2026-05-02T09:16:20Z</time></trkpt><trkpt lat="41.931808556086466" lon="14.321269444617586"><ele>466.0</ele><time>2026-05-02T09:16:21Z</time></trkpt><trkpt lat="41.93182015088805" lon="14.320965817217912"><ele>466.0</ele><time>2026-05-02T09:16:22Z</time></trkpt><trkpt lat="41.93181603855419" lon="14.320657129385838"><ele>466.0</ele><time>2026-05-02T09:16:23Z</time></trkpt><trkpt lat="41.93182822447799" lon="14.320348621737127"><ele>468.0</ele><time>2026-05-02T09:16:24Z</time></trkpt><trkpt lat="41.93185608400619" lon="14.320042841848196"><ele>470.0</ele><time>2026-05-02T09:16:25Z</time></trkpt><trkpt lat="41.93186693831565" lon="14.31973244456879"><ele>473.0</ele><time>2026-05-02T09:16:26Z</time></trkpt><trkpt lat="41.93187641523044" lon="14.319421059210994"><ele>476.0</ele><time>2026-05-02T09:16:27Z</time></trkpt><trkpt lat="41.931868890754195" lon="14.319108544538627"><ele>478.5</ele><time>2026-05-02T09:16:28Z</time></trkpt><trkpt lat="41.93188148092429" lon="14.318796892436954"><ele>481.0</ele><time>2026-05-02T09:16:29Z</time></trkpt><trkpt lat="41.93189124068826" lon="14.318483324320642"><ele>481.0</ele><time>2026-05-02T09:16:30Z</time></trkpt><trkpt lat="41.93190300010014" lon="14.318168850910627"><ele>481.0</ele><time>2026-05-02T09:16:31Z</time></trkpt><trkpt lat="41.931913276684504" lon="14.317857986264446"><ele>484.0</ele><time>2026-05-02T09:16:32Z</time></trkpt><trkpt lat="41.931921866308464" lon="14.317547323760401"><ele>487.0</ele><time>2026-05-02T09:16:33Z</time></trkpt><trkpt lat="41.931928822935355" lon="14.317237639258135"><ele>491.5</ele><time>2026-05-02T09:16:34Z</time></trkpt><trkpt lat="41.93193587608177" lon="14.316926447946045"><ele>496.0</ele><time>2026-05-02T09:16:35Z</time></trkpt><trkpt lat="41.93194734015222" lon="14.316612246564173"><ele>497.5</ele><time>2026-05-02T09:16:36Z</time></trkpt><trkpt lat="41.931959436392994" lon="14.316299067409398"><ele>499.0</ele><time>2026-05-02T09:16:37Z</time></trkpt><trkpt lat="41.931974159121665" lon="14.315985714316248"><ele>499.0</ele><time>2026-05-02T09:16:38Z</time></trkpt><trkpt lat="41.93198610633342" lon="14.315669632895574"><ele>499.0</ele><time>2026-05-02T09:16:39Z</time></trkpt><trkpt lat="41.93199707037146" lon="14.315356696684658"><ele>500.0</ele><time>2026-05-02T09:16:40Z</time></trkpt><trkpt lat="41.932007268034624" lon="14.315041738673331"><ele>501.0</ele><time>2026-05-02T09:16:41Z</time></trkpt><trkpt lat="41.932024058388784" lon="14.314729954828369"><ele>503.0</ele><time>2026-05-02T09:16:42Z</time></trkpt><trkpt lat="41.93204933232949" lon="14.314414796011192"><ele>505.0</ele><time>2026-05-02T09:16:43Z</time></trkpt><trkpt lat="41.93206941331017" lon="14.31410361394674"><ele>506.0</ele><time>2026-05-02T09:16:44Z</time></trkpt><trkpt lat="41.932101346553765" lon="14.313788596837759"><ele>507.0</ele><time>2026-05-02T09:16:45Z</time></trkpt><trkpt lat="41.932139320975864" lon="14.313480394342585"><ele>507.0</ele><time>2026-05-02T09:16:46Z</time></trkpt><trkpt lat="41.93218864446436" lon="14.313176452622741"><ele>507.0</ele><time>2026-05-02T09:16:47Z</time></trkpt><trkpt lat="41.932245154213405" lon="14.312872502335907"><ele>509.0</ele><time>2026-05-02T09:16:48Z</time></trkpt><trkpt lat="41.93230845713594" lon="14.31257389173638"><ele>511.0</ele><time>2026-05-02T09:16:49Z</time></trkpt><trkpt lat="41.932375380352056" lon="14.312272456608369"><ele>511.5</ele><time>2026-05-02T09:16:50Z</time></trkpt><trkpt lat="41.9324483398221" lon="14.311979079670325"><ele>512.0</ele><time>2026-05-02T09:16:51Z</time></trkpt><trkpt lat="41.932528234939085" lon="14.311690400979707"><ele>514.5</ele><time>2026-05-02T09:16:52Z</time></trkpt><trkpt lat="41.932613955262795" lon="14.311406105609471"><ele>517.0</ele><time>2026-05-02T09:16:53Z</time></trkpt><trkpt lat="41.9327060552732" lon="14.31112456349803"><ele>517.0</ele><time>2026-05-02T09:16:54Z</time></trkpt><trkpt lat="41.93280077146162" lon="14.310841699260006"><ele>517.0</ele><time>2026-05-02T09:16:55Z</time></trkpt><trkpt lat="41.932893110313536" lon="14.310557798005226"><ele>514.5</ele><time>2026-05-02T09:16:56Z</time></trkpt><trkpt lat="41.93299275901318" lon="14.310275791465875"><ele>512.0</ele><time>2026-05-02T09:16:57Z</time></trkpt><trkpt lat="41.933089725494334" lon="14.30999613867237"><ele>510.0</ele><time>2026-05-02T09:16:58Z</time></trkpt><trkpt lat="41.93318873058027" lon="14.309712302477152"><ele>508.0</ele><time>2026-05-02T09:16:59Z</time></trkpt><trkpt lat="41.93328452894251" lon="14.309425650026025"><ele>508.0</ele><time>2026-05-02T09:17:00Z</time></trkpt><trkpt lat="41.93337557078044" lon="14.309135236923357"><ele>508.0</ele><time>2026-05-02T09:17:01Z</time></trkpt><trkpt lat="41.933460881259016" lon="14.30884038190135"><ele>518.5</ele><time>2026-05-02T09:17:02Z</time></trkpt><trkpt lat="41.933543520026575" lon="14.30854435053869"><ele>529.0</ele><time>2026-05-02T09:17:03Z</time></trkpt><trkpt lat="41.93362435525816" lon="14.308242142698933"><ele>531.0</ele><time>2026-05-02T09:17:04Z</time></trkpt><trkpt lat="41.93369661401356" lon="14.307936098884941"><ele>533.0</ele><time>2026-05-02T09:17:05Z</time></trkpt><trkpt lat="41.933762039402865" lon="14.307623427004797"><ele>533.0</ele><time>2026-05-02T09:17:06Z</time></trkpt><trkpt lat="41.93381563121139" lon="14.307308672980204"><ele>533.0</ele><time>2026-05-02T09:17:07Z</time></trkpt><trkpt lat="41.933861524947176" lon="14.306989447397925"><ele>533.0</ele><time>2026-05-02T09:17:08Z</time></trkpt><trkpt lat="41.93390028476634" lon="14.306669611500332"><ele>533.0</ele><time>2026-05-02T09:17:09Z</time></trkpt><trkpt lat="41.933921545491394" lon="14.306348377615212"><ele>530.5</ele><time>2026-05-02T09:17:10Z</time></trkpt><trkpt lat="41.933928537274824" lon="14.306029177906137"><ele>528.0</ele><time>2026-05-02T09:17:11Z</time></trkpt><trkpt lat="41.93392342981206" lon="14.305710533148433"><ele>525.0</ele><time>2026-05-02T09:17:12Z</time></trkpt><trkpt lat="41.93390648701701" lon="14.305392733454845"><ele>522.0</ele><time>2026-05-02T09:17:13Z</time></trkpt><trkpt lat="41.93387857888317" lon="14.305077115950112"><ele>522.0</ele><time>2026-05-02T09:17:14Z</time></trkpt><trkpt lat="41.933839045907305" lon="14.304769350936382"><ele>522.0</ele><time>2026-05-02T09:17:15Z</time></trkpt><trkpt lat="41.93379029367758" lon="14.304461784316429"><ele>521.5</ele><time>2026-05-02T09:17:16Z</time></trkpt><trkpt lat="41.933730538102985" lon="14.304151522101066"><ele>521.0</ele><time>2026-05-02T09:17:17Z</time></trkpt><trkpt lat="41.933665743885264" lon="14.303850069591505"><ele>524.0</ele><time>2026-05-02T09:17:18Z</time></trkpt><trkpt lat="41.933591763658384" lon="14.303547322949525"><ele>527.0</ele><time>2026-05-02T09:17:19Z</time></trkpt><trkpt lat="41.93351126634428" lon="14.303253787065964"><ele>529.0</ele><time>2026-05-02T09:17:20Z</time></trkpt><trkpt lat="41.93341133843481" lon="14.30296999502296"><ele>531.0</ele><time>2026-05-02T09:17:21Z</time></trkpt><trkpt lat="41.933306172676076" lon="14.302693067354346"><ele>531.0</ele><time>2026-05-02T09:17:22Z</time></trkpt><trkpt lat="41.933195001989326" lon="14.302429055611972"><ele>531.0</ele><time>2026-05-02T09:17:23Z</time></trkpt><trkpt lat="41.93307383222506" lon="14.30216673972563"><ele>537.5</ele><time>2026-05-02T09:17:24Z</time></trkpt><trkpt lat="41.93293982997999" lon="14.30191475348819"><ele>544.0</ele><time>2026-05-02T09:17:25Z</time></trkpt><trkpt lat="41.93279808235475" lon="14.301669632112471"><ele>544.0</ele><time>2026-05-02T09:17:26Z</time></trkpt><trkpt lat="41.93265097247592" lon="14.301429362022025"><ele>544.0</ele><time>2026-05-02T09:17:27Z</time></trkpt><trkpt lat="41.93250101484351" lon="14.301192698911347"><ele>544.0</ele><time>2026-05-02T09:17:28Z</time></trkpt><trkpt lat="41.93235096425981" lon="14.300964941446917"><ele>544.0</ele><time>2026-05-02T09:17:29Z</time></trkpt><trkpt lat="41.93219617862497" lon="14.300733390215568"><ele>548.5</ele><time>2026-05-02T09:17:30Z</time></trkpt><trkpt lat="41.932040183511354" lon="14.30050123050314"><ele>553.0</ele><time>2026-05-02T09:17:31Z</time></trkpt><trkpt lat="41.93188227687809" lon="14.30027424807091"><ele>553.0</ele><time>2026-05-02T09:17:32Z</time></trkpt><trkpt lat="41.93172433579375" lon="14.300048651303408"><ele>553.0</ele><time>2026-05-02T09:17:33Z</time></trkpt><trkpt lat="41.93156081502943" lon="14.299827116705435"><ele>546.5</ele><time>2026-05-02T09:17:34Z</time></trkpt><trkpt lat="41.9313911446678" lon="14.299610274633709"><ele>540.0</ele><time>2026-05-02T09:17:35Z</time></trkpt><trkpt lat="41.931214797992254" lon="14.299403630573218"><ele>540.0</ele><time>2026-05-02T09:17:36Z</time></trkpt><trkpt lat="41.93103345909655" lon="14.299203737233599"><ele>540.0</ele><time>2026-05-02T09:17:37Z</time></trkpt><trkpt lat="41.930840306505104" lon="14.299021208816113"><ele>535.5</ele><time>2026-05-02T09:17:38Z</time></trkpt><trkpt lat="41.93064015671822" lon="14.298849975571748"><ele>531.0</ele><time>2026-05-02T09:17:39Z</time></trkpt><trkpt lat="41.93043110090564" lon="14.298688160677347"><ele>531.0</ele><time>2026-05-02T09:17:40Z</time></trkpt><trkpt lat="41.930216676480626" lon="14.29853797808561"><ele>531.0</ele><time>2026-05-02T09:17:41Z</time></trkpt><trkpt lat="41.929999740163574" lon="14.29838227515639"><ele>530.5</ele><time>2026-05-02T09:17:42Z</time></trkpt><trkpt lat="41.92978491651802" lon="14.298224052422732"><ele>530.0</ele><time>2026-05-02T09:17:43Z</time></trkpt><trkpt lat="41.92956754740246" lon="14.298074026784514"><ele>529.5</ele><time>2026-05-02T09:17:44Z</time></trkpt><trkpt lat="41.92934924036354" lon="14.297924272720667"><ele>529.0</ele><time>2026-05-02T09:17:45Z</time></trkpt><trkpt lat="41.92912987149806" lon="14.297789698550382"><ele>530.0</ele><time>2026-05-02T09:17:46Z</time></trkpt><trkpt lat="41.928913168893736" lon="14.297644610110948"><ele>531.0</ele><time>2026-05-02T09:17:47Z</time></trkpt><trkpt lat="41.92869396971054" lon="14.297506124074493"><ele>531.0</ele><time>2026-05-02T09:17:48Z</time></trkpt><trkpt lat="41.92848527020944" lon="14.297327446852579"><ele>531.0</ele><time>2026-05-02T09:17:49Z</time></trkpt><trkpt lat="41.928272482714895" lon="14.29718326160589"><ele>540.0</ele><time>2026-05-02T09:17:50Z</time></trkpt><trkpt lat="41.928058658627286" lon="14.297037981380974"><ele>549.0</ele><time>2026-05-02T09:17:51Z</time></trkpt><trkpt lat="41.92784587765844" lon="14.296893695386327"><ele>549.0</ele><time>2026-05-02T09:17:52Z</time></trkpt><trkpt lat="41.92763161629455" lon="14.296748098273536"><ele>549.0</ele><time>2026-05-02T09:17:53Z</time></trkpt><trkpt lat="41.92741734611933" lon="14.29660382819213"><ele>553.5</ele><time>2026-05-02T09:17:54Z</time></trkpt><trkpt lat="41.92720693355264" lon="14.296460578585164"><ele>558.0</ele><time>2026-05-02T09:17:55Z</time></trkpt><trkpt lat="41.92699654170892" lon="14.296317271773901"><ele>558.0</ele><time>2026-05-02T09:17:56Z</time></trkpt><trkpt lat="41.92678478262199" lon="14.296173090681984"><ele>558.0</ele><time>2026-05-02T09:17:57Z</time></trkpt><trkpt lat="41.926569196873466" lon="14.296026719587429"><ele>570.0</ele><time>2026-05-02T09:17:58.02Z</time></trkpt><trkpt lat="41.92635638899555" lon="14.295882234514313"><ele>582.0</ele><time>2026-05-02T09:17:59.022Z</time></trkpt><trkpt lat="41.92614537983129" lon="14.295738970673062"><ele>582.0</ele><time>2026-05-02T09:18:00.02Z</time></trkpt><trkpt lat="41.92593610101554" lon="14.295596881650184"><ele>582.0</ele><time>2026-05-02T09:18:01.021Z</time></trkpt><trkpt lat="41.924113401703025" lon="14.294387161529437"><ele>583.5</ele><time>2026-05-02T09:18:05.533Z</time></trkpt><trkpt lat="41.923713375875415" lon="14.294116628114173"><ele>585.0</ele><time>2026-05-02T09:18:06.528Z</time></trkpt><trkpt lat="41.92330975212533" lon="14.293843661460377"><ele>585.0</ele><time>2026-05-02T09:18:07.533Z</time></trkpt><trkpt lat="41.9229502" lon="14.2936005"><ele>585.0</ele><time>2026-05-02T09:18:08.533Z</time></trkpt><trkpt lat="41.92236560866416" lon="14.293240467099745"><ele>587.3333333333334</ele><time>2026-05-02T09:18:17Z</time></trkpt><trkpt lat="41.92214043830726" lon="14.29309559699166"><ele>589.6666666666667</ele><time>2026-05-02T09:18:18Z</time></trkpt><trkpt lat="41.92208965979228" lon="14.292994397067122"><ele>592.0</ele><time>2026-05-02T09:18:19Z</time></trkpt><trkpt lat="41.921888144111755" lon="14.292858388026715"><ele>589.0</ele><time>2026-05-02T09:18:20Z</time></trkpt><trkpt lat="41.92168309427542" lon="14.292720124563264"><ele>586.0</ele><time>2026-05-02T09:18:21Z</time></trkpt><trkpt lat="41.92147765673337" lon="14.292583292083526"><ele>586.0</ele><time>2026-05-02T09:18:22Z</time></trkpt><trkpt lat="41.92125102630853" lon="14.292446456476629"><ele>586.0</ele><time>2026-05-02T09:18:23Z</time></trkpt><trkpt lat="41.92103901800298" lon="14.292287031683172"><ele>581.5</ele><time>2026-05-02T09:18:24Z</time></trkpt><trkpt lat="41.92081178551231" lon="14.292133162518999"><ele>577.0</ele><time>2026-05-02T09:18:25Z</time></trkpt><trkpt lat="41.92059650513331" lon="14.291985918053179"><ele>577.0</ele><time>2026-05-02T09:18:26Z</time></trkpt><trkpt lat="41.92037267898322" lon="14.291831333499902"><ele>577.0</ele><time>2026-05-02T09:18:27Z</time></trkpt><trkpt lat="41.92015147044691" lon="14.291683030668667"><ele>578.5</ele><time>2026-05-02T09:18:28Z</time></trkpt><trkpt lat="41.91993988156736" lon="14.291558352125584"><ele>580.0</ele><time>2026-05-02T09:18:29Z</time></trkpt><trkpt lat="41.91969464049117" lon="14.291472610659651"><ele>580.0</ele><time>2026-05-02T09:18:30Z</time></trkpt><trkpt lat="41.919455781129074" lon="14.291450573637528"><ele>580.0</ele><time>2026-05-02T09:18:31Z</time></trkpt><trkpt lat="41.91923151289326" lon="14.29145188048247"><ele>582.0</ele><time>2026-05-02T09:18:32Z</time></trkpt><trkpt lat="41.91899072330949" lon="14.291433594838532"><ele>584.0</ele><time>2026-05-02T09:18:33Z</time></trkpt><trkpt lat="41.91877323758047" lon="14.291380750561613"><ele>581.6666666666666</ele><time>2026-05-02T09:18:34Z</time></trkpt><trkpt lat="41.91855614899693" lon="14.291284875280114"><ele>579.3333333333334</ele><time>2026-05-02T09:18:35Z</time></trkpt><trkpt lat="41.91835606090487" lon="14.291172897366964"><ele>577.0</ele><time>2026-05-02T09:18:36Z</time></trkpt><trkpt lat="41.918149983408995" lon="14.29105953772723"><ele>577.0</ele><time>2026-05-02T09:18:37Z</time></trkpt><trkpt lat="41.917935716598244" lon="14.290963250967444"><ele>577.0</ele><time>2026-05-02T09:18:38Z</time></trkpt><trkpt lat="41.91772410733446" lon="14.290853062924787"><ele>581.0</ele><time>2026-05-02T09:18:39Z</time></trkpt><trkpt lat="41.917508098536395" lon="14.290730016794644"><ele>585.0</ele><time>2026-05-02T09:18:40Z</time></trkpt><trkpt lat="41.91727541622782" lon="14.290662557099107"><ele>585.0</ele><time>2026-05-02T09:18:41Z</time></trkpt><trkpt lat="41.917041809167785" lon="14.290592952401703"><ele>585.0</ele><time>2026-05-02T09:18:42Z</time></trkpt><trkpt lat="41.91680714857062" lon="14.290545693755915"><ele>580.5</ele><time>2026-05-02T09:18:43Z</time></trkpt><trkpt lat="41.91657006486969" lon="14.290508632427237"><ele>576.0</ele><time>2026-05-02T09:18:44Z</time></trkpt><trkpt lat="41.91633474868298" lon="14.290481520635982"><ele>576.0</ele><time>2026-05-02T09:18:45Z</time></trkpt><trkpt lat="41.916102159310476" lon="14.290441522348956"><ele>576.0</ele><time>2026-05-02T09:18:46Z</time></trkpt><trkpt lat="41.915878791720594" lon="14.290411848321451"><ele>577.6666666666666</ele><time>2026-05-02T09:18:47Z</time></trkpt><trkpt lat="41.91567610775449" lon="14.290398147181172"><ele>579.3333333333333</ele><time>2026-05-02T09:18:48Z</time></trkpt><trkpt lat="41.91549458816449" lon="14.290365905522327"><ele>581.0</ele><time>2026-05-02T09:18:49Z</time></trkpt><trkpt lat="41.915323719724846" lon="14.29037522244326"><ele>581.0</ele><time>2026-05-02T09:18:50Z</time></trkpt><trkpt lat="41.915165519422594" lon="14.290438715976828"><ele>581.0</ele><time>2026-05-02T09:18:51Z</time></trkpt><trkpt lat="41.915022397684815" lon="14.29056685158824"><ele>581.0</ele><time>2026-05-02T09:18:52Z</time></trkpt><trkpt lat="41.91490564607948" lon="14.29069624377597"><ele>584.25</ele><time>2026-05-02T09:18:53Z</time></trkpt><trkpt lat="41.91479975253056" lon="14.290817534424237"><ele>587.5</ele><time>2026-05-02T09:18:54Z</time></trkpt><trkpt lat="41.91468050291614" lon="14.290861774731919"><ele>590.75</ele><time>2026-05-02T09:18:55Z</time></trkpt><trkpt lat="41.91455018087136" lon="14.29084477184015"><ele>594.0</ele><time>2026-05-02T09:18:56Z</time></trkpt><trkpt lat="41.914388577105065" lon="14.290785736163945"><ele>596.3333333333334</ele><time>2026-05-02T09:18:57Z</time></trkpt><trkpt lat="41.91422205317086" lon="14.290662706932634"><ele>598.6666666666667</ele><time>2026-05-02T09:18:58Z</time></trkpt><trkpt lat="41.914047845858896" lon="14.290492170885246"><ele>601.0</ele><time>2026-05-02T09:18:59Z</time></trkpt><trkpt lat="41.913875289439304" lon="14.290280171651945"><ele>600.0</ele><time>2026-05-02T09:19:00Z</time></trkpt><trkpt lat="41.913717908315355" lon="14.290092643541527"><ele>599.0</ele><time>2026-05-02T09:19:01Z</time></trkpt><trkpt lat="41.913556959373615" lon="14.28995475147664"><ele>598.0</ele><time>2026-05-02T09:19:02Z</time></trkpt><trkpt lat="41.91340341407788" lon="14.289842957798454"><ele>598.0</ele><time>2026-05-02T09:19:03Z</time></trkpt><trkpt lat="41.913272777070794" lon="14.289801804815198"><ele>598.0</ele><time>2026-05-02T09:19:04Z</time></trkpt><trkpt lat="41.91314682641881" lon="14.289797548953862"><ele>598.0</ele><time>2026-05-02T09:19:05Z</time></trkpt><trkpt lat="41.913024711947756" lon="14.289851382550308"><ele>598.0</ele><time>2026-05-02T09:19:06Z</time></trkpt><trkpt lat="41.912916329928954" lon="14.289970287267437"><ele>598.0</ele><time>2026-05-02T09:19:07Z</time></trkpt><trkpt lat="41.91282297692162" lon="14.290142654931017"><ele>598.0</ele><time>2026-05-02T09:19:08Z</time></trkpt><trkpt lat="41.91275128232096" lon="14.290290533437625"><ele>598.0</ele><time>2026-05-02T09:19:09Z</time></trkpt><trkpt lat="41.912678476558206" lon="14.290405558693962"><ele>598.0</ele><time>2026-05-02T09:19:10Z</time></trkpt><trkpt lat="41.912600711929926" lon="14.290459002102113"><ele>599.25</ele><time>2026-05-02T09:19:11Z</time></trkpt><trkpt lat="41.91252907790057" lon="14.290403042324318"><ele>600.5</ele><time>2026-05-02T09:19:12Z</time></trkpt><trkpt lat="41.912458594065136" lon="14.290297873534916"><ele>601.75</ele><time>2026-05-02T09:19:13Z</time></trkpt><trkpt lat="41.91237883035875" lon="14.290115781536139"><ele>603.0</ele><time>2026-05-02T09:19:14Z</time></trkpt><trkpt lat="41.912293475178245" lon="14.289898761574332"><ele>600.0</ele><time>2026-05-02T09:19:15Z</time></trkpt><trkpt lat="41.91224500037977" lon="14.28964893299641"><ele>597.0</ele><time>2026-05-02T09:19:16Z</time></trkpt><trkpt lat="41.9121997938676" lon="14.289415649011831"><ele>594.0</ele><time>2026-05-02T09:19:17Z</time></trkpt><trkpt lat="41.9121516091924" lon="14.28922137289505"><ele>594.0</ele><time>2026-05-02T09:19:18Z</time></trkpt><trkpt lat="41.91206869498859" lon="14.289086166988753"><ele>594.0</ele><time>2026-05-02T09:19:19Z</time></trkpt><trkpt lat="41.91194596001227" lon="14.288973829616072"><ele>594.0</ele><time>2026-05-02T09:19:20Z</time></trkpt><trkpt lat="41.91178001279145" lon="14.288895367444226"><ele>595.6666666666666</ele><time>2026-05-02T09:19:21Z</time></trkpt><trkpt lat="41.911597211097906" lon="14.288816849879472"><ele>597.3333333333333</ele><time>2026-05-02T09:19:22Z</time></trkpt><trkpt lat="41.911412855697805" lon="14.288706508894332"><ele>599.0</ele><time>2026-05-02T09:19:23Z</time></trkpt><trkpt lat="41.911256986171146" lon="14.288621498133772"><ele>599.0</ele><time>2026-05-02T09:19:24Z</time></trkpt><trkpt lat="41.91113835295669" lon="14.288512984005441"><ele>599.0</ele><time>2026-05-02T09:19:25Z</time></trkpt><trkpt lat="41.911056335080204" lon="14.288337047337302"><ele>599.0</ele><time>2026-05-02T09:19:26Z</time></trkpt><trkpt lat="41.91100361504373" lon="14.28812278619338"><ele>598.0</ele><time>2026-05-02T09:19:27Z</time></trkpt><trkpt lat="41.91099171389267" lon="14.287873339636965"><ele>597.0</ele><time>2026-05-02T09:19:28Z</time></trkpt><trkpt lat="41.91098998388681" lon="14.287620610097946"><ele>596.0</ele><time>2026-05-02T09:19:29Z</time></trkpt><trkpt lat="41.910939897800844" lon="14.287364673905037"><ele>600.6666666666666</ele><time>2026-05-02T09:19:30Z</time></trkpt><trkpt lat="41.910840626091456" lon="14.287095407248174"><ele>605.3333333333334</ele><time>2026-05-02T09:19:31Z</time></trkpt><trkpt lat="41.910731594206226" lon="14.286882317098842"><ele>610.0</ele><time>2026-05-02T09:19:32Z</time></trkpt><trkpt lat="41.9106430689193" lon="14.28670019503778"><ele>610.0</ele><time>2026-05-02T09:19:33Z</time></trkpt><trkpt lat="41.910534846491764" lon="14.286581834034124"><ele>610.0</ele><time>2026-05-02T09:19:34Z</time></trkpt><trkpt lat="41.9103826508336" lon="14.286518202313303"><ele>610.0</ele><time>2026-05-02T09:19:35Z</time></trkpt><trkpt lat="41.910197824072114" lon="14.286487427723749"><ele>611.6666666666667</ele><time>2026-05-02T09:19:36Z</time></trkpt><trkpt lat="41.91000760742757" lon="14.286460887094906"><ele>613.3333333333334</ele><time>2026-05-02T09:19:37Z</time></trkpt><trkpt lat="41.9098482338288" lon="14.286426754501075"><ele>615.0</ele><time>2026-05-02T09:19:38Z</time></trkpt><trkpt lat="41.90972798743142" lon="14.286367342730879"><ele>615.0</ele><time>2026-05-02T09:19:39Z</time></trkpt><trkpt lat="41.909632010643" lon="14.286244782600479"><ele>615.0</ele><time>2026-05-02T09:19:40Z</time></trkpt><trkpt lat="41.909570123416465" lon="14.286057835248371"><ele>615.0</ele><time>2026-05-02T09:19:41Z</time></trkpt><trkpt lat="41.90954785304272" lon="14.285821006039244"><ele>613.75</ele><time>2026-05-02T09:19:42Z</time></trkpt><trkpt lat="41.909550214299" lon="14.28559175416024"><ele>612.5</ele><time>2026-05-02T09:19:43Z</time></trkpt><trkpt lat="41.90951701223492" lon="14.28543267712275"><ele>611.25</ele><time>2026-05-02T09:19:44Z</time></trkpt><trkpt lat="41.90946296481584" lon="14.285298676463547"><ele>610.0</ele><time>2026-05-02T09:19:45Z</time></trkpt><trkpt lat="41.909353575626284" lon="14.28520722841544"><ele>613.5</ele><time>2026-05-02T09:19:46Z</time></trkpt><trkpt lat="41.90919226429148" lon="14.285158462348038"><ele>617.0</ele><time>2026-05-02T09:19:47Z</time></trkpt><trkpt lat="41.90906404546787" lon="14.28513432154289"><ele>620.5</ele><time>2026-05-02T09:19:48Z</time></trkpt><trkpt lat="41.90895285761445" lon="14.285112223385038"><ele>624.0</ele><time>2026-05-02T09:19:49Z</time></trkpt><trkpt lat="41.90885151896615" lon="14.285130907932825"><ele>624.0</ele><time>2026-05-02T09:19:50Z</time></trkpt><trkpt lat="41.90870197043412" lon="14.285146313017378"><ele>624.0</ele><time>2026-05-02T09:19:51Z</time></trkpt><trkpt lat="41.90856570102393" lon="14.285206563893734"><ele>624.0</ele><time>2026-05-02T09:19:52Z</time></trkpt><trkpt lat="41.90845302623701" lon="14.285237597891667"><ele>624.0</ele><time>2026-05-02T09:19:53Z</time></trkpt><trkpt lat="41.90836435019284" lon="14.285255671470699"><ele>626.0</ele><time>2026-05-02T09:19:54Z</time></trkpt><trkpt lat="41.90827886629936" lon="14.28521508392688"><ele>628.0</ele><time>2026-05-02T09:19:55Z</time></trkpt><trkpt lat="41.90820116987289" lon="14.285102144587242"><ele>630.0</ele><time>2026-05-02T09:19:56Z</time></trkpt><trkpt lat="41.90814379379887" lon="14.284952445084993"><ele>632.0</ele><time>2026-05-02T09:19:57Z</time></trkpt><trkpt lat="41.90811242249279" lon="14.284791871741225"><ele>631.75</ele><time>2026-05-02T09:19:58Z</time></trkpt><trkpt lat="41.908099663261964" lon="14.28462702246723"><ele>631.5</ele><time>2026-05-02T09:19:59Z</time></trkpt><trkpt lat="41.908129291647164" lon="14.284436725912292"><ele>631.25</ele><time>2026-05-02T09:20:00Z</time></trkpt><trkpt lat="41.908176764908376" lon="14.28423168703927"><ele>631.0</ele><time>2026-05-02T09:20:01Z</time></trkpt><trkpt lat="41.90822571126082" lon="14.284023775570752"><ele>632.3333333333334</ele><time>2026-05-02T09:20:02Z</time></trkpt><trkpt lat="41.90825961400552" lon="14.283811357956324"><ele>633.6666666666666</ele><time>2026-05-02T09:20:03Z</time></trkpt><trkpt lat="41.908301735847125" lon="14.283599772610563"><ele>635.0</ele><time>2026-05-02T09:20:04Z</time></trkpt><trkpt lat="41.908332063208285" lon="14.28341004219066"><ele>635.0</ele><time>2026-05-02T09:20:05Z</time></trkpt><trkpt lat="41.90834007382964" lon="14.283238816207712"><ele>635.0</ele><time>2026-05-02T09:20:06Z</time></trkpt><trkpt lat="41.908305787251926" lon="14.283072012717504"><ele>635.0</ele><time>2026-05-02T09:20:07Z</time></trkpt><trkpt lat="41.90823392960761" lon="14.282931495879696"><ele>635.0</ele><time>2026-05-02T09:20:08Z</time></trkpt><trkpt lat="41.90813409532401" lon="14.282824918234173"><ele>635.3333333333333</ele><time>2026-05-02T09:20:09Z</time></trkpt><trkpt lat="41.90800607895226" lon="14.282742228035191"><ele>635.6666666666666</ele><time>2026-05-02T09:20:10Z</time></trkpt><trkpt lat="41.907855688564034" lon="14.282667525632618"><ele>636.0</ele><time>2026-05-02T09:20:11Z</time></trkpt><trkpt lat="41.90770081768158" lon="14.282577582507535"><ele>638.25</ele><time>2026-05-02T09:20:12Z</time></trkpt><trkpt lat="41.907568425107144" lon="14.282493434395855"><ele>640.5</ele><time>2026-05-02T09:20:13Z</time></trkpt><trkpt lat="41.907466893988406" lon="14.282400111517441"><ele>642.75</ele><time>2026-05-02T09:20:14Z</time></trkpt><trkpt lat="41.90739629109549" lon="14.28226868661983"><ele>645.0</ele><time>2026-05-02T09:20:15Z</time></trkpt><trkpt lat="41.90734627601604" lon="14.28211008571571"><ele>645.6</ele><time>2026-05-02T09:20:16Z</time></trkpt><trkpt lat="41.9073308561699" lon="14.281980488333753"><ele>646.2</ele><time>2026-05-02T09:20:17Z</time></trkpt><trkpt lat="41.90736752836342" lon="14.281864114221879"><ele>646.8</ele><time>2026-05-02T09:20:18Z</time></trkpt><trkpt lat="41.907450614870946" lon="14.281756251502689"><ele>647.4</ele><time>2026-05-02T09:20:19Z</time></trkpt><trkpt lat="41.90756418137204" lon="14.281673163439729"><ele>648.0</ele><time>2026-05-02T09:20:20Z</time></trkpt><trkpt lat="41.907660438918676" lon="14.281583576306117"><ele>648.2</ele><time>2026-05-02T09:20:21Z</time></trkpt><trkpt lat="41.907706747753664" lon="14.281464086574385"><ele>648.4</ele><time>2026-05-02T09:20:22Z</time></trkpt><trkpt lat="41.90771825932326" lon="14.281320657180704"><ele>648.6</ele><time>2026-05-02T09:20:23Z</time></trkpt><trkpt lat="41.907682493118344" lon="14.281173446602965"><ele>648.8000000000001</ele><time>2026-05-02T09:20:24Z</time></trkpt><trkpt lat="41.907613362831135" lon="14.281036264735043"><ele>649.0</ele><time>2026-05-02T09:20:25Z</time></trkpt><trkpt lat="41.90751760408236" lon="14.280872505718127"><ele>649.0</ele><time>2026-05-02T09:20:26Z</time></trkpt><trkpt lat="41.90740274288182" lon="14.280726495572956"><ele>649.0</ele><time>2026-05-02T09:20:27Z</time></trkpt><trkpt lat="41.907288841209386" lon="14.280588424241353"><ele>649.0</ele><time>2026-05-02T09:20:28Z</time></trkpt><trkpt lat="41.907174595332286" lon="14.280446806428825"><ele>647.75</ele><time>2026-05-02T09:20:29Z</time></trkpt><trkpt lat="41.90706932671002" lon="14.280331646818398"><ele>646.5</ele><time>2026-05-02T09:20:30Z</time></trkpt><trkpt lat="41.906945597685194" lon="14.280241436482356"><ele>645.25</ele><time>2026-05-02T09:20:31Z</time></trkpt><trkpt lat="41.90680288988009" lon="14.280189122740557"><ele>644.0</ele><time>2026-05-02T09:20:32Z</time></trkpt><trkpt lat="41.90665980258791" lon="14.280144248457432"><ele>647.6666666666666</ele><time>2026-05-02T09:20:33Z</time></trkpt><trkpt lat="41.906520216252815" lon="14.280049434291463"><ele>651.3333333333334</ele><time>2026-05-02T09:20:34Z</time></trkpt><trkpt lat="41.906388705277" lon="14.279938342218117"><ele>655.0</ele><time>2026-05-02T09:20:35Z</time></trkpt><trkpt lat="41.90625263824911" lon="14.27983670328779"><ele>655.0</ele><time>2026-05-02T09:20:36Z</time></trkpt><trkpt lat="41.90610303199323" lon="14.27977536293792"><ele>655.0</ele><time>2026-05-02T09:20:37Z</time></trkpt><trkpt lat="41.90594109297325" lon="14.279742782907912"><ele>655.0</ele><time>2026-05-02T09:20:38Z</time></trkpt><trkpt lat="41.90578046536112" lon="14.279720342479415"><ele>655.75</ele><time>2026-05-02T09:20:39Z</time></trkpt><trkpt lat="41.905627724226505" lon="14.279700053683394"><ele>656.5</ele><time>2026-05-02T09:20:40Z</time></trkpt><trkpt lat="41.90549344554921" lon="14.279689182290182"><ele>657.25</ele><time>2026-05-02T09:20:41Z</time></trkpt><trkpt lat="41.905376104149234" lon="14.279699962823013"><ele>658.0</ele><time>2026-05-02T09:20:42Z</time></trkpt><trkpt lat="41.90525484467718" lon="14.279759713355144"><ele>659.25</ele><time>2026-05-02T09:20:43Z</time></trkpt><trkpt lat="41.90512832901824" lon="14.279822302749816"><ele>660.5</ele><time>2026-05-02T09:20:44Z</time></trkpt><trkpt lat="41.9050138929225" lon="14.27992032879441"><ele>661.75</ele><time>2026-05-02T09:20:45Z</time></trkpt><trkpt lat="41.90491159778428" lon="14.280027777086941"><ele>663.0</ele><time>2026-05-02T09:20:46Z</time></trkpt><trkpt lat="41.904843175824105" lon="14.280156031256263"><ele>663.75</ele><time>2026-05-02T09:20:47Z</time></trkpt><trkpt lat="41.904810878511476" lon="14.280308919174274"><ele>664.5</ele><time>2026-05-02T09:20:48Z</time></trkpt><trkpt lat="41.9048253053082" lon="14.280492833539492"><ele>665.25</ele><time>2026-05-02T09:20:49Z</time></trkpt><trkpt lat="41.90486175191055" lon="14.280705539860726"><ele>666.0</ele><time>2026-05-02T09:20:50Z</time></trkpt><trkpt lat="41.90488784127086" lon="14.28090998821588"><ele>666.0</ele><time>2026-05-02T09:20:51Z</time></trkpt><trkpt lat="41.90490400934181" lon="14.281113235203732"><ele>666.0</ele><time>2026-05-02T09:20:52Z</time></trkpt><trkpt lat="41.9049491776612" lon="14.281306626250487"><ele>666.0</ele><time>2026-05-02T09:20:53Z</time></trkpt><trkpt lat="41.90500020699406" lon="14.281484705004981"><ele>666.0</ele><time>2026-05-02T09:20:54Z</time></trkpt><trkpt lat="41.90505160019854" lon="14.281661850432108"><ele>664.75</ele><time>2026-05-02T09:20:55Z</time></trkpt><trkpt lat="41.90510201477975" lon="14.281846534845352"><ele>663.5</ele><time>2026-05-02T09:20:56Z</time></trkpt><trkpt lat="41.905140342186044" lon="14.282036351950177"><ele>662.25</ele><time>2026-05-02T09:20:57Z</time></trkpt><trkpt lat="41.90514640295847" lon="14.282222179747048"><ele>661.0</ele><time>2026-05-02T09:20:58Z</time></trkpt><trkpt lat="41.90513812077916" lon="14.282427065613486"><ele>660.5</ele><time>2026-05-02T09:20:59Z</time></trkpt><trkpt lat="41.905093215316626" lon="14.282638054199001"><ele>660.0</ele><time>2026-05-02T09:21:00Z</time></trkpt><trkpt lat="41.90505630861295" lon="14.282840870937338"><ele>659.5</ele><time>2026-05-02T09:21:01Z</time></trkpt><trkpt lat="41.90505055207493" lon="14.283016422100266"><ele>659.0</ele><time>2026-05-02T09:21:02Z</time></trkpt><trkpt lat="41.905072692656084" lon="14.283162446048959"><ele>660.25</ele><time>2026-05-02T09:21:03Z</time></trkpt><trkpt lat="41.90513353179047" lon="14.283283450729346"><ele>661.5</ele><time>2026-05-02T09:21:04Z</time></trkpt><trkpt lat="41.90523106279089" lon="14.283386201671865"><ele>662.75</ele><time>2026-05-02T09:21:05Z</time></trkpt><trkpt lat="41.90534219304492" lon="14.283507975321644"><ele>664.0</ele><time>2026-05-02T09:21:06Z</time></trkpt><trkpt lat="41.90545278182359" lon="14.283628349195459"><ele>664.0</ele><time>2026-05-02T09:21:07Z</time></trkpt><trkpt lat="41.90553236303567" lon="14.283744120543407"><ele>664.0</ele><time>2026-05-02T09:21:08Z</time></trkpt><trkpt lat="41.90556842089863" lon="14.28385680682064"><ele>664.0</ele><time>2026-05-02T09:21:09Z</time></trkpt><trkpt lat="41.90557430138053" lon="14.283959395090013"><ele>664.0</ele><time>2026-05-02T09:21:10Z</time></trkpt><trkpt lat="41.90552281912832" lon="14.284067735533057"><ele>664.0</ele><time>2026-05-02T09:21:11Z</time></trkpt><trkpt lat="41.905432680984724" lon="14.284148628219707"><ele>664.75</ele><time>2026-05-02T09:21:12Z</time></trkpt><trkpt lat="41.90531526003652" lon="14.284192404071725"><ele>665.5</ele><time>2026-05-02T09:21:13Z</time></trkpt><trkpt lat="41.905187880002906" lon="14.284183759258058"><ele>666.25</ele><time>2026-05-02T09:21:14Z</time></trkpt><trkpt lat="41.90505679296489" lon="14.28411272271697"><ele>667.0</ele><time>2026-05-02T09:21:15Z</time></trkpt><trkpt lat="41.90492692758274" lon="14.283980293961175"><ele>668.3333333333334</ele><time>2026-05-02T09:21:16Z</time></trkpt><trkpt lat="41.90482179540244" lon="14.283806229252813"><ele>669.6666666666666</ele><time>2026-05-02T09:21:17Z</time></trkpt><trkpt lat="41.90473925431581" lon="14.283604993937308"><ele>671.0</ele><time>2026-05-02T09:21:18Z</time></trkpt><trkpt lat="41.90468347422571" lon="14.283382286532625"><ele>671.0</ele><time>2026-05-02T09:21:19Z</time></trkpt><trkpt lat="41.904643725204174" lon="14.283153526877753"><ele>671.0</ele><time>2026-05-02T09:21:20Z</time></trkpt><trkpt lat="41.904595465826425" lon="14.28295979919766"><ele>671.0</ele><time>2026-05-02T09:21:21Z</time></trkpt><trkpt lat="41.90449699969841" lon="14.282780191485475"><ele>670.3333333333333</ele><time>2026-05-02T09:21:22Z</time></trkpt><trkpt lat="41.9043733726237" lon="14.282602819075692"><ele>669.6666666666666</ele><time>2026-05-02T09:21:23Z</time></trkpt><trkpt lat="41.90424658092984" lon="14.28245322797682"><ele>669.0</ele><time>2026-05-02T09:21:24Z</time></trkpt><trkpt lat="41.90410451808382" lon="14.282281609268985"><ele>672.6666666666666</ele><time>2026-05-02T09:21:25Z</time></trkpt><trkpt lat="41.90395076169046" lon="14.282102049315608"><ele>676.3333333333333</ele><time>2026-05-02T09:21:26Z</time></trkpt><trkpt lat="41.90381779848232" lon="14.28192229722582"><ele>680.0</ele><time>2026-05-02T09:21:27Z</time></trkpt><trkpt lat="41.90370384518655" lon="14.281751058602165"><ele>680.0</ele><time>2026-05-02T09:21:28Z</time></trkpt><trkpt lat="41.903605978251775" lon="14.281575516150081"><ele>680.0</ele><time>2026-05-02T09:21:29Z</time></trkpt><trkpt lat="41.903526375067024" lon="14.281360087762359"><ele>680.0</ele><time>2026-05-02T09:21:30Z</time></trkpt><trkpt lat="41.90345160448606" lon="14.281171341365914"><ele>679.75</ele><time>2026-05-02T09:21:31Z</time></trkpt><trkpt lat="41.9034061071623" lon="14.280983924867531"><ele>679.5</ele><time>2026-05-02T09:21:32Z</time></trkpt><trkpt lat="41.903405274589396" lon="14.28080078864359"><ele>679.25</ele><time>2026-05-02T09:21:33Z</time></trkpt><trkpt lat="41.90342833956053" lon="14.28063394391285"><ele>679.0</ele><time>2026-05-02T09:21:34Z</time></trkpt><trkpt lat="41.9035152786135" lon="14.280427883929333"><ele>679.0</ele><time>2026-05-02T09:21:35Z</time></trkpt><trkpt lat="41.903591077656905" lon="14.28022857667378"><ele>679.0</ele><time>2026-05-02T09:21:36Z</time></trkpt><trkpt lat="41.90363700786213" lon="14.280017796193489"><ele>679.0</ele><time>2026-05-02T09:21:37Z</time></trkpt><trkpt lat="41.90368115658566" lon="14.27982021537193"><ele>681.0</ele><time>2026-05-02T09:21:38Z</time></trkpt><trkpt lat="41.90370023111865" lon="14.279604174554201"><ele>683.0</ele><time>2026-05-02T09:21:39Z</time></trkpt><trkpt lat="41.90367378524433" lon="14.279378475104314"><ele>685.0</ele><time>2026-05-02T09:21:40Z</time></trkpt><trkpt lat="41.90360928597706" lon="14.279155004601435"><ele>685.6666666666667</ele><time>2026-05-02T09:21:41Z</time></trkpt><trkpt lat="41.90353692503394" lon="14.27891975629616"><ele>686.3333333333334</ele><time>2026-05-02T09:21:42Z</time></trkpt><trkpt lat="41.90351996971733" lon="14.278712971978086"><ele>687.0</ele><time>2026-05-02T09:21:43Z</time></trkpt><trkpt lat="41.90348959696461" lon="14.278525137434197"><ele>687.0</ele><time>2026-05-02T09:21:44Z</time></trkpt><trkpt lat="41.903419155858494" lon="14.27832642416832"><ele>687.0</ele><time>2026-05-02T09:21:45Z</time></trkpt><trkpt lat="41.90333770162419" lon="14.278130815564957"><ele>687.0</ele><time>2026-05-02T09:21:46Z</time></trkpt><trkpt lat="41.90321168436798" lon="14.277963704486748"><ele>692.0</ele><time>2026-05-02T09:21:47Z</time></trkpt><trkpt lat="41.90311066615729" lon="14.277781138146066"><ele>697.0</ele><time>2026-05-02T09:21:48Z</time></trkpt><trkpt lat="41.90298491105239" lon="14.277625112338498"><ele>702.0</ele><time>2026-05-02T09:21:49Z</time></trkpt><trkpt lat="41.90284163861349" lon="14.27748483776544"><ele>702.0</ele><time>2026-05-02T09:21:50Z</time></trkpt><trkpt lat="41.902721399402374" lon="14.277361302198992"><ele>702.0</ele><time>2026-05-02T09:21:51Z</time></trkpt><trkpt lat="41.90261684852446" lon="14.277236290404565"><ele>702.0</ele><time>2026-05-02T09:21:52Z</time></trkpt><trkpt lat="41.902545034940694" lon="14.277072943951076"><ele>702.0</ele><time>2026-05-02T09:21:53Z</time></trkpt><trkpt lat="41.902503227514984" lon="14.27688700804595"><ele>702.0</ele><time>2026-05-02T09:21:54Z</time></trkpt><trkpt lat="41.902466289254306" lon="14.276702742861426"><ele>702.0</ele><time>2026-05-02T09:21:55Z</time></trkpt><trkpt lat="41.90241675510906" lon="14.27655665788918"><ele>702.0</ele><time>2026-05-02T09:21:56Z</time></trkpt><trkpt lat="41.90234732050283" lon="14.276448578669962"><ele>702.0</ele><time>2026-05-02T09:21:57Z</time></trkpt><trkpt lat="41.90225035898452" lon="14.27642400201079"><ele>704.25</ele><time>2026-05-02T09:21:58Z</time></trkpt><trkpt lat="41.9021351162683" lon="14.276445827363856"><ele>706.5</ele><time>2026-05-02T09:21:59Z</time></trkpt><trkpt lat="41.90202111013232" lon="14.276557255105644"><ele>708.75</ele><time>2026-05-02T09:22:00Z</time></trkpt><trkpt lat="41.90189929444184" lon="14.276690836426868"><ele>711.0</ele><time>2026-05-02T09:22:01Z</time></trkpt><trkpt lat="41.90175854189474" lon="14.276784830474455"><ele>713.25</ele><time>2026-05-02T09:22:02Z</time></trkpt><trkpt lat="41.90165157934712" lon="14.276871718350678"><ele>715.5</ele><time>2026-05-02T09:22:03Z</time></trkpt><trkpt lat="41.901541141229686" lon="14.27686415473623"><ele>717.75</ele><time>2026-05-02T09:22:04Z</time></trkpt><trkpt lat="41.901426588939856" lon="14.276788080983323"><ele>720.0</ele><time>2026-05-02T09:22:05Z</time></trkpt><trkpt lat="41.90131199123152" lon="14.276649155586593"><ele>720.0</ele><time>2026-05-02T09:22:06Z</time></trkpt><trkpt lat="41.901195618777855" lon="14.276494310486715"><ele>720.0</ele><time>2026-05-02T09:22:07Z</time></trkpt><trkpt lat="41.90107437681243" lon="14.276366525170307"><ele>720.0</ele><time>2026-05-02T09:22:08Z</time></trkpt><trkpt lat="41.90095014273377" lon="14.27624236872643"><ele>720.0</ele><time>2026-05-02T09:22:09Z</time></trkpt><trkpt lat="41.90083654239729" lon="14.276120410591155"><ele>720.0</ele><time>2026-05-02T09:22:10Z</time></trkpt><trkpt lat="41.90073479615557" lon="14.276018619321693"><ele>720.0</ele><time>2026-05-02T09:22:11Z</time></trkpt><trkpt lat="41.90063362849274" lon="14.275950296480577"><ele>720.0</ele><time>2026-05-02T09:22:12Z</time></trkpt><trkpt lat="41.90052072429615" lon="14.275935867776333"><ele>720.0</ele><time>2026-05-02T09:22:13Z</time></trkpt><trkpt lat="41.90040429543778" lon="14.275997318434912"><ele>720.0</ele><time>2026-05-02T09:22:14Z</time></trkpt><trkpt lat="41.90028033894564" lon="14.276114870469302"><ele>720.0</ele><time>2026-05-02T09:22:15Z</time></trkpt><trkpt lat="41.900155197705374" lon="14.276264949721293"><ele>720.0</ele><time>2026-05-02T09:22:16Z</time></trkpt><trkpt lat="41.90003818574018" lon="14.276445848066867"><ele>722.3333333333334</ele><time>2026-05-02T09:22:17Z</time></trkpt><trkpt lat="41.899919852862645" lon="14.276637610809594"><ele>724.6666666666667</ele><time>2026-05-02T09:22:18Z</time></trkpt><trkpt lat="41.89978971668755" lon="14.276859094188161"><ele>727.0</ele><time>2026-05-02T09:22:19Z</time></trkpt><trkpt lat="41.899668737285594" lon="14.277090891921496"><ele>732.3333333333334</ele><time>2026-05-02T09:22:20Z</time></trkpt><trkpt lat="41.899541422713305" lon="14.277290330592598"><ele>737.6666666666666</ele><time>2026-05-02T09:22:21Z</time></trkpt><trkpt lat="41.899446087029204" lon="14.277492668356574"><ele>743.0</ele><time>2026-05-02T09:22:22Z</time></trkpt><trkpt lat="41.89933492421217" lon="14.277655095077135"><ele>739.5</ele><time>2026-05-02T09:22:23Z</time></trkpt><trkpt lat="41.89922119436461" lon="14.277793004126838"><ele>736.0</ele><time>2026-05-02T09:22:24Z</time></trkpt><trkpt lat="41.899097934456606" lon="14.27788059866358"><ele>732.5</ele><time>2026-05-02T09:22:25Z</time></trkpt><trkpt lat="41.89898949825554" lon="14.277929027690485"><ele>729.0</ele><time>2026-05-02T09:22:26Z</time></trkpt><trkpt lat="41.898901231841926" lon="14.277958199424237"><ele>729.0</ele><time>2026-05-02T09:22:27Z</time></trkpt><trkpt lat="41.89879304717628" lon="14.277923283832184"><ele>729.0</ele><time>2026-05-02T09:22:28Z</time></trkpt><trkpt lat="41.898715399313694" lon="14.277821977997576"><ele>729.0</ele><time>2026-05-02T09:22:29Z</time></trkpt><trkpt lat="41.89865554169685" lon="14.27769739319849"><ele>729.0</ele><time>2026-05-02T09:22:30Z</time></trkpt><trkpt lat="41.898567807310954" lon="14.277525279153714"><ele>729.0</ele><time>2026-05-02T09:22:31Z</time></trkpt><trkpt lat="41.898477974211026" lon="14.27740497550151"><ele>729.0</ele><time>2026-05-02T09:22:32Z</time></trkpt><trkpt lat="41.89839758332362" lon="14.277319435978145"><ele>729.0</ele><time>2026-05-02T09:22:33Z</time></trkpt><trkpt lat="41.89830200891612" lon="14.277291148598705"><ele>729.0</ele><time>2026-05-02T09:22:34Z</time></trkpt><trkpt lat="41.89818800880633" lon="14.27732582858657"><ele>729.0</ele><time>2026-05-02T09:22:35Z</time></trkpt><trkpt lat="41.89808095735788" lon="14.27737256206567"><ele>729.8000000000001</ele><time>2026-05-02T09:22:36Z</time></trkpt><trkpt lat="41.898015670993935" lon="14.277354907777951"><ele>730.6</ele><time>2026-05-02T09:22:37Z</time></trkpt><trkpt lat="41.89795089812234" lon="14.277280943767538"><ele>731.4</ele><time>2026-05-02T09:22:38Z</time></trkpt><trkpt lat="41.89789450414926" lon="14.277162800035473"><ele>732.2</ele><time>2026-05-02T09:22:39Z</time></trkpt><trkpt lat="41.897833011682565" lon="14.277046245339942"><ele>733.0</ele><time>2026-05-02T09:22:40Z</time></trkpt><trkpt lat="41.89777794706644" lon="14.276913892172177"><ele>731.0</ele><time>2026-05-02T09:22:41Z</time></trkpt><trkpt lat="41.89775376299084" lon="14.276745922561883"><ele>729.0</ele><time>2026-05-02T09:22:42Z</time></trkpt><trkpt lat="41.89774063560695" lon="14.276566498048878"><ele>727.0</ele><time>2026-05-02T09:22:43Z</time></trkpt><trkpt lat="41.89771544261935" lon="14.276380048420213"><ele>725.0</ele><time>2026-05-02T09:22:44Z</time></trkpt><trkpt lat="41.897672729130946" lon="14.276181734133498"><ele>724.6666666666666</ele><time>2026-05-02T09:22:45Z</time></trkpt><trkpt lat="41.897631231706626" lon="14.275974097747818"><ele>724.3333333333334</ele><time>2026-05-02T09:22:46Z</time></trkpt><trkpt lat="41.897560972677596" lon="14.275778767678396"><ele>724.0</ele><time>2026-05-02T09:22:47Z</time></trkpt><trkpt lat="41.897491742369844" lon="14.275583136738481"><ele>730.3333333333334</ele><time>2026-05-02T09:22:48Z</time></trkpt><trkpt lat="41.89745407341296" lon="14.27537048007675"><ele>736.6666666666666</ele><time>2026-05-02T09:22:49Z</time></trkpt><trkpt lat="41.89743371828034" lon="14.275146440028227"><ele>743.0</ele><time>2026-05-02T09:22:50Z</time></trkpt><trkpt lat="41.8974467809213" lon="14.27493459701838"><ele>742.2</ele><time>2026-05-02T09:22:51Z</time></trkpt><trkpt lat="41.897461625016554" lon="14.274756103377856"><ele>741.4</ele><time>2026-05-02T09:22:52Z</time></trkpt><trkpt lat="41.89745298614751" lon="14.274617143316664"><ele>740.6</ele><time>2026-05-02T09:22:53Z</time></trkpt><trkpt lat="41.89742602296713" lon="14.274496453388517"><ele>739.8000000000001</ele><time>2026-05-02T09:22:54Z</time></trkpt><trkpt lat="41.8973656157749" lon="14.274406559886504"><ele>739.0</ele><time>2026-05-02T09:22:55Z</time></trkpt><trkpt lat="41.897249950548336" lon="14.274385077913816"><ele>739.0</ele><time>2026-05-02T09:22:56Z</time></trkpt><trkpt lat="41.8971488713781" lon="14.274428118657896"><ele>739.0</ele><time>2026-05-02T09:22:57Z</time></trkpt><trkpt lat="41.89703735355228" lon="14.274488948761453"><ele>739.0</ele><time>2026-05-02T09:22:58Z</time></trkpt><trkpt lat="41.89692501145089" lon="14.274555076998942"><ele>739.0</ele><time>2026-05-02T09:22:59Z</time></trkpt><trkpt lat="41.89681052503439" lon="14.274602092550305"><ele>738.25</ele><time>2026-05-02T09:23:00Z</time></trkpt><trkpt lat="41.896651352310464" lon="14.274588742091273"><ele>737.5</ele><time>2026-05-02T09:23:01Z</time></trkpt><trkpt lat="41.89649059315618" lon="14.274608211679583"><ele>736.75</ele><time>2026-05-02T09:23:02Z</time></trkpt><trkpt lat="41.89636589830235" lon="14.274630165374893"><ele>736.0</ele><time>2026-05-02T09:23:03Z</time></trkpt><trkpt lat="41.89626206580887" lon="14.27474461466615"><ele>738.0</ele><time>2026-05-02T09:23:04Z</time></trkpt><trkpt lat="41.89615980785397" lon="14.274917594434616"><ele>740.0</ele><time>2026-05-02T09:23:05Z</time></trkpt><trkpt lat="41.896037943593676" lon="14.275086410924093"><ele>742.0</ele><time>2026-05-02T09:23:06Z</time></trkpt><trkpt lat="41.895898314695636" lon="14.275289973480199"><ele>742.0</ele><time>2026-05-02T09:23:07Z</time></trkpt><trkpt lat="41.89579157856103" lon="14.275445582267626"><ele>742.0</ele><time>2026-05-02T09:23:08Z</time></trkpt><trkpt lat="41.895679636647564" lon="14.275588641813657"><ele>742.0</ele><time>2026-05-02T09:23:09Z</time></trkpt><trkpt lat="41.89555157196693" lon="14.275699660177006"><ele>745.6666666666667</ele><time>2026-05-02T09:23:10Z</time></trkpt><trkpt lat="41.89538459395271" lon="14.27574020976808"><ele>749.3333333333334</ele><time>2026-05-02T09:23:11Z</time></trkpt><trkpt lat="41.89521106730712" lon="14.275769517963424"><ele>753.0</ele><time>2026-05-02T09:23:12Z</time></trkpt><trkpt lat="41.89503502512619" lon="14.275849095783915"><ele>753.0</ele><time>2026-05-02T09:23:13Z</time></trkpt><trkpt lat="41.894872007290374" lon="14.275975085352652"><ele>753.0</ele><time>2026-05-02T09:23:14Z</time></trkpt><trkpt lat="41.89470866183588" lon="14.276115443037067"><ele>753.0</ele><time>2026-05-02T09:23:15Z</time></trkpt><trkpt lat="41.89453984654298" lon="14.276260728372234"><ele>753.0</ele><time>2026-05-02T09:23:16Z</time></trkpt><trkpt lat="41.89437870433154" lon="14.276391348643969"><ele>753.0</ele><time>2026-05-02T09:23:17Z</time></trkpt><trkpt lat="41.8942445864762" lon="14.276512836673675"><ele>753.0</ele><time>2026-05-02T09:23:18Z</time></trkpt><trkpt lat="41.89412012475124" lon="14.276622928444198"><ele>753.75</ele><time>2026-05-02T09:23:19Z</time></trkpt><trkpt lat="41.89399916760512" lon="14.276699617219391"><ele>754.5</ele><time>2026-05-02T09:23:20Z</time></trkpt><trkpt lat="41.89386632436834" lon="14.276741842910726"><ele>755.25</ele><time>2026-05-02T09:23:21Z</time></trkpt><trkpt lat="41.89376809786786" lon="14.27670772738727"><ele>756.0</ele><time>2026-05-02T09:23:22Z</time></trkpt><trkpt lat="41.89361867702303" lon="14.276645439752842"><ele>756.0</ele><time>2026-05-02T09:23:23Z</time></trkpt><trkpt lat="41.89347607775446" lon="14.27656105118403"><ele>756.0</ele><time>2026-05-02T09:23:24Z</time></trkpt><trkpt lat="41.89331952522799" lon="14.276493941639755"><ele>756.0</ele><time>2026-05-02T09:23:25Z</time></trkpt><trkpt lat="41.8931531942868" lon="14.276470934183326"><ele>755.3333333333334</ele><time>2026-05-02T09:23:26Z</time></trkpt><trkpt lat="41.89297544276604" lon="14.276479648210445"><ele>754.6666666666667</ele><time>2026-05-02T09:23:27Z</time></trkpt><trkpt lat="41.89279536946201" lon="14.276512193117693"><ele>754.0</ele><time>2026-05-02T09:23:28Z</time></trkpt><trkpt lat="41.89261020267068" lon="14.276522414279032"><ele>754.25</ele><time>2026-05-02T09:23:29Z</time></trkpt><trkpt lat="41.89244115388483" lon="14.276551605690367"><ele>754.5</ele><time>2026-05-02T09:23:30Z</time></trkpt><trkpt lat="41.892293814768124" lon="14.276572478802978"><ele>754.75</ele><time>2026-05-02T09:23:31Z</time></trkpt><trkpt lat="41.89217042455167" lon="14.276582942744207"><ele>755.0</ele><time>2026-05-02T09:23:32Z</time></trkpt><trkpt lat="41.892062815740914" lon="14.276578563714233"><ele>755.0</ele><time>2026-05-02T09:23:33Z</time></trkpt><trkpt lat="41.89198571031468" lon="14.276496810584506"><ele>755.0</ele><time>2026-05-02T09:23:34Z</time></trkpt><trkpt lat="41.89190612178385" lon="14.276384551642865"><ele>755.0</ele><time>2026-05-02T09:23:35Z</time></trkpt><trkpt lat="41.89185766170796" lon="14.27619773604927"><ele>755.0</ele><time>2026-05-02T09:23:36Z</time></trkpt><trkpt lat="41.891796400473865" lon="14.275970712145298"><ele>755.6666666666666</ele><time>2026-05-02T09:23:37Z</time></trkpt><trkpt lat="41.89172831065834" lon="14.2757457857821"><ele>756.3333333333334</ele><time>2026-05-02T09:23:38Z</time></trkpt><trkpt lat="41.891645700400524" lon="14.275525811214546"><ele>757.0</ele><time>2026-05-02T09:23:39Z</time></trkpt><trkpt lat="41.891572068308214" lon="14.275293023033424"><ele>758.3333333333334</ele><time>2026-05-02T09:23:40Z</time></trkpt><trkpt lat="41.891502445331255" lon="14.275055680423884"><ele>759.6666666666666</ele><time>2026-05-02T09:23:41Z</time></trkpt><trkpt lat="41.891455754886955" lon="14.27480571900084"><ele>761.0</ele><time>2026-05-02T09:23:42Z</time></trkpt><trkpt lat="41.89141757092465" lon="14.274569704036473"><ele>761.75</ele><time>2026-05-02T09:23:43Z</time></trkpt><trkpt lat="41.8913834521575" lon="14.274367585823622"><ele>762.5</ele><time>2026-05-02T09:23:44Z</time></trkpt><trkpt lat="41.89134835594663" lon="14.274191927759713"><ele>763.25</ele><time>2026-05-02T09:23:45Z</time></trkpt><trkpt lat="41.89128721311881" lon="14.27403254713233"><ele>764.0</ele><time>2026-05-02T09:23:46Z</time></trkpt><trkpt lat="41.89118731384975" lon="14.273887290876502"><ele>764.0</ele><time>2026-05-02T09:23:47Z</time></trkpt><trkpt lat="41.891063986070705" lon="14.273778353688407"><ele>764.0</ele><time>2026-05-02T09:23:48Z</time></trkpt><trkpt lat="41.89094953874055" lon="14.273686698111774"><ele>764.0</ele><time>2026-05-02T09:23:49Z</time></trkpt><trkpt lat="41.890838728835014" lon="14.273609064413957"><ele>764.0</ele><time>2026-05-02T09:23:50Z</time></trkpt><trkpt lat="41.89070784413324" lon="14.273579295792256"><ele>764.0</ele><time>2026-05-02T09:23:51Z</time></trkpt><trkpt lat="41.890557292700805" lon="14.273574615755571"><ele>764.0</ele><time>2026-05-02T09:23:52Z</time></trkpt><trkpt lat="41.89039759674622" lon="14.273598339786526"><ele>764.0</ele><time>2026-05-02T09:23:53Z</time></trkpt><trkpt lat="41.890239992795834" lon="14.27362398772917"><ele>764.0</ele><time>2026-05-02T09:23:54Z</time></trkpt><trkpt lat="41.890109836035585" lon="14.273624910949874"><ele>764.0</ele><time>2026-05-02T09:23:55Z</time></trkpt><trkpt lat="41.88999773523868" lon="14.273551594645841"><ele>764.0</ele><time>2026-05-02T09:23:56Z</time></trkpt><trkpt lat="41.88988432530906" lon="14.273445791428788"><ele>764.0</ele><time>2026-05-02T09:23:57Z</time></trkpt><trkpt lat="41.88978059461243" lon="14.273326589710862"><ele>764.0</ele><time>2026-05-02T09:23:58Z</time></trkpt><trkpt lat="41.889676471046734" lon="14.273241123864564"><ele>764.0</ele><time>2026-05-02T09:23:59Z</time></trkpt><trkpt lat="41.88955013682587" lon="14.27317002306974"><ele>764.0</ele><time>2026-05-02T09:24:00Z</time></trkpt><trkpt lat="41.88942301780499" lon="14.273142402824227"><ele>764.0</ele><time>2026-05-02T09:24:01Z</time></trkpt><trkpt lat="41.88932044000277" lon="14.273126005277641"><ele>764.4000000000001</ele><time>2026-05-02T09:24:02Z</time></trkpt><trkpt lat="41.88923987068377" lon="14.273080758847943"><ele>764.8</ele><time>2026-05-02T09:24:03Z</time></trkpt><trkpt lat="41.889196797715705" lon="14.272958189918908"><ele>765.2</ele><time>2026-05-02T09:24:04Z</time></trkpt><trkpt lat="41.88918167228907" lon="14.272821131434052"><ele>765.5999999999999</ele><time>2026-05-02T09:24:05Z</time></trkpt><trkpt lat="41.88916999233745" lon="14.272682194702263"><ele>766.0</ele><time>2026-05-02T09:24:06Z</time></trkpt><trkpt lat="41.889187985690164" lon="14.272564714018841"><ele>766.0</ele><time>2026-05-02T09:24:07Z</time></trkpt><trkpt lat="41.88924711933966" lon="14.272457813749424"><ele>766.0</ele><time>2026-05-02T09:24:08Z</time></trkpt><trkpt lat="41.88933872404914" lon="14.272386612923535"><ele>766.0</ele><time>2026-05-02T09:24:09Z</time></trkpt><trkpt lat="41.88944719173098" lon="14.272315472114038"><ele>766.0</ele><time>2026-05-02T09:24:10Z</time></trkpt><trkpt lat="41.889572219494056" lon="14.272218036565912"><ele>764.75</ele><time>2026-05-02T09:24:11Z</time></trkpt><trkpt lat="41.88967903007955" lon="14.272106905430654"><ele>763.5</ele><time>2026-05-02T09:24:12Z</time></trkpt><trkpt lat="41.889769130895274" lon="14.2719817153694"><ele>762.25</ele><time>2026-05-02T09:24:13Z</time></trkpt><trkpt lat="41.88982371991306" lon="14.271811839090741"><ele>761.0</ele><time>2026-05-02T09:24:14Z</time></trkpt><trkpt lat="41.889828070088434" lon="14.271617638927042"><ele>759.6666666666666</ele><time>2026-05-02T09:24:15Z</time></trkpt><trkpt lat="41.88981007144283" lon="14.271420956397124"><ele>758.3333333333334</ele><time>2026-05-02T09:24:16Z</time></trkpt><trkpt lat="41.88976205835485" lon="14.271236812020991"><ele>757.0</ele><time>2026-05-02T09:24:17Z</time></trkpt><trkpt lat="41.88969487889861" lon="14.271032181770414"><ele>757.0</ele><time>2026-05-02T09:24:18Z</time></trkpt><trkpt lat="41.88962916682044" lon="14.270795429207856"><ele>757.0</ele><time>2026-05-02T09:24:19Z</time></trkpt><trkpt lat="41.8895840569477" lon="14.2705665415488"><ele>757.0</ele><time>2026-05-02T09:24:20Z</time></trkpt><trkpt lat="41.8895297909941" lon="14.270372315927016"><ele>756.75</ele><time>2026-05-02T09:24:21Z</time></trkpt><trkpt lat="41.88947774748226" lon="14.270211297448093"><ele>756.5</ele><time>2026-05-02T09:24:22Z</time></trkpt><trkpt lat="41.88941623372581" lon="14.2700828587863"><ele>756.25</ele><time>2026-05-02T09:24:23Z</time></trkpt><trkpt lat="41.88930820545121" lon="14.26998643808207"><ele>756.0</ele><time>2026-05-02T09:24:24Z</time></trkpt><trkpt lat="41.889176788006935" lon="14.269959352396732"><ele>759.0</ele><time>2026-05-02T09:24:25Z</time></trkpt><trkpt lat="41.88904852599498" lon="14.269973777553307"><ele>762.0</ele><time>2026-05-02T09:24:26Z</time></trkpt><trkpt lat="41.888914988502066" lon="14.270013450786042"><ele>765.0</ele><time>2026-05-02T09:24:27Z</time></trkpt><trkpt lat="41.888809669033286" lon="14.270033411719503"><ele>768.0</ele><time>2026-05-02T09:24:28Z</time></trkpt><trkpt lat="41.88873230399631" lon="14.270017633057671"><ele>768.0</ele><time>2026-05-02T09:24:29Z</time></trkpt><trkpt lat="41.88866559289617" lon="14.269931378765653"><ele>768.0</ele><time>2026-05-02T09:24:30Z</time></trkpt><trkpt lat="41.888607919449306" lon="14.269797866175427"><ele>768.0</ele><time>2026-05-02T09:24:31Z</time></trkpt><trkpt lat="41.88856733169397" lon="14.269619802918214"><ele>768.0</ele><time>2026-05-02T09:24:32Z</time></trkpt><trkpt lat="41.888554032642205" lon="14.269415363066289"><ele>767.75</ele><time>2026-05-02T09:24:33Z</time></trkpt><trkpt lat="41.88853322741864" lon="14.269240154745983"><ele>767.5</ele><time>2026-05-02T09:24:34Z</time></trkpt><trkpt lat="41.88850932754069" lon="14.269073700840007"><ele>767.25</ele><time>2026-05-02T09:24:35Z</time></trkpt><trkpt lat="41.88842088849731" lon="14.268939708520794"><ele>767.0</ele><time>2026-05-02T09:24:36Z</time></trkpt><trkpt lat="41.88831267673697" lon="14.268822140977253"><ele>767.0</ele><time>2026-05-02T09:24:37Z</time></trkpt><trkpt lat="41.88818137626033" lon="14.268725064959533"><ele>767.0</ele><time>2026-05-02T09:24:38Z</time></trkpt><trkpt lat="41.88805739509051" lon="14.26860676969829"><ele>767.0</ele><time>2026-05-02T09:24:39Z</time></trkpt><trkpt lat="41.88795039539467" lon="14.268498516860511"><ele>767.0</ele><time>2026-05-02T09:24:40Z</time></trkpt><trkpt lat="41.887867412373055" lon="14.268368606130851"><ele>767.0</ele><time>2026-05-02T09:24:41Z</time></trkpt><trkpt lat="41.88779628364365" lon="14.268208597481008"><ele>767.0</ele><time>2026-05-02T09:24:42Z</time></trkpt><trkpt lat="41.88775692603736" lon="14.267999854167092"><ele>767.0</ele><time>2026-05-02T09:24:43Z</time></trkpt><trkpt lat="41.88772430704492" lon="14.267785234892736"><ele>767.3333333333333</ele><time>2026-05-02T09:24:44Z</time></trkpt><trkpt lat="41.88765473298144" lon="14.26759573518959"><ele>767.6666666666666</ele><time>2026-05-02T09:24:45Z</time></trkpt><trkpt lat="41.88755436425261" lon="14.26742671901221"><ele>768.0</ele><time>2026-05-02T09:24:46Z</time></trkpt><trkpt lat="41.88742112332431" lon="14.26728297964855"><ele>766.0</ele><time>2026-05-02T09:24:47Z</time></trkpt><trkpt lat="41.88729614030342" lon="14.267177357834699"><ele>764.0</ele><time>2026-05-02T09:24:48Z</time></trkpt><trkpt lat="41.88716503475468" lon="14.267111147818094"><ele>762.0</ele><time>2026-05-02T09:24:49Z</time></trkpt><trkpt lat="41.887004859161706" lon="14.267095477238732"><ele>760.0</ele><time>2026-05-02T09:24:50Z</time></trkpt><trkpt lat="41.88684361459891" lon="14.267100368566005"><ele>761.0</ele><time>2026-05-02T09:24:51Z</time></trkpt><trkpt lat="41.88669105446892" lon="14.267101852509638"><ele>762.0</ele><time>2026-05-02T09:24:52Z</time></trkpt><trkpt lat="41.88656998424743" lon="14.267092979396182"><ele>763.0</ele><time>2026-05-02T09:24:53Z</time></trkpt><trkpt lat="41.8864795591994" lon="14.267058448190335"><ele>764.0</ele><time>2026-05-02T09:24:54Z</time></trkpt><trkpt lat="41.88639743575527" lon="14.267006337093106"><ele>764.0</ele><time>2026-05-02T09:24:55Z</time></trkpt><trkpt lat="41.88636539089492" lon="14.266892918002508"><ele>764.0</ele><time>2026-05-02T09:24:56Z</time></trkpt><trkpt lat="41.88636895034196" lon="14.266754008956541"><ele>764.0</ele><time>2026-05-02T09:24:57Z</time></trkpt><trkpt lat="41.88639451351079" lon="14.266619828397953"><ele>764.0</ele><time>2026-05-02T09:24:58Z</time></trkpt><trkpt lat="41.88646470068623" lon="14.266516009250344"><ele>764.0</ele><time>2026-05-02T09:24:59Z</time></trkpt><trkpt lat="41.88657226780838" lon="14.266467785430722"><ele>762.5</ele><time>2026-05-02T09:25:00Z</time></trkpt><trkpt lat="41.886681282683405" lon="14.266395348130734"><ele>761.0</ele><time>2026-05-02T09:25:01Z</time></trkpt><trkpt lat="41.88678741765628" lon="14.266300181276298"><ele>759.5</ele><time>2026-05-02T09:25:02Z</time></trkpt><trkpt lat="41.8868859731254" lon="14.266160443922931"><ele>758.0</ele><time>2026-05-02T09:25:03Z</time></trkpt><trkpt lat="41.886972548515786" lon="14.265994175575752"><ele>758.0</ele><time>2026-05-02T09:25:04Z</time></trkpt><trkpt lat="41.88704804197389" lon="14.265808276584055"><ele>758.0</ele><time>2026-05-02T09:25:05Z</time></trkpt><trkpt lat="41.88712465265684" lon="14.265622238363997"><ele>758.0</ele><time>2026-05-02T09:25:06Z</time></trkpt><trkpt lat="41.88714175451379" lon="14.26540597270155"><ele>758.75</ele><time>2026-05-02T09:25:07Z</time></trkpt><trkpt lat="41.88714659105037" lon="14.265197173315126"><ele>759.5</ele><time>2026-05-02T09:25:08Z</time></trkpt><trkpt lat="41.8871308218576" lon="14.2650036360482"><ele>760.25</ele><time>2026-05-02T09:25:09Z</time></trkpt><trkpt lat="41.887091257712086" lon="14.264829022393373"><ele>761.0</ele><time>2026-05-02T09:25:10Z</time></trkpt><trkpt lat="41.88701680140796" lon="14.264661101750342"><ele>761.0</ele><time>2026-05-02T09:25:11Z</time></trkpt><trkpt lat="41.886926647026236" lon="14.264489561279232"><ele>761.0</ele><time>2026-05-02T09:25:12Z</time></trkpt><trkpt lat="41.88681779485045" lon="14.264311549395046"><ele>761.0</ele><time>2026-05-02T09:25:13Z</time></trkpt><trkpt lat="41.88671283309047" lon="14.264135198455639"><ele>764.0</ele><time>2026-05-02T09:25:14Z</time></trkpt><trkpt lat="41.88661508525382" lon="14.263948975919686"><ele>767.0</ele><time>2026-05-02T09:25:15Z</time></trkpt><trkpt lat="41.8865057693796" lon="14.263766590245524"><ele>770.0</ele><time>2026-05-02T09:25:16Z</time></trkpt><trkpt lat="41.88639698154336" lon="14.263579156711986"><ele>770.0</ele><time>2026-05-02T09:25:17Z</time></trkpt><trkpt lat="41.88629014491631" lon="14.263397088354466"><ele>770.0</ele><time>2026-05-02T09:25:18Z</time></trkpt><trkpt lat="41.886205473320715" lon="14.26322972718422"><ele>770.0</ele><time>2026-05-02T09:25:19Z</time></trkpt><trkpt lat="41.88614726205711" lon="14.263093103776681"><ele>770.0</ele><time>2026-05-02T09:25:20Z</time></trkpt><trkpt lat="41.88611980668608" lon="14.262966381582867"><ele>771.8</ele><time>2026-05-02T09:25:21Z</time></trkpt><trkpt lat="41.8861387588182" lon="14.262852202413184"><ele>773.6</ele><time>2026-05-02T09:25:22Z</time></trkpt><trkpt lat="41.88620140485878" lon="14.262754030709802"><ele>775.4000000000001</ele><time>2026-05-02T09:25:23Z</time></trkpt><trkpt lat="41.88629817799604" lon="14.262697175826748"><ele>777.2</ele><time>2026-05-02T09:25:24Z</time></trkpt><trkpt lat="41.886424597748466" lon="14.262683635990804"><ele>779.0</ele><time>2026-05-02T09:25:25Z</time></trkpt><trkpt lat="41.886542178579674" lon="14.26271063708372"><ele>779.0</ele><time>2026-05-02T09:25:26Z</time></trkpt><trkpt lat="41.886634166126804" lon="14.262741308994501"><ele>779.0</ele><time>2026-05-02T09:25:27Z</time></trkpt><trkpt lat="41.8867094793374" lon="14.262770973419062"><ele>779.0</ele><time>2026-05-02T09:25:28Z</time></trkpt><trkpt lat="41.88677466406202" lon="14.26278671413463"><ele>779.0</ele><time>2026-05-02T09:25:29Z</time></trkpt><trkpt lat="41.88688127393102" lon="14.262732227663534"><ele>779.0</ele><time>2026-05-02T09:25:31Z</time></trkpt><trkpt lat="41.88698746426087" lon="14.262674500145343"><ele>778.5000000000001</ele><time>2026-05-02T09:25:33Z</time></trkpt><trkpt lat="41.88703547399526" lon="14.262569282978"><ele>778.0</ele><time>2026-05-02T09:25:34Z</time></trkpt><trkpt lat="41.88707400602938" lon="14.262467210196595"><ele>777.5</ele><time>2026-05-02T09:25:35Z</time></trkpt><trkpt lat="41.887095379935374" lon="14.262376868853549"><ele>777.0</ele><time>2026-05-02T09:25:36Z</time></trkpt><trkpt lat="41.88712173258858" lon="14.262300026995641"><ele>776.5000000000001</ele><time>2026-05-02T09:25:37Z</time></trkpt><trkpt lat="41.88715736267158" lon="14.262175402337563"><ele>776.0</ele><time>2026-05-02T09:25:39Z</time></trkpt><trkpt lat="41.887181363303284" lon="14.262070147542367"><ele>776.0000000000001</ele><time>2026-05-02T09:25:41Z</time></trkpt><trkpt lat="41.88719478500678" lon="14.261977981393398"><ele>776.0</ele><time>2026-05-02T09:25:43Z</time></trkpt><trkpt lat="41.88718957693835" lon="14.261843783205194"><ele>776.0</ele><time>2026-05-02T09:25:45Z</time></trkpt><trkpt lat="41.887179979648636" lon="14.261690432716032"><ele>776.0</ele><time>2026-05-02T09:25:47Z</time></trkpt><trkpt lat="41.887190765153775" lon="14.261606646495117"><ele>776.0000000000001</ele><time>2026-05-02T09:25:48Z</time></trkpt><trkpt lat="41.88718073577455" lon="14.26151713694376"><ele>776.0</ele><time>2026-05-02T09:25:49Z</time></trkpt><trkpt lat="41.887164779761996" lon="14.261429914321452"><ele>776.0000000000001</ele><time>2026-05-02T09:25:50Z</time></trkpt><trkpt lat="41.88714431416098" lon="14.261343360566512"><ele>776.0</ele><time>2026-05-02T09:25:51Z</time></trkpt><trkpt lat="41.887124390868046" lon="14.26126253224041"><ele>776.0</ele><time>2026-05-02T09:25:52Z</time></trkpt><trkpt lat="41.88708468842175" lon="14.261104670833097"><ele>776.0</ele><time>2026-05-02T09:25:54Z</time></trkpt><trkpt lat="41.88706246906756" lon="14.261017335943366"><ele>776.0000000000001</ele><time>2026-05-02T09:25:55Z</time></trkpt><trkpt lat="41.88702212361732" lon="14.260858755727925"><ele>776.0</ele><time>2026-05-02T09:25:57Z</time></trkpt><trkpt lat="41.886893650222056" lon="14.26082130467608"><ele>776.0000000000001</ele><time>2026-05-02T09:25:58Z</time></trkpt><trkpt lat="41.88685707048646" lon="14.260742788677515"><ele>776.0</ele><time>2026-05-02T09:25:59Z</time></trkpt><trkpt lat="41.88681704502571" lon="14.26066327464285"><ele>776.0</ele><time>2026-05-02T09:26:00Z</time></trkpt><trkpt lat="41.88677351264398" lon="14.260577101315475"><ele>776.0</ele><time>2026-05-02T09:26:01Z</time></trkpt><trkpt lat="41.88673547992371" lon="14.260482811485515"><ele>776.0000000000001</ele><time>2026-05-02T09:26:02Z</time></trkpt><trkpt lat="41.886698241928954" lon="14.260380666273399"><ele>776.0</ele><time>2026-05-02T09:26:03Z</time></trkpt><trkpt lat="41.886656948746406" lon="14.260277438947757"><ele>778.1666666666667</ele><time>2026-05-02T09:26:04Z</time></trkpt><trkpt lat="41.88663317118082" lon="14.260158410640908"><ele>780.3333333333334</ele><time>2026-05-02T09:26:05Z</time></trkpt><trkpt lat="41.88663359707681" lon="14.260034482301274"><ele>782.5</ele><time>2026-05-02T09:26:06Z</time></trkpt><trkpt lat="41.88665791529122" lon="14.259912621784895"><ele>784.6666666666667</ele><time>2026-05-02T09:26:07Z</time></trkpt><trkpt lat="41.88669169255547" lon="14.259807341540856"><ele>786.8333333333334</ele><time>2026-05-02T09:26:08Z</time></trkpt><trkpt lat="41.88672496312372" lon="14.259703788183748"><ele>789.0</ele><time>2026-05-02T09:26:09Z</time></trkpt><trkpt lat="41.886753759390444" lon="14.259609307975783"><ele>789.6666666666666</ele><time>2026-05-02T09:26:10Z</time></trkpt><trkpt lat="41.886781634108836" lon="14.259523322819135"><ele>790.3333333333333</ele><time>2026-05-02T09:26:11Z</time></trkpt><trkpt lat="41.886791997864655" lon="14.259423062032521"><ele>791.0</ele><time>2026-05-02T09:26:12Z</time></trkpt><trkpt lat="41.886775566549204" lon="14.259288719406"><ele>791.6666666666666</ele><time>2026-05-02T09:26:13Z</time></trkpt><trkpt lat="41.886743690317026" lon="14.259167200719725"><ele>792.3333333333333</ele><time>2026-05-02T09:26:14Z</time></trkpt><trkpt lat="41.886704438405424" lon="14.25904910514854"><ele>793.0</ele><time>2026-05-02T09:26:15Z</time></trkpt><trkpt lat="41.88667614298084" lon="14.25892651974154"><ele>791.0</ele><time>2026-05-02T09:26:16Z</time></trkpt><trkpt lat="41.88665010098586" lon="14.25880822367733"><ele>789.0</ele><time>2026-05-02T09:26:17Z</time></trkpt><trkpt lat="41.886616864888744" lon="14.258693922220806"><ele>787.0</ele><time>2026-05-02T09:26:18Z</time></trkpt><trkpt lat="41.8865615088693" lon="14.25859478374634"><ele>785.0</ele><time>2026-05-02T09:26:19Z</time></trkpt><trkpt lat="41.886488058456365" lon="14.258520306905332"><ele>783.0</ele><time>2026-05-02T09:26:20Z</time></trkpt><trkpt lat="41.886405531721515" lon="14.258457200969382"><ele>783.0</ele><time>2026-05-02T09:26:21Z</time></trkpt><trkpt lat="41.88631652968499" lon="14.258400772142021"><ele>783.0</ele><time>2026-05-02T09:26:22Z</time></trkpt><trkpt lat="41.88622970076103" lon="14.258347304707037"><ele>783.0</ele><time>2026-05-02T09:26:23Z</time></trkpt><trkpt lat="41.886141426046436" lon="14.258284806099029"><ele>783.0</ele><time>2026-05-02T09:26:24Z</time></trkpt><trkpt lat="41.88605982318939" lon="14.258203896692274"><ele>783.0</ele><time>2026-05-02T09:26:25Z</time></trkpt><trkpt lat="41.88597834519311" lon="14.258130194319607"><ele>784.2</ele><time>2026-05-02T09:26:26Z</time></trkpt><trkpt lat="41.88591613199276" lon="14.258023999857041"><ele>785.4</ele><time>2026-05-02T09:26:27Z</time></trkpt><trkpt lat="41.885819429738525" lon="14.257934592695728"><ele>786.6</ele><time>2026-05-02T09:26:28Z</time></trkpt><trkpt lat="41.885734541350935" lon="14.25783362916045"><ele>787.8000000000001</ele><time>2026-05-02T09:26:29Z</time></trkpt><trkpt lat="41.88563450458389" lon="14.257753033952147"><ele>789.0</ele><time>2026-05-02T09:26:30Z</time></trkpt><trkpt lat="41.88554497891088" lon="14.257682814731542"><ele>789.0</ele><time>2026-05-02T09:26:31Z</time></trkpt><trkpt lat="41.885450759506895" lon="14.257637959976389"><ele>789.0</ele><time>2026-05-02T09:26:32Z</time></trkpt><trkpt lat="41.885356651830556" lon="14.257593749455143"><ele>789.0</ele><time>2026-05-02T09:26:33Z</time></trkpt><trkpt lat="41.885267812156734" lon="14.257557483830997"><ele>789.0</ele><time>2026-05-02T09:26:34Z</time></trkpt><trkpt lat="41.8851819838363" lon="14.257509621384644"><ele>789.0</ele><time>2026-05-02T09:26:35Z</time></trkpt><trkpt lat="41.88509583241202" lon="14.257451841539876"><ele>789.8000000000001</ele><time>2026-05-02T09:26:36Z</time></trkpt><trkpt lat="41.88501448837064" lon="14.257392704887858"><ele>790.6</ele><time>2026-05-02T09:26:37Z</time></trkpt><trkpt lat="41.88493848621618" lon="14.257323073511618"><ele>791.4</ele><time>2026-05-02T09:26:38Z</time></trkpt><trkpt lat="41.884862105160124" lon="14.257248754199605"><ele>792.2</ele><time>2026-05-02T09:26:39Z</time></trkpt><trkpt lat="41.884786983053665" lon="14.25718376381209"><ele>793.0</ele><time>2026-05-02T09:26:40Z</time></trkpt><trkpt lat="41.88471233992589" lon="14.25712319629391"><ele>792.9999999999999</ele><time>2026-05-02T09:26:41Z</time></trkpt><trkpt lat="41.88464616386162" lon="14.25704543007382"><ele>793.0</ele><time>2026-05-02T09:26:42Z</time></trkpt><trkpt lat="41.884573045541245" lon="14.256964204580367"><ele>793.0</ele><time>2026-05-02T09:26:43Z</time></trkpt><trkpt lat="41.884504661468426" lon="14.256897531195037"><ele>793.0</ele><time>2026-05-02T09:26:44Z</time></trkpt><trkpt lat="41.884432387746585" lon="14.256825490885557"><ele>792.9999999999999</ele><time>2026-05-02T09:26:45Z</time></trkpt><trkpt lat="41.884380219609554" lon="14.256771533964782"><ele>793.0</ele><time>2026-05-02T09:26:46Z</time></trkpt><trkpt lat="41.88430284289389" lon="14.256714026989666"><ele>793.3333333333333</ele><time>2026-05-02T09:26:47Z</time></trkpt><trkpt lat="41.884247817415435" lon="14.256651225085466"><ele>793.6666666666666</ele><time>2026-05-02T09:26:48Z</time></trkpt><trkpt lat="41.8841810351853" lon="14.256581174319473"><ele>794.0</ele><time>2026-05-02T09:26:49Z</time></trkpt><trkpt lat="41.884131587434204" lon="14.256494669000556"><ele>794.3333333333333</ele><time>2026-05-02T09:26:50Z</time></trkpt><trkpt lat="41.884071822909846" lon="14.256421646590772"><ele>794.6666666666666</ele><time>2026-05-02T09:26:51Z</time></trkpt><trkpt lat="41.88400013179208" lon="14.256334484696573"><ele>795.0</ele><time>2026-05-02T09:26:52Z</time></trkpt><trkpt lat="41.88393311630792" lon="14.256276799473934"><ele>795.0</ele><time>2026-05-02T09:26:53Z</time></trkpt><trkpt lat="41.8838775214919" lon="14.256196823154648"><ele>795.0</ele><time>2026-05-02T09:26:54Z</time></trkpt><trkpt lat="41.883819455326595" lon="14.256118934867088"><ele>795.0</ele><time>2026-05-02T09:26:55Z</time></trkpt><trkpt lat="41.883757113899456" lon="14.256049036073863"><ele>795.0</ele><time>2026-05-02T09:26:56Z</time></trkpt><trkpt lat="41.88369705106873" lon="14.255965985027137"><ele>795.0</ele><time>2026-05-02T09:26:57Z</time></trkpt><trkpt lat="41.88363781887924" lon="14.255909700558934"><ele>795.0</ele><time>2026-05-02T09:26:58Z</time></trkpt><trkpt lat="41.88357948909019" lon="14.255850860800646"><ele>795.0</ele><time>2026-05-02T09:26:59Z</time></trkpt><trkpt lat="41.88351897569884" lon="14.255789708270292"><ele>795.0</ele><time>2026-05-02T09:27:00Z</time></trkpt><trkpt lat="41.883434776821986" lon="14.255793152444419"><ele>795.0</ele><time>2026-05-02T09:27:01Z</time></trkpt><trkpt lat="41.88336937051763" lon="14.255767077455218"><ele>795.0</ele><time>2026-05-02T09:27:02Z</time></trkpt><trkpt lat="41.883298450971175" lon="14.255779568883543"><ele>795.0</ele><time>2026-05-02T09:27:03Z</time></trkpt><trkpt lat="41.883226803850754" lon="14.255759329743883"><ele>795.0</ele><time>2026-05-02T09:27:04Z</time></trkpt><trkpt lat="41.883153108626445" lon="14.255756220446843"><ele>795.0</ele><time>2026-05-02T09:27:05Z</time></trkpt><trkpt lat="41.88307626396152" lon="14.25577503640669"><ele>796.8333333333334</ele><time>2026-05-02T09:27:06Z</time></trkpt><trkpt lat="41.88300353810224" lon="14.255751762449966"><ele>798.6666666666667</ele><time>2026-05-02T09:27:07Z</time></trkpt><trkpt lat="41.88293353713929" lon="14.255749567764852"><ele>800.5</ele><time>2026-05-02T09:27:08Z</time></trkpt><trkpt lat="41.88286386911641" lon="14.255748017528264"><ele>802.3333333333334</ele><time>2026-05-02T09:27:09Z</time></trkpt><trkpt lat="41.88274006358696" lon="14.255744465813589"><ele>804.1666666666667</ele><time>2026-05-02T09:27:11Z</time></trkpt><trkpt lat="41.882671868350656" lon="14.255733873068634"><ele>806.0</ele><time>2026-05-02T09:27:12Z</time></trkpt><trkpt lat="41.88259881763553" lon="14.255705806126842"><ele>804.75</ele><time>2026-05-02T09:27:13Z</time></trkpt><trkpt lat="41.88244629664202" lon="14.255569546310857"><ele>803.5</ele><time>2026-05-02T09:27:15Z</time></trkpt><trkpt lat="41.882306161478375" lon="14.255556592954305"><ele>802.25</ele><time>2026-05-02T09:27:17Z</time></trkpt><trkpt lat="41.88221589945858" lon="14.25554957725313"><ele>801.0</ele><time>2026-05-02T09:27:18Z</time></trkpt><trkpt lat="41.88212824596649" lon="14.255529456128768"><ele>801.0</ele><time>2026-05-02T09:27:19Z</time></trkpt><trkpt lat="41.882047660984355" lon="14.25551618470802"><ele>801.0</ele><time>2026-05-02T09:27:20Z</time></trkpt><trkpt lat="41.881950490401515" lon="14.255507538231814"><ele>801.0</ele><time>2026-05-02T09:27:21Z</time></trkpt><trkpt lat="41.88187409589217" lon="14.255456417026288"><ele>801.0</ele><time>2026-05-02T09:27:22Z</time></trkpt><trkpt lat="41.88179082495933" lon="14.255429666744481"><ele>801.0</ele><time>2026-05-02T09:27:23Z</time></trkpt><trkpt lat="41.88171677981084" lon="14.255395927801134"><ele>801.0</ele><time>2026-05-02T09:27:24Z</time></trkpt><trkpt lat="41.881637993525096" lon="14.255369221447452"><ele>800.8333333333334</ele><time>2026-05-02T09:27:25Z</time></trkpt><trkpt lat="41.881558021701785" lon="14.255347969460207"><ele>800.6666666666667</ele><time>2026-05-02T09:27:26Z</time></trkpt><trkpt lat="41.88148842215894" lon="14.255319957513754"><ele>800.5</ele><time>2026-05-02T09:27:27Z</time></trkpt><trkpt lat="41.881415678820986" lon="14.255265849895487"><ele>800.3333333333334</ele><time>2026-05-02T09:27:28Z</time></trkpt><trkpt lat="41.881354549776184" lon="14.255191742488716"><ele>800.1666666666667</ele><time>2026-05-02T09:27:29Z</time></trkpt><trkpt lat="41.8813063648827" lon="14.255079239976007"><ele>800.0</ele><time>2026-05-02T09:27:30Z</time></trkpt><trkpt lat="41.88119112375551" lon="14.255040039187227"><ele>800.0</ele><time>2026-05-02T09:27:31Z</time></trkpt><trkpt lat="41.881079311219715" lon="14.25499038686276"><ele>800.0</ele><time>2026-05-02T09:27:32Z</time></trkpt><trkpt lat="41.88098353306904" lon="14.25491656632359"><ele>800.0</ele><time>2026-05-02T09:27:33Z</time></trkpt><trkpt lat="41.88094572133753" lon="14.254784340432334"><ele>800.0</ele><time>2026-05-02T09:27:34Z</time></trkpt><trkpt lat="41.88091385330871" lon="14.254664077420891"><ele>800.0</ele><time>2026-05-02T09:27:35Z</time></trkpt><trkpt lat="41.8808992094714" lon="14.25453138865624"><ele>799.25</ele><time>2026-05-02T09:27:36Z</time></trkpt><trkpt lat="41.88085625642839" lon="14.25438755094657"><ele>798.5</ele><time>2026-05-02T09:27:37Z</time></trkpt><trkpt lat="41.88078151876619" lon="14.254244789666918"><ele>797.75</ele><time>2026-05-02T09:27:38Z</time></trkpt><trkpt lat="41.880695017454514" lon="14.254115910298319"><ele>797.0</ele><time>2026-05-02T09:27:39Z</time></trkpt><trkpt lat="41.88060674700964" lon="14.253986608380226"><ele>794.0</ele><time>2026-05-02T09:27:40Z</time></trkpt><trkpt lat="41.88052249089887" lon="14.253859274378602"><ele>791.0</ele><time>2026-05-02T09:27:41Z</time></trkpt><trkpt lat="41.88043236761633" lon="14.253722262337437"><ele>788.0</ele><time>2026-05-02T09:27:42Z</time></trkpt><trkpt lat="41.88032566230542" lon="14.253592714415472"><ele>785.0</ele><time>2026-05-02T09:27:43Z</time></trkpt><trkpt lat="41.88023426963928" lon="14.253436813468454"><ele>785.0</ele><time>2026-05-02T09:27:44Z</time></trkpt><trkpt lat="41.88014131783057" lon="14.25327219725542"><ele>785.0</ele><time>2026-05-02T09:27:45Z</time></trkpt><trkpt lat="41.88006194075119" lon="14.253105220218718"><ele>785.0</ele><time>2026-05-02T09:27:46Z</time></trkpt><trkpt lat="41.87998589047486" lon="14.25294187201669"><ele>785.0</ele><time>2026-05-02T09:27:47Z</time></trkpt><trkpt lat="41.87991108545723" lon="14.252778923860932"><ele>785.0</ele><time>2026-05-02T09:27:48Z</time></trkpt><trkpt lat="41.879846172981516" lon="14.252585595967288"><ele>785.0</ele><time>2026-05-02T09:27:49Z</time></trkpt><trkpt lat="41.879799569414665" lon="14.252374495068398"><ele>785.0</ele><time>2026-05-02T09:27:50Z</time></trkpt><trkpt lat="41.87975771264752" lon="14.25214883651736"><ele>781.6666666666667</ele><time>2026-05-02T09:27:51Z</time></trkpt><trkpt lat="41.87972097515268" lon="14.251917722988257"><ele>778.3333333333333</ele><time>2026-05-02T09:27:52Z</time></trkpt><trkpt lat="41.879683372147596" lon="14.251680821711076"><ele>775.0</ele><time>2026-05-02T09:27:53Z</time></trkpt><trkpt lat="41.87963581248641" lon="14.251449036668879"><ele>772.6666666666666</ele><time>2026-05-02T09:27:54Z</time></trkpt><trkpt lat="41.87958709487269" lon="14.251221239630446"><ele>770.3333333333333</ele><time>2026-05-02T09:27:55Z</time></trkpt><trkpt lat="41.87953754010669" lon="14.250999850877575"><ele>768.0</ele><time>2026-05-02T09:27:56Z</time></trkpt><trkpt lat="41.87948236646733" lon="14.2507932573753"><ele>766.6666666666666</ele><time>2026-05-02T09:27:57Z</time></trkpt><trkpt lat="41.87942653380447" lon="14.250594011508472"><ele>765.3333333333333</ele><time>2026-05-02T09:27:58Z</time></trkpt><trkpt lat="41.8793731624367" lon="14.25040349717052"><ele>764.0</ele><time>2026-05-02T09:27:59Z</time></trkpt><trkpt lat="41.87932132998586" lon="14.250218500825941"><ele>764.0</ele><time>2026-05-02T09:28:00Z</time></trkpt><trkpt lat="41.87927717788544" lon="14.250051743854991"><ele>764.0</ele><time>2026-05-02T09:28:01Z</time></trkpt><trkpt lat="41.879244534958936" lon="14.2499044362928"><ele>764.0</ele><time>2026-05-02T09:28:02Z</time></trkpt><trkpt lat="41.879231174137786" lon="14.249746214831317"><ele>764.0</ele><time>2026-05-02T09:28:03Z</time></trkpt><trkpt lat="41.879257923815125" lon="14.249574972692246"><ele>763.75</ele><time>2026-05-02T09:28:04Z</time></trkpt><trkpt lat="41.8793150594966" lon="14.249408914008704"><ele>763.5</ele><time>2026-05-02T09:28:05Z</time></trkpt><trkpt lat="41.87941297605236" lon="14.249270661496485"><ele>763.25</ele><time>2026-05-02T09:28:06Z</time></trkpt><trkpt lat="41.87952061199252" lon="14.249124302844946"><ele>763.0</ele><time>2026-05-02T09:28:07Z</time></trkpt><trkpt lat="41.87962107739368" lon="14.248963738557235"><ele>763.5</ele><time>2026-05-02T09:28:08Z</time></trkpt><trkpt lat="41.87973481585346" lon="14.248827827394372"><ele>764.0</ele><time>2026-05-02T09:28:09Z</time></trkpt><trkpt lat="41.879840406674454" lon="14.248708497842834"><ele>764.5</ele><time>2026-05-02T09:28:10Z</time></trkpt><trkpt lat="41.87995853918633" lon="14.248624375981244"><ele>765.0</ele><time>2026-05-02T09:28:11Z</time></trkpt><trkpt lat="41.88010513931777" lon="14.248580744188589"><ele>761.6666666666666</ele><time>2026-05-02T09:28:12Z</time></trkpt><trkpt lat="41.88025459809925" lon="14.248568752121775"><ele>758.3333333333333</ele><time>2026-05-02T09:28:13Z</time></trkpt><trkpt lat="41.88041323255334" lon="14.248590285229888"><ele>755.0</ele><time>2026-05-02T09:28:14Z</time></trkpt><trkpt lat="41.88056506618136" lon="14.24864798835991"><ele>755.0</ele><time>2026-05-02T09:28:15Z</time></trkpt><trkpt lat="41.880711603910505" lon="14.248721640661334"><ele>755.0</ele><time>2026-05-02T09:28:16Z</time></trkpt><trkpt lat="41.88085655754427" lon="14.248831182440446"><ele>755.0</ele><time>2026-05-02T09:28:17Z</time></trkpt><trkpt lat="41.88098579067735" lon="14.248980040627869"><ele>753.0</ele><time>2026-05-02T09:28:18Z</time></trkpt><trkpt lat="41.8810998444818" lon="14.249149957533387"><ele>751.0</ele><time>2026-05-02T09:28:19Z</time></trkpt><trkpt lat="41.881204242495166" lon="14.249339954319325"><ele>749.0</ele><time>2026-05-02T09:28:20Z</time></trkpt><trkpt lat="41.881313178792105" lon="14.2495263943952"><ele>749.0</ele><time>2026-05-02T09:28:21Z</time></trkpt><trkpt lat="41.88141837525973" lon="14.24969562166781"><ele>749.0</ele><time>2026-05-02T09:28:22Z</time></trkpt><trkpt lat="41.881514525152255" lon="14.249847371367194"><ele>749.0</ele><time>2026-05-02T09:28:23Z</time></trkpt><trkpt lat="41.88160115158588" lon="14.24997813462824"><ele>749.0</ele><time>2026-05-02T09:28:24Z</time></trkpt><trkpt lat="41.88168945312547" lon="14.250071494896412"><ele>746.75</ele><time>2026-05-02T09:28:25Z</time></trkpt><trkpt lat="41.88180150539799" lon="14.250136206865541"><ele>744.5</ele><time>2026-05-02T09:28:26Z</time></trkpt><trkpt lat="41.88192036957431" lon="14.250184275774114"><ele>742.25</ele><time>2026-05-02T09:28:27Z</time></trkpt><trkpt lat="41.88205099074496" lon="14.250219352431731"><ele>740.0</ele><time>2026-05-02T09:28:28Z</time></trkpt><trkpt lat="41.882174004597346" lon="14.250279442144393"><ele>740.0</ele><time>2026-05-02T09:28:29Z</time></trkpt><trkpt lat="41.88229417652498" lon="14.250376284902085"><ele>740.0</ele><time>2026-05-02T09:28:30Z</time></trkpt><trkpt lat="41.88239264343437" lon="14.250523175407167"><ele>740.0</ele><time>2026-05-02T09:28:31Z</time></trkpt><trkpt lat="41.88247084697836" lon="14.25069122655421"><ele>740.0</ele><time>2026-05-02T09:28:32Z</time></trkpt><trkpt lat="41.88253843406832" lon="14.25084965878196"><ele>738.6</ele><time>2026-05-02T09:28:33Z</time></trkpt><trkpt lat="41.88258252484158" lon="14.25098263698174"><ele>737.2</ele><time>2026-05-02T09:28:34Z</time></trkpt><trkpt lat="41.882643840534435" lon="14.251088911714941"><ele>735.8</ele><time>2026-05-02T09:28:35Z</time></trkpt><trkpt lat="41.882715685714246" lon="14.25115196294435"><ele>734.4</ele><time>2026-05-02T09:28:36Z</time></trkpt><trkpt lat="41.882801588577934" lon="14.251146924605003"><ele>733.0</ele><time>2026-05-02T09:28:37Z</time></trkpt><trkpt lat="41.882858621146944" lon="14.251062664999406"><ele>733.0</ele><time>2026-05-02T09:28:38Z</time></trkpt><trkpt lat="41.88288162508417" lon="14.25096681799776"><ele>733.0</ele><time>2026-05-02T09:28:39Z</time></trkpt><trkpt lat="41.88285065479478" lon="14.250826635980058"><ele>733.0</ele><time>2026-05-02T09:28:40Z</time></trkpt><trkpt lat="41.88280527254078" lon="14.250684065948306"><ele>733.0</ele><time>2026-05-02T09:28:41Z</time></trkpt><trkpt lat="41.88272311559" lon="14.250517572303002"><ele>733.0</ele><time>2026-05-02T09:28:42Z</time></trkpt><trkpt lat="41.88263791634988" lon="14.250321844849681"><ele>732.3333333333334</ele><time>2026-05-02T09:28:43Z</time></trkpt><trkpt lat="41.88257534855547" lon="14.2501259180896"><ele>731.6666666666666</ele><time>2026-05-02T09:28:44Z</time></trkpt><trkpt lat="41.88250028174477" lon="14.249922263894165"><ele>731.0</ele><time>2026-05-02T09:28:45Z</time></trkpt><trkpt lat="41.88242922148174" lon="14.249746703722419"><ele>731.0</ele><time>2026-05-02T09:28:46Z</time></trkpt><trkpt lat="41.882395511393106" lon="14.249591672378962"><ele>731.0</ele><time>2026-05-02T09:28:47Z</time></trkpt><trkpt lat="41.88238008154692" lon="14.249467220783929"><ele>731.0</ele><time>2026-05-02T09:28:48Z</time></trkpt><trkpt lat="41.882378250002574" lon="14.24936755845101"><ele>731.0</ele><time>2026-05-02T09:28:49Z</time></trkpt><trkpt lat="41.882429239942546" lon="14.249292936055873"><ele>731.0</ele><time>2026-05-02T09:28:50Z</time></trkpt><trkpt lat="41.88251992657067" lon="14.249278335571258"><ele>731.0</ele><time>2026-05-02T09:28:51Z</time></trkpt><trkpt lat="41.8825898829567" lon="14.249357837378014"><ele>731.0</ele><time>2026-05-02T09:28:52Z</time></trkpt><trkpt lat="41.88265082731587" lon="14.249471667110788"><ele>731.0</ele><time>2026-05-02T09:28:53Z</time></trkpt><trkpt lat="41.8827450034595" lon="14.24961373238096"><ele>731.0</ele><time>2026-05-02T09:28:54Z</time></trkpt><trkpt lat="41.88284151234991" lon="14.249780452606942"><ele>729.5</ele><time>2026-05-02T09:28:55Z</time></trkpt><trkpt lat="41.882930897433155" lon="14.249932779807429"><ele>728.0</ele><time>2026-05-02T09:28:56Z</time></trkpt><trkpt lat="41.8830014399711" lon="14.250075714730723"><ele>726.5</ele><time>2026-05-02T09:28:57Z</time></trkpt><trkpt lat="41.883109035059945" lon="14.250161551919824"><ele>725.0</ele><time>2026-05-02T09:28:58Z</time></trkpt><trkpt lat="41.883272779818554" lon="14.250178313280303"><ele>721.0</ele><time>2026-05-02T09:28:59Z</time></trkpt><trkpt lat="41.883452896462465" lon="14.250226560263817"><ele>717.0</ele><time>2026-05-02T09:29:00Z</time></trkpt><trkpt lat="41.88363825183224" lon="14.250261267752249"><ele>713.0</ele><time>2026-05-02T09:29:01Z</time></trkpt><trkpt lat="41.88382450651808" lon="14.250309183909163"><ele>713.0</ele><time>2026-05-02T09:29:02Z</time></trkpt><trkpt lat="41.88401152610327" lon="14.250351174986328"><ele>713.0</ele><time>2026-05-02T09:29:03Z</time></trkpt><trkpt lat="41.88417899892205" lon="14.250394699164033"><ele>713.0</ele><time>2026-05-02T09:29:04Z</time></trkpt><trkpt lat="41.88433046079007" lon="14.250427922382537"><ele>712.0</ele><time>2026-05-02T09:29:05Z</time></trkpt><trkpt lat="41.88445555828331" lon="14.250525703498019"><ele>711.0</ele><time>2026-05-02T09:29:06Z</time></trkpt><trkpt lat="41.88457586837822" lon="14.250618274669154"><ele>710.0</ele><time>2026-05-02T09:29:07Z</time></trkpt><trkpt lat="41.8846746033891" lon="14.250778635849617"><ele>709.0</ele><time>2026-05-02T09:29:08Z</time></trkpt><trkpt lat="41.88477061381463" lon="14.250957190223653"><ele>709.0</ele><time>2026-05-02T09:29:09Z</time></trkpt><trkpt lat="41.88486259067722" lon="14.251101178352794"><ele>709.0</ele><time>2026-05-02T09:29:10Z</time></trkpt><trkpt lat="41.88493944206858" lon="14.251214880905124"><ele>709.0</ele><time>2026-05-02T09:29:11Z</time></trkpt><trkpt lat="41.8850140350886" lon="14.251288908154157"><ele>709.0</ele><time>2026-05-02T09:29:12Z</time></trkpt><trkpt lat="41.88509735614885" lon="14.251343690851385"><ele>709.0</ele><time>2026-05-02T09:29:13Z</time></trkpt><trkpt lat="41.88519500099256" lon="14.251350764355905"><ele>706.0</ele><time>2026-05-02T09:29:14Z</time></trkpt><trkpt lat="41.8852698216307" lon="14.251348837675751"><ele>703.0</ele><time>2026-05-02T09:29:15Z</time></trkpt><trkpt lat="41.8853355376963" lon="14.2512935224352"><ele>700.0</ele><time>2026-05-02T09:29:16Z</time></trkpt><trkpt lat="41.88537876605568" lon="14.251185862774815"><ele>697.0</ele><time>2026-05-02T09:29:17Z</time></trkpt><trkpt lat="41.88533719486345" lon="14.251090652918556"><ele>694.0</ele><time>2026-05-02T09:29:18Z</time></trkpt><trkpt lat="41.88526257151364" lon="14.251001315999481"><ele>691.0</ele><time>2026-05-02T09:29:19Z</time></trkpt><trkpt lat="41.88514931903029" lon="14.25091498531093"><ele>692.0</ele><time>2026-05-02T09:29:20Z</time></trkpt><trkpt lat="41.88504880737383" lon="14.25076949708788"><ele>693.0</ele><time>2026-05-02T09:29:21Z</time></trkpt><trkpt lat="41.88496327325057" lon="14.250611905818024"><ele>694.0</ele><time>2026-05-02T09:29:22Z</time></trkpt><trkpt lat="41.88488956119493" lon="14.250429000701281"><ele>695.0</ele><time>2026-05-02T09:29:23Z</time></trkpt><trkpt lat="41.88480804379567" lon="14.250231326253681"><ele>695.0</ele><time>2026-05-02T09:29:24Z</time></trkpt><trkpt lat="41.88473695402768" lon="14.250017091602206"><ele>695.0</ele><time>2026-05-02T09:29:25Z</time></trkpt><trkpt lat="41.88466773993963" lon="14.249796241675968"><ele>695.0</ele><time>2026-05-02T09:29:26Z</time></trkpt><trkpt lat="41.88459215419384" lon="14.249569901923769"><ele>693.3333333333333</ele><time>2026-05-02T09:29:27Z</time></trkpt><trkpt lat="41.88450314709557" lon="14.249349931312954"><ele>691.6666666666666</ele><time>2026-05-02T09:29:28Z</time></trkpt><trkpt lat="41.88441179869563" lon="14.249138314231082"><ele>690.0</ele><time>2026-05-02T09:29:29Z</time></trkpt><trkpt lat="41.884328670890625" lon="14.248928513699346"><ele>692.0</ele><time>2026-05-02T09:29:30Z</time></trkpt><trkpt lat="41.88425734804886" lon="14.248720249728697"><ele>694.0</ele><time>2026-05-02T09:29:31Z</time></trkpt><trkpt lat="41.88419793155023" lon="14.248530785985507"><ele>696.0</ele><time>2026-05-02T09:29:32Z</time></trkpt><trkpt lat="41.88414563277828" lon="14.248375879257605"><ele>696.0</ele><time>2026-05-02T09:29:33Z</time></trkpt><trkpt lat="41.88410338068434" lon="14.248245392010622"><ele>696.0</ele><time>2026-05-02T09:29:34Z</time></trkpt><trkpt lat="41.88408740485819" lon="14.248132283897448"><ele>696.0</ele><time>2026-05-02T09:29:35Z</time></trkpt><trkpt lat="41.88411571888448" lon="14.24802899544903"><ele>696.0</ele><time>2026-05-02T09:29:36Z</time></trkpt><trkpt lat="41.884183875574486" lon="14.247954760298395"><ele>696.0</ele><time>2026-05-02T09:29:37Z</time></trkpt><trkpt lat="41.88429551915197" lon="14.247958391339495"><ele>693.0</ele><time>2026-05-02T09:29:38Z</time></trkpt><trkpt lat="41.88442899241817" lon="14.24795593411771"><ele>690.0</ele><time>2026-05-02T09:29:39Z</time></trkpt><trkpt lat="41.88454975649887" lon="14.247982142286254"><ele>687.0</ele><time>2026-05-02T09:29:40Z</time></trkpt><trkpt lat="41.8846510042464" lon="14.248063745425567"><ele>684.0</ele><time>2026-05-02T09:29:41Z</time></trkpt><trkpt lat="41.88475583162364" lon="14.248169491690815"><ele>684.0</ele><time>2026-05-02T09:29:42Z</time></trkpt><trkpt lat="41.884838347093705" lon="14.24834715790467"><ele>684.0</ele><time>2026-05-02T09:29:43Z</time></trkpt><trkpt lat="41.884926855916284" lon="14.24851336099965"><ele>684.0</ele><time>2026-05-02T09:29:44Z</time></trkpt><trkpt lat="41.88502781726165" lon="14.24862872756418"><ele>684.0</ele><time>2026-05-02T09:29:45Z</time></trkpt><trkpt lat="41.885109444931395" lon="14.248752998129905"><ele>681.75</ele><time>2026-05-02T09:29:46Z</time></trkpt><trkpt lat="41.885182675912475" lon="14.24891546942357"><ele>679.5</ele><time>2026-05-02T09:29:47Z</time></trkpt><trkpt lat="41.885231819960424" lon="14.249091490506775"><ele>677.25</ele><time>2026-05-02T09:29:48Z</time></trkpt><trkpt lat="41.88528712206343" lon="14.249236876868057"><ele>675.0</ele><time>2026-05-02T09:29:49Z</time></trkpt><trkpt lat="41.88533573580543" lon="14.24937557485929"><ele>675.0</ele><time>2026-05-02T09:29:50Z</time></trkpt><trkpt lat="41.885374597429895" lon="14.249488650355373"><ele>675.0</ele><time>2026-05-02T09:29:51Z</time></trkpt><trkpt lat="41.88543441643901" lon="14.249567215185056"><ele>675.0</ele><time>2026-05-02T09:29:52Z</time></trkpt><trkpt lat="41.88551633272334" lon="14.249581279542168"><ele>675.0</ele><time>2026-05-02T09:29:53Z</time></trkpt><trkpt lat="41.88559516954033" lon="14.249536756224346"><ele>675.0</ele><time>2026-05-02T09:29:54Z</time></trkpt><trkpt lat="41.88565349438166" lon="14.249432664470161"><ele>675.0</ele><time>2026-05-02T09:29:55Z</time></trkpt><trkpt lat="41.88567408458559" lon="14.24929878456848"><ele>675.0</ele><time>2026-05-02T09:29:56Z</time></trkpt><trkpt lat="41.88565662582116" lon="14.249147851393326"><ele>675.0</ele><time>2026-05-02T09:29:57Z</time></trkpt><trkpt lat="41.8856157727081" lon="14.248982531423284"><ele>675.0</ele><time>2026-05-02T09:29:58Z</time></trkpt><trkpt lat="41.885605407371834" lon="14.24879929660841"><ele>675.0</ele><time>2026-05-02T09:29:59Z</time></trkpt><trkpt lat="41.8856081263206" lon="14.248618249673296"><ele>674.8333333333334</ele><time>2026-05-02T09:30:00Z</time></trkpt><trkpt lat="41.88562321222767" lon="14.248476949055592"><ele>674.6666666666666</ele><time>2026-05-02T09:30:01Z</time></trkpt><trkpt lat="41.88564596061616" lon="14.248375040837033"><ele>674.5</ele><time>2026-05-02T09:30:02Z</time></trkpt><trkpt lat="41.8856713925842" lon="14.248230062386515"><ele>674.3333333333333</ele><time>2026-05-02T09:30:04Z</time></trkpt><trkpt lat="41.8856624238056" lon="14.248140375739395"><ele>674.1666666666666</ele><time>2026-05-02T09:30:05Z</time></trkpt><trkpt lat="41.885647792366456" lon="14.248033726950231"><ele>674.0</ele><time>2026-05-02T09:30:06Z</time></trkpt><trkpt lat="41.88561052391604" lon="14.247904913486275"><ele>673.8000000000001</ele><time>2026-05-02T09:30:07Z</time></trkpt><trkpt lat="41.88556455979127" lon="14.247774485966406"><ele>673.6</ele><time>2026-05-02T09:30:08Z</time></trkpt><trkpt lat="41.88550885371849" lon="14.247644803409054"><ele>673.4</ele><time>2026-05-02T09:30:09Z</time></trkpt><trkpt lat="41.885437701091504" lon="14.247547692011544"><ele>673.2</ele><time>2026-05-02T09:30:10Z</time></trkpt><trkpt lat="41.885343994366245" lon="14.247484285459597"><ele>673.0</ele><time>2026-05-02T09:30:11Z</time></trkpt><trkpt lat="41.88523216961827" lon="14.247442250196732"><ele>673.0</ele><time>2026-05-02T09:30:12Z</time></trkpt><trkpt lat="41.88510106543718" lon="14.247437206808687"><ele>673.0</ele><time>2026-05-02T09:30:13Z</time></trkpt><trkpt lat="41.88496397833086" lon="14.247431857572266"><ele>673.0</ele><time>2026-05-02T09:30:14Z</time></trkpt><trkpt lat="41.8848476672892" lon="14.24739988910791"><ele>673.0</ele><time>2026-05-02T09:30:15Z</time></trkpt><trkpt lat="41.88474645728734" lon="14.247342812736331"><ele>674.25</ele><time>2026-05-02T09:30:16Z</time></trkpt><trkpt lat="41.88466200945668" lon="14.247247139788863"><ele>675.5</ele><time>2026-05-02T09:30:17Z</time></trkpt><trkpt lat="41.88456765422248" lon="14.247131681017958"><ele>676.75</ele><time>2026-05-02T09:30:18Z</time></trkpt><trkpt lat="41.88445894663133" lon="14.247002099049524"><ele>678.0</ele><time>2026-05-02T09:30:19Z</time></trkpt><trkpt lat="41.88434062326125" lon="14.24686021809846"><ele>678.0</ele><time>2026-05-02T09:30:20Z</time></trkpt><trkpt lat="41.88422085311463" lon="14.246692835762188"><ele>678.0</ele><time>2026-05-02T09:30:21Z</time></trkpt><trkpt lat="41.884097925056395" lon="14.246526247955432"><ele>678.0</ele><time>2026-05-02T09:30:22Z</time></trkpt><trkpt lat="41.883966952419584" lon="14.246348771600417"><ele>679.3333333333334</ele><time>2026-05-02T09:30:23Z</time></trkpt><trkpt lat="41.88384236025837" lon="14.246160921405673"><ele>680.6666666666667</ele><time>2026-05-02T09:30:24Z</time></trkpt><trkpt lat="41.883709612292456" lon="14.245967681990246"><ele>682.0</ele><time>2026-05-02T09:30:25Z</time></trkpt><trkpt lat="41.88357541623502" lon="14.245768774580087"><ele>682.0</ele><time>2026-05-02T09:30:26Z</time></trkpt><trkpt lat="41.88344431220065" lon="14.245572208735673"><ele>682.0</ele><time>2026-05-02T09:30:27Z</time></trkpt><trkpt lat="41.88330591220939" lon="14.245358486950353"><ele>682.0</ele><time>2026-05-02T09:30:28Z</time></trkpt><trkpt lat="41.88315714225501" lon="14.24514432187537"><ele>682.0</ele><time>2026-05-02T09:30:29Z</time></trkpt><trkpt lat="41.88301305406256" lon="14.244922530661462"><ele>682.0</ele><time>2026-05-02T09:30:30Z</time></trkpt><trkpt lat="41.88286514075969" lon="14.244701972640662"><ele>682.0</ele><time>2026-05-02T09:30:31Z</time></trkpt><trkpt lat="41.88271581125722" lon="14.244474545268721"><ele>683.0</ele><time>2026-05-02T09:30:32Z</time></trkpt><trkpt lat="41.88256699860319" lon="14.244243439037001"><ele>684.0</ele><time>2026-05-02T09:30:33Z</time></trkpt><trkpt lat="41.88241733004787" lon="14.24401243117731"><ele>690.0</ele><time>2026-05-02T09:30:34Z</time></trkpt><trkpt lat="41.88226764798083" lon="14.243784994554844"><ele>696.0</ele><time>2026-05-02T09:30:35Z</time></trkpt><trkpt lat="41.88211723134659" lon="14.243557245882462"><ele>696.0</ele><time>2026-05-02T09:30:36Z</time></trkpt><trkpt lat="41.88197162598084" lon="14.243332800908037"><ele>696.0</ele><time>2026-05-02T09:30:37Z</time></trkpt><trkpt lat="41.88181916722026" lon="14.243112325024889"><ele>696.0</ele><time>2026-05-02T09:30:38Z</time></trkpt><trkpt lat="41.88167202390284" lon="14.24288735840302"><ele>697.0</ele><time>2026-05-02T09:30:39Z</time></trkpt><trkpt lat="41.88153065445429" lon="14.242657929001348"><ele>698.0</ele><time>2026-05-02T09:30:40Z</time></trkpt><trkpt lat="41.881385421757976" lon="14.24244530585606"><ele>699.0</ele><time>2026-05-02T09:30:41Z</time></trkpt><trkpt lat="41.88123970378009" lon="14.242223630970981"><ele>699.0</ele><time>2026-05-02T09:30:42Z</time></trkpt><trkpt lat="41.88109191152807" lon="14.242007002134189"><ele>699.0</ele><time>2026-05-02T09:30:43Z</time></trkpt><trkpt lat="41.88094738624843" lon="14.24178189430796"><ele>699.0</ele><time>2026-05-02T09:30:44Z</time></trkpt><trkpt lat="41.880798657186894" lon="14.241562281700617"><ele>697.3333333333334</ele><time>2026-05-02T09:30:45Z</time></trkpt><trkpt lat="41.88065138304772" lon="14.241345532839466"><ele>695.6666666666667</ele><time>2026-05-02T09:30:46Z</time></trkpt><trkpt lat="41.88050646924061" lon="14.241126294598192"><ele>694.0</ele><time>2026-05-02T09:30:47Z</time></trkpt><trkpt lat="41.88036560946792" lon="14.240902636706005"><ele>694.0</ele><time>2026-05-02T09:30:48Z</time></trkpt><trkpt lat="41.88022878251496" lon="14.240672644601178"><ele>694.0</ele><time>2026-05-02T09:30:49Z</time></trkpt><trkpt lat="41.88010055605423" lon="14.240435818582283"><ele>694.0</ele><time>2026-05-02T09:30:50Z</time></trkpt><trkpt lat="41.8799790860601" lon="14.240199180058424"><ele>694.6666666666667</ele><time>2026-05-02T09:30:51Z</time></trkpt><trkpt lat="41.8798665531951" lon="14.239946305670959"><ele>695.3333333333334</ele><time>2026-05-02T09:30:52Z</time></trkpt><trkpt lat="41.879759152012376" lon="14.239692290747714"><ele>696.0</ele><time>2026-05-02T09:30:53Z</time></trkpt><trkpt lat="41.879661092980065" lon="14.23942938491702"><ele>696.0</ele><time>2026-05-02T09:30:54Z</time></trkpt><trkpt lat="41.87957475425015" lon="14.239159571117954"><ele>696.0</ele><time>2026-05-02T09:30:55Z</time></trkpt><trkpt lat="41.87949050856598" lon="14.238883164332359"><ele>696.0</ele><time>2026-05-02T09:30:56Z</time></trkpt><trkpt lat="41.87942175025221" lon="14.23860344365166"><ele>697.3333333333334</ele><time>2026-05-02T09:30:57Z</time></trkpt><trkpt lat="41.879361192355944" lon="14.238326488681764"><ele>698.6666666666667</ele><time>2026-05-02T09:30:58Z</time></trkpt><trkpt lat="41.879308789809805" lon="14.23804358594487"><ele>700.0</ele><time>2026-05-02T09:30:59Z</time></trkpt><trkpt lat="41.87926345480364" lon="14.237757965672525"><ele>697.6666666666667</ele><time>2026-05-02T09:31:00Z</time></trkpt><trkpt lat="41.879224653650624" lon="14.237473222052426"><ele>695.3333333333334</ele><time>2026-05-02T09:31:01Z</time></trkpt><trkpt lat="41.87918883513126" lon="14.23718496846072"><ele>693.0</ele><time>2026-05-02T09:31:02Z</time></trkpt><trkpt lat="41.879152401417194" lon="14.236897204013422"><ele>693.0</ele><time>2026-05-02T09:31:03Z</time></trkpt><trkpt lat="41.879113805366714" lon="14.236612022657082"><ele>693.0</ele><time>2026-05-02T09:31:04Z</time></trkpt><trkpt lat="41.87907732488846" lon="14.236325594670706"><ele>693.0</ele><time>2026-05-02T09:31:05Z</time></trkpt><trkpt lat="41.87903718961123" lon="14.236042623432455"><ele>693.3333333333334</ele><time>2026-05-02T09:31:06Z</time></trkpt><trkpt lat="41.878994437599644" lon="14.235751320000906"><ele>693.6666666666667</ele><time>2026-05-02T09:31:07Z</time></trkpt><trkpt lat="41.878955569991774" lon="14.235461233190192"><ele>694.0</ele><time>2026-05-02T09:31:08Z</time></trkpt><trkpt lat="41.87891476468675" lon="14.235176551403955"><ele>696.3333333333334</ele><time>2026-05-02T09:31:09Z</time></trkpt><trkpt lat="41.878878722301586" lon="14.234889450888234"><ele>698.6666666666666</ele><time>2026-05-02T09:31:10Z</time></trkpt><trkpt lat="41.87883675434929" lon="14.234602409212295"><ele>701.0</ele><time>2026-05-02T09:31:11Z</time></trkpt><trkpt lat="41.87879361450948" lon="14.234316426101481"><ele>703.3333333333333</ele><time>2026-05-02T09:31:12Z</time></trkpt><trkpt lat="41.878750462904705" lon="14.234034216576477"><ele>705.6666666666666</ele><time>2026-05-02T09:31:13Z</time></trkpt><trkpt lat="41.878704511039096" lon="14.233747642852864"><ele>708.0</ele><time>2026-05-02T09:31:14Z</time></trkpt><trkpt lat="41.87864827520005" lon="14.233458722994799"><ele>708.6666666666666</ele><time>2026-05-02T09:31:15Z</time></trkpt><trkpt lat="41.878604563104446" lon="14.233168814779862"><ele>709.3333333333333</ele><time>2026-05-02T09:31:16Z</time></trkpt><trkpt lat="41.878542369913816" lon="14.232887409034587"><ele>710.0</ele><time>2026-05-02T09:31:17Z</time></trkpt><trkpt lat="41.878460576847196" lon="14.232616562139423"><ele>708.0</ele><time>2026-05-02T09:31:18Z</time></trkpt><trkpt lat="41.87839070956383" lon="14.232350053074807"><ele>706.0</ele><time>2026-05-02T09:31:19Z</time></trkpt><trkpt lat="41.87831260060202" lon="14.232075046676387"><ele>704.0</ele><time>2026-05-02T09:31:20Z</time></trkpt><trkpt lat="41.87823073730993" lon="14.231801785186425"><ele>704.0</ele><time>2026-05-02T09:31:21Z</time></trkpt><trkpt lat="41.87813837849616" lon="14.231538055738366"><ele>704.0</ele><time>2026-05-02T09:31:22Z</time></trkpt><trkpt lat="41.878043169037056" lon="14.231273561601446"><ele>704.0</ele><time>2026-05-02T09:31:23Z</time></trkpt><trkpt lat="41.87794386991865" lon="14.231011868172143"><ele>706.3333333333333</ele><time>2026-05-02T09:31:24Z</time></trkpt><trkpt lat="41.87784287346788" lon="14.230749285653994"><ele>708.6666666666666</ele><time>2026-05-02T09:31:25Z</time></trkpt><trkpt lat="41.87773996435491" lon="14.230487778552163"><ele>711.0</ele><time>2026-05-02T09:31:26Z</time></trkpt><trkpt lat="41.877638115789345" lon="14.230223390099964"><ele>710.0</ele><time>2026-05-02T09:31:27Z</time></trkpt><trkpt lat="41.87753306643323" lon="14.229956605176495"><ele>709.0</ele><time>2026-05-02T09:31:28Z</time></trkpt><trkpt lat="41.87742301958004" lon="14.229690200008877"><ele>709.0</ele><time>2026-05-02T09:31:29Z</time></trkpt><trkpt lat="41.87730611789726" lon="14.229433230296765"><ele>709.0</ele><time>2026-05-02T09:31:30Z</time></trkpt><trkpt lat="41.87718361637217" lon="14.229179259113453"><ele>717.0</ele><time>2026-05-02T09:31:31Z</time></trkpt><trkpt lat="41.87707257426508" lon="14.2289199639342"><ele>725.0</ele><time>2026-05-02T09:31:32Z</time></trkpt><trkpt lat="41.876953830813136" lon="14.22866024214926"><ele>725.0</ele><time>2026-05-02T09:31:33Z</time></trkpt><trkpt lat="41.876833534515114" lon="14.228401872735578"><ele>725.0</ele><time>2026-05-02T09:31:34Z</time></trkpt><trkpt lat="41.87667120525969" lon="14.22817787537653"><ele>724.5</ele><time>2026-05-02T09:31:35Z</time></trkpt><trkpt lat="41.876537283744604" lon="14.22792695992142"><ele>724.0</ele><time>2026-05-02T09:31:36Z</time></trkpt><trkpt lat="41.87640182439986" lon="14.227677670197819"><ele>724.0</ele><time>2026-05-02T09:31:37Z</time></trkpt><trkpt lat="41.87626450726494" lon="14.227435507075931"><ele>724.0</ele><time>2026-05-02T09:31:38Z</time></trkpt><trkpt lat="41.87612454991367" lon="14.227188059848409"><ele>722.5</ele><time>2026-05-02T09:31:39Z</time></trkpt><trkpt lat="41.87598139083196" lon="14.226941320246366"><ele>721.0</ele><time>2026-05-02T09:31:40Z</time></trkpt><trkpt lat="41.875834585957975" lon="14.226693490662106"><ele>726.0</ele><time>2026-05-02T09:31:41Z</time></trkpt><trkpt lat="41.87568652159055" lon="14.226447813802848"><ele>731.0</ele><time>2026-05-02T09:31:42Z</time></trkpt><trkpt lat="41.875538704979846" lon="14.226201417901173"><ele>731.0</ele><time>2026-05-02T09:31:43Z</time></trkpt><trkpt lat="41.87538945113124" lon="14.225954161865369"><ele>731.0</ele><time>2026-05-02T09:31:44Z</time></trkpt><trkpt lat="41.87523908165857" lon="14.225698650698488"><ele>728.5</ele><time>2026-05-02T09:31:45Z</time></trkpt><trkpt lat="41.87508143136081" lon="14.225456212361081"><ele>726.0</ele><time>2026-05-02T09:31:46Z</time></trkpt><trkpt lat="41.87491980747078" lon="14.225223625666796"><ele>726.0</ele><time>2026-05-02T09:31:47Z</time></trkpt><trkpt lat="41.87475644056264" lon="14.224992945872108"><ele>726.0</ele><time>2026-05-02T09:31:48Z</time></trkpt><trkpt lat="41.874589941623306" lon="14.224764575693309"><ele>730.5</ele><time>2026-05-02T09:31:49Z</time></trkpt><trkpt lat="41.874419388891276" lon="14.224540038791627"><ele>735.0</ele><time>2026-05-02T09:31:50Z</time></trkpt><trkpt lat="41.874242990761566" lon="14.224321096934741"><ele>730.0</ele><time>2026-05-02T09:31:51Z</time></trkpt><trkpt lat="41.87405898644879" lon="14.224110779444718"><ele>725.0</ele><time>2026-05-02T09:31:52Z</time></trkpt><trkpt lat="41.87387031506623" lon="14.223909172757654"><ele>725.0</ele><time>2026-05-02T09:31:53Z</time></trkpt><trkpt lat="41.87367435365176" lon="14.223719983758926"><ele>725.0</ele><time>2026-05-02T09:31:54Z</time></trkpt><trkpt lat="41.87347487196844" lon="14.2235388631887"><ele>719.0</ele><time>2026-05-02T09:31:55Z</time></trkpt><trkpt lat="41.873270356686234" lon="14.223377046512763"><ele>713.0</ele><time>2026-05-02T09:31:56Z</time></trkpt><trkpt lat="41.87305633623817" lon="14.223226322988413"><ele>715.5</ele><time>2026-05-02T09:31:57Z</time></trkpt><trkpt lat="41.872836357427914" lon="14.223086563823436"><ele>718.0</ele><time>2026-05-02T09:31:58Z</time></trkpt><trkpt lat="41.872617408847084" lon="14.22295541750676"><ele>716.0</ele><time>2026-05-02T09:31:59Z</time></trkpt><trkpt lat="41.872393119639135" lon="14.22284019091893"><ele>714.0</ele><time>2026-05-02T09:32:00Z</time></trkpt><trkpt lat="41.872167059116386" lon="14.222736912077503"><ele>714.0</ele><time>2026-05-02T09:32:01Z</time></trkpt><trkpt lat="41.87193900112217" lon="14.222649368356517"><ele>714.0</ele><time>2026-05-02T09:32:02Z</time></trkpt><trkpt lat="41.87170946972741" lon="14.222576074247849"><ele>715.0</ele><time>2026-05-02T09:32:03Z</time></trkpt><trkpt lat="41.871480307921985" lon="14.22252154241649"><ele>716.0</ele><time>2026-05-02T09:32:04Z</time></trkpt><trkpt lat="41.87125019630908" lon="14.222475077781617"><ele>716.0</ele><time>2026-05-02T09:32:05Z</time></trkpt><trkpt lat="41.871026655956705" lon="14.22244478889759"><ele>716.0</ele><time>2026-05-02T09:32:06Z</time></trkpt><trkpt lat="41.87080978479957" lon="14.222432571734908"><ele>716.0</ele><time>2026-05-02T09:32:07Z</time></trkpt><trkpt lat="41.87059724651776" lon="14.22242123404403"><ele>717.6666666666666</ele><time>2026-05-02T09:32:08Z</time></trkpt><trkpt lat="41.87039620235975" lon="14.222422673064967"><ele>719.3333333333334</ele><time>2026-05-02T09:32:09Z</time></trkpt><trkpt lat="41.87020727361022" lon="14.222428174001255"><ele>721.0</ele><time>2026-05-02T09:32:10Z</time></trkpt><trkpt lat="41.87002701077172" lon="14.222447105579421"><ele>722.6666666666667</ele><time>2026-05-02T09:32:11Z</time></trkpt><trkpt lat="41.869849249377445" lon="14.22246386957932"><ele>724.3333333333334</ele><time>2026-05-02T09:32:12Z</time></trkpt><trkpt lat="41.86967215848501" lon="14.22247243973493"><ele>726.0</ele><time>2026-05-02T09:32:13Z</time></trkpt><trkpt lat="41.869494730588436" lon="14.222476262198533"><ele>726.0</ele><time>2026-05-02T09:32:14Z</time></trkpt><trkpt lat="41.86931876802264" lon="14.222474841145058"><ele>726.0</ele><time>2026-05-02T09:32:15Z</time></trkpt><trkpt lat="41.86914223448795" lon="14.222475055790605"><ele>726.0</ele><time>2026-05-02T09:32:16Z</time></trkpt><trkpt lat="41.868975458079376" lon="14.222479052828925"><ele>726.0</ele><time>2026-05-02T09:32:17Z</time></trkpt><trkpt lat="41.86882156539642" lon="14.222482145459935"><ele>726.0</ele><time>2026-05-02T09:32:18Z</time></trkpt><trkpt lat="41.86869640324182" lon="14.22248991965694"><ele>726.0</ele><time>2026-05-02T09:32:19Z</time></trkpt><trkpt lat="41.86860068733232" lon="14.222488992924337"><ele>726.0</ele><time>2026-05-02T09:32:20Z</time></trkpt><trkpt lat="41.86851647643825" lon="14.222494763746505"><ele>726.75</ele><time>2026-05-02T09:32:21Z</time></trkpt><trkpt lat="41.86840681475106" lon="14.222488138489553"><ele>727.5</ele><time>2026-05-02T09:32:23Z</time></trkpt><trkpt lat="41.86831567678745" lon="14.222488606750295"><ele>728.25</ele><time>2026-05-02T09:36:37Z</time></trkpt><trkpt lat="41.8681968625575" lon="14.222484973444757"><ele>729.0</ele><time>2026-05-02T09:36:38Z</time></trkpt><trkpt lat="41.8680456779513" lon="14.222479903604889"><ele>729.0</ele><time>2026-05-02T09:36:39Z</time></trkpt><trkpt lat="41.86783593272758" lon="14.222486710305425"><ele>729.0</ele><time>2026-05-02T09:36:40Z</time></trkpt><trkpt lat="41.86763148401396" lon="14.222437505673613"><ele>729.0</ele><time>2026-05-02T09:36:41Z</time></trkpt><trkpt lat="41.86742906146398" lon="14.222421168190014"><ele>727.5</ele><time>2026-05-02T09:36:42Z</time></trkpt><trkpt lat="41.867187648432555" lon="14.222399670418364"><ele>726.0</ele><time>2026-05-02T09:36:43Z</time></trkpt><trkpt lat="41.86696665260993" lon="14.222379852855102"><ele>725.0</ele><time>2026-05-02T09:36:44Z</time></trkpt><trkpt lat="41.866745807842264" lon="14.222358746269796"><ele>724.0</ele><time>2026-05-02T09:36:45Z</time></trkpt><trkpt lat="41.86652135948966" lon="14.222308467274202"><ele>723.0</ele><time>2026-05-02T09:36:46Z</time></trkpt><trkpt lat="41.86628846772181" lon="14.222297874546843"><ele>723.0</ele><time>2026-05-02T09:36:47Z</time></trkpt><trkpt lat="41.866084458987594" lon="14.222269591005114"><ele>723.0</ele><time>2026-05-02T09:36:48Z</time></trkpt><trkpt lat="41.86587228218621" lon="14.222230389581602"><ele>723.0</ele><time>2026-05-02T09:36:49Z</time></trkpt><trkpt lat="41.86566395386592" lon="14.22219267066775"><ele>722.0</ele><time>2026-05-02T09:36:50Z</time></trkpt><trkpt lat="41.865449088101485" lon="14.222163829028096"><ele>721.0</ele><time>2026-05-02T09:36:51Z</time></trkpt><trkpt lat="41.86523938528597" lon="14.222124197476953"><ele>720.0</ele><time>2026-05-02T09:36:52Z</time></trkpt><trkpt lat="41.86505357184956" lon="14.222070818610758"><ele>718.5</ele><time>2026-05-02T09:36:53Z</time></trkpt><trkpt lat="41.864819483794264" lon="14.222039347958582"><ele>717.0</ele><time>2026-05-02T09:36:54Z</time></trkpt><trkpt lat="41.86459765256601" lon="14.221998799627226"><ele>717.0</ele><time>2026-05-02T09:36:55Z</time></trkpt><trkpt lat="41.86438105431498" lon="14.221976898931267"><ele>717.0</ele><time>2026-05-02T09:36:56Z</time></trkpt><trkpt lat="41.86416368196504" lon="14.22194766176666"><ele>717.0</ele><time>2026-05-02T09:36:57Z</time></trkpt><trkpt lat="41.86394620024405" lon="14.221916433928032"><ele>715.6666666666666</ele><time>2026-05-02T09:36:58Z</time></trkpt><trkpt lat="41.86372670081716" lon="14.221874250546417"><ele>714.3333333333333</ele><time>2026-05-02T09:36:59Z</time></trkpt><trkpt lat="41.863503315760475" lon="14.221837412592892"><ele>713.0</ele><time>2026-05-02T09:37:00Z</time></trkpt><trkpt lat="41.86327875302149" lon="14.221798579702279"><ele>713.0</ele><time>2026-05-02T09:37:01Z</time></trkpt><trkpt lat="41.863057486040056" lon="14.221765194036696"><ele>713.0</ele><time>2026-05-02T09:37:02Z</time></trkpt><trkpt lat="41.86283204484" lon="14.221710930386498"><ele>713.5</ele><time>2026-05-02T09:37:03Z</time></trkpt><trkpt lat="41.86260381602317" lon="14.22167059497496"><ele>714.0</ele><time>2026-05-02T09:37:04Z</time></trkpt><trkpt lat="41.86237519935079" lon="14.22161795197697"><ele>714.0</ele><time>2026-05-02T09:37:05Z</time></trkpt><trkpt lat="41.86214475231832" lon="14.221562713695189"><ele>714.0</ele><time>2026-05-02T09:37:06Z</time></trkpt><trkpt lat="41.86190692842219" lon="14.221505879593968"><ele>715.0</ele><time>2026-05-02T09:37:07Z</time></trkpt><trkpt lat="41.86167366487105" lon="14.221440375514407"><ele>716.0</ele><time>2026-05-02T09:37:08Z</time></trkpt><trkpt lat="41.86143352996314" lon="14.221368769346387"><ele>716.0</ele><time>2026-05-02T09:37:09Z</time></trkpt><trkpt lat="41.86119998189744" lon="14.221303280311568"><ele>716.0</ele><time>2026-05-02T09:37:10Z</time></trkpt><trkpt lat="41.86096168812084" lon="14.221235794418863"><ele>716.0</ele><time>2026-05-02T09:37:11Z</time></trkpt><trkpt lat="41.86072680532623" lon="14.22115436586831"><ele>716.0</ele><time>2026-05-02T09:37:12Z</time></trkpt><trkpt lat="41.860488711219425" lon="14.221066761602948"><ele>716.0</ele><time>2026-05-02T09:37:13Z</time></trkpt><trkpt lat="41.86025598889159" lon="14.220969369177872"><ele>716.0</ele><time>2026-05-02T09:37:14Z</time></trkpt><trkpt lat="41.8600149735662" lon="14.220869682158675"><ele>720.0</ele><time>2026-05-02T09:37:15Z</time></trkpt><trkpt lat="41.859789404990366" lon="14.220770320248507"><ele>724.0</ele><time>2026-05-02T09:37:16Z</time></trkpt><trkpt lat="41.85955612716071" lon="14.220665098171885"><ele>722.0</ele><time>2026-05-02T09:37:17Z</time></trkpt><trkpt lat="41.859323961413814" lon="14.22054492255985"><ele>720.0</ele><time>2026-05-02T09:37:18Z</time></trkpt><trkpt lat="41.8590770252514" lon="14.220416603995048"><ele>720.0</ele><time>2026-05-02T09:37:19Z</time></trkpt><trkpt lat="41.85883804226735" lon="14.220283299578051"><ele>720.0</ele><time>2026-05-02T09:37:20Z</time></trkpt><trkpt lat="41.858621512822744" lon="14.220119363902096"><ele>720.0</ele><time>2026-05-02T09:37:21Z</time></trkpt><trkpt lat="41.858406023780454" lon="14.21997132182069"><ele>720.0</ele><time>2026-05-02T09:37:22Z</time></trkpt><trkpt lat="41.85817514337088" lon="14.219822982259105"><ele>721.5</ele><time>2026-05-02T09:37:23Z</time></trkpt><trkpt lat="41.857955685210115" lon="14.219652436883814"><ele>723.0</ele><time>2026-05-02T09:37:24Z</time></trkpt><trkpt lat="41.85774024513636" lon="14.219464310727464"><ele>722.0</ele><time>2026-05-02T09:37:25Z</time></trkpt><trkpt lat="41.85752976254098" lon="14.219270748717824"><ele>721.0</ele><time>2026-05-02T09:37:26Z</time></trkpt><trkpt lat="41.85732721971478" lon="14.21906282294101"><ele>723.0</ele><time>2026-05-02T09:37:27Z</time></trkpt><trkpt lat="41.857130062588354" lon="14.21884210131956"><ele>725.0</ele><time>2026-05-02T09:37:28Z</time></trkpt><trkpt lat="41.85693666919225" lon="14.218624575342142"><ele>723.5</ele><time>2026-05-02T09:37:29Z</time></trkpt><trkpt lat="41.85674940447736" lon="14.218394657366414"><ele>722.0</ele><time>2026-05-02T09:37:30Z</time></trkpt><trkpt lat="41.85656475282874" lon="14.21816573241722"><ele>723.5</ele><time>2026-05-02T09:37:31Z</time></trkpt><trkpt lat="41.85638909305087" lon="14.21792072169676"><ele>725.0</ele><time>2026-05-02T09:37:32Z</time></trkpt><trkpt lat="41.856220947712316" lon="14.217667038475511"><ele>725.0</ele><time>2026-05-02T09:37:33Z</time></trkpt><trkpt lat="41.85606109233783" lon="14.217406666794718"><ele>725.0</ele><time>2026-05-02T09:37:34Z</time></trkpt><trkpt lat="41.85590158082722" lon="14.217149702506816"><ele>726.0</ele><time>2026-05-02T09:37:35Z</time></trkpt><trkpt lat="41.85575276691145" lon="14.216883652057628"><ele>727.0</ele><time>2026-05-02T09:37:36Z</time></trkpt><trkpt lat="41.85561043639165" lon="14.216597683620646"><ele>734.0</ele><time>2026-05-02T09:37:37Z</time></trkpt><trkpt lat="41.855468921550575" lon="14.216310786950773"><ele>741.0</ele><time>2026-05-02T09:37:38Z</time></trkpt><trkpt lat="41.85534601812078" lon="14.21601052937789"><ele>741.0</ele><time>2026-05-02T09:37:39Z</time></trkpt><trkpt lat="41.85522921483308" lon="14.215715331440185"><ele>741.0</ele><time>2026-05-02T09:37:40Z</time></trkpt><trkpt lat="41.85512324384446" lon="14.215403069004887"><ele>737.5</ele><time>2026-05-02T09:37:41Z</time></trkpt><trkpt lat="41.855017049122644" lon="14.215105862867539"><ele>734.0</ele><time>2026-05-02T09:37:42Z</time></trkpt><trkpt lat="41.854924413327296" lon="14.214787976267601"><ele>734.0</ele><time>2026-05-02T09:37:43Z</time></trkpt><trkpt lat="41.85484167386184" lon="14.214473065732081"><ele>734.0</ele><time>2026-05-02T09:37:44Z</time></trkpt><trkpt lat="41.85475732685981" lon="14.214162126204306"><ele>735.5</ele><time>2026-05-02T09:37:45Z</time></trkpt><trkpt lat="41.85468696883892" lon="14.21383454801743"><ele>737.0</ele><time>2026-05-02T09:37:46Z</time></trkpt><trkpt lat="41.85461312927274" lon="14.213502719807835"><ele>737.0</ele><time>2026-05-02T09:37:47Z</time></trkpt><trkpt lat="41.85455026214342" lon="14.213169833397714"><ele>737.0</ele><time>2026-05-02T09:37:48Z</time></trkpt><trkpt lat="41.85449005406405" lon="14.212851771568412"><ele>737.5</ele><time>2026-05-02T09:37:49Z</time></trkpt><trkpt lat="41.854431952884646" lon="14.212517983542158"><ele>738.0</ele><time>2026-05-02T09:37:50Z</time></trkpt><trkpt lat="41.854387918378" lon="14.212183650356714"><ele>738.0</ele><time>2026-05-02T09:37:51Z</time></trkpt><trkpt lat="41.85431490061297" lon="14.211867662327297"><ele>738.0</ele><time>2026-05-02T09:37:52Z</time></trkpt><trkpt lat="41.85424581605018" lon="14.211552375137321"><ele>733.0</ele><time>2026-05-02T09:37:53Z</time></trkpt><trkpt lat="41.854183457309546" lon="14.211233344584162"><ele>728.0</ele><time>2026-05-02T09:37:54Z</time></trkpt><trkpt lat="41.854117715395255" lon="14.210910730452202"><ele>728.0</ele><time>2026-05-02T09:37:55Z</time></trkpt><trkpt lat="41.854054498780314" lon="14.21059005293949"><ele>728.0</ele><time>2026-05-02T09:37:56Z</time></trkpt><trkpt lat="41.85398955169522" lon="14.210266375037875"><ele>728.0</ele><time>2026-05-02T09:37:57Z</time></trkpt><trkpt lat="41.853926181144296" lon="14.209946359162766"><ele>728.0</ele><time>2026-05-02T09:37:58Z</time></trkpt><trkpt lat="41.85386202653326" lon="14.209627254047712"><ele>730.5</ele><time>2026-05-02T09:37:59Z</time></trkpt><trkpt lat="41.85379804379129" lon="14.20930929553435"><ele>733.0</ele><time>2026-05-02T09:38:00Z</time></trkpt><trkpt lat="41.853732157461835" lon="14.20899352134107"><ele>736.0</ele><time>2026-05-02T09:38:01Z</time></trkpt><trkpt lat="41.853668301495674" lon="14.208675452233416"><ele>739.0</ele><time>2026-05-02T09:38:02Z</time></trkpt><trkpt lat="41.85360186043055" lon="14.208359684066451"><ele>740.5</ele><time>2026-05-02T09:38:03Z</time></trkpt><trkpt lat="41.853536005070396" lon="14.208045195431577"><ele>742.0</ele><time>2026-05-02T09:38:04Z</time></trkpt><trkpt lat="41.85347082282629" lon="14.207732615043254"><ele>734.5</ele><time>2026-05-02T09:38:05Z</time></trkpt><trkpt lat="41.85340778819565" lon="14.207422231107913"><ele>727.0</ele><time>2026-05-02T09:38:06Z</time></trkpt><trkpt lat="41.853346549183826" lon="14.207102324210656"><ele>727.0</ele><time>2026-05-02T09:38:07Z</time></trkpt><trkpt lat="41.853286252799066" lon="14.20679174498129"><ele>727.0</ele><time>2026-05-02T09:38:08Z</time></trkpt><trkpt lat="41.853229204473855" lon="14.206474392679077"><ele>729.5</ele><time>2026-05-02T09:38:09Z</time></trkpt><trkpt lat="41.85317025451019" lon="14.206158479993517"><ele>732.0</ele><time>2026-05-02T09:38:10Z</time></trkpt><trkpt lat="41.853108822927275" lon="14.205850417152252"><ele>733.0</ele><time>2026-05-02T09:38:11Z</time></trkpt><trkpt lat="41.853052187577504" lon="14.205540817420333"><ele>734.0</ele><time>2026-05-02T09:38:12Z</time></trkpt><trkpt lat="41.852993529423195" lon="14.205243414271001"><ele>734.0</ele><time>2026-05-02T09:38:13Z</time></trkpt><trkpt lat="41.85293688205613" lon="14.204943399965185"><ele>734.0</ele><time>2026-05-02T09:38:14Z</time></trkpt><trkpt lat="41.852880735615905" lon="14.204640875664534"><ele>735.0</ele><time>2026-05-02T09:38:15Z</time></trkpt><trkpt lat="41.85281114309384" lon="14.204352705394681"><ele>736.0</ele><time>2026-05-02T09:38:16Z</time></trkpt><trkpt lat="41.85274165314243" lon="14.204045364705603"><ele>735.5</ele><time>2026-05-02T09:38:17Z</time></trkpt><trkpt lat="41.85267330440481" lon="14.20374759411429"><ele>735.0</ele><time>2026-05-02T09:38:18Z</time></trkpt><trkpt lat="41.85259756470539" lon="14.203462097642927"><ele>733.0</ele><time>2026-05-02T09:38:19Z</time></trkpt><trkpt lat="41.85251078837767" lon="14.203175705288038"><ele>731.0</ele><time>2026-05-02T09:38:20Z</time></trkpt><trkpt lat="41.85242324151558" lon="14.202892081929104"><ele>731.0</ele><time>2026-05-02T09:38:21Z</time></trkpt><trkpt lat="41.85234094214821" lon="14.202656348987443"><ele>731.0</ele><time>2026-05-02T09:38:22Z</time></trkpt><trkpt lat="41.852272887378795" lon="14.202446444298797"><ele>731.0</ele><time>2026-05-02T09:38:23Z</time></trkpt><trkpt lat="41.85219793081093" lon="14.202228174886828"><ele>731.3333333333333</ele><time>2026-05-02T09:38:24Z</time></trkpt><trkpt lat="41.85209444002607" lon="14.201992709176057"><ele>731.6666666666666</ele><time>2026-05-02T09:38:25Z</time></trkpt><trkpt lat="41.85198970528502" lon="14.201739392875327"><ele>732.0</ele><time>2026-05-02T09:38:26Z</time></trkpt><trkpt lat="41.8518828268539" lon="14.201471245624539"><ele>730.5</ele><time>2026-05-02T09:38:27Z</time></trkpt><trkpt lat="41.85176898022322" lon="14.201194567320155"><ele>729.0</ele><time>2026-05-02T09:38:28Z</time></trkpt><trkpt lat="41.851644310521785" lon="14.200931877979277"><ele>729.0</ele><time>2026-05-02T09:38:29Z</time></trkpt><trkpt lat="41.851507367934836" lon="14.200667103223873"><ele>729.0</ele><time>2026-05-02T09:38:30Z</time></trkpt><trkpt lat="41.85136594238268" lon="14.200398925566438"><ele>730.5</ele><time>2026-05-02T09:38:31Z</time></trkpt><trkpt lat="41.85122441105212" lon="14.200129340302611"><ele>732.0</ele><time>2026-05-02T09:38:32Z</time></trkpt><trkpt lat="41.85108256843357" lon="14.199860717409818"><ele>730.5</ele><time>2026-05-02T09:38:33Z</time></trkpt><trkpt lat="41.85093866723524" lon="14.199595239851941"><ele>729.0</ele><time>2026-05-02T09:38:34Z</time></trkpt><trkpt lat="41.85079644593982" lon="14.199330404965071"><ele>729.0</ele><time>2026-05-02T09:38:35Z</time></trkpt><trkpt lat="41.85065455568628" lon="14.19906582348875"><ele>729.0</ele><time>2026-05-02T09:38:36Z</time></trkpt><trkpt lat="41.85051261579603" lon="14.19880345334592"><ele>731.0</ele><time>2026-05-02T09:38:37Z</time></trkpt><trkpt lat="41.85037175324198" lon="14.19854516332787"><ele>733.0</ele><time>2026-05-02T09:38:38Z</time></trkpt><trkpt lat="41.85023439239619" lon="14.19828353596629"><ele>734.0</ele><time>2026-05-02T09:38:39Z</time></trkpt><trkpt lat="41.85009686488389" lon="14.198020127447487"><ele>735.0</ele><time>2026-05-02T09:38:40Z</time></trkpt><trkpt lat="41.84996531693472" lon="14.197754712042501"><ele>735.0</ele><time>2026-05-02T09:38:41Z</time></trkpt><trkpt lat="41.84983188887634" lon="14.19749262241283"><ele>735.0</ele><time>2026-05-02T09:38:42Z</time></trkpt><trkpt lat="41.8496983623916" lon="14.197233386316716"><ele>737.5</ele><time>2026-05-02T09:38:43Z</time></trkpt><trkpt lat="41.84956376665723" lon="14.196981881127767"><ele>740.0</ele><time>2026-05-02T09:38:44Z</time></trkpt><trkpt lat="41.84942734989236" lon="14.196732388773967"><ele>739.0</ele><time>2026-05-02T09:38:45Z</time></trkpt><trkpt lat="41.84928934387706" lon="14.196486899300746"><ele>738.0</ele><time>2026-05-02T09:38:46Z</time></trkpt><trkpt lat="41.84915223977291" lon="14.19623943801099"><ele>738.0</ele><time>2026-05-02T09:38:47Z</time></trkpt><trkpt lat="41.84900893112253" lon="14.19599884134509"><ele>738.0</ele><time>2026-05-02T09:38:48Z</time></trkpt><trkpt lat="41.848857049000166" lon="14.195764344564758"><ele>741.5</ele><time>2026-05-02T09:38:49Z</time></trkpt><trkpt lat="41.84870094384587" lon="14.195534675099521"><ele>745.0</ele><time>2026-05-02T09:38:50Z</time></trkpt><trkpt lat="41.84853249822835" lon="14.195320552452538"><ele>740.5</ele><time>2026-05-02T09:38:51Z</time></trkpt><trkpt lat="41.84835407234009" lon="14.1951144664508"><ele>736.0</ele><time>2026-05-02T09:38:52Z</time></trkpt><trkpt lat="41.84816804594236" lon="14.194914760977127"><ele>742.0</ele><time>2026-05-02T09:38:53Z</time></trkpt><trkpt lat="41.84797326729235" lon="14.19473107124305"><ele>748.0</ele><time>2026-05-02T09:38:54Z</time></trkpt><trkpt lat="41.84777706160456" lon="14.194554702266108"><ele>744.0</ele><time>2026-05-02T09:38:55Z</time></trkpt><trkpt lat="41.84757358917745" lon="14.194390405985315"><ele>740.0</ele><time>2026-05-02T09:38:56Z</time></trkpt><trkpt lat="41.847362592037705" lon="14.194238815279538"><ele>740.0</ele><time>2026-05-02T09:38:57Z</time></trkpt><trkpt lat="41.84714501211647" lon="14.194102682732812"><ele>740.0</ele><time>2026-05-02T09:38:58Z</time></trkpt><trkpt lat="41.846924937511275" lon="14.193969819452578"><ele>746.5</ele><time>2026-05-02T09:38:59Z</time></trkpt><trkpt lat="41.84670085275396" lon="14.193862467320017"><ele>753.0</ele><time>2026-05-02T09:39:00Z</time></trkpt><trkpt lat="41.8464758497619" lon="14.193763467658336"><ele>753.0</ele><time>2026-05-02T09:39:01Z</time></trkpt><trkpt lat="41.84625520454347" lon="14.193680457983564"><ele>753.0</ele><time>2026-05-02T09:39:02Z</time></trkpt><trkpt lat="41.84603064845539" lon="14.193585277770147"><ele>753.0</ele><time>2026-05-02T09:39:03Z</time></trkpt><trkpt lat="41.845788241957145" lon="14.193519754592176"><ele>753.0</ele><time>2026-05-02T09:39:04Z</time></trkpt><trkpt lat="41.8455385478039" lon="14.193473059128118"><ele>753.0</ele><time>2026-05-02T09:39:05Z</time></trkpt><trkpt lat="41.84528026938126" lon="14.19343126674592"><ele>753.0</ele><time>2026-05-02T09:39:06Z</time></trkpt><trkpt lat="41.8450168522012" lon="14.193395374254186"><ele>751.0</ele><time>2026-05-02T09:39:07Z</time></trkpt><trkpt lat="41.84475034230658" lon="14.193367328815835"><ele>749.0</ele><time>2026-05-02T09:39:08Z</time></trkpt><trkpt lat="41.84448345900698" lon="14.19333272223896"><ele>748.5</ele><time>2026-05-02T09:39:09Z</time></trkpt><trkpt lat="41.844217475420876" lon="14.193291573990374"><ele>748.0</ele><time>2026-05-02T09:39:10Z</time></trkpt><trkpt lat="41.84395158704061" lon="14.193261842173266"><ele>748.0</ele><time>2026-05-02T09:39:11Z</time></trkpt><trkpt lat="41.8436853194612" lon="14.193223395878633"><ele>748.0</ele><time>2026-05-02T09:39:12Z</time></trkpt><trkpt lat="41.84342235841715" lon="14.193188603213368"><ele>753.0</ele><time>2026-05-02T09:39:13Z</time></trkpt><trkpt lat="41.84316289775318" lon="14.193154133447564"><ele>758.0</ele><time>2026-05-02T09:39:14Z</time></trkpt><trkpt lat="41.84290012404416" lon="14.193120911679477"><ele>758.0</ele><time>2026-05-02T09:39:15Z</time></trkpt><trkpt lat="41.84263376849861" lon="14.193087542226937"><ele>758.0</ele><time>2026-05-02T09:39:16Z</time></trkpt><trkpt lat="41.84236895257036" lon="14.193055361639479"><ele>757.0</ele><time>2026-05-02T09:39:17Z</time></trkpt><trkpt lat="41.84210906164715" lon="14.19301746186058"><ele>756.0</ele><time>2026-05-02T09:39:18Z</time></trkpt><trkpt lat="41.84184766924178" lon="14.192988442076635"><ele>762.0</ele><time>2026-05-02T09:39:19Z</time></trkpt><trkpt lat="41.841587815594444" lon="14.19295763268731"><ele>768.0</ele><time>2026-05-02T09:39:20Z</time></trkpt><trkpt lat="41.84132716565791" lon="14.192925628610443"><ele>768.0</ele><time>2026-05-02T09:39:21Z</time></trkpt><trkpt lat="41.84106617411573" lon="14.19288860622565"><ele>768.0</ele><time>2026-05-02T09:39:22Z</time></trkpt><trkpt lat="41.84080445598407" lon="14.192843864118688"><ele>764.5</ele><time>2026-05-02T09:39:23Z</time></trkpt><trkpt lat="41.84054276501715" lon="14.192763628764757"><ele>761.0</ele><time>2026-05-02T09:39:24Z</time></trkpt><trkpt lat="41.84027793726046" lon="14.192711962057233"><ele>757.5</ele><time>2026-05-02T09:39:25Z</time></trkpt><trkpt lat="41.84002670716878" lon="14.192642297446918"><ele>754.0</ele><time>2026-05-02T09:39:26Z</time></trkpt><trkpt lat="41.839774605960045" lon="14.192555394852606"><ele>754.0</ele><time>2026-05-02T09:39:27Z</time></trkpt><trkpt lat="41.83952628414457" lon="14.192451612993176"><ele>754.0</ele><time>2026-05-02T09:39:28Z</time></trkpt><trkpt lat="41.83927900833601" lon="14.192340842569662"><ele>761.5</ele><time>2026-05-02T09:39:29Z</time></trkpt><trkpt lat="41.839036291285225" lon="14.192213841809084"><ele>769.0</ele><time>2026-05-02T09:39:30Z</time></trkpt><trkpt lat="41.83880857580115" lon="14.192083587677972"><ele>769.0</ele><time>2026-05-02T09:39:31Z</time></trkpt><trkpt lat="41.83859898549823" lon="14.191957578894945"><ele>769.0</ele><time>2026-05-02T09:39:32Z</time></trkpt><trkpt lat="41.83840172335921" lon="14.191838671180516"><ele>769.0</ele><time>2026-05-02T09:39:33Z</time></trkpt><trkpt lat="41.838210257530754" lon="14.191724347303003"><ele>771.0</ele><time>2026-05-02T09:39:34Z</time></trkpt><trkpt lat="41.838028873995356" lon="14.191603258214784"><ele>773.0</ele><time>2026-05-02T09:39:35.02Z</time></trkpt><trkpt lat="41.83785641717998" lon="14.191489071499467"><ele>775.0</ele><time>2026-05-02T09:39:36.022Z</time></trkpt><trkpt lat="41.83768756498536" lon="14.191364687303885"><ele>770.6666666666666</ele><time>2026-05-02T09:39:37.023Z</time></trkpt><trkpt lat="41.83753258485073" lon="14.191216009631079"><ele>766.3333333333333</ele><time>2026-05-02T09:39:38Z</time></trkpt><trkpt lat="41.83738611547562" lon="14.191108637959438"><ele>762.0</ele><time>2026-05-02T09:39:39Z</time></trkpt><trkpt lat="41.837244304313515" lon="14.190971955833259"><ele>762.0</ele><time>2026-05-02T09:39:40Z</time></trkpt><trkpt lat="41.83708860428164" lon="14.190812986122081"><ele>762.0</ele><time>2026-05-02T09:39:41Z</time></trkpt><trkpt lat="41.83691756859379" lon="14.190656426061734"><ele>762.0</ele><time>2026-05-02T09:39:42Z</time></trkpt><trkpt lat="41.83673636044769" lon="14.19047377914323"><ele>762.0</ele><time>2026-05-02T09:39:43Z</time></trkpt><trkpt lat="41.83655431488289" lon="14.19028052601108"><ele>762.0</ele><time>2026-05-02T09:39:44Z</time></trkpt><trkpt lat="41.83637175453968" lon="14.190062331721327"><ele>766.5</ele><time>2026-05-02T09:39:45Z</time></trkpt><trkpt lat="41.83619238843547" lon="14.189825298788042"><ele>771.0</ele><time>2026-05-02T09:39:46Z</time></trkpt><trkpt lat="41.8360147871336" lon="14.189577981736145"><ele>766.0</ele><time>2026-05-02T09:39:47Z</time></trkpt><trkpt lat="41.835839219403745" lon="14.18932179932968"><ele>761.0</ele><time>2026-05-02T09:39:48Z</time></trkpt><trkpt lat="41.83567245708989" lon="14.189057834896198"><ele>763.5</ele><time>2026-05-02T09:39:49Z</time></trkpt><trkpt lat="41.835509085114396" lon="14.188790322484301"><ele>766.0</ele><time>2026-05-02T09:39:50Z</time></trkpt><trkpt lat="41.835351134825856" lon="14.188516167083362"><ele>766.0</ele><time>2026-05-02T09:39:51Z</time></trkpt><trkpt lat="41.835200614572955" lon="14.18823330106963"><ele>766.0</ele><time>2026-05-02T09:39:52Z</time></trkpt><trkpt lat="41.83505524770023" lon="14.187951610442358"><ele>757.0</ele><time>2026-05-02T09:39:53Z</time></trkpt><trkpt lat="41.83491388478303" lon="14.187666478852023"><ele>748.0</ele><time>2026-05-02T09:39:54Z</time></trkpt><trkpt lat="41.83478095163291" lon="14.18737544838803"><ele>747.5</ele><time>2026-05-02T09:39:55Z</time></trkpt><trkpt lat="41.83464277245934" lon="14.18709130444698"><ele>747.0</ele><time>2026-05-02T09:39:56Z</time></trkpt><trkpt lat="41.834508515339856" lon="14.186831884886413"><ele>747.0</ele><time>2026-05-02T09:39:57Z</time></trkpt><trkpt lat="41.834373779941096" lon="14.186540888660875"><ele>747.0</ele><time>2026-05-02T09:39:58Z</time></trkpt><trkpt lat="41.834237868682415" lon="14.186245252593986"><ele>749.0</ele><time>2026-05-02T09:39:59Z</time></trkpt><trkpt lat="41.834102165206886" lon="14.185961136563328"><ele>751.0</ele><time>2026-05-02T09:40:00Z</time></trkpt><trkpt lat="41.8339615578899" lon="14.185668123684552"><ele>752.0</ele><time>2026-05-02T09:40:01Z</time></trkpt><trkpt lat="41.8338165240795" lon="14.185388676867287"><ele>753.0</ele><time>2026-05-02T09:40:02Z</time></trkpt><trkpt lat="41.833664249148335" lon="14.185121407433437"><ele>753.0</ele><time>2026-05-02T09:40:03Z</time></trkpt><trkpt lat="41.833503190509916" lon="14.18485438985501"><ele>753.0</ele><time>2026-05-02T09:40:04Z</time></trkpt><trkpt lat="41.8333366256874" lon="14.184602551272325"><ele>752.5</ele><time>2026-05-02T09:40:05Z</time></trkpt><trkpt lat="41.83316270726593" lon="14.184351909711891"><ele>752.0</ele><time>2026-05-02T09:40:06Z</time></trkpt><trkpt lat="41.83297885470884" lon="14.184121204406427"><ele>752.0</ele><time>2026-05-02T09:40:07Z</time></trkpt><trkpt lat="41.83279083093956" lon="14.183899801331028"><ele>752.0</ele><time>2026-05-02T09:40:08Z</time></trkpt><trkpt lat="41.832599855427986" lon="14.183681762109192"><ele>752.0</ele><time>2026-05-02T09:40:09Z</time></trkpt><trkpt lat="41.832402437718244" lon="14.183472301101347"><ele>752.0</ele><time>2026-05-02T09:40:10Z</time></trkpt><trkpt lat="41.832203833223716" lon="14.183261861217483"><ele>752.5</ele><time>2026-05-02T09:40:11Z</time></trkpt><trkpt lat="41.83199682744142" lon="14.183064128625459"><ele>753.0</ele><time>2026-05-02T09:40:12Z</time></trkpt><trkpt lat="41.83180245649466" lon="14.182852393546767"><ele>753.0</ele><time>2026-05-02T09:40:13Z</time></trkpt><trkpt lat="41.83160170999026" lon="14.18265562121391"><ele>753.0</ele><time>2026-05-02T09:40:14Z</time></trkpt><trkpt lat="41.831345780094644" lon="14.182560404751774"><ele>753.0</ele><time>2026-05-02T09:40:15Z</time></trkpt><trkpt lat="41.83111981687785" lon="14.18241631410302"><ele>753.0</ele><time>2026-05-02T09:40:16Z</time></trkpt><trkpt lat="41.83089142664623" lon="14.182282027673727"><ele>755.5</ele><time>2026-05-02T09:40:17Z</time></trkpt><trkpt lat="41.83066015401696" lon="14.182154028015152"><ele>758.0</ele><time>2026-05-02T09:40:18Z</time></trkpt><trkpt lat="41.830427618938025" lon="14.182029160020372"><ele>758.0</ele><time>2026-05-02T09:40:19Z</time></trkpt><trkpt lat="41.830195196323565" lon="14.181910351261822"><ele>758.0</ele><time>2026-05-02T09:40:20Z</time></trkpt><trkpt lat="41.82996104355579" lon="14.181796425124407"><ele>755.5</ele><time>2026-05-02T09:40:21Z</time></trkpt><trkpt lat="41.82972862580143" lon="14.181673191748933"><ele>753.0</ele><time>2026-05-02T09:40:22Z</time></trkpt><trkpt lat="41.829492834132516" lon="14.181551990955782"><ele>752.5</ele><time>2026-05-02T09:40:23Z</time></trkpt><trkpt lat="41.82925931745349" lon="14.181428230787667"><ele>752.0</ele><time>2026-05-02T09:40:24Z</time></trkpt><trkpt lat="41.82902454889133" lon="14.181304945762825"><ele>752.0</ele><time>2026-05-02T09:40:25Z</time></trkpt><trkpt lat="41.82879141842645" lon="14.18118358394601"><ele>752.0</ele><time>2026-05-02T09:40:26Z</time></trkpt><trkpt lat="41.828561125601816" lon="14.181055357221432"><ele>750.5</ele><time>2026-05-02T09:40:27Z</time></trkpt><trkpt lat="41.82833095985595" lon="14.180925991371332"><ele>749.0</ele><time>2026-05-02T09:40:28Z</time></trkpt><trkpt lat="41.828100439289955" lon="14.18079385391694"><ele>751.0</ele><time>2026-05-02T09:40:29Z</time></trkpt><trkpt lat="41.82787059616068" lon="14.180650423095374"><ele>753.0</ele><time>2026-05-02T09:40:30Z</time></trkpt><trkpt lat="41.827645014939755" lon="14.180500174083848"><ele>750.5</ele><time>2026-05-02T09:40:31Z</time></trkpt><trkpt lat="41.827419839961046" lon="14.180347529122203"><ele>748.0</ele><time>2026-05-02T09:40:32Z</time></trkpt><trkpt lat="41.82719822401597" lon="14.180185694199338"><ele>748.0</ele><time>2026-05-02T09:40:33Z</time></trkpt><trkpt lat="41.82697744149104" lon="14.180015957299895"><ele>748.0</ele><time>2026-05-02T09:40:34Z</time></trkpt><trkpt lat="41.82675848924651" lon="14.179837774359413"><ele>746.5</ele><time>2026-05-02T09:40:35Z</time></trkpt><trkpt lat="41.82654385053846" lon="14.179655255793396"><ele>745.0</ele><time>2026-05-02T09:40:36Z</time></trkpt><trkpt lat="41.826333502172055" lon="14.179461304225565"><ele>745.0</ele><time>2026-05-02T09:40:37Z</time></trkpt><trkpt lat="41.826125411655596" lon="14.179265239950489"><ele>745.0</ele><time>2026-05-02T09:40:38Z</time></trkpt><trkpt lat="41.825921209937775" lon="14.179062450360972"><ele>746.5</ele><time>2026-05-02T09:40:39Z</time></trkpt><trkpt lat="41.825721422722225" lon="14.178852815498274"><ele>748.0</ele><time>2026-05-02T09:40:40Z</time></trkpt><trkpt lat="41.82552225570823" lon="14.178641554690747"><ele>748.0</ele><time>2026-05-02T09:40:41Z</time></trkpt><trkpt lat="41.8253283812927" lon="14.17842481277676"><ele>748.0</ele><time>2026-05-02T09:40:42Z</time></trkpt><trkpt lat="41.82513685196273" lon="14.178200100134637"><ele>748.5</ele><time>2026-05-02T09:40:43Z</time></trkpt><trkpt lat="41.824943011418945" lon="14.17798078368223"><ele>749.0</ele><time>2026-05-02T09:40:44Z</time></trkpt><trkpt lat="41.824746265899186" lon="14.177766811339435"><ele>749.0</ele><time>2026-05-02T09:40:45Z</time></trkpt><trkpt lat="41.8245515172652" lon="14.177557444522343"><ele>749.0</ele><time>2026-05-02T09:40:46Z</time></trkpt><trkpt lat="41.824358874696244" lon="14.177344522336352"><ele>748.5</ele><time>2026-05-02T09:40:47Z</time></trkpt><trkpt lat="41.824171563478295" lon="14.17713099700772"><ele>748.0</ele><time>2026-05-02T09:40:48Z</time></trkpt><trkpt lat="41.8239821063761" lon="14.176927162929323"><ele>748.0</ele><time>2026-05-02T09:40:49Z</time></trkpt><trkpt lat="41.823792748714176" lon="14.176729529465097"><ele>748.0</ele><time>2026-05-02T09:40:50Z</time></trkpt><trkpt lat="41.823602715326054" lon="14.176523615096905"><ele>749.5</ele><time>2026-05-02T09:40:51Z</time></trkpt><trkpt lat="41.8234166034623" lon="14.176314374434781"><ele>751.0</ele><time>2026-05-02T09:40:52Z</time></trkpt><trkpt lat="41.823231242190495" lon="14.176117702219422"><ele>751.0</ele><time>2026-05-02T09:40:53Z</time></trkpt><trkpt lat="41.823052740909155" lon="14.175917928688305"><ele>751.0</ele><time>2026-05-02T09:40:54Z</time></trkpt><trkpt lat="41.822875527465406" lon="14.175724590277895"><ele>752.0</ele><time>2026-05-02T09:40:55Z</time></trkpt><trkpt lat="41.822702208364966" lon="14.175521911308527"><ele>753.0</ele><time>2026-05-02T09:40:56Z</time></trkpt><trkpt lat="41.82253098667981" lon="14.175326926387985"><ele>753.0</ele><time>2026-05-02T09:40:57Z</time></trkpt><trkpt lat="41.82235649534154" lon="14.175137810284744"><ele>753.0</ele><time>2026-05-02T09:40:58Z</time></trkpt><trkpt lat="41.82218572957857" lon="14.174950143841548"><ele>753.0</ele><time>2026-05-02T09:40:59Z</time></trkpt><trkpt lat="41.82201330984404" lon="14.174759815529681"><ele>754.3333333333334</ele><time>2026-05-02T09:41:00Z</time></trkpt><trkpt lat="41.82183684432768" lon="14.174576776848665"><ele>755.6666666666667</ele><time>2026-05-02T09:41:01Z</time></trkpt><trkpt lat="41.82166635478673" lon="14.174393743098811"><ele>757.0</ele><time>2026-05-02T09:41:02Z</time></trkpt><trkpt lat="41.82150034866141" lon="14.17420766622348"><ele>757.0</ele><time>2026-05-02T09:41:03Z</time></trkpt><trkpt lat="41.821328570948396" lon="14.174025345787465"><ele>757.0</ele><time>2026-05-02T09:41:04Z</time></trkpt><trkpt lat="41.82115757144253" lon="14.17384027622174"><ele>757.0</ele><time>2026-05-02T09:41:05Z</time></trkpt><trkpt lat="41.82098290815053" lon="14.173651734726088"><ele>756.6666666666667</ele><time>2026-05-02T09:41:06Z</time></trkpt><trkpt lat="41.82081325001529" lon="14.173461382911707"><ele>756.3333333333334</ele><time>2026-05-02T09:41:07Z</time></trkpt><trkpt lat="41.820645302525534" lon="14.173268658164778"><ele>756.0</ele><time>2026-05-02T09:41:08Z</time></trkpt><trkpt lat="41.82047427237017" lon="14.173085149124171"><ele>756.6666666666666</ele><time>2026-05-02T09:41:09Z</time></trkpt><trkpt lat="41.82030578385778" lon="14.172902852308495"><ele>757.3333333333333</ele><time>2026-05-02T09:41:10Z</time></trkpt><trkpt lat="41.82013704894859" lon="14.172717033370967"><ele>758.0</ele><time>2026-05-02T09:41:11Z</time></trkpt><trkpt lat="41.81996847879627" lon="14.172527933041792"><ele>758.6666666666666</ele><time>2026-05-02T09:41:12Z</time></trkpt><trkpt lat="41.81979823101535" lon="14.17234101427371"><ele>759.3333333333334</ele><time>2026-05-02T09:41:13Z</time></trkpt><trkpt lat="41.819627962900675" lon="14.172153356231549"><ele>760.0</ele><time>2026-05-02T09:41:14Z</time></trkpt><trkpt lat="41.81946140159235" lon="14.171951601116888"><ele>760.6666666666667</ele><time>2026-05-02T09:41:15Z</time></trkpt><trkpt lat="41.8192954873339" lon="14.171747699971188"><ele>761.3333333333334</ele><time>2026-05-02T09:41:16Z</time></trkpt><trkpt lat="41.819132519129646" lon="14.171541371428356"><ele>762.0</ele><time>2026-05-02T09:41:17Z</time></trkpt><trkpt lat="41.818975873928714" lon="14.171326897719062"><ele>762.0</ele><time>2026-05-02T09:41:18Z</time></trkpt><trkpt lat="41.8188307455278" lon="14.171096350288767"><ele>762.0</ele><time>2026-05-02T09:41:19Z</time></trkpt><trkpt lat="41.81868779056175" lon="14.170857589019922"><ele>761.5</ele><time>2026-05-02T09:41:20Z</time></trkpt><trkpt lat="41.8185536938582" lon="14.170605980460703"><ele>761.0</ele><time>2026-05-02T09:41:21Z</time></trkpt><trkpt lat="41.81842908940634" lon="14.170349816987368"><ele>761.0</ele><time>2026-05-02T09:41:22Z</time></trkpt><trkpt lat="41.81830892455024" lon="14.170093104190189"><ele>761.0</ele><time>2026-05-02T09:41:23Z</time></trkpt><trkpt lat="41.81819919184322" lon="14.169826943947292"><ele>767.5</ele><time>2026-05-02T09:41:24Z</time></trkpt><trkpt lat="41.81810172375224" lon="14.169548537908083"><ele>774.0</ele><time>2026-05-02T09:41:25Z</time></trkpt><trkpt lat="41.81801203638501" lon="14.169269895868101"><ele>778.0</ele><time>2026-05-02T09:41:26Z</time></trkpt><trkpt lat="41.81793208535275" lon="14.168981889418337"><ele>782.0</ele><time>2026-05-02T09:41:27Z</time></trkpt><trkpt lat="41.81785588615088" lon="14.16870155193685"><ele>782.0</ele><time>2026-05-02T09:41:28Z</time></trkpt><trkpt lat="41.817788271958754" lon="14.168409715292475"><ele>782.0</ele><time>2026-05-02T09:41:29Z</time></trkpt><trkpt lat="41.8177342250999" lon="14.168113411172293"><ele>779.3333333333334</ele><time>2026-05-02T09:41:30Z</time></trkpt><trkpt lat="41.8176844044685" lon="14.167818363875805"><ele>776.6666666666667</ele><time>2026-05-02T09:41:31Z</time></trkpt><trkpt lat="41.81764215925612" lon="14.167529200511177"><ele>774.0</ele><time>2026-05-02T09:41:32Z</time></trkpt><trkpt lat="41.817614422572944" lon="14.167223456193918"><ele>768.3333333333334</ele><time>2026-05-02T09:41:33Z</time></trkpt><trkpt lat="41.817597762915945" lon="14.16693003745798"><ele>762.6666666666667</ele><time>2026-05-02T09:41:34Z</time></trkpt><trkpt lat="41.81758723574967" lon="14.166638941482486"><ele>757.0</ele><time>2026-05-02T09:41:35Z</time></trkpt><trkpt lat="41.81758713588036" lon="14.166354754069653"><ele>757.0</ele><time>2026-05-02T09:41:36Z</time></trkpt><trkpt lat="41.81759381365673" lon="14.166069289221502"><ele>757.0</ele><time>2026-05-02T09:41:37Z</time></trkpt><trkpt lat="41.817607370244524" lon="14.165785683688139"><ele>757.0</ele><time>2026-05-02T09:41:38Z</time></trkpt><trkpt lat="41.81762686042554" lon="14.165502934389052"><ele>757.0</ele><time>2026-05-02T09:41:39Z</time></trkpt><trkpt lat="41.817648002264484" lon="14.165225754121835"><ele>757.0</ele><time>2026-05-02T09:41:40Z</time></trkpt><trkpt lat="41.81766795726441" lon="14.164945759580005"><ele>757.0</ele><time>2026-05-02T09:41:41Z</time></trkpt><trkpt lat="41.81768758317855" lon="14.164659578156598"><ele>758.3333333333334</ele><time>2026-05-02T09:41:42Z</time></trkpt><trkpt lat="41.81769600351831" lon="14.164381507046853"><ele>759.6666666666666</ele><time>2026-05-02T09:41:43Z</time></trkpt><trkpt lat="41.81770626103382" lon="14.164115050341119"><ele>761.0</ele><time>2026-05-02T09:41:44Z</time></trkpt><trkpt lat="41.81771930801034" lon="14.16383704289983"><ele>761.0</ele><time>2026-05-02T09:41:45Z</time></trkpt><trkpt lat="41.81773338297595" lon="14.163560231723775"><ele>761.0</ele><time>2026-05-02T09:41:46Z</time></trkpt><trkpt lat="41.81772490014577" lon="14.163291278407407"><ele>761.0</ele><time>2026-05-02T09:41:47Z</time></trkpt><trkpt lat="41.817719585170416" lon="14.163019594438202"><ele>760.3333333333333</ele><time>2026-05-02T09:41:48Z</time></trkpt><trkpt lat="41.81770749297015" lon="14.162736524959142"><ele>759.6666666666666</ele><time>2026-05-02T09:41:49Z</time></trkpt><trkpt lat="41.817687953246896" lon="14.162453845327754"><ele>759.0</ele><time>2026-05-02T09:41:50Z</time></trkpt><trkpt lat="41.81766622744788" lon="14.162171424134254"><ele>759.0</ele><time>2026-05-02T09:41:51Z</time></trkpt><trkpt lat="41.817640398853285" lon="14.161884791973039"><ele>759.0</ele><time>2026-05-02T09:41:52Z</time></trkpt><trkpt lat="41.817606424949666" lon="14.161597921387646"><ele>759.0</ele><time>2026-05-02T09:41:53Z</time></trkpt><trkpt lat="41.817574419159115" lon="14.161311337794913"><ele>759.0</ele><time>2026-05-02T09:41:54Z</time></trkpt><trkpt lat="41.81752793686159" lon="14.161032792252344"><ele>759.0</ele><time>2026-05-02T09:41:55Z</time></trkpt><trkpt lat="41.81748202384442" lon="14.160745137046064"><ele>759.0</ele><time>2026-05-02T09:41:56Z</time></trkpt><trkpt lat="41.81742854635445" lon="14.160461546616293"><ele>759.3333333333334</ele><time>2026-05-02T09:41:57Z</time></trkpt><trkpt lat="41.81736898960959" lon="14.160181586281395"><ele>759.6666666666667</ele><time>2026-05-02T09:41:58Z</time></trkpt><trkpt lat="41.817302279957886" lon="14.159908144799266"><ele>760.0</ele><time>2026-05-02T09:41:59Z</time></trkpt><trkpt lat="41.81723386825784" lon="14.159630315086687"><ele>760.0</ele><time>2026-05-02T09:42:00Z</time></trkpt><trkpt lat="41.8171561960094" lon="14.159347382899762"><ele>760.0</ele><time>2026-05-02T09:42:01Z</time></trkpt><trkpt lat="41.81706844882619" lon="14.159078612222373"><ele>760.0</ele><time>2026-05-02T09:42:02Z</time></trkpt><trkpt lat="41.816981169346406" lon="14.158805832728232"><ele>760.0</ele><time>2026-05-02T09:42:03Z</time></trkpt><trkpt lat="41.81688911217252" lon="14.158537338290348"><ele>760.0</ele><time>2026-05-02T09:42:04Z</time></trkpt><trkpt lat="41.81679653216267" lon="14.158277370926255"><ele>760.0</ele><time>2026-05-02T09:42:05Z</time></trkpt><trkpt lat="41.81669720466572" lon="14.158028960887972"><ele>759.6666666666667</ele><time>2026-05-02T09:42:06Z</time></trkpt><trkpt lat="41.816591671492255" lon="14.157767493462522"><ele>759.3333333333334</ele><time>2026-05-02T09:42:07Z</time></trkpt><trkpt lat="41.8164824603384" lon="14.15749927950004"><ele>759.0</ele><time>2026-05-02T09:42:08Z</time></trkpt><trkpt lat="41.81637176014288" lon="14.157228324016307"><ele>759.0</ele><time>2026-05-02T09:42:09Z</time></trkpt><trkpt lat="41.81625825700257" lon="14.156950208403947"><ele>759.0</ele><time>2026-05-02T09:42:10Z</time></trkpt><trkpt lat="41.81613901778682" lon="14.156663248267158"><ele>761.0</ele><time>2026-05-02T09:42:11Z</time></trkpt><trkpt lat="41.816030265555156" lon="14.15635609071509"><ele>763.0</ele><time>2026-05-02T09:42:12Z</time></trkpt><trkpt lat="41.81590859447376" lon="14.156053740117441"><ele>763.5</ele><time>2026-05-02T09:42:13Z</time></trkpt><trkpt lat="41.81578507108697" lon="14.155746786519309"><ele>764.0</ele><time>2026-05-02T09:42:14Z</time></trkpt><trkpt lat="41.815660666449894" lon="14.155439814736232"><ele>766.5</ele><time>2026-05-02T09:42:15Z</time></trkpt><trkpt lat="41.81553370853759" lon="14.15512835104113"><ele>769.0</ele><time>2026-05-02T09:42:16Z</time></trkpt><trkpt lat="41.81541059064993" lon="14.15481726075302"><ele>769.0</ele><time>2026-05-02T09:42:17Z</time></trkpt><trkpt lat="41.81527392342232" lon="14.15451501716524"><ele>769.0</ele><time>2026-05-02T09:42:18Z</time></trkpt><trkpt lat="41.81515356868709" lon="14.154208043122678"><ele>768.0</ele><time>2026-05-02T09:42:19Z</time></trkpt><trkpt lat="41.815028708475076" lon="14.153911589434925"><ele>767.0</ele><time>2026-05-02T09:42:20Z</time></trkpt><trkpt lat="41.814921921521425" lon="14.153605053808754"><ele>767.0</ele><time>2026-05-02T09:42:21Z</time></trkpt><trkpt lat="41.81479315566812" lon="14.153324732971262"><ele>767.0</ele><time>2026-05-02T09:42:22Z</time></trkpt><trkpt lat="41.81468876606594" lon="14.153037903649738"><ele>770.0</ele><time>2026-05-02T09:42:23Z</time></trkpt><trkpt lat="41.8145774546113" lon="14.152770091155004"><ele>773.0</ele><time>2026-05-02T09:42:24Z</time></trkpt><trkpt lat="41.814463143085234" lon="14.152496596414391"><ele>771.5</ele><time>2026-05-02T09:42:25Z</time></trkpt><trkpt lat="41.81434456616085" lon="14.152232548943804"><ele>770.0</ele><time>2026-05-02T09:42:26Z</time></trkpt><trkpt lat="41.814224812196656" lon="14.151963723694262"><ele>770.0</ele><time>2026-05-02T09:42:27Z</time></trkpt><trkpt lat="41.81409735492058" lon="14.151706081365187"><ele>770.0</ele><time>2026-05-02T09:42:28Z</time></trkpt><trkpt lat="41.813970551434934" lon="14.151441132736723"><ele>772.0</ele><time>2026-05-02T09:42:29Z</time></trkpt><trkpt lat="41.8138379976867" lon="14.151175883399244"><ele>774.0</ele><time>2026-05-02T09:42:30Z</time></trkpt><trkpt lat="41.81369449947191" lon="14.150918895786875"><ele>774.0</ele><time>2026-05-02T09:42:31Z</time></trkpt><trkpt lat="41.81353707383017" lon="14.150653780822621"><ele>774.0</ele><time>2026-05-02T09:42:32Z</time></trkpt><trkpt lat="41.81336831661032" lon="14.150375164522563"><ele>774.0</ele><time>2026-05-02T09:42:33Z</time></trkpt><trkpt lat="41.813198889480766" lon="14.150072944241582"><ele>774.0</ele><time>2026-05-02T09:42:34Z</time></trkpt><trkpt lat="41.81302987278744" lon="14.14975313287569"><ele>776.0</ele><time>2026-05-02T09:42:35Z</time></trkpt><trkpt lat="41.81286717264255" lon="14.149420040408929"><ele>778.0</ele><time>2026-05-02T09:42:36Z</time></trkpt><trkpt lat="41.81270665898905" lon="14.14908646741736"><ele>775.5</ele><time>2026-05-02T09:42:37Z</time></trkpt><trkpt lat="41.81254623376327" lon="14.148768381637213"><ele>773.0</ele><time>2026-05-02T09:42:38Z</time></trkpt><trkpt lat="41.81238454784064" lon="14.148470119784106"><ele>776.0</ele><time>2026-05-02T09:42:39Z</time></trkpt><trkpt lat="41.812231427336926" lon="14.148165297615014"><ele>779.0</ele><time>2026-05-02T09:42:40Z</time></trkpt><trkpt lat="41.812084336437415" lon="14.147871324804575"><ele>779.0</ele><time>2026-05-02T09:42:41Z</time></trkpt><trkpt lat="41.811950335753586" lon="14.147562702312884"><ele>779.0</ele><time>2026-05-02T09:42:42Z</time></trkpt><trkpt lat="41.81182678540526" lon="14.147254291314464"><ele>774.5</ele><time>2026-05-02T09:42:43Z</time></trkpt><trkpt lat="41.81171084120543" lon="14.146947856499104"><ele>770.0</ele><time>2026-05-02T09:42:44Z</time></trkpt><trkpt lat="41.81160109022382" lon="14.146625216828545"><ele>770.0</ele><time>2026-05-02T09:42:45Z</time></trkpt><trkpt lat="41.811490721969584" lon="14.146314266145207"><ele>770.0</ele><time>2026-05-02T09:42:46Z</time></trkpt><trkpt lat="41.81137833621461" lon="14.146008086690642"><ele>771.0</ele><time>2026-05-02T09:42:47Z</time></trkpt><trkpt lat="41.81126726339543" lon="14.145701718451557"><ele>772.0</ele><time>2026-05-02T09:42:48Z</time></trkpt><trkpt lat="41.81116082622128" lon="14.145390761845144"><ele>772.0</ele><time>2026-05-02T09:42:49Z</time></trkpt><trkpt lat="41.81104913643614" lon="14.145081894319143"><ele>772.0</ele><time>2026-05-02T09:42:50Z</time></trkpt><trkpt lat="41.81094412671362" lon="14.144775391679392"><ele>772.0</ele><time>2026-05-02T09:42:51Z</time></trkpt><trkpt lat="41.81083430968583" lon="14.144470944268017"><ele>772.0</ele><time>2026-05-02T09:42:52Z</time></trkpt><trkpt lat="41.81071852466944" lon="14.144164960129368"><ele>772.5</ele><time>2026-05-02T09:42:53Z</time></trkpt><trkpt lat="41.81060880445069" lon="14.143847796442705"><ele>773.0</ele><time>2026-05-02T09:42:54Z</time></trkpt><trkpt lat="41.81049813465569" lon="14.143533090530795"><ele>773.0</ele><time>2026-05-02T09:42:55Z</time></trkpt><trkpt lat="41.81038254976326" lon="14.143221862327351"><ele>773.0</ele><time>2026-05-02T09:42:56Z</time></trkpt><trkpt lat="41.81025900628084" lon="14.142920379721003"><ele>772.5</ele><time>2026-05-02T09:42:57Z</time></trkpt><trkpt lat="41.81013029893553" lon="14.142625542045028"><ele>772.0</ele><time>2026-05-02T09:42:58Z</time></trkpt><trkpt lat="41.809993832176126" lon="14.142332475301298"><ele>772.0</ele><time>2026-05-02T09:42:59Z</time></trkpt><trkpt lat="41.809853370507135" lon="14.142047104054141"><ele>772.0</ele><time>2026-05-02T09:43:00Z</time></trkpt><trkpt lat="41.80970241333322" lon="14.141773207545382"><ele>773.0</ele><time>2026-05-02T09:43:01Z</time></trkpt><trkpt lat="41.80954561931061" lon="14.1415046413239"><ele>774.0</ele><time>2026-05-02T09:43:02Z</time></trkpt><trkpt lat="41.80938352755718" lon="14.141241709475823"><ele>772.0</ele><time>2026-05-02T09:43:03Z</time></trkpt><trkpt lat="41.80921440797353" lon="14.140987859462403"><ele>770.0</ele><time>2026-05-02T09:43:04Z</time></trkpt><trkpt lat="41.80903654517489" lon="14.140742171888311"><ele>773.5</ele><time>2026-05-02T09:43:05Z</time></trkpt><trkpt lat="41.80885258990859" lon="14.140509281799039"><ele>777.0</ele><time>2026-05-02T09:43:06Z</time></trkpt><trkpt lat="41.8086607198659" lon="14.140284017025689"><ele>776.0</ele><time>2026-05-02T09:43:07Z</time></trkpt><trkpt lat="41.80846625293409" lon="14.140067793092532"><ele>775.0</ele><time>2026-05-02T09:43:08Z</time></trkpt><trkpt lat="41.808262486913584" lon="14.13986527983697"><ele>775.0</ele><time>2026-05-02T09:43:09Z</time></trkpt><trkpt lat="41.80805585122654" lon="14.13966768262117"><ele>775.0</ele><time>2026-05-02T09:43:10Z</time></trkpt><trkpt lat="41.807845139707005" lon="14.13947983825535"><ele>772.5</ele><time>2026-05-02T09:43:11Z</time></trkpt><trkpt lat="41.807629760153674" lon="14.139291410547195"><ele>770.0</ele><time>2026-05-02T09:43:12Z</time></trkpt><trkpt lat="41.80740960459537" lon="14.13912944579657"><ele>774.5</ele><time>2026-05-02T09:43:13Z</time></trkpt><trkpt lat="41.80718450454279" lon="14.13897283114151"><ele>779.0</ele><time>2026-05-02T09:43:14Z</time></trkpt><trkpt lat="41.80695370681463" lon="14.138834308888208"><ele>778.5</ele><time>2026-05-02T09:43:15Z</time></trkpt><trkpt lat="41.80672399146856" lon="14.138695002979947"><ele>778.0</ele><time>2026-05-02T09:43:16Z</time></trkpt><trkpt lat="41.8064891801034" lon="14.138566968495587"><ele>778.0</ele><time>2026-05-02T09:43:17Z</time></trkpt><trkpt lat="41.80624773879478" lon="14.138465614350016"><ele>778.0</ele><time>2026-05-02T09:43:18Z</time></trkpt><trkpt lat="41.806006864569454" lon="14.138367533387823"><ele>777.5</ele><time>2026-05-02T09:43:19Z</time></trkpt><trkpt lat="41.805763278281624" lon="14.138285452244002"><ele>777.0</ele><time>2026-05-02T09:43:20Z</time></trkpt><trkpt lat="41.805516702589074" lon="14.138214248335586"><ele>779.5</ele><time>2026-05-02T09:43:21Z</time></trkpt><trkpt lat="41.8052737548959" lon="14.138144753454107"><ele>782.0</ele><time>2026-05-02T09:43:22Z</time></trkpt><trkpt lat="41.80503218024933" lon="14.138076888272582"><ele>782.0</ele><time>2026-05-02T09:43:23Z</time></trkpt><trkpt lat="41.804789242326954" lon="14.138004316439533"><ele>782.0</ele><time>2026-05-02T09:43:24Z</time></trkpt><trkpt lat="41.80454568615448" lon="14.137927676556394"><ele>779.0</ele><time>2026-05-02T09:43:25Z</time></trkpt><trkpt lat="41.80430405323859" lon="14.137851336885035"><ele>776.0</ele><time>2026-05-02T09:43:26Z</time></trkpt><trkpt lat="41.804064329131414" lon="14.137776277187445"><ele>776.0</ele><time>2026-05-02T09:43:27Z</time></trkpt><trkpt lat="41.80382194277058" lon="14.137700105604928"><ele>776.0</ele><time>2026-05-02T09:43:28Z</time></trkpt><trkpt lat="41.80357601045581" lon="14.137632128346631"><ele>774.0</ele><time>2026-05-02T09:43:29Z</time></trkpt><trkpt lat="41.80333160670012" lon="14.13755849543665"><ele>772.0</ele><time>2026-05-02T09:43:30Z</time></trkpt><trkpt lat="41.803090185835806" lon="14.137490607424118"><ele>772.0</ele><time>2026-05-02T09:43:31Z</time></trkpt><trkpt lat="41.80284278878849" lon="14.13742835657193"><ele>772.0</ele><time>2026-05-02T09:43:32Z</time></trkpt><trkpt lat="41.80260148770523" lon="14.137364431521254"><ele>771.5</ele><time>2026-05-02T09:43:33Z</time></trkpt><trkpt lat="41.80235923972442" lon="14.137293741359539"><ele>771.0</ele><time>2026-05-02T09:43:34Z</time></trkpt><trkpt lat="41.80211234084379" lon="14.137225114568258"><ele>771.0</ele><time>2026-05-02T09:43:35Z</time></trkpt><trkpt lat="41.80186276310177" lon="14.137162063526553"><ele>771.0</ele><time>2026-05-02T09:43:36Z</time></trkpt><trkpt lat="41.8016164745846" lon="14.13709355164027"><ele>771.5</ele><time>2026-05-02T09:43:37Z</time></trkpt><trkpt lat="41.801369062214285" lon="14.137023720516286"><ele>772.0</ele><time>2026-05-02T09:43:38Z</time></trkpt><trkpt lat="41.801124997908694" lon="14.136956818830567"><ele>773.5</ele><time>2026-05-02T09:43:39Z</time></trkpt><trkpt lat="41.80087861885844" lon="14.136888004099905"><ele>775.0</ele><time>2026-05-02T09:43:40Z</time></trkpt><trkpt lat="41.80063311363745" lon="14.136809353668125"><ele>775.0</ele><time>2026-05-02T09:43:41Z</time></trkpt><trkpt lat="41.80038796671695" lon="14.136732463513585"><ele>775.0</ele><time>2026-05-02T09:43:42Z</time></trkpt><trkpt lat="41.800139114281045" lon="14.136669741023985"><ele>776.0</ele><time>2026-05-02T09:43:43Z</time></trkpt><trkpt lat="41.79989394114012" lon="14.136605935312014"><ele>777.0</ele><time>2026-05-02T09:43:44Z</time></trkpt><trkpt lat="41.799650628127765" lon="14.136539285835067"><ele>777.0</ele><time>2026-05-02T09:43:45Z</time></trkpt><trkpt lat="41.799405858523684" lon="14.136469843025317"><ele>777.0</ele><time>2026-05-02T09:43:46Z</time></trkpt><trkpt lat="41.79916609530118" lon="14.136395774149149"><ele>777.5</ele><time>2026-05-02T09:43:47Z</time></trkpt><trkpt lat="41.7989290455474" lon="14.136320764837272"><ele>778.0</ele><time>2026-05-02T09:43:48Z</time></trkpt><trkpt lat="41.798688779639015" lon="14.136250861069332"><ele>779.0</ele><time>2026-05-02T09:43:49Z</time></trkpt><trkpt lat="41.79845039689276" lon="14.136178704401358"><ele>780.0</ele><time>2026-05-02T09:43:50Z</time></trkpt><trkpt lat="41.7982102190498" lon="14.136111321038642"><ele>780.0</ele><time>2026-05-02T09:43:51Z</time></trkpt><trkpt lat="41.797977810462704" lon="14.136042594226039"><ele>780.0</ele><time>2026-05-02T09:43:52Z</time></trkpt><trkpt lat="41.79773348661076" lon="14.135973753761437"><ele>781.5</ele><time>2026-05-02T09:43:53Z</time></trkpt><trkpt lat="41.79748747990211" lon="14.135903826093424"><ele>783.0</ele><time>2026-05-02T09:43:54Z</time></trkpt><trkpt lat="41.79724340654878" lon="14.135843061412663"><ele>783.0</ele><time>2026-05-02T09:43:55Z</time></trkpt><trkpt lat="41.797001114783995" lon="14.135791159427995"><ele>783.0</ele><time>2026-05-02T09:43:56Z</time></trkpt><trkpt lat="41.79675938349451" lon="14.135741598033183"><ele>782.0</ele><time>2026-05-02T09:43:57Z</time></trkpt><trkpt lat="41.79651680937982" lon="14.135696151901948"><ele>781.0</ele><time>2026-05-02T09:43:58Z</time></trkpt><trkpt lat="41.79627586027774" lon="14.135652913221382"><ele>781.0</ele><time>2026-05-02T09:43:59Z</time></trkpt><trkpt lat="41.79603792474924" lon="14.13561219696306"><ele>781.0</ele><time>2026-05-02T09:44:00Z</time></trkpt><trkpt lat="41.79579673903295" lon="14.135585267632383"><ele>782.0</ele><time>2026-05-02T09:44:01Z</time></trkpt><trkpt lat="41.79555498826442" lon="14.135554565022057"><ele>783.0</ele><time>2026-05-02T09:44:02Z</time></trkpt><trkpt lat="41.79531593461654" lon="14.135539649781967"><ele>784.0</ele><time>2026-05-02T09:44:03Z</time></trkpt><trkpt lat="41.79508132219744" lon="14.135528486669717"><ele>785.0</ele><time>2026-05-02T09:44:04Z</time></trkpt><trkpt lat="41.79484654094093" lon="14.135523308458188"><ele>785.0</ele><time>2026-05-02T09:44:05Z</time></trkpt><trkpt lat="41.79461384084001" lon="14.13552970748535"><ele>785.0</ele><time>2026-05-02T09:44:06Z</time></trkpt><trkpt lat="41.794372347762824" lon="14.135530295436867"><ele>784.5</ele><time>2026-05-02T09:44:07Z</time></trkpt><trkpt lat="41.794134940496235" lon="14.135539602450802"><ele>784.0</ele><time>2026-05-02T09:44:08Z</time></trkpt><trkpt lat="41.79390119215177" lon="14.135563818248029"><ele>784.0</ele><time>2026-05-02T09:44:09Z</time></trkpt><trkpt lat="41.79365441905849" lon="14.135593112979837"><ele>784.0</ele><time>2026-05-02T09:44:10Z</time></trkpt><trkpt lat="41.79340680884032" lon="14.13561161031265"><ele>785.5</ele><time>2026-05-02T09:44:11Z</time></trkpt><trkpt lat="41.793162347265735" lon="14.135625422080185"><ele>787.0</ele><time>2026-05-02T09:44:12Z</time></trkpt><trkpt lat="41.792924834430025" lon="14.135642503746713"><ele>787.0</ele><time>2026-05-02T09:44:13Z</time></trkpt><trkpt lat="41.792678765061396" lon="14.135656152810576"><ele>787.0</ele><time>2026-05-02T09:44:14Z</time></trkpt><trkpt lat="41.792441629648316" lon="14.135672763065635"><ele>787.5</ele><time>2026-05-02T09:44:15Z</time></trkpt><trkpt lat="41.79219532297046" lon="14.13568676278211"><ele>788.0</ele><time>2026-05-02T09:44:16Z</time></trkpt><trkpt lat="41.791953110040374" lon="14.135698799884695"><ele>789.0</ele><time>2026-05-02T09:44:17Z</time></trkpt><trkpt lat="41.79170901234833" lon="14.135696781634465"><ele>790.0</ele><time>2026-05-02T09:44:18Z</time></trkpt><trkpt lat="41.79146532513501" lon="14.13568650179487"><ele>790.0</ele><time>2026-05-02T09:44:19Z</time></trkpt><trkpt lat="41.79121811203615" lon="14.135675652725471"><ele>790.0</ele><time>2026-05-02T09:44:20Z</time></trkpt><trkpt lat="41.79097398227856" lon="14.13565696239883"><ele>790.0</ele><time>2026-05-02T09:44:21Z</time></trkpt><trkpt lat="41.79073424098147" lon="14.135646112850864"><ele>790.0</ele><time>2026-05-02T09:44:22Z</time></trkpt><trkpt lat="41.79048903558426" lon="14.13562083600232"><ele>790.0</ele><time>2026-05-02T09:44:23Z</time></trkpt><trkpt lat="41.79024549889484" lon="14.135601765375988"><ele>790.0</ele><time>2026-05-02T09:44:24Z</time></trkpt><trkpt lat="41.78999870195548" lon="14.135577486299077"><ele>790.5</ele><time>2026-05-02T09:44:25Z</time></trkpt><trkpt lat="41.78975483490671" lon="14.135549493035882"><ele>791.0</ele><time>2026-05-02T09:44:26Z</time></trkpt><trkpt lat="41.78950648378789" lon="14.135511299850668"><ele>792.0</ele><time>2026-05-02T09:44:27Z</time></trkpt><trkpt lat="41.789257845103165" lon="14.13546725679472"><ele>793.0</ele><time>2026-05-02T09:44:28Z</time></trkpt><trkpt lat="41.78901271637931" lon="14.135421688111247"><ele>793.0</ele><time>2026-05-02T09:44:29Z</time></trkpt><trkpt lat="41.78876314197419" lon="14.135372923735593"><ele>793.0</ele><time>2026-05-02T09:44:30Z</time></trkpt><trkpt lat="41.78851735200075" lon="14.135309862659062"><ele>794.0</ele><time>2026-05-02T09:44:31Z</time></trkpt><trkpt lat="41.78827580671764" lon="14.135252866439826"><ele>795.0</ele><time>2026-05-02T09:44:32Z</time></trkpt><trkpt lat="41.78803304868299" lon="14.135172759922341"><ele>795.0</ele><time>2026-05-02T09:44:33Z</time></trkpt><trkpt lat="41.78779029833094" lon="14.135102725980333"><ele>795.0</ele><time>2026-05-02T09:44:34Z</time></trkpt><trkpt lat="41.78755274090222" lon="14.135034189856455"><ele>795.5</ele><time>2026-05-02T09:44:35Z</time></trkpt><trkpt lat="41.787305268842026" lon="14.13498131672181"><ele>796.0</ele><time>2026-05-02T09:44:36Z</time></trkpt><trkpt lat="41.78706103081119" lon="14.1349066429903"><ele>796.0</ele><time>2026-05-02T09:44:37Z</time></trkpt><trkpt lat="41.78681853860358" lon="14.134836300930163"><ele>796.0</ele><time>2026-05-02T09:44:38Z</time></trkpt><trkpt lat="41.78657345193054" lon="14.134775585774056"><ele>796.0</ele><time>2026-05-02T09:44:39Z</time></trkpt><trkpt lat="41.786334195612625" lon="14.134706841813161"><ele>796.0</ele><time>2026-05-02T09:44:40Z</time></trkpt><trkpt lat="41.78609292311415" lon="14.13463832883353"><ele>796.5</ele><time>2026-05-02T09:44:41Z</time></trkpt><trkpt lat="41.78585010279116" lon="14.134572534973477"><ele>797.0</ele><time>2026-05-02T09:44:42Z</time></trkpt><trkpt lat="41.78560957529369" lon="14.13449821760956"><ele>797.0</ele><time>2026-05-02T09:44:43Z</time></trkpt><trkpt lat="41.78536423056497" lon="14.134436921263749"><ele>797.0</ele><time>2026-05-02T09:44:44Z</time></trkpt><trkpt lat="41.785122192722085" lon="14.134361742808702"><ele>798.5</ele><time>2026-05-02T09:44:45Z</time></trkpt><trkpt lat="41.784880348469066" lon="14.13428910077706"><ele>800.0</ele><time>2026-05-02T09:44:46Z</time></trkpt><trkpt lat="41.78463382518078" lon="14.13421595307708"><ele>800.0</ele><time>2026-05-02T09:44:47Z</time></trkpt><trkpt lat="41.78438756145516" lon="14.13414333162838"><ele>800.0</ele><time>2026-05-02T09:44:48Z</time></trkpt><trkpt lat="41.78414018666122" lon="14.134076918563462"><ele>801.0</ele><time>2026-05-02T09:44:49Z</time></trkpt><trkpt lat="41.783891486115955" lon="14.134013687741593"><ele>802.0</ele><time>2026-05-02T09:44:50Z</time></trkpt><trkpt lat="41.78363944399692" lon="14.133947029177797"><ele>802.5</ele><time>2026-05-02T09:44:51Z</time></trkpt><trkpt lat="41.78339244919246" lon="14.133878389374265"><ele>803.0</ele><time>2026-05-02T09:44:52Z</time></trkpt><trkpt lat="41.783150879442" lon="14.133802684563266"><ele>803.0</ele><time>2026-05-02T09:44:53Z</time></trkpt><trkpt lat="41.78291396969918" lon="14.133725048043264"><ele>803.0</ele><time>2026-05-02T09:44:54Z</time></trkpt><trkpt lat="41.7826703319757" lon="14.133655136918538"><ele>803.5</ele><time>2026-05-02T09:44:55Z</time></trkpt><trkpt lat="41.78242384013644" lon="14.133591487603875"><ele>804.0</ele><time>2026-05-02T09:44:56Z</time></trkpt><trkpt lat="41.78218298847402" lon="14.133511301825617"><ele>804.0</ele><time>2026-05-02T09:44:57Z</time></trkpt><trkpt lat="41.78193402792296" lon="14.13344397218916"><ele>804.0</ele><time>2026-05-02T09:44:58Z</time></trkpt><trkpt lat="41.78169246460269" lon="14.13338451337937"><ele>804.5</ele><time>2026-05-02T09:44:59Z</time></trkpt><trkpt lat="41.781451248062645" lon="14.133321927643205"><ele>805.0</ele><time>2026-05-02T09:45:00Z</time></trkpt><trkpt lat="41.781208275018706" lon="14.133249129839163"><ele>806.0</ele><time>2026-05-02T09:45:01Z</time></trkpt><trkpt lat="41.780963547151366" lon="14.133172596053903"><ele>807.0</ele><time>2026-05-02T09:45:02Z</time></trkpt><trkpt lat="41.78071773057639" lon="14.133102667147618"><ele>807.0</ele><time>2026-05-02T09:45:03Z</time></trkpt><trkpt lat="41.78047527354715" lon="14.1330272652328"><ele>807.0</ele><time>2026-05-02T09:45:04Z</time></trkpt><trkpt lat="41.78023582867067" lon="14.132961428120124"><ele>807.0</ele><time>2026-05-02T09:45:05Z</time></trkpt><trkpt lat="41.779995066275745" lon="14.132890674367433"><ele>807.0</ele><time>2026-05-02T09:45:06Z</time></trkpt><trkpt lat="41.77975286741944" lon="14.132826232637687"><ele>807.0</ele><time>2026-05-02T09:45:07Z</time></trkpt><trkpt lat="41.77951386785956" lon="14.13276349336856"><ele>807.0</ele><time>2026-05-02T09:45:08Z</time></trkpt><trkpt lat="41.77927704077037" lon="14.132700569539377"><ele>808.0</ele><time>2026-05-02T09:45:09Z</time></trkpt><trkpt lat="41.779041179318156" lon="14.132623177380832"><ele>809.0</ele><time>2026-05-02T09:45:10Z</time></trkpt><trkpt lat="41.77880551527278" lon="14.132555466458845"><ele>809.0</ele><time>2026-05-02T09:45:11Z</time></trkpt><trkpt lat="41.778564429587334" lon="14.132492485218078"><ele>809.0</ele><time>2026-05-02T09:45:12Z</time></trkpt><trkpt lat="41.778326196853484" lon="14.132425220733289"><ele>810.5</ele><time>2026-05-02T09:45:13Z</time></trkpt><trkpt lat="41.77808965157117" lon="14.132357091866316"><ele>812.0</ele><time>2026-05-02T09:45:14Z</time></trkpt><trkpt lat="41.77784923852515" lon="14.132291340362134"><ele>813.5</ele><time>2026-05-02T09:45:15Z</time></trkpt><trkpt lat="41.77761218356389" lon="14.132232763464833"><ele>815.0</ele><time>2026-05-02T09:45:16Z</time></trkpt><trkpt lat="41.777373360625276" lon="14.132171238948686"><ele>815.0</ele><time>2026-05-02T09:45:17Z</time></trkpt><trkpt lat="41.77713434705292" lon="14.132104821738753"><ele>815.0</ele><time>2026-05-02T09:45:18Z</time></trkpt><trkpt lat="41.776897545891444" lon="14.132037895644782"><ele>816.0</ele><time>2026-05-02T09:45:19Z</time></trkpt><trkpt lat="41.77666242326935" lon="14.131969789196672"><ele>817.0</ele><time>2026-05-02T09:45:20Z</time></trkpt><trkpt lat="41.776425929644624" lon="14.131904807011951"><ele>817.0</ele><time>2026-05-02T09:45:21Z</time></trkpt><trkpt lat="41.7761891605532" lon="14.131843883403658"><ele>817.0</ele><time>2026-05-02T09:45:22Z</time></trkpt><trkpt lat="41.77595266308187" lon="14.131779533866455"><ele>819.0</ele><time>2026-05-02T09:45:23Z</time></trkpt><trkpt lat="41.775717110268914" lon="14.131713003651823"><ele>821.0</ele><time>2026-05-02T09:45:24Z</time></trkpt><trkpt lat="41.77548192065435" lon="14.131651342547723"><ele>821.0</ele><time>2026-05-02T09:45:25Z</time></trkpt><trkpt lat="41.77524546080027" lon="14.131588013408114"><ele>821.0</ele><time>2026-05-02T09:45:26Z</time></trkpt><trkpt lat="41.77500672546969" lon="14.131524658064121"><ele>823.0</ele><time>2026-05-02T09:45:27Z</time></trkpt><trkpt lat="41.77477153319814" lon="14.131459842198334"><ele>825.0</ele><time>2026-05-02T09:45:28Z</time></trkpt><trkpt lat="41.774535778583015" lon="14.13139529517427"><ele>825.0</ele><time>2026-05-02T09:45:29Z</time></trkpt><trkpt lat="41.7742960229051" lon="14.131334157471779"><ele>825.0</ele><time>2026-05-02T09:45:30Z</time></trkpt><trkpt lat="41.77405793476509" lon="14.131289168632142"><ele>825.0</ele><time>2026-05-02T09:45:31Z</time></trkpt><trkpt lat="41.7738171404908" lon="14.131229605337852"><ele>825.0</ele><time>2026-05-02T09:45:32Z</time></trkpt><trkpt lat="41.77357946705742" lon="14.131166824835"><ele>825.5</ele><time>2026-05-02T09:45:33Z</time></trkpt><trkpt lat="41.77333887403934" lon="14.131106260212032"><ele>826.0</ele><time>2026-05-02T09:45:34Z</time></trkpt><trkpt lat="41.773098440019325" lon="14.13104351758898"><ele>826.0</ele><time>2026-05-02T09:45:35Z</time></trkpt><trkpt lat="41.77286139735119" lon="14.130981108235646"><ele>826.0</ele><time>2026-05-02T09:45:36Z</time></trkpt><trkpt lat="41.77262346369597" lon="14.130920912238592"><ele>826.0</ele><time>2026-05-02T09:45:37Z</time></trkpt><trkpt lat="41.77238599501453" lon="14.130864525818538"><ele>826.0</ele><time>2026-05-02T09:45:38Z</time></trkpt><trkpt lat="41.77214812065793" lon="14.130804957579304"><ele>826.0</ele><time>2026-05-02T09:45:39Z</time></trkpt><trkpt lat="41.77191030461028" lon="14.130747667419064"><ele>826.0</ele><time>2026-05-02T09:45:40Z</time></trkpt><trkpt lat="41.77167290208271" lon="14.130689872342915"><ele>826.5</ele><time>2026-05-02T09:45:41Z</time></trkpt><trkpt lat="41.77143566400261" lon="14.130624144440144"><ele>827.0</ele><time>2026-05-02T09:45:42Z</time></trkpt><trkpt lat="41.77120894171088" lon="14.130566123809414"><ele>827.0</ele><time>2026-05-02T09:45:43Z</time></trkpt><trkpt lat="41.770972565107215" lon="14.130487323073627"><ele>827.0</ele><time>2026-05-02T09:45:44Z</time></trkpt><trkpt lat="41.770728097617976" lon="14.13045393550675"><ele>827.0</ele><time>2026-05-02T09:45:45Z</time></trkpt><trkpt lat="41.77049172781582" lon="14.13039047488995"><ele>827.0</ele><time>2026-05-02T09:45:46Z</time></trkpt><trkpt lat="41.77025811482226" lon="14.130332926536905"><ele>827.0</ele><time>2026-05-02T09:45:47Z</time></trkpt><trkpt lat="41.77002397943925" lon="14.130267342793221"><ele>827.0</ele><time>2026-05-02T09:45:48Z</time></trkpt><trkpt lat="41.76978654619508" lon="14.130207045241717"><ele>827.0</ele><time>2026-05-02T09:45:49Z</time></trkpt><trkpt lat="41.76954988457171" lon="14.13014218987905"><ele>827.0</ele><time>2026-05-02T09:45:50Z</time></trkpt><trkpt lat="41.76931065375368" lon="14.130087529074135"><ele>826.0</ele><time>2026-05-02T09:45:51Z</time></trkpt><trkpt lat="41.76907251344039" lon="14.130033983693263"><ele>825.0</ele><time>2026-05-02T09:45:52Z</time></trkpt><trkpt lat="41.76883285476963" lon="14.129979824644264"><ele>825.0</ele><time>2026-05-02T09:45:53Z</time></trkpt><trkpt lat="41.76859972641493" lon="14.12991672658665"><ele>825.0</ele><time>2026-05-02T09:45:54Z</time></trkpt><trkpt lat="41.768361378253104" lon="14.129860084872751"><ele>823.5</ele><time>2026-05-02T09:45:55Z</time></trkpt><trkpt lat="41.76812282671171" lon="14.12980066097308"><ele>822.0</ele><time>2026-05-02T09:45:56Z</time></trkpt><trkpt lat="41.76788220096525" lon="14.129746977211632"><ele>822.5</ele><time>2026-05-02T09:45:57Z</time></trkpt><trkpt lat="41.767644757832045" lon="14.129684969742856"><ele>823.0</ele><time>2026-05-02T09:45:58Z</time></trkpt><trkpt lat="41.76740853157033" lon="14.1296206579475"><ele>823.0</ele><time>2026-05-02T09:45:59Z</time></trkpt><trkpt lat="41.767170348929426" lon="14.129561778650551"><ele>823.0</ele><time>2026-05-02T09:46:00Z</time></trkpt><trkpt lat="41.76693324654101" lon="14.129513342310299"><ele>823.5</ele><time>2026-05-02T09:46:01Z</time></trkpt><trkpt lat="41.766696678181454" lon="14.129458271789577"><ele>824.0</ele><time>2026-05-02T09:46:02Z</time></trkpt><trkpt lat="41.766462444104405" lon="14.129403499453321"><ele>824.0</ele><time>2026-05-02T09:46:03Z</time></trkpt><trkpt lat="41.76622785096412" lon="14.129342289822507"><ele>824.0</ele><time>2026-05-02T09:46:04Z</time></trkpt><trkpt lat="41.765999079613486" lon="14.129266530626065"><ele>825.0</ele><time>2026-05-02T09:46:05Z</time></trkpt><trkpt lat="41.765766830945694" lon="14.129208664123082"><ele>826.0</ele><time>2026-05-02T09:46:06Z</time></trkpt><trkpt lat="41.76553246604412" lon="14.129150270489086"><ele>826.0</ele><time>2026-05-02T09:46:07Z</time></trkpt><trkpt lat="41.765301750566415" lon="14.129092785897978"><ele>826.0</ele><time>2026-05-02T09:46:08Z</time></trkpt><trkpt lat="41.76507012381638" lon="14.129035074388339"><ele>829.0</ele><time>2026-05-02T09:46:09Z</time></trkpt><trkpt lat="41.764838035884665" lon="14.128977249615621"><ele>832.0</ele><time>2026-05-02T09:46:10Z</time></trkpt><trkpt lat="41.76460322529534" lon="14.128936678971902"><ele>832.0</ele><time>2026-05-02T09:46:11Z</time></trkpt><trkpt lat="41.764374405636836" lon="14.128878366518745"><ele>832.0</ele><time>2026-05-02T09:46:12Z</time></trkpt><trkpt lat="41.76414775031679" lon="14.128814282063503"><ele>835.0</ele><time>2026-05-02T09:46:13Z</time></trkpt><trkpt lat="41.76392415340798" lon="14.128743771352365"><ele>838.0</ele><time>2026-05-02T09:46:14Z</time></trkpt><trkpt lat="41.76370056123889" lon="14.128653130226029"><ele>841.3333333333333</ele><time>2026-05-02T09:46:15Z</time></trkpt><trkpt lat="41.76348889824989" lon="14.128553205436837"><ele>844.6666666666667</ele><time>2026-05-02T09:46:16Z</time></trkpt><trkpt lat="41.763285054252535" lon="14.128439342977119"><ele>848.0</ele><time>2026-05-02T09:46:17Z</time></trkpt><trkpt lat="41.76307724283879" lon="14.128320097672828"><ele>851.0</ele><time>2026-05-02T09:46:18Z</time></trkpt><trkpt lat="41.76287349616023" lon="14.128177674231326"><ele>854.0</ele><time>2026-05-02T09:46:19Z</time></trkpt><trkpt lat="41.76266493832123" lon="14.128024729708423"><ele>857.0</ele><time>2026-05-02T09:46:20Z</time></trkpt><trkpt lat="41.762430481311746" lon="14.127848355979276"><ele>860.0</ele><time>2026-05-02T09:46:21Z</time></trkpt><trkpt lat="41.76221822894117" lon="14.127668229284485"><ele>860.0</ele><time>2026-05-02T09:46:22Z</time></trkpt><trkpt lat="41.762027018438935" lon="14.12747812436158"><ele>860.0</ele><time>2026-05-02T09:46:23Z</time></trkpt><trkpt lat="41.761842808514274" lon="14.12727608179328"><ele>859.5</ele><time>2026-05-02T09:46:24Z</time></trkpt><trkpt lat="41.76166641532606" lon="14.127059813976404"><ele>859.0</ele><time>2026-05-02T09:46:25Z</time></trkpt><trkpt lat="41.76149573554802" lon="14.126840511913421"><ele>859.0</ele><time>2026-05-02T09:46:26Z</time></trkpt><trkpt lat="41.761333514104656" lon="14.126611618594248"><ele>859.0</ele><time>2026-05-02T09:46:27Z</time></trkpt><trkpt lat="41.76117217199961" lon="14.126373826087848"><ele>859.5</ele><time>2026-05-02T09:46:28Z</time></trkpt><trkpt lat="41.76100985948557" lon="14.126143630310953"><ele>860.0</ele><time>2026-05-02T09:46:29Z</time></trkpt><trkpt lat="41.76084531005723" lon="14.125917560253486"><ele>865.0</ele><time>2026-05-02T09:46:30Z</time></trkpt><trkpt lat="41.7606833225253" lon="14.125680184365685"><ele>870.0</ele><time>2026-05-02T09:46:31Z</time></trkpt><trkpt lat="41.760519173208344" lon="14.125446187786089"><ele>870.0</ele><time>2026-05-02T09:46:32Z</time></trkpt><trkpt lat="41.76035472728975" lon="14.125217913156142"><ele>870.0</ele><time>2026-05-02T09:46:33Z</time></trkpt><trkpt lat="41.760193293608175" lon="14.124976796745502"><ele>867.5</ele><time>2026-05-02T09:46:34Z</time></trkpt><trkpt lat="41.76002837778555" lon="14.124747910122322"><ele>865.0</ele><time>2026-05-02T09:46:35Z</time></trkpt><trkpt lat="41.759864821402" lon="14.12451515447214"><ele>865.0</ele><time>2026-05-02T09:46:36Z</time></trkpt><trkpt lat="41.759698421557204" lon="14.12428521110095"><ele>865.0</ele><time>2026-05-02T09:46:37Z</time></trkpt><trkpt lat="41.75953737045846" lon="14.12404312449362"><ele>869.5</ele><time>2026-05-02T09:46:38Z</time></trkpt><trkpt lat="41.75937695411224" lon="14.123812220875068"><ele>874.0</ele><time>2026-05-02T09:46:39Z</time></trkpt><trkpt lat="41.75921741988477" lon="14.123577074289589"><ele>874.0</ele><time>2026-05-02T09:46:40Z</time></trkpt><trkpt lat="41.75905692936855" lon="14.123341856054209"><ele>874.0</ele><time>2026-05-02T09:46:41Z</time></trkpt><trkpt lat="41.75889489784091" lon="14.12310907970998"><ele>881.0</ele><time>2026-05-02T09:46:42Z</time></trkpt><trkpt lat="41.75873019940262" lon="14.122879393380298"><ele>888.0</ele><time>2026-05-02T09:46:43Z</time></trkpt><trkpt lat="41.75856096070306" lon="14.122659054724474"><ele>889.0</ele><time>2026-05-02T09:46:44Z</time></trkpt><trkpt lat="41.75838743089869" lon="14.122443440507677"><ele>890.0</ele><time>2026-05-02T09:46:45Z</time></trkpt><trkpt lat="41.758210510607704" lon="14.122231089724803"><ele>890.0</ele><time>2026-05-02T09:46:46Z</time></trkpt><trkpt lat="41.75803148517761" lon="14.122017651889735"><ele>890.0</ele><time>2026-05-02T09:46:47Z</time></trkpt><trkpt lat="41.75784452535217" lon="14.121814545349535"><ele>886.0</ele><time>2026-05-02T09:46:48Z</time></trkpt><trkpt lat="41.75765569272577" lon="14.12161590400169"><ele>882.0</ele><time>2026-05-02T09:46:49Z</time></trkpt><trkpt lat="41.757463980282026" lon="14.121417547762789"><ele>882.0</ele><time>2026-05-02T09:46:50Z</time></trkpt><trkpt lat="41.75726713555703" lon="14.12123212015265"><ele>882.0</ele><time>2026-05-02T09:46:51Z</time></trkpt><trkpt lat="41.75706115706239" lon="14.121063569789326"><ele>881.0</ele><time>2026-05-02T09:46:52Z</time></trkpt><trkpt lat="41.75686581609613" lon="14.12087797392607"><ele>880.0</ele><time>2026-05-02T09:46:53Z</time></trkpt><trkpt lat="41.75666959293512" lon="14.120698593754465"><ele>880.0</ele><time>2026-05-02T09:46:54Z</time></trkpt><trkpt lat="41.75642843658595" lon="14.120597644653486"><ele>880.0</ele><time>2026-05-02T09:46:55Z</time></trkpt><trkpt lat="41.75621138127455" lon="14.120446869754613"><ele>881.0</ele><time>2026-05-02T09:46:56Z</time></trkpt><trkpt lat="41.755992322112704" lon="14.120300596783919"><ele>882.0</ele><time>2026-05-02T09:46:57Z</time></trkpt><trkpt lat="41.75576927995648" lon="14.120164665206072"><ele>882.0</ele><time>2026-05-02T09:46:58Z</time></trkpt><trkpt lat="41.755544082987974" lon="14.120040019431084"><ele>882.0</ele><time>2026-05-02T09:46:59Z</time></trkpt><trkpt lat="41.75532062953592" lon="14.119906386713142"><ele>890.5</ele><time>2026-05-02T09:47:00Z</time></trkpt><trkpt lat="41.75509651510464" lon="14.11977770745892"><ele>899.0</ele><time>2026-05-02T09:47:01Z</time></trkpt><trkpt lat="41.75487409885463" lon="14.119645686600352"><ele>899.0</ele><time>2026-05-02T09:47:02Z</time></trkpt><trkpt lat="41.75465230359608" lon="14.11951355625054"><ele>899.0</ele><time>2026-05-02T09:47:03Z</time></trkpt><trkpt lat="41.754432491157054" lon="14.119383013993408"><ele>896.5</ele><time>2026-05-02T09:47:04Z</time></trkpt><trkpt lat="41.75421321786149" lon="14.119260941082956"><ele>894.0</ele><time>2026-05-02T09:47:05Z</time></trkpt><trkpt lat="41.753991506906196" lon="14.119122683445578"><ele>900.0</ele><time>2026-05-02T09:47:06Z</time></trkpt><trkpt lat="41.753769267431096" lon="14.11898417398908"><ele>906.0</ele><time>2026-05-02T09:47:07Z</time></trkpt><trkpt lat="41.75354803992809" lon="14.118843637704037"><ele>902.0</ele><time>2026-05-02T09:47:08Z</time></trkpt><trkpt lat="41.753327020850584" lon="14.118707447824411"><ele>898.0</ele><time>2026-05-02T09:47:09Z</time></trkpt><trkpt lat="41.75310490261669" lon="14.118579676313173"><ele>898.0</ele><time>2026-05-02T09:47:10Z</time></trkpt><trkpt lat="41.75288101858067" lon="14.118453200577447"><ele>898.0</ele><time>2026-05-02T09:47:11Z</time></trkpt><trkpt lat="41.7526583298008" lon="14.118314734868054"><ele>897.0</ele><time>2026-05-02T09:47:12Z</time></trkpt><trkpt lat="41.75243580188921" lon="14.118188133265175"><ele>896.0</ele><time>2026-05-02T09:47:13Z</time></trkpt><trkpt lat="41.75221276813566" lon="14.118058471230936"><ele>896.0</ele><time>2026-05-02T09:47:14Z</time></trkpt><trkpt lat="41.75199150756627" lon="14.117921918043495"><ele>896.0</ele><time>2026-05-02T09:47:15Z</time></trkpt><trkpt lat="41.75176560074388" lon="14.117800155204945"><ele>896.0</ele><time>2026-05-02T09:47:16Z</time></trkpt><trkpt lat="41.751544238147325" lon="14.11766707462409"><ele>896.0</ele><time>2026-05-02T09:47:17Z</time></trkpt><trkpt lat="41.75131957352234" lon="14.11753456575824"><ele>892.5</ele><time>2026-05-02T09:47:18Z</time></trkpt><trkpt lat="41.75109487620921" lon="14.11739628567477"><ele>889.0</ele><time>2026-05-02T09:47:19Z</time></trkpt><trkpt lat="41.750868629908666" lon="14.117269480724065"><ele>889.0</ele><time>2026-05-02T09:47:20Z</time></trkpt><trkpt lat="41.75064459218624" lon="14.117132917842637"><ele>889.0</ele><time>2026-05-02T09:47:21Z</time></trkpt><trkpt lat="41.75041816757454" lon="14.117010853052209"><ele>896.5</ele><time>2026-05-02T09:47:22Z</time></trkpt><trkpt lat="41.750195818977375" lon="14.116883790565709"><ele>904.0</ele><time>2026-05-02T09:47:23Z</time></trkpt><trkpt lat="41.74997248997778" lon="14.116757986806144"><ele>904.0</ele><time>2026-05-02T09:47:24Z</time></trkpt><trkpt lat="41.74974807801067" lon="14.116627145449685"><ele>904.0</ele><time>2026-05-02T09:47:25Z</time></trkpt><trkpt lat="41.74952481383619" lon="14.116502407207895"><ele>907.5</ele><time>2026-05-02T09:47:26Z</time></trkpt><trkpt lat="41.749304268497106" lon="14.116371838196986"><ele>911.0</ele><time>2026-05-02T09:47:27Z</time></trkpt><trkpt lat="41.74908127378882" lon="14.116241656991924"><ele>911.0</ele><time>2026-05-02T09:47:28Z</time></trkpt><trkpt lat="41.74886033907355" lon="14.116110676845308"><ele>911.0</ele><time>2026-05-02T09:47:29Z</time></trkpt><trkpt lat="41.74863709404094" lon="14.115997674589222"><ele>916.0</ele><time>2026-05-02T09:47:30Z</time></trkpt><trkpt lat="41.74841430488102" lon="14.115879443015533"><ele>921.0</ele><time>2026-05-02T09:47:31Z</time></trkpt><trkpt lat="41.748192782914344" lon="14.115751903344785"><ele>919.0</ele><time>2026-05-02T09:47:32Z</time></trkpt><trkpt lat="41.747969514264334" lon="14.115621811598167"><ele>917.0</ele><time>2026-05-02T09:47:33Z</time></trkpt><trkpt lat="41.747744111638745" lon="14.115505815234817"><ele>917.5</ele><time>2026-05-02T09:47:34Z</time></trkpt><trkpt lat="41.74751521001739" lon="14.115395286600046"><ele>918.0</ele><time>2026-05-02T09:47:35Z</time></trkpt><trkpt lat="41.74728395727149" lon="14.11530419170544"><ele>918.0</ele><time>2026-05-02T09:47:36Z</time></trkpt><trkpt lat="41.74705126404056" lon="14.115197497569406"><ele>918.0</ele><time>2026-05-02T09:47:37Z</time></trkpt><trkpt lat="41.74681856535709" lon="14.115094948881623"><ele>917.5</ele><time>2026-05-02T09:47:38Z</time></trkpt><trkpt lat="41.746583958980004" lon="14.11498924915081"><ele>917.0</ele><time>2026-05-02T09:47:39Z</time></trkpt><trkpt lat="41.74634890049042" lon="14.114884326688154"><ele>915.0</ele><time>2026-05-02T09:47:40Z</time></trkpt><trkpt lat="41.74611418467752" lon="14.114789222261537"><ele>913.0</ele><time>2026-05-02T09:47:41Z</time></trkpt><trkpt lat="41.74587874407331" lon="14.114684576115467"><ele>913.0</ele><time>2026-05-02T09:47:42Z</time></trkpt><trkpt lat="41.74564090113665" lon="14.114588020283154"><ele>913.0</ele><time>2026-05-02T09:47:43Z</time></trkpt><trkpt lat="41.74540281075232" lon="14.114489337616885"><ele>910.5</ele><time>2026-05-02T09:47:44Z</time></trkpt><trkpt lat="41.74516358038735" lon="14.11438831450119"><ele>908.0</ele><time>2026-05-02T09:47:45Z</time></trkpt><trkpt lat="41.74492313860265" lon="14.11428565632634"><ele>908.0</ele><time>2026-05-02T09:47:46Z</time></trkpt><trkpt lat="41.74468261706594" lon="14.114184141578976"><ele>908.0</ele><time>2026-05-02T09:47:47Z</time></trkpt><trkpt lat="41.74444453128513" lon="14.11407917879836"><ele>904.5</ele><time>2026-05-02T09:47:48Z</time></trkpt><trkpt lat="41.74420430750516" lon="14.113979673351984"><ele>901.0</ele><time>2026-05-02T09:47:49Z</time></trkpt><trkpt lat="41.743963877340576" lon="14.113881638435657"><ele>901.0</ele><time>2026-05-02T09:47:50Z</time></trkpt><trkpt lat="41.74372719415666" lon="14.113780976707023"><ele>901.0</ele><time>2026-05-02T09:47:51Z</time></trkpt><trkpt lat="41.74349156612248" lon="14.113682155487192"><ele>908.5</ele><time>2026-05-02T09:47:52Z</time></trkpt><trkpt lat="41.743252441195715" lon="14.113586807651464"><ele>916.0</ele><time>2026-05-02T09:47:53Z</time></trkpt><trkpt lat="41.74301335772454" lon="14.113503276407329"><ele>916.0</ele><time>2026-05-02T09:47:54Z</time></trkpt><trkpt lat="41.74277371989422" lon="14.113425898736194"><ele>916.0</ele><time>2026-05-02T09:47:55Z</time></trkpt><trkpt lat="41.7425354265082" lon="14.11335815685801"><ele>921.5</ele><time>2026-05-02T09:47:56Z</time></trkpt><trkpt lat="41.742296079163374" lon="14.113299024117419"><ele>927.0</ele><time>2026-05-02T09:47:57Z</time></trkpt><trkpt lat="41.74205688078678" lon="14.113242452312734"><ele>928.0</ele><time>2026-05-02T09:47:58Z</time></trkpt><trkpt lat="41.741817078646605" lon="14.113196694772762"><ele>929.0</ele><time>2026-05-02T09:47:59Z</time></trkpt><trkpt lat="41.741574654612116" lon="14.113146702086581"><ele>929.0</ele><time>2026-05-02T09:48:00Z</time></trkpt><trkpt lat="41.741332409247" lon="14.11310121941864"><ele>929.0</ele><time>2026-05-02T09:48:01Z</time></trkpt><trkpt lat="41.74108575298491" lon="14.113083239035978"><ele>929.0</ele><time>2026-05-02T09:48:02Z</time></trkpt><trkpt lat="41.74083824458816" lon="14.113074914377172"><ele>929.0</ele><time>2026-05-02T09:48:03Z</time></trkpt><trkpt lat="41.740589537030736" lon="14.113074805539082"><ele>929.0</ele><time>2026-05-02T09:48:04Z</time></trkpt><trkpt lat="41.74034384081219" lon="14.113084081571497"><ele>929.0</ele><time>2026-05-02T09:48:05Z</time></trkpt><trkpt lat="41.740102126518934" lon="14.113101030741667"><ele>928.5</ele><time>2026-05-02T09:48:06Z</time></trkpt><trkpt lat="41.73985911184038" lon="14.113148985670007"><ele>928.0</ele><time>2026-05-02T09:48:07Z</time></trkpt><trkpt lat="41.73961549227765" lon="14.113185913775956"><ele>928.5</ele><time>2026-05-02T09:48:08Z</time></trkpt><trkpt lat="41.73937417317808" lon="14.113238435680689"><ele>929.0</ele><time>2026-05-02T09:48:09Z</time></trkpt><trkpt lat="41.73913017075271" lon="14.113273401016045"><ele>935.5</ele><time>2026-05-02T09:48:10Z</time></trkpt><trkpt lat="41.73888910652873" lon="14.113334935145346"><ele>942.0</ele><time>2026-05-02T09:48:11Z</time></trkpt><trkpt lat="41.73865253116448" lon="14.113405704876516"><ele>939.5</ele><time>2026-05-02T09:48:12Z</time></trkpt><trkpt lat="41.738416775045955" lon="14.113486128165363"><ele>937.0</ele><time>2026-05-02T09:48:13Z</time></trkpt><trkpt lat="41.73818318777093" lon="14.11357475949468"><ele>937.0</ele><time>2026-05-02T09:48:14Z</time></trkpt><trkpt lat="41.7379519285433" lon="14.113669214155518"><ele>937.0</ele><time>2026-05-02T09:48:15Z</time></trkpt><trkpt lat="41.73772408748255" lon="14.113773935417452"><ele>931.0</ele><time>2026-05-02T09:48:16Z</time></trkpt><trkpt lat="41.73749677489122" lon="14.113885231411224"><ele>925.0</ele><time>2026-05-02T09:48:17Z</time></trkpt><trkpt lat="41.73727168072661" lon="14.114001082887334"><ele>927.0</ele><time>2026-05-02T09:48:18Z</time></trkpt><trkpt lat="41.737048540333554" lon="14.114128374544935"><ele>929.0</ele><time>2026-05-02T09:48:19Z</time></trkpt><trkpt lat="41.736828927634306" lon="14.114268084873686"><ele>929.0</ele><time>2026-05-02T09:48:20Z</time></trkpt><trkpt lat="41.73661957751779" lon="14.114428011940202"><ele>929.0</ele><time>2026-05-02T09:48:21Z</time></trkpt><trkpt lat="41.736406941020704" lon="14.114575743815216"><ele>929.0</ele><time>2026-05-02T09:48:22Z</time></trkpt><trkpt lat="41.73620096242678" lon="14.114733501683178"><ele>929.0</ele><time>2026-05-02T09:48:23Z</time></trkpt><trkpt lat="41.73599699222553" lon="14.11489604439031"><ele>939.0</ele><time>2026-05-02T09:48:24Z</time></trkpt><trkpt lat="41.735791942255496" lon="14.115045461692414"><ele>949.0</ele><time>2026-05-02T09:48:25Z</time></trkpt><trkpt lat="41.73560851467213" lon="14.115236894209202"><ele>949.0</ele><time>2026-05-02T09:48:26Z</time></trkpt><trkpt lat="41.735419496001676" lon="14.11541577432216"><ele>949.0</ele><time>2026-05-02T09:48:27Z</time></trkpt><trkpt lat="41.735231581737544" lon="14.115599035995197"><ele>955.0</ele><time>2026-05-02T09:48:28Z</time></trkpt><trkpt lat="41.735051065132836" lon="14.115790924404623"><ele>961.0</ele><time>2026-05-02T09:48:29Z</time></trkpt><trkpt lat="41.73487654944984" lon="14.115984758780007"><ele>961.0</ele><time>2026-05-02T09:48:30Z</time></trkpt><trkpt lat="41.73470619555405" lon="14.116180808420378"><ele>961.0</ele><time>2026-05-02T09:48:31Z</time></trkpt><trkpt lat="41.734543015167525" lon="14.116377790913955"><ele>961.0</ele><time>2026-05-02T09:48:32Z</time></trkpt><trkpt lat="41.734376081338574" lon="14.11657256906538"><ele>962.6666666666666</ele><time>2026-05-02T09:48:33Z</time></trkpt><trkpt lat="41.734215015510784" lon="14.116767392260524"><ele>964.3333333333333</ele><time>2026-05-02T09:48:34Z</time></trkpt><trkpt lat="41.73405262393395" lon="14.116958908679976"><ele>966.0</ele><time>2026-05-02T09:48:35Z</time></trkpt><trkpt lat="41.7338943609735" lon="14.11715469549375"><ele>966.0</ele><time>2026-05-02T09:48:36Z</time></trkpt><trkpt lat="41.73374030443689" lon="14.117348374459873"><ele>966.0</ele><time>2026-05-02T09:48:37Z</time></trkpt><trkpt lat="41.73357403855596" lon="14.117521119061246"><ele>966.0</ele><time>2026-05-02T09:48:38Z</time></trkpt><trkpt lat="41.73341949031905" lon="14.11771024750025"><ele>966.0</ele><time>2026-05-02T09:48:39Z</time></trkpt><trkpt lat="41.733277782017474" lon="14.11791240756072"><ele>966.0</ele><time>2026-05-02T09:48:40Z</time></trkpt><trkpt lat="41.73312492795725" lon="14.118096167100777"><ele>966.0</ele><time>2026-05-02T09:48:41Z</time></trkpt><trkpt lat="41.732967258176366" lon="14.118278594407183"><ele>966.0</ele><time>2026-05-02T09:48:42Z</time></trkpt><trkpt lat="41.732808875439055" lon="14.118457084797184"><ele>966.0</ele><time>2026-05-02T09:48:43Z</time></trkpt><trkpt lat="41.73265397831975" lon="14.118634640791571"><ele>966.0</ele><time>2026-05-02T09:48:44Z</time></trkpt><trkpt lat="41.732496840739685" lon="14.118814702065759"><ele>966.0</ele><time>2026-05-02T09:48:45Z</time></trkpt><trkpt lat="41.73233875710035" lon="14.11899488396018"><ele>966.0</ele><time>2026-05-02T09:48:46Z</time></trkpt><trkpt lat="41.73217842379098" lon="14.119172083124665"><ele>966.0</ele><time>2026-05-02T09:48:47Z</time></trkpt><trkpt lat="41.73201702996292" lon="14.119341168996337"><ele>966.0</ele><time>2026-05-02T09:48:48Z</time></trkpt><trkpt lat="41.73184966032759" lon="14.119503630757588"><ele>966.0</ele><time>2026-05-02T09:48:49Z</time></trkpt><trkpt lat="41.73168188238533" lon="14.119656691012539"><ele>966.0</ele><time>2026-05-02T09:48:50Z</time></trkpt><trkpt lat="41.7315157279671" lon="14.11979344432486"><ele>966.0</ele><time>2026-05-02T09:48:51Z</time></trkpt><trkpt lat="41.7313608459062" lon="14.119899553217586"><ele>966.0</ele><time>2026-05-02T09:48:52Z</time></trkpt><trkpt lat="41.731226664147975" lon="14.119976556675233"><ele>966.0</ele><time>2026-05-02T09:48:53Z</time></trkpt><trkpt lat="41.73119364544884" lon="14.120207128736805"><ele>965.8</ele><time>2026-05-02T09:48:54Z</time></trkpt><trkpt lat="41.73110225202709" lon="14.120301113155962"><ele>965.5999999999999</ele><time>2026-05-02T09:48:55Z</time></trkpt><trkpt lat="41.731026955193954" lon="14.12037854365942"><ele>965.4</ele><time>2026-05-02T09:48:56Z</time></trkpt><trkpt lat="41.730917642788576" lon="14.1204909500321"><ele>965.2</ele><time>2026-05-02T09:48:58Z</time></trkpt><trkpt lat="41.73084222930441" lon="14.120568498044118"><ele>965.0</ele><time>2026-05-02T09:48:59Z</time></trkpt><trkpt lat="41.73066889609445" lon="14.12050972504414"><ele>964.0</ele><time>2026-05-02T09:49:00Z</time></trkpt><trkpt lat="41.730539920507894" lon="14.120567456177943"><ele>963.0</ele><time>2026-05-02T09:49:01Z</time></trkpt><trkpt lat="41.730425057354786" lon="14.120659465070785"><ele>962.0</ele><time>2026-05-02T09:49:02Z</time></trkpt><trkpt lat="41.730293829209174" lon="14.120789736141909"><ele>961.0</ele><time>2026-05-02T09:49:03Z</time></trkpt><trkpt lat="41.730169962236715" lon="14.120915446831802"><ele>961.0</ele><time>2026-05-02T09:49:04Z</time></trkpt><trkpt lat="41.73006565716163" lon="14.12106433730518"><ele>961.0</ele><time>2026-05-02T09:49:05Z</time></trkpt><trkpt lat="41.73000072554592" lon="14.1212242201292"><ele>961.0</ele><time>2026-05-02T09:49:06Z</time></trkpt><trkpt lat="41.729960546116686" lon="14.121402917745085"><ele>961.0</ele><time>2026-05-02T09:49:07Z</time></trkpt><trkpt lat="41.72994784173531" lon="14.121584768483029"><ele>961.0</ele><time>2026-05-02T09:49:08Z</time></trkpt><trkpt lat="41.72997121156363" lon="14.12176951075059"><ele>961.0</ele><time>2026-05-02T09:49:09Z</time></trkpt><trkpt lat="41.730025853394224" lon="14.121947407463127"><ele>961.0</ele><time>2026-05-02T09:49:10Z</time></trkpt><trkpt lat="41.73006112678637" lon="14.122120237629874"><ele>961.0</ele><time>2026-05-02T09:49:11Z</time></trkpt><trkpt lat="41.730144979864264" lon="14.122270647696537"><ele>960.5</ele><time>2026-05-02T09:49:12Z</time></trkpt><trkpt lat="41.730261805336916" lon="14.122401977141676"><ele>960.0</ele><time>2026-05-02T09:49:13Z</time></trkpt><trkpt lat="41.73039238088423" lon="14.122490352074253"><ele>959.5</ele><time>2026-05-02T09:49:14Z</time></trkpt><trkpt lat="41.73052628400463" lon="14.122552067744609"><ele>959.0</ele><time>2026-05-02T09:49:15Z</time></trkpt><trkpt lat="41.730675936789815" lon="14.122565356805381"><ele>959.0</ele><time>2026-05-02T09:49:16Z</time></trkpt><trkpt lat="41.73082634775298" lon="14.122539346810857"><ele>959.0</ele><time>2026-05-02T09:49:17Z</time></trkpt><trkpt lat="41.73097369959924" lon="14.122480078313743"><ele>959.0</ele><time>2026-05-02T09:49:18Z</time></trkpt><trkpt lat="41.73110872367123" lon="14.122379815901438"><ele>959.0</ele><time>2026-05-02T09:49:19Z</time></trkpt><trkpt lat="41.73123868035404" lon="14.122248485422116"><ele>959.0</ele><time>2026-05-02T09:49:20Z</time></trkpt><trkpt lat="41.731358962037284" lon="14.122099542354453"><ele>959.0</ele><time>2026-05-02T09:49:21Z</time></trkpt><trkpt lat="41.73145478073386" lon="14.121929370623176"><ele>959.0</ele><time>2026-05-02T09:49:22Z</time></trkpt><trkpt lat="41.73152210024331" lon="14.121753147503789"><ele>959.0</ele><time>2026-05-02T09:49:23Z</time></trkpt><trkpt lat="41.731578001954254" lon="14.121602456906308"><ele>959.0</ele><time>2026-05-02T09:49:24Z</time></trkpt><trkpt lat="41.73167523994486" lon="14.121490983450167"><ele>959.0</ele><time>2026-05-02T09:49:25Z</time></trkpt><trkpt lat="41.73179494577255" lon="14.12143130962257"><ele>960.75</ele><time>2026-05-02T09:49:26Z</time></trkpt><trkpt lat="41.73192787968395" lon="14.121433734507766"><ele>962.5</ele><time>2026-05-02T09:49:27Z</time></trkpt><trkpt lat="41.73207383462695" lon="14.121446756668533"><ele>964.25</ele><time>2026-05-02T09:49:28Z</time></trkpt><trkpt lat="41.73223527980776" lon="14.121383495429848"><ele>966.0</ele><time>2026-05-02T09:49:29Z</time></trkpt><trkpt lat="41.73242133785516" lon="14.121248848660045"><ele>966.0</ele><time>2026-05-02T09:49:30Z</time></trkpt><trkpt lat="41.73259147952392" lon="14.121111510267621"><ele>966.0</ele><time>2026-05-02T09:49:31Z</time></trkpt><trkpt lat="41.732747083906574" lon="14.120945910886604"><ele>966.0</ele><time>2026-05-02T09:49:32Z</time></trkpt><trkpt lat="41.73290389555764" lon="14.120789090785387"><ele>968.0</ele><time>2026-05-02T09:49:33Z</time></trkpt><trkpt lat="41.733048930219354" lon="14.120625730157348"><ele>970.0</ele><time>2026-05-02T09:49:34Z</time></trkpt><trkpt lat="41.73317338856166" lon="14.120435239111618"><ele>972.0</ele><time>2026-05-02T09:49:35Z</time></trkpt><trkpt lat="41.73327749758873" lon="14.1202294190147"><ele>972.0</ele><time>2026-05-02T09:49:36Z</time></trkpt><trkpt lat="41.7333742936285" lon="14.120007864475346"><ele>972.0</ele><time>2026-05-02T09:49:37Z</time></trkpt><trkpt lat="41.73346417050281" lon="14.119763593493245"><ele>972.0</ele><time>2026-05-02T09:49:38Z</time></trkpt><trkpt lat="41.73355705302603" lon="14.119513753009498"><ele>971.0</ele><time>2026-05-02T09:49:39Z</time></trkpt><trkpt lat="41.73366657218217" lon="14.119276650522075"><ele>970.0</ele><time>2026-05-02T09:49:40Z</time></trkpt><trkpt lat="41.733747773210474" lon="14.119019031434643"><ele>969.0</ele><time>2026-05-02T09:49:41Z</time></trkpt><trkpt lat="41.733847877455744" lon="14.118764404624233"><ele>969.0</ele><time>2026-05-02T09:49:42Z</time></trkpt><trkpt lat="41.73394817313987" lon="14.11850863820523"><ele>969.0</ele><time>2026-05-02T09:49:43Z</time></trkpt><trkpt lat="41.73405225230452" lon="14.118245586483152"><ele>969.0</ele><time>2026-05-02T09:49:44Z</time></trkpt><trkpt lat="41.73415272498029" lon="14.117989915729309"><ele>967.3333333333333</ele><time>2026-05-02T09:49:45Z</time></trkpt><trkpt lat="41.7342454130307" lon="14.117737883562452"><ele>965.6666666666666</ele><time>2026-05-02T09:49:46Z</time></trkpt><trkpt lat="41.73433923547308" lon="14.11749950415304"><ele>964.0</ele><time>2026-05-02T09:49:47Z</time></trkpt><trkpt lat="41.73442590079563" lon="14.117269678164831"><ele>964.0</ele><time>2026-05-02T09:49:48Z</time></trkpt><trkpt lat="41.734508519828594" lon="14.117047152491745"><ele>964.0</ele><time>2026-05-02T09:49:49Z</time></trkpt><trkpt lat="41.734593151289175" lon="14.116847167474907"><ele>964.0</ele><time>2026-05-02T09:49:50Z</time></trkpt><trkpt lat="41.73470290402455" lon="14.116662652035327"><ele>963.0</ele><time>2026-05-02T09:49:51Z</time></trkpt><trkpt lat="41.73484676862753" lon="14.116491947603443"><ele>962.0</ele><time>2026-05-02T09:49:52Z</time></trkpt><trkpt lat="41.7350122060191" lon="14.116346168752516"><ele>961.0</ele><time>2026-05-02T09:49:53Z</time></trkpt><trkpt lat="41.73517201305223" lon="14.116180834498739"><ele>960.0</ele><time>2026-05-02T09:49:54Z</time></trkpt><trkpt lat="41.7353268213928" lon="14.116024287881675"><ele>959.0</ele><time>2026-05-02T09:49:55Z</time></trkpt><trkpt lat="41.73546665947101" lon="14.115883894489057"><ele>958.0</ele><time>2026-05-02T09:49:56Z</time></trkpt><trkpt lat="41.735589865463865" lon="14.115759949698626"><ele>955.75</ele><time>2026-05-02T09:49:57Z</time></trkpt><trkpt lat="41.735698981331154" lon="14.115660816975304"><ele>953.5</ele><time>2026-05-02T09:49:58Z</time></trkpt><trkpt lat="41.73581164338252" lon="14.115589582306379"><ele>951.25</ele><time>2026-05-02T09:49:59Z</time></trkpt><trkpt lat="41.73594164261997" lon="14.115558190282211"><ele>949.0</ele><time>2026-05-02T09:50:00Z</time></trkpt><trkpt lat="41.73609330090813" lon="14.11558498239444"><ele>946.0</ele><time>2026-05-02T09:50:01Z</time></trkpt><trkpt lat="41.73626206107139" lon="14.115616670703085"><ele>943.0</ele><time>2026-05-02T09:50:02Z</time></trkpt><trkpt lat="41.736412355716965" lon="14.115666323601605"><ele>940.0</ele><time>2026-05-02T09:50:03Z</time></trkpt><trkpt lat="41.736561131146374" lon="14.115696622983156"><ele>940.0</ele><time>2026-05-02T09:50:04Z</time></trkpt><trkpt lat="41.73670106443067" lon="14.115699409149617"><ele>940.0</ele><time>2026-05-02T09:50:05Z</time></trkpt><trkpt lat="41.73683797840938" lon="14.115625686620486"><ele>940.0</ele><time>2026-05-02T09:50:06Z</time></trkpt><trkpt lat="41.73695112082786" lon="14.115502201842375"><ele>940.0</ele><time>2026-05-02T09:50:07Z</time></trkpt><trkpt lat="41.737020299781285" lon="14.115333660027863"><ele>938.75</ele><time>2026-05-02T09:50:08Z</time></trkpt><trkpt lat="41.737044499919804" lon="14.115141173796289"><ele>937.5</ele><time>2026-05-02T09:50:09Z</time></trkpt><trkpt lat="41.7370871577206" lon="14.114969872003364"><ele>936.25</ele><time>2026-05-02T09:50:10Z</time></trkpt><trkpt lat="41.737179458113246" lon="14.11481389804189"><ele>935.0</ele><time>2026-05-02T09:50:11Z</time></trkpt><trkpt lat="41.73730683275305" lon="14.114668779222955"><ele>935.0</ele><time>2026-05-02T09:50:12Z</time></trkpt><trkpt lat="41.737451625445935" lon="14.11455025051346"><ele>935.0</ele><time>2026-05-02T09:50:13Z</time></trkpt><trkpt lat="41.737588677879494" lon="14.11441788808336"><ele>935.0</ele><time>2026-05-02T09:50:14Z</time></trkpt><trkpt lat="41.73771723761109" lon="14.114296127066861"><ele>935.5</ele><time>2026-05-02T09:50:15Z</time></trkpt><trkpt lat="41.73781825094777" lon="14.114170058763936"><ele>936.0</ele><time>2026-05-02T09:50:16Z</time></trkpt><trkpt lat="41.73788933295269" lon="14.114052930064862"><ele>936.5</ele><time>2026-05-02T09:50:17Z</time></trkpt><trkpt lat="41.73792237558702" lon="14.11392061929576"><ele>937.0</ele><time>2026-05-02T09:50:18Z</time></trkpt><trkpt lat="41.73792824991224" lon="14.113789438666739"><ele>937.0</ele><time>2026-05-02T09:50:19Z</time></trkpt><trkpt lat="41.737912497171756" lon="14.113645677918013"><ele>937.0</ele><time>2026-05-02T09:50:20Z</time></trkpt><trkpt lat="41.7378945735327" lon="14.113488450354923"><ele>937.0</ele><time>2026-05-02T09:50:21Z</time></trkpt><trkpt lat="41.73791116943581" lon="14.113323858730816"><ele>937.0</ele><time>2026-05-02T09:50:22Z</time></trkpt><trkpt lat="41.73796048593229" lon="14.11314453409635"><ele>933.3333333333333</ele><time>2026-05-02T09:50:23Z</time></trkpt><trkpt lat="41.73804982238294" lon="14.112982783501813"><ele>929.6666666666667</ele><time>2026-05-02T09:50:24Z</time></trkpt><trkpt lat="41.73816680896516" lon="14.11283473046054"><ele>926.0</ele><time>2026-05-02T09:50:25Z</time></trkpt><trkpt lat="41.738306570763314" lon="14.112698614323016"><ele>926.0</ele><time>2026-05-02T09:50:26Z</time></trkpt><trkpt lat="41.738477117625365" lon="14.112597265308567"><ele>926.0</ele><time>2026-05-02T09:50:27Z</time></trkpt><trkpt lat="41.738654372223245" lon="14.112510416395898"><ele>926.0</ele><time>2026-05-02T09:50:28Z</time></trkpt><trkpt lat="41.73883871705857" lon="14.11243340363938"><ele>923.6666666666667</ele><time>2026-05-02T09:50:29Z</time></trkpt><trkpt lat="41.73903466542523" lon="14.112358317641776"><ele>921.3333333333333</ele><time>2026-05-02T09:50:30Z</time></trkpt><trkpt lat="41.739235233368476" lon="14.112273538750376"><ele>919.0</ele><time>2026-05-02T09:50:31Z</time></trkpt><trkpt lat="41.73943947083137" lon="14.112175414078287"><ele>919.0</ele><time>2026-05-02T09:50:32Z</time></trkpt><trkpt lat="41.73964571266102" lon="14.112062594311318"><ele>919.0</ele><time>2026-05-02T09:50:33Z</time></trkpt><trkpt lat="41.73985754891444" lon="14.111973239169501"><ele>919.0</ele><time>2026-05-02T09:50:34Z</time></trkpt><trkpt lat="41.74005666291521" lon="14.111835626089915"><ele>920.0</ele><time>2026-05-02T09:50:35Z</time></trkpt><trkpt lat="41.74023477005883" lon="14.111628124751817"><ele>921.0</ele><time>2026-05-02T09:50:36Z</time></trkpt><trkpt lat="41.740417093041685" lon="14.111449077336623"><ele>918.0</ele><time>2026-05-02T09:50:37Z</time></trkpt><trkpt lat="41.740571558267874" lon="14.111276207975271"><ele>915.0</ele><time>2026-05-02T09:50:38Z</time></trkpt><trkpt lat="41.74071136671272" lon="14.111121876622533"><ele>912.0</ele><time>2026-05-02T09:50:39Z</time></trkpt><trkpt lat="41.74083601328654" lon="14.11098581032782"><ele>912.0</ele><time>2026-05-02T09:50:40Z</time></trkpt><trkpt lat="41.7409623874773" lon="14.110867504390445"><ele>912.0</ele><time>2026-05-02T09:50:41Z</time></trkpt><trkpt lat="41.74111331562535" lon="14.110762898529211"><ele>912.0</ele><time>2026-05-02T09:50:42Z</time></trkpt><trkpt lat="41.741299700305795" lon="14.110717703326856"><ele>909.6666666666667</ele><time>2026-05-02T09:50:43Z</time></trkpt><trkpt lat="41.74149446107189" lon="14.11066013098333"><ele>907.3333333333334</ele><time>2026-05-02T09:50:44Z</time></trkpt><trkpt lat="41.741695324666246" lon="14.11060648497102"><ele>905.0</ele><time>2026-05-02T09:50:45Z</time></trkpt><trkpt lat="41.74188910363598" lon="14.110524317714523"><ele>905.0</ele><time>2026-05-02T09:50:46Z</time></trkpt><trkpt lat="41.74206159242648" lon="14.110447269673934"><ele>905.0</ele><time>2026-05-02T09:50:47Z</time></trkpt><trkpt lat="41.742214779005344" lon="14.110376318525377"><ele>905.0</ele><time>2026-05-02T09:50:48Z</time></trkpt><trkpt lat="41.7423477944342" lon="14.110297556088618"><ele>905.0</ele><time>2026-05-02T09:50:49Z</time></trkpt><trkpt lat="41.74247888550254" lon="14.110171239118337"><ele>905.0</ele><time>2026-05-02T09:50:50Z</time></trkpt><trkpt lat="41.7425756328584" lon="14.109955858177619"><ele>905.0</ele><time>2026-05-02T09:50:51Z</time></trkpt><trkpt lat="41.74266963784808" lon="14.109717605330985"><ele>905.3333333333334</ele><time>2026-05-02T09:50:52Z</time></trkpt><trkpt lat="41.74276433427952" lon="14.109468358907481"><ele>905.6666666666667</ele><time>2026-05-02T09:50:53Z</time></trkpt><trkpt lat="41.74285181394598" lon="14.109235487508109"><ele>906.0</ele><time>2026-05-02T09:50:54Z</time></trkpt><trkpt lat="41.74293223095063" lon="14.109019474292536"><ele>904.3333333333333</ele><time>2026-05-02T09:50:55Z</time></trkpt><trkpt lat="41.743006781006" lon="14.108819220424186"><ele>902.6666666666666</ele><time>2026-05-02T09:50:56Z</time></trkpt><trkpt lat="41.74307748944365" lon="14.108629544302682"><ele>901.0</ele><time>2026-05-02T09:50:57Z</time></trkpt><trkpt lat="41.74314618867594" lon="14.10844543453811"><ele>901.0</ele><time>2026-05-02T09:50:58Z</time></trkpt><trkpt lat="41.743214943273635" lon="14.108271893225703"><ele>901.0</ele><time>2026-05-02T09:50:59Z</time></trkpt><trkpt lat="41.74328496086257" lon="14.108107256780011"><ele>901.0</ele><time>2026-05-02T09:51:00Z</time></trkpt><trkpt lat="41.74336592763887" lon="14.107936434194556"><ele>901.0</ele><time>2026-05-02T09:51:01Z</time></trkpt><trkpt lat="41.74345528962718" lon="14.107768422818287"><ele>898.0</ele><time>2026-05-02T09:51:02Z</time></trkpt><trkpt lat="41.7435481915228" lon="14.107601838153345"><ele>895.0</ele><time>2026-05-02T09:51:03Z</time></trkpt><trkpt lat="41.743629809498756" lon="14.107426062680519"><ele>892.0</ele><time>2026-05-02T09:51:04Z</time></trkpt><trkpt lat="41.74373145470199" lon="14.107282045149988"><ele>891.25</ele><time>2026-05-02T09:51:05Z</time></trkpt><trkpt lat="41.74382164739695" lon="14.107128700837823"><ele>890.5</ele><time>2026-05-02T09:51:06Z</time></trkpt><trkpt lat="41.74390557250579" lon="14.10696011239611"><ele>889.75</ele><time>2026-05-02T09:51:07Z</time></trkpt><trkpt lat="41.74401635512364" lon="14.106824939985728"><ele>889.0</ele><time>2026-05-02T09:51:08Z</time></trkpt><trkpt lat="41.74413352002014" lon="14.10671854123585"><ele>889.0</ele><time>2026-05-02T09:51:09Z</time></trkpt><trkpt lat="41.74424057402439" lon="14.106584756372575"><ele>889.0</ele><time>2026-05-02T09:51:10Z</time></trkpt><trkpt lat="41.74433818058617" lon="14.106419675670594"><ele>889.0</ele><time>2026-05-02T09:51:11Z</time></trkpt><trkpt lat="41.74440178497555" lon="14.106224478815339"><ele>884.0</ele><time>2026-05-02T09:51:12Z</time></trkpt><trkpt lat="41.7444592895657" lon="14.106017707881769"><ele>879.0</ele><time>2026-05-02T09:51:13Z</time></trkpt><trkpt lat="41.74452978871264" lon="14.105812943024594"><ele>874.0</ele><time>2026-05-02T09:51:14Z</time></trkpt><trkpt lat="41.744576054390066" lon="14.105595200702764"><ele>873.6666666666666</ele><time>2026-05-02T09:51:15Z</time></trkpt><trkpt lat="41.74461756344646" lon="14.105374835613201"><ele>873.3333333333333</ele><time>2026-05-02T09:51:16Z</time></trkpt><trkpt lat="41.74464635012394" lon="14.105152364231973"><ele>873.0</ele><time>2026-05-02T09:51:17Z</time></trkpt><trkpt lat="41.74470356094709" lon="14.104944668840044"><ele>874.3333333333333</ele><time>2026-05-02T09:51:18Z</time></trkpt><trkpt lat="41.74477968561612" lon="14.104748368880909"><ele>875.6666666666666</ele><time>2026-05-02T09:51:19Z</time></trkpt><trkpt lat="41.744871468765716" lon="14.104563807479384"><ele>877.0</ele><time>2026-05-02T09:51:20Z</time></trkpt><trkpt lat="41.74496517950142" lon="14.104384798736893"><ele>877.0</ele><time>2026-05-02T09:51:21Z</time></trkpt><trkpt lat="41.74505572667418" lon="14.104205393406781"><ele>877.0</ele><time>2026-05-02T09:51:22Z</time></trkpt><trkpt lat="41.745147490046314" lon="14.104025229133114"><ele>877.0</ele><time>2026-05-02T09:51:23Z</time></trkpt><trkpt lat="41.7452353404779" lon="14.103839940405917"><ele>871.6666666666666</ele><time>2026-05-02T09:51:24Z</time></trkpt><trkpt lat="41.74531829047303" lon="14.103652247370155"><ele>866.3333333333333</ele><time>2026-05-02T09:51:25Z</time></trkpt><trkpt lat="41.74538145848554" lon="14.103454256314471"><ele>861.0</ele><time>2026-05-02T09:51:26Z</time></trkpt><trkpt lat="41.74542106760846" lon="14.103245766097213"><ele>860.3333333333333</ele><time>2026-05-02T09:51:27Z</time></trkpt><trkpt lat="41.74545511423058" lon="14.10304837244416"><ele>859.6666666666666</ele><time>2026-05-02T09:51:28Z</time></trkpt><trkpt lat="41.74549121335354" lon="14.102854443236652"><ele>859.0</ele><time>2026-05-02T09:51:29Z</time></trkpt><trkpt lat="41.74552360234283" lon="14.102655265105032"><ele>859.0</ele><time>2026-05-02T09:51:30Z</time></trkpt><trkpt lat="41.74556207427736" lon="14.102448520626263"><ele>859.0</ele><time>2026-05-02T09:51:31Z</time></trkpt><trkpt lat="41.74559980556258" lon="14.102238366815662"><ele>859.0</ele><time>2026-05-02T09:51:32Z</time></trkpt><trkpt lat="41.74563965769604" lon="14.102022289254684"><ele>857.3333333333333</ele><time>2026-05-02T09:51:33Z</time></trkpt><trkpt lat="41.745678219810515" lon="14.1017999014146"><ele>855.6666666666667</ele><time>2026-05-02T09:51:34Z</time></trkpt><trkpt lat="41.74572116633777" lon="14.10156636934412"><ele>854.0</ele><time>2026-05-02T09:51:35Z</time></trkpt><trkpt lat="41.74575536094912" lon="14.101334458879359"><ele>853.6666666666667</ele><time>2026-05-02T09:51:36Z</time></trkpt><trkpt lat="41.74579137708354" lon="14.101118752384187"><ele>853.3333333333333</ele><time>2026-05-02T09:51:37Z</time></trkpt><trkpt lat="41.74583044438669" lon="14.100907178119673"><ele>853.0</ele><time>2026-05-02T09:51:38Z</time></trkpt><trkpt lat="41.745865273717364" lon="14.10069496815687"><ele>852.3333333333333</ele><time>2026-05-02T09:51:39Z</time></trkpt><trkpt lat="41.745906190464666" lon="14.100494457869223"><ele>851.6666666666667</ele><time>2026-05-02T09:51:40Z</time></trkpt><trkpt lat="41.74594742368401" lon="14.100287451632664"><ele>851.0</ele><time>2026-05-02T09:51:41Z</time></trkpt><trkpt lat="41.74598888482108" lon="14.10007641396625"><ele>850.3333333333334</ele><time>2026-05-02T09:51:42Z</time></trkpt><trkpt lat="41.746032468793054" lon="14.099860194774191"><ele>849.6666666666667</ele><time>2026-05-02T09:51:43Z</time></trkpt><trkpt lat="41.74606923208721" lon="14.099630654900132"><ele>849.0</ele><time>2026-05-02T09:51:44Z</time></trkpt><trkpt lat="41.746111009763226" lon="14.099411183839784"><ele>849.0</ele><time>2026-05-02T09:51:45Z</time></trkpt><trkpt lat="41.74614993905187" lon="14.099199772584123"><ele>849.0</ele><time>2026-05-02T09:51:46Z</time></trkpt><trkpt lat="41.74619156304953" lon="14.098982792620857"><ele>849.0</ele><time>2026-05-02T09:51:47Z</time></trkpt><trkpt lat="41.746228819295496" lon="14.098775622104107"><ele>848.25</ele><time>2026-05-02T09:51:48Z</time></trkpt><trkpt lat="41.746249310889915" lon="14.098573306103773"><ele>847.5</ele><time>2026-05-02T09:51:49Z</time></trkpt><trkpt lat="41.746256778713075" lon="14.098376169181043"><ele>846.75</ele><time>2026-05-02T09:51:50Z</time></trkpt><trkpt lat="41.74623593892237" lon="14.09818364877951"><ele>846.0</ele><time>2026-05-02T09:51:51Z</time></trkpt><trkpt lat="41.74619799777244" lon="14.097997854852997"><ele>845.25</ele><time>2026-05-02T09:51:52Z</time></trkpt><trkpt lat="41.74615903322048" lon="14.097823595947592"><ele>844.5</ele><time>2026-05-02T09:51:53Z</time></trkpt><trkpt lat="41.74611954954612" lon="14.097646206654714"><ele>843.75</ele><time>2026-05-02T09:51:54Z</time></trkpt><trkpt lat="41.74608723093479" lon="14.097464511807686"><ele>843.0</ele><time>2026-05-02T09:51:55Z</time></trkpt><trkpt lat="41.746066846655054" lon="14.097275104121849"><ele>840.5</ele><time>2026-05-02T09:51:56Z</time></trkpt><trkpt lat="41.74607582800768" lon="14.097080801180192"><ele>838.0</ele><time>2026-05-02T09:51:57Z</time></trkpt><trkpt lat="41.746119741794644" lon="14.09689041962689"><ele>835.5</ele><time>2026-05-02T09:51:58Z</time></trkpt><trkpt lat="41.746195168535074" lon="14.096715880825862"><ele>833.0</ele><time>2026-05-02T09:51:59Z</time></trkpt><trkpt lat="41.746301187227495" lon="14.096566601151261"><ele>831.0</ele><time>2026-05-02T09:52:00Z</time></trkpt><trkpt lat="41.74641714553667" lon="14.096457491518857"><ele>829.0</ele><time>2026-05-02T09:52:01Z</time></trkpt><trkpt lat="41.746536653517985" lon="14.096380877715335"><ele>827.0</ele><time>2026-05-02T09:52:02Z</time></trkpt><trkpt lat="41.7466641799797" lon="14.0963302115396"><ele>825.0</ele><time>2026-05-02T09:52:03Z</time></trkpt><trkpt lat="41.74680206725372" lon="14.096319867666375"><ele>824.5</ele><time>2026-05-02T09:52:04Z</time></trkpt><trkpt lat="41.74693131443898" lon="14.096339076235802"><ele>824.0</ele><time>2026-05-02T09:52:05Z</time></trkpt><trkpt lat="41.74705596494477" lon="14.096387020604213"><ele>823.5</ele><time>2026-05-02T09:52:06Z</time></trkpt><trkpt lat="41.74716965542754" lon="14.09646758822367"><ele>823.0</ele><time>2026-05-02T09:52:07Z</time></trkpt><trkpt lat="41.7472696243406" lon="14.0965734086108"><ele>823.5</ele><time>2026-05-02T09:52:08Z</time></trkpt><trkpt lat="41.747359795107265" lon="14.096702124933552"><ele>824.0</ele><time>2026-05-02T09:52:09Z</time></trkpt><trkpt lat="41.74745104785207" lon="14.096828306819303"><ele>824.5</ele><time>2026-05-02T09:52:10Z</time></trkpt><trkpt lat="41.74756571107687" lon="14.096934806849008"><ele>825.0</ele><time>2026-05-02T09:52:11Z</time></trkpt><trkpt lat="41.747685251448296" lon="14.097017135214491"><ele>824.75</ele><time>2026-05-02T09:52:12Z</time></trkpt><trkpt lat="41.747830027393036" lon="14.097064719263573"><ele>824.5</ele><time>2026-05-02T09:52:13Z</time></trkpt><trkpt lat="41.747973625284864" lon="14.097089059275806"><ele>824.25</ele><time>2026-05-02T09:52:14Z</time></trkpt><trkpt lat="41.74811991830215" lon="14.097106959154077"><ele>824.0</ele><time>2026-05-02T09:52:15Z</time></trkpt><trkpt lat="41.748271800323124" lon="14.097122708409133"><ele>824.0</ele><time>2026-05-02T09:52:16Z</time></trkpt><trkpt lat="41.748423906996315" lon="14.0971450866137"><ele>824.0</ele><time>2026-05-02T09:52:17Z</time></trkpt><trkpt lat="41.74857642919734" lon="14.09716692699562"><ele>824.0</ele><time>2026-05-02T09:52:18Z</time></trkpt><trkpt lat="41.748724910471054" lon="14.0971824359423"><ele>823.5</ele><time>2026-05-02T09:52:19Z</time></trkpt><trkpt lat="41.74886524358017" lon="14.097201246549384"><ele>823.0</ele><time>2026-05-02T09:52:20Z</time></trkpt><trkpt lat="41.748999624840806" lon="14.097219323368883"><ele>822.5</ele><time>2026-05-02T09:52:21Z</time></trkpt><trkpt lat="41.74913489391382" lon="14.097235692610967"><ele>822.0</ele><time>2026-05-02T09:52:22Z</time></trkpt><trkpt lat="41.749272233412064" lon="14.097252464734595"><ele>822.25</ele><time>2026-05-02T09:52:23Z</time></trkpt><trkpt lat="41.74940987106633" lon="14.097268574038937"><ele>822.5</ele><time>2026-05-02T09:52:24Z</time></trkpt><trkpt lat="41.74954754850262" lon="14.097280930558918"><ele>822.75</ele><time>2026-05-02T09:52:25Z</time></trkpt><trkpt lat="41.749683510295384" lon="14.097283354610163"><ele>823.0</ele><time>2026-05-02T09:52:26Z</time></trkpt><trkpt lat="41.74981561669218" lon="14.097256783568152"><ele>823.0</ele><time>2026-05-02T09:52:27Z</time></trkpt><trkpt lat="41.749945264689956" lon="14.097221089766162"><ele>823.0</ele><time>2026-05-02T09:52:28Z</time></trkpt><trkpt lat="41.7500656763557" lon="14.097137983007592"><ele>823.0</ele><time>2026-05-02T09:52:29Z</time></trkpt><trkpt lat="41.75017519203557" lon="14.097031448346383"><ele>823.0</ele><time>2026-05-02T09:52:30Z</time></trkpt><trkpt lat="41.750257764966996" lon="14.096885609980463"><ele>824.0</ele><time>2026-05-02T09:52:31Z</time></trkpt><trkpt lat="41.75035311490676" lon="14.096757604046685"><ele>825.0</ele><time>2026-05-02T09:52:32Z</time></trkpt><trkpt lat="41.75041001628933" lon="14.096588184143974"><ele>826.0</ele><time>2026-05-02T09:52:33Z</time></trkpt><trkpt lat="41.75046729053178" lon="14.096417885671054"><ele>827.0</ele><time>2026-05-02T09:52:34Z</time></trkpt><trkpt lat="41.75053034488792" lon="14.096242897326935"><ele>827.0</ele><time>2026-05-02T09:52:35Z</time></trkpt><trkpt lat="41.75057414410392" lon="14.096053813143586"><ele>827.0</ele><time>2026-05-02T09:52:36Z</time></trkpt><trkpt lat="41.75061718472762" lon="14.095862279074973"><ele>827.0</ele><time>2026-05-02T09:52:37Z</time></trkpt><trkpt lat="41.750647706351515" lon="14.09566022288262"><ele>826.0</ele><time>2026-05-02T09:52:38Z</time></trkpt><trkpt lat="41.750690259688575" lon="14.095464235752083"><ele>825.0</ele><time>2026-05-02T09:52:39Z</time></trkpt><trkpt lat="41.75074799540141" lon="14.095269926344036"><ele>824.0</ele><time>2026-05-02T09:52:40Z</time></trkpt><trkpt lat="41.75079278100319" lon="14.095067641420199"><ele>823.5</ele><time>2026-05-02T09:52:41Z</time></trkpt><trkpt lat="41.75081983696256" lon="14.094867862431515"><ele>823.0</ele><time>2026-05-02T09:52:42Z</time></trkpt><trkpt lat="41.75086416613726" lon="14.094677337381821"><ele>822.5</ele><time>2026-05-02T09:52:43Z</time></trkpt><trkpt lat="41.75090444235095" lon="14.094487395067162"><ele>822.0</ele><time>2026-05-02T09:52:44Z</time></trkpt><trkpt lat="41.75094397716617" lon="14.094312758652968"><ele>822.0</ele><time>2026-05-02T09:52:45Z</time></trkpt><trkpt lat="41.750992975569666" lon="14.09415666881068"><ele>822.0</ele><time>2026-05-02T09:52:46Z</time></trkpt><trkpt lat="41.75102619015165" lon="14.094007378177647"><ele>822.0</ele><time>2026-05-02T09:52:47Z</time></trkpt><trkpt lat="41.751057580288" lon="14.093866156087039"><ele>822.0</ele><time>2026-05-02T09:52:48Z</time></trkpt><trkpt lat="41.75108805775129" lon="14.093730160305766"><ele>822.0</ele><time>2026-05-02T09:52:49Z</time></trkpt><trkpt lat="41.751104001746775" lon="14.093599552322878"><ele>822.0</ele><time>2026-05-02T09:52:50Z</time></trkpt><trkpt lat="41.75114329760447" lon="14.093482151943407"><ele>822.0</ele><time>2026-05-02T09:52:51Z</time></trkpt><trkpt lat="41.75116201189783" lon="14.09339448868103"><ele>822.0</ele><time>2026-05-02T09:52:52Z</time></trkpt><trkpt lat="41.75119317607194" lon="14.093260244418058"><ele>822.0</ele><time>2026-05-02T09:52:54Z</time></trkpt><trkpt lat="41.75124322414886" lon="14.09314214102447"><ele>821.8</ele><time>2026-05-02T09:52:56Z</time></trkpt><trkpt lat="41.7512885818115" lon="14.09308091220171"><ele>821.6</ele><time>2026-05-02T09:52:58Z</time></trkpt><trkpt lat="41.751342411756326" lon="14.093014830573003"><ele>821.4</ele><time>2026-05-02T09:53:00Z</time></trkpt><trkpt lat="41.75134364284344" lon="14.092817787726045"><ele>821.1999999999999</ele><time>2026-05-02T09:53:02Z</time></trkpt><trkpt lat="41.751322485584986" lon="14.092681319629778"><ele>821.0</ele><time>2026-05-02T09:53:03Z</time></trkpt><trkpt lat="41.75128006861231" lon="14.092524220711294"><ele>821.3333333333334</ele><time>2026-05-02T09:53:04Z</time></trkpt><trkpt lat="41.75121775683567" lon="14.092343331091424"><ele>821.6666666666667</ele><time>2026-05-02T09:53:05Z</time></trkpt><trkpt lat="41.751175145946114" lon="14.092101595168856"><ele>822.0</ele><time>2026-05-02T09:53:06Z</time></trkpt><trkpt lat="41.75113460565873" lon="14.09182275903108"><ele>822.6666666666667</ele><time>2026-05-02T09:53:07Z</time></trkpt><trkpt lat="41.75108647870226" lon="14.091527753938001"><ele>823.3333333333334</ele><time>2026-05-02T09:53:08Z</time></trkpt><trkpt lat="41.75104978849869" lon="14.091253424278575"><ele>824.0</ele><time>2026-05-02T09:53:09Z</time></trkpt><trkpt lat="41.751006191244066" lon="14.090962514333023"><ele>824.3333333333334</ele><time>2026-05-02T09:53:10Z</time></trkpt><trkpt lat="41.750965375769894" lon="14.090675368625137"><ele>824.6666666666667</ele><time>2026-05-02T09:53:11Z</time></trkpt><trkpt lat="41.75091940928501" lon="14.090397343919648"><ele>825.0</ele><time>2026-05-02T09:53:12Z</time></trkpt><trkpt lat="41.75087992764608" lon="14.090116092977185"><ele>825.3333333333333</ele><time>2026-05-02T09:53:13Z</time></trkpt><trkpt lat="41.750842383233945" lon="14.089836146020941"><ele>825.6666666666666</ele><time>2026-05-02T09:53:14Z</time></trkpt><trkpt lat="41.750804431710755" lon="14.089560625140374"><ele>826.0</ele><time>2026-05-02T09:53:15Z</time></trkpt><trkpt lat="41.75076654560045" lon="14.089291098423585"><ele>826.6666666666666</ele><time>2026-05-02T09:53:16Z</time></trkpt><trkpt lat="41.75072008947934" lon="14.089016701370126"><ele>827.3333333333333</ele><time>2026-05-02T09:53:17Z</time></trkpt><trkpt lat="41.75068515405112" lon="14.088754501468802"><ele>828.0</ele><time>2026-05-02T09:53:18Z</time></trkpt><trkpt lat="41.75064797547172" lon="14.088484168658924"><ele>827.6666666666667</ele><time>2026-05-02T09:53:19Z</time></trkpt><trkpt lat="41.75060743169929" lon="14.088211644355411"><ele>827.3333333333334</ele><time>2026-05-02T09:53:20Z</time></trkpt><trkpt lat="41.750563305575035" lon="14.087942495696243"><ele>827.0</ele><time>2026-05-02T09:53:21Z</time></trkpt><trkpt lat="41.75052309039266" lon="14.087669581592689"><ele>826.6666666666667</ele><time>2026-05-02T09:53:22Z</time></trkpt><trkpt lat="41.7504858788721" lon="14.087398156911442"><ele>826.3333333333333</ele><time>2026-05-02T09:53:23Z</time></trkpt><trkpt lat="41.75044303364185" lon="14.08712752371184"><ele>826.0</ele><time>2026-05-02T09:53:24Z</time></trkpt><trkpt lat="41.75040306720302" lon="14.08685652554204"><ele>826.6666666666666</ele><time>2026-05-02T09:53:25Z</time></trkpt><trkpt lat="41.75036307391926" lon="14.086582795314168"><ele>827.3333333333333</ele><time>2026-05-02T09:53:26Z</time></trkpt><trkpt lat="41.75032388054543" lon="14.086310317310257"><ele>828.0</ele><time>2026-05-02T09:53:27Z</time></trkpt><trkpt lat="41.75028264861034" lon="14.086033250019268"><ele>828.3333333333333</ele><time>2026-05-02T09:53:28Z</time></trkpt><trkpt lat="41.75023901007233" lon="14.085753776518875"><ele>828.6666666666666</ele><time>2026-05-02T09:53:29Z</time></trkpt><trkpt lat="41.750201378637044" lon="14.085470102263653"><ele>829.0</ele><time>2026-05-02T09:53:30Z</time></trkpt><trkpt lat="41.750160232630975" lon="14.085187873489726"><ele>829.6666666666666</ele><time>2026-05-02T09:53:31Z</time></trkpt><trkpt lat="41.75011611747551" lon="14.084902103463008"><ele>830.3333333333333</ele><time>2026-05-02T09:53:32Z</time></trkpt><trkpt lat="41.750070653849946" lon="14.084617098450844"><ele>831.0</ele><time>2026-05-02T09:53:33Z</time></trkpt><trkpt lat="41.75002738674101" lon="14.084328492663904"><ele>831.0</ele><time>2026-05-02T09:53:34Z</time></trkpt><trkpt lat="41.74998038215728" lon="14.084041845522476"><ele>831.0</ele><time>2026-05-02T09:53:35Z</time></trkpt><trkpt lat="41.749940382474996" lon="14.083749953461608"><ele>831.0</ele><time>2026-05-02T09:53:36Z</time></trkpt><trkpt lat="41.74990129220488" lon="14.083460175950833"><ele>831.0</ele><time>2026-05-02T09:53:37Z</time></trkpt><trkpt lat="41.74985930557105" lon="14.08316763511348"><ele>831.0</ele><time>2026-05-02T09:53:38Z</time></trkpt><trkpt lat="41.74981619891765" lon="14.082875972544922"><ele>831.0</ele><time>2026-05-02T09:53:39Z</time></trkpt><trkpt lat="41.74977425659388" lon="14.082587720409773"><ele>832.0</ele><time>2026-05-02T09:53:40Z</time></trkpt><trkpt lat="41.74973198456333" lon="14.082293109010953"><ele>833.0</ele><time>2026-05-02T09:53:41Z</time></trkpt><trkpt lat="41.74968864741451" lon="14.08199953134508"><ele>834.0</ele><time>2026-05-02T09:53:42Z</time></trkpt><trkpt lat="41.74964248338242" lon="14.081705704342388"><ele>834.0</ele><time>2026-05-02T09:53:43Z</time></trkpt><trkpt lat="41.749596405340725" lon="14.081407212061997"><ele>834.0</ele><time>2026-05-02T09:53:44Z</time></trkpt><trkpt lat="41.749552007337265" lon="14.081117967135937"><ele>834.0</ele><time>2026-05-02T09:53:45Z</time></trkpt><trkpt lat="41.74950801388016" lon="14.080830914579094"><ele>834.6666666666667</ele><time>2026-05-02T09:53:46Z</time></trkpt><trkpt lat="41.74946350950153" lon="14.080542353366113"><ele>835.3333333333334</ele><time>2026-05-02T09:53:47Z</time></trkpt><trkpt lat="41.749424700547124" lon="14.08024700801912"><ele>836.0</ele><time>2026-05-02T09:53:48Z</time></trkpt><trkpt lat="41.749385839493456" lon="14.079964294144018"><ele>836.3333333333334</ele><time>2026-05-02T09:53:49Z</time></trkpt><trkpt lat="41.74934448173559" lon="14.079673410011356"><ele>836.6666666666667</ele><time>2026-05-02T09:53:50Z</time></trkpt><trkpt lat="41.74929675364645" lon="14.079392540747211"><ele>837.0</ele><time>2026-05-02T09:53:51Z</time></trkpt><trkpt lat="41.74925597601898" lon="14.079102818117079"><ele>837.3333333333333</ele><time>2026-05-02T09:53:52Z</time></trkpt><trkpt lat="41.749212202436155" lon="14.078813791825603"><ele>837.6666666666666</ele><time>2026-05-02T09:53:53Z</time></trkpt><trkpt lat="41.74916944788172" lon="14.078519084741172"><ele>838.0</ele><time>2026-05-02T09:53:54Z</time></trkpt><trkpt lat="41.74912858809864" lon="14.07822977722174"><ele>838.5</ele><time>2026-05-02T09:53:55Z</time></trkpt><trkpt lat="41.749086438574736" lon="14.077935583572927"><ele>839.0</ele><time>2026-05-02T09:53:56Z</time></trkpt><trkpt lat="41.749046177677954" lon="14.07763231059041"><ele>839.3333333333334</ele><time>2026-05-02T09:53:57Z</time></trkpt><trkpt lat="41.74900010672722" lon="14.07734398112204"><ele>839.6666666666667</ele><time>2026-05-02T09:53:58Z</time></trkpt><trkpt lat="41.748955149254364" lon="14.07705260932122"><ele>840.0</ele><time>2026-05-02T09:53:59Z</time></trkpt><trkpt lat="41.74891147274744" lon="14.07676007955161"><ele>839.6666666666667</ele><time>2026-05-02T09:54:00Z</time></trkpt><trkpt lat="41.74886749259473" lon="14.076464970697623"><ele>839.3333333333334</ele><time>2026-05-02T09:54:01Z</time></trkpt><trkpt lat="41.74881943957417" lon="14.076174327472657"><ele>839.0</ele><time>2026-05-02T09:54:02Z</time></trkpt><trkpt lat="41.748773109869695" lon="14.075881458514722"><ele>838.6666666666667</ele><time>2026-05-02T09:54:03Z</time></trkpt><trkpt lat="41.748729788819894" lon="14.075590712731024"><ele>838.3333333333333</ele><time>2026-05-02T09:54:04Z</time></trkpt><trkpt lat="41.74868699113285" lon="14.075295964206532"><ele>838.0</ele><time>2026-05-02T09:54:05Z</time></trkpt><trkpt lat="41.748643847427665" lon="14.075004464951908"><ele>837.6666666666666</ele><time>2026-05-02T09:54:06Z</time></trkpt><trkpt lat="41.74860151968144" lon="14.074715679890513"><ele>837.3333333333333</ele><time>2026-05-02T09:54:07Z</time></trkpt><trkpt lat="41.74855847135754" lon="14.074428440377606"><ele>837.0</ele><time>2026-05-02T09:54:08Z</time></trkpt><trkpt lat="41.74851613832544" lon="14.07414149114574"><ele>838.3333333333333</ele><time>2026-05-02T09:54:09Z</time></trkpt><trkpt lat="41.74847261083261" lon="14.073853079468893"><ele>839.6666666666666</ele><time>2026-05-02T09:54:10Z</time></trkpt><trkpt lat="41.7484301490833" lon="14.0735657446097"><ele>841.0</ele><time>2026-05-02T09:54:11Z</time></trkpt><trkpt lat="41.74838432894655" lon="14.073278191731475"><ele>841.3333333333333</ele><time>2026-05-02T09:54:12Z</time></trkpt><trkpt lat="41.748333600636734" lon="14.072994266316304"><ele>841.6666666666667</ele><time>2026-05-02T09:54:13Z</time></trkpt><trkpt lat="41.74829308928973" lon="14.07270813408397"><ele>842.0</ele><time>2026-05-02T09:54:14Z</time></trkpt><trkpt lat="41.748247908347345" lon="14.072421621197146"><ele>842.0</ele><time>2026-05-02T09:54:15Z</time></trkpt><trkpt lat="41.74813805009228" lon="14.072155170784203"><ele>842.0</ele><time>2026-05-02T09:54:16Z</time></trkpt><trkpt lat="41.748064138447845" lon="14.0718825350686"><ele>842.0</ele><time>2026-05-02T09:54:17Z</time></trkpt><trkpt lat="41.74799128083641" lon="14.071602475340278"><ele>842.0</ele><time>2026-05-02T09:54:18Z</time></trkpt><trkpt lat="41.74791473943415" lon="14.071322134937597"><ele>842.0</ele><time>2026-05-02T09:54:19Z</time></trkpt><trkpt lat="41.74783505654166" lon="14.07104725450003"><ele>842.0</ele><time>2026-05-02T09:54:20Z</time></trkpt><trkpt lat="41.7477557244256" lon="14.070768946256283"><ele>843.0</ele><time>2026-05-02T09:54:21Z</time></trkpt><trkpt lat="41.74767699339447" lon="14.070480311600141"><ele>844.0</ele><time>2026-05-02T09:54:22Z</time></trkpt><trkpt lat="41.74759739103675" lon="14.070202212214399"><ele>843.5</ele><time>2026-05-02T09:54:23Z</time></trkpt><trkpt lat="41.74751693442164" lon="14.06991232827909"><ele>843.0</ele><time>2026-05-02T09:54:24Z</time></trkpt><trkpt lat="41.74743703052597" lon="14.069627877902073"><ele>843.0</ele><time>2026-05-02T09:54:25Z</time></trkpt><trkpt lat="41.747354867665734" lon="14.069344989757658"><ele>843.0</ele><time>2026-05-02T09:54:26Z</time></trkpt><trkpt lat="41.74727366684717" lon="14.069061295565598"><ele>843.0</ele><time>2026-05-02T09:54:27Z</time></trkpt><trkpt lat="41.74719110931589" lon="14.068779820676463"><ele>843.0</ele><time>2026-05-02T09:54:28Z</time></trkpt><trkpt lat="41.74710899949528" lon="14.068495950378564"><ele>844.0</ele><time>2026-05-02T09:54:29Z</time></trkpt><trkpt lat="41.747025173057054" lon="14.068212884725307"><ele>845.0</ele><time>2026-05-02T09:54:30Z</time></trkpt><trkpt lat="41.74693971777593" lon="14.067929978994638"><ele>845.5</ele><time>2026-05-02T09:54:31Z</time></trkpt><trkpt lat="41.74685762040306" lon="14.067642500594475"><ele>846.0</ele><time>2026-05-02T09:54:32Z</time></trkpt><trkpt lat="41.74677822921426" lon="14.06735217836722"><ele>847.0</ele><time>2026-05-02T09:54:33Z</time></trkpt><trkpt lat="41.74669783368966" lon="14.067065489847915"><ele>848.0</ele><time>2026-05-02T09:54:34Z</time></trkpt><trkpt lat="41.74661495642037" lon="14.066780796652148"><ele>847.5</ele><time>2026-05-02T09:54:35Z</time></trkpt><trkpt lat="41.74653166514124" lon="14.066495568943441"><ele>847.0</ele><time>2026-05-02T09:54:36Z</time></trkpt><trkpt lat="41.74644853062148" lon="14.066208629733254"><ele>847.0</ele><time>2026-05-02T09:54:37Z</time></trkpt><trkpt lat="41.74636534871946" lon="14.065922888518232"><ele>847.0</ele><time>2026-05-02T09:54:38Z</time></trkpt><trkpt lat="41.74628591957008" lon="14.06563693218083"><ele>847.0</ele><time>2026-05-02T09:54:39Z</time></trkpt><trkpt lat="41.7462013694166" lon="14.06535289806071"><ele>847.0</ele><time>2026-05-02T09:54:40Z</time></trkpt><trkpt lat="41.74611687362946" lon="14.06506432964213"><ele>848.5</ele><time>2026-05-02T09:54:41Z</time></trkpt><trkpt lat="41.746035720861414" lon="14.06477675200224"><ele>850.0</ele><time>2026-05-02T09:54:42Z</time></trkpt><trkpt lat="41.7459485463141" lon="14.06448560341866"><ele>850.0</ele><time>2026-05-02T09:54:43Z</time></trkpt><trkpt lat="41.745864850100816" lon="14.0642001294946"><ele>850.0</ele><time>2026-05-02T09:54:44Z</time></trkpt><trkpt lat="41.74577892742595" lon="14.063911452578123"><ele>850.0</ele><time>2026-05-02T09:54:45Z</time></trkpt><trkpt lat="41.74569733409025" lon="14.063614971073047"><ele>850.0</ele><time>2026-05-02T09:54:46Z</time></trkpt><trkpt lat="41.745618871676704" lon="14.063327403167529"><ele>849.5</ele><time>2026-05-02T09:54:47Z</time></trkpt><trkpt lat="41.74553594356946" lon="14.063038679857947"><ele>849.0</ele><time>2026-05-02T09:54:48Z</time></trkpt><trkpt lat="41.74545302160316" lon="14.062752420609044"><ele>849.0</ele><time>2026-05-02T09:54:49Z</time></trkpt><trkpt lat="41.745371404158874" lon="14.062472253447542"><ele>849.0</ele><time>2026-05-02T09:54:50Z</time></trkpt><trkpt lat="41.74529082532271" lon="14.062182647127235"><ele>851.0</ele><time>2026-05-02T09:54:51Z</time></trkpt><trkpt lat="41.74521177192507" lon="14.0618943925147"><ele>853.0</ele><time>2026-05-02T09:54:52Z</time></trkpt><trkpt lat="41.74513019545298" lon="14.06161439180373"><ele>853.3333333333333</ele><time>2026-05-02T09:54:53Z</time></trkpt><trkpt lat="41.745049281755186" lon="14.061336739608963"><ele>853.6666666666667</ele><time>2026-05-02T09:54:54Z</time></trkpt><trkpt lat="41.74496615818745" lon="14.061066129618142"><ele>854.0</ele><time>2026-05-02T09:54:55Z</time></trkpt><trkpt lat="41.744887507546" lon="14.060788060159798"><ele>853.6666666666667</ele><time>2026-05-02T09:54:56Z</time></trkpt><trkpt lat="41.74480829190559" lon="14.060516508664236"><ele>853.3333333333333</ele><time>2026-05-02T09:54:57Z</time></trkpt><trkpt lat="41.74472888607346" lon="14.060243486153478"><ele>853.0</ele><time>2026-05-02T09:54:58Z</time></trkpt><trkpt lat="41.74465222240018" lon="14.059977737052014"><ele>854.0</ele><time>2026-05-02T09:54:59Z</time></trkpt><trkpt lat="41.74457162392897" lon="14.059713205193603"><ele>855.0</ele><time>2026-05-02T09:55:00Z</time></trkpt><trkpt lat="41.74450345802518" lon="14.059443008017613"><ele>856.0</ele><time>2026-05-02T09:55:01Z</time></trkpt><trkpt lat="41.74443488463798" lon="14.059173721822527"><ele>858.0</ele><time>2026-05-02T09:55:02Z</time></trkpt><trkpt lat="41.74435517830217" lon="14.05891013097673"><ele>860.0</ele><time>2026-05-02T09:55:03Z</time></trkpt><trkpt lat="41.74427470727811" lon="14.058644742714748"><ele>862.0</ele><time>2026-05-02T09:55:04Z</time></trkpt><trkpt lat="41.744196498782664" lon="14.058373091372607"><ele>862.0</ele><time>2026-05-02T09:55:05Z</time></trkpt><trkpt lat="41.74411623612954" lon="14.058100763208419"><ele>862.0</ele><time>2026-05-02T09:55:06Z</time></trkpt><trkpt lat="41.744037224682685" lon="14.057828226728988"><ele>862.0</ele><time>2026-05-02T09:55:07Z</time></trkpt><trkpt lat="41.74395367449083" lon="14.057551890682875"><ele>862.0</ele><time>2026-05-02T09:55:08Z</time></trkpt><trkpt lat="41.74387015412233" lon="14.057270888850637"><ele>862.0</ele><time>2026-05-02T09:55:09Z</time></trkpt><trkpt lat="41.74379160520554" lon="14.056989366840412"><ele>862.0</ele><time>2026-05-02T09:55:10Z</time></trkpt><trkpt lat="41.743715442720344" lon="14.056708497861143"><ele>862.0</ele><time>2026-05-02T09:55:11Z</time></trkpt><trkpt lat="41.74363420955236" lon="14.056424574861166"><ele>861.0</ele><time>2026-05-02T09:55:12Z</time></trkpt><trkpt lat="41.743553923309484" lon="14.05613810745594"><ele>860.0</ele><time>2026-05-02T09:55:13Z</time></trkpt><trkpt lat="41.74347114314366" lon="14.055861749374696"><ele>862.0</ele><time>2026-05-02T09:55:14Z</time></trkpt><trkpt lat="41.74338840578061" lon="14.055575086105522"><ele>864.0</ele><time>2026-05-02T09:55:15Z</time></trkpt><trkpt lat="41.7433049494587" lon="14.055293654045114"><ele>864.0</ele><time>2026-05-02T09:55:16Z</time></trkpt><trkpt lat="41.74321878611203" lon="14.055020920419498"><ele>864.0</ele><time>2026-05-02T09:55:17Z</time></trkpt><trkpt lat="41.743143134331476" lon="14.054741501574615"><ele>864.0</ele><time>2026-05-02T09:55:18Z</time></trkpt><trkpt lat="41.74306548902602" lon="14.054465401435927"><ele>863.0</ele><time>2026-05-02T09:55:19Z</time></trkpt><trkpt lat="41.7429890695852" lon="14.054183795837089"><ele>862.0</ele><time>2026-05-02T09:55:20Z</time></trkpt><trkpt lat="41.74290927823245" lon="14.053904043435978"><ele>861.0</ele><time>2026-05-02T09:55:21Z</time></trkpt><trkpt lat="41.74282872259731" lon="14.053622344730709"><ele>861.0</ele><time>2026-05-02T09:55:22Z</time></trkpt><trkpt lat="41.742750359535215" lon="14.05334004891233"><ele>861.0</ele><time>2026-05-02T09:55:23Z</time></trkpt><trkpt lat="41.74267217694462" lon="14.053057501919394"><ele>863.3333333333333</ele><time>2026-05-02T09:55:24Z</time></trkpt><trkpt lat="41.742590561359144" lon="14.052779653917979"><ele>865.6666666666666</ele><time>2026-05-02T09:55:25Z</time></trkpt><trkpt lat="41.74251100807264" lon="14.052501185670915"><ele>868.0</ele><time>2026-05-02T09:55:26Z</time></trkpt><trkpt lat="41.74243317665522" lon="14.052216294553574"><ele>868.5</ele><time>2026-05-02T09:55:27Z</time></trkpt><trkpt lat="41.74235382838291" lon="14.05193027256034"><ele>869.0</ele><time>2026-05-02T09:55:28Z</time></trkpt><trkpt lat="41.742272980042905" lon="14.051652357995776"><ele>869.5</ele><time>2026-05-02T09:55:29Z</time></trkpt><trkpt lat="41.74219113024096" lon="14.051369904906624"><ele>870.0</ele><time>2026-05-02T09:55:30Z</time></trkpt><trkpt lat="41.742109580598516" lon="14.051080994829405"><ele>870.0</ele><time>2026-05-02T09:55:31Z</time></trkpt><trkpt lat="41.742028327376374" lon="14.050802686447453"><ele>870.0</ele><time>2026-05-02T09:55:32Z</time></trkpt><trkpt lat="41.74195356735039" lon="14.050514597932008"><ele>870.6666666666667</ele><time>2026-05-02T09:55:33Z</time></trkpt><trkpt lat="41.741872739868334" lon="14.050235200932741"><ele>871.3333333333334</ele><time>2026-05-02T09:55:34Z</time></trkpt><trkpt lat="41.74179050466655" lon="14.049954962469345"><ele>872.0</ele><time>2026-05-02T09:55:35Z</time></trkpt><trkpt lat="41.74171152956758" lon="14.04968137363744"><ele>872.0</ele><time>2026-05-02T09:55:36Z</time></trkpt><trkpt lat="41.741628056405986" lon="14.049410702689864"><ele>872.0</ele><time>2026-05-02T09:55:37Z</time></trkpt><trkpt lat="41.741538182964966" lon="14.049139002411383"><ele>872.0</ele><time>2026-05-02T09:55:38Z</time></trkpt><trkpt lat="41.741441977801024" lon="14.048861766852964"><ele>872.3333333333334</ele><time>2026-05-02T09:55:39Z</time></trkpt><trkpt lat="41.741336507280344" lon="14.048596661580316"><ele>872.6666666666667</ele><time>2026-05-02T09:55:40Z</time></trkpt><trkpt lat="41.74122356373848" lon="14.048347472748082"><ele>873.0</ele><time>2026-05-02T09:55:41Z</time></trkpt><trkpt lat="41.7411084899585" lon="14.048095511749688"><ele>873.6666666666667</ele><time>2026-05-02T09:55:42Z</time></trkpt><trkpt lat="41.740990644924786" lon="14.047844629908303"><ele>874.3333333333334</ele><time>2026-05-02T09:55:43Z</time></trkpt><trkpt lat="41.740867232380474" lon="14.047600141294161"><ele>875.0</ele><time>2026-05-02T09:55:44Z</time></trkpt><trkpt lat="41.74073688016816" lon="14.047362812688615"><ele>875.0</ele><time>2026-05-02T09:55:45Z</time></trkpt><trkpt lat="41.740602289509745" lon="14.047126395735573"><ele>875.0</ele><time>2026-05-02T09:55:46Z</time></trkpt><trkpt lat="41.74047049939037" lon="14.046890721787998"><ele>875.0</ele><time>2026-05-02T09:55:47Z</time></trkpt><trkpt lat="41.74033947155891" lon="14.04665642016777"><ele>876.0</ele><time>2026-05-02T09:55:48Z</time></trkpt><trkpt lat="41.74020668792588" lon="14.046419915356017"><ele>877.0</ele><time>2026-05-02T09:55:49Z</time></trkpt><trkpt lat="41.74007450816149" lon="14.04618543607108"><ele>878.0</ele><time>2026-05-02T09:55:50Z</time></trkpt><trkpt lat="41.73994060654908" lon="14.045950011072783"><ele>878.0</ele><time>2026-05-02T09:55:51Z</time></trkpt><trkpt lat="41.739808528682794" lon="14.045712643285007"><ele>878.0</ele><time>2026-05-02T09:55:52Z</time></trkpt><trkpt lat="41.73967749200871" lon="14.045480465076796"><ele>878.0</ele><time>2026-05-02T09:55:53Z</time></trkpt><trkpt lat="41.73955495646355" lon="14.045264671326173"><ele>878.0</ele><time>2026-05-02T09:55:54Z</time></trkpt><trkpt lat="41.739435259676455" lon="14.045052690895984"><ele>878.0</ele><time>2026-05-02T09:55:55Z</time></trkpt><trkpt lat="41.73932128040765" lon="14.044852159263574"><ele>878.0</ele><time>2026-05-02T09:55:56Z</time></trkpt><trkpt lat="41.73920830026566" lon="14.044660488723638"><ele>877.3333333333334</ele><time>2026-05-02T09:55:57Z</time></trkpt><trkpt lat="41.739103128782624" lon="14.044474510532224"><ele>876.6666666666667</ele><time>2026-05-02T09:55:58Z</time></trkpt><trkpt lat="41.738999506558045" lon="14.044296351376548"><ele>876.0</ele><time>2026-05-02T09:55:59Z</time></trkpt><trkpt lat="41.73891540054962" lon="14.044147443041977"><ele>876.0</ele><time>2026-05-02T09:56:00Z</time></trkpt><trkpt lat="41.7388455364067" lon="14.043984732789898"><ele>876.0</ele><time>2026-05-02T09:56:01Z</time></trkpt><trkpt lat="41.7387866870792" lon="14.04383000474314"><ele>876.0</ele><time>2026-05-02T09:56:02Z</time></trkpt><trkpt lat="41.738732019034444" lon="14.0436822603357"><ele>876.0</ele><time>2026-05-02T09:56:03Z</time></trkpt><trkpt lat="41.73868036271416" lon="14.043547790961401"><ele>876.0</ele><time>2026-05-02T09:56:04Z</time></trkpt><trkpt lat="41.73862475882155" lon="14.043406034904205"><ele>876.0</ele><time>2026-05-02T09:56:05Z</time></trkpt><trkpt lat="41.738569288217164" lon="14.043251641356452"><ele>876.0</ele><time>2026-05-02T09:56:06Z</time></trkpt><trkpt lat="41.73851129580018" lon="14.043104663467242"><ele>876.0</ele><time>2026-05-02T09:56:07Z</time></trkpt><trkpt lat="41.73845411163764" lon="14.042966755326741"><ele>876.5999999999999</ele><time>2026-05-02T09:56:08Z</time></trkpt><trkpt lat="41.73840672087877" lon="14.042837151846303"><ele>877.1999999999999</ele><time>2026-05-02T09:56:09Z</time></trkpt><trkpt lat="41.73836574384349" lon="14.04273129874712"><ele>877.8000000000001</ele><time>2026-05-02T09:56:10Z</time></trkpt><trkpt lat="41.738325658748735" lon="14.042632816119069"><ele>878.4000000000001</ele><time>2026-05-02T09:56:11Z</time></trkpt><trkpt lat="41.73828555841181" lon="14.042533048659783"><ele>879.0</ele><time>2026-05-02T09:56:12Z</time></trkpt><trkpt lat="41.73824172248017" lon="14.042419386805872"><ele>879.25</ele><time>2026-05-02T09:56:13Z</time></trkpt><trkpt lat="41.738193113999316" lon="14.042296632480932"><ele>879.5</ele><time>2026-05-02T09:56:14Z</time></trkpt><trkpt lat="41.7381427280222" lon="14.042159184537963"><ele>879.75</ele><time>2026-05-02T09:56:15Z</time></trkpt><trkpt lat="41.73808717295146" lon="14.042012883121025"><ele>880.0</ele><time>2026-05-02T09:56:16Z</time></trkpt><trkpt lat="41.73802777767282" lon="14.041855609053906"><ele>880.0</ele><time>2026-05-02T09:56:17Z</time></trkpt><trkpt lat="41.737964669248136" lon="14.04169451574972"><ele>880.0</ele><time>2026-05-02T09:56:18Z</time></trkpt><trkpt lat="41.73790113541664" lon="14.041523000438259"><ele>880.0</ele><time>2026-05-02T09:56:19Z</time></trkpt><trkpt lat="41.73783299857598" lon="14.041347003589241"><ele>880.0</ele><time>2026-05-02T09:56:20Z</time></trkpt><trkpt lat="41.73776151267823" lon="14.041165203077849"><ele>882.0</ele><time>2026-05-02T09:56:21Z</time></trkpt><trkpt lat="41.73768681673019" lon="14.040975328941975"><ele>884.0</ele><time>2026-05-02T09:56:22Z</time></trkpt><trkpt lat="41.73761468539725" lon="14.040780946610177"><ele>886.0</ele><time>2026-05-02T09:56:23Z</time></trkpt><trkpt lat="41.737538748284614" lon="14.040586383244323"><ele>886.6666666666666</ele><time>2026-05-02T09:56:24Z</time></trkpt><trkpt lat="41.737462542136285" lon="14.040387933907237"><ele>887.3333333333333</ele><time>2026-05-02T09:56:25Z</time></trkpt><trkpt lat="41.737384898628505" lon="14.040186849292494"><ele>888.0</ele><time>2026-05-02T09:56:26Z</time></trkpt><trkpt lat="41.737308181425966" lon="14.039984035343553"><ele>888.3333333333333</ele><time>2026-05-02T09:56:27Z</time></trkpt><trkpt lat="41.73723230680973" lon="14.03977703037744"><ele>888.6666666666666</ele><time>2026-05-02T09:56:28Z</time></trkpt><trkpt lat="41.7371540167069" lon="14.039573729627419"><ele>889.0</ele><time>2026-05-02T09:56:29Z</time></trkpt><trkpt lat="41.737074774215515" lon="14.039369616916936"><ele>889.0</ele><time>2026-05-02T09:56:30Z</time></trkpt><trkpt lat="41.73699788330568" lon="14.039168503750451"><ele>889.0</ele><time>2026-05-02T09:56:31Z</time></trkpt><trkpt lat="41.73692302770938" lon="14.038974296419683"><ele>889.0</ele><time>2026-05-02T09:56:32Z</time></trkpt><trkpt lat="41.736848690288326" lon="14.038775163854067"><ele>890.0</ele><time>2026-05-02T09:56:33Z</time></trkpt><trkpt lat="41.736776865906926" lon="14.038586800257372"><ele>891.0</ele><time>2026-05-02T09:56:34Z</time></trkpt><trkpt lat="41.736703404887685" lon="14.038406240181509"><ele>892.0</ele><time>2026-05-02T09:56:35Z</time></trkpt><trkpt lat="41.73663672378835" lon="14.038230490963699"><ele>892.0</ele><time>2026-05-02T09:56:36Z</time></trkpt><trkpt lat="41.736574006409505" lon="14.038079689198021"><ele>892.0</ele><time>2026-05-02T09:56:37Z</time></trkpt><trkpt lat="41.73651713837143" lon="14.037929852275347"><ele>892.0</ele><time>2026-05-02T09:56:38Z</time></trkpt><trkpt lat="41.73646529840573" lon="14.037791442933406"><ele>892.0</ele><time>2026-05-02T09:56:39Z</time></trkpt><trkpt lat="41.73641523952884" lon="14.037661447823755"><ele>892.0</ele><time>2026-05-02T09:56:40Z</time></trkpt><trkpt lat="41.736368473642095" lon="14.037544222323707"><ele>892.0</ele><time>2026-05-02T09:56:41Z</time></trkpt><trkpt lat="41.73632417567591" lon="14.037427796987867"><ele>892.0</ele><time>2026-05-02T09:56:42Z</time></trkpt><trkpt lat="41.73627876497472" lon="14.037307904526244"><ele>892.0</ele><time>2026-05-02T09:56:43Z</time></trkpt><trkpt lat="41.73623851989621" lon="14.037188744560073"><ele>892.0</ele><time>2026-05-02T09:56:44Z</time></trkpt><trkpt lat="41.7361921954576" lon="14.037068884637637"><ele>891.8</ele><time>2026-05-02T09:56:45Z</time></trkpt><trkpt lat="41.73614248435325" lon="14.036945257465149"><ele>891.6</ele><time>2026-05-02T09:56:46Z</time></trkpt><trkpt lat="41.73608893201093" lon="14.036816667588667"><ele>891.3999999999999</ele><time>2026-05-02T09:56:47Z</time></trkpt><trkpt lat="41.7360361482461" lon="14.036686364667927"><ele>891.1999999999999</ele><time>2026-05-02T09:56:48Z</time></trkpt><trkpt lat="41.73598391845562" lon="14.036563246452808"><ele>891.0</ele><time>2026-05-02T09:56:49Z</time></trkpt><trkpt lat="41.73593090951355" lon="14.036443791614117"><ele>892.5999999999999</ele><time>2026-05-02T09:56:50Z</time></trkpt><trkpt lat="41.73587550420773" lon="14.036334587753332"><ele>894.1999999999999</ele><time>2026-05-02T09:56:51Z</time></trkpt><trkpt lat="41.73581325913516" lon="14.036221817650107"><ele>895.8000000000001</ele><time>2026-05-02T09:56:52Z</time></trkpt><trkpt lat="41.73574778659647" lon="14.036111778586424"><ele>897.4000000000001</ele><time>2026-05-02T09:56:53Z</time></trkpt><trkpt lat="41.735681426940594" lon="14.036015404889191"><ele>899.0</ele><time>2026-05-02T09:56:54Z</time></trkpt><trkpt lat="41.73560882167309" lon="14.035920745833328"><ele>899.0</ele><time>2026-05-02T09:56:55Z</time></trkpt><trkpt lat="41.73553389634903" lon="14.035835669831734"><ele>899.0000000000001</ele><time>2026-05-02T09:56:56Z</time></trkpt><trkpt lat="41.735452702032866" lon="14.035757781818406"><ele>899.0000000000001</ele><time>2026-05-02T09:56:57Z</time></trkpt><trkpt lat="41.73536931761794" lon="14.035690485335738"><ele>899.0</ele><time>2026-05-02T09:56:58Z</time></trkpt><trkpt lat="41.73528728526192" lon="14.035622769188382"><ele>899.0</ele><time>2026-05-02T09:56:59Z</time></trkpt><trkpt lat="41.73519780976343" lon="14.035554943932084"><ele>900.2</ele><time>2026-05-02T09:57:00Z</time></trkpt><trkpt lat="41.735105048897616" lon="14.035494561726551"><ele>901.4000000000001</ele><time>2026-05-02T09:57:01Z</time></trkpt><trkpt lat="41.73501251380322" lon="14.035426885343355"><ele>902.6</ele><time>2026-05-02T09:57:02Z</time></trkpt><trkpt lat="41.734914530092695" lon="14.035363654198488"><ele>903.8</ele><time>2026-05-02T09:57:03Z</time></trkpt><trkpt lat="41.734819632369415" lon="14.035283202126816"><ele>905.0</ele><time>2026-05-02T09:57:04Z</time></trkpt><trkpt lat="41.734725614801626" lon="14.035210452021817"><ele>905.0</ele><time>2026-05-02T09:57:05Z</time></trkpt><trkpt lat="41.734635709514805" lon="14.035140099655232"><ele>905.0</ele><time>2026-05-02T09:57:06Z</time></trkpt><trkpt lat="41.73453821127098" lon="14.035075396964933"><ele>905.0</ele><time>2026-05-02T09:57:07Z</time></trkpt><trkpt lat="41.73444749537125" lon="14.035001230571526"><ele>905.0</ele><time>2026-05-02T09:57:08Z</time></trkpt><trkpt lat="41.73435405149405" lon="14.03493613795284"><ele>905.0</ele><time>2026-05-02T09:57:09Z</time></trkpt><trkpt lat="41.73426012372726" lon="14.034868993730473"><ele>905.6</ele><time>2026-05-02T09:57:10Z</time></trkpt><trkpt lat="41.73416201806033" lon="14.034796028463656"><ele>906.2</ele><time>2026-05-02T09:57:11Z</time></trkpt><trkpt lat="41.73407175785212" lon="14.034731793639752"><ele>906.8</ele><time>2026-05-02T09:57:12Z</time></trkpt><trkpt lat="41.733988309380216" lon="14.034665196482662"><ele>907.4</ele><time>2026-05-02T09:57:13Z</time></trkpt><trkpt lat="41.73392397768342" lon="14.034596632664218"><ele>908.0</ele><time>2026-05-02T09:57:14Z</time></trkpt><trkpt lat="41.73386408577641" lon="14.034551478270522"><ele>908.0000000000001</ele><time>2026-05-02T09:57:15Z</time></trkpt><trkpt lat="41.7337585269324" lon="14.034482323193242"><ele>908.0</ele><time>2026-05-02T09:57:17Z</time></trkpt><trkpt lat="41.73377259383184" lon="14.034376861187017"><ele>908.0</ele><time>2026-05-02T09:57:19Z</time></trkpt><trkpt lat="41.73382841578821" lon="14.034278682373632"><ele>908.0</ele><time>2026-05-02T09:57:20Z</time></trkpt><trkpt lat="41.733881786289274" lon="14.034212092066182"><ele>908.0000000000001</ele><time>2026-05-02T09:57:21Z</time></trkpt><trkpt lat="41.73393416515332" lon="14.034130075855883"><ele>908.0</ele><time>2026-05-02T09:57:22Z</time></trkpt><trkpt lat="41.734005417887396" lon="14.03401850622979"><ele>908.2</ele><time>2026-05-02T09:57:23Z</time></trkpt><trkpt lat="41.734076126222064" lon="14.033903547455065"><ele>908.4</ele><time>2026-05-02T09:57:24Z</time></trkpt><trkpt lat="41.73414409383784" lon="14.033794449546408"><ele>908.6000000000001</ele><time>2026-05-02T09:57:25Z</time></trkpt><trkpt lat="41.73421222357299" lon="14.033685091417071"><ele>908.8000000000001</ele><time>2026-05-02T09:57:26Z</time></trkpt><trkpt lat="41.73428648342343" lon="14.033565995690754"><ele>909.0</ele><time>2026-05-02T09:57:27Z</time></trkpt><trkpt lat="41.73435560707515" lon="14.033455183405065"><ele>908.4000000000001</ele><time>2026-05-02T09:57:28Z</time></trkpt><trkpt lat="41.734407671760806" lon="14.03334057376782"><ele>907.8000000000001</ele><time>2026-05-02T09:57:29Z</time></trkpt><trkpt lat="41.7344718283777" lon="14.033259724135847"><ele>907.1999999999999</ele><time>2026-05-02T09:57:30Z</time></trkpt><trkpt lat="41.734513722666975" lon="14.033186326896198"><ele>906.5999999999999</ele><time>2026-05-02T09:57:31Z</time></trkpt><trkpt lat="41.7345371342388" lon="14.033078216047606"><ele>906.0</ele><time>2026-05-02T09:57:33Z</time></trkpt><trkpt lat="41.73445477719796" lon="14.032956346996606"><ele>905.9999999999999</ele><time>2026-05-02T09:57:35Z</time></trkpt><trkpt lat="41.73442513109546" lon="14.032881832030856"><ele>906.0</ele><time>2026-05-02T09:57:36Z</time></trkpt><trkpt lat="41.734382170203034" lon="14.032802471697053"><ele>905.9999999999999</ele><time>2026-05-02T09:57:37Z</time></trkpt><trkpt lat="41.73436751942414" lon="14.03270037339279"><ele>905.9999999999999</ele><time>2026-05-02T09:57:38Z</time></trkpt><trkpt lat="41.734343014548315" lon="14.032602575630301"><ele>906.0</ele><time>2026-05-02T09:57:39Z</time></trkpt><trkpt lat="41.73433567484972" lon="14.03250014992741"><ele>905.9999999999999</ele><time>2026-05-02T09:57:40Z</time></trkpt><trkpt lat="41.73431987518937" lon="14.032399286341981"><ele>905.9999999999999</ele><time>2026-05-02T09:57:41Z</time></trkpt><trkpt lat="41.734288219868965" lon="14.03230233911189"><ele>906.0</ele><time>2026-05-02T09:57:42Z</time></trkpt><trkpt lat="41.73424339978208" lon="14.032217313753073"><ele>906.0</ele><time>2026-05-02T09:57:43Z</time></trkpt><trkpt lat="41.734187545289714" lon="14.032143986120246"><ele>906.0</ele><time>2026-05-02T09:57:44Z</time></trkpt><trkpt lat="41.73413774311956" lon="14.0320614331991"><ele>906.0</ele><time>2026-05-02T09:57:45Z</time></trkpt><trkpt lat="41.73409212183965" lon="14.031984488487094"><ele>906.0</ele><time>2026-05-02T09:57:46Z</time></trkpt><trkpt lat="41.73404524615245" lon="14.03191087824587"><ele>906.0</ele><time>2026-05-02T09:57:47Z</time></trkpt><trkpt lat="41.734006667341134" lon="14.031817470949374"><ele>905.9999999999999</ele><time>2026-05-02T09:57:48Z</time></trkpt><trkpt lat="41.7339700705263" lon="14.031726831146264"><ele>906.0</ele><time>2026-05-02T09:57:49Z</time></trkpt><trkpt lat="41.73392571073938" lon="14.031655818624774"><ele>905.9999999999999</ele><time>2026-05-02T09:57:50Z</time></trkpt><trkpt lat="41.73388689359788" lon="14.031566247535604"><ele>905.9999999999999</ele><time>2026-05-02T09:57:51Z</time></trkpt><trkpt lat="41.73384557665656" lon="14.031485868925307"><ele>906.0</ele><time>2026-05-02T09:57:52Z</time></trkpt><trkpt lat="41.73380570249517" lon="14.031409942101766"><ele>905.9999999999999</ele><time>2026-05-02T09:57:53Z</time></trkpt><trkpt lat="41.7337691571145" lon="14.031339712810746"><ele>905.9999999999999</ele><time>2026-05-02T09:57:54Z</time></trkpt><trkpt lat="41.73371245583804" lon="14.031229194628636"><ele>907.0</ele><time>2026-05-02T09:57:56Z</time></trkpt><trkpt lat="41.73363883291286" lon="14.031108605918492"><ele>908.0</ele><time>2026-05-02T09:57:58Z</time></trkpt><trkpt lat="41.73359326009998" lon="14.031042461150344"><ele>909.0</ele><time>2026-05-02T09:57:59Z</time></trkpt><trkpt lat="41.73352642421976" lon="14.030996641836085"><ele>910.0</ele><time>2026-05-02T09:58:00Z</time></trkpt><trkpt lat="41.7334412517369" lon="14.031013983141992"><ele>911.0</ele><time>2026-05-02T09:58:01Z</time></trkpt><trkpt lat="41.73336707610988" lon="14.030998727208047"><ele>912.0</ele><time>2026-05-02T09:58:02Z</time></trkpt><trkpt lat="41.73329189475068" lon="14.030982231391558"><ele>912.5714285714286</ele><time>2026-05-02T09:58:03Z</time></trkpt><trkpt lat="41.73322450211586" lon="14.030977847142287"><ele>913.1428571428571</ele><time>2026-05-02T09:58:04Z</time></trkpt><trkpt lat="41.73315845696389" lon="14.03094740172602"><ele>913.7142857142857</ele><time>2026-05-02T09:58:05Z</time></trkpt><trkpt lat="41.73309063442778" lon="14.030941682767919"><ele>914.2857142857142</ele><time>2026-05-02T09:58:06Z</time></trkpt><trkpt lat="41.7330251540082" lon="14.030932563607827"><ele>914.8571428571429</ele><time>2026-05-02T09:58:07Z</time></trkpt><trkpt lat="41.732958688821356" lon="14.03091465569414"><ele>915.4285714285713</ele><time>2026-05-02T09:58:08Z</time></trkpt><trkpt lat="41.732892105812304" lon="14.030883013270673"><ele>916.0</ele><time>2026-05-02T09:58:09Z</time></trkpt><trkpt lat="41.73282140001614" lon="14.030837897649423"><ele>916.9999999999999</ele><time>2026-05-02T09:58:10Z</time></trkpt><trkpt lat="41.73274448519178" lon="14.03078454345049"><ele>918.0</ele><time>2026-05-02T09:58:11Z</time></trkpt><trkpt lat="41.732663509174834" lon="14.030731952573502"><ele>919.0</ele><time>2026-05-02T09:58:12Z</time></trkpt><trkpt lat="41.73258413243791" lon="14.030680326375323"><ele>920.0</ele><time>2026-05-02T09:58:13Z</time></trkpt><trkpt lat="41.73250481875901" lon="14.030628732986294"><ele>920.9999999999999</ele><time>2026-05-02T09:58:14Z</time></trkpt><trkpt lat="41.732418710150064" lon="14.030572719524471"><ele>922.0</ele><time>2026-05-02T09:58:15Z</time></trkpt><trkpt lat="41.73233222663402" lon="14.030516970154043"><ele>922.4000000000001</ele><time>2026-05-02T09:58:16Z</time></trkpt><trkpt lat="41.73224365181988" lon="14.030465277353217"><ele>922.8000000000001</ele><time>2026-05-02T09:58:17Z</time></trkpt><trkpt lat="41.732155853925626" lon="14.030435029744748"><ele>923.2</ele><time>2026-05-02T09:58:18Z</time></trkpt><trkpt lat="41.732085174352406" lon="14.030372281387555"><ele>923.6</ele><time>2026-05-02T09:58:19Z</time></trkpt><trkpt lat="41.732021555278685" lon="14.030292506552781"><ele>924.0</ele><time>2026-05-02T09:58:20Z</time></trkpt><trkpt lat="41.73197270919969" lon="14.030185167397729"><ele>924.0</ele><time>2026-05-02T09:58:21Z</time></trkpt><trkpt lat="41.73192686907003" lon="14.030073891065632"><ele>924.0000000000001</ele><time>2026-05-02T09:58:22Z</time></trkpt><trkpt lat="41.73188143338518" lon="14.029961892467227"><ele>924.0000000000001</ele><time>2026-05-02T09:58:23Z</time></trkpt><trkpt lat="41.731835980613766" lon="14.02985051750303"><ele>924.0</ele><time>2026-05-02T09:58:24Z</time></trkpt><trkpt lat="41.731789324688435" lon="14.029737257326207"><ele>924.0</ele><time>2026-05-02T09:58:25Z</time></trkpt><trkpt lat="41.73173903550215" lon="14.02961642676121"><ele>923.4000000000001</ele><time>2026-05-02T09:58:26Z</time></trkpt><trkpt lat="41.731689222757446" lon="14.029494070474177"><ele>922.8000000000001</ele><time>2026-05-02T09:58:27Z</time></trkpt><trkpt lat="41.73164086553713" lon="14.029375369042747"><ele>922.1999999999999</ele><time>2026-05-02T09:58:28Z</time></trkpt><trkpt lat="41.731590018055435" lon="14.029262609618522"><ele>921.5999999999999</ele><time>2026-05-02T09:58:29Z</time></trkpt><trkpt lat="41.73153176335159" lon="14.029160732759527"><ele>921.0</ele><time>2026-05-02T09:58:30Z</time></trkpt><trkpt lat="41.73146195105966" lon="14.02907305025922"><ele>922.0</ele><time>2026-05-02T09:58:31Z</time></trkpt><trkpt lat="41.731393565200015" lon="14.028996472902037"><ele>923.0</ele><time>2026-05-02T09:58:32Z</time></trkpt><trkpt lat="41.731329485017206" lon="14.02892916601489"><ele>924.0</ele><time>2026-05-02T09:58:33Z</time></trkpt><trkpt lat="41.73126142514848" lon="14.028859954029878"><ele>925.0</ele><time>2026-05-02T09:58:34Z</time></trkpt><trkpt lat="41.73119535043704" lon="14.028785580909062"><ele>926.0</ele><time>2026-05-02T09:58:35Z</time></trkpt><trkpt lat="41.731137663564134" lon="14.028699368699463"><ele>927.0</ele><time>2026-05-02T09:58:36Z</time></trkpt><trkpt lat="41.73108599733024" lon="14.02860169770995"><ele>926.6666666666666</ele><time>2026-05-02T09:58:37Z</time></trkpt><trkpt lat="41.73105667068757" lon="14.028488625149619"><ele>926.3333333333333</ele><time>2026-05-02T09:58:38Z</time></trkpt><trkpt lat="41.73104811565813" lon="14.028376725019244"><ele>926.0</ele><time>2026-05-02T09:58:39Z</time></trkpt><trkpt lat="41.73105604326974" lon="14.028263670535301"><ele>925.6666666666666</ele><time>2026-05-02T09:58:40Z</time></trkpt><trkpt lat="41.73107583642455" lon="14.028152513268946"><ele>925.3333333333333</ele><time>2026-05-02T09:58:41Z</time></trkpt><trkpt lat="41.731112776166135" lon="14.028039847702406"><ele>925.0</ele><time>2026-05-02T09:58:42Z</time></trkpt><trkpt lat="41.731160395149296" lon="14.027933892019876"><ele>925.6666666666666</ele><time>2026-05-02T09:58:43Z</time></trkpt><trkpt lat="41.73121143454803" lon="14.027827369850161"><ele>926.3333333333333</ele><time>2026-05-02T09:58:44Z</time></trkpt><trkpt lat="41.73126202411848" lon="14.027718306925971"><ele>927.0</ele><time>2026-05-02T09:58:45Z</time></trkpt><trkpt lat="41.73131131635268" lon="14.027615688424506"><ele>927.6666666666667</ele><time>2026-05-02T09:58:46Z</time></trkpt><trkpt lat="41.731354218073484" lon="14.027523194598187"><ele>928.3333333333334</ele><time>2026-05-02T09:58:47Z</time></trkpt><trkpt lat="41.73138721587731" lon="14.027442847826473"><ele>929.0</ele><time>2026-05-02T09:58:48Z</time></trkpt><trkpt lat="41.73142148738714" lon="14.027360638401552"><ele>929.8000000000001</ele><time>2026-05-02T09:58:49Z</time></trkpt><trkpt lat="41.73146337749238" lon="14.027260599362931"><ele>930.6000000000001</ele><time>2026-05-02T09:58:50Z</time></trkpt><trkpt lat="41.73151569687447" lon="14.027155460793335"><ele>931.4</ele><time>2026-05-02T09:58:51Z</time></trkpt><trkpt lat="41.731566895042704" lon="14.027025806562257"><ele>932.2</ele><time>2026-05-02T09:58:52Z</time></trkpt><trkpt lat="41.731654794629975" lon="14.026923609747271"><ele>933.0</ele><time>2026-05-02T09:58:53Z</time></trkpt><trkpt lat="41.73173521933615" lon="14.026809561950353"><ele>933.0</ele><time>2026-05-02T09:58:54Z</time></trkpt><trkpt lat="41.731854163725316" lon="14.02673773093889"><ele>933.0</ele><time>2026-05-02T09:58:55Z</time></trkpt><trkpt lat="41.731981499124004" lon="14.026702254881462"><ele>933.0</ele><time>2026-05-02T09:58:56Z</time></trkpt><trkpt lat="41.73212852154487" lon="14.026710043961154"><ele>933.0</ele><time>2026-05-02T09:58:57Z</time></trkpt><trkpt lat="41.73226893259447" lon="14.026767200909486"><ele>933.0</ele><time>2026-05-02T09:58:58Z</time></trkpt><trkpt lat="41.73242236274938" lon="14.026823802951043"><ele>933.0</ele><time>2026-05-02T09:58:59Z</time></trkpt><trkpt lat="41.73257672661897" lon="14.026887323347037"><ele>933.0</ele><time>2026-05-02T09:59:00Z</time></trkpt><trkpt lat="41.73273148566041" lon="14.026950519936298"><ele>933.0</ele><time>2026-05-02T09:59:01Z</time></trkpt><trkpt lat="41.732881519424254" lon="14.027005683584758"><ele>933.0</ele><time>2026-05-02T09:59:02Z</time></trkpt><trkpt lat="41.733027896685606" lon="14.027045079233588"><ele>933.0</ele><time>2026-05-02T09:59:03Z</time></trkpt><trkpt lat="41.73317161670149" lon="14.027052359983402"><ele>933.0</ele><time>2026-05-02T09:59:04Z</time></trkpt><trkpt lat="41.73330357409689" lon="14.027002318694507"><ele>933.0</ele><time>2026-05-02T09:59:05Z</time></trkpt><trkpt lat="41.733427753156064" lon="14.026889211789387"><ele>933.0</ele><time>2026-05-02T09:59:06Z</time></trkpt><trkpt lat="41.733548783156444" lon="14.026745611289757"><ele>933.0</ele><time>2026-05-02T09:59:07Z</time></trkpt><trkpt lat="41.73367507543385" lon="14.026577201574042"><ele>936.3333333333333</ele><time>2026-05-02T09:59:08Z</time></trkpt><trkpt lat="41.73378784809759" lon="14.026397737435312"><ele>939.6666666666666</ele><time>2026-05-02T09:59:09Z</time></trkpt><trkpt lat="41.73392313190219" lon="14.026255398955763"><ele>943.0</ele><time>2026-05-02T09:59:10Z</time></trkpt><trkpt lat="41.73404817120562" lon="14.026115120712388"><ele>943.0</ele><time>2026-05-02T09:59:11Z</time></trkpt><trkpt lat="41.734186773029975" lon="14.025973402725212"><ele>943.0</ele><time>2026-05-02T09:59:12Z</time></trkpt><trkpt lat="41.73435918066369" lon="14.025920921891341"><ele>943.0</ele><time>2026-05-02T09:59:13Z</time></trkpt><trkpt lat="41.734518978248865" lon="14.025880055909804"><ele>940.0</ele><time>2026-05-02T09:59:14Z</time></trkpt><trkpt lat="41.73469220213105" lon="14.025825819996973"><ele>937.0</ele><time>2026-05-02T09:59:15Z</time></trkpt><trkpt lat="41.73486916442587" lon="14.0257664682249"><ele>934.0</ele><time>2026-05-02T09:59:16Z</time></trkpt><trkpt lat="41.7350463803079" lon="14.025700862593201"><ele>942.0</ele><time>2026-05-02T09:59:17Z</time></trkpt><trkpt lat="41.73522456904649" lon="14.025618111869596"><ele>950.0</ele><time>2026-05-02T09:59:18Z</time></trkpt><trkpt lat="41.73540039284231" lon="14.025540070920016"><ele>958.0</ele><time>2026-05-02T09:59:19Z</time></trkpt><trkpt lat="41.7355661117525" lon="14.025520160788309"><ele>958.0</ele><time>2026-05-02T09:59:20Z</time></trkpt><trkpt lat="41.735732092792304" lon="14.025542213053066"><ele>958.0</ele><time>2026-05-02T09:59:21Z</time></trkpt><trkpt lat="41.735903671585376" lon="14.025621705997583"><ele>958.0</ele><time>2026-05-02T09:59:22Z</time></trkpt><trkpt lat="41.73607714938451" lon="14.025692762651385"><ele>958.6666666666666</ele><time>2026-05-02T09:59:23Z</time></trkpt><trkpt lat="41.73625135195296" lon="14.025731441904849"><ele>959.3333333333333</ele><time>2026-05-02T09:59:24Z</time></trkpt><trkpt lat="41.73641232264351" lon="14.02576011882771"><ele>960.0</ele><time>2026-05-02T09:59:25Z</time></trkpt><trkpt lat="41.736585776893065" lon="14.025741993390874"><ele>960.0</ele><time>2026-05-02T09:59:26Z</time></trkpt><trkpt lat="41.73676581957809" lon="14.025683325061832"><ele>960.0</ele><time>2026-05-02T09:59:27Z</time></trkpt><trkpt lat="41.73694666321772" lon="14.025605477390698"><ele>960.0</ele><time>2026-05-02T09:59:28Z</time></trkpt><trkpt lat="41.73710994152183" lon="14.025517476694683"><ele>958.0</ele><time>2026-05-02T09:59:29Z</time></trkpt><trkpt lat="41.7372657328961" lon="14.025455431621998"><ele>956.0</ele><time>2026-05-02T09:59:30Z</time></trkpt><trkpt lat="41.737400269534795" lon="14.025354499867179"><ele>954.0</ele><time>2026-05-02T09:59:31Z</time></trkpt><trkpt lat="41.737496196510705" lon="14.025201567487878"><ele>954.0</ele><time>2026-05-02T09:59:32Z</time></trkpt><trkpt lat="41.73756792299764" lon="14.025070677928825"><ele>954.0</ele><time>2026-05-02T09:59:33Z</time></trkpt><trkpt lat="41.73757752581297" lon="14.024914897964285"><ele>954.0</ele><time>2026-05-02T09:59:34Z</time></trkpt><trkpt lat="41.73756557118653" lon="14.024762421065315"><ele>954.0</ele><time>2026-05-02T09:59:35Z</time></trkpt><trkpt lat="41.73752894194953" lon="14.024593769862461"><ele>957.75</ele><time>2026-05-02T09:59:36Z</time></trkpt><trkpt lat="41.73739186139584" lon="14.024467858074365"><ele>961.5</ele><time>2026-05-02T09:59:37Z</time></trkpt><trkpt lat="41.737271458820246" lon="14.024363479774316"><ele>965.25</ele><time>2026-05-02T09:59:38Z</time></trkpt><trkpt lat="41.73714847725829" lon="14.024310473877442"><ele>969.0</ele><time>2026-05-02T09:59:39Z</time></trkpt><trkpt lat="41.73700652577673" lon="14.024315561302291"><ele>968.3333333333333</ele><time>2026-05-02T09:59:40Z</time></trkpt><trkpt lat="41.73686216922547" lon="14.024402792952234"><ele>967.6666666666666</ele><time>2026-05-02T09:59:41Z</time></trkpt><trkpt lat="41.7367023719812" lon="14.024511763704385"><ele>967.0</ele><time>2026-05-02T09:59:42Z</time></trkpt><trkpt lat="41.73652733916825" lon="14.024618839733199"><ele>967.0</ele><time>2026-05-02T09:59:43Z</time></trkpt><trkpt lat="41.736359441621936" lon="14.024657209461141"><ele>967.0</ele><time>2026-05-02T09:59:44Z</time></trkpt><trkpt lat="41.73621758475717" lon="14.024716510569945"><ele>967.0</ele><time>2026-05-02T09:59:45Z</time></trkpt><trkpt lat="41.73603885940305" lon="14.024735810359395"><ele>968.6666666666666</ele><time>2026-05-02T09:59:46Z</time></trkpt><trkpt lat="41.73585694986144" lon="14.024738741783992"><ele>970.3333333333333</ele><time>2026-05-02T09:59:47Z</time></trkpt><trkpt lat="41.735684173600966" lon="14.024742624403425"><ele>972.0</ele><time>2026-05-02T09:59:48Z</time></trkpt><trkpt lat="41.7355042968935" lon="14.024746687873998"><ele>972.0</ele><time>2026-05-02T09:59:49Z</time></trkpt><trkpt lat="41.735306893848254" lon="14.024752103176741"><ele>972.0</ele><time>2026-05-02T09:59:50Z</time></trkpt><trkpt lat="41.73511465057543" lon="14.024746937084235"><ele>972.0</ele><time>2026-05-02T09:59:51Z</time></trkpt><trkpt lat="41.734929835169204" lon="14.02473127033098"><ele>973.6666666666667</ele><time>2026-05-02T09:59:52Z</time></trkpt><trkpt lat="41.73475324262877" lon="14.024732075375027"><ele>975.3333333333334</ele><time>2026-05-02T09:59:53Z</time></trkpt><trkpt lat="41.73459168878389" lon="14.02469912007306"><ele>977.0</ele><time>2026-05-02T09:59:54Z</time></trkpt><trkpt lat="41.73442384131" lon="14.024735805471972"><ele>974.6666666666667</ele><time>2026-05-02T09:59:55Z</time></trkpt><trkpt lat="41.73427965824308" lon="14.024864486292078"><ele>972.3333333333333</ele><time>2026-05-02T09:59:56Z</time></trkpt><trkpt lat="41.73413760258162" lon="14.024986012354546"><ele>970.0</ele><time>2026-05-02T09:59:57Z</time></trkpt><trkpt lat="41.734024872532565" lon="14.025097616483137"><ele>970.0</ele><time>2026-05-02T09:59:58Z</time></trkpt><trkpt lat="41.73392984218201" lon="14.025194131790599"><ele>970.0</ele><time>2026-05-02T09:59:59Z</time></trkpt><trkpt lat="41.73383585216548" lon="14.025266380444716"><ele>970.0</ele><time>2026-05-02T10:00:00Z</time></trkpt><trkpt lat="41.73374930673903" lon="14.025307268563724"><ele>970.0</ele><time>2026-05-02T10:00:01Z</time></trkpt><trkpt lat="41.73365020259358" lon="14.02528950605951"><ele>970.0</ele><time>2026-05-02T10:00:02Z</time></trkpt><trkpt lat="41.733547946209114" lon="14.025251071491597"><ele>971.2</ele><time>2026-05-02T10:00:03Z</time></trkpt><trkpt lat="41.73345182260747" lon="14.025211570372727"><ele>972.4</ele><time>2026-05-02T10:00:04Z</time></trkpt><trkpt lat="41.733361693083395" lon="14.025132845459234"><ele>973.5999999999999</ele><time>2026-05-02T10:00:05Z</time></trkpt><trkpt lat="41.73331045022665" lon="14.025020953014813"><ele>974.8</ele><time>2026-05-02T10:00:06Z</time></trkpt><trkpt lat="41.733279785945996" lon="14.024902797670634"><ele>976.0</ele><time>2026-05-02T10:00:07Z</time></trkpt><trkpt lat="41.733254568684984" lon="14.02478122651264"><ele>978.6666666666666</ele><time>2026-05-02T10:00:08Z</time></trkpt><trkpt lat="41.7332193778565" lon="14.024661169541615"><ele>981.3333333333333</ele><time>2026-05-02T10:00:09Z</time></trkpt><trkpt lat="41.733177967367766" lon="14.024550785302745"><ele>984.0</ele><time>2026-05-02T10:00:10Z</time></trkpt><trkpt lat="41.73312775958412" lon="14.024460307917403"><ele>986.6666666666667</ele><time>2026-05-02T10:00:11Z</time></trkpt><trkpt lat="41.73305510988083" lon="14.024397924958125"><ele>989.3333333333334</ele><time>2026-05-02T10:00:12Z</time></trkpt><trkpt lat="41.73297055481384" lon="14.024373326857722"><ele>992.0</ele><time>2026-05-02T10:00:13Z</time></trkpt><trkpt lat="41.73287523035749" lon="14.024353566330007"><ele>992.0</ele><time>2026-05-02T10:00:14Z</time></trkpt><trkpt lat="41.732778853748755" lon="14.024382886329022"><ele>992.0</ele><time>2026-05-02T10:00:15Z</time></trkpt><trkpt lat="41.73268002376157" lon="14.024379259712816"><ele>992.0</ele><time>2026-05-02T10:00:16Z</time></trkpt><trkpt lat="41.73258437036316" lon="14.024420204271085"><ele>992.0</ele><time>2026-05-02T10:00:17Z</time></trkpt><trkpt lat="41.73248538357329" lon="14.024454367364713"><ele>992.0</ele><time>2026-05-02T10:00:18Z</time></trkpt><trkpt lat="41.73238258334805" lon="14.024489099890085"><ele>994.2</ele><time>2026-05-02T10:00:19Z</time></trkpt><trkpt lat="41.732287983738765" lon="14.02456878977949"><ele>996.4000000000001</ele><time>2026-05-02T10:00:20Z</time></trkpt><trkpt lat="41.732213137804536" lon="14.024659882261032"><ele>998.5999999999999</ele><time>2026-05-02T10:00:21Z</time></trkpt><trkpt lat="41.73214987892011" lon="14.024737228596535"><ele>1000.8</ele><time>2026-05-02T10:00:22Z</time></trkpt><trkpt lat="41.732084118347835" lon="14.024824576256744"><ele>1003.0</ele><time>2026-05-02T10:00:23Z</time></trkpt><trkpt lat="41.73202164166658" lon="14.024910490562448"><ele>999.5999999999999</ele><time>2026-05-02T10:00:24Z</time></trkpt><trkpt lat="41.73195467135206" lon="14.024990775944696"><ele>996.1999999999999</ele><time>2026-05-02T10:00:25Z</time></trkpt><trkpt lat="41.73186893299532" lon="14.025055281888745"><ele>992.8</ele><time>2026-05-02T10:00:26Z</time></trkpt><trkpt lat="41.73177502656602" lon="14.025080366211125"><ele>989.4</ele><time>2026-05-02T10:00:27Z</time></trkpt><trkpt lat="41.73165849215769" lon="14.02506904855936"><ele>986.0</ele><time>2026-05-02T10:00:28Z</time></trkpt><trkpt lat="41.73154435142164" lon="14.025067574357905"><ele>986.0</ele><time>2026-05-02T10:00:29Z</time></trkpt><trkpt lat="41.73144047332548" lon="14.025082870560981"><ele>985.9999999999999</ele><time>2026-05-02T10:00:30Z</time></trkpt><trkpt lat="41.73135031154968" lon="14.02512597362797"><ele>985.9999999999999</ele><time>2026-05-02T10:00:31Z</time></trkpt><trkpt lat="41.731265288448924" lon="14.025173335176456"><ele>986.0</ele><time>2026-05-02T10:00:32Z</time></trkpt><trkpt lat="41.73118319569564" lon="14.025227392852791"><ele>986.0</ele><time>2026-05-02T10:00:33Z</time></trkpt><trkpt lat="41.731099708303155" lon="14.025273294447446"><ele>988.75</ele><time>2026-05-02T10:00:34Z</time></trkpt><trkpt lat="41.73100495888834" lon="14.025313159515633"><ele>991.5</ele><time>2026-05-02T10:00:35Z</time></trkpt><trkpt lat="41.7308893339604" lon="14.025276855139877"><ele>994.25</ele><time>2026-05-02T10:00:36Z</time></trkpt><trkpt lat="41.730744361370554" lon="14.025244885581078"><ele>997.0</ele><time>2026-05-02T10:00:37Z</time></trkpt><trkpt lat="41.73058155504866" lon="14.025207209769382"><ele>997.0</ele><time>2026-05-02T10:00:38Z</time></trkpt><trkpt lat="41.73038629830642" lon="14.025162196378753"><ele>997.0</ele><time>2026-05-02T10:00:39Z</time></trkpt><trkpt lat="41.73017729117749" lon="14.025126070942825"><ele>997.0</ele><time>2026-05-02T10:00:40Z</time></trkpt><trkpt lat="41.729962873107525" lon="14.025081351156999"><ele>997.5</ele><time>2026-05-02T10:00:41Z</time></trkpt><trkpt lat="41.72972742065094" lon="14.025027785203577"><ele>998.0</ele><time>2026-05-02T10:00:42Z</time></trkpt><trkpt lat="41.72950025554954" lon="14.024980416269516"><ele>1000.25</ele><time>2026-05-02T10:00:43Z</time></trkpt><trkpt lat="41.72931587304541" lon="14.024941561320098"><ele>1002.5</ele><time>2026-05-02T10:00:44Z</time></trkpt><trkpt lat="41.72916650721249" lon="14.024911517677113"><ele>1004.75</ele><time>2026-05-02T10:00:45Z</time></trkpt><trkpt lat="41.72905742345585" lon="14.024889538703043"><ele>1007.0</ele><time>2026-05-02T10:00:46Z</time></trkpt><trkpt lat="41.7289842153397" lon="14.024830649474726"><ele>1007.0</ele><time>2026-05-02T10:00:47Z</time></trkpt><trkpt lat="41.72894853724978" lon="14.024720956855907"><ele>1007.0</ele><time>2026-05-02T10:00:48Z</time></trkpt><trkpt lat="41.72897597452583" lon="14.024586440293227"><ele>1007.0</ele><time>2026-05-02T10:00:49Z</time></trkpt><trkpt lat="41.729053852723446" lon="14.024515392580332"><ele>1007.0</ele><time>2026-05-02T10:00:50Z</time></trkpt><trkpt lat="41.72916157266685" lon="14.024556027993652"><ele>1007.0</ele><time>2026-05-02T10:00:51Z</time></trkpt><trkpt lat="41.72928833792456" lon="14.024613264610455"><ele>1010.3333333333334</ele><time>2026-05-02T10:00:52Z</time></trkpt><trkpt lat="41.729469220909" lon="14.02467180893946"><ele>1013.6666666666667</ele><time>2026-05-02T10:00:53Z</time></trkpt><trkpt lat="41.72966085053999" lon="14.024725981648196"><ele>1017.0</ele><time>2026-05-02T10:00:54Z</time></trkpt><trkpt lat="41.72985520438053" lon="14.024783775640481"><ele>1017.0</ele><time>2026-05-02T10:00:55Z</time></trkpt><trkpt lat="41.730054940801196" lon="14.02481069638571"><ele>1017.0</ele><time>2026-05-02T10:00:56Z</time></trkpt><trkpt lat="41.73027872752381" lon="14.024756531512361"><ele>1017.0</ele><time>2026-05-02T10:00:57Z</time></trkpt><trkpt lat="41.73051445600143" lon="14.024691016221695"><ele>1020.5</ele><time>2026-05-02T10:00:58Z</time></trkpt><trkpt lat="41.730763051918984" lon="14.02467062610198"><ele>1024.0</ele><time>2026-05-02T10:00:59Z</time></trkpt><trkpt lat="41.73098862351254" lon="14.024649298080245"><ele>1023.3333333333333</ele><time>2026-05-02T10:01:00Z</time></trkpt><trkpt lat="41.73119488390744" lon="14.024607103702024"><ele>1022.6666666666667</ele><time>2026-05-02T10:01:01Z</time></trkpt><trkpt lat="41.73140174523433" lon="14.024546464818629"><ele>1022.0</ele><time>2026-05-02T10:01:02Z</time></trkpt><trkpt lat="41.73162025079669" lon="14.024435375049586"><ele>1022.0</ele><time>2026-05-02T10:01:03Z</time></trkpt><trkpt lat="41.73185803047388" lon="14.024312460698733"><ele>1022.0</ele><time>2026-05-02T10:01:04Z</time></trkpt><trkpt lat="41.732077637904915" lon="14.024209885655017"><ele>1023.3333333333334</ele><time>2026-05-02T10:01:05Z</time></trkpt><trkpt lat="41.732251310269305" lon="14.024091349949396"><ele>1024.6666666666667</ele><time>2026-05-02T10:01:06Z</time></trkpt><trkpt lat="41.73240067729028" lon="14.023944410474073"><ele>1026.0</ele><time>2026-05-02T10:01:07Z</time></trkpt><trkpt lat="41.73253230736912" lon="14.023787314645487"><ele>1026.0</ele><time>2026-05-02T10:01:08Z</time></trkpt><trkpt lat="41.732606635874376" lon="14.02360188521841"><ele>1026.0</ele><time>2026-05-02T10:01:09Z</time></trkpt><trkpt lat="41.73268678127092" lon="14.023406136046452"><ele>1026.0</ele><time>2026-05-02T10:01:10Z</time></trkpt><trkpt lat="41.73273191480565" lon="14.023243760388457"><ele>1028.0</ele><time>2026-05-02T10:01:11Z</time></trkpt><trkpt lat="41.7327762514712" lon="14.02311142783492"><ele>1030.0</ele><time>2026-05-02T10:01:12Z</time></trkpt><trkpt lat="41.73281163728723" lon="14.023034966375436"><ele>1032.0</ele><time>2026-05-02T10:01:13Z</time></trkpt><trkpt lat="41.7328570702005" lon="14.022963884539466"><ele>1034.0</ele><time>2026-05-02T10:01:14Z</time></trkpt><trkpt lat="41.7329512535906" lon="14.022981779308887"><ele>1036.0</ele><time>2026-05-02T10:01:15Z</time></trkpt><trkpt lat="41.73305062185957" lon="14.02299112127108"><ele>1038.0</ele><time>2026-05-02T10:01:16Z</time></trkpt><trkpt lat="41.73317312372032" lon="14.023020730973418"><ele>1038.0</ele><time>2026-05-02T10:01:17Z</time></trkpt><trkpt lat="41.73329173457833" lon="14.023041828820727"><ele>1038.0</ele><time>2026-05-02T10:01:18Z</time></trkpt><trkpt lat="41.73340470547283" lon="14.023054570389442"><ele>1038.0</ele><time>2026-05-02T10:01:19Z</time></trkpt><trkpt lat="41.73351937040911" lon="14.023068113665818"><ele>1038.0</ele><time>2026-05-02T10:01:20Z</time></trkpt><trkpt lat="41.73363684463029" lon="14.023067305934177"><ele>1036.25</ele><time>2026-05-02T10:01:21Z</time></trkpt><trkpt lat="41.73375602096825" lon="14.023053178153079"><ele>1034.5</ele><time>2026-05-02T10:01:22Z</time></trkpt><trkpt lat="41.733874437370275" lon="14.023043331919558"><ele>1032.75</ele><time>2026-05-02T10:01:23Z</time></trkpt><trkpt lat="41.733976089329005" lon="14.023004129686035"><ele>1031.0</ele><time>2026-05-02T10:01:24Z</time></trkpt><trkpt lat="41.73407876364203" lon="14.022928374971238"><ele>1031.0</ele><time>2026-05-02T10:01:25Z</time></trkpt><trkpt lat="41.73415712774638" lon="14.022816606800998"><ele>1031.0</ele><time>2026-05-02T10:01:26Z</time></trkpt><trkpt lat="41.73423046759683" lon="14.022693680451892"><ele>1031.0</ele><time>2026-05-02T10:01:27Z</time></trkpt><trkpt lat="41.734298614961226" lon="14.022554770907869"><ele>1031.0</ele><time>2026-05-02T10:01:28Z</time></trkpt><trkpt lat="41.73434153984948" lon="14.02240283880129"><ele>1031.2</ele><time>2026-05-02T10:01:29Z</time></trkpt><trkpt lat="41.73440087153692" lon="14.02227130052988"><ele>1031.3999999999999</ele><time>2026-05-02T10:01:30Z</time></trkpt><trkpt lat="41.7344455837912" lon="14.022124017229906"><ele>1031.6</ele><time>2026-05-02T10:01:31Z</time></trkpt><trkpt lat="41.734481310153406" lon="14.02198192737575"><ele>1031.8</ele><time>2026-05-02T10:01:32Z</time></trkpt><trkpt lat="41.7345194357116" lon="14.021858204429448"><ele>1032.0</ele><time>2026-05-02T10:01:33Z</time></trkpt><trkpt lat="41.73457877096166" lon="14.021739661291436"><ele>1034.6</ele><time>2026-05-02T10:01:34Z</time></trkpt><trkpt lat="41.734655037365705" lon="14.021639112232817"><ele>1037.2</ele><time>2026-05-02T10:01:35Z</time></trkpt><trkpt lat="41.734736041489924" lon="14.02155863766532"><ele>1039.8</ele><time>2026-05-02T10:01:36Z</time></trkpt><trkpt lat="41.73482735791715" lon="14.021490165166128"><ele>1042.4</ele><time>2026-05-02T10:01:37Z</time></trkpt><trkpt lat="41.73492644299174" lon="14.021451158181565"><ele>1045.0</ele><time>2026-05-02T10:01:38Z</time></trkpt><trkpt lat="41.73502629183113" lon="14.021427022957054"><ele>1045.0</ele><time>2026-05-02T10:01:39Z</time></trkpt><trkpt lat="41.73511683092589" lon="14.02143907610589"><ele>1045.0</ele><time>2026-05-02T10:01:40Z</time></trkpt><trkpt lat="41.73519644523058" lon="14.021412605181848"><ele>1045.0</ele><time>2026-05-02T10:01:41Z</time></trkpt><trkpt lat="41.735276217656306" lon="14.021427534800615"><ele>1045.0</ele><time>2026-05-02T10:01:42Z</time></trkpt><trkpt lat="41.73536138121652" lon="14.021412744767701"><ele>1045.0</ele><time>2026-05-02T10:01:43Z</time></trkpt><trkpt lat="41.735449203063844" lon="14.021389757742913"><ele>1045.0</ele><time>2026-05-02T10:01:44Z</time></trkpt><trkpt lat="41.73553928277897" lon="14.021329216384583"><ele>1044.4</ele><time>2026-05-02T10:01:45Z</time></trkpt><trkpt lat="41.73562231113623" lon="14.02124579655215"><ele>1043.8</ele><time>2026-05-02T10:01:46Z</time></trkpt><trkpt lat="41.73568667034414" lon="14.021125278685423"><ele>1043.2</ele><time>2026-05-02T10:01:47Z</time></trkpt><trkpt lat="41.735739159529054" lon="14.020993709531426"><ele>1042.6</ele><time>2026-05-02T10:01:48Z</time></trkpt><trkpt lat="41.735786117389765" lon="14.020862955594971"><ele>1042.0</ele><time>2026-05-02T10:01:49Z</time></trkpt><trkpt lat="41.735837002795115" lon="14.020730547838214"><ele>1045.0</ele><time>2026-05-02T10:01:50Z</time></trkpt><trkpt lat="41.73588865033963" lon="14.020610967049446"><ele>1048.0</ele><time>2026-05-02T10:01:51Z</time></trkpt><trkpt lat="41.735948469093096" lon="14.020506796367565"><ele>1051.0</ele><time>2026-05-02T10:01:52Z</time></trkpt><trkpt lat="41.73604392100396" lon="14.020446806524186"><ele>1054.0</ele><time>2026-05-02T10:01:53Z</time></trkpt><trkpt lat="41.73614083345975" lon="14.020410156448389"><ele>1057.0</ele><time>2026-05-02T10:01:54Z</time></trkpt><trkpt lat="41.73624484402349" lon="14.020364027776797"><ele>1057.0</ele><time>2026-05-02T10:01:55Z</time></trkpt><trkpt lat="41.73634782311865" lon="14.020325608781006"><ele>1057.0</ele><time>2026-05-02T10:01:56Z</time></trkpt><trkpt lat="41.736454319228514" lon="14.020315398217514"><ele>1057.0</ele><time>2026-05-02T10:01:57Z</time></trkpt><trkpt lat="41.73656326502327" lon="14.020310529634457"><ele>1057.0</ele><time>2026-05-02T10:01:58Z</time></trkpt><trkpt lat="41.736673478560654" lon="14.020313364882528"><ele>1057.0</ele><time>2026-05-02T10:01:59Z</time></trkpt><trkpt lat="41.736790946918816" lon="14.020323960134844"><ele>1059.0</ele><time>2026-05-02T10:02:00Z</time></trkpt><trkpt lat="41.73691325475289" lon="14.020318313122221"><ele>1061.0</ele><time>2026-05-02T10:02:01Z</time></trkpt><trkpt lat="41.73703347777454" lon="14.020343870704849"><ele>1063.0</ele><time>2026-05-02T10:02:02Z</time></trkpt><trkpt lat="41.73715235927998" lon="14.0203697343443"><ele>1065.0</ele><time>2026-05-02T10:02:03Z</time></trkpt><trkpt lat="41.7372721364792" lon="14.020422149101785"><ele>1065.0</ele><time>2026-05-02T10:02:04Z</time></trkpt><trkpt lat="41.73738852379294" lon="14.020491247909439"><ele>1065.0</ele><time>2026-05-02T10:02:05Z</time></trkpt><trkpt lat="41.73749692919033" lon="14.020540898419044"><ele>1065.0</ele><time>2026-05-02T10:02:06Z</time></trkpt><trkpt lat="41.737605475723214" lon="14.020573797712968"><ele>1065.0</ele><time>2026-05-02T10:02:07Z</time></trkpt><trkpt lat="41.737730007816076" lon="14.020597857514959"><ele>1066.75</ele><time>2026-05-02T10:02:08Z</time></trkpt><trkpt lat="41.73786589994021" lon="14.020576277930813"><ele>1068.5</ele><time>2026-05-02T10:02:09Z</time></trkpt><trkpt lat="41.73800955482139" lon="14.020539457563627"><ele>1070.25</ele><time>2026-05-02T10:02:10Z</time></trkpt><trkpt lat="41.738163932186694" lon="14.020504656319813"><ele>1072.0</ele><time>2026-05-02T10:02:11Z</time></trkpt><trkpt lat="41.73831738553506" lon="14.020468357806166"><ele>1072.0</ele><time>2026-05-02T10:02:12Z</time></trkpt><trkpt lat="41.73849442255054" lon="14.020438953481639"><ele>1072.0</ele><time>2026-05-02T10:02:13Z</time></trkpt><trkpt lat="41.738651088416155" lon="14.020408006814774"><ele>1072.0</ele><time>2026-05-02T10:02:14Z</time></trkpt><trkpt lat="41.73879490050546" lon="14.020378291538005"><ele>1072.5</ele><time>2026-05-02T10:02:15Z</time></trkpt><trkpt lat="41.73892570023916" lon="14.020351053922573"><ele>1073.0</ele><time>2026-05-02T10:02:16Z</time></trkpt><trkpt lat="41.739058585674876" lon="14.020331869384544"><ele>1073.5</ele><time>2026-05-02T10:02:17Z</time></trkpt><trkpt lat="41.73919029983291" lon="14.020310919628749"><ele>1074.0</ele><time>2026-05-02T10:02:18Z</time></trkpt><trkpt lat="41.73932026750489" lon="14.02028740933425"><ele>1072.5</ele><time>2026-05-02T10:02:19Z</time></trkpt><trkpt lat="41.73943614358217" lon="14.020266222575195"><ele>1071.0</ele><time>2026-05-02T10:02:20Z</time></trkpt><trkpt lat="41.73956848722712" lon="14.020227833596278"><ele>1069.5</ele><time>2026-05-02T10:02:21Z</time></trkpt><trkpt lat="41.739726622282134" lon="14.020168753616357"><ele>1068.0</ele><time>2026-05-02T10:02:22Z</time></trkpt><trkpt lat="41.73990520113068" lon="14.020098210867967"><ele>1068.0</ele><time>2026-05-02T10:02:23Z</time></trkpt><trkpt lat="41.740075516190046" lon="14.020014586477831"><ele>1068.0</ele><time>2026-05-02T10:02:24Z</time></trkpt><trkpt lat="41.74022238533098" lon="14.019938869417054"><ele>1068.0</ele><time>2026-05-02T10:02:25Z</time></trkpt><trkpt lat="41.74035769474205" lon="14.019888670552557"><ele>1069.75</ele><time>2026-05-02T10:02:26Z</time></trkpt><trkpt lat="41.740481240909496" lon="14.019842343153261"><ele>1071.5</ele><time>2026-05-02T10:02:27Z</time></trkpt><trkpt lat="41.74060950440545" lon="14.019795114306868"><ele>1073.25</ele><time>2026-05-02T10:02:28Z</time></trkpt><trkpt lat="41.740738121499625" lon="14.019757549586819"><ele>1075.0</ele><time>2026-05-02T10:02:29Z</time></trkpt><trkpt lat="41.740871107699164" lon="14.019731011907377"><ele>1075.0</ele><time>2026-05-02T10:02:30Z</time></trkpt><trkpt lat="41.74099306726786" lon="14.019710507180852"><ele>1075.0</ele><time>2026-05-02T10:02:31Z</time></trkpt><trkpt lat="41.74111477168407" lon="14.01970043074628"><ele>1075.0</ele><time>2026-05-02T10:02:32Z</time></trkpt><trkpt lat="41.741220893439035" lon="14.019686090273993"><ele>1075.0</ele><time>2026-05-02T10:02:33Z</time></trkpt><trkpt lat="41.741327949390154" lon="14.01967192095599"><ele>1074.4</ele><time>2026-05-02T10:02:34Z</time></trkpt><trkpt lat="41.74143516928906" lon="14.019657833372484"><ele>1073.8</ele><time>2026-05-02T10:02:35Z</time></trkpt><trkpt lat="41.74153412060047" lon="14.019642926687608"><ele>1073.2</ele><time>2026-05-02T10:02:36Z</time></trkpt><trkpt lat="41.741627517210624" lon="14.019612995084909"><ele>1072.6</ele><time>2026-05-02T10:02:37Z</time></trkpt><trkpt lat="41.741707317240156" lon="14.01953865902991"><ele>1072.0</ele><time>2026-05-02T10:02:38Z</time></trkpt><trkpt lat="41.74174316580262" lon="14.019422105057807"><ele>1072.0</ele><time>2026-05-02T10:02:39Z</time></trkpt><trkpt lat="41.741743141048985" lon="14.019289638453856"><ele>1072.0</ele><time>2026-05-02T10:02:40Z</time></trkpt><trkpt lat="41.74169914874533" lon="14.019183138352677"><ele>1072.0</ele><time>2026-05-02T10:02:41Z</time></trkpt><trkpt lat="41.7416230113736" lon="14.019102347450495"><ele>1072.0</ele><time>2026-05-02T10:02:42Z</time></trkpt><trkpt lat="41.74152569160984" lon="14.019039505870785"><ele>1072.0</ele><time>2026-05-02T10:02:43Z</time></trkpt><trkpt lat="41.741426223125046" lon="14.018981589819347"><ele>1069.0</ele><time>2026-05-02T10:02:44Z</time></trkpt><trkpt lat="41.741317175522155" lon="14.018931630473917"><ele>1066.0</ele><time>2026-05-02T10:02:45Z</time></trkpt><trkpt lat="41.741202452586926" lon="14.018898909175272"><ele>1063.0</ele><time>2026-05-02T10:02:46Z</time></trkpt><trkpt lat="41.74108222100045" lon="14.018885308444277"><ele>1060.0</ele><time>2026-05-02T10:02:47Z</time></trkpt><trkpt lat="41.740964982912246" lon="14.01890234718259"><ele>1060.0</ele><time>2026-05-02T10:02:48Z</time></trkpt><trkpt lat="41.74085985070175" lon="14.018949986866028"><ele>1060.0</ele><time>2026-05-02T10:02:49Z</time></trkpt><trkpt lat="41.74075690520188" lon="14.018980301605856"><ele>1060.0</ele><time>2026-05-02T10:02:50Z</time></trkpt><trkpt lat="41.740661274655416" lon="14.019023035255238"><ele>1060.0</ele><time>2026-05-02T10:02:51Z</time></trkpt><trkpt lat="41.74056081495849" lon="14.019071114194421"><ele>1060.0</ele><time>2026-05-02T10:02:52Z</time></trkpt><trkpt lat="41.74045050284864" lon="14.019065026499973"><ele>1060.0</ele><time>2026-05-02T10:02:53Z</time></trkpt><trkpt lat="41.740339256335105" lon="14.019020031187551"><ele>1060.0</ele><time>2026-05-02T10:02:54Z</time></trkpt><trkpt lat="41.74023846400396" lon="14.018923198329242"><ele>1060.0</ele><time>2026-05-02T10:02:55Z</time></trkpt><trkpt lat="41.74014863728413" lon="14.018788897462452"><ele>1060.0</ele><time>2026-05-02T10:02:56Z</time></trkpt><trkpt lat="41.740065938334155" lon="14.01864708999022"><ele>1059.75</ele><time>2026-05-02T10:02:57Z</time></trkpt><trkpt lat="41.739983835069175" lon="14.018499471918854"><ele>1059.5</ele><time>2026-05-02T10:02:58Z</time></trkpt><trkpt lat="41.739907550157405" lon="14.018344152767103"><ele>1059.25</ele><time>2026-05-02T10:02:59Z</time></trkpt><trkpt lat="41.73983778689156" lon="14.018193975506025"><ele>1059.0</ele><time>2026-05-02T10:03:00Z</time></trkpt><trkpt lat="41.73976555884053" lon="14.018038994504458"><ele>1059.0</ele><time>2026-05-02T10:03:01Z</time></trkpt><trkpt lat="41.739674006425396" lon="14.017898982498405"><ele>1059.0</ele><time>2026-05-02T10:03:02Z</time></trkpt><trkpt lat="41.739556703227116" lon="14.017772915073165"><ele>1059.0</ele><time>2026-05-02T10:03:03Z</time></trkpt><trkpt lat="41.73942891362609" lon="14.017655832171894"><ele>1059.0</ele><time>2026-05-02T10:03:04Z</time></trkpt><trkpt lat="41.739319252311006" lon="14.017495311909345"><ele>1063.0</ele><time>2026-05-02T10:03:05Z</time></trkpt><trkpt lat="41.739219290821126" lon="14.017339708940685"><ele>1067.0</ele><time>2026-05-02T10:03:06Z</time></trkpt><trkpt lat="41.73912081586628" lon="14.017185174590786"><ele>1071.0</ele><time>2026-05-02T10:03:07Z</time></trkpt><trkpt lat="41.739025877232024" lon="14.017061435615602"><ele>1075.0</ele><time>2026-05-02T10:03:08Z</time></trkpt><trkpt lat="41.73892784261699" lon="14.016948291223295"><ele>1075.0</ele><time>2026-05-02T10:03:09Z</time></trkpt><trkpt lat="41.73881624446522" lon="14.0168463069694"><ele>1075.0</ele><time>2026-05-02T10:03:10Z</time></trkpt><trkpt lat="41.73868375305565" lon="14.016752877937563"><ele>1075.0</ele><time>2026-05-02T10:03:11Z</time></trkpt><trkpt lat="41.73853360572511" lon="14.016655742735226"><ele>1077.25</ele><time>2026-05-02T10:03:12Z</time></trkpt><trkpt lat="41.7383876755312" lon="14.01656578186762"><ele>1079.5</ele><time>2026-05-02T10:03:13Z</time></trkpt><trkpt lat="41.73825885263781" lon="14.016495074395214"><ele>1081.75</ele><time>2026-05-02T10:03:14Z</time></trkpt><trkpt lat="41.7381356334717" lon="14.01640744004407"><ele>1084.0</ele><time>2026-05-02T10:03:15Z</time></trkpt><trkpt lat="41.738016984688656" lon="14.016330835741087"><ele>1084.0</ele><time>2026-05-02T10:03:16Z</time></trkpt><trkpt lat="41.73789481951662" lon="14.016250050154715"><ele>1084.0</ele><time>2026-05-02T10:03:17Z</time></trkpt><trkpt lat="41.73781001279088" lon="14.016149284984486"><ele>1084.0</ele><time>2026-05-02T10:03:18Z</time></trkpt><trkpt lat="41.73768925548281" lon="14.016071714983864"><ele>1084.0</ele><time>2026-05-02T10:03:19Z</time></trkpt><trkpt lat="41.73758298062179" lon="14.016017856681746"><ele>1084.4</ele><time>2026-05-02T10:03:20Z</time></trkpt><trkpt lat="41.737474855226544" lon="14.015975838477855"><ele>1084.8000000000002</ele><time>2026-05-02T10:03:21Z</time></trkpt><trkpt lat="41.73737219219618" lon="14.015946593697084"><ele>1085.1999999999998</ele><time>2026-05-02T10:03:22Z</time></trkpt><trkpt lat="41.737268023493385" lon="14.01593625088289"><ele>1085.6</ele><time>2026-05-02T10:03:23Z</time></trkpt><trkpt lat="41.73715083815153" lon="14.01593712787601"><ele>1086.0</ele><time>2026-05-02T10:03:24Z</time></trkpt><trkpt lat="41.73703011557987" lon="14.01592636828514"><ele>1086.0</ele><time>2026-05-02T10:03:25Z</time></trkpt><trkpt lat="41.73690808753354" lon="14.015930582617997"><ele>1086.0</ele><time>2026-05-02T10:03:26Z</time></trkpt><trkpt lat="41.73677685457157" lon="14.01592554182982"><ele>1086.0</ele><time>2026-05-02T10:03:27Z</time></trkpt><trkpt lat="41.73668465486442" lon="14.015944655757037"><ele>1086.0</ele><time>2026-05-02T10:03:28Z</time></trkpt><trkpt lat="41.736569778215824" lon="14.015936322960854"><ele>1086.2</ele><time>2026-05-02T10:03:29Z</time></trkpt><trkpt lat="41.73645941979556" lon="14.01588396634169"><ele>1086.3999999999999</ele><time>2026-05-02T10:03:30Z</time></trkpt><trkpt lat="41.73636045732336" lon="14.015821878119661"><ele>1086.6</ele><time>2026-05-02T10:03:31Z</time></trkpt><trkpt lat="41.736279350478675" lon="14.015724862311654"><ele>1086.8</ele><time>2026-05-02T10:03:32Z</time></trkpt><trkpt lat="41.736193211403524" lon="14.015637094533572"><ele>1087.0</ele><time>2026-05-02T10:03:33Z</time></trkpt><trkpt lat="41.73610735656365" lon="14.015551761565199"><ele>1087.0</ele><time>2026-05-02T10:03:34Z</time></trkpt><trkpt lat="41.73601726488192" lon="14.015474610533078"><ele>1087.0</ele><time>2026-05-02T10:03:35Z</time></trkpt><trkpt lat="41.735920167623" lon="14.01539800532138"><ele>1087.0</ele><time>2026-05-02T10:03:36Z</time></trkpt><trkpt lat="41.735825517463496" lon="14.015319852047519"><ele>1087.0</ele><time>2026-05-02T10:03:37Z</time></trkpt><trkpt lat="41.73570006389897" lon="14.015244343723541"><ele>1087.0</ele><time>2026-05-02T10:03:38Z</time></trkpt><trkpt lat="41.735580743020215" lon="14.015184506184074"><ele>1087.0</ele><time>2026-05-02T10:03:39Z</time></trkpt><trkpt lat="41.73545419993199" lon="14.015136938431903"><ele>1087.0</ele><time>2026-05-02T10:03:40Z</time></trkpt><trkpt lat="41.73532097412102" lon="14.015079383607826"><ele>1087.0</ele><time>2026-05-02T10:03:41Z</time></trkpt><trkpt lat="41.73519555758559" lon="14.015030149805805"><ele>1086.25</ele><time>2026-05-02T10:03:42Z</time></trkpt><trkpt lat="41.73508490734343" lon="14.01498629918744"><ele>1085.5</ele><time>2026-05-02T10:03:43Z</time></trkpt><trkpt lat="41.73496681333671" lon="14.014931998084037"><ele>1084.75</ele><time>2026-05-02T10:03:44Z</time></trkpt><trkpt lat="41.734849274203334" lon="14.014879545536223"><ele>1084.0</ele><time>2026-05-02T10:03:45Z</time></trkpt><trkpt lat="41.734723350818605" lon="14.014840909613893"><ele>1084.0</ele><time>2026-05-02T10:03:46Z</time></trkpt><trkpt lat="41.73460219717207" lon="14.014804619029906"><ele>1084.0</ele><time>2026-05-02T10:03:47Z</time></trkpt><trkpt lat="41.734492051444846" lon="14.014786314203127"><ele>1084.0</ele><time>2026-05-02T10:03:48Z</time></trkpt><trkpt lat="41.73438043715342" lon="14.014782725816511"><ele>1084.0</ele><time>2026-05-02T10:03:49Z</time></trkpt><trkpt lat="41.734260214025056" lon="14.014750642895224"><ele>1085.25</ele><time>2026-05-02T10:03:50Z</time></trkpt><trkpt lat="41.73412416333613" lon="14.014735307416638"><ele>1086.5</ele><time>2026-05-02T10:03:51Z</time></trkpt><trkpt lat="41.73401090945346" lon="14.01469756879102"><ele>1087.75</ele><time>2026-05-02T10:03:52Z</time></trkpt><trkpt lat="41.73384981510278" lon="14.014655827736563"><ele>1089.0</ele><time>2026-05-02T10:03:53Z</time></trkpt><trkpt lat="41.733775420088776" lon="14.014628189920938"><ele>1089.0</ele><time>2026-05-02T10:03:54Z</time></trkpt><trkpt lat="41.73366258050096" lon="14.014561150206353"><ele>1089.0</ele><time>2026-05-02T10:03:55Z</time></trkpt><trkpt lat="41.73353843332816" lon="14.014427771513676"><ele>1089.0</ele><time>2026-05-02T10:03:56Z</time></trkpt><trkpt lat="41.73339370039846" lon="14.014468132635354"><ele>1089.0</ele><time>2026-05-02T10:03:57Z</time></trkpt><trkpt lat="41.73329834140325" lon="14.01437063379482"><ele>1090.8</ele><time>2026-05-02T10:03:58Z</time></trkpt><trkpt lat="41.733194980289454" lon="14.014300145462434"><ele>1092.6000000000001</ele><time>2026-05-02T10:03:59Z</time></trkpt><trkpt lat="41.733101490887336" lon="14.014238206250923"><ele>1094.4</ele><time>2026-05-02T10:04:00Z</time></trkpt><trkpt lat="41.73301899051379" lon="14.014194558655422"><ele>1096.2</ele><time>2026-05-02T10:04:01Z</time></trkpt><trkpt lat="41.73292864039949" lon="14.014148697118095"><ele>1098.0</ele><time>2026-05-02T10:04:02Z</time></trkpt><trkpt lat="41.73283227451235" lon="14.014108078403725"><ele>1099.3333333333333</ele><time>2026-05-02T10:04:03Z</time></trkpt><trkpt lat="41.73273496004198" lon="14.01406497108733"><ele>1100.6666666666667</ele><time>2026-05-02T10:04:04Z</time></trkpt><trkpt lat="41.73265699905101" lon="14.013994673574079"><ele>1102.0</ele><time>2026-05-02T10:04:05Z</time></trkpt><trkpt lat="41.732618593335005" lon="14.013879764436558"><ele>1103.3333333333335</ele><time>2026-05-02T10:04:06Z</time></trkpt><trkpt lat="41.73263212533701" lon="14.013773633373908"><ele>1104.6666666666667</ele><time>2026-05-02T10:04:07Z</time></trkpt><trkpt lat="41.73266819816803" lon="14.01368559108275"><ele>1106.0</ele><time>2026-05-02T10:04:08Z</time></trkpt><trkpt lat="41.73272503265685" lon="14.01361218101577"><ele>1107.8</ele><time>2026-05-02T10:04:09Z</time></trkpt><trkpt lat="41.732804482239146" lon="14.013573912749912"><ele>1109.6</ele><time>2026-05-02T10:04:10Z</time></trkpt><trkpt lat="41.732909181348376" lon="14.013586314263316"><ele>1111.4</ele><time>2026-05-02T10:04:11Z</time></trkpt><trkpt lat="41.733004422376844" lon="14.013576580540715"><ele>1113.2</ele><time>2026-05-02T10:04:12Z</time></trkpt><trkpt lat="41.733112363711406" lon="14.013608458993668"><ele>1115.0</ele><time>2026-05-02T10:04:13Z</time></trkpt><trkpt lat="41.733221514013216" lon="14.013617599453204"><ele>1115.0</ele><time>2026-05-02T10:04:14Z</time></trkpt><trkpt lat="41.73332480939829" lon="14.013640224802355"><ele>1115.0</ele><time>2026-05-02T10:04:15Z</time></trkpt><trkpt lat="41.7334337775534" lon="14.013617210972555"><ele>1115.0</ele><time>2026-05-02T10:04:16Z</time></trkpt><trkpt lat="41.73357908222651" lon="14.013596603325368"><ele>1115.0</ele><time>2026-05-02T10:04:17Z</time></trkpt><trkpt lat="41.73376752357915" lon="14.013523038675475"><ele>1113.0</ele><time>2026-05-02T10:04:18Z</time></trkpt><trkpt lat="41.7339581664417" lon="14.013454045351953"><ele>1111.0</ele><time>2026-05-02T10:04:19Z</time></trkpt><trkpt lat="41.73411340610618" lon="14.013417124166427"><ele>1109.0</ele><time>2026-05-02T10:04:20Z</time></trkpt><trkpt lat="41.73426155022544" lon="14.01338668353759"><ele>1110.5</ele><time>2026-05-02T10:04:21Z</time></trkpt><trkpt lat="41.73441431158429" lon="14.013325613048718"><ele>1112.0</ele><time>2026-05-02T10:04:22Z</time></trkpt><trkpt lat="41.7345445190334" lon="14.013263608099706"><ele>1113.5</ele><time>2026-05-02T10:04:23Z</time></trkpt><trkpt lat="41.73466141490937" lon="14.013206342673627"><ele>1115.0</ele><time>2026-05-02T10:04:24Z</time></trkpt><trkpt lat="41.734795743830986" lon="14.013158833498391"><ele>1115.0</ele><time>2026-05-02T10:04:25Z</time></trkpt><trkpt lat="41.734915330334054" lon="14.013090310094459"><ele>1115.0</ele><time>2026-05-02T10:04:26Z</time></trkpt><trkpt lat="41.735028739424386" lon="14.013015830768778"><ele>1115.0</ele><time>2026-05-02T10:04:27Z</time></trkpt><trkpt lat="41.73513864012151" lon="14.012936707447045"><ele>1115.0</ele><time>2026-05-02T10:04:28Z</time></trkpt><trkpt lat="41.73524134723442" lon="14.01284872616623"><ele>1114.75</ele><time>2026-05-02T10:04:29Z</time></trkpt><trkpt lat="41.73534583848739" lon="14.012760846680715"><ele>1114.5</ele><time>2026-05-02T10:04:30Z</time></trkpt><trkpt lat="41.735441537541725" lon="14.012665713446063"><ele>1114.25</ele><time>2026-05-02T10:04:31Z</time></trkpt><trkpt lat="41.73554925266759" lon="14.012576073195849"><ele>1114.0</ele><time>2026-05-02T10:04:32Z</time></trkpt><trkpt lat="41.73569830627147" lon="14.01252356796648"><ele>1113.0</ele><time>2026-05-02T10:04:33Z</time></trkpt><trkpt lat="41.735883620423465" lon="14.012443567626523"><ele>1112.0</ele><time>2026-05-02T10:04:34Z</time></trkpt><trkpt lat="41.73608918387243" lon="14.01234984300741"><ele>1111.0</ele><time>2026-05-02T10:04:35Z</time></trkpt><trkpt lat="41.736322226384615" lon="14.012251860035471"><ele>1111.0</ele><time>2026-05-02T10:04:36Z</time></trkpt><trkpt lat="41.73656860840226" lon="14.01214851883074"><ele>1111.0</ele><time>2026-05-02T10:04:37Z</time></trkpt><trkpt lat="41.73683988098757" lon="14.012039321451418"><ele>1116.5</ele><time>2026-05-02T10:04:38Z</time></trkpt><trkpt lat="41.73711441165359" lon="14.011909772218397"><ele>1122.0</ele><time>2026-05-02T10:04:39Z</time></trkpt><trkpt lat="41.73739388350251" lon="14.011814616725873"><ele>1122.0</ele><time>2026-05-02T10:04:40Z</time></trkpt><trkpt lat="41.73763411861975" lon="14.011715813836075"><ele>1122.0</ele><time>2026-05-02T10:04:41Z</time></trkpt><trkpt lat="41.73784783503626" lon="14.011626732728766"><ele>1125.6666666666667</ele><time>2026-05-02T10:04:42Z</time></trkpt><trkpt lat="41.738037187397104" lon="14.01154291388635"><ele>1129.3333333333335</ele><time>2026-05-02T10:04:43Z</time></trkpt><trkpt lat="41.738193916478515" lon="14.011468503667187"><ele>1133.0</ele><time>2026-05-02T10:04:44Z</time></trkpt><trkpt lat="41.73832880042865" lon="14.01139699481989"><ele>1133.0</ele><time>2026-05-02T10:04:45Z</time></trkpt><trkpt lat="41.73843707344136" lon="14.01131250058996"><ele>1133.0</ele><time>2026-05-02T10:04:46Z</time></trkpt><trkpt lat="41.73849201582329" lon="14.011159365828352"><ele>1133.0</ele><time>2026-05-02T10:04:47Z</time></trkpt><trkpt lat="41.738511137769656" lon="14.010979236285099"><ele>1133.0</ele><time>2026-05-02T10:04:48Z</time></trkpt><trkpt lat="41.73848150795877" lon="14.010762283740046"><ele>1135.6666666666667</ele><time>2026-05-02T10:04:49Z</time></trkpt><trkpt lat="41.73842939792518" lon="14.010522865274377"><ele>1138.3333333333333</ele><time>2026-05-02T10:04:50Z</time></trkpt><trkpt lat="41.73834473270418" lon="14.01025704236342"><ele>1141.0</ele><time>2026-05-02T10:04:51Z</time></trkpt><trkpt lat="41.73826660672961" lon="14.010007185790071"><ele>1141.6666666666665</ele><time>2026-05-02T10:04:52Z</time></trkpt><trkpt lat="41.7381858035883" lon="14.009767833353143"><ele>1142.3333333333333</ele><time>2026-05-02T10:04:53Z</time></trkpt><trkpt lat="41.73811255547848" lon="14.009503402662506"><ele>1143.0</ele><time>2026-05-02T10:04:54Z</time></trkpt><trkpt lat="41.7380790119125" lon="14.009229203412994"><ele>1141.3333333333333</ele><time>2026-05-02T10:04:55Z</time></trkpt><trkpt lat="41.73805079378666" lon="14.008945003335539"><ele>1139.6666666666665</ele><time>2026-05-02T10:04:56Z</time></trkpt><trkpt lat="41.73803246583338" lon="14.008661142496912"><ele>1138.0</ele><time>2026-05-02T10:04:57Z</time></trkpt><trkpt lat="41.73800928648359" lon="14.008355618576953"><ele>1138.0</ele><time>2026-05-02T10:04:58Z</time></trkpt><trkpt lat="41.737988731097424" lon="14.00803131638911"><ele>1138.0</ele><time>2026-05-02T10:04:59Z</time></trkpt><trkpt lat="41.73796687038164" lon="14.007703989264462"><ele>1138.0</ele><time>2026-05-02T10:05:00Z</time></trkpt><trkpt lat="41.73794176331159" lon="14.00736569464227"><ele>1138.0</ele><time>2026-05-02T10:05:01Z</time></trkpt><trkpt lat="41.73791111675299" lon="14.007020602038935"><ele>1138.0</ele><time>2026-05-02T10:05:02Z</time></trkpt><trkpt lat="41.73788699274805" lon="14.006691924941705"><ele>1138.0</ele><time>2026-05-02T10:05:03Z</time></trkpt><trkpt lat="41.73787758478138" lon="14.006396011191232"><ele>1139.0</ele><time>2026-05-02T10:05:04Z</time></trkpt><trkpt lat="41.73785915327319" lon="14.006125661969671"><ele>1140.0</ele><time>2026-05-02T10:05:05Z</time></trkpt><trkpt lat="41.7378437769675" lon="14.005874399644929"><ele>1141.0</ele><time>2026-05-02T10:05:06Z</time></trkpt><trkpt lat="41.7378349442987" lon="14.005636811472622"><ele>1142.6666666666665</ele><time>2026-05-02T10:05:07Z</time></trkpt><trkpt lat="41.73783363764645" lon="14.005415816517944"><ele>1144.3333333333333</ele><time>2026-05-02T10:05:08Z</time></trkpt><trkpt lat="41.7378386153373" lon="14.005210114526179"><ele>1146.0</ele><time>2026-05-02T10:05:09Z</time></trkpt><trkpt lat="41.73784481879897" lon="14.005014085298434"><ele>1145.5</ele><time>2026-05-02T10:05:10Z</time></trkpt><trkpt lat="41.737843526905635" lon="14.004867036267107"><ele>1145.0</ele><time>2026-05-02T10:05:11Z</time></trkpt><trkpt lat="41.73789776455909" lon="14.004730146880952"><ele>1144.5</ele><time>2026-05-02T10:05:12Z</time></trkpt><trkpt lat="41.73800249925374" lon="14.004616554159833"><ele>1144.0</ele><time>2026-05-02T10:05:13Z</time></trkpt><trkpt lat="41.73811327592481" lon="14.00451547814106"><ele>1144.0</ele><time>2026-05-02T10:05:14Z</time></trkpt><trkpt lat="41.7382121622686" lon="14.004409128948561"><ele>1144.0</ele><time>2026-05-02T10:05:15Z</time></trkpt><trkpt lat="41.73829779131209" lon="14.004315969523464"><ele>1144.0</ele><time>2026-05-02T10:05:16Z</time></trkpt><trkpt lat="41.738385826596364" lon="14.004238763912802"><ele>1144.0</ele><time>2026-05-02T10:05:17Z</time></trkpt><trkpt lat="41.738459818861315" lon="14.00411228136205"><ele>1143.0</ele><time>2026-05-02T10:05:18Z</time></trkpt><trkpt lat="41.73851735749113" lon="14.003943390863352"><ele>1142.0</ele><time>2026-05-02T10:05:19Z</time></trkpt><trkpt lat="41.73857295285816" lon="14.003762356657251"><ele>1141.0</ele><time>2026-05-02T10:05:20Z</time></trkpt><trkpt lat="41.7386385322248" lon="14.003546881536733"><ele>1142.0</ele><time>2026-05-02T10:05:21Z</time></trkpt><trkpt lat="41.73871325439268" lon="14.003297787016507"><ele>1143.0</ele><time>2026-05-02T10:05:22Z</time></trkpt><trkpt lat="41.73877622108789" lon="14.003020680536128"><ele>1144.0</ele><time>2026-05-02T10:05:23Z</time></trkpt><trkpt lat="41.73884171822919" lon="14.002737289942585"><ele>1144.0</ele><time>2026-05-02T10:05:24Z</time></trkpt><trkpt lat="41.73889501535079" lon="14.002444217114547"><ele>1144.0</ele><time>2026-05-02T10:05:25Z</time></trkpt><trkpt lat="41.738948227722794" lon="14.002164488778043"><ele>1144.0</ele><time>2026-05-02T10:05:26Z</time></trkpt><trkpt lat="41.738996710944335" lon="14.00191773856457"><ele>1144.0</ele><time>2026-05-02T10:05:27Z</time></trkpt><trkpt lat="41.73903920833412" lon="14.001691887347187"><ele>1144.0</ele><time>2026-05-02T10:05:28Z</time></trkpt><trkpt lat="41.739074802387314" lon="14.001486866789437"><ele>1144.0</ele><time>2026-05-02T10:05:29Z</time></trkpt><trkpt lat="41.73911198855959" lon="14.00129782489354"><ele>1144.25</ele><time>2026-05-02T10:05:30Z</time></trkpt><trkpt lat="41.739147530727564" lon="14.001125525668895"><ele>1144.5</ele><time>2026-05-02T10:05:31Z</time></trkpt><trkpt lat="41.73918057425722" lon="14.000966836580764"><ele>1144.75</ele><time>2026-05-02T10:05:32Z</time></trkpt><trkpt lat="41.739206766226225" lon="14.00081949311789"><ele>1145.0</ele><time>2026-05-02T10:05:33Z</time></trkpt><trkpt lat="41.73923242142282" lon="14.00068003890219"><ele>1144.25</ele><time>2026-05-02T10:05:34Z</time></trkpt><trkpt lat="41.73926040127362" lon="14.000534149291529"><ele>1143.5</ele><time>2026-05-02T10:05:35Z</time></trkpt><trkpt lat="41.739289357320956" lon="14.000380189506505"><ele>1142.75</ele><time>2026-05-02T10:05:36Z</time></trkpt><trkpt lat="41.73931989287377" lon="14.000219774898744"><ele>1142.0</ele><time>2026-05-02T10:05:37Z</time></trkpt><trkpt lat="41.73935067169545" lon="14.000051326645687"><ele>1142.0</ele><time>2026-05-02T10:05:38Z</time></trkpt><trkpt lat="41.73937979881447" lon="13.999899681036718"><ele>1142.0</ele><time>2026-05-02T10:05:39Z</time></trkpt><trkpt lat="41.73941713388679" lon="13.999749421131853"><ele>1142.0</ele><time>2026-05-02T10:05:40Z</time></trkpt><trkpt lat="41.73946843503858" lon="13.999601147746233"><ele>1142.0</ele><time>2026-05-02T10:05:41Z</time></trkpt><trkpt lat="41.73953625045653" lon="13.999458904814519"><ele>1143.5</ele><time>2026-05-02T10:05:42Z</time></trkpt><trkpt lat="41.73961667884304" lon="13.99933461210439"><ele>1145.0</ele><time>2026-05-02T10:05:43Z</time></trkpt><trkpt lat="41.73969093067176" lon="13.999218702159583"><ele>1146.5</ele><time>2026-05-02T10:05:44Z</time></trkpt><trkpt lat="41.73976290374221" lon="13.999098834255923"><ele>1148.0</ele><time>2026-05-02T10:05:45Z</time></trkpt><trkpt lat="41.73983716206847" lon="13.998979205935978"><ele>1148.0</ele><time>2026-05-02T10:05:46Z</time></trkpt><trkpt lat="41.7399049009801" lon="13.998847537076411"><ele>1148.0</ele><time>2026-05-02T10:05:47Z</time></trkpt><trkpt lat="41.73996479193677" lon="13.998715260745291"><ele>1148.0</ele><time>2026-05-02T10:05:48Z</time></trkpt><trkpt lat="41.73999975209147" lon="13.998570386703244"><ele>1148.0</ele><time>2026-05-02T10:05:49Z</time></trkpt><trkpt lat="41.7400279882116" lon="13.998412860254135"><ele>1147.75</ele><time>2026-05-02T10:05:50Z</time></trkpt><trkpt lat="41.74005013922495" lon="13.99825625872827"><ele>1147.5</ele><time>2026-05-02T10:05:51Z</time></trkpt><trkpt lat="41.7400797139705" lon="13.998104161363685"><ele>1147.25</ele><time>2026-05-02T10:05:52Z</time></trkpt><trkpt lat="41.740112879674655" lon="13.99795638441224"><ele>1147.0</ele><time>2026-05-02T10:05:53Z</time></trkpt><trkpt lat="41.74015915074473" lon="13.997812990983551"><ele>1147.8</ele><time>2026-05-02T10:05:54Z</time></trkpt><trkpt lat="41.740248370398135" lon="13.997713685837716"><ele>1148.6</ele><time>2026-05-02T10:05:55Z</time></trkpt><trkpt lat="41.74032214255963" lon="13.997588921192353"><ele>1149.3999999999999</ele><time>2026-05-02T10:05:56Z</time></trkpt><trkpt lat="41.740401177551576" lon="13.997492635548138"><ele>1150.2</ele><time>2026-05-02T10:05:57Z</time></trkpt><trkpt lat="41.74047013380925" lon="13.99739392479255"><ele>1151.0</ele><time>2026-05-02T10:05:58Z</time></trkpt><trkpt lat="41.740531770452556" lon="13.997276602046789"><ele>1151.75</ele><time>2026-05-02T10:05:59Z</time></trkpt><trkpt lat="41.74059173110841" lon="13.997131510264198"><ele>1152.5</ele><time>2026-05-02T10:06:00Z</time></trkpt><trkpt lat="41.74064532361411" lon="13.996963128787586"><ele>1153.25</ele><time>2026-05-02T10:06:01Z</time></trkpt><trkpt lat="41.740702573408804" lon="13.99681332926288"><ele>1154.0</ele><time>2026-05-02T10:06:02Z</time></trkpt><trkpt lat="41.74075235915552" lon="13.996652064154974"><ele>1154.6666666666667</ele><time>2026-05-02T10:06:03Z</time></trkpt><trkpt lat="41.74078732497205" lon="13.996462492092213"><ele>1155.3333333333333</ele><time>2026-05-02T10:06:04Z</time></trkpt><trkpt lat="41.74081427842351" lon="13.996255556124808"><ele>1156.0</ele><time>2026-05-02T10:06:05Z</time></trkpt><trkpt lat="41.7408671448063" lon="13.996055995072405"><ele>1157.3333333333333</ele><time>2026-05-02T10:06:06Z</time></trkpt><trkpt lat="41.74089347011474" lon="13.995835979735498"><ele>1158.6666666666667</ele><time>2026-05-02T10:06:07Z</time></trkpt><trkpt lat="41.74095766017354" lon="13.995594377268679"><ele>1160.0</ele><time>2026-05-02T10:06:08Z</time></trkpt><trkpt lat="41.74101398901959" lon="13.995317976396398"><ele>1164.6666666666667</ele><time>2026-05-02T10:06:09Z</time></trkpt><trkpt lat="41.74107108219158" lon="13.9950382162682"><ele>1169.3333333333333</ele><time>2026-05-02T10:06:10Z</time></trkpt><trkpt lat="41.741123624984375" lon="13.994764254936277"><ele>1174.0</ele><time>2026-05-02T10:06:11Z</time></trkpt><trkpt lat="41.741175330991894" lon="13.994501159811234"><ele>1176.3333333333333</ele><time>2026-05-02T10:06:12Z</time></trkpt><trkpt lat="41.74121763771785" lon="13.99425359980186"><ele>1178.6666666666667</ele><time>2026-05-02T10:06:13Z</time></trkpt><trkpt lat="41.741245712602925" lon="13.994021162559036"><ele>1181.0</ele><time>2026-05-02T10:06:14Z</time></trkpt><trkpt lat="41.74126385690573" lon="13.993804418212925"><ele>1181.0</ele><time>2026-05-02T10:06:15Z</time></trkpt><trkpt lat="41.741276750513435" lon="13.993590881771956"><ele>1181.0</ele><time>2026-05-02T10:06:16Z</time></trkpt><trkpt lat="41.74129028964884" lon="13.9933878097764"><ele>1181.0</ele><time>2026-05-02T10:06:17Z</time></trkpt><trkpt lat="41.74130126687447" lon="13.993195027520365"><ele>1181.0</ele><time>2026-05-02T10:06:18Z</time></trkpt><trkpt lat="41.74130799652352" lon="13.993002532982743"><ele>1181.0</ele><time>2026-05-02T10:06:19Z</time></trkpt><trkpt lat="41.74130276068728" lon="13.992804214659028"><ele>1181.0</ele><time>2026-05-02T10:06:20Z</time></trkpt><trkpt lat="41.74127872588639" lon="13.992613423776138"><ele>1181.0</ele><time>2026-05-02T10:06:21Z</time></trkpt><trkpt lat="41.741252010717346" lon="13.99243523586457"><ele>1179.5</ele><time>2026-05-02T10:06:22Z</time></trkpt><trkpt lat="41.74122638620408" lon="13.99225743437786"><ele>1178.0</ele><time>2026-05-02T10:06:23Z</time></trkpt><trkpt lat="41.74120252419781" lon="13.992084156209264"><ele>1176.5</ele><time>2026-05-02T10:06:24Z</time></trkpt><trkpt lat="41.74118279382752" lon="13.991920884660773"><ele>1175.0</ele><time>2026-05-02T10:06:25Z</time></trkpt><trkpt lat="41.7411643790675" lon="13.991771742196791"><ele>1173.4</ele><time>2026-05-02T10:06:26Z</time></trkpt><trkpt lat="41.74116443441144" lon="13.99163266042109"><ele>1171.8</ele><time>2026-05-02T10:06:27Z</time></trkpt><trkpt lat="41.74119454504866" lon="13.991515968306866"><ele>1170.2</ele><time>2026-05-02T10:06:28Z</time></trkpt><trkpt lat="41.74126112892048" lon="13.991423518454816"><ele>1168.6</ele><time>2026-05-02T10:06:29Z</time></trkpt><trkpt lat="41.741365818192136" lon="13.991344369845812"><ele>1167.0</ele><time>2026-05-02T10:06:30Z</time></trkpt><trkpt lat="41.741511097545825" lon="13.991266519762993"><ele>1167.0</ele><time>2026-05-02T10:06:31Z</time></trkpt><trkpt lat="41.7416791970186" lon="13.99114867735607"><ele>1167.0</ele><time>2026-05-02T10:06:32Z</time></trkpt><trkpt lat="41.74184921945401" lon="13.991007740854084"><ele>1167.0</ele><time>2026-05-02T10:06:33Z</time></trkpt><trkpt lat="41.74198528892225" lon="13.990914070494313"><ele>1163.0</ele><time>2026-05-02T10:06:34Z</time></trkpt><trkpt lat="41.74208017361493" lon="13.990790413456176"><ele>1159.0</ele><time>2026-05-02T10:06:35Z</time></trkpt><trkpt lat="41.74213830587088" lon="13.990588337248802"><ele>1155.0</ele><time>2026-05-02T10:06:36Z</time></trkpt><trkpt lat="41.74216865842035" lon="13.990322642938443"><ele>1155.0</ele><time>2026-05-02T10:06:37Z</time></trkpt><trkpt lat="41.74220117494484" lon="13.990034794350144"><ele>1155.0</ele><time>2026-05-02T10:06:38Z</time></trkpt><trkpt lat="41.74226486320244" lon="13.989755680779318"><ele>1155.0</ele><time>2026-05-02T10:06:39Z</time></trkpt><trkpt lat="41.742338801287595" lon="13.989501552514154"><ele>1154.6666666666667</ele><time>2026-05-02T10:06:40Z</time></trkpt><trkpt lat="41.74238835198693" lon="13.989265390841428"><ele>1154.3333333333335</ele><time>2026-05-02T10:06:41Z</time></trkpt><trkpt lat="41.74243696411404" lon="13.98906251264362"><ele>1154.0</ele><time>2026-05-02T10:06:42Z</time></trkpt><trkpt lat="41.74250987329493" lon="13.988887834246041"><ele>1154.0</ele><time>2026-05-02T10:06:43Z</time></trkpt><trkpt lat="41.742632145662675" lon="13.988757420154974"><ele>1154.0</ele><time>2026-05-02T10:06:44Z</time></trkpt><trkpt lat="41.74279706100185" lon="13.988687635999026"><ele>1154.0</ele><time>2026-05-02T10:06:45Z</time></trkpt><trkpt lat="41.74293575709292" lon="13.988638242989879"><ele>1151.8</ele><time>2026-05-02T10:06:46Z</time></trkpt><trkpt lat="41.74304145579646" lon="13.988582143622994"><ele>1149.6000000000001</ele><time>2026-05-02T10:06:47Z</time></trkpt><trkpt lat="41.74312515744687" lon="13.988521970336553"><ele>1147.4</ele><time>2026-05-02T10:06:48Z</time></trkpt><trkpt lat="41.74318138421184" lon="13.988412368097762"><ele>1145.2</ele><time>2026-05-02T10:06:49Z</time></trkpt><trkpt lat="41.74322421480361" lon="13.988288193415682"><ele>1143.0</ele><time>2026-05-02T10:06:50Z</time></trkpt><trkpt lat="41.74324821960595" lon="13.988156495476115"><ele>1143.0</ele><time>2026-05-02T10:06:51Z</time></trkpt><trkpt lat="41.74327595433387" lon="13.988037000380695"><ele>1143.0</ele><time>2026-05-02T10:06:52Z</time></trkpt><trkpt lat="41.74329477380756" lon="13.98792134984986"><ele>1143.0</ele><time>2026-05-02T10:06:53Z</time></trkpt><trkpt lat="41.743298664054706" lon="13.98780846453858"><ele>1143.0</ele><time>2026-05-02T10:06:54Z</time></trkpt><trkpt lat="41.74330235275401" lon="13.987692549656554"><ele>1143.0</ele><time>2026-05-02T10:06:55Z</time></trkpt><trkpt lat="41.743283359710226" lon="13.987558047229511"><ele>1142.8</ele><time>2026-05-02T10:06:56Z</time></trkpt><trkpt lat="41.74323946666279" lon="13.987426739700828"><ele>1142.6</ele><time>2026-05-02T10:06:57Z</time></trkpt><trkpt lat="41.74319095380735" lon="13.987310141439705"><ele>1142.4</ele><time>2026-05-02T10:06:58Z</time></trkpt><trkpt lat="41.743166190248296" lon="13.987199126649578"><ele>1142.2</ele><time>2026-05-02T10:06:59Z</time></trkpt><trkpt lat="41.74316187951574" lon="13.987063461904855"><ele>1142.0</ele><time>2026-05-02T10:07:00Z</time></trkpt><trkpt lat="41.74317445815147" lon="13.986926983441952"><ele>1142.0</ele><time>2026-05-02T10:07:01Z</time></trkpt><trkpt lat="41.74319432868785" lon="13.98681944344788"><ele>1142.0</ele><time>2026-05-02T10:07:02Z</time></trkpt><trkpt lat="41.74321498908909" lon="13.986729872353045"><ele>1142.0</ele><time>2026-05-02T10:07:03Z</time></trkpt><trkpt lat="41.74324066484143" lon="13.986638599018724"><ele>1142.0</ele><time>2026-05-02T10:07:04Z</time></trkpt><trkpt lat="41.74326194009201" lon="13.986554101429151"><ele>1142.0</ele><time>2026-05-02T10:07:05Z</time></trkpt><trkpt lat="41.743329648717385" lon="13.986469226300873"><ele>1142.0</ele><time>2026-05-02T10:07:07Z</time></trkpt><trkpt lat="41.74341483212175" lon="13.986450647855243"><ele>1141.8333333333335</ele><time>2026-05-02T10:07:09Z</time></trkpt><trkpt lat="41.74347270686131" lon="13.986497584385289"><ele>1141.6666666666667</ele><time>2026-05-02T10:07:10Z</time></trkpt><trkpt lat="41.74351969347405" lon="13.986582428459265"><ele>1141.5</ele><time>2026-05-02T10:07:11Z</time></trkpt><trkpt lat="41.743550341521576" lon="13.986697851265237"><ele>1141.3333333333333</ele><time>2026-05-02T10:07:12Z</time></trkpt><trkpt lat="41.74356737684421" lon="13.986825981405856"><ele>1141.1666666666665</ele><time>2026-05-02T10:07:13Z</time></trkpt><trkpt lat="41.743587024803844" lon="13.986964790775355"><ele>1141.0</ele><time>2026-05-02T10:07:14Z</time></trkpt><trkpt lat="41.74360958096952" lon="13.987109708274998"><ele>1139.0</ele><time>2026-05-02T10:07:15Z</time></trkpt><trkpt lat="41.743643374370656" lon="13.987246287693745"><ele>1137.0</ele><time>2026-05-02T10:07:16Z</time></trkpt><trkpt lat="41.74368100478949" lon="13.987371872960706"><ele>1135.0</ele><time>2026-05-02T10:07:17Z</time></trkpt><trkpt lat="41.74372604781158" lon="13.987501268528067"><ele>1133.0</ele><time>2026-05-02T10:07:18Z</time></trkpt><trkpt lat="41.74377485170289" lon="13.98764609750485"><ele>1131.0</ele><time>2026-05-02T10:07:19Z</time></trkpt><trkpt lat="41.743835191734874" lon="13.987794924843822"><ele>1131.0</ele><time>2026-05-02T10:07:20Z</time></trkpt><trkpt lat="41.74389508953177" lon="13.987944226200776"><ele>1131.0</ele><time>2026-05-02T10:07:21Z</time></trkpt><trkpt lat="41.743958096751314" lon="13.988066195115866"><ele>1131.0</ele><time>2026-05-02T10:07:22Z</time></trkpt><trkpt lat="41.74401974879872" lon="13.98817710821247"><ele>1131.0</ele><time>2026-05-02T10:07:23Z</time></trkpt><trkpt lat="41.74407291150559" lon="13.98828882770269"><ele>1131.0</ele><time>2026-05-02T10:07:24Z</time></trkpt><trkpt lat="41.74412169809302" lon="13.988414732900313"><ele>1130.3999999999999</ele><time>2026-05-02T10:07:25Z</time></trkpt><trkpt lat="41.74416026758272" lon="13.988545347361152"><ele>1129.8</ele><time>2026-05-02T10:07:26Z</time></trkpt><trkpt lat="41.7441775484241" lon="13.98868265001102"><ele>1129.1999999999998</ele><time>2026-05-02T10:07:27Z</time></trkpt><trkpt lat="41.74419343195994" lon="13.988811494433936"><ele>1128.6</ele><time>2026-05-02T10:07:28Z</time></trkpt><trkpt lat="41.74420349860114" lon="13.98894555074701"><ele>1128.0</ele><time>2026-05-02T10:07:29Z</time></trkpt><trkpt lat="41.74421325077233" lon="13.989087320459493"><ele>1127.25</ele><time>2026-05-02T10:07:30Z</time></trkpt><trkpt lat="41.744210948465714" lon="13.989233510104983"><ele>1126.5</ele><time>2026-05-02T10:07:31Z</time></trkpt><trkpt lat="41.74418088672406" lon="13.98938659199167"><ele>1125.75</ele><time>2026-05-02T10:07:32Z</time></trkpt><trkpt lat="41.74414150068194" lon="13.989530013869315"><ele>1125.0</ele><time>2026-05-02T10:07:33Z</time></trkpt><trkpt lat="41.74411278102547" lon="13.989680317228592"><ele>1125.0</ele><time>2026-05-02T10:07:34Z</time></trkpt><trkpt lat="41.74408315387186" lon="13.98983777372847"><ele>1125.0</ele><time>2026-05-02T10:07:35Z</time></trkpt><trkpt lat="41.74410544098135" lon="13.99000259857237"><ele>1125.0</ele><time>2026-05-02T10:07:36Z</time></trkpt><trkpt lat="41.74411580298571" lon="13.990147524477404"><ele>1125.0</ele><time>2026-05-02T10:07:37Z</time></trkpt><trkpt lat="41.74411785849744" lon="13.99029239528949"><ele>1123.75</ele><time>2026-05-02T10:07:38Z</time></trkpt><trkpt lat="41.744155198758115" lon="13.990432785710755"><ele>1122.5</ele><time>2026-05-02T10:07:39Z</time></trkpt><trkpt lat="41.74422433435898" lon="13.99056506023314"><ele>1121.25</ele><time>2026-05-02T10:07:40Z</time></trkpt><trkpt lat="41.74430439672691" lon="13.99068017340538"><ele>1120.0</ele><time>2026-05-02T10:07:41Z</time></trkpt><trkpt lat="41.744394160596435" lon="13.990792148113325"><ele>1127.25</ele><time>2026-05-02T10:07:42Z</time></trkpt><trkpt lat="41.7444834637341" lon="13.990895594475464"><ele>1134.5</ele><time>2026-05-02T10:07:43Z</time></trkpt><trkpt lat="41.74457932758912" lon="13.990986708101525"><ele>1141.75</ele><time>2026-05-02T10:07:44Z</time></trkpt><trkpt lat="41.7446811042317" lon="13.991056527863387"><ele>1149.0</ele><time>2026-05-02T10:07:45Z</time></trkpt><trkpt lat="41.74478898839623" lon="13.991105363337137"><ele>1149.0</ele><time>2026-05-02T10:07:46Z</time></trkpt><trkpt lat="41.744909483675" lon="13.991108098133102"><ele>1149.0</ele><time>2026-05-02T10:07:47Z</time></trkpt><trkpt lat="41.7450392363876" lon="13.991116174987916"><ele>1149.0</ele><time>2026-05-02T10:07:48Z</time></trkpt><trkpt lat="41.74519757555271" lon="13.991137638436182"><ele>1149.0</ele><time>2026-05-02T10:07:49Z</time></trkpt><trkpt lat="41.74535623161699" lon="13.991125320806185"><ele>1146.6666666666667</ele><time>2026-05-02T10:07:50Z</time></trkpt><trkpt lat="41.74551786722313" lon="13.991112638212522"><ele>1144.3333333333335</ele><time>2026-05-02T10:07:51Z</time></trkpt><trkpt lat="41.745663241709266" lon="13.991098367727504"><ele>1142.0</ele><time>2026-05-02T10:07:52Z</time></trkpt><trkpt lat="41.74580789800575" lon="13.99110270925946"><ele>1142.0</ele><time>2026-05-02T10:07:53Z</time></trkpt><trkpt lat="41.74594548543611" lon="13.991101745182437"><ele>1142.0</ele><time>2026-05-02T10:07:54Z</time></trkpt><trkpt lat="41.74607749859973" lon="13.991094592383726"><ele>1142.0</ele><time>2026-05-02T10:07:55Z</time></trkpt><trkpt lat="41.74620453320445" lon="13.991087013159017"><ele>1142.0</ele><time>2026-05-02T10:07:56Z</time></trkpt><trkpt lat="41.74633926647589" lon="13.99107519139538"><ele>1139.25</ele><time>2026-05-02T10:07:57Z</time></trkpt><trkpt lat="41.74648209529304" lon="13.991066052312343"><ele>1136.5</ele><time>2026-05-02T10:07:58Z</time></trkpt><trkpt lat="41.74662971534696" lon="13.991071866549357"><ele>1133.75</ele><time>2026-05-02T10:07:59Z</time></trkpt><trkpt lat="41.746777186976196" lon="13.991093577468707"><ele>1131.0</ele><time>2026-05-02T10:08:00Z</time></trkpt><trkpt lat="41.74692414963286" lon="13.991128267260521"><ele>1128.25</ele><time>2026-05-02T10:08:01Z</time></trkpt><trkpt lat="41.74707238402583" lon="13.991160471034831"><ele>1125.5</ele><time>2026-05-02T10:08:02Z</time></trkpt><trkpt lat="41.74722198474464" lon="13.991187438183623"><ele>1122.75</ele><time>2026-05-02T10:08:03Z</time></trkpt><trkpt lat="41.74736051856963" lon="13.991207685470437"><ele>1120.0</ele><time>2026-05-02T10:08:04Z</time></trkpt><trkpt lat="41.74749524472164" lon="13.991220440588172"><ele>1120.0</ele><time>2026-05-02T10:08:05Z</time></trkpt><trkpt lat="41.747624913689236" lon="13.99122664240366"><ele>1120.0</ele><time>2026-05-02T10:08:06Z</time></trkpt><trkpt lat="41.74775628468043" lon="13.991217794773295"><ele>1120.0</ele><time>2026-05-02T10:08:07Z</time></trkpt><trkpt lat="41.747892682340776" lon="13.991200661159235"><ele>1120.0</ele><time>2026-05-02T10:08:08Z</time></trkpt><trkpt lat="41.74803054675673" lon="13.991177124357076"><ele>1118.25</ele><time>2026-05-02T10:08:09Z</time></trkpt><trkpt lat="41.74816234985071" lon="13.991162771534302"><ele>1116.5</ele><time>2026-05-02T10:08:10Z</time></trkpt><trkpt lat="41.748288920349545" lon="13.991149220648042"><ele>1114.75</ele><time>2026-05-02T10:08:11Z</time></trkpt><trkpt lat="41.74840950373121" lon="13.991126949948061"><ele>1113.0</ele><time>2026-05-02T10:08:12Z</time></trkpt><trkpt lat="41.74853220064991" lon="13.991099312675866"><ele>1110.75</ele><time>2026-05-02T10:08:13Z</time></trkpt><trkpt lat="41.74866374930004" lon="13.991071721877837"><ele>1108.5</ele><time>2026-05-02T10:08:14Z</time></trkpt><trkpt lat="41.74880633088375" lon="13.991063849271587"><ele>1106.25</ele><time>2026-05-02T10:08:15Z</time></trkpt><trkpt lat="41.748945264483424" lon="13.991099698012063"><ele>1104.0</ele><time>2026-05-02T10:08:16Z</time></trkpt><trkpt lat="41.749076375056156" lon="13.991102437052055"><ele>1104.0</ele><time>2026-05-02T10:08:17Z</time></trkpt><trkpt lat="41.7491957504089" lon="13.99114517363787"><ele>1104.0</ele><time>2026-05-02T10:08:18Z</time></trkpt><trkpt lat="41.749302001375355" lon="13.991141638076963"><ele>1104.0</ele><time>2026-05-02T10:08:19Z</time></trkpt><trkpt lat="41.74940490769444" lon="13.991154104641826"><ele>1104.0</ele><time>2026-05-02T10:08:20Z</time></trkpt><trkpt lat="41.74950081303388" lon="13.991155381939606"><ele>1104.0</ele><time>2026-05-02T10:08:21Z</time></trkpt><trkpt lat="41.749590947173274" lon="13.991166491778793"><ele>1103.1666666666667</ele><time>2026-05-02T10:08:22Z</time></trkpt><trkpt lat="41.749674368002836" lon="13.991102944482854"><ele>1102.3333333333333</ele><time>2026-05-02T10:08:23Z</time></trkpt><trkpt lat="41.74973161833596" lon="13.991022503232411"><ele>1101.5</ele><time>2026-05-02T10:08:24Z</time></trkpt><trkpt lat="41.749781514462946" lon="13.990951608683215"><ele>1100.6666666666665</ele><time>2026-05-02T10:08:25Z</time></trkpt><trkpt lat="41.74983784714679" lon="13.99088769699055"><ele>1099.8333333333333</ele><time>2026-05-02T10:08:26Z</time></trkpt><trkpt lat="41.749912468459755" lon="13.990837856267428"><ele>1099.0</ele><time>2026-05-02T10:08:27Z</time></trkpt><trkpt lat="41.75000064873439" lon="13.990827773047162"><ele>1099.0</ele><time>2026-05-02T10:08:28Z</time></trkpt><trkpt lat="41.75008867142924" lon="13.990872251658919"><ele>1099.0</ele><time>2026-05-02T10:08:29Z</time></trkpt><trkpt lat="41.750166321525775" lon="13.99095503821556"><ele>1099.0</ele><time>2026-05-02T10:08:30Z</time></trkpt><trkpt lat="41.75024077787926" lon="13.991049530295241"><ele>1099.0</ele><time>2026-05-02T10:08:31Z</time></trkpt><trkpt lat="41.75032633609441" lon="13.991145283352063"><ele>1099.0</ele><time>2026-05-02T10:08:32Z</time></trkpt><trkpt lat="41.750419321289684" lon="13.991241771147793"><ele>1097.5</ele><time>2026-05-02T10:08:33Z</time></trkpt><trkpt lat="41.75051759004064" lon="13.991340729625158"><ele>1096.0</ele><time>2026-05-02T10:08:34Z</time></trkpt><trkpt lat="41.75062062234781" lon="13.991436695755883"><ele>1094.5</ele><time>2026-05-02T10:08:35Z</time></trkpt><trkpt lat="41.75072236127935" lon="13.991512361562242"><ele>1093.0</ele><time>2026-05-02T10:08:36Z</time></trkpt><trkpt lat="41.7508011670388" lon="13.991613071587182"><ele>1093.25</ele><time>2026-05-02T10:08:37Z</time></trkpt><trkpt lat="41.75089658371722" lon="13.991690016287832"><ele>1093.5</ele><time>2026-05-02T10:08:38Z</time></trkpt><trkpt lat="41.75099521541505" lon="13.99176192009335"><ele>1093.75</ele><time>2026-05-02T10:08:39Z</time></trkpt><trkpt lat="41.751104067250346" lon="13.9918147722694"><ele>1094.0</ele><time>2026-05-02T10:08:40Z</time></trkpt><trkpt lat="41.75119705085583" lon="13.991895769323055"><ele>1094.0</ele><time>2026-05-02T10:08:41Z</time></trkpt><trkpt lat="41.75129162948475" lon="13.99193898567309"><ele>1094.0</ele><time>2026-05-02T10:08:42Z</time></trkpt><trkpt lat="41.75139746336786" lon="13.991960492373403"><ele>1094.0</ele><time>2026-05-02T10:08:43Z</time></trkpt><trkpt lat="41.75150417852251" lon="13.991971653022981"><ele>1094.0</ele><time>2026-05-02T10:08:44Z</time></trkpt><trkpt lat="41.75161212291888" lon="13.991975610459203"><ele>1094.0</ele><time>2026-05-02T10:08:45Z</time></trkpt><trkpt lat="41.75171191444022" lon="13.991987870446382"><ele>1094.0</ele><time>2026-05-02T10:08:46Z</time></trkpt><trkpt lat="41.75181509306215" lon="13.991992573601616"><ele>1094.0</ele><time>2026-05-02T10:08:47Z</time></trkpt><trkpt lat="41.751918517688694" lon="13.991997383091313"><ele>1094.0</ele><time>2026-05-02T10:08:48Z</time></trkpt><trkpt lat="41.752022985236124" lon="13.99197652685515"><ele>1094.0</ele><time>2026-05-02T10:08:49Z</time></trkpt><trkpt lat="41.7521289027554" lon="13.991996093744834"><ele>1094.0</ele><time>2026-05-02T10:08:50Z</time></trkpt><trkpt lat="41.752232451350295" lon="13.99204705629093"><ele>1093.2</ele><time>2026-05-02T10:08:51Z</time></trkpt><trkpt lat="41.75234495876282" lon="13.992068795263846"><ele>1092.4</ele><time>2026-05-02T10:08:52Z</time></trkpt><trkpt lat="41.75244759938343" lon="13.992106654929412"><ele>1091.6</ele><time>2026-05-02T10:08:53Z</time></trkpt><trkpt lat="41.75254631902687" lon="13.99214494547487"><ele>1090.8</ele><time>2026-05-02T10:08:54Z</time></trkpt><trkpt lat="41.75263781151357" lon="13.992183463852395"><ele>1090.0</ele><time>2026-05-02T10:08:55Z</time></trkpt><trkpt lat="41.75272086413548" lon="13.992226155215764"><ele>1088.8</ele><time>2026-05-02T10:08:56Z</time></trkpt><trkpt lat="41.75280663015542" lon="13.99227404694187"><ele>1087.6</ele><time>2026-05-02T10:08:57Z</time></trkpt><trkpt lat="41.75289469073996" lon="13.992330813979208"><ele>1086.4</ele><time>2026-05-02T10:08:58Z</time></trkpt><trkpt lat="41.752996292977855" lon="13.992372541980135"><ele>1085.2</ele><time>2026-05-02T10:08:59Z</time></trkpt><trkpt lat="41.75308887921521" lon="13.99243012507163"><ele>1084.0</ele><time>2026-05-02T10:09:00Z</time></trkpt><trkpt lat="41.753181970268415" lon="13.992458313486445"><ele>1084.0</ele><time>2026-05-02T10:09:01Z</time></trkpt><trkpt lat="41.753275714461445" lon="13.992475351577006"><ele>1084.0</ele><time>2026-05-02T10:09:02Z</time></trkpt><trkpt lat="41.753374012715945" lon="13.992491498840938"><ele>1084.0</ele><time>2026-05-02T10:09:03Z</time></trkpt><trkpt lat="41.75346584437783" lon="13.992505264538993"><ele>1084.0</ele><time>2026-05-02T10:09:04Z</time></trkpt><trkpt lat="41.753555058935106" lon="13.992519261978336"><ele>1084.0</ele><time>2026-05-02T10:09:05Z</time></trkpt><trkpt lat="41.75364348866502" lon="13.992540149184508"><ele>1086.6666666666665</ele><time>2026-05-02T10:09:06Z</time></trkpt><trkpt lat="41.75373184076733" lon="13.992572703357986"><ele>1089.3333333333333</ele><time>2026-05-02T10:09:07Z</time></trkpt><trkpt lat="41.75381069086858" lon="13.992600144151394"><ele>1092.0</ele><time>2026-05-02T10:09:08Z</time></trkpt><trkpt lat="41.753887680865866" lon="13.992636782563535"><ele>1094.6666666666667</ele><time>2026-05-02T10:09:09Z</time></trkpt><trkpt lat="41.75396270491248" lon="13.992668338874777"><ele>1097.3333333333335</ele><time>2026-05-02T10:09:10Z</time></trkpt><trkpt lat="41.75404115119214" lon="13.992689007023484"><ele>1100.0</ele><time>2026-05-02T10:09:11Z</time></trkpt><trkpt lat="41.75412419786238" lon="13.992688928750642"><ele>1100.0</ele><time>2026-05-02T10:09:12Z</time></trkpt><trkpt lat="41.75421392388175" lon="13.992665706297567"><ele>1100.0</ele><time>2026-05-02T10:09:13Z</time></trkpt><trkpt lat="41.75431190752555" lon="13.99262956891737"><ele>1100.0</ele><time>2026-05-02T10:09:14Z</time></trkpt><trkpt lat="41.754403467795235" lon="13.992581477469036"><ele>1100.0</ele><time>2026-05-02T10:09:15Z</time></trkpt><trkpt lat="41.75450793455374" lon="13.992563641524178"><ele>1100.0</ele><time>2026-05-02T10:09:16Z</time></trkpt><trkpt lat="41.754608893510444" lon="13.992546444283839"><ele>1099.0</ele><time>2026-05-02T10:09:17Z</time></trkpt><trkpt lat="41.75470043883927" lon="13.992518924868797"><ele>1098.0</ele><time>2026-05-02T10:09:18Z</time></trkpt><trkpt lat="41.75478807858116" lon="13.992518347074835"><ele>1097.0</ele><time>2026-05-02T10:09:19Z</time></trkpt><trkpt lat="41.7548747066375" lon="13.9925253106169"><ele>1096.0</ele><time>2026-05-02T10:09:20Z</time></trkpt><trkpt lat="41.75496013384189" lon="13.992541560005886"><ele>1095.0</ele><time>2026-05-02T10:09:21Z</time></trkpt><trkpt lat="41.75504895019279" lon="13.992561958420334"><ele>1094.0</ele><time>2026-05-02T10:09:22Z</time></trkpt><trkpt lat="41.75513731547326" lon="13.992594029999507"><ele>1092.1666666666667</ele><time>2026-05-02T10:09:23Z</time></trkpt><trkpt lat="41.755224660674585" lon="13.99263210473042"><ele>1090.3333333333335</ele><time>2026-05-02T10:09:24Z</time></trkpt><trkpt lat="41.75531202420099" lon="13.992668706568361"><ele>1088.5</ele><time>2026-05-02T10:09:25Z</time></trkpt><trkpt lat="41.755394673904775" lon="13.992707986614915"><ele>1086.6666666666667</ele><time>2026-05-02T10:09:26Z</time></trkpt><trkpt lat="41.75546708913139" lon="13.99274981105784"><ele>1084.8333333333333</ele><time>2026-05-02T10:09:27Z</time></trkpt><trkpt lat="41.75554212915159" lon="13.992769811139665"><ele>1083.0</ele><time>2026-05-02T10:09:28Z</time></trkpt><trkpt lat="41.755610684442054" lon="13.992780591785298"><ele>1083.0</ele><time>2026-05-02T10:09:29Z</time></trkpt><trkpt lat="41.75571395665537" lon="13.99277743326339"><ele>1083.0</ele><time>2026-05-02T10:09:31Z</time></trkpt><trkpt lat="41.7557942547863" lon="13.992772603925552"><ele>1083.0</ele><time>2026-05-02T10:09:33Z</time></trkpt><trkpt lat="41.755862476677464" lon="13.992772397393866"><ele>1083.0</ele><time>2026-05-02T10:09:35Z</time></trkpt><trkpt lat="41.75592052087391" lon="13.992697980551227"><ele>1083.0</ele><time>2026-05-02T10:09:37Z</time></trkpt><trkpt lat="41.75590632397656" lon="13.992566447744776"><ele>1083.0</ele><time>2026-05-02T10:09:39Z</time></trkpt><trkpt lat="41.75580437407337" lon="13.992488426808887"><ele>1083.0</ele><time>2026-05-02T10:09:41Z</time></trkpt><trkpt lat="41.7557192387805" lon="13.992514457291453"><ele>1083.0</ele><time>2026-05-02T10:09:42Z</time></trkpt><trkpt lat="41.755656369618535" lon="13.99252567301384"><ele>1083.0</ele><time>2026-05-02T10:09:43Z</time></trkpt><trkpt lat="41.755578091555094" lon="13.992545370506228"><ele>1083.0</ele><time>2026-05-02T10:09:44Z</time></trkpt><trkpt lat="41.75549243644474" lon="13.992531204424093"><ele>1083.0</ele><time>2026-05-02T10:09:45Z</time></trkpt><trkpt lat="41.75540489940165" lon="13.992501303519647"><ele>1083.0</ele><time>2026-05-02T10:09:46Z</time></trkpt><trkpt lat="41.75531789726101" lon="13.992466934506881"><ele>1079.8</ele><time>2026-05-02T10:09:47Z</time></trkpt><trkpt lat="41.75523158306931" lon="13.992424923774031"><ele>1076.6</ele><time>2026-05-02T10:09:48Z</time></trkpt><trkpt lat="41.755148942325164" lon="13.992372570085845"><ele>1073.4</ele><time>2026-05-02T10:09:49Z</time></trkpt><trkpt lat="41.75506553172053" lon="13.9923257027703"><ele>1070.2</ele><time>2026-05-02T10:09:50Z</time></trkpt><trkpt lat="41.754973066180405" lon="13.992291422793517"><ele>1067.0</ele><time>2026-05-02T10:09:51Z</time></trkpt><trkpt lat="41.75488022005935" lon="13.992258122250242"><ele>1067.0</ele><time>2026-05-02T10:09:52Z</time></trkpt><trkpt lat="41.75478828863007" lon="13.992230507639213"><ele>1067.0</ele><time>2026-05-02T10:09:53Z</time></trkpt><trkpt lat="41.75470396879893" lon="13.992213502092337"><ele>1067.0</ele><time>2026-05-02T10:09:54Z</time></trkpt><trkpt lat="41.75462479718988" lon="13.992185804970907"><ele>1067.0</ele><time>2026-05-02T10:09:55Z</time></trkpt><trkpt lat="41.75454630735114" lon="13.9921987462808"><ele>1067.0</ele><time>2026-05-02T10:09:56Z</time></trkpt><trkpt lat="41.7544669469101" lon="13.99221267782199"><ele>1067.0</ele><time>2026-05-02T10:09:57Z</time></trkpt><trkpt lat="41.75439126510228" lon="13.992224171708088"><ele>1068.1666666666667</ele><time>2026-05-02T10:09:58Z</time></trkpt><trkpt lat="41.75431432004466" lon="13.992223280939415"><ele>1069.3333333333335</ele><time>2026-05-02T10:09:59Z</time></trkpt><trkpt lat="41.754247248193145" lon="13.992208006208656"><ele>1070.5</ele><time>2026-05-02T10:10:00Z</time></trkpt><trkpt lat="41.75418374858354" lon="13.992149358185852"><ele>1071.6666666666667</ele><time>2026-05-02T10:10:01Z</time></trkpt><trkpt lat="41.75412596327891" lon="13.992073505193517"><ele>1072.8333333333333</ele><time>2026-05-02T10:10:02Z</time></trkpt><trkpt lat="41.75405578458444" lon="13.99198919725552"><ele>1074.0</ele><time>2026-05-02T10:10:03Z</time></trkpt><trkpt lat="41.75398549895205" lon="13.991904760730797"><ele>1074.0</ele><time>2026-05-02T10:10:04Z</time></trkpt><trkpt lat="41.7539192159568" lon="13.99182420427799"><ele>1074.0</ele><time>2026-05-02T10:10:05Z</time></trkpt><trkpt lat="41.75385153325222" lon="13.991745978278129"><ele>1074.0</ele><time>2026-05-02T10:10:06Z</time></trkpt><trkpt lat="41.75378221861757" lon="13.991668461411653"><ele>1074.0</ele><time>2026-05-02T10:10:07Z</time></trkpt><trkpt lat="41.753712469010864" lon="13.991586020929025"><ele>1074.0</ele><time>2026-05-02T10:10:08Z</time></trkpt><trkpt lat="41.75364270977546" lon="13.99149861719116"><ele>1072.5</ele><time>2026-05-02T10:10:09Z</time></trkpt><trkpt lat="41.75357861429947" lon="13.991411357658444"><ele>1071.0</ele><time>2026-05-02T10:10:10Z</time></trkpt><trkpt lat="41.75351793277058" lon="13.991327720478715"><ele>1069.5</ele><time>2026-05-02T10:10:11Z</time></trkpt><trkpt lat="41.75347391222736" lon="13.991220825922316"><ele>1068.0</ele><time>2026-05-02T10:10:12Z</time></trkpt><trkpt lat="41.75342514585318" lon="13.991125060882302"><ele>1066.5</ele><time>2026-05-02T10:10:13Z</time></trkpt><trkpt lat="41.75337940000621" lon="13.991042869244744"><ele>1065.0</ele><time>2026-05-02T10:10:14Z</time></trkpt><trkpt lat="41.75334901150888" lon="13.990934062869732"><ele>1065.0</ele><time>2026-05-02T10:10:15Z</time></trkpt><trkpt lat="41.753301860585914" lon="13.990841620637543"><ele>1065.0</ele><time>2026-05-02T10:10:16Z</time></trkpt><trkpt lat="41.75324256660913" lon="13.99074786085833"><ele>1065.0</ele><time>2026-05-02T10:10:17Z</time></trkpt><trkpt lat="41.753171589698084" lon="13.990664584790311"><ele>1065.0</ele><time>2026-05-02T10:10:18Z</time></trkpt><trkpt lat="41.75308114161209" lon="13.99059245513496"><ele>1065.0</ele><time>2026-05-02T10:10:19Z</time></trkpt><trkpt lat="41.752979169236504" lon="13.99054844037155"><ele>1064.1666666666667</ele><time>2026-05-02T10:10:20Z</time></trkpt><trkpt lat="41.75288467040389" lon="13.99051772323923"><ele>1063.3333333333333</ele><time>2026-05-02T10:10:21Z</time></trkpt><trkpt lat="41.75279582195234" lon="13.990481709715388"><ele>1062.5</ele><time>2026-05-02T10:10:22Z</time></trkpt><trkpt lat="41.752712791403894" lon="13.990439919842848"><ele>1061.6666666666665</ele><time>2026-05-02T10:10:23Z</time></trkpt><trkpt lat="41.752639758761184" lon="13.99039416628219"><ele>1060.8333333333333</ele><time>2026-05-02T10:10:24Z</time></trkpt><trkpt lat="41.752578290347756" lon="13.99034524819196"><ele>1060.0</ele><time>2026-05-02T10:10:25Z</time></trkpt><trkpt lat="41.75251959775544" lon="13.990292776722606"><ele>1060.0</ele><time>2026-05-02T10:10:26Z</time></trkpt><trkpt lat="41.75243204340901" lon="13.99018481662108"><ele>1060.0</ele><time>2026-05-02T10:10:28Z</time></trkpt><trkpt lat="41.7524572259704" lon="13.990022231675736"><ele>1060.0</ele><time>2026-05-02T10:10:30Z</time></trkpt><trkpt lat="41.752503823114175" lon="13.989958767189448"><ele>1060.0</ele><time>2026-05-02T10:10:31Z</time></trkpt><trkpt lat="41.75256863831829" lon="13.98992218428128"><ele>1060.0</ele><time>2026-05-02T10:10:32Z</time></trkpt><trkpt lat="41.75264255456722" lon="13.98992199847995"><ele>1058.8333333333333</ele><time>2026-05-02T10:10:33Z</time></trkpt><trkpt lat="41.752719759791866" lon="13.989955623024873"><ele>1057.6666666666665</ele><time>2026-05-02T10:10:34Z</time></trkpt><trkpt lat="41.75279527796957" lon="13.990000029420099"><ele>1056.5</ele><time>2026-05-02T10:10:35Z</time></trkpt><trkpt lat="41.75287364482828" lon="13.990044320540653"><ele>1055.3333333333333</ele><time>2026-05-02T10:10:36Z</time></trkpt><trkpt lat="41.75295565519765" lon="13.990092288990901"><ele>1054.1666666666667</ele><time>2026-05-02T10:10:37Z</time></trkpt><trkpt lat="41.75303351747821" lon="13.99012864791482"><ele>1053.0</ele><time>2026-05-02T10:10:38Z</time></trkpt><trkpt lat="41.75311001334031" lon="13.990140864918349"><ele>1053.0</ele><time>2026-05-02T10:10:39Z</time></trkpt><trkpt lat="41.75318995007328" lon="13.990125992078111"><ele>1053.0</ele><time>2026-05-02T10:10:40Z</time></trkpt><trkpt lat="41.753272186390625" lon="13.99010483627484"><ele>1053.0</ele><time>2026-05-02T10:10:41Z</time></trkpt><trkpt lat="41.75335735250142" lon="13.990110748808098"><ele>1053.0</ele><time>2026-05-02T10:10:42Z</time></trkpt><trkpt lat="41.753439312143406" lon="13.990121874722188"><ele>1053.0</ele><time>2026-05-02T10:10:43Z</time></trkpt><trkpt lat="41.75352145779347" lon="13.990143955559224"><ele>1053.0</ele><time>2026-05-02T10:10:44Z</time></trkpt><trkpt lat="41.75358385369753" lon="13.990230686428522"><ele>1050.6</ele><time>2026-05-02T10:10:45Z</time></trkpt><trkpt lat="41.75365383925209" lon="13.990294811518574"><ele>1048.1999999999998</ele><time>2026-05-02T10:10:46Z</time></trkpt><trkpt lat="41.753701976727015" lon="13.990397478280514"><ele>1045.8</ele><time>2026-05-02T10:10:47Z</time></trkpt><trkpt lat="41.75374788486278" lon="13.990514338794332"><ele>1043.3999999999999</ele><time>2026-05-02T10:10:48Z</time></trkpt><trkpt lat="41.75379679636176" lon="13.990635329795644"><ele>1041.0</ele><time>2026-05-02T10:10:49Z</time></trkpt><trkpt lat="41.75385654683179" lon="13.990733275238355"><ele>1041.0</ele><time>2026-05-02T10:10:50Z</time></trkpt><trkpt lat="41.75394337375355" lon="13.990795463133082"><ele>1041.0</ele><time>2026-05-02T10:10:51Z</time></trkpt><trkpt lat="41.75403080753357" lon="13.990847443482743"><ele>1041.0</ele><time>2026-05-02T10:10:52Z</time></trkpt><trkpt lat="41.75411388834045" lon="13.990885569450251"><ele>1041.0</ele><time>2026-05-02T10:10:53Z</time></trkpt><trkpt lat="41.754197800365986" lon="13.990919497273763"><ele>1041.0</ele><time>2026-05-02T10:10:54Z</time></trkpt><trkpt lat="41.754279105237565" lon="13.990922186103717"><ele>1041.3999999999999</ele><time>2026-05-02T10:10:55Z</time></trkpt><trkpt lat="41.754374275384265" lon="13.990862271893908"><ele>1041.8</ele><time>2026-05-02T10:10:56Z</time></trkpt><trkpt lat="41.75445886766505" lon="13.990801154933552"><ele>1042.1999999999998</ele><time>2026-05-02T10:10:57Z</time></trkpt><trkpt lat="41.75455390416433" lon="13.990743841401311"><ele>1042.6</ele><time>2026-05-02T10:10:58Z</time></trkpt><trkpt lat="41.75458547249413" lon="13.990642409271551"><ele>1043.0</ele><time>2026-05-02T10:10:59Z</time></trkpt><trkpt lat="41.75464482408613" lon="13.990545349126746"><ele>1041.1666666666667</ele><time>2026-05-02T10:11:00Z</time></trkpt><trkpt lat="41.754712116791865" lon="13.990463722879861"><ele>1039.3333333333335</ele><time>2026-05-02T10:11:01Z</time></trkpt><trkpt lat="41.75478411433077" lon="13.99043811408132"><ele>1037.5</ele><time>2026-05-02T10:11:02Z</time></trkpt><trkpt lat="41.75486824400622" lon="13.990492585518213"><ele>1035.6666666666667</ele><time>2026-05-02T10:11:03Z</time></trkpt><trkpt lat="41.75494941458687" lon="13.99051973301251"><ele>1033.8333333333333</ele><time>2026-05-02T10:11:04Z</time></trkpt><trkpt lat="41.75502205993238" lon="13.990566983720067"><ele>1032.0</ele><time>2026-05-02T10:11:05Z</time></trkpt><trkpt lat="41.755094973422125" lon="13.990619594789303"><ele>1032.0</ele><time>2026-05-02T10:11:06Z</time></trkpt><trkpt lat="41.75515550216348" lon="13.990675415103514"><ele>1032.0</ele><time>2026-05-02T10:11:07Z</time></trkpt><trkpt lat="41.75520360628253" lon="13.990756672175845"><ele>1032.0</ele><time>2026-05-02T10:11:08Z</time></trkpt><trkpt lat="41.75522127011315" lon="13.99085097307813"><ele>1032.0</ele><time>2026-05-02T10:11:09Z</time></trkpt><trkpt lat="41.755227756429676" lon="13.990963064685484"><ele>1032.0</ele><time>2026-05-02T10:11:10Z</time></trkpt><trkpt lat="41.75518815487647" lon="13.991048649441915"><ele>1032.0</ele><time>2026-05-02T10:11:11Z</time></trkpt><trkpt lat="41.75516625083461" lon="13.991143280396638"><ele>1032.0</ele><time>2026-05-02T10:11:12Z</time></trkpt><trkpt lat="41.75515667990042" lon="13.991245294277375"><ele>1032.0</ele><time>2026-05-02T10:11:13Z</time></trkpt><trkpt lat="41.75519574163037" lon="13.991357698420035"><ele>1032.0</ele><time>2026-05-02T10:11:14Z</time></trkpt><trkpt lat="41.75527304994819" lon="13.991451633896034"><ele>1032.0</ele><time>2026-05-02T10:11:15Z</time></trkpt><trkpt lat="41.75536207765079" lon="13.99148985743199"><ele>1032.0</ele><time>2026-05-02T10:11:16Z</time></trkpt><trkpt lat="41.7554956175074" lon="13.991550739748334"><ele>1032.0</ele><time>2026-05-02T10:11:18Z</time></trkpt><trkpt lat="41.75558082203748" lon="13.99158784789711"><ele>1032.0</ele><time>2026-05-02T10:11:19Z</time></trkpt><trkpt lat="41.75566833845386" lon="13.991625836944708"><ele>1032.0</ele><time>2026-05-02T10:11:20Z</time></trkpt><trkpt lat="41.755761146720815" lon="13.991642408547902"><ele>1032.0</ele><time>2026-05-02T10:11:21Z</time></trkpt><trkpt lat="41.75584109147275" lon="13.991699095379307"><ele>1032.0</ele><time>2026-05-02T10:11:22Z</time></trkpt><trkpt lat="41.75592192954084" lon="13.991733106122746"><ele>1031.8</ele><time>2026-05-02T10:11:23Z</time></trkpt><trkpt lat="41.75600409674289" lon="13.991764718016158"><ele>1031.6</ele><time>2026-05-02T10:11:24Z</time></trkpt><trkpt lat="41.75607467551702" lon="13.991782927059456"><ele>1031.3999999999999</ele><time>2026-05-02T10:11:25Z</time></trkpt><trkpt lat="41.75618922635201" lon="13.991730448175888"><ele>1031.2</ele><time>2026-05-02T10:11:27Z</time></trkpt><trkpt lat="41.75623510328161" lon="13.991665530644596"><ele>1031.0</ele><time>2026-05-02T10:11:28Z</time></trkpt><trkpt lat="41.75627931620526" lon="13.991514245848684"><ele>1031.0</ele><time>2026-05-02T10:11:30Z</time></trkpt><trkpt lat="41.75618601314919" lon="13.99141204319445"><ele>1031.0</ele><time>2026-05-02T10:11:31Z</time></trkpt><trkpt lat="41.75611018285144" lon="13.99136080196701"><ele>1031.0</ele><time>2026-05-02T10:11:32Z</time></trkpt><trkpt lat="41.75602942738621" lon="13.991315955847563"><ele>1031.0</ele><time>2026-05-02T10:11:33Z</time></trkpt><trkpt lat="41.75594969428916" lon="13.991271811554958"><ele>1031.0</ele><time>2026-05-02T10:11:34Z</time></trkpt><trkpt lat="41.75586944563423" lon="13.99121661583834"><ele>1031.1666666666667</ele><time>2026-05-02T10:11:35Z</time></trkpt><trkpt lat="41.75579401958958" lon="13.991155212653261"><ele>1031.3333333333335</ele><time>2026-05-02T10:11:36Z</time></trkpt><trkpt lat="41.75574293197619" lon="13.991055294234284"><ele>1031.5</ele><time>2026-05-02T10:11:37Z</time></trkpt><trkpt lat="41.755712071372606" lon="13.99094358898651"><ele>1031.6666666666667</ele><time>2026-05-02T10:11:38Z</time></trkpt><trkpt lat="41.75568305710987" lon="13.990846285502757"><ele>1031.8333333333333</ele><time>2026-05-02T10:11:39Z</time></trkpt><trkpt lat="41.75563641302296" lon="13.990731547894475"><ele>1032.0</ele><time>2026-05-02T10:11:40Z</time></trkpt><trkpt lat="41.7556094626736" lon="13.990632772253685"><ele>1028.8</ele><time>2026-05-02T10:11:41Z</time></trkpt><trkpt lat="41.75556570783791" lon="13.990528134808423"><ele>1025.6</ele><time>2026-05-02T10:11:42Z</time></trkpt><trkpt lat="41.755512801924425" lon="13.990416861034358"><ele>1022.3999999999999</ele><time>2026-05-02T10:11:43Z</time></trkpt><trkpt lat="41.75545453537092" lon="13.990311743703609"><ele>1019.1999999999999</ele><time>2026-05-02T10:11:44Z</time></trkpt><trkpt lat="41.75537224794434" lon="13.990223145366977"><ele>1016.0</ele><time>2026-05-02T10:11:45Z</time></trkpt><trkpt lat="41.75527871382896" lon="13.9901372535597"><ele>1016.5</ele><time>2026-05-02T10:11:46Z</time></trkpt><trkpt lat="41.755175553735256" lon="13.990048180708577"><ele>1017.0</ele><time>2026-05-02T10:11:47Z</time></trkpt><trkpt lat="41.75506596589355" lon="13.989955122623366"><ele>1017.5</ele><time>2026-05-02T10:11:48Z</time></trkpt><trkpt lat="41.754968905108456" lon="13.989855132759219"><ele>1018.0</ele><time>2026-05-02T10:11:49Z</time></trkpt><trkpt lat="41.754882209858366" lon="13.98974934957072"><ele>1018.0</ele><time>2026-05-02T10:11:50Z</time></trkpt><trkpt lat="41.75479867129038" lon="13.989641316948505"><ele>1018.0</ele><time>2026-05-02T10:11:51Z</time></trkpt><trkpt lat="41.75472339294024" lon="13.989537676468114"><ele>1018.0</ele><time>2026-05-02T10:11:52Z</time></trkpt><trkpt lat="41.75465207352024" lon="13.989441854011204"><ele>1018.0</ele><time>2026-05-02T10:11:53Z</time></trkpt><trkpt lat="41.75458234482694" lon="13.989349666266268"><ele>1018.0</ele><time>2026-05-02T10:11:54Z</time></trkpt><trkpt lat="41.75450542792488" lon="13.989274813385654"><ele>1018.0</ele><time>2026-05-02T10:11:55Z</time></trkpt><trkpt lat="41.754429777658515" lon="13.989187211261937"><ele>1018.0</ele><time>2026-05-02T10:11:56Z</time></trkpt><trkpt lat="41.75435506825276" lon="13.989088536179938"><ele>1018.0</ele><time>2026-05-02T10:11:57Z</time></trkpt><trkpt lat="41.75428283072587" lon="13.988988483895561"><ele>1018.0</ele><time>2026-05-02T10:11:58Z</time></trkpt><trkpt lat="41.75421643166042" lon="13.988899963324254"><ele>1018.0</ele><time>2026-05-02T10:11:59Z</time></trkpt><trkpt lat="41.75417009872091" lon="13.98883104430258"><ele>1018.5714285714284</ele><time>2026-05-02T10:12:00Z</time></trkpt><trkpt lat="41.754128129324435" lon="13.988756641687205"><ele>1019.1428571428571</ele><time>2026-05-02T10:12:01Z</time></trkpt><trkpt lat="41.75409166059401" lon="13.988681189704662"><ele>1019.7142857142857</ele><time>2026-05-02T10:12:02Z</time></trkpt><trkpt lat="41.75406805670143" lon="13.988597103957597"><ele>1020.2857142857142</ele><time>2026-05-02T10:12:03Z</time></trkpt><trkpt lat="41.75408672799043" lon="13.988502930957985"><ele>1020.8571428571429</ele><time>2026-05-02T10:12:04Z</time></trkpt><trkpt lat="41.75415137141141" lon="13.988423116683942"><ele>1021.4285714285714</ele><time>2026-05-02T10:12:05Z</time></trkpt><trkpt lat="41.75422353304791" lon="13.988387060606819"><ele>1022.0</ele><time>2026-05-02T10:12:06Z</time></trkpt><trkpt lat="41.75429409227607" lon="13.988403406352539"><ele>1022.0</ele><time>2026-05-02T10:12:07Z</time></trkpt><trkpt lat="41.75435038664533" lon="13.988485832473458"><ele>1022.0</ele><time>2026-05-02T10:12:08Z</time></trkpt><trkpt lat="41.75441318459336" lon="13.988559661428134"><ele>1022.0</ele><time>2026-05-02T10:12:09Z</time></trkpt><trkpt lat="41.75447903856181" lon="13.988646540327908"><ele>1022.0</ele><time>2026-05-02T10:12:10Z</time></trkpt><trkpt lat="41.754555011112124" lon="13.988741263092493"><ele>1022.0</ele><time>2026-05-02T10:12:11Z</time></trkpt><trkpt lat="41.754635385298165" lon="13.988840357193691"><ele>1021.0</ele><time>2026-05-02T10:12:12Z</time></trkpt><trkpt lat="41.75471772562395" lon="13.988944396295423"><ele>1020.0</ele><time>2026-05-02T10:12:13Z</time></trkpt><trkpt lat="41.754804678515555" lon="13.989060592329059"><ele>1019.0</ele><time>2026-05-02T10:12:14Z</time></trkpt><trkpt lat="41.75489238742657" lon="13.98916607090304"><ele>1018.0</ele><time>2026-05-02T10:12:15Z</time></trkpt><trkpt lat="41.754979963635385" lon="13.989267939188322"><ele>1018.0</ele><time>2026-05-02T10:12:16Z</time></trkpt><trkpt lat="41.7550658103085" lon="13.989377171658752"><ele>1018.0</ele><time>2026-05-02T10:12:17Z</time></trkpt><trkpt lat="41.75514796074231" lon="13.98947289615726"><ele>1018.0</ele><time>2026-05-02T10:12:18Z</time></trkpt><trkpt lat="41.755224055573585" lon="13.9895737998316"><ele>1018.0</ele><time>2026-05-02T10:12:19Z</time></trkpt><trkpt lat="41.75530165254693" lon="13.98965453881893"><ele>1018.0</ele><time>2026-05-02T10:12:20Z</time></trkpt><trkpt lat="41.755376611433064" lon="13.989733650962867"><ele>1017.5999999999999</ele><time>2026-05-02T10:12:21Z</time></trkpt><trkpt lat="41.755449202741985" lon="13.989814971137902"><ele>1017.1999999999999</ele><time>2026-05-02T10:12:22Z</time></trkpt><trkpt lat="41.75552582506622" lon="13.98991084633349"><ele>1016.8</ele><time>2026-05-02T10:12:23Z</time></trkpt><trkpt lat="41.75562030690655" lon="13.990005354566135"><ele>1016.4</ele><time>2026-05-02T10:12:24Z</time></trkpt><trkpt lat="41.75570739058231" lon="13.990101923496209"><ele>1016.0</ele><time>2026-05-02T10:12:25Z</time></trkpt><trkpt lat="41.755800644180276" lon="13.990161581215375"><ele>1016.0</ele><time>2026-05-02T10:12:26Z</time></trkpt><trkpt lat="41.75589421850175" lon="13.99020971184877"><ele>1015.9999999999999</ele><time>2026-05-02T10:12:27Z</time></trkpt><trkpt lat="41.75599065095292" lon="13.990232497647762"><ele>1015.9999999999999</ele><time>2026-05-02T10:12:28Z</time></trkpt><trkpt lat="41.756087701388466" lon="13.990233456673518"><ele>1016.0</ele><time>2026-05-02T10:12:29Z</time></trkpt><trkpt lat="41.75619450871142" lon="13.990208875038892"><ele>1016.0</ele><time>2026-05-02T10:12:30Z</time></trkpt><trkpt lat="41.756304513160636" lon="13.990165206612586"><ele>1015.75</ele><time>2026-05-02T10:12:31Z</time></trkpt><trkpt lat="41.756411223244" lon="13.990093087249798"><ele>1015.5</ele><time>2026-05-02T10:12:32Z</time></trkpt><trkpt lat="41.75651373521238" lon="13.990011025751208"><ele>1015.25</ele><time>2026-05-02T10:12:33Z</time></trkpt><trkpt lat="41.756611033802685" lon="13.989935769327426"><ele>1015.0</ele><time>2026-05-02T10:12:34Z</time></trkpt><trkpt lat="41.75670656436183" lon="13.989854436799833"><ele>1013.5</ele><time>2026-05-02T10:12:35Z</time></trkpt><trkpt lat="41.75679835710193" lon="13.989772981759435"><ele>1012.0</ele><time>2026-05-02T10:12:36Z</time></trkpt><trkpt lat="41.756893426372436" lon="13.989693627638504"><ele>1010.5</ele><time>2026-05-02T10:12:37Z</time></trkpt><trkpt lat="41.75699229643373" lon="13.989618346369147"><ele>1009.0</ele><time>2026-05-02T10:12:38Z</time></trkpt><trkpt lat="41.757085943039286" lon="13.98952882968078"><ele>1009.0</ele><time>2026-05-02T10:12:39Z</time></trkpt><trkpt lat="41.75717686621216" lon="13.989427491650888"><ele>1009.0</ele><time>2026-05-02T10:12:40Z</time></trkpt><trkpt lat="41.757270947488955" lon="13.98932589518335"><ele>1009.0</ele><time>2026-05-02T10:12:41Z</time></trkpt><trkpt lat="41.75736613754352" lon="13.989219806064193"><ele>1009.0</ele><time>2026-05-02T10:12:42Z</time></trkpt><trkpt lat="41.757462369673036" lon="13.989114471760518"><ele>1009.25</ele><time>2026-05-02T10:12:43Z</time></trkpt><trkpt lat="41.75756202798404" lon="13.989002954241181"><ele>1009.5</ele><time>2026-05-02T10:12:44Z</time></trkpt><trkpt lat="41.75766384439917" lon="13.988890948961211"><ele>1009.75</ele><time>2026-05-02T10:12:45Z</time></trkpt><trkpt lat="41.75777602413997" lon="13.988790750003105"><ele>1010.0</ele><time>2026-05-02T10:12:46Z</time></trkpt><trkpt lat="41.75787890777782" lon="13.98867917529259"><ele>1010.0</ele><time>2026-05-02T10:12:47Z</time></trkpt><trkpt lat="41.757980029228264" lon="13.988564106480831"><ele>1010.0</ele><time>2026-05-02T10:12:48Z</time></trkpt><trkpt lat="41.75807366168922" lon="13.988459464530223"><ele>1010.0</ele><time>2026-05-02T10:12:49Z</time></trkpt><trkpt lat="41.75815392571938" lon="13.988365174084603"><ele>1010.0</ele><time>2026-05-02T10:12:50Z</time></trkpt><trkpt lat="41.7582331313904" lon="13.988266569363205"><ele>1006.4</ele><time>2026-05-02T10:12:51Z</time></trkpt><trkpt lat="41.758310100568075" lon="13.988165291827183"><ele>1002.8</ele><time>2026-05-02T10:12:52Z</time></trkpt><trkpt lat="41.75839465868791" lon="13.988064654855025"><ele>999.2</ele><time>2026-05-02T10:12:53Z</time></trkpt><trkpt lat="41.758483917271285" lon="13.987966849220308"><ele>995.6</ele><time>2026-05-02T10:12:54Z</time></trkpt><trkpt lat="41.7585700449642" lon="13.987880354505961"><ele>992.0</ele><time>2026-05-02T10:12:55Z</time></trkpt><trkpt lat="41.75866365986445" lon="13.987823658836097"><ele>992.0</ele><time>2026-05-02T10:12:56Z</time></trkpt><trkpt lat="41.75876827992427" lon="13.987803617128364"><ele>992.0</ele><time>2026-05-02T10:12:57Z</time></trkpt><trkpt lat="41.758874525469274" lon="13.987789766136174"><ele>992.0</ele><time>2026-05-02T10:12:58Z</time></trkpt><trkpt lat="41.758985471931055" lon="13.987776065662125"><ele>992.0</ele><time>2026-05-02T10:12:59Z</time></trkpt><trkpt lat="41.75907942175268" lon="13.98778779566792"><ele>992.0</ele><time>2026-05-02T10:13:00Z</time></trkpt><trkpt lat="41.759154387906186" lon="13.987834860906537"><ele>992.0</ele><time>2026-05-02T10:13:01Z</time></trkpt><trkpt lat="41.75923809647306" lon="13.987893203563322"><ele>992.0</ele><time>2026-05-02T10:13:02Z</time></trkpt><trkpt lat="41.75932170897756" lon="13.987966479465621"><ele>992.0</ele><time>2026-05-02T10:13:03Z</time></trkpt><trkpt lat="41.75938367942417" lon="13.98807749176982"><ele>992.0</ele><time>2026-05-02T10:13:04Z</time></trkpt><trkpt lat="41.759437876640284" lon="13.988193355625402"><ele>992.0</ele><time>2026-05-02T10:13:05Z</time></trkpt><trkpt lat="41.75948749809415" lon="13.988312422863723"><ele>991.6</ele><time>2026-05-02T10:13:06Z</time></trkpt><trkpt lat="41.7595558293868" lon="13.988424541097624"><ele>991.2</ele><time>2026-05-02T10:13:07Z</time></trkpt><trkpt lat="41.75960897810494" lon="13.98856243361425"><ele>990.8</ele><time>2026-05-02T10:13:08Z</time></trkpt><trkpt lat="41.7596623116347" lon="13.988630400286564"><ele>990.4</ele><time>2026-05-02T10:13:09Z</time></trkpt><trkpt lat="41.75971494825037" lon="13.988691618336153"><ele>990.0</ele><time>2026-05-02T10:13:10Z</time></trkpt><trkpt lat="41.759797729387245" lon="13.988744338019952"><ele>990.0</ele><time>2026-05-02T10:13:11Z</time></trkpt><trkpt lat="41.75989465655346" lon="13.988717948376486"><ele>990.0</ele><time>2026-05-02T10:13:12Z</time></trkpt><trkpt lat="41.75998688611184" lon="13.988690106695081"><ele>990.0</ele><time>2026-05-02T10:13:13Z</time></trkpt><trkpt lat="41.76008501595603" lon="13.98866292915553"><ele>990.0</ele><time>2026-05-02T10:13:14Z</time></trkpt><trkpt lat="41.76019292578015" lon="13.98862371559816"><ele>990.0</ele><time>2026-05-02T10:13:15Z</time></trkpt><trkpt lat="41.76028846351572" lon="13.988587650029759"><ele>991.4</ele><time>2026-05-02T10:13:16Z</time></trkpt><trkpt lat="41.76037220850719" lon="13.988539906192315"><ele>992.8</ele><time>2026-05-02T10:13:17Z</time></trkpt><trkpt lat="41.76045579349421" lon="13.988469841503044"><ele>994.2</ele><time>2026-05-02T10:13:18Z</time></trkpt><trkpt lat="41.76053216765714" lon="13.988371360838821"><ele>995.6</ele><time>2026-05-02T10:13:19Z</time></trkpt><trkpt lat="41.760603652936716" lon="13.988269431001951"><ele>997.0</ele><time>2026-05-02T10:13:20Z</time></trkpt><trkpt lat="41.76066699572301" lon="13.988150732397466"><ele>997.0</ele><time>2026-05-02T10:13:21Z</time></trkpt><trkpt lat="41.760732992944334" lon="13.98803042930342"><ele>997.0</ele><time>2026-05-02T10:13:22Z</time></trkpt><trkpt lat="41.76080293701696" lon="13.987910095941821"><ele>997.0</ele><time>2026-05-02T10:13:23Z</time></trkpt><trkpt lat="41.76089828026685" lon="13.987801805466182"><ele>997.0</ele><time>2026-05-02T10:13:24Z</time></trkpt><trkpt lat="41.76099911711164" lon="13.987708826851348"><ele>995.0</ele><time>2026-05-02T10:13:25Z</time></trkpt><trkpt lat="41.76111413935572" lon="13.987616143938887"><ele>993.0</ele><time>2026-05-02T10:13:26Z</time></trkpt><trkpt lat="41.761262896844656" lon="13.987499375692988"><ele>991.0</ele><time>2026-05-02T10:13:27Z</time></trkpt><trkpt lat="41.76142625972709" lon="13.987372040109642"><ele>991.0</ele><time>2026-05-02T10:13:28Z</time></trkpt><trkpt lat="41.76157740992118" lon="13.987216140363316"><ele>991.0</ele><time>2026-05-02T10:13:29Z</time></trkpt><trkpt lat="41.761756355704314" lon="13.98706768800623"><ele>991.0</ele><time>2026-05-02T10:13:30Z</time></trkpt><trkpt lat="41.76195636940015" lon="13.986927247296538"><ele>992.3333333333333</ele><time>2026-05-02T10:13:31Z</time></trkpt><trkpt lat="41.76214680262358" lon="13.986754643017518"><ele>993.6666666666667</ele><time>2026-05-02T10:13:32Z</time></trkpt><trkpt lat="41.76230521214529" lon="13.986566127341131"><ele>995.0</ele><time>2026-05-02T10:13:33Z</time></trkpt><trkpt lat="41.76244473568386" lon="13.986406115833496"><ele>995.0</ele><time>2026-05-02T10:13:34Z</time></trkpt><trkpt lat="41.762555808688404" lon="13.98624502633847"><ele>995.0</ele><time>2026-05-02T10:13:35Z</time></trkpt><trkpt lat="41.762652376171175" lon="13.986075479852786"><ele>995.0</ele><time>2026-05-02T10:13:36Z</time></trkpt><trkpt lat="41.76272194714131" lon="13.985913431874712"><ele>998.0</ele><time>2026-05-02T10:13:37Z</time></trkpt><trkpt lat="41.76275742890144" lon="13.985703812311694"><ele>1001.0</ele><time>2026-05-02T10:13:38Z</time></trkpt><trkpt lat="41.7627677849832" lon="13.985466566452374"><ele>1004.0</ele><time>2026-05-02T10:13:39Z</time></trkpt><trkpt lat="41.76274314223218" lon="13.985196325791179"><ele>1002.6666666666667</ele><time>2026-05-02T10:13:40Z</time></trkpt><trkpt lat="41.76271919421301" lon="13.984939061430971"><ele>1001.3333333333333</ele><time>2026-05-02T10:13:41Z</time></trkpt><trkpt lat="41.76271109499371" lon="13.984718959372639"><ele>1000.0</ele><time>2026-05-02T10:13:42Z</time></trkpt><trkpt lat="41.76270707607651" lon="13.984515014483485"><ele>1000.0</ele><time>2026-05-02T10:13:43Z</time></trkpt><trkpt lat="41.7627236263389" lon="13.984327865850604"><ele>1000.0</ele><time>2026-05-02T10:13:44Z</time></trkpt><trkpt lat="41.762762562539145" lon="13.98414586314171"><ele>1000.0</ele><time>2026-05-02T10:13:45Z</time></trkpt><trkpt lat="41.762802308499126" lon="13.983981728455861"><ele>1000.0</ele><time>2026-05-02T10:13:46Z</time></trkpt><trkpt lat="41.762826945957784" lon="13.983806835021904"><ele>1001.0</ele><time>2026-05-02T10:13:47Z</time></trkpt><trkpt lat="41.76285950455599" lon="13.983627278694657"><ele>1002.0</ele><time>2026-05-02T10:13:48Z</time></trkpt><trkpt lat="41.76287972217205" lon="13.983418041517746"><ele>1003.0</ele><time>2026-05-02T10:13:49Z</time></trkpt><trkpt lat="41.76287654336702" lon="13.983162179262518"><ele>1004.0</ele><time>2026-05-02T10:13:50Z</time></trkpt><trkpt lat="41.76282976103981" lon="13.982874260131563"><ele>1005.0</ele><time>2026-05-02T10:13:51Z</time></trkpt><trkpt lat="41.76281871264885" lon="13.98257393783527"><ele>1006.0</ele><time>2026-05-02T10:13:52Z</time></trkpt><trkpt lat="41.7628364173629" lon="13.98227520672548"><ele>1006.0</ele><time>2026-05-02T10:13:53Z</time></trkpt><trkpt lat="41.76284838511969" lon="13.981980669281374"><ele>1006.0</ele><time>2026-05-02T10:13:54Z</time></trkpt><trkpt lat="41.76285339180971" lon="13.981709519647536"><ele>1006.0</ele><time>2026-05-02T10:13:55Z</time></trkpt><trkpt lat="41.76286042679843" lon="13.981461946020195"><ele>1005.25</ele><time>2026-05-02T10:13:56Z</time></trkpt><trkpt lat="41.76287218988564" lon="13.981247389453332"><ele>1004.5</ele><time>2026-05-02T10:13:57Z</time></trkpt><trkpt lat="41.76287526200096" lon="13.981057873067863"><ele>1003.75</ele><time>2026-05-02T10:13:58Z</time></trkpt><trkpt lat="41.76287453898422" lon="13.980888809341554"><ele>1003.0</ele><time>2026-05-02T10:13:59Z</time></trkpt><trkpt lat="41.76286766052273" lon="13.980723266816423"><ele>1002.75</ele><time>2026-05-02T10:14:00Z</time></trkpt><trkpt lat="41.76289068687473" lon="13.980559654169587"><ele>1002.5</ele><time>2026-05-02T10:14:01Z</time></trkpt><trkpt lat="41.762942206390356" lon="13.98038810702995"><ele>1002.25</ele><time>2026-05-02T10:14:02Z</time></trkpt><trkpt lat="41.76298850175903" lon="13.980209757966092"><ele>1002.0</ele><time>2026-05-02T10:14:03Z</time></trkpt><trkpt lat="41.76303775618274" lon="13.980018881022431"><ele>999.6666666666667</ele><time>2026-05-02T10:14:04Z</time></trkpt><trkpt lat="41.76311094488802" lon="13.979822827492901"><ele>997.3333333333334</ele><time>2026-05-02T10:14:05Z</time></trkpt><trkpt lat="41.76317888950808" lon="13.979590774879131"><ele>995.0</ele><time>2026-05-02T10:14:06Z</time></trkpt><trkpt lat="41.76325483935641" lon="13.979338811822176"><ele>992.3333333333334</ele><time>2026-05-02T10:14:07Z</time></trkpt><trkpt lat="41.76333245846583" lon="13.979084900169111"><ele>989.6666666666667</ele><time>2026-05-02T10:14:08Z</time></trkpt><trkpt lat="41.76341254916213" lon="13.978822903375262"><ele>987.0</ele><time>2026-05-02T10:14:09Z</time></trkpt><trkpt lat="41.76348767068911" lon="13.978574951916139"><ele>990.6666666666667</ele><time>2026-05-02T10:14:10Z</time></trkpt><trkpt lat="41.76355738228783" lon="13.97833815979784"><ele>994.3333333333334</ele><time>2026-05-02T10:14:11Z</time></trkpt><trkpt lat="41.763609425287655" lon="13.978113783473926"><ele>998.0</ele><time>2026-05-02T10:14:12Z</time></trkpt><trkpt lat="41.76367357971041" lon="13.977915370872815"><ele>998.0</ele><time>2026-05-02T10:14:13Z</time></trkpt><trkpt lat="41.76376065604106" lon="13.977738843677837"><ele>998.0</ele><time>2026-05-02T10:14:14Z</time></trkpt><trkpt lat="41.763845911896965" lon="13.97755864426123"><ele>998.0</ele><time>2026-05-02T10:14:15Z</time></trkpt><trkpt lat="41.76393982551511" lon="13.977395978497595"><ele>995.25</ele><time>2026-05-02T10:14:16Z</time></trkpt><trkpt lat="41.76402166625404" lon="13.97724011974984"><ele>992.5</ele><time>2026-05-02T10:14:17Z</time></trkpt><trkpt lat="41.7641218681695" lon="13.977095152453192"><ele>989.75</ele><time>2026-05-02T10:14:18Z</time></trkpt><trkpt lat="41.76421287319866" lon="13.97694366190778"><ele>987.0</ele><time>2026-05-02T10:14:19Z</time></trkpt><trkpt lat="41.76430542871478" lon="13.97681960157488"><ele>990.25</ele><time>2026-05-02T10:14:20Z</time></trkpt><trkpt lat="41.76437822097603" lon="13.97667958141561"><ele>993.5</ele><time>2026-05-02T10:14:21Z</time></trkpt><trkpt lat="41.764441233344165" lon="13.976543469886622"><ele>996.75</ele><time>2026-05-02T10:14:22Z</time></trkpt><trkpt lat="41.764502250839286" lon="13.976407032023296"><ele>1000.0</ele><time>2026-05-02T10:14:23Z</time></trkpt><trkpt lat="41.76453655425239" lon="13.976259781591311"><ele>1000.0</ele><time>2026-05-02T10:14:24Z</time></trkpt><trkpt lat="41.76454112901467" lon="13.976109188376165"><ele>1000.0</ele><time>2026-05-02T10:14:25Z</time></trkpt><trkpt lat="41.76456425027411" lon="13.975955632254907"><ele>1000.0</ele><time>2026-05-02T10:14:26Z</time></trkpt><trkpt lat="41.76453585465698" lon="13.975803495389995"><ele>1000.0</ele><time>2026-05-02T10:14:27Z</time></trkpt><trkpt lat="41.76451919855191" lon="13.97565407705547"><ele>1000.0</ele><time>2026-05-02T10:14:28Z</time></trkpt><trkpt lat="41.76450191813157" lon="13.975488072090505"><ele>1000.0</ele><time>2026-05-02T10:14:29Z</time></trkpt><trkpt lat="41.764463607247635" lon="13.975301442121223"><ele>1000.0</ele><time>2026-05-02T10:14:30Z</time></trkpt><trkpt lat="41.76443972571709" lon="13.97507729232747"><ele>1000.0</ele><time>2026-05-02T10:14:31Z</time></trkpt><trkpt lat="41.76440102367373" lon="13.97483486954924"><ele>1002.0</ele><time>2026-05-02T10:14:32Z</time></trkpt><trkpt lat="41.76436601677351" lon="13.974598720727066"><ele>1004.0</ele><time>2026-05-02T10:14:33Z</time></trkpt><trkpt lat="41.764330994735694" lon="13.974385682862792"><ele>1006.0</ele><time>2026-05-02T10:14:34Z</time></trkpt><trkpt lat="41.76430673037305" lon="13.9742033944278"><ele>1002.4999999999999</ele><time>2026-05-02T10:14:35Z</time></trkpt><trkpt lat="41.7642801727599" lon="13.974055027662084"><ele>999.0</ele><time>2026-05-02T10:14:36Z</time></trkpt><trkpt lat="41.76426267949151" lon="13.973937367364154"><ele>995.5</ele><time>2026-05-02T10:14:37Z</time></trkpt><trkpt lat="41.7642485385624" lon="13.973849293156563"><ele>992.0</ele><time>2026-05-02T10:14:38Z</time></trkpt><trkpt lat="41.76423813662205" lon="13.973764358119393"><ele>988.4999999999999</ele><time>2026-05-02T10:14:39Z</time></trkpt><trkpt lat="41.764232223215004" lon="13.97367810577737"><ele>985.0</ele><time>2026-05-02T10:14:40Z</time></trkpt><trkpt lat="41.76422686166207" lon="13.9735883799981"><ele>984.9999999999999</ele><time>2026-05-02T10:14:41Z</time></trkpt><trkpt lat="41.764224214194215" lon="13.973493437254998"><ele>985.0</ele><time>2026-05-02T10:14:42Z</time></trkpt><trkpt lat="41.764222424410534" lon="13.973390094448572"><ele>985.0</ele><time>2026-05-02T10:14:43Z</time></trkpt><trkpt lat="41.76422536182692" lon="13.973276672123445"><ele>985.0</ele><time>2026-05-02T10:14:44Z</time></trkpt><trkpt lat="41.76423771665993" lon="13.973156721346859"><ele>984.9999999999999</ele><time>2026-05-02T10:14:45Z</time></trkpt><trkpt lat="41.764260206728174" lon="13.973027522374656"><ele>985.0</ele><time>2026-05-02T10:14:46Z</time></trkpt><trkpt lat="41.76429423953397" lon="13.972892778331484"><ele>985.25</ele><time>2026-05-02T10:14:47Z</time></trkpt><trkpt lat="41.76433493465808" lon="13.97275647094403"><ele>985.5</ele><time>2026-05-02T10:14:48Z</time></trkpt><trkpt lat="41.764394057860876" lon="13.972615361452313"><ele>985.75</ele><time>2026-05-02T10:14:49Z</time></trkpt><trkpt lat="41.7644517873382" lon="13.97244785465569"><ele>986.0</ele><time>2026-05-02T10:14:50Z</time></trkpt><trkpt lat="41.76453596573372" lon="13.97228346381423"><ele>989.3333333333334</ele><time>2026-05-02T10:14:51Z</time></trkpt><trkpt lat="41.76461128485314" lon="13.97210045184336"><ele>992.6666666666667</ele><time>2026-05-02T10:14:52Z</time></trkpt><trkpt lat="41.76469004002329" lon="13.971909164644853"><ele>996.0</ele><time>2026-05-02T10:14:53Z</time></trkpt><trkpt lat="41.76475921406174" lon="13.971745799791027"><ele>995.4</ele><time>2026-05-02T10:14:54Z</time></trkpt><trkpt lat="41.764824924954084" lon="13.97160658547519"><ele>994.8</ele><time>2026-05-02T10:14:55Z</time></trkpt><trkpt lat="41.76487619676862" lon="13.971505408391968"><ele>994.1999999999999</ele><time>2026-05-02T10:14:56Z</time></trkpt><trkpt lat="41.764927356155845" lon="13.97137422608398"><ele>993.5999999999999</ele><time>2026-05-02T10:14:57Z</time></trkpt><trkpt lat="41.764972091667715" lon="13.971222149682742"><ele>993.0</ele><time>2026-05-02T10:14:58Z</time></trkpt><trkpt lat="41.765023055008264" lon="13.971067589746154"><ele>993.0</ele><time>2026-05-02T10:14:59Z</time></trkpt><trkpt lat="41.76506637028986" lon="13.970880375413367"><ele>993.0</ele><time>2026-05-02T10:15:00Z</time></trkpt><trkpt lat="41.765147797211924" lon="13.970653761293404"><ele>993.0</ele><time>2026-05-02T10:15:01Z</time></trkpt><trkpt lat="41.76522109436686" lon="13.970401161355593"><ele>996.3333333333333</ele><time>2026-05-02T10:15:02Z</time></trkpt><trkpt lat="41.765287610915536" lon="13.970128329569919"><ele>999.6666666666666</ele><time>2026-05-02T10:15:03Z</time></trkpt><trkpt lat="41.765367678104305" lon="13.969855904959081"><ele>1003.0</ele><time>2026-05-02T10:15:04Z</time></trkpt><trkpt lat="41.765457415491646" lon="13.969572098293138"><ele>1003.0</ele><time>2026-05-02T10:15:05Z</time></trkpt><trkpt lat="41.76553447103387" lon="13.969255962025638"><ele>1003.0</ele><time>2026-05-02T10:15:06Z</time></trkpt><trkpt lat="41.76557633026189" lon="13.968931489615148"><ele>1000.5</ele><time>2026-05-02T10:15:07Z</time></trkpt><trkpt lat="41.7656281901339" lon="13.968611174075019"><ele>998.0</ele><time>2026-05-02T10:15:08Z</time></trkpt><trkpt lat="41.76569015968356" lon="13.968293330760485"><ele>994.5</ele><time>2026-05-02T10:15:09Z</time></trkpt><trkpt lat="41.76573940342287" lon="13.967952123830374"><ele>991.0</ele><time>2026-05-02T10:15:10Z</time></trkpt><trkpt lat="41.765795278818366" lon="13.967617725141045"><ele>989.5</ele><time>2026-05-02T10:15:11Z</time></trkpt><trkpt lat="41.76586224144584" lon="13.967287039997096"><ele>988.0</ele><time>2026-05-02T10:15:12Z</time></trkpt><trkpt lat="41.76589787843094" lon="13.96696109989567"><ele>986.0</ele><time>2026-05-02T10:15:13Z</time></trkpt><trkpt lat="41.76596154728862" lon="13.966640425047098"><ele>984.0</ele><time>2026-05-02T10:15:14Z</time></trkpt><trkpt lat="41.76601428676866" lon="13.966324269877422"><ele>994.0</ele><time>2026-05-02T10:15:15Z</time></trkpt><trkpt lat="41.766059279893184" lon="13.966000401150799"><ele>1004.0</ele><time>2026-05-02T10:15:16Z</time></trkpt><trkpt lat="41.7661145597073" lon="13.9656640283857"><ele>1004.0</ele><time>2026-05-02T10:15:17Z</time></trkpt><trkpt lat="41.76616619356712" lon="13.965359345593376"><ele>1004.0</ele><time>2026-05-02T10:15:18Z</time></trkpt><trkpt lat="41.766233168819824" lon="13.965063503535474"><ele>1002.0</ele><time>2026-05-02T10:15:19Z</time></trkpt><trkpt lat="41.76630577913007" lon="13.96477986095518"><ele>1000.0</ele><time>2026-05-02T10:15:20Z</time></trkpt><trkpt lat="41.76642268349271" lon="13.96450839524888"><ele>1000.0</ele><time>2026-05-02T10:15:21Z</time></trkpt><trkpt lat="41.76653805354739" lon="13.964229287735376"><ele>1000.0</ele><time>2026-05-02T10:15:22Z</time></trkpt><trkpt lat="41.766654816850505" lon="13.963951724963053"><ele>1005.5</ele><time>2026-05-02T10:15:23Z</time></trkpt><trkpt lat="41.76677799834936" lon="13.963658905168312"><ele>1011.0</ele><time>2026-05-02T10:15:24Z</time></trkpt><trkpt lat="41.76689841178871" lon="13.963373211612206"><ele>1004.0</ele><time>2026-05-02T10:15:25Z</time></trkpt><trkpt lat="41.76700891386718" lon="13.963075207633246"><ele>997.0</ele><time>2026-05-02T10:15:26Z</time></trkpt><trkpt lat="41.76712491180762" lon="13.962794568245409"><ele>992.5</ele><time>2026-05-02T10:15:27Z</time></trkpt><trkpt lat="41.76724295528352" lon="13.962513775228421"><ele>988.0</ele><time>2026-05-02T10:15:28Z</time></trkpt><trkpt lat="41.767362172917046" lon="13.96223646706707"><ele>988.0</ele><time>2026-05-02T10:15:29Z</time></trkpt><trkpt lat="41.7674914603934" lon="13.96195622299459"><ele>988.0</ele><time>2026-05-02T10:15:30Z</time></trkpt><trkpt lat="41.767618238623236" lon="13.961674663115879"><ele>993.0</ele><time>2026-05-02T10:15:31Z</time></trkpt><trkpt lat="41.767742726912466" lon="13.961389348044447"><ele>998.0</ele><time>2026-05-02T10:15:32Z</time></trkpt><trkpt lat="41.76786438647187" lon="13.961093629963912"><ele>994.0</ele><time>2026-05-02T10:15:33Z</time></trkpt><trkpt lat="41.76798593583511" lon="13.960803024022113"><ele>990.0</ele><time>2026-05-02T10:15:34Z</time></trkpt><trkpt lat="41.76810895431561" lon="13.960508788376693"><ele>990.0</ele><time>2026-05-02T10:15:35Z</time></trkpt><trkpt lat="41.768235038000924" lon="13.960217531828171"><ele>990.0</ele><time>2026-05-02T10:15:36Z</time></trkpt><trkpt lat="41.76836275835489" lon="13.95992192372786"><ele>985.5</ele><time>2026-05-02T10:15:37Z</time></trkpt><trkpt lat="41.768487501579976" lon="13.95962623791171"><ele>981.0</ele><time>2026-05-02T10:15:38Z</time></trkpt><trkpt lat="41.76861522289189" lon="13.959332096125841"><ele>987.5</ele><time>2026-05-02T10:15:39Z</time></trkpt><trkpt lat="41.7687395040467" lon="13.959039808040597"><ele>994.0</ele><time>2026-05-02T10:15:40Z</time></trkpt><trkpt lat="41.76886010855437" lon="13.958760510262815"><ele>994.0</ele><time>2026-05-02T10:15:41Z</time></trkpt><trkpt lat="41.768968152943025" lon="13.958493190266106"><ele>994.0</ele><time>2026-05-02T10:15:42Z</time></trkpt><trkpt lat="41.769068681509715" lon="13.958234061422063"><ele>994.0</ele><time>2026-05-02T10:15:43Z</time></trkpt><trkpt lat="41.76915803336005" lon="13.957956762233477"><ele>991.0</ele><time>2026-05-02T10:15:44Z</time></trkpt><trkpt lat="41.76921763595616" lon="13.957657290060677"><ele>988.0</ele><time>2026-05-02T10:15:45Z</time></trkpt><trkpt lat="41.76928554833836" lon="13.957363122825527"><ele>987.0</ele><time>2026-05-02T10:15:46Z</time></trkpt><trkpt lat="41.76933991510156" lon="13.957064276718782"><ele>986.0</ele><time>2026-05-02T10:15:47Z</time></trkpt><trkpt lat="41.769386324673974" lon="13.956781580778003"><ele>985.0</ele><time>2026-05-02T10:15:48Z</time></trkpt><trkpt lat="41.76931041378905" lon="13.956497037223645"><ele>985.0</ele><time>2026-05-02T10:15:49Z</time></trkpt><trkpt lat="41.769323211602874" lon="13.95624044044234"><ele>985.0</ele><time>2026-05-02T10:15:50Z</time></trkpt><trkpt lat="41.76933765070632" lon="13.955990395653625"><ele>985.0</ele><time>2026-05-02T10:15:51Z</time></trkpt><trkpt lat="41.76936067161391" lon="13.955739245493756"><ele>992.0</ele><time>2026-05-02T10:15:52Z</time></trkpt><trkpt lat="41.76939927262461" lon="13.95548727286472"><ele>999.0</ele><time>2026-05-02T10:15:53Z</time></trkpt><trkpt lat="41.769450316565205" lon="13.955256391634556"><ele>1006.0</ele><time>2026-05-02T10:15:54Z</time></trkpt><trkpt lat="41.76952298544425" lon="13.955041958688454"><ele>1001.6666666666666</ele><time>2026-05-02T10:15:55Z</time></trkpt><trkpt lat="41.76962438684478" lon="13.954840029274273"><ele>997.3333333333333</ele><time>2026-05-02T10:15:56Z</time></trkpt><trkpt lat="41.76978401154016" lon="13.95462867702511"><ele>993.0</ele><time>2026-05-02T10:15:57Z</time></trkpt><trkpt lat="41.76995682492584" lon="13.954435449817387"><ele>993.0</ele><time>2026-05-02T10:15:58Z</time></trkpt><trkpt lat="41.770122345277336" lon="13.954262811455173"><ele>993.0</ele><time>2026-05-02T10:15:59Z</time></trkpt><trkpt lat="41.77028864756808" lon="13.954119738262765"><ele>993.0</ele><time>2026-05-02T10:16:00Z</time></trkpt><trkpt lat="41.77046789167064" lon="13.95401088954964"><ele>992.3333333333333</ele><time>2026-05-02T10:16:01Z</time></trkpt><trkpt lat="41.77066244858315" lon="13.95393112088189"><ele>991.6666666666666</ele><time>2026-05-02T10:16:02Z</time></trkpt><trkpt lat="41.77084592735697" lon="13.953866234209537"><ele>991.0</ele><time>2026-05-02T10:16:03Z</time></trkpt><trkpt lat="41.77100025808522" lon="13.953804371416268"><ele>994.6666666666666</ele><time>2026-05-02T10:16:04Z</time></trkpt><trkpt lat="41.77114110833828" lon="13.9537308018437"><ele>998.3333333333333</ele><time>2026-05-02T10:16:05Z</time></trkpt><trkpt lat="41.771264365140524" lon="13.953611414882927"><ele>1002.0</ele><time>2026-05-02T10:16:06Z</time></trkpt><trkpt lat="41.771367148681215" lon="13.953413703866982"><ele>998.0</ele><time>2026-05-02T10:16:07Z</time></trkpt><trkpt lat="41.77143956081834" lon="13.953154524768433"><ele>994.0</ele><time>2026-05-02T10:16:08Z</time></trkpt><trkpt lat="41.77151759942468" lon="13.952879889307393"><ele>990.0</ele><time>2026-05-02T10:16:09Z</time></trkpt><trkpt lat="41.77161096939506" lon="13.952615910408873"><ele>987.6666666666667</ele><time>2026-05-02T10:16:10Z</time></trkpt><trkpt lat="41.771690820657554" lon="13.952334758158466"><ele>985.3333333333334</ele><time>2026-05-02T10:16:11Z</time></trkpt><trkpt lat="41.77176906310956" lon="13.952062193512768"><ele>983.0</ele><time>2026-05-02T10:16:12Z</time></trkpt><trkpt lat="41.7718570156328" lon="13.951821485171225"><ele>987.3333333333334</ele><time>2026-05-02T10:16:13Z</time></trkpt><trkpt lat="41.771937692618565" lon="13.951589649178725"><ele>991.6666666666667</ele><time>2026-05-02T10:16:14Z</time></trkpt><trkpt lat="41.77204960274816" lon="13.951366282856974"><ele>996.0</ele><time>2026-05-02T10:16:15Z</time></trkpt><trkpt lat="41.77217540606084" lon="13.951161325030466"><ele>996.0</ele><time>2026-05-02T10:16:16Z</time></trkpt><trkpt lat="41.77232020185166" lon="13.95092549722107"><ele>996.0</ele><time>2026-05-02T10:16:17Z</time></trkpt><trkpt lat="41.77247214156127" lon="13.950682322006198"><ele>996.5</ele><time>2026-05-02T10:16:18Z</time></trkpt><trkpt lat="41.77262039803813" lon="13.950451820272459"><ele>997.0</ele><time>2026-05-02T10:16:19Z</time></trkpt><trkpt lat="41.772776982382894" lon="13.950213158297592"><ele>992.0</ele><time>2026-05-02T10:16:20Z</time></trkpt><trkpt lat="41.772922787833124" lon="13.949972125137029"><ele>987.0</ele><time>2026-05-02T10:16:21Z</time></trkpt><trkpt lat="41.77306995640751" lon="13.949736205570803"><ele>987.0</ele><time>2026-05-02T10:16:22Z</time></trkpt><trkpt lat="41.77321222395023" lon="13.949506925922577"><ele>987.0</ele><time>2026-05-02T10:16:23Z</time></trkpt><trkpt lat="41.77334699212993" lon="13.949285043904851"><ele>987.0</ele><time>2026-05-02T10:16:24Z</time></trkpt><trkpt lat="41.77347439191898" lon="13.949077554906866"><ele>986.3333333333333</ele><time>2026-05-02T10:16:25Z</time></trkpt><trkpt lat="41.77359692335057" lon="13.948872071338336"><ele>985.6666666666666</ele><time>2026-05-02T10:16:26Z</time></trkpt><trkpt lat="41.77368635855332" lon="13.948633352280721"><ele>985.0</ele><time>2026-05-02T10:16:27Z</time></trkpt><trkpt lat="41.773737344066" lon="13.948351083136567"><ele>985.0</ele><time>2026-05-02T10:16:28Z</time></trkpt><trkpt lat="41.77375677649832" lon="13.948060435977137"><ele>985.0</ele><time>2026-05-02T10:16:29Z</time></trkpt><trkpt lat="41.77377606213112" lon="13.947787694319345"><ele>985.0</ele><time>2026-05-02T10:16:30Z</time></trkpt><trkpt lat="41.77379729194834" lon="13.947529429133427"><ele>984.6666666666666</ele><time>2026-05-02T10:16:31Z</time></trkpt><trkpt lat="41.773817019693844" lon="13.947284315937086"><ele>984.3333333333333</ele><time>2026-05-02T10:16:32Z</time></trkpt><trkpt lat="41.77383267359755" lon="13.947059620307877"><ele>984.0</ele><time>2026-05-02T10:16:33Z</time></trkpt><trkpt lat="41.773849163924936" lon="13.946850183868701"><ele>983.75</ele><time>2026-05-02T10:16:34Z</time></trkpt><trkpt lat="41.773863236117705" lon="13.94665121132191"><ele>983.5</ele><time>2026-05-02T10:16:35Z</time></trkpt><trkpt lat="41.773875567056045" lon="13.946460002661212"><ele>983.25</ele><time>2026-05-02T10:16:36Z</time></trkpt><trkpt lat="41.77389038408405" lon="13.946286971842527"><ele>983.0</ele><time>2026-05-02T10:16:37Z</time></trkpt><trkpt lat="41.77390225970434" lon="13.946113247841966"><ele>983.0</ele><time>2026-05-02T10:16:38Z</time></trkpt><trkpt lat="41.77391492655308" lon="13.94594214538042"><ele>983.0</ele><time>2026-05-02T10:16:39Z</time></trkpt><trkpt lat="41.77392247432978" lon="13.945786247794182"><ele>983.0</ele><time>2026-05-02T10:16:40Z</time></trkpt><trkpt lat="41.77392797133594" lon="13.945634674499736"><ele>983.0</ele><time>2026-05-02T10:16:41Z</time></trkpt><trkpt lat="41.7739372981729" lon="13.945506513630857"><ele>982.75</ele><time>2026-05-02T10:16:42Z</time></trkpt><trkpt lat="41.77395387008813" lon="13.94537165757639"><ele>982.5</ele><time>2026-05-02T10:16:43Z</time></trkpt><trkpt lat="41.773970945264054" lon="13.945211690980985"><ele>982.25</ele><time>2026-05-02T10:16:44Z</time></trkpt><trkpt lat="41.77398744124593" lon="13.945062561816068"><ele>982.0</ele><time>2026-05-02T10:16:45Z</time></trkpt><trkpt lat="41.77400754704873" lon="13.944904094147255"><ele>982.0</ele><time>2026-05-02T10:16:46Z</time></trkpt><trkpt lat="41.77404909186069" lon="13.944728226970046"><ele>982.0</ele><time>2026-05-02T10:16:47Z</time></trkpt><trkpt lat="41.774109504612454" lon="13.94454086091581"><ele>982.0</ele><time>2026-05-02T10:16:48Z</time></trkpt><trkpt lat="41.77418268846148" lon="13.944350936424465"><ele>982.0</ele><time>2026-05-02T10:16:49Z</time></trkpt><trkpt lat="41.774273735645586" lon="13.944141855390606"><ele>982.6666666666666</ele><time>2026-05-02T10:16:50Z</time></trkpt><trkpt lat="41.7743663684946" lon="13.943920843237636"><ele>983.3333333333333</ele><time>2026-05-02T10:16:51Z</time></trkpt><trkpt lat="41.77445566757792" lon="13.943688262635522"><ele>984.0</ele><time>2026-05-02T10:16:52Z</time></trkpt><trkpt lat="41.77454470199938" lon="13.943458884124505"><ele>984.0</ele><time>2026-05-02T10:16:53Z</time></trkpt><trkpt lat="41.77463766530759" lon="13.943235465629186"><ele>984.0</ele><time>2026-05-02T10:16:54Z</time></trkpt><trkpt lat="41.77472323218228" lon="13.943029747986186"><ele>984.0</ele><time>2026-05-02T10:16:55Z</time></trkpt><trkpt lat="41.77480283315845" lon="13.94284121700207"><ele>984.0</ele><time>2026-05-02T10:16:56Z</time></trkpt><trkpt lat="41.77487468710958" lon="13.942665151146555"><ele>984.0</ele><time>2026-05-02T10:16:57Z</time></trkpt><trkpt lat="41.774945087423575" lon="13.942499255956761"><ele>984.0</ele><time>2026-05-02T10:16:58Z</time></trkpt><trkpt lat="41.77500818270025" lon="13.942336002558067"><ele>984.0</ele><time>2026-05-02T10:16:59Z</time></trkpt><trkpt lat="41.77507786212109" lon="13.94216609048899"><ele>984.3333333333333</ele><time>2026-05-02T10:17:00Z</time></trkpt><trkpt lat="41.77514986196627" lon="13.941993073378702"><ele>984.6666666666666</ele><time>2026-05-02T10:17:01Z</time></trkpt><trkpt lat="41.77522265652825" lon="13.941816880430304"><ele>985.0</ele><time>2026-05-02T10:17:02Z</time></trkpt><trkpt lat="41.77529762869852" lon="13.941635928073662"><ele>985.0</ele><time>2026-05-02T10:17:03Z</time></trkpt><trkpt lat="41.775371997071545" lon="13.941451456057955"><ele>985.0</ele><time>2026-05-02T10:17:04Z</time></trkpt><trkpt lat="41.775450648581675" lon="13.94126424536486"><ele>985.0</ele><time>2026-05-02T10:17:05Z</time></trkpt><trkpt lat="41.77552358709191" lon="13.941075148821563"><ele>985.0</ele><time>2026-05-02T10:17:06Z</time></trkpt><trkpt lat="41.77559525696034" lon="13.940896235984209"><ele>985.0</ele><time>2026-05-02T10:17:07Z</time></trkpt><trkpt lat="41.775662315494934" lon="13.940731142023372"><ele>985.0</ele><time>2026-05-02T10:17:08Z</time></trkpt><trkpt lat="41.77572765312456" lon="13.940576436337563"><ele>985.0</ele><time>2026-05-02T10:17:09Z</time></trkpt><trkpt lat="41.77578550354452" lon="13.940422399444984"><ele>984.75</ele><time>2026-05-02T10:17:10Z</time></trkpt><trkpt lat="41.77584475017981" lon="13.940263821489133"><ele>984.5</ele><time>2026-05-02T10:17:11Z</time></trkpt><trkpt lat="41.77590358204065" lon="13.940110121274484"><ele>984.25</ele><time>2026-05-02T10:17:12Z</time></trkpt><trkpt lat="41.77596515391266" lon="13.939951935221695"><ele>984.0</ele><time>2026-05-02T10:17:13Z</time></trkpt><trkpt lat="41.7760313083639" lon="13.939794910909548"><ele>985.0</ele><time>2026-05-02T10:17:14Z</time></trkpt><trkpt lat="41.7761041968457" lon="13.939641347742375"><ele>986.0</ele><time>2026-05-02T10:17:15Z</time></trkpt><trkpt lat="41.77617177827808" lon="13.939494452913191"><ele>987.0</ele><time>2026-05-02T10:17:16Z</time></trkpt><trkpt lat="41.77622981032221" lon="13.939365411081"><ele>988.0</ele><time>2026-05-02T10:17:17Z</time></trkpt><trkpt lat="41.77627004525211" lon="13.939252463041646"><ele>987.8</ele><time>2026-05-02T10:17:18Z</time></trkpt><trkpt lat="41.776313107418254" lon="13.939137995162843"><ele>987.5999999999999</ele><time>2026-05-02T10:17:19Z</time></trkpt><trkpt lat="41.77635973018193" lon="13.939022187225882"><ele>987.4000000000001</ele><time>2026-05-02T10:17:20Z</time></trkpt><trkpt lat="41.77640625108311" lon="13.938905506445163"><ele>987.2</ele><time>2026-05-02T10:17:21Z</time></trkpt><trkpt lat="41.776451682522264" lon="13.938805845392109"><ele>987.0</ele><time>2026-05-02T10:17:22Z</time></trkpt><trkpt lat="41.77649246059688" lon="13.9387095205694"><ele>987.0</ele><time>2026-05-02T10:17:23Z</time></trkpt><trkpt lat="41.77652905956064" lon="13.938625540705882"><ele>987.0</ele><time>2026-05-02T10:17:24Z</time></trkpt><trkpt lat="41.77654845051018" lon="13.938537889060694"><ele>987.0</ele><time>2026-05-02T10:17:25Z</time></trkpt><trkpt lat="41.77656144937307" lon="13.938449600075097"><ele>987.0</ele><time>2026-05-02T10:17:26Z</time></trkpt><trkpt lat="41.7765497766452" lon="13.938360618163314"><ele>987.0</ele><time>2026-05-02T10:17:27Z</time></trkpt><trkpt lat="41.77651043971479" lon="13.938196366780312"><ele>987.0</ele><time>2026-05-02T10:17:29Z</time></trkpt><trkpt lat="41.77648495675611" lon="13.938102277832154"><ele>987.1666666666666</ele><time>2026-05-02T10:17:30Z</time></trkpt><trkpt lat="41.77645581396967" lon="13.93800058918508"><ele>987.3333333333333</ele><time>2026-05-02T10:17:31Z</time></trkpt><trkpt lat="41.77642164125904" lon="13.937900267910928"><ele>987.5</ele><time>2026-05-02T10:17:32Z</time></trkpt><trkpt lat="41.776390557428364" lon="13.937811010853649"><ele>987.6666666666666</ele><time>2026-05-02T10:17:33Z</time></trkpt><trkpt lat="41.776380921165725" lon="13.937701338708326"><ele>987.8333333333333</ele><time>2026-05-02T10:17:34Z</time></trkpt><trkpt lat="41.776351816028566" lon="13.937615616517517"><ele>988.0</ele><time>2026-05-02T10:17:35Z</time></trkpt><trkpt lat="41.77632210528865" lon="13.937520727442024"><ele>988.4999999999999</ele><time>2026-05-02T10:17:36Z</time></trkpt><trkpt lat="41.77628647940597" lon="13.937429753640057"><ele>989.0</ele><time>2026-05-02T10:17:37Z</time></trkpt><trkpt lat="41.776254245840015" lon="13.937334634251604"><ele>989.5</ele><time>2026-05-02T10:17:38Z</time></trkpt><trkpt lat="41.77622579298674" lon="13.937236951474176"><ele>990.0</ele><time>2026-05-02T10:17:39Z</time></trkpt><trkpt lat="41.776209021165876" lon="13.937144327974403"><ele>990.4999999999999</ele><time>2026-05-02T10:17:40Z</time></trkpt><trkpt lat="41.776162714520964" lon="13.936996047841497"><ele>991.0</ele><time>2026-05-02T10:17:42Z</time></trkpt><trkpt lat="41.776127574026916" lon="13.936849852140158"><ele>990.9999999999999</ele><time>2026-05-02T10:17:44Z</time></trkpt><trkpt lat="41.77610914274158" lon="13.936727200031456"><ele>991.0</ele><time>2026-05-02T10:17:46Z</time></trkpt><trkpt lat="41.77610523132716" lon="13.936628920337897"><ele>991.0</ele><time>2026-05-02T10:17:48Z</time></trkpt><trkpt lat="41.776081345284716" lon="13.936510429084823"><ele>991.0</ele><time>2026-05-02T10:17:51Z</time></trkpt><trkpt lat="41.77604533766256" lon="13.936413652831172"><ele>990.9999999999999</ele><time>2026-05-02T10:17:55Z</time></trkpt><trkpt lat="41.77602436259023" lon="13.936330957909968"><ele>991.0</ele><time>2026-05-02T10:17:58Z</time></trkpt><trkpt lat="41.775988112655355" lon="13.93623688658094"><ele>990.4</ele><time>2026-05-02T10:18:01Z</time></trkpt><trkpt lat="41.7759646140419" lon="13.936146027410203"><ele>989.8</ele><time>2026-05-02T10:18:06Z</time></trkpt><trkpt lat="41.77594092809254" lon="13.93604304398004"><ele>989.1999999999999</ele><time>2026-05-02T10:18:10Z</time></trkpt><trkpt lat="41.77591542570663" lon="13.935943988769068"><ele>988.5999999999999</ele><time>2026-05-02T10:18:13Z</time></trkpt><trkpt lat="41.775877449924835" lon="13.935769961700984"><ele>988.0</ele><time>2026-05-02T10:18:17Z</time></trkpt><trkpt lat="41.77584509826867" lon="13.935653173320125"><ele>988.0</ele><time>2026-05-02T10:18:19Z</time></trkpt><trkpt lat="41.775817183701854" lon="13.935539048936693"><ele>988.0</ele><time>2026-05-02T10:18:21Z</time></trkpt><trkpt lat="41.7757885280286" lon="13.935374436575783"><ele>988.0</ele><time>2026-05-02T10:18:23Z</time></trkpt><trkpt lat="41.77576343733318" lon="13.935293161999939"><ele>988.0</ele><time>2026-05-02T10:18:24Z</time></trkpt><trkpt lat="41.77573793051665" lon="13.93516150252694"><ele>988.0</ele><time>2026-05-02T10:18:26Z</time></trkpt><trkpt lat="41.775708977669815" lon="13.935020140004955"><ele>988.5999999999999</ele><time>2026-05-02T10:18:28Z</time></trkpt><trkpt lat="41.77568492205041" lon="13.934888574181826"><ele>989.1999999999999</ele><time>2026-05-02T10:18:30Z</time></trkpt><trkpt lat="41.77567610025867" lon="13.934758701421233"><ele>989.8</ele><time>2026-05-02T10:18:32Z</time></trkpt><trkpt lat="41.775674230591186" lon="13.934636634053318"><ele>990.4</ele><time>2026-05-02T10:18:34Z</time></trkpt><trkpt lat="41.775674650633846" lon="13.93447128368919"><ele>991.0</ele><time>2026-05-02T10:18:36Z</time></trkpt><trkpt lat="41.77569254343195" lon="13.934295381762828"><ele>991.1666666666666</ele><time>2026-05-02T10:18:38Z</time></trkpt><trkpt lat="41.77570335469014" lon="13.934196108130235"><ele>991.3333333333333</ele><time>2026-05-02T10:18:39Z</time></trkpt><trkpt lat="41.77571165411801" lon="13.934090248439686"><ele>991.5</ele><time>2026-05-02T10:18:40Z</time></trkpt><trkpt lat="41.775757337597994" lon="13.933980054243227"><ele>991.6666666666667</ele><time>2026-05-02T10:18:41Z</time></trkpt><trkpt lat="41.775765987875616" lon="13.933867218104657"><ele>991.8333333333334</ele><time>2026-05-02T10:18:42Z</time></trkpt><trkpt lat="41.77575150476514" lon="13.933780271967935"><ele>992.0</ele><time>2026-05-02T10:18:43Z</time></trkpt><trkpt lat="41.77575147877893" lon="13.933630845730676"><ele>992.0000000000001</ele><time>2026-05-02T10:18:45Z</time></trkpt><trkpt lat="41.7757751650957" lon="13.933508211889226"><ele>992.0</ele><time>2026-05-02T10:18:47Z</time></trkpt><trkpt lat="41.77579020850426" lon="13.933412009094278"><ele>992.0</ele><time>2026-05-02T10:18:49Z</time></trkpt><trkpt lat="41.775816420436456" lon="13.933307946385654"><ele>992.0</ele><time>2026-05-02T10:18:51Z</time></trkpt><trkpt lat="41.775838733508635" lon="13.933214297160777"><ele>992.0000000000001</ele><time>2026-05-02T10:18:53Z</time></trkpt><trkpt lat="41.77586387365995" lon="13.933122522178564"><ele>992.0</ele><time>2026-05-02T10:18:56Z</time></trkpt><trkpt lat="41.77588102241244" lon="13.933207704644975"><ele>992.0</ele><time>2026-05-02T10:20:17Z</time></trkpt><trkpt lat="41.77587596285559" lon="13.933292936753231"><ele>992.0000000000001</ele><time>2026-05-02T10:20:22Z</time></trkpt><trkpt lat="41.775852794043644" lon="13.933373263098954"><ele>992.0</ele><time>2026-05-02T10:20:28Z</time></trkpt><trkpt lat="41.77583743565841" lon="13.933458669080391"><ele>992.0</ele><time>2026-05-02T10:20:35Z</time></trkpt><trkpt lat="41.775789952644125" lon="13.933519397328626"><ele>992.0000000000001</ele><time>2026-05-02T10:20:41Z</time></trkpt><trkpt lat="41.77569680452994" lon="13.933517256543873"><ele>992.0</ele><time>2026-05-02T10:20:45Z</time></trkpt><trkpt lat="41.7756772155735" lon="13.933615430610546"><ele>992.0</ele><time>2026-05-02T10:20:54Z</time></trkpt><trkpt lat="41.77569876681738" lon="13.933716121075605"><ele>992.0</ele><time>2026-05-02T10:21:00Z</time></trkpt><trkpt lat="41.775730078781976" lon="13.933807250218912"><ele>992.0000000000001</ele><time>2026-05-02T10:21:05Z</time></trkpt><trkpt lat="41.77576618301967" lon="13.93388161267465"><ele>992.0</ele><time>2026-05-02T10:21:10Z</time></trkpt><trkpt lat="41.77574520916931" lon="13.933973781093094"><ele>992.0</ele><time>2026-05-02T10:21:17Z</time></trkpt><trkpt lat="41.77571632536729" lon="13.934053608856107"><ele>992.0000000000001</ele><time>2026-05-02T10:21:22Z</time></trkpt><trkpt lat="41.77573711970562" lon="13.934146390657904"><ele>992.0</ele><time>2026-05-02T10:21:30Z</time></trkpt><trkpt lat="41.77576034846353" lon="13.934229679948695"><ele>992.0</ele><time>2026-05-02T10:21:35Z</time></trkpt><trkpt lat="41.77574067070567" lon="13.934321995100879"><ele>991.8571428571429</ele><time>2026-05-02T10:21:41Z</time></trkpt><trkpt lat="41.77571002282237" lon="13.934405856413747"><ele>991.7142857142858</ele><time>2026-05-02T10:21:46Z</time></trkpt><trkpt lat="41.77568499304786" lon="13.934485268164304"><ele>991.5714285714287</ele><time>2026-05-02T10:22:11Z</time></trkpt><trkpt lat="41.77566287018836" lon="13.934567097145848"><ele>991.4285714285716</ele><time>2026-05-02T10:22:19Z</time></trkpt><trkpt lat="41.775636249464384" lon="13.934644474839144"><ele>991.2857142857143</ele><time>2026-05-02T10:22:25Z</time></trkpt><trkpt lat="41.77566062303936" lon="13.93472442269166"><ele>991.1428571428573</ele><time>2026-05-02T10:22:33Z</time></trkpt><trkpt lat="41.775637443976656" lon="13.934840389038207"><ele>991.0000000000001</ele><time>2026-05-02T10:22:39Z</time></trkpt><trkpt lat="41.77567696194573" lon="13.934913123633207"><ele>991.0000000000001</ele><time>2026-05-02T10:22:45Z</time></trkpt><trkpt lat="41.775689716700256" lon="13.935006393189703"><ele>991.0</ele><time>2026-05-02T10:22:50Z</time></trkpt><trkpt lat="41.77569184097963" lon="13.935098273085375"><ele>991.0000000000001</ele><time>2026-05-02T10:22:56Z</time></trkpt><trkpt lat="41.775727522373025" lon="13.935197468632548"><ele>991.0000000000001</ele><time>2026-05-02T10:23:04Z</time></trkpt><trkpt lat="41.77577250584084" lon="13.93525949651725"><ele>991.0</ele><time>2026-05-02T10:23:09Z</time></trkpt><trkpt lat="41.77580496052545" lon="13.9353349834875"><ele>991.0000000000001</ele><time>2026-05-02T10:23:15Z</time></trkpt><trkpt lat="41.775810688494026" lon="13.93543892206391"><ele>991.0000000000001</ele><time>2026-05-02T10:23:23Z</time></trkpt><trkpt lat="41.77585599137102" lon="13.935515671792022"><ele>990.5714285714287</ele><time>2026-05-02T10:23:27Z</time></trkpt><trkpt lat="41.775864973257185" lon="13.935606903508615"><ele>990.1428571428571</ele><time>2026-05-02T10:23:33Z</time></trkpt><trkpt lat="41.77591781256059" lon="13.93569003725358"><ele>989.7142857142858</ele><time>2026-05-02T10:23:38Z</time></trkpt><trkpt lat="41.77594840857767" lon="13.935780220088054"><ele>989.2857142857143</ele><time>2026-05-02T10:23:45Z</time></trkpt><trkpt lat="41.775908724656595" lon="13.935713579086523"><ele>988.8571428571429</ele><time>2026-05-02T10:24:01Z</time></trkpt><trkpt lat="41.77585474952736" lon="13.935618437727397"><ele>988.4285714285714</ele><time>2026-05-02T10:24:05Z</time></trkpt><trkpt lat="41.775834038588464" lon="13.935534446103947"><ele>988.0</ele><time>2026-05-02T10:24:11Z</time></trkpt><trkpt lat="41.7757784330417" lon="13.93549308184157"><ele>988.0</ele><time>2026-05-02T10:24:15Z</time></trkpt><trkpt lat="41.77575593969873" lon="13.935409318213662"><ele>988.0</ele><time>2026-05-02T10:24:21Z</time></trkpt><trkpt lat="41.77575106610146" lon="13.935324385187956"><ele>988.0</ele><time>2026-05-02T10:24:26Z</time></trkpt><trkpt lat="41.7757420381634" lon="13.935214209993157"><ele>988.0</ele><time>2026-05-02T10:24:32Z</time></trkpt><trkpt lat="41.775727815334236" lon="13.935125317145893"><ele>988.0</ele><time>2026-05-02T10:24:39Z</time></trkpt><trkpt lat="41.77568085631023" lon="13.935052187608903"><ele>988.0</ele><time>2026-05-02T10:24:44Z</time></trkpt><trkpt lat="41.77566574533962" lon="13.93496041358684"><ele>988.0</ele><time>2026-05-02T10:24:48Z</time></trkpt><trkpt lat="41.77566523601436" lon="13.934872786992779"><ele>988.4285714285714</ele><time>2026-05-02T10:24:54Z</time></trkpt><trkpt lat="41.77564966810847" lon="13.934789733521354"><ele>988.8571428571429</ele><time>2026-05-02T10:24:59Z</time></trkpt><trkpt lat="41.775642657804546" lon="13.934690889263877"><ele>989.2857142857143</ele><time>2026-05-02T10:25:05Z</time></trkpt><trkpt lat="41.77565210261269" lon="13.93460225363213"><ele>989.7142857142858</ele><time>2026-05-02T10:25:10Z</time></trkpt><trkpt lat="41.77567988851023" lon="13.934496520477824"><ele>990.1428571428571</ele><time>2026-05-02T10:25:16Z</time></trkpt><trkpt lat="41.77569041605696" lon="13.93440817434635"><ele>990.5714285714287</ele><time>2026-05-02T10:25:20Z</time></trkpt><trkpt lat="41.77569769744189" lon="13.93431365910859"><ele>991.0000000000001</ele><time>2026-05-02T10:25:26Z</time></trkpt><trkpt lat="41.77572991258456" lon="13.934229131147115"><ele>991.1428571428573</ele><time>2026-05-02T10:25:31Z</time></trkpt><trkpt lat="41.775734109869816" lon="13.934138884389478"><ele>991.2857142857143</ele><time>2026-05-02T10:25:36Z</time></trkpt><trkpt lat="41.775716566005215" lon="13.934051186836404"><ele>991.4285714285716</ele><time>2026-05-02T10:25:40Z</time></trkpt><trkpt lat="41.775724999170016" lon="13.933958322889088"><ele>991.5714285714287</ele><time>2026-05-02T10:25:46Z</time></trkpt><trkpt lat="41.775724560442036" lon="13.933865319205678"><ele>991.7142857142858</ele><time>2026-05-02T10:25:51Z</time></trkpt><trkpt lat="41.7757355511294" lon="13.933779951625246"><ele>991.8571428571429</ele><time>2026-05-02T10:25:57Z</time></trkpt><trkpt lat="41.77574853999205" lon="13.933682882905783"><ele>992.0</ele><time>2026-05-02T10:26:03Z</time></trkpt><trkpt lat="41.775752411504904" lon="13.93359030313643"><ele>992.0</ele><time>2026-05-02T10:26:08Z</time></trkpt><trkpt lat="41.77574970145368" lon="13.933496579203261"><ele>992.0000000000001</ele><time>2026-05-02T10:26:13Z</time></trkpt><trkpt lat="41.775776013032676" lon="13.933416058031895"><ele>992.0</ele><time>2026-05-02T10:26:19Z</time></trkpt><trkpt lat="41.775815502176876" lon="13.933340473708903"><ele>992.0</ele><time>2026-05-02T10:26:24Z</time></trkpt><trkpt lat="41.77582841952582" lon="13.933252720559606"><ele>992.0000000000001</ele><time>2026-05-02T10:26:29Z</time></trkpt><trkpt lat="41.77585732433458" lon="13.933170988232256"><ele>992.0</ele><time>2026-05-02T10:26:34Z</time></trkpt><trkpt lat="41.775870829043825" lon="13.933067312570259"><ele>992.0</ele><time>2026-05-02T10:26:40Z</time></trkpt><trkpt lat="41.77588429237244" lon="13.932981716884301"><ele>991.5714285714287</ele><time>2026-05-02T10:26:46Z</time></trkpt><trkpt lat="41.775885017812364" lon="13.932893466227178"><ele>991.1428571428572</ele><time>2026-05-02T10:26:51Z</time></trkpt><trkpt lat="41.77590158484459" lon="13.932809476971338"><ele>990.7142857142858</ele><time>2026-05-02T10:26:58Z</time></trkpt><trkpt lat="41.77591310403778" lon="13.932724590552914"><ele>990.2857142857142</ele><time>2026-05-02T10:27:07Z</time></trkpt><trkpt lat="41.77593122054332" lon="13.932625873370728"><ele>989.8571428571428</ele><time>2026-05-02T10:27:13Z</time></trkpt><trkpt lat="41.77596984732219" lon="13.932554627632822"><ele>989.4285714285713</ele><time>2026-05-02T10:27:18Z</time></trkpt><trkpt lat="41.77599040430139" lon="13.932451144287063"><ele>989.0</ele><time>2026-05-02T10:27:25Z</time></trkpt><trkpt lat="41.77601883202445" lon="13.932364575616207"><ele>995.0000000000001</ele><time>2026-05-02T10:27:30Z</time></trkpt><trkpt lat="41.776039288915925" lon="13.93228048998551"><ele>1001.0</ele><time>2026-05-02T10:27:36Z</time></trkpt><trkpt lat="41.77604911844056" lon="13.932184596752856"><ele>1007.0</ele><time>2026-05-02T10:27:42Z</time></trkpt><trkpt lat="41.7760464610463" lon="13.932089934051147"><ele>1013.0</ele><time>2026-05-02T10:27:47Z</time></trkpt><trkpt lat="41.77605051045144" lon="13.932000348001184"><ele>1019.0000000000001</ele><time>2026-05-02T10:27:52Z</time></trkpt><trkpt lat="41.776111398883" lon="13.932067458953897"><ele>1025.0</ele><time>2026-05-02T10:28:00Z</time></trkpt><trkpt lat="41.77607618692971" lon="13.932193752740465"><ele>1024.9999999999998</ele><time>2026-05-02T10:28:09Z</time></trkpt><trkpt lat="41.77607660152384" lon="13.932293824747486"><ele>1025.0</ele><time>2026-05-02T10:28:14Z</time></trkpt><trkpt lat="41.776060903998335" lon="13.932387330850483"><ele>1025.0</ele><time>2026-05-02T10:28:19Z</time></trkpt><trkpt lat="41.77603739625057" lon="13.93246865260863"><ele>1025.0</ele><time>2026-05-02T10:28:24Z</time></trkpt><trkpt lat="41.77603549362027" lon="13.932557621074048"><ele>1025.0</ele><time>2026-05-02T10:28:30Z</time></trkpt><trkpt lat="41.776011849283876" lon="13.932636498710703"><ele>1024.9999999999998</ele><time>2026-05-02T10:28:35Z</time></trkpt><trkpt lat="41.77599901237787" lon="13.93272056558596"><ele>1025.0</ele><time>2026-05-02T10:28:40Z</time></trkpt><trkpt lat="41.77598269506158" lon="13.93282483253303"><ele>1019.0000000000001</ele><time>2026-05-02T10:28:47Z</time></trkpt><trkpt lat="41.77596178331899" lon="13.93290790077683"><ele>1013.0</ele><time>2026-05-02T10:28:53Z</time></trkpt><trkpt lat="41.775929534584314" lon="13.932994113072013"><ele>1007.0</ele><time>2026-05-02T10:28:59Z</time></trkpt><trkpt lat="41.775903879396765" lon="13.933092383703888"><ele>1001.0</ele><time>2026-05-02T10:29:08Z</time></trkpt><trkpt lat="41.775906090079744" lon="13.932947558709138"><ele>995.0000000000001</ele><time>2026-05-02T10:29:31Z</time></trkpt><trkpt lat="41.77591625405838" lon="13.932850784975836"><ele>989.0</ele><time>2026-05-02T10:29:32Z</time></trkpt><trkpt lat="41.775947805072924" lon="13.932765202623377"><ele>989.0</ele><time>2026-05-02T10:29:33Z</time></trkpt><trkpt lat="41.77596172457085" lon="13.932674093533954"><ele>988.9999999999999</ele><time>2026-05-02T10:29:34Z</time></trkpt><trkpt lat="41.775973914498856" lon="13.932569169324724"><ele>989.0</ele><time>2026-05-02T10:29:35Z</time></trkpt><trkpt lat="41.77599891030292" lon="13.932462462461663"><ele>989.0</ele><time>2026-05-02T10:29:36Z</time></trkpt><trkpt lat="41.77601945697529" lon="13.932358186346892"><ele>988.9999999999999</ele><time>2026-05-02T10:29:37Z</time></trkpt><trkpt lat="41.77604815334229" lon="13.932270242358557"><ele>989.0</ele><time>2026-05-02T10:29:38Z</time></trkpt><trkpt lat="41.77606931727164" lon="13.93218886611519"><ele>989.0</ele><time>2026-05-02T10:29:39Z</time></trkpt><trkpt lat="41.776080307955006" lon="13.932024271735179"><ele>992.8333333333334</ele><time>2026-05-02T10:29:41Z</time></trkpt><trkpt lat="41.77610508307999" lon="13.93188135483044"><ele>996.6666666666667</ele><time>2026-05-02T10:29:43Z</time></trkpt><trkpt lat="41.77613091983574" lon="13.93179156588582"><ele>1000.5</ele><time>2026-05-02T10:30:37Z</time></trkpt><trkpt lat="41.776111594489734" lon="13.931706169735268"><ele>1004.3333333333333</ele><time>2026-05-02T10:30:43Z</time></trkpt><trkpt lat="41.77612728120956" lon="13.931613060154998"><ele>1008.1666666666666</ele><time>2026-05-02T10:30:49Z</time></trkpt><trkpt lat="41.77614297373112" lon="13.931528970417949"><ele>1012.0</ele><time>2026-05-02T10:30:56Z</time></trkpt><trkpt lat="41.77618280285836" lon="13.931457659543678"><ele>1011.9999999999999</ele><time>2026-05-02T10:31:02Z</time></trkpt><trkpt lat="41.776172713410396" lon="13.931350325921672"><ele>1012.0</ele><time>2026-05-02T10:31:08Z</time></trkpt><trkpt lat="41.776067427611295" lon="13.93130363004282"><ele>1012.0</ele><time>2026-05-02T10:31:53Z</time></trkpt><trkpt lat="41.77611211700431" lon="13.931215445808636"><ele>1012.0</ele><time>2026-05-02T10:35:15Z</time></trkpt><trkpt lat="41.77605474927248" lon="13.931285319092572"><ele>1011.9999999999999</ele><time>2026-05-02T10:35:16Z</time></trkpt><trkpt lat="41.77610300669133" lon="13.931366521004257"><ele>1012.0</ele><time>2026-05-02T10:35:19Z</time></trkpt><trkpt lat="41.77616273161027" lon="13.93142512062983"><ele>1012.0000000000001</ele><time>2026-05-02T10:35:23Z</time></trkpt><trkpt lat="41.776147856186896" lon="13.931526294633187"><ele>1012.0</ele><time>2026-05-02T10:35:32Z</time></trkpt><trkpt lat="41.7761502714805" lon="13.931617739115772"><ele>1012.0000000000001</ele><time>2026-05-02T10:35:38Z</time></trkpt><trkpt lat="41.77614041651849" lon="13.93170403424261"><ele>1012.0000000000001</ele><time>2026-05-02T10:35:43Z</time></trkpt><trkpt lat="41.77613488618348" lon="13.931794586234199"><ele>1012.0</ele><time>2026-05-02T10:35:50Z</time></trkpt><trkpt lat="41.77612226076711" lon="13.931880372600297"><ele>1012.0000000000001</ele><time>2026-05-02T10:35:55Z</time></trkpt><trkpt lat="41.776088459894865" lon="13.931968138456488"><ele>1012.0000000000001</ele><time>2026-05-02T10:36:01Z</time></trkpt><trkpt lat="41.7760745528651" lon="13.932053935765007"><ele>1013.857142857143</ele><time>2026-05-02T10:36:06Z</time></trkpt><trkpt lat="41.7760539089825" lon="13.932148272716711"><ele>1015.7142857142858</ele><time>2026-05-02T10:36:12Z</time></trkpt><trkpt lat="41.77604933197729" lon="13.932240559091383"><ele>1017.5714285714286</ele><time>2026-05-02T10:36:18Z</time></trkpt><trkpt lat="41.77604472297871" lon="13.932343363641605"><ele>1019.4285714285714</ele><time>2026-05-02T10:36:25Z</time></trkpt><trkpt lat="41.77604522763097" lon="13.93243676870657"><ele>1021.2857142857142</ele><time>2026-05-02T10:36:32Z</time></trkpt><trkpt lat="41.77599257232094" lon="13.932493952382062"><ele>1023.142857142857</ele><time>2026-05-02T10:36:36Z</time></trkpt><trkpt lat="41.77601721458992" lon="13.932598278963598"><ele>1025.0</ele><time>2026-05-02T10:36:45Z</time></trkpt><trkpt lat="41.776024548917206" lon="13.932508943660599"><ele>1024.9999999999998</ele><time>2026-05-02T10:36:50Z</time></trkpt><trkpt lat="41.77600906264471" lon="13.932608410477934"><ele>1025.0</ele><time>2026-05-02T10:37:06Z</time></trkpt><trkpt lat="41.77605411609305" lon="13.932543619427754"><ele>1025.0</ele><time>2026-05-02T10:37:18Z</time></trkpt><trkpt lat="41.77602877946657" lon="13.932445076861407"><ele>1025.0</ele><time>2026-05-02T10:37:25Z</time></trkpt><trkpt lat="41.776032806140165" lon="13.932332528073452"><ele>1025.0</ele><time>2026-05-02T10:37:34Z</time></trkpt><trkpt lat="41.77602975606806" lon="13.93223047779348"><ele>1024.9999999999998</ele><time>2026-05-02T10:37:40Z</time></trkpt><trkpt lat="41.77603004165577" lon="13.932145746633104"><ele>1025.0</ele><time>2026-05-02T10:37:46Z</time></trkpt><trkpt lat="41.776022670721325" lon="13.932056582632498"><ele>1025.0</ele><time>2026-05-02T10:37:52Z</time></trkpt><trkpt lat="41.77603528660495" lon="13.931966856073373"><ele>1025.0</ele><time>2026-05-02T10:37:58Z</time></trkpt><trkpt lat="41.77605982545209" lon="13.93186369342373"><ele>1025.0</ele><time>2026-05-02T10:39:19Z</time></trkpt><trkpt lat="41.775907653175736" lon="13.931910543622173"><ele>1025.0</ele><time>2026-05-02T10:40:21Z</time></trkpt><trkpt lat="41.7759948121908" lon="13.931923675828482"><ele>1025.0</ele><time>2026-05-02T10:40:45Z</time></trkpt><trkpt lat="41.77603508284268" lon="13.931856308582109"><ele>1024.9999999999998</ele><time>2026-05-02T10:41:03Z</time></trkpt><trkpt lat="41.77603344775775" lon="13.93195477868421"><ele>1025.0</ele><time>2026-05-02T10:48:18Z</time></trkpt><trkpt lat="41.776012794809226" lon="13.93203760258931"><ele>1025.0</ele><time>2026-05-02T10:48:28Z</time></trkpt><trkpt lat="41.7759538258668" lon="13.932075855854684"><ele>1025.0</ele><time>2026-05-02T10:49:07Z</time></trkpt><trkpt lat="41.77596470513159" lon="13.931988793805909"><ele>1025.0</ele><time>2026-05-02T10:49:13Z</time></trkpt><trkpt lat="41.776026739034535" lon="13.931966052163583"><ele>1024.9999999999998</ele><time>2026-05-02T10:49:22Z</time></trkpt><trkpt lat="41.77606144740444" lon="13.931889833751013"><ele>1025.0</ele><time>2026-05-02T10:49:29Z</time></trkpt><trkpt lat="41.77608142993739" lon="13.931975958765912"><ele>1025.0</ele><time>2026-05-02T10:52:03Z</time></trkpt><trkpt lat="41.7761404709761" lon="13.93190901839766"><ele>1025.0</ele><time>2026-05-02T10:52:07Z</time></trkpt><trkpt lat="41.776155148735725" lon="13.931782822935789"><ele>1025.0</ele><time>2026-05-02T10:52:08Z</time></trkpt><trkpt lat="41.776146069986744" lon="13.931627862882207"><ele>1025.0</ele><time>2026-05-02T10:52:09Z</time></trkpt><trkpt lat="41.776180947432515" lon="13.931461751633517"><ele>1025.0</ele><time>2026-05-02T10:52:10Z</time></trkpt><trkpt lat="41.776211062287246" lon="13.931272893821111"><ele>1021.75</ele><time>2026-05-02T10:52:11Z</time></trkpt><trkpt lat="41.776236100541986" lon="13.931081493974432"><ele>1018.5</ele><time>2026-05-02T10:52:12Z</time></trkpt><trkpt lat="41.77626092463831" lon="13.930910912007008"><ele>1015.25</ele><time>2026-05-02T10:52:13Z</time></trkpt><trkpt lat="41.776277135275365" lon="13.930713768656814"><ele>1012.0</ele><time>2026-05-02T10:52:14Z</time></trkpt><trkpt lat="41.77629557458658" lon="13.930522798565555"><ele>1010.3333333333333</ele><time>2026-05-02T10:52:15Z</time></trkpt><trkpt lat="41.776327341589784" lon="13.930297030802265"><ele>1008.6666666666667</ele><time>2026-05-02T10:52:16Z</time></trkpt><trkpt lat="41.776354931661295" lon="13.93009552986595"><ele>1007.0</ele><time>2026-05-02T10:52:17Z</time></trkpt><trkpt lat="41.776395816666344" lon="13.929934157033395"><ele>1006.5</ele><time>2026-05-02T10:52:18Z</time></trkpt><trkpt lat="41.776436910886154" lon="13.92978280494605"><ele>1006.0</ele><time>2026-05-02T10:52:19Z</time></trkpt><trkpt lat="41.77649933325176" lon="13.929663910106596"><ele>1005.5</ele><time>2026-05-02T10:52:20Z</time></trkpt><trkpt lat="41.77649042523176" lon="13.929478344298593"><ele>1005.0</ele><time>2026-05-02T10:52:21Z</time></trkpt><trkpt lat="41.77651728353497" lon="13.929330368968822"><ele>1005.0</ele><time>2026-05-02T10:52:22Z</time></trkpt><trkpt lat="41.776498910006126" lon="13.929238039936703"><ele>1005.0</ele><time>2026-05-02T10:52:23Z</time></trkpt><trkpt lat="41.776525089179195" lon="13.929129711500183"><ele>1005.0</ele><time>2026-05-02T10:52:24Z</time></trkpt><trkpt lat="41.77657989814243" lon="13.92896530325242"><ele>1005.0</ele><time>2026-05-02T10:52:26Z</time></trkpt><trkpt lat="41.776577122738246" lon="13.928859375811406"><ele>1005.0</ele><time>2026-05-02T10:52:27Z</time></trkpt><trkpt lat="41.77664045412631" lon="13.928817297668365"><ele>1005.0</ele><time>2026-05-02T10:52:29Z</time></trkpt><trkpt lat="41.77670636743346" lon="13.928917451716908"><ele>1005.0</ele><time>2026-05-02T10:52:31Z</time></trkpt><trkpt lat="41.77669430120198" lon="13.929002742307564"><ele>1005.0</ele><time>2026-05-02T10:52:32Z</time></trkpt><trkpt lat="41.776699702143844" lon="13.929107201397636"><ele>1005.0</ele><time>2026-05-02T10:52:33Z</time></trkpt><trkpt lat="41.77665304630366" lon="13.929182020659571"><ele>1005.0</ele><time>2026-05-02T10:52:34Z</time></trkpt><trkpt lat="41.77660584849961" lon="13.929270261538106"><ele>1005.0</ele><time>2026-05-02T10:52:35Z</time></trkpt><trkpt lat="41.77657794644839" lon="13.929400687983465"><ele>1005.0</ele><time>2026-05-02T10:52:36Z</time></trkpt><trkpt lat="41.77655932278973" lon="13.929553354172299"><ele>1005.0</ele><time>2026-05-02T10:52:37Z</time></trkpt><trkpt lat="41.77655230277128" lon="13.92970485222929"><ele>1005.0</ele><time>2026-05-02T10:52:38Z</time></trkpt><trkpt lat="41.776514024521134" lon="13.929882961801768"><ele>1005.0</ele><time>2026-05-02T10:52:39Z</time></trkpt><trkpt lat="41.77649136524313" lon="13.930025293841647"><ele>1005.0</ele><time>2026-05-02T10:52:40Z</time></trkpt><trkpt lat="41.77647206984833" lon="13.930152875618406"><ele>1005.3333333333334</ele><time>2026-05-02T10:52:41Z</time></trkpt><trkpt lat="41.776464272896504" lon="13.930277411854094"><ele>1005.6666666666667</ele><time>2026-05-02T10:52:42Z</time></trkpt><trkpt lat="41.77646211929527" lon="13.930399959674862"><ele>1006.0</ele><time>2026-05-02T10:52:43Z</time></trkpt><trkpt lat="41.776478857917745" lon="13.930495232343292"><ele>1006.3333333333334</ele><time>2026-05-02T10:52:44Z</time></trkpt><trkpt lat="41.7764878071839" lon="13.930580343369705"><ele>1006.6666666666667</ele><time>2026-05-02T10:52:45Z</time></trkpt><trkpt lat="41.77653254697564" lon="13.930717526695998"><ele>1007.0</ele><time>2026-05-02T10:52:47Z</time></trkpt><trkpt lat="41.7765225312949" lon="13.930806024189412"><ele>1007.0000000000001</ele><time>2026-05-02T10:52:48Z</time></trkpt><trkpt lat="41.77651186502766" lon="13.930944956490965"><ele>1007.0</ele><time>2026-05-02T10:52:50Z</time></trkpt><trkpt lat="41.77650995858278" lon="13.931053254929749"><ele>1007.0</ele><time>2026-05-02T10:52:53Z</time></trkpt><trkpt lat="41.77657973016313" lon="13.931046851894468"><ele>1007.0</ele><time>2026-05-02T10:52:57Z</time></trkpt><trkpt lat="41.77653779893795" lon="13.930950523816183"><ele>1007.0000000000001</ele><time>2026-05-02T10:52:59Z</time></trkpt><trkpt lat="41.77654639521243" lon="13.930829910113756"><ele>1007.0</ele><time>2026-05-02T10:53:00Z</time></trkpt><trkpt lat="41.776546911303136" lon="13.930668629157696"><ele>1007.0</ele><time>2026-05-02T10:53:02Z</time></trkpt><trkpt lat="41.77650586023105" lon="13.930472943203005"><ele>1007.0</ele><time>2026-05-02T10:53:04Z</time></trkpt><trkpt lat="41.77651181793338" lon="13.930367098289318"><ele>1007.0</ele><time>2026-05-02T10:53:05Z</time></trkpt><trkpt lat="41.77650871557464" lon="13.930253921483347"><ele>1007.0</ele><time>2026-05-02T10:53:06Z</time></trkpt><trkpt lat="41.77651064521275" lon="13.930140524383384"><ele>1007.0</ele><time>2026-05-02T10:53:07Z</time></trkpt><trkpt lat="41.77653364577958" lon="13.930031752638893"><ele>1006.6666666666667</ele><time>2026-05-02T10:53:08Z</time></trkpt><trkpt lat="41.77652594924111" lon="13.929904264492736"><ele>1006.3333333333334</ele><time>2026-05-02T10:53:09Z</time></trkpt><trkpt lat="41.77652160052745" lon="13.929789042943431"><ele>1006.0</ele><time>2026-05-02T10:53:10Z</time></trkpt><trkpt lat="41.77656593892395" lon="13.929681068415228"><ele>1005.6666666666667</ele><time>2026-05-02T10:53:11Z</time></trkpt><trkpt lat="41.7765695468298" lon="13.929562644950733"><ele>1005.3333333333334</ele><time>2026-05-02T10:53:12Z</time></trkpt><trkpt lat="41.77659142660047" lon="13.929456951743177"><ele>1005.0</ele><time>2026-05-02T10:53:13Z</time></trkpt><trkpt lat="41.77660684100685" lon="13.929357261352736"><ele>1005.0</ele><time>2026-05-02T10:53:14Z</time></trkpt><trkpt lat="41.77663299535092" lon="13.929261118127277"><ele>1005.0</ele><time>2026-05-02T10:53:15Z</time></trkpt><trkpt lat="41.776658852572844" lon="13.929167357558974"><ele>1005.0</ele><time>2026-05-02T10:53:16Z</time></trkpt><trkpt lat="41.77669074562173" lon="13.92907166965056"><ele>1005.0</ele><time>2026-05-02T10:53:17Z</time></trkpt><trkpt lat="41.77671424732185" lon="13.928975744220043"><ele>1005.0</ele><time>2026-05-02T10:53:18Z</time></trkpt><trkpt lat="41.77668596505625" lon="13.92881756263178"><ele>1005.0</ele><time>2026-05-02T10:53:20Z</time></trkpt><trkpt lat="41.77660983962347" lon="13.92878088055008"><ele>1005.0</ele><time>2026-05-02T10:53:22Z</time></trkpt><trkpt lat="41.77653313889346" lon="13.92886427471524"><ele>1005.0</ele><time>2026-05-02T10:53:23Z</time></trkpt><trkpt lat="41.77650866105853" lon="13.929004264462886"><ele>1005.0</ele><time>2026-05-02T10:53:25Z</time></trkpt><trkpt lat="41.77644710443608" lon="13.9291783550626"><ele>1005.0</ele><time>2026-05-02T10:53:29Z</time></trkpt><trkpt lat="41.77643453821059" lon="13.929276587057325"><ele>1005.0</ele><time>2026-05-02T10:53:30Z</time></trkpt><trkpt lat="41.7764209729285" lon="13.929382247824647"><ele>1005.0</ele><time>2026-05-02T10:53:31Z</time></trkpt><trkpt lat="41.77640452324734" lon="13.929508611271126"><ele>1005.0</ele><time>2026-05-02T10:53:32Z</time></trkpt><trkpt lat="41.776388893175266" lon="13.929628678646079"><ele>1005.0</ele><time>2026-05-02T10:53:33Z</time></trkpt><trkpt lat="41.77637300973002" lon="13.929750692364024"><ele>1005.0</ele><time>2026-05-02T10:53:34Z</time></trkpt><trkpt lat="41.77635591690109" lon="13.929877393406588"><ele>1005.0</ele><time>2026-05-02T10:53:35Z</time></trkpt><trkpt lat="41.77633746364057" lon="13.930012557006531"><ele>1005.4</ele><time>2026-05-02T10:53:36Z</time></trkpt><trkpt lat="41.776318469298126" lon="13.930151683871403"><ele>1005.8</ele><time>2026-05-02T10:53:37Z</time></trkpt><trkpt lat="41.77631039739299" lon="13.93030228686477"><ele>1006.2</ele><time>2026-05-02T10:53:38Z</time></trkpt><trkpt lat="41.776262730321825" lon="13.930436938457307"><ele>1006.6</ele><time>2026-05-02T10:53:39Z</time></trkpt><trkpt lat="41.77623739551375" lon="13.930574854368665"><ele>1007.0</ele><time>2026-05-02T10:53:40Z</time></trkpt><trkpt lat="41.77623541652121" lon="13.930696249031918"><ele>1007.0</ele><time>2026-05-02T10:53:41Z</time></trkpt><trkpt lat="41.77621995557958" lon="13.93082124222231"><ele>1007.0</ele><time>2026-05-02T10:53:42Z</time></trkpt><trkpt lat="41.77621924534964" lon="13.930940406796216"><ele>1007.0</ele><time>2026-05-02T10:53:43Z</time></trkpt><trkpt lat="41.77620298013539" lon="13.931080031656004"><ele>1007.0</ele><time>2026-05-02T10:53:44Z</time></trkpt><trkpt lat="41.77620101963909" lon="13.931188935215875"><ele>1007.0</ele><time>2026-05-02T10:53:45Z</time></trkpt><trkpt lat="41.77617340024885" lon="13.931320244182837"><ele>1008.0</ele><time>2026-05-02T10:53:46Z</time></trkpt><trkpt lat="41.77615528304002" lon="13.931460177993674"><ele>1009.0</ele><time>2026-05-02T10:53:47Z</time></trkpt><trkpt lat="41.77613420619671" lon="13.93160847107807"><ele>1010.0</ele><time>2026-05-02T10:53:48Z</time></trkpt><trkpt lat="41.77610622241246" lon="13.931747150223833"><ele>1011.0</ele><time>2026-05-02T10:53:49Z</time></trkpt><trkpt lat="41.77608693240003" lon="13.931885415834442"><ele>1012.0</ele><time>2026-05-02T10:53:50Z</time></trkpt><trkpt lat="41.7760695323694" lon="13.932035095246182"><ele>1014.6</ele><time>2026-05-02T10:53:51Z</time></trkpt><trkpt lat="41.77603789522184" lon="13.932168782334205"><ele>1017.2</ele><time>2026-05-02T10:53:52Z</time></trkpt><trkpt lat="41.7760137334078" lon="13.932317287836515"><ele>1019.8</ele><time>2026-05-02T10:53:53Z</time></trkpt><trkpt lat="41.77597863431912" lon="13.932439950465726"><ele>1022.4</ele><time>2026-05-02T10:53:54Z</time></trkpt><trkpt lat="41.77595201705145" lon="13.932563613445922"><ele>1025.0</ele><time>2026-05-02T10:53:55Z</time></trkpt><trkpt lat="41.775923207106146" lon="13.932697101366182"><ele>1017.8</ele><time>2026-05-02T10:53:56Z</time></trkpt><trkpt lat="41.77589668513827" lon="13.932814270183611"><ele>1010.6</ele><time>2026-05-02T10:53:57Z</time></trkpt><trkpt lat="41.7758688499163" lon="13.932936704218557"><ele>1003.4000000000001</ele><time>2026-05-02T10:53:58Z</time></trkpt><trkpt lat="41.77584222656911" lon="13.9330503296976"><ele>996.2</ele><time>2026-05-02T10:53:59Z</time></trkpt><trkpt lat="41.775816249283" lon="13.933150222738375"><ele>989.0</ele><time>2026-05-02T10:54:00Z</time></trkpt><trkpt lat="41.775777908439125" lon="13.933291342006205"><ele>989.0</ele><time>2026-05-02T10:54:02Z</time></trkpt><trkpt lat="41.775756029337835" lon="13.93337496880838"><ele>989.0000000000001</ele><time>2026-05-02T10:54:05Z</time></trkpt><trkpt lat="41.77572587825838" lon="13.93349021300425"><ele>989.0000000000001</ele><time>2026-05-02T10:54:09Z</time></trkpt><trkpt lat="41.77581493466289" lon="13.933599696997582"><ele>989.0</ele><time>2026-05-02T10:54:10Z</time></trkpt><trkpt lat="41.77579780315864" lon="13.933780698984307"><ele>989.0</ele><time>2026-05-02T10:54:12Z</time></trkpt><trkpt lat="41.775794957252" lon="13.933899855311779"><ele>989.4000000000001</ele><time>2026-05-02T10:54:13Z</time></trkpt><trkpt lat="41.77578272527682" lon="13.934013506551958"><ele>989.8000000000001</ele><time>2026-05-02T10:54:14Z</time></trkpt><trkpt lat="41.77577478607994" lon="13.934152925507519"><ele>990.1999999999999</ele><time>2026-05-02T10:54:15Z</time></trkpt><trkpt lat="41.77567523618574" lon="13.934253562814247"><ele>990.5999999999999</ele><time>2026-05-02T10:54:16Z</time></trkpt><trkpt lat="41.77566202909205" lon="13.934373956212823"><ele>991.0</ele><time>2026-05-02T10:54:17Z</time></trkpt><trkpt lat="41.7756511407402" lon="13.934472919234578"><ele>991.0000000000001</ele><time>2026-05-02T10:54:18Z</time></trkpt><trkpt lat="41.77564101822284" lon="13.93456492168574"><ele>991.0</ele><time>2026-05-02T10:54:19Z</time></trkpt><trkpt lat="41.775640674074445" lon="13.934657321495948"><ele>991.0000000000001</ele><time>2026-05-02T10:54:20Z</time></trkpt><trkpt lat="41.7756425791576" lon="13.934760446401883"><ele>991.0000000000001</ele><time>2026-05-02T10:54:21Z</time></trkpt><trkpt lat="41.77565184325308" lon="13.934861068285839"><ele>991.0</ele><time>2026-05-02T10:54:22Z</time></trkpt><trkpt lat="41.775664489374925" lon="13.93495550366393"><ele>991.0000000000001</ele><time>2026-05-02T10:54:23Z</time></trkpt><trkpt lat="41.77567956571075" lon="13.935059329391256"><ele>991.0000000000001</ele><time>2026-05-02T10:54:24Z</time></trkpt><trkpt lat="41.77571366237006" lon="13.935140873345064"><ele>990.4999999999999</ele><time>2026-05-02T10:54:25Z</time></trkpt><trkpt lat="41.77574713466129" lon="13.935245809868846"><ele>990.0</ele><time>2026-05-02T10:54:26Z</time></trkpt><trkpt lat="41.77577373289524" lon="13.935340968530237"><ele>989.5</ele><time>2026-05-02T10:54:27Z</time></trkpt><trkpt lat="41.77581860443648" lon="13.935464022546256"><ele>989.0</ele><time>2026-05-02T10:54:28Z</time></trkpt><trkpt lat="41.77584550084749" lon="13.93555855464417"><ele>988.4999999999999</ele><time>2026-05-02T10:54:29Z</time></trkpt><trkpt lat="41.775866038795" lon="13.935652438926331"><ele>988.0</ele><time>2026-05-02T10:54:30Z</time></trkpt><trkpt lat="41.77585326635006" lon="13.93577842689077"><ele>987.9999999999999</ele><time>2026-05-02T10:54:31Z</time></trkpt><trkpt lat="41.77587930961446" lon="13.935884312682639"><ele>988.0</ele><time>2026-05-02T10:54:32Z</time></trkpt><trkpt lat="41.77590824864651" lon="13.936002328433968"><ele>988.0</ele><time>2026-05-02T10:54:33Z</time></trkpt><trkpt lat="41.77593290831074" lon="13.936107642512038"><ele>988.0</ele><time>2026-05-02T10:54:34Z</time></trkpt><trkpt lat="41.77595458282804" lon="13.936210712484407"><ele>987.9999999999999</ele><time>2026-05-02T10:54:35Z</time></trkpt><trkpt lat="41.77598059785396" lon="13.936350852648161"><ele>988.0</ele><time>2026-05-02T10:54:37Z</time></trkpt><trkpt lat="41.775996840368336" lon="13.936440228127951"><ele>987.6666666666666</ele><time>2026-05-02T10:54:40Z</time></trkpt><trkpt lat="41.776015218311656" lon="13.936541353837075"><ele>987.3333333333333</ele><time>2026-05-02T10:56:49Z</time></trkpt><trkpt lat="41.77603185990017" lon="13.936632925244837"><ele>987.0</ele><time>2026-05-02T10:56:51Z</time></trkpt><trkpt lat="41.77604837018308" lon="13.936715387987572"><ele>986.6666666666667</ele><time>2026-05-02T10:56:53Z</time></trkpt><trkpt lat="41.776068676312654" lon="13.93681216613711"><ele>986.3333333333334</ele><time>2026-05-02T10:56:55Z</time></trkpt><trkpt lat="41.77610206972224" lon="13.936962278670077"><ele>986.0</ele><time>2026-05-02T10:56:57Z</time></trkpt><trkpt lat="41.77612325008261" lon="13.937052549903436"><ele>986.2857142857142</ele><time>2026-05-02T10:56:58Z</time></trkpt><trkpt lat="41.7761577879982" lon="13.937131507157359"><ele>986.5714285714287</ele><time>2026-05-02T10:56:59Z</time></trkpt><trkpt lat="41.77617981766022" lon="13.937231436374228"><ele>986.8571428571429</ele><time>2026-05-02T10:57:00Z</time></trkpt><trkpt lat="41.776189232709704" lon="13.937321348101857"><ele>987.1428571428571</ele><time>2026-05-02T10:57:01Z</time></trkpt><trkpt lat="41.77622085068964" lon="13.937413002926528"><ele>987.4285714285713</ele><time>2026-05-02T10:57:02Z</time></trkpt><trkpt lat="41.77623964202625" lon="13.9375102213512"><ele>987.7142857142858</ele><time>2026-05-02T10:57:03Z</time></trkpt><trkpt lat="41.77627547238852" lon="13.937601706342909"><ele>988.0</ele><time>2026-05-02T10:57:04Z</time></trkpt><trkpt lat="41.77631431451827" lon="13.937696273212552"><ele>987.9999999999999</ele><time>2026-05-02T10:57:05Z</time></trkpt><trkpt lat="41.776353167780144" lon="13.93777469691536"><ele>988.0</ele><time>2026-05-02T10:57:06Z</time></trkpt><trkpt lat="41.77638879618151" lon="13.937851301171087"><ele>988.0</ele><time>2026-05-02T10:57:07Z</time></trkpt><trkpt lat="41.77640317258847" lon="13.937939527131206"><ele>988.0</ele><time>2026-05-02T10:57:08Z</time></trkpt><trkpt lat="41.77646281340305" lon="13.938056392162059"><ele>987.9999999999999</ele><time>2026-05-02T10:57:10Z</time></trkpt><trkpt lat="41.77648782634425" lon="13.938215694821722"><ele>988.0</ele><time>2026-05-02T10:57:12Z</time></trkpt><trkpt lat="41.77650962157675" lon="13.938335477444802"><ele>987.8</ele><time>2026-05-02T10:57:14Z</time></trkpt><trkpt lat="41.77651755000752" lon="13.938452336353688"><ele>987.5999999999999</ele><time>2026-05-02T10:57:16Z</time></trkpt><trkpt lat="41.77650119170091" lon="13.938554113273172"><ele>987.4000000000001</ele><time>2026-05-02T10:57:20Z</time></trkpt><trkpt lat="41.77655622803707" lon="13.938599749344299"><ele>987.2</ele><time>2026-05-02T10:57:22Z</time></trkpt><trkpt lat="41.776620267122496" lon="13.938701300553811"><ele>987.0</ele><time>2026-05-02T10:57:24Z</time></trkpt><trkpt lat="41.776506078103125" lon="13.938616860810804"><ele>987.0</ele><time>2026-05-02T10:57:25Z</time></trkpt><trkpt lat="41.77672165069509" lon="13.938688063633702"><ele>987.0</ele><time>2026-05-02T10:57:26Z</time></trkpt><trkpt lat="41.77681088910668" lon="13.938660747509722"><ele>987.0</ele><time>2026-05-02T10:57:28Z</time></trkpt><trkpt lat="41.776867043638944" lon="13.938611241255716"><ele>987.0</ele><time>2026-05-02T10:57:30Z</time></trkpt><trkpt lat="41.77693893143731" lon="13.938566117480626"><ele>988.2</ele><time>2026-05-02T10:57:33Z</time></trkpt><trkpt lat="41.77704707456995" lon="13.938562877589037"><ele>989.4000000000001</ele><time>2026-05-02T10:57:35Z</time></trkpt><trkpt lat="41.77712930303928" lon="13.938594399422449"><ele>990.5999999999999</ele><time>2026-05-02T10:57:36Z</time></trkpt><trkpt lat="41.777216185955616" lon="13.93865037029374"><ele>991.8</ele><time>2026-05-02T10:57:37Z</time></trkpt><trkpt lat="41.777290429025996" lon="13.938718374677505"><ele>993.0</ele><time>2026-05-02T10:57:38Z</time></trkpt><trkpt lat="41.77735756473514" lon="13.938822384492296"><ele>993.0</ele><time>2026-05-02T10:57:39Z</time></trkpt><trkpt lat="41.77745393677829" lon="13.938877419661083"><ele>993.0</ele><time>2026-05-02T10:57:40Z</time></trkpt><trkpt lat="41.77755420566614" lon="13.93891945127038"><ele>993.0</ele><time>2026-05-02T10:57:41Z</time></trkpt><trkpt lat="41.77767170067595" lon="13.93892906304758"><ele>993.0</ele><time>2026-05-02T10:57:42Z</time></trkpt><trkpt lat="41.77780171503811" lon="13.938916799236381"><ele>994.0</ele><time>2026-05-02T10:57:43Z</time></trkpt><trkpt lat="41.77792940318868" lon="13.938931481158736"><ele>995.0</ele><time>2026-05-02T10:57:44Z</time></trkpt><trkpt lat="41.77806128958625" lon="13.938945028559651"><ele>996.0</ele><time>2026-05-02T10:57:45Z</time></trkpt><trkpt lat="41.77818140866597" lon="13.938991043106226"><ele>997.0</ele><time>2026-05-02T10:57:46Z</time></trkpt><trkpt lat="41.77829539822702" lon="13.938969968930687"><ele>996.9999999999999</ele><time>2026-05-02T10:57:47Z</time></trkpt><trkpt lat="41.778385579675124" lon="13.938953046170973"><ele>997.0</ele><time>2026-05-02T10:57:48Z</time></trkpt><trkpt lat="41.77845625625969" lon="13.938889002615374"><ele>997.0</ele><time>2026-05-02T10:57:49Z</time></trkpt><trkpt lat="41.77848797871629" lon="13.93879236153218"><ele>997.0</ele><time>2026-05-02T10:57:50Z</time></trkpt><trkpt lat="41.77847605708326" lon="13.938681229638723"><ele>996.9999999999999</ele><time>2026-05-02T10:57:51Z</time></trkpt><trkpt lat="41.7784097673016" lon="13.938578056839589"><ele>997.0</ele><time>2026-05-02T10:57:52Z</time></trkpt><trkpt lat="41.77831299565999" lon="13.938508225424433"><ele>997.0</ele><time>2026-05-02T10:57:53Z</time></trkpt><trkpt lat="41.77818756158126" lon="13.93845796654934"><ele>997.0</ele><time>2026-05-02T10:57:54Z</time></trkpt><trkpt lat="41.778072817620554" lon="13.938367259221145"><ele>997.0</ele><time>2026-05-02T10:57:55Z</time></trkpt><trkpt lat="41.777960795103496" lon="13.938283133724026"><ele>997.0</ele><time>2026-05-02T10:57:56Z</time></trkpt><trkpt lat="41.777840521738035" lon="13.938184776237884"><ele>996.5</ele><time>2026-05-02T10:57:57Z</time></trkpt><trkpt lat="41.777718233698415" lon="13.938080931414888"><ele>996.0</ele><time>2026-05-02T10:57:58Z</time></trkpt><trkpt lat="41.77760347857718" lon="13.937962964595176"><ele>995.5</ele><time>2026-05-02T10:57:59Z</time></trkpt><trkpt lat="41.77749881016444" lon="13.937844512341963"><ele>995.0</ele><time>2026-05-02T10:58:00Z</time></trkpt><trkpt lat="41.777397752851044" lon="13.93770951684958"><ele>995.0</ele><time>2026-05-02T10:58:01Z</time></trkpt><trkpt lat="41.77731384487508" lon="13.937553495504247"><ele>995.0</ele><time>2026-05-02T10:58:02Z</time></trkpt><trkpt lat="41.77724503332946" lon="13.937383041198569"><ele>995.0</ele><time>2026-05-02T10:58:03Z</time></trkpt><trkpt lat="41.77718376691356" lon="13.93720750651279"><ele>995.0</ele><time>2026-05-02T10:58:04Z</time></trkpt><trkpt lat="41.77712579716449" lon="13.93703277454613"><ele>996.0</ele><time>2026-05-02T10:58:05Z</time></trkpt><trkpt lat="41.77707165084781" lon="13.936865374856811"><ele>997.0</ele><time>2026-05-02T10:58:06Z</time></trkpt><trkpt lat="41.77700579277128" lon="13.936700499692714"><ele>998.0</ele><time>2026-05-02T10:58:07Z</time></trkpt><trkpt lat="41.77692298996289" lon="13.936554025703742"><ele>999.0</ele><time>2026-05-02T10:58:08Z</time></trkpt><trkpt lat="41.77682703101604" lon="13.93641333031315"><ele>999.0</ele><time>2026-05-02T10:58:09Z</time></trkpt><trkpt lat="41.77675300072369" lon="13.936265325284081"><ele>999.0</ele><time>2026-05-02T10:58:10Z</time></trkpt><trkpt lat="41.776693173306576" lon="13.936125347842049"><ele>999.0</ele><time>2026-05-02T10:58:11Z</time></trkpt><trkpt lat="41.776647215225395" lon="13.936004062740537"><ele>999.0</ele><time>2026-05-02T10:58:12Z</time></trkpt><trkpt lat="41.77660878535174" lon="13.935875176467574"><ele>1000.3333333333334</ele><time>2026-05-02T10:58:13Z</time></trkpt><trkpt lat="41.77658691574796" lon="13.935744574811238"><ele>1001.6666666666667</ele><time>2026-05-02T10:58:14Z</time></trkpt><trkpt lat="41.77656809111087" lon="13.935647214058553"><ele>1003.0</ele><time>2026-05-02T10:58:15Z</time></trkpt><trkpt lat="41.77655245038099" lon="13.935543723577204"><ele>1004.3333333333334</ele><time>2026-05-02T10:58:16Z</time></trkpt><trkpt lat="41.77653020406408" lon="13.935433863771632"><ele>1005.6666666666667</ele><time>2026-05-02T10:58:17Z</time></trkpt><trkpt lat="41.776501923923114" lon="13.935314651896107"><ele>1007.0</ele><time>2026-05-02T10:58:18Z</time></trkpt><trkpt lat="41.77646508919383" lon="13.935191609378178"><ele>1007.0</ele><time>2026-05-02T10:58:19Z</time></trkpt><trkpt lat="41.77643597882729" lon="13.935054234010904"><ele>1007.0</ele><time>2026-05-02T10:58:20Z</time></trkpt><trkpt lat="41.77641530046493" lon="13.934910145070443"><ele>1007.0</ele><time>2026-05-02T10:58:21Z</time></trkpt><trkpt lat="41.77639096199527" lon="13.934784236114597"><ele>1007.0</ele><time>2026-05-02T10:58:22Z</time></trkpt><trkpt lat="41.77634621113798" lon="13.93468913391474"><ele>1007.0</ele><time>2026-05-02T10:58:23Z</time></trkpt><trkpt lat="41.776285577907444" lon="13.93460942278704"><ele>1008.2</ele><time>2026-05-02T10:58:24Z</time></trkpt><trkpt lat="41.7762305261838" lon="13.934518252234561"><ele>1009.4000000000001</ele><time>2026-05-02T10:58:25Z</time></trkpt><trkpt lat="41.77621356063535" lon="13.934400540940192"><ele>1010.5999999999999</ele><time>2026-05-02T10:58:26Z</time></trkpt><trkpt lat="41.77623177870313" lon="13.934277859803608"><ele>1011.8</ele><time>2026-05-02T10:58:27Z</time></trkpt><trkpt lat="41.776282408029054" lon="13.934204985966678"><ele>1013.0</ele><time>2026-05-02T10:58:28Z</time></trkpt><trkpt lat="41.77639236289647" lon="13.934197284350168"><ele>1013.0000000000001</ele><time>2026-05-02T10:58:30Z</time></trkpt><trkpt lat="41.776402974624375" lon="13.934284847824744"><ele>1013.0</ele><time>2026-05-02T10:58:31Z</time></trkpt><trkpt lat="41.77645314719552" lon="13.934369062260984"><ele>1013.0</ele><time>2026-05-02T10:58:32Z</time></trkpt><trkpt lat="41.776496354433775" lon="13.934479741328326"><ele>1013.0</ele><time>2026-05-02T10:58:33Z</time></trkpt><trkpt lat="41.77656153842452" lon="13.934569851512327"><ele>1013.0000000000001</ele><time>2026-05-02T10:58:34Z</time></trkpt><trkpt lat="41.77661747038727" lon="13.9346809099956"><ele>1013.0</ele><time>2026-05-02T10:58:35Z</time></trkpt><trkpt lat="41.77665973550041" lon="13.934797231430922"><ele>1013.0</ele><time>2026-05-02T10:58:36Z</time></trkpt><trkpt lat="41.77667786071418" lon="13.934925159134233"><ele>1013.0</ele><time>2026-05-02T10:58:37Z</time></trkpt><trkpt lat="41.77671581275894" lon="13.935018905050995"><ele>1013.0</ele><time>2026-05-02T10:58:38Z</time></trkpt><trkpt lat="41.776775687547385" lon="13.935068265432632"><ele>1013.0</ele><time>2026-05-02T10:58:39Z</time></trkpt><trkpt lat="41.77685190586252" lon="13.935002314691287"><ele>1013.0</ele><time>2026-05-02T10:58:40Z</time></trkpt><trkpt lat="41.776852984849796" lon="13.934839760418397"><ele>1013.0</ele><time>2026-05-02T10:58:42Z</time></trkpt><trkpt lat="41.77677964166634" lon="13.934730318592955"><ele>1013.0</ele><time>2026-05-02T10:58:43Z</time></trkpt><trkpt lat="41.776710984041884" lon="13.93459324807647"><ele>1013.0</ele><time>2026-05-02T10:58:44Z</time></trkpt><trkpt lat="41.77665508790495" lon="13.934461668345467"><ele>1013.0</ele><time>2026-05-02T10:58:45Z</time></trkpt><trkpt lat="41.77660474519496" lon="13.934353300990193"><ele>1013.0</ele><time>2026-05-02T10:58:46Z</time></trkpt><trkpt lat="41.776552533724676" lon="13.934260315445346"><ele>1014.5000000000001</ele><time>2026-05-02T10:58:47Z</time></trkpt><trkpt lat="41.77649830635838" lon="13.934167520778693"><ele>1016.0</ele><time>2026-05-02T10:58:48Z</time></trkpt><trkpt lat="41.77644890421404" lon="13.934075805582282"><ele>1017.5</ele><time>2026-05-02T10:58:49Z</time></trkpt><trkpt lat="41.776419420241425" lon="13.933971029228983"><ele>1019.0</ele><time>2026-05-02T10:58:50Z</time></trkpt><trkpt lat="41.7764012992068" lon="13.933859845193657"><ele>1020.5000000000001</ele><time>2026-05-02T10:58:51Z</time></trkpt><trkpt lat="41.77638792109242" lon="13.933754001105074"><ele>1022.0</ele><time>2026-05-02T10:58:52Z</time></trkpt><trkpt lat="41.77637560893207" lon="13.933663599561644"><ele>1022.0000000000001</ele><time>2026-05-02T10:58:53Z</time></trkpt><trkpt lat="41.77636766254551" lon="13.933572247592593"><ele>1022.0</ele><time>2026-05-02T10:58:54Z</time></trkpt><trkpt lat="41.77637258447162" lon="13.933481513941686"><ele>1022.0</ele><time>2026-05-02T10:58:55Z</time></trkpt><trkpt lat="41.77639447296471" lon="13.933379970950538"><ele>1022.0</ele><time>2026-05-02T10:58:56Z</time></trkpt><trkpt lat="41.776405470411326" lon="13.933271928157568"><ele>1022.0000000000001</ele><time>2026-05-02T10:58:57Z</time></trkpt><trkpt lat="41.77642102132022" lon="13.933151214206259"><ele>1022.0</ele><time>2026-05-02T10:58:58Z</time></trkpt><trkpt lat="41.776441042346256" lon="13.933026173046988"><ele>1022.6</ele><time>2026-05-02T10:58:59Z</time></trkpt><trkpt lat="41.776457790888294" lon="13.932890007424675"><ele>1023.2</ele><time>2026-05-02T10:59:00Z</time></trkpt><trkpt lat="41.77647719698237" lon="13.932750325285088"><ele>1023.8</ele><time>2026-05-02T10:59:01Z</time></trkpt><trkpt lat="41.77650643844286" lon="13.932606126740353"><ele>1024.4</ele><time>2026-05-02T10:59:02Z</time></trkpt><trkpt lat="41.77654170458225" lon="13.932457059949586"><ele>1025.0</ele><time>2026-05-02T10:59:03Z</time></trkpt><trkpt lat="41.776583812261826" lon="13.932307642930096"><ele>1025.0</ele><time>2026-05-02T10:59:04Z</time></trkpt><trkpt lat="41.77662926371349" lon="13.932167641491864"><ele>1025.0</ele><time>2026-05-02T10:59:05Z</time></trkpt><trkpt lat="41.77668236814762" lon="13.93202237083469"><ele>1025.0</ele><time>2026-05-02T10:59:06Z</time></trkpt><trkpt lat="41.77673555494359" lon="13.931872417015969"><ele>1025.0</ele><time>2026-05-02T10:59:07Z</time></trkpt><trkpt lat="41.77679052226496" lon="13.93171897128403"><ele>1021.75</ele><time>2026-05-02T10:59:08Z</time></trkpt><trkpt lat="41.77684327343404" lon="13.931565762917062"><ele>1018.5</ele><time>2026-05-02T10:59:09Z</time></trkpt><trkpt lat="41.77687520025433" lon="13.931406877280333"><ele>1015.25</ele><time>2026-05-02T10:59:10Z</time></trkpt><trkpt lat="41.77691451697757" lon="13.93124863409488"><ele>1012.0</ele><time>2026-05-02T10:59:11Z</time></trkpt><trkpt lat="41.776967713873276" lon="13.93109257384815"><ele>1021.4000000000001</ele><time>2026-05-02T10:59:12Z</time></trkpt><trkpt lat="41.77701843938899" lon="13.930953071343337"><ele>1030.8000000000002</ele><time>2026-05-02T10:59:13Z</time></trkpt><trkpt lat="41.777064015340834" lon="13.930804747785189"><ele>1040.2</ele><time>2026-05-02T10:59:14Z</time></trkpt><trkpt lat="41.77709499750208" lon="13.930674573796434"><ele>1049.6000000000001</ele><time>2026-05-02T10:59:15Z</time></trkpt><trkpt lat="41.777117929266346" lon="13.93054228398765"><ele>1059.0</ele><time>2026-05-02T10:59:16Z</time></trkpt><trkpt lat="41.777126758361675" lon="13.930419619653449"><ele>1059.0</ele><time>2026-05-02T10:59:17Z</time></trkpt><trkpt lat="41.77713322070962" lon="13.93030773574777"><ele>1059.0</ele><time>2026-05-02T10:59:18Z</time></trkpt><trkpt lat="41.777125657477626" lon="13.930214628595612"><ele>1059.0</ele><time>2026-05-02T10:59:19Z</time></trkpt><trkpt lat="41.77710865124419" lon="13.930080392511169"><ele>1059.0</ele><time>2026-05-02T10:59:21Z</time></trkpt><trkpt lat="41.77712151397203" lon="13.929990768005382"><ele>1059.0</ele><time>2026-05-02T10:59:22Z</time></trkpt><trkpt lat="41.777120472102176" lon="13.929892737073642"><ele>1059.0</ele><time>2026-05-02T10:59:23Z</time></trkpt><trkpt lat="41.7771602545475" lon="13.929784364327547"><ele>1058.4</ele><time>2026-05-02T10:59:24Z</time></trkpt><trkpt lat="41.777176459164785" lon="13.929660058611796"><ele>1057.8000000000002</ele><time>2026-05-02T10:59:25Z</time></trkpt><trkpt lat="41.77723142277269" lon="13.929539671651122"><ele>1057.1999999999998</ele><time>2026-05-02T10:59:26Z</time></trkpt><trkpt lat="41.77726941275385" lon="13.929414767019844"><ele>1056.6</ele><time>2026-05-02T10:59:27Z</time></trkpt><trkpt lat="41.777304860317074" lon="13.929282567917705"><ele>1056.0</ele><time>2026-05-02T10:59:28Z</time></trkpt><trkpt lat="41.77734114935262" lon="13.929147366373291"><ele>1054.8</ele><time>2026-05-02T10:59:29Z</time></trkpt><trkpt lat="41.77737595667364" lon="13.929005019284736"><ele>1053.6</ele><time>2026-05-02T10:59:30Z</time></trkpt><trkpt lat="41.77741184944848" lon="13.92886636076658"><ele>1052.4</ele><time>2026-05-02T10:59:31Z</time></trkpt><trkpt lat="41.7774468062648" lon="13.928735271039672"><ele>1051.2</ele><time>2026-05-02T10:59:32Z</time></trkpt><trkpt lat="41.777507213534356" lon="13.92863254028784"><ele>1050.0</ele><time>2026-05-02T10:59:33Z</time></trkpt><trkpt lat="41.77758595474132" lon="13.92853070500049"><ele>1050.0</ele><time>2026-05-02T10:59:34Z</time></trkpt><trkpt lat="41.77766650972385" lon="13.928457879812706"><ele>1050.0</ele><time>2026-05-02T10:59:35Z</time></trkpt><trkpt lat="41.77776894970369" lon="13.928388290660118"><ele>1050.0</ele><time>2026-05-02T10:59:36Z</time></trkpt><trkpt lat="41.77784003476748" lon="13.928321373313135"><ele>1050.0</ele><time>2026-05-02T10:59:37Z</time></trkpt><trkpt lat="41.7779179772827" lon="13.928249695167025"><ele>1050.0</ele><time>2026-05-02T10:59:38Z</time></trkpt><trkpt lat="41.777981601295544" lon="13.92818837801957"><ele>1054.8</ele><time>2026-05-02T10:59:39Z</time></trkpt><trkpt lat="41.77799818628079" lon="13.92805452552775"><ele>1059.6</ele><time>2026-05-02T10:59:40Z</time></trkpt><trkpt lat="41.777997378218714" lon="13.92792350697814"><ele>1064.4</ele><time>2026-05-02T10:59:41Z</time></trkpt><trkpt lat="41.77791541468057" lon="13.927804547107877"><ele>1069.2</ele><time>2026-05-02T10:59:42Z</time></trkpt><trkpt lat="41.77783693330083" lon="13.927742723981781"><ele>1074.0</ele><time>2026-05-02T10:59:43Z</time></trkpt><trkpt lat="41.777809341280445" lon="13.92766616559849"><ele>1074.0</ele><time>2026-05-02T10:59:46Z</time></trkpt><trkpt lat="41.77789846053288" lon="13.927576272732194"><ele>1074.0</ele><time>2026-05-02T10:59:48Z</time></trkpt><trkpt lat="41.77798817661193" lon="13.927480584276578"><ele>1074.0</ele><time>2026-05-02T10:59:50Z</time></trkpt><trkpt lat="41.777984033435395" lon="13.927360596056326"><ele>1074.0</ele><time>2026-05-02T10:59:51Z</time></trkpt><trkpt lat="41.777935285285366" lon="13.927240085977912"><ele>1074.0</ele><time>2026-05-02T10:59:52Z</time></trkpt><trkpt lat="41.777849081335056" lon="13.927153507464686"><ele>1074.6000000000001</ele><time>2026-05-02T10:59:53Z</time></trkpt><trkpt lat="41.77775248211247" lon="13.927091747153874"><ele>1075.2</ele><time>2026-05-02T10:59:54Z</time></trkpt><trkpt lat="41.777664102036596" lon="13.926987349061697"><ele>1075.8000000000002</ele><time>2026-05-02T10:59:55Z</time></trkpt><trkpt lat="41.77759039532811" lon="13.926915663690234"><ele>1076.4</ele><time>2026-05-02T10:59:56Z</time></trkpt><trkpt lat="41.777529804952565" lon="13.926851562779321"><ele>1077.0</ele><time>2026-05-02T10:59:57Z</time></trkpt><trkpt lat="41.77747799999352" lon="13.92677811292501"><ele>1072.0</ele><time>2026-05-02T10:59:58Z</time></trkpt><trkpt lat="41.77747277699281" lon="13.926672350444072"><ele>1067.0</ele><time>2026-05-02T10:59:59Z</time></trkpt><trkpt lat="41.777471495365205" lon="13.926536719532612"><ele>1062.0</ele><time>2026-05-02T11:00:00Z</time></trkpt><trkpt lat="41.77745842193237" lon="13.926397151081412"><ele>1057.0</ele><time>2026-05-02T11:00:01Z</time></trkpt><trkpt lat="41.77745269685953" lon="13.926248982502221"><ele>1052.0</ele><time>2026-05-02T11:00:02Z</time></trkpt><trkpt lat="41.777425948717855" lon="13.926097630601268"><ele>1052.0</ele><time>2026-05-02T11:00:03Z</time></trkpt><trkpt lat="41.77740190780153" lon="13.92594804294564"><ele>1052.0</ele><time>2026-05-02T11:00:04Z</time></trkpt><trkpt lat="41.77734562790368" lon="13.925807584897324"><ele>1052.0</ele><time>2026-05-02T11:00:05Z</time></trkpt><trkpt lat="41.77727991391648" lon="13.925671151844236"><ele>1052.0</ele><time>2026-05-02T11:00:06Z</time></trkpt><trkpt lat="41.77721061298755" lon="13.925533670455076"><ele>1058.25</ele><time>2026-05-02T11:00:07Z</time></trkpt><trkpt lat="41.77714880464781" lon="13.925392522930963"><ele>1064.5</ele><time>2026-05-02T11:00:08Z</time></trkpt><trkpt lat="41.777092831167245" lon="13.92523970114861"><ele>1070.75</ele><time>2026-05-02T11:00:09Z</time></trkpt><trkpt lat="41.77706744922186" lon="13.925074713539761"><ele>1077.0</ele><time>2026-05-02T11:00:10Z</time></trkpt><trkpt lat="41.77705273225574" lon="13.92490198838786"><ele>1079.75</ele><time>2026-05-02T11:00:11Z</time></trkpt><trkpt lat="41.777056678770215" lon="13.924723235045485"><ele>1082.5</ele><time>2026-05-02T11:00:12Z</time></trkpt><trkpt lat="41.77706140031866" lon="13.924525958245347"><ele>1085.25</ele><time>2026-05-02T11:00:13Z</time></trkpt><trkpt lat="41.777081843754004" lon="13.924345270615522"><ele>1088.0</ele><time>2026-05-02T11:00:14Z</time></trkpt><trkpt lat="41.777095543168464" lon="13.924169095499915"><ele>1088.0</ele><time>2026-05-02T11:00:15Z</time></trkpt><trkpt lat="41.77711325502502" lon="13.923988469431878"><ele>1088.0</ele><time>2026-05-02T11:00:16Z</time></trkpt><trkpt lat="41.777144285666786" lon="13.923797714640985"><ele>1088.0</ele><time>2026-05-02T11:00:17Z</time></trkpt><trkpt lat="41.77715780172918" lon="13.923632455672394"><ele>1088.0</ele><time>2026-05-02T11:00:18Z</time></trkpt><trkpt lat="41.777214028926174" lon="13.923454582945043"><ele>1086.25</ele><time>2026-05-02T11:00:19Z</time></trkpt><trkpt lat="41.777266160926565" lon="13.923272874878705"><ele>1084.5</ele><time>2026-05-02T11:00:20Z</time></trkpt><trkpt lat="41.77732562938732" lon="13.9230960556902"><ele>1082.75</ele><time>2026-05-02T11:00:21Z</time></trkpt><trkpt lat="41.77739921214254" lon="13.92292109458875"><ele>1081.0</ele><time>2026-05-02T11:00:22Z</time></trkpt><trkpt lat="41.7774566220069" lon="13.922744711793074"><ele>1078.25</ele><time>2026-05-02T11:00:23Z</time></trkpt><trkpt lat="41.777496719225155" lon="13.922559721341523"><ele>1075.5</ele><time>2026-05-02T11:00:24Z</time></trkpt><trkpt lat="41.77753140448252" lon="13.922371007823077"><ele>1072.75</ele><time>2026-05-02T11:00:25Z</time></trkpt><trkpt lat="41.7775692148326" lon="13.922184474372683"><ele>1070.0</ele><time>2026-05-02T11:00:26Z</time></trkpt><trkpt lat="41.777609580320686" lon="13.921996038933004"><ele>1070.0</ele><time>2026-05-02T11:00:27Z</time></trkpt><trkpt lat="41.77765602016948" lon="13.921808674786792"><ele>1070.0</ele><time>2026-05-02T11:00:28Z</time></trkpt><trkpt lat="41.77771363769718" lon="13.92161301110188"><ele>1070.0</ele><time>2026-05-02T11:00:29Z</time></trkpt><trkpt lat="41.777770106457595" lon="13.921436140302319"><ele>1070.0</ele><time>2026-05-02T11:00:30Z</time></trkpt><trkpt lat="41.77783868672974" lon="13.921248028446145"><ele>1074.0</ele><time>2026-05-02T11:00:31Z</time></trkpt><trkpt lat="41.777908957079696" lon="13.921081251743894"><ele>1078.0</ele><time>2026-05-02T11:00:32Z</time></trkpt><trkpt lat="41.77798561202689" lon="13.920916767348274"><ele>1082.0</ele><time>2026-05-02T11:00:33Z</time></trkpt><trkpt lat="41.77805218446044" lon="13.920774928613364"><ele>1086.0</ele><time>2026-05-02T11:00:34Z</time></trkpt><trkpt lat="41.778102300727255" lon="13.920632326937948"><ele>1086.0</ele><time>2026-05-02T11:00:35Z</time></trkpt><trkpt lat="41.778130863411135" lon="13.92048429282239"><ele>1086.0</ele><time>2026-05-02T11:00:36Z</time></trkpt><trkpt lat="41.77818181319354" lon="13.920351549465718"><ele>1086.0</ele><time>2026-05-02T11:00:37Z</time></trkpt><trkpt lat="41.77825096702723" lon="13.920224910284537"><ele>1086.0</ele><time>2026-05-02T11:00:38Z</time></trkpt><trkpt lat="41.77833714327954" lon="13.920111541804674"><ele>1090.25</ele><time>2026-05-02T11:00:39Z</time></trkpt><trkpt lat="41.77844098951964" lon="13.92000010561605"><ele>1094.5</ele><time>2026-05-02T11:00:40Z</time></trkpt><trkpt lat="41.77855164049288" lon="13.919918523972823"><ele>1098.75</ele><time>2026-05-02T11:00:41Z</time></trkpt><trkpt lat="41.77863789590625" lon="13.919815108697966"><ele>1103.0</ele><time>2026-05-02T11:00:42Z</time></trkpt><trkpt lat="41.77867035695745" lon="13.919674588411626"><ele>1103.0</ele><time>2026-05-02T11:00:43Z</time></trkpt><trkpt lat="41.778676250831005" lon="13.919540983366069"><ele>1103.0</ele><time>2026-05-02T11:00:44Z</time></trkpt><trkpt lat="41.77864477473693" lon="13.919398989102792"><ele>1103.0</ele><time>2026-05-02T11:00:45Z</time></trkpt><trkpt lat="41.77862705603712" lon="13.919264965624905"><ele>1103.0</ele><time>2026-05-02T11:00:46Z</time></trkpt><trkpt lat="41.77864307712097" lon="13.919119370286023"><ele>1103.0</ele><time>2026-05-02T11:00:47Z</time></trkpt><trkpt lat="41.778691829191715" lon="13.918975872065092"><ele>1101.75</ele><time>2026-05-02T11:00:48Z</time></trkpt><trkpt lat="41.77872544953158" lon="13.918820398454455"><ele>1100.5</ele><time>2026-05-02T11:00:49Z</time></trkpt><trkpt lat="41.778767527892896" lon="13.91866518997396"><ele>1099.25</ele><time>2026-05-02T11:00:50Z</time></trkpt><trkpt lat="41.77880609888361" lon="13.918505371363825"><ele>1098.0</ele><time>2026-05-02T11:00:51Z</time></trkpt><trkpt lat="41.77884323231231" lon="13.918357046468861"><ele>1096.0</ele><time>2026-05-02T11:00:52Z</time></trkpt><trkpt lat="41.77887257118625" lon="13.918223765108053"><ele>1094.0</ele><time>2026-05-02T11:00:53Z</time></trkpt><trkpt lat="41.778911170629904" lon="13.918117834290234"><ele>1092.0</ele><time>2026-05-02T11:00:54Z</time></trkpt><trkpt lat="41.778935753193" lon="13.918027816259132"><ele>1090.0</ele><time>2026-05-02T11:00:55Z</time></trkpt><trkpt lat="41.77903274824572" lon="13.917956048856304"><ele>1088.0</ele><time>2026-05-02T11:00:57Z</time></trkpt><trkpt lat="41.77909867993129" lon="13.917999401257298"><ele>1086.0</ele><time>2026-05-02T11:00:58Z</time></trkpt><trkpt lat="41.779130475474844" lon="13.918098071335264"><ele>1086.0</ele><time>2026-05-02T11:00:59Z</time></trkpt><trkpt lat="41.77912012293497" lon="13.918189603565736"><ele>1086.0</ele><time>2026-05-02T11:01:00Z</time></trkpt><trkpt lat="41.779090253562536" lon="13.91830722928137"><ele>1086.0</ele><time>2026-05-02T11:01:01Z</time></trkpt><trkpt lat="41.779026497875" lon="13.918420570048937"><ele>1086.0</ele><time>2026-05-02T11:01:02Z</time></trkpt><trkpt lat="41.77897494601709" lon="13.918545260284931"><ele>1086.0</ele><time>2026-05-02T11:01:03Z</time></trkpt><trkpt lat="41.77891648758335" lon="13.918685312024264"><ele>1089.0</ele><time>2026-05-02T11:01:04Z</time></trkpt><trkpt lat="41.778859920772376" lon="13.918834491147695"><ele>1092.0</ele><time>2026-05-02T11:01:05Z</time></trkpt><trkpt lat="41.77881889950963" lon="13.919001276626352"><ele>1095.0</ele><time>2026-05-02T11:01:06Z</time></trkpt><trkpt lat="41.77882646481145" lon="13.919178294668994"><ele>1098.0</ele><time>2026-05-02T11:01:07Z</time></trkpt><trkpt lat="41.77882679254697" lon="13.919351520073036"><ele>1099.25</ele><time>2026-05-02T11:01:08Z</time></trkpt><trkpt lat="41.77884372814733" lon="13.919520094013887"><ele>1100.5</ele><time>2026-05-02T11:01:09Z</time></trkpt><trkpt lat="41.77885570466933" lon="13.919671948352402"><ele>1101.75</ele><time>2026-05-02T11:01:10Z</time></trkpt><trkpt lat="41.77884607228113" lon="13.91981217312412"><ele>1103.0</ele><time>2026-05-02T11:01:11Z</time></trkpt><trkpt lat="41.77880603164819" lon="13.919941913118324"><ele>1103.0</ele><time>2026-05-02T11:01:12Z</time></trkpt><trkpt lat="41.778751375467124" lon="13.92005671860314"><ele>1103.0</ele><time>2026-05-02T11:01:13Z</time></trkpt><trkpt lat="41.778647196819584" lon="13.92012551279182"><ele>1103.0</ele><time>2026-05-02T11:01:14Z</time></trkpt><trkpt lat="41.7785599428695" lon="13.920221252554766"><ele>1103.0</ele><time>2026-05-02T11:01:15Z</time></trkpt><trkpt lat="41.77848173735893" lon="13.920303970996676"><ele>1103.0</ele><time>2026-05-02T11:01:16Z</time></trkpt><trkpt lat="41.778413632623604" lon="13.92041037199491"><ele>1105.5</ele><time>2026-05-02T11:01:17Z</time></trkpt><trkpt lat="41.778338854179026" lon="13.92051999310533"><ele>1108.0</ele><time>2026-05-02T11:01:18Z</time></trkpt><trkpt lat="41.778286183795714" lon="13.920663053052154"><ele>1110.5</ele><time>2026-05-02T11:01:19Z</time></trkpt><trkpt lat="41.77824148028" lon="13.920808956772841"><ele>1113.0</ele><time>2026-05-02T11:01:20Z</time></trkpt><trkpt lat="41.77821270500041" lon="13.92096232597818"><ele>1113.0</ele><time>2026-05-02T11:01:21Z</time></trkpt><trkpt lat="41.77815078956983" lon="13.921104467081628"><ele>1113.0</ele><time>2026-05-02T11:01:22Z</time></trkpt><trkpt lat="41.77810815297224" lon="13.921248804559827"><ele>1113.0</ele><time>2026-05-02T11:01:23Z</time></trkpt><trkpt lat="41.77806850582609" lon="13.921384835097523"><ele>1113.0</ele><time>2026-05-02T11:01:24Z</time></trkpt><trkpt lat="41.778032018400594" lon="13.92151924374642"><ele>1113.0</ele><time>2026-05-02T11:01:25Z</time></trkpt><trkpt lat="41.77802842928911" lon="13.921638361491743"><ele>1113.0</ele><time>2026-05-02T11:01:26Z</time></trkpt><trkpt lat="41.77799599310249" lon="13.921742174553232"><ele>1113.0</ele><time>2026-05-02T11:01:27Z</time></trkpt><trkpt lat="41.77797816971465" lon="13.921836410400868"><ele>1113.0</ele><time>2026-05-02T11:01:28Z</time></trkpt><trkpt lat="41.77796074849193" lon="13.921932351576482"><ele>1113.0</ele><time>2026-05-02T11:01:29Z</time></trkpt><trkpt lat="41.777941255105105" lon="13.922065026637137"><ele>1113.0</ele><time>2026-05-02T11:01:30Z</time></trkpt><trkpt lat="41.77790926398736" lon="13.922211441680664"><ele>1116.5</ele><time>2026-05-02T11:01:31Z</time></trkpt><trkpt lat="41.77789040423654" lon="13.922385899400773"><ele>1120.0</ele><time>2026-05-02T11:01:32Z</time></trkpt><trkpt lat="41.77788299950515" lon="13.92255256283578"><ele>1123.5</ele><time>2026-05-02T11:01:33Z</time></trkpt><trkpt lat="41.77786940620878" lon="13.922724938719274"><ele>1127.0</ele><time>2026-05-02T11:01:34Z</time></trkpt><trkpt lat="41.77783434699112" lon="13.922907355934074"><ele>1130.5</ele><time>2026-05-02T11:01:35Z</time></trkpt><trkpt lat="41.77778919760292" lon="13.923087931115857"><ele>1134.0</ele><time>2026-05-02T11:01:36Z</time></trkpt><trkpt lat="41.77772859963995" lon="13.923233159099292"><ele>1137.5</ele><time>2026-05-02T11:01:37Z</time></trkpt><trkpt lat="41.777681247692804" lon="13.923373090530367"><ele>1141.0</ele><time>2026-05-02T11:01:38Z</time></trkpt><trkpt lat="41.777640793052626" lon="13.923529373762888"><ele>1127.75</ele><time>2026-05-02T11:01:39Z</time></trkpt><trkpt lat="41.77761327980697" lon="13.923677462842832"><ele>1114.5</ele><time>2026-05-02T11:01:40Z</time></trkpt><trkpt lat="41.777621214200266" lon="13.923830889777026"><ele>1101.25</ele><time>2026-05-02T11:01:41Z</time></trkpt><trkpt lat="41.77761160583243" lon="13.923988242033388"><ele>1088.0</ele><time>2026-05-02T11:01:42Z</time></trkpt><trkpt lat="41.77758932864143" lon="13.924153498205674"><ele>1089.25</ele><time>2026-05-02T11:01:43Z</time></trkpt><trkpt lat="41.777578386766265" lon="13.924309908315674"><ele>1090.5</ele><time>2026-05-02T11:01:44Z</time></trkpt><trkpt lat="41.77756608802904" lon="13.924461988999521"><ele>1091.75</ele><time>2026-05-02T11:01:45Z</time></trkpt><trkpt lat="41.777563157168366" lon="13.924632314692046"><ele>1093.0</ele><time>2026-05-02T11:01:46Z</time></trkpt><trkpt lat="41.77757691867075" lon="13.924794195560503"><ele>1093.0</ele><time>2026-05-02T11:01:47Z</time></trkpt><trkpt lat="41.77761537033881" lon="13.924974624310174"><ele>1093.0</ele><time>2026-05-02T11:01:48Z</time></trkpt><trkpt lat="41.77770145884368" lon="13.925132191416695"><ele>1093.0</ele><time>2026-05-02T11:01:49Z</time></trkpt><trkpt lat="41.777789581953186" lon="13.925281075788037"><ele>1093.0</ele><time>2026-05-02T11:01:50Z</time></trkpt><trkpt lat="41.777890468821134" lon="13.925416456610101"><ele>1096.25</ele><time>2026-05-02T11:01:51Z</time></trkpt><trkpt lat="41.77797904789407" lon="13.925526753819755"><ele>1099.5</ele><time>2026-05-02T11:01:52Z</time></trkpt><trkpt lat="41.77804958081725" lon="13.925670835014436"><ele>1102.75</ele><time>2026-05-02T11:01:53Z</time></trkpt><trkpt lat="41.77810436195406" lon="13.925825203023122"><ele>1106.0</ele><time>2026-05-02T11:01:54Z</time></trkpt><trkpt lat="41.778147314668075" lon="13.92597654934331"><ele>1106.0</ele><time>2026-05-02T11:01:55Z</time></trkpt><trkpt lat="41.77817797799994" lon="13.926121626664765"><ele>1106.0</ele><time>2026-05-02T11:01:56Z</time></trkpt><trkpt lat="41.778217777171086" lon="13.926260735418396"><ele>1106.0</ele><time>2026-05-02T11:01:57Z</time></trkpt><trkpt lat="41.77827623719844" lon="13.926395029479595"><ele>1106.0</ele><time>2026-05-02T11:01:58Z</time></trkpt><trkpt lat="41.778373946179656" lon="13.926522511105201"><ele>1106.0</ele><time>2026-05-02T11:01:59Z</time></trkpt><trkpt lat="41.77848596680525" lon="13.926636794136128"><ele>1106.0</ele><time>2026-05-02T11:02:00Z</time></trkpt><trkpt lat="41.77859112011757" lon="13.926731134754004"><ele>1106.0</ele><time>2026-05-02T11:02:01Z</time></trkpt><trkpt lat="41.77874043801056" lon="13.926857226336502"><ele>1106.0</ele><time>2026-05-02T11:02:02Z</time></trkpt><trkpt lat="41.77890435173684" lon="13.926988536269157"><ele>1108.3333333333335</ele><time>2026-05-02T11:02:03Z</time></trkpt><trkpt lat="41.779075462890475" lon="13.927125541643614"><ele>1110.6666666666667</ele><time>2026-05-02T11:02:04Z</time></trkpt><trkpt lat="41.779244232705864" lon="13.927260344359755"><ele>1113.0</ele><time>2026-05-02T11:02:05Z</time></trkpt><trkpt lat="41.77939244774431" lon="13.927391487396957"><ele>1118.3333333333333</ele><time>2026-05-02T11:02:06Z</time></trkpt><trkpt lat="41.779515726865874" lon="13.927560035457073"><ele>1123.6666666666665</ele><time>2026-05-02T11:02:07Z</time></trkpt><trkpt lat="41.77964849695589" lon="13.927753115578977"><ele>1129.0</ele><time>2026-05-02T11:02:08Z</time></trkpt><trkpt lat="41.7797366429154" lon="13.927929801684813"><ele>1129.0</ele><time>2026-05-02T11:02:09Z</time></trkpt><trkpt lat="41.779821965855895" lon="13.928071891697611"><ele>1129.0</ele><time>2026-05-02T11:02:10Z</time></trkpt><trkpt lat="41.77990445884042" lon="13.928225784996073"><ele>1129.0</ele><time>2026-05-02T11:02:11Z</time></trkpt><trkpt lat="41.77992831614681" lon="13.928339803574596"><ele>1129.0</ele><time>2026-05-02T11:02:12Z</time></trkpt><trkpt lat="41.77995016151367" lon="13.928519202534464"><ele>1132.0</ele><time>2026-05-02T11:02:13Z</time></trkpt><trkpt lat="41.77991552708362" lon="13.928655338390028"><ele>1135.0</ele><time>2026-05-02T11:02:14Z</time></trkpt><trkpt lat="41.77984387447918" lon="13.928751293993187"><ele>1138.0</ele><time>2026-05-02T11:02:15Z</time></trkpt><trkpt lat="41.77973180719012" lon="13.92881535601093"><ele>1141.0</ele><time>2026-05-02T11:02:16Z</time></trkpt><trkpt lat="41.77958173641888" lon="13.92891457545917"><ele>1141.0</ele><time>2026-05-02T11:02:17Z</time></trkpt><trkpt lat="41.77942379785157" lon="13.929033907962172"><ele>1141.0</ele><time>2026-05-02T11:02:18Z</time></trkpt><trkpt lat="41.77926054456788" lon="13.92914360749938"><ele>1141.0</ele><time>2026-05-02T11:02:19Z</time></trkpt><trkpt lat="41.77908766104756" lon="13.929252700734507"><ele>1143.6666666666665</ele><time>2026-05-02T11:02:20Z</time></trkpt><trkpt lat="41.7789436535934" lon="13.929357401493048"><ele>1146.3333333333333</ele><time>2026-05-02T11:02:21Z</time></trkpt><trkpt lat="41.77882105970922" lon="13.92948210794808"><ele>1149.0</ele><time>2026-05-02T11:02:22Z</time></trkpt><trkpt lat="41.77870405938053" lon="13.929624417372493"><ele>1149.0</ele><time>2026-05-02T11:02:23Z</time></trkpt><trkpt lat="41.77864467129103" lon="13.929813011628005"><ele>1149.0</ele><time>2026-05-02T11:02:24Z</time></trkpt><trkpt lat="41.77860352785117" lon="13.93001382973069"><ele>1149.0</ele><time>2026-05-02T11:02:25Z</time></trkpt><trkpt lat="41.77859510045517" lon="13.930225570572732"><ele>1153.6666666666667</ele><time>2026-05-02T11:02:26Z</time></trkpt><trkpt lat="41.77859004662684" lon="13.930470753527429"><ele>1158.3333333333335</ele><time>2026-05-02T11:02:27Z</time></trkpt><trkpt lat="41.77857791891908" lon="13.930672910699322"><ele>1163.0</ele><time>2026-05-02T11:02:28Z</time></trkpt><trkpt lat="41.77858398983579" lon="13.930931311690529"><ele>1163.0</ele><time>2026-05-02T11:02:29Z</time></trkpt><trkpt lat="41.778615699033" lon="13.931219749728363"><ele>1163.0</ele><time>2026-05-02T11:02:30Z</time></trkpt><trkpt lat="41.77864798858956" lon="13.931442062218819"><ele>1163.0</ele><time>2026-05-02T11:02:31Z</time></trkpt><trkpt lat="41.778690250982535" lon="13.931689779856699"><ele>1161.0</ele><time>2026-05-02T11:02:32Z</time></trkpt><trkpt lat="41.778732740001075" lon="13.931933299724797"><ele>1159.0</ele><time>2026-05-02T11:02:33Z</time></trkpt><trkpt lat="41.7787730977399" lon="13.932164176419398"><ele>1157.0</ele><time>2026-05-02T11:02:34Z</time></trkpt><trkpt lat="41.77880255118189" lon="13.932390618995587"><ele>1156.6666666666667</ele><time>2026-05-02T11:02:35Z</time></trkpt><trkpt lat="41.77879655441337" lon="13.93261805996568"><ele>1156.3333333333333</ele><time>2026-05-02T11:02:36Z</time></trkpt><trkpt lat="41.778750950641474" lon="13.932850258465429"><ele>1156.0</ele><time>2026-05-02T11:02:37Z</time></trkpt><trkpt lat="41.77869791569063" lon="13.93310435251782"><ele>1156.0</ele><time>2026-05-02T11:02:38Z</time></trkpt><trkpt lat="41.77868883616382" lon="13.93333926823522"><ele>1156.0</ele><time>2026-05-02T11:02:39Z</time></trkpt><trkpt lat="41.778668988848516" lon="13.933555331114354"><ele>1156.0</ele><time>2026-05-02T11:02:40Z</time></trkpt><trkpt lat="41.77867631567786" lon="13.933736659329558"><ele>1154.0</ele><time>2026-05-02T11:02:41Z</time></trkpt><trkpt lat="41.77870885492303" lon="13.933908096264068"><ele>1152.0</ele><time>2026-05-02T11:02:42Z</time></trkpt><trkpt lat="41.77877141791521" lon="13.93410234442137"><ele>1150.0</ele><time>2026-05-02T11:02:43Z</time></trkpt><trkpt lat="41.77887445312984" lon="13.934243081485073"><ele>1148.0</ele><time>2026-05-02T11:02:44Z</time></trkpt><trkpt lat="41.77900596108996" lon="13.934351504076258"><ele>1138.25</ele><time>2026-05-02T11:02:45Z</time></trkpt><trkpt lat="41.77916993344729" lon="13.934399023218702"><ele>1128.5</ele><time>2026-05-02T11:02:46Z</time></trkpt><trkpt lat="41.779298473791194" lon="13.934372149578452"><ele>1118.75</ele><time>2026-05-02T11:02:47Z</time></trkpt><trkpt lat="41.77939070905272" lon="13.934342357912618"><ele>1109.0</ele><time>2026-05-02T11:02:48Z</time></trkpt><trkpt lat="41.779497235439436" lon="13.93424688082592"><ele>1119.25</ele><time>2026-05-02T11:02:49Z</time></trkpt><trkpt lat="41.77964488787038" lon="13.934151692973005"><ele>1129.5</ele><time>2026-05-02T11:02:50Z</time></trkpt><trkpt lat="41.779778144392864" lon="13.934075640204373"><ele>1139.75</ele><time>2026-05-02T11:02:51Z</time></trkpt><trkpt lat="41.7799106827423" lon="13.934033854012581"><ele>1150.0</ele><time>2026-05-02T11:02:52Z</time></trkpt><trkpt lat="41.78005132131622" lon="13.934003609828485"><ele>1154.3333333333333</ele><time>2026-05-02T11:02:53Z</time></trkpt><trkpt lat="41.78020180860199" lon="13.934029324918942"><ele>1158.6666666666667</ele><time>2026-05-02T11:02:54Z</time></trkpt><trkpt lat="41.78035013808032" lon="13.934070026034355"><ele>1163.0</ele><time>2026-05-02T11:02:55Z</time></trkpt><trkpt lat="41.78050052444706" lon="13.934123529530428"><ele>1163.0</ele><time>2026-05-02T11:02:56Z</time></trkpt><trkpt lat="41.780647942075234" lon="13.934180469059617"><ele>1163.0</ele><time>2026-05-02T11:02:57Z</time></trkpt><trkpt lat="41.78079885122512" lon="13.934263930375076"><ele>1163.0</ele><time>2026-05-02T11:02:58Z</time></trkpt><trkpt lat="41.78094489487196" lon="13.93438053680621"><ele>1158.3333333333335</ele><time>2026-05-02T11:02:59Z</time></trkpt><trkpt lat="41.78108424772762" lon="13.934494180959112"><ele>1153.6666666666667</ele><time>2026-05-02T11:03:00Z</time></trkpt><trkpt lat="41.781229873111236" lon="13.934557911232789"><ele>1149.0</ele><time>2026-05-02T11:03:01Z</time></trkpt><trkpt lat="41.78138257281383" lon="13.93463414132998"><ele>1149.0</ele><time>2026-05-02T11:03:02Z</time></trkpt><trkpt lat="41.78154017479557" lon="13.934683001387988"><ele>1149.0</ele><time>2026-05-02T11:03:03Z</time></trkpt><trkpt lat="41.781678202235" lon="13.93474466445675"><ele>1149.0</ele><time>2026-05-02T11:03:04Z</time></trkpt><trkpt lat="41.78183917045399" lon="13.934846794484738"><ele>1146.3333333333333</ele><time>2026-05-02T11:03:05Z</time></trkpt><trkpt lat="41.78198207313474" lon="13.934947766141372"><ele>1143.6666666666665</ele><time>2026-05-02T11:03:06Z</time></trkpt><trkpt lat="41.78215297938691" lon="13.935067747107995"><ele>1141.0</ele><time>2026-05-02T11:03:07Z</time></trkpt><trkpt lat="41.78232325772629" lon="13.935179444680827"><ele>1141.0</ele><time>2026-05-02T11:03:08Z</time></trkpt><trkpt lat="41.78249483105763" lon="13.93528807055236"><ele>1141.0</ele><time>2026-05-02T11:03:09Z</time></trkpt><trkpt lat="41.78266098702875" lon="13.935390534374353"><ele>1141.0</ele><time>2026-05-02T11:03:10Z</time></trkpt><trkpt lat="41.78281990312379" lon="13.935480934009822"><ele>1149.3333333333333</ele><time>2026-05-02T11:03:11Z</time></trkpt><trkpt lat="41.782981026659115" lon="13.935572558593632"><ele>1157.6666666666667</ele><time>2026-05-02T11:03:12Z</time></trkpt><trkpt lat="41.78314238867004" lon="13.935646595747821"><ele>1166.0</ele><time>2026-05-02T11:03:13Z</time></trkpt><trkpt lat="41.78331816035266" lon="13.93570504773825"><ele>1166.0</ele><time>2026-05-02T11:03:14Z</time></trkpt><trkpt lat="41.783487110212896" lon="13.935732298049228"><ele>1166.0</ele><time>2026-05-02T11:03:15Z</time></trkpt><trkpt lat="41.783629932684384" lon="13.935756470942469"><ele>1166.0</ele><time>2026-05-02T11:03:16Z</time></trkpt><trkpt lat="41.783760463513254" lon="13.935785883694312"><ele>1166.0</ele><time>2026-05-02T11:03:17Z</time></trkpt><trkpt lat="41.78388149293638" lon="13.935828685271593"><ele>1166.75</ele><time>2026-05-02T11:03:18Z</time></trkpt><trkpt lat="41.78396216053804" lon="13.935966519206737"><ele>1167.5</ele><time>2026-05-02T11:03:19Z</time></trkpt><trkpt lat="41.78403499554972" lon="13.936137217412538"><ele>1168.25</ele><time>2026-05-02T11:03:20Z</time></trkpt><trkpt lat="41.78409254210979" lon="13.936317654198586"><ele>1169.0</ele><time>2026-05-02T11:03:21Z</time></trkpt><trkpt lat="41.78414066179539" lon="13.936462706417087"><ele>1169.0</ele><time>2026-05-02T11:03:22Z</time></trkpt><trkpt lat="41.78419334808258" lon="13.93656634352522"><ele>1169.0</ele><time>2026-05-02T11:03:23Z</time></trkpt><trkpt lat="41.78427283092764" lon="13.936645854592927"><ele>1169.0</ele><time>2026-05-02T11:03:24Z</time></trkpt><trkpt lat="41.784399506069605" lon="13.936658950213339"><ele>1169.0</ele><time>2026-05-02T11:03:25Z</time></trkpt><trkpt lat="41.784531186983706" lon="13.93665587142145"><ele>1166.25</ele><time>2026-05-02T11:03:26Z</time></trkpt><trkpt lat="41.7846710253592" lon="13.93664511018913"><ele>1163.5</ele><time>2026-05-02T11:03:27Z</time></trkpt><trkpt lat="41.784814502200234" lon="13.936634857954097"><ele>1160.75</ele><time>2026-05-02T11:03:28Z</time></trkpt><trkpt lat="41.78497284387825" lon="13.93665428408731"><ele>1158.0</ele><time>2026-05-02T11:03:29Z</time></trkpt><trkpt lat="41.78511716902419" lon="13.936737987672272"><ele>1162.3333333333333</ele><time>2026-05-02T11:03:30Z</time></trkpt><trkpt lat="41.78527518426683" lon="13.936836109197596"><ele>1166.6666666666665</ele><time>2026-05-02T11:03:31Z</time></trkpt><trkpt lat="41.78542810093414" lon="13.936932097605187"><ele>1171.0</ele><time>2026-05-02T11:03:32Z</time></trkpt><trkpt lat="41.78557179912114" lon="13.937028563130676"><ele>1171.0</ele><time>2026-05-02T11:03:33Z</time></trkpt><trkpt lat="41.78571650367451" lon="13.937109005863318"><ele>1171.0</ele><time>2026-05-02T11:03:34Z</time></trkpt><trkpt lat="41.7858584409498" lon="13.937157805296337"><ele>1171.0</ele><time>2026-05-02T11:03:35Z</time></trkpt><trkpt lat="41.78602449781391" lon="13.937126879520486"><ele>1173.3333333333333</ele><time>2026-05-02T11:03:36Z</time></trkpt><trkpt lat="41.78619650640401" lon="13.937089395747051"><ele>1175.6666666666667</ele><time>2026-05-02T11:03:37Z</time></trkpt><trkpt lat="41.78637799996238" lon="13.937081446927051"><ele>1178.0</ele><time>2026-05-02T11:03:38Z</time></trkpt><trkpt lat="41.78654768622694" lon="13.937044094868545"><ele>1178.0</ele><time>2026-05-02T11:03:39Z</time></trkpt><trkpt lat="41.78669527472716" lon="13.937022882314361"><ele>1178.0</ele><time>2026-05-02T11:03:40Z</time></trkpt><trkpt lat="41.786835322335286" lon="13.937027631473445"><ele>1178.0</ele><time>2026-05-02T11:03:41Z</time></trkpt><trkpt lat="41.78696726522832" lon="13.937012049083718"><ele>1178.0</ele><time>2026-05-02T11:03:42Z</time></trkpt><trkpt lat="41.78710004005099" lon="13.93699495685527"><ele>1177.5</ele><time>2026-05-02T11:03:43Z</time></trkpt><trkpt lat="41.78723780223756" lon="13.936974026056799"><ele>1177.0</ele><time>2026-05-02T11:03:44Z</time></trkpt><trkpt lat="41.78737513388205" lon="13.93693293148186"><ele>1176.5</ele><time>2026-05-02T11:03:45Z</time></trkpt><trkpt lat="41.78751239143099" lon="13.936873501013336"><ele>1176.0</ele><time>2026-05-02T11:03:46Z</time></trkpt><trkpt lat="41.78764980499609" lon="13.936817346285698"><ele>1178.75</ele><time>2026-05-02T11:03:47Z</time></trkpt><trkpt lat="41.78778913650397" lon="13.93677817824134"><ele>1181.5</ele><time>2026-05-02T11:03:48Z</time></trkpt><trkpt lat="41.787919840097054" lon="13.93679993146689"><ele>1184.25</ele><time>2026-05-02T11:03:49Z</time></trkpt><trkpt lat="41.78806549622326" lon="13.936878184533217"><ele>1187.0</ele><time>2026-05-02T11:03:50Z</time></trkpt><trkpt lat="41.788228479667985" lon="13.936970061558036"><ele>1187.0</ele><time>2026-05-02T11:03:51Z</time></trkpt><trkpt lat="41.788401582370184" lon="13.937065928483412"><ele>1187.0</ele><time>2026-05-02T11:03:52Z</time></trkpt><trkpt lat="41.78856560540516" lon="13.937214069646759"><ele>1187.0</ele><time>2026-05-02T11:03:53Z</time></trkpt><trkpt lat="41.788730723421324" lon="13.937366443326438"><ele>1186.6666666666667</ele><time>2026-05-02T11:03:54Z</time></trkpt><trkpt lat="41.788891773694694" lon="13.937497308905911"><ele>1186.3333333333333</ele><time>2026-05-02T11:03:55Z</time></trkpt><trkpt lat="41.78906052317527" lon="13.937607810386616"><ele>1186.0</ele><time>2026-05-02T11:03:56Z</time></trkpt><trkpt lat="41.78924529424271" lon="13.93768159810727"><ele>1188.3333333333333</ele><time>2026-05-02T11:03:57Z</time></trkpt><trkpt lat="41.7894373336068" lon="13.937729071451196"><ele>1190.6666666666667</ele><time>2026-05-02T11:03:58Z</time></trkpt><trkpt lat="41.78962138884086" lon="13.937772091646536"><ele>1193.0</ele><time>2026-05-02T11:03:59Z</time></trkpt><trkpt lat="41.78981962552018" lon="13.937809748244739"><ele>1193.0</ele><time>2026-05-02T11:04:00Z</time></trkpt><trkpt lat="41.79001086884179" lon="13.937793331608143"><ele>1193.0</ele><time>2026-05-02T11:04:01Z</time></trkpt><trkpt lat="41.79020565811214" lon="13.937812775107036"><ele>1193.0</ele><time>2026-05-02T11:04:02Z</time></trkpt><trkpt lat="41.79039519348401" lon="13.937803328785117"><ele>1196.6666666666667</ele><time>2026-05-02T11:04:03Z</time></trkpt><trkpt lat="41.79058952355241" lon="13.937830150141153"><ele>1200.3333333333333</ele><time>2026-05-02T11:04:04Z</time></trkpt><trkpt lat="41.790783152329965" lon="13.93787648754259"><ele>1204.0</ele><time>2026-05-02T11:04:05Z</time></trkpt><trkpt lat="41.790973035218705" lon="13.937932492001812"><ele>1208.3333333333333</ele><time>2026-05-02T11:04:06Z</time></trkpt><trkpt lat="41.7911581924691" lon="13.937996697154375"><ele>1212.6666666666667</ele><time>2026-05-02T11:04:07Z</time></trkpt><trkpt lat="41.79134391239007" lon="13.93806881002261"><ele>1217.0</ele><time>2026-05-02T11:04:08Z</time></trkpt><trkpt lat="41.79152307794312" lon="13.938152544390427"><ele>1217.0</ele><time>2026-05-02T11:04:09Z</time></trkpt><trkpt lat="41.79169345309961" lon="13.938268418657044"><ele>1217.0</ele><time>2026-05-02T11:04:10Z</time></trkpt><trkpt lat="41.79185735481129" lon="13.938392382913095"><ele>1217.0</ele><time>2026-05-02T11:04:11Z</time></trkpt><trkpt lat="41.79202071723065" lon="13.938512526385361"><ele>1216.6666666666667</ele><time>2026-05-02T11:04:12Z</time></trkpt><trkpt lat="41.79219293271043" lon="13.938619401274973"><ele>1216.3333333333333</ele><time>2026-05-02T11:04:13Z</time></trkpt><trkpt lat="41.79237062226934" lon="13.93871406197153"><ele>1216.0</ele><time>2026-05-02T11:04:14Z</time></trkpt><trkpt lat="41.792546411329134" lon="13.938790880555795"><ele>1219.0</ele><time>2026-05-02T11:04:15Z</time></trkpt><trkpt lat="41.79272330134746" lon="13.938861900716814"><ele>1222.0</ele><time>2026-05-02T11:04:16Z</time></trkpt><trkpt lat="41.792898832079224" lon="13.938955074951604"><ele>1225.0</ele><time>2026-05-02T11:04:17Z</time></trkpt><trkpt lat="41.793078525148346" lon="13.939005657858981"><ele>1225.0</ele><time>2026-05-02T11:04:18Z</time></trkpt><trkpt lat="41.79326353618938" lon="13.939015964516035"><ele>1225.0</ele><time>2026-05-02T11:04:19Z</time></trkpt><trkpt lat="41.79344746875025" lon="13.93900071450386"><ele>1225.0</ele><time>2026-05-02T11:04:20Z</time></trkpt><trkpt lat="41.79363262867486" lon="13.938988396350844"><ele>1227.0</ele><time>2026-05-02T11:04:21Z</time></trkpt><trkpt lat="41.79380646423583" lon="13.939005425706661"><ele>1229.0</ele><time>2026-05-02T11:04:22Z</time></trkpt><trkpt lat="41.793969964374035" lon="13.939085857262592"><ele>1231.0</ele><time>2026-05-02T11:04:23Z</time></trkpt><trkpt lat="41.79412414587017" lon="13.939177503659304"><ele>1232.3333333333333</ele><time>2026-05-02T11:04:24Z</time></trkpt><trkpt lat="41.794271739169695" lon="13.939225815717924"><ele>1233.6666666666667</ele><time>2026-05-02T11:04:25Z</time></trkpt><trkpt lat="41.794422954858305" lon="13.93924350412772"><ele>1235.0</ele><time>2026-05-02T11:04:26Z</time></trkpt><trkpt lat="41.79459519239928" lon="13.939214680207263"><ele>1235.0</ele><time>2026-05-02T11:04:27Z</time></trkpt><trkpt lat="41.79477994435192" lon="13.93919666867814"><ele>1235.0</ele><time>2026-05-02T11:04:28Z</time></trkpt><trkpt lat="41.794965270538086" lon="13.93912749608865"><ele>1235.0</ele><time>2026-05-02T11:04:29Z</time></trkpt><trkpt lat="41.79515569763127" lon="13.93907571867595"><ele>1235.0</ele><time>2026-05-02T11:04:30Z</time></trkpt><trkpt lat="41.795344069389415" lon="13.939005476997215"><ele>1235.0</ele><time>2026-05-02T11:04:31Z</time></trkpt><trkpt lat="41.795527416823" lon="13.938921271843924"><ele>1235.0</ele><time>2026-05-02T11:04:32Z</time></trkpt><trkpt lat="41.79573690140451" lon="13.938896283882155"><ele>1235.0</ele><time>2026-05-02T11:04:33Z</time></trkpt><trkpt lat="41.795936475329746" lon="13.938830913570097"><ele>1235.0</ele><time>2026-05-02T11:04:34Z</time></trkpt><trkpt lat="41.796132351560836" lon="13.938776161808395"><ele>1235.0</ele><time>2026-05-02T11:04:35Z</time></trkpt><trkpt lat="41.7963048878412" lon="13.938732276015301"><ele>1235.75</ele><time>2026-05-02T11:04:36Z</time></trkpt><trkpt lat="41.79645025001547" lon="13.938708578240817"><ele>1236.5</ele><time>2026-05-02T11:04:37Z</time></trkpt><trkpt lat="41.79657209187241" lon="13.938725679005493"><ele>1237.25</ele><time>2026-05-02T11:04:38Z</time></trkpt><trkpt lat="41.79668662073263" lon="13.93880108130327"><ele>1238.0</ele><time>2026-05-02T11:04:39Z</time></trkpt><trkpt lat="41.79682301339672" lon="13.938892154715413"><ele>1239.0</ele><time>2026-05-02T11:04:40Z</time></trkpt><trkpt lat="41.796967504353894" lon="13.938968614419219"><ele>1240.0</ele><time>2026-05-02T11:04:41Z</time></trkpt><trkpt lat="41.7970723639309" lon="13.93905675347048"><ele>1241.0</ele><time>2026-05-02T11:04:42Z</time></trkpt><trkpt lat="41.79716743053499" lon="13.939072072561935"><ele>1242.0</ele><time>2026-05-02T11:04:43Z</time></trkpt><trkpt lat="41.797241669404094" lon="13.939056626882145"><ele>1242.0</ele><time>2026-05-02T11:04:44Z</time></trkpt><trkpt lat="41.79728521162518" lon="13.938988124273443"><ele>1242.0</ele><time>2026-05-02T11:04:45Z</time></trkpt><trkpt lat="41.79729745037799" lon="13.93888192201898"><ele>1242.0</ele><time>2026-05-02T11:04:46Z</time></trkpt><trkpt lat="41.7972700091495" lon="13.938736383019975"><ele>1242.0</ele><time>2026-05-02T11:04:47Z</time></trkpt><trkpt lat="41.797194583023135" lon="13.93864209648394"><ele>1242.0</ele><time>2026-05-02T11:04:48Z</time></trkpt><trkpt lat="41.797067785634376" lon="13.938544756805308"><ele>1242.0</ele><time>2026-05-02T11:04:49Z</time></trkpt><trkpt lat="41.79693355083124" lon="13.938416141760472"><ele>1242.0</ele><time>2026-05-02T11:04:50Z</time></trkpt><trkpt lat="41.796800170387264" lon="13.938266962377252"><ele>1242.0</ele><time>2026-05-02T11:04:51Z</time></trkpt><trkpt lat="41.796624320845844" lon="13.938152729053334"><ele>1244.6666666666667</ele><time>2026-05-02T11:04:52Z</time></trkpt><trkpt lat="41.79642312035854" lon="13.938068796589004"><ele>1247.3333333333335</ele><time>2026-05-02T11:04:53Z</time></trkpt><trkpt lat="41.796222889441786" lon="13.937953696456539"><ele>1250.0</ele><time>2026-05-02T11:04:54Z</time></trkpt><trkpt lat="41.79601805298681" lon="13.937823638239417"><ele>1248.0</ele><time>2026-05-02T11:04:55Z</time></trkpt><trkpt lat="41.79580992517127" lon="13.937679485454156"><ele>1246.0</ele><time>2026-05-02T11:04:56Z</time></trkpt><trkpt lat="41.79560134531881" lon="13.937520468471028"><ele>1252.0</ele><time>2026-05-02T11:04:57Z</time></trkpt><trkpt lat="41.79539313688628" lon="13.937353597999369"><ele>1258.0</ele><time>2026-05-02T11:04:58Z</time></trkpt><trkpt lat="41.79517341095627" lon="13.937214730347481"><ele>1256.6666666666665</ele><time>2026-05-02T11:04:59Z</time></trkpt><trkpt lat="41.79495538136495" lon="13.937111067638629"><ele>1255.3333333333333</ele><time>2026-05-02T11:05:00Z</time></trkpt><trkpt lat="41.79475166064169" lon="13.937027561890261"><ele>1254.0</ele><time>2026-05-02T11:05:01Z</time></trkpt><trkpt lat="41.7945674714155" lon="13.93693585881492"><ele>1254.0</ele><time>2026-05-02T11:05:02Z</time></trkpt><trkpt lat="41.79437403757832" lon="13.936904011983053"><ele>1254.0</ele><time>2026-05-02T11:05:03Z</time></trkpt><trkpt lat="41.79417766453646" lon="13.936889960407283"><ele>1254.0</ele><time>2026-05-02T11:05:04Z</time></trkpt><trkpt lat="41.79398760698588" lon="13.93687636073595"><ele>1253.3333333333333</ele><time>2026-05-02T11:05:05Z</time></trkpt><trkpt lat="41.79381795924293" lon="13.93683698906939"><ele>1252.6666666666665</ele><time>2026-05-02T11:05:06Z</time></trkpt><trkpt lat="41.793663679744036" lon="13.936772727963902"><ele>1252.0</ele><time>2026-05-02T11:05:07Z</time></trkpt><trkpt lat="41.793509102850734" lon="13.936706759549898"><ele>1257.6666666666665</ele><time>2026-05-02T11:05:08Z</time></trkpt><trkpt lat="41.79332406627903" lon="13.9366286306049"><ele>1263.3333333333333</ele><time>2026-05-02T11:05:09Z</time></trkpt><trkpt lat="41.79312571055718" lon="13.936544962171585"><ele>1269.0</ele><time>2026-05-02T11:05:10Z</time></trkpt><trkpt lat="41.79292465459623" lon="13.936471960113034"><ele>1269.0</ele><time>2026-05-02T11:05:11Z</time></trkpt><trkpt lat="41.792736452060396" lon="13.936369102494494"><ele>1269.0</ele><time>2026-05-02T11:05:12Z</time></trkpt><trkpt lat="41.79256739637995" lon="13.936230724189967"><ele>1269.0</ele><time>2026-05-02T11:05:13Z</time></trkpt><trkpt lat="41.79240224323655" lon="13.936101607825142"><ele>1266.5</ele><time>2026-05-02T11:05:14Z</time></trkpt><trkpt lat="41.79226046059512" lon="13.935994860075324"><ele>1264.0</ele><time>2026-05-02T11:05:15Z</time></trkpt><trkpt lat="41.79213827142296" lon="13.93591161388867"><ele>1261.5</ele><time>2026-05-02T11:05:16Z</time></trkpt><trkpt lat="41.79203294583773" lon="13.935846074014567"><ele>1259.0</ele><time>2026-05-02T11:05:17Z</time></trkpt><trkpt lat="41.79196706909166" lon="13.935786460868494"><ele>1263.8000000000002</ele><time>2026-05-02T11:05:18Z</time></trkpt><trkpt lat="41.79192711097326" lon="13.935646908230133"><ele>1268.6000000000001</ele><time>2026-05-02T11:05:20Z</time></trkpt><trkpt lat="41.79198073713414" lon="13.935568855058087"><ele>1273.4</ele><time>2026-05-02T11:05:21Z</time></trkpt><trkpt lat="41.792076919865586" lon="13.93556941888843"><ele>1278.2</ele><time>2026-05-02T11:05:22Z</time></trkpt><trkpt lat="41.7921338825733" lon="13.935668308033684"><ele>1283.0</ele><time>2026-05-02T11:05:23Z</time></trkpt><trkpt lat="41.7922246985503" lon="13.93575654322241"><ele>1283.0</ele><time>2026-05-02T11:05:24Z</time></trkpt><trkpt lat="41.79234204820219" lon="13.935865387133521"><ele>1283.0</ele><time>2026-05-02T11:05:25Z</time></trkpt><trkpt lat="41.792466646825574" lon="13.935965493553804"><ele>1283.0</ele><time>2026-05-02T11:05:26Z</time></trkpt><trkpt lat="41.7926174768434" lon="13.93606097400295"><ele>1278.3333333333335</ele><time>2026-05-02T11:05:27Z</time></trkpt><trkpt lat="41.79277595917836" lon="13.936139671461424"><ele>1273.6666666666667</ele><time>2026-05-02T11:05:28Z</time></trkpt><trkpt lat="41.792951704253085" lon="13.936168356123927"><ele>1269.0</ele><time>2026-05-02T11:05:29Z</time></trkpt><trkpt lat="41.79314651367039" lon="13.936165810101821"><ele>1269.0</ele><time>2026-05-02T11:05:30Z</time></trkpt><trkpt lat="41.79334373473155" lon="13.9361200248735"><ele>1269.0</ele><time>2026-05-02T11:05:31Z</time></trkpt><trkpt lat="41.79356000001167" lon="13.936093679873217"><ele>1269.0</ele><time>2026-05-02T11:05:32Z</time></trkpt><trkpt lat="41.79375697087239" lon="13.936082397956627"><ele>1269.3333333333333</ele><time>2026-05-02T11:05:33Z</time></trkpt><trkpt lat="41.79396344192963" lon="13.93607146815967"><ele>1269.6666666666665</ele><time>2026-05-02T11:05:34Z</time></trkpt><trkpt lat="41.79416147934834" lon="13.93603149031658"><ele>1270.0</ele><time>2026-05-02T11:05:35Z</time></trkpt><trkpt lat="41.79435764828364" lon="13.935963933285077"><ele>1276.3333333333333</ele><time>2026-05-02T11:05:36Z</time></trkpt><trkpt lat="41.794542496021435" lon="13.935855649015808"><ele>1282.6666666666667</ele><time>2026-05-02T11:05:37Z</time></trkpt><trkpt lat="41.79472825362357" lon="13.935765693096156"><ele>1289.0</ele><time>2026-05-02T11:05:38Z</time></trkpt><trkpt lat="41.794931885430145" lon="13.935724228013614"><ele>1289.0</ele><time>2026-05-02T11:05:39Z</time></trkpt><trkpt lat="41.795140070326525" lon="13.935691670460557"><ele>1289.0</ele><time>2026-05-02T11:05:40Z</time></trkpt><trkpt lat="41.795334504987316" lon="13.935684873147066"><ele>1289.0</ele><time>2026-05-02T11:05:41Z</time></trkpt><trkpt lat="41.795509845028135" lon="13.935682404254496"><ele>1291.0</ele><time>2026-05-02T11:05:42Z</time></trkpt><trkpt lat="41.79569590997449" lon="13.93575796977943"><ele>1293.0</ele><time>2026-05-02T11:05:43Z</time></trkpt><trkpt lat="41.79587458257929" lon="13.9358365399407"><ele>1295.0</ele><time>2026-05-02T11:05:44Z</time></trkpt><trkpt lat="41.79605624242071" lon="13.935875610554836"><ele>1297.0</ele><time>2026-05-02T11:05:45Z</time></trkpt><trkpt lat="41.79625629253873" lon="13.93585401407431"><ele>1299.0</ele><time>2026-05-02T11:05:46Z</time></trkpt><trkpt lat="41.796466805510214" lon="13.935807289044789"><ele>1301.0</ele><time>2026-05-02T11:05:47Z</time></trkpt><trkpt lat="41.79668482052037" lon="13.935782787860099"><ele>1301.0</ele><time>2026-05-02T11:05:48Z</time></trkpt><trkpt lat="41.796897750755626" lon="13.935723458778632"><ele>1301.0</ele><time>2026-05-02T11:05:49Z</time></trkpt><trkpt lat="41.79711623830235" lon="13.935680014846424"><ele>1301.0</ele><time>2026-05-02T11:05:50Z</time></trkpt><trkpt lat="41.79733763230159" lon="13.93564611937152"><ele>1301.0</ele><time>2026-05-02T11:05:51Z</time></trkpt><trkpt lat="41.79755951101301" lon="13.935613022672767"><ele>1301.0</ele><time>2026-05-02T11:05:52Z</time></trkpt><trkpt lat="41.79778031792764" lon="13.935593278200399"><ele>1301.0</ele><time>2026-05-02T11:05:53Z</time></trkpt><trkpt lat="41.7979983752298" lon="13.935587631717922"><ele>1302.3333333333335</ele><time>2026-05-02T11:05:54Z</time></trkpt><trkpt lat="41.79821058563042" lon="13.93564179172645"><ele>1303.6666666666667</ele><time>2026-05-02T11:05:55Z</time></trkpt><trkpt lat="41.79843455547871" lon="13.935709432893002"><ele>1305.0</ele><time>2026-05-02T11:05:56Z</time></trkpt><trkpt lat="41.798655755149" lon="13.935805323552403"><ele>1305.0</ele><time>2026-05-02T11:05:57Z</time></trkpt><trkpt lat="41.79887179980382" lon="13.935889591219096"><ele>1305.0</ele><time>2026-05-02T11:05:58Z</time></trkpt><trkpt lat="41.799072780199396" lon="13.935975641066056"><ele>1305.0</ele><time>2026-05-02T11:05:59Z</time></trkpt><trkpt lat="41.79923832829046" lon="13.936128500806275"><ele>1309.0</ele><time>2026-05-02T11:06:00Z</time></trkpt><trkpt lat="41.79938724128277" lon="13.93629851953402"><ele>1313.0</ele><time>2026-05-02T11:06:01Z</time></trkpt><trkpt lat="41.79952008233404" lon="13.936507170150225"><ele>1317.0</ele><time>2026-05-02T11:06:02Z</time></trkpt><trkpt lat="41.79965636686347" lon="13.936732074579245"><ele>1317.0</ele><time>2026-05-02T11:06:03Z</time></trkpt><trkpt lat="41.799793793078265" lon="13.936958640989642"><ele>1317.0</ele><time>2026-05-02T11:06:04Z</time></trkpt><trkpt lat="41.79993225711863" lon="13.937185631705564"><ele>1317.0</ele><time>2026-05-02T11:06:05Z</time></trkpt><trkpt lat="41.800065652600914" lon="13.937405662040838"><ele>1317.6666666666667</ele><time>2026-05-02T11:06:06Z</time></trkpt><trkpt lat="41.80019110882381" lon="13.937605682378406"><ele>1318.3333333333335</ele><time>2026-05-02T11:06:07Z</time></trkpt><trkpt lat="41.80032622951977" lon="13.937785790700286"><ele>1319.0</ele><time>2026-05-02T11:06:08Z</time></trkpt><trkpt lat="41.80048731856691" lon="13.937936657352434"><ele>1319.0</ele><time>2026-05-02T11:06:09Z</time></trkpt><trkpt lat="41.800665085709305" lon="13.938030709490974"><ele>1319.0</ele><time>2026-05-02T11:06:10Z</time></trkpt><trkpt lat="41.80086051064591" lon="13.9380575885161"><ele>1319.0</ele><time>2026-05-02T11:06:11Z</time></trkpt><trkpt lat="41.80105701894351" lon="13.938068094006393"><ele>1321.0</ele><time>2026-05-02T11:06:12Z</time></trkpt><trkpt lat="41.80122274911895" lon="13.938065140371895"><ele>1323.0</ele><time>2026-05-02T11:06:13Z</time></trkpt><trkpt lat="41.80138919268772" lon="13.938072972912474"><ele>1325.0</ele><time>2026-05-02T11:06:14Z</time></trkpt><trkpt lat="41.80153445459301" lon="13.938068286573749"><ele>1325.0</ele><time>2026-05-02T11:06:15Z</time></trkpt><trkpt lat="41.801671035711635" lon="13.938065454978478"><ele>1325.0</ele><time>2026-05-02T11:06:16Z</time></trkpt><trkpt lat="41.80180159499819" lon="13.93806805942677"><ele>1325.0</ele><time>2026-05-02T11:06:17Z</time></trkpt><trkpt lat="41.801929561132155" lon="13.938069051580351"><ele>1325.0</ele><time>2026-05-02T11:06:18Z</time></trkpt><trkpt lat="41.8020565681533" lon="13.938087552029907"><ele>1327.5</ele><time>2026-05-02T11:06:19Z</time></trkpt><trkpt lat="41.802180401543126" lon="13.93808273884156"><ele>1330.0</ele><time>2026-05-02T11:06:20Z</time></trkpt><trkpt lat="41.8023000820991" lon="13.938081464281797"><ele>1332.5</ele><time>2026-05-02T11:06:21Z</time></trkpt><trkpt lat="41.80241774150491" lon="13.938081659108915"><ele>1335.0</ele><time>2026-05-02T11:06:22Z</time></trkpt><trkpt lat="41.802533798610014" lon="13.93807822028611"><ele>1335.0</ele><time>2026-05-02T11:06:23Z</time></trkpt><trkpt lat="41.80265527157551" lon="13.938095084494961"><ele>1335.0</ele><time>2026-05-02T11:06:24Z</time></trkpt><trkpt lat="41.80277536616421" lon="13.938078608915305"><ele>1335.0</ele><time>2026-05-02T11:06:25Z</time></trkpt><trkpt lat="41.80289646449208" lon="13.938089268117334"><ele>1335.0</ele><time>2026-05-02T11:06:26Z</time></trkpt><trkpt lat="41.80302130164629" lon="13.938090545341618"><ele>1335.25</ele><time>2026-05-02T11:06:27Z</time></trkpt><trkpt lat="41.803151473612196" lon="13.93809159840997"><ele>1335.5</ele><time>2026-05-02T11:06:28Z</time></trkpt><trkpt lat="41.80328318368347" lon="13.93807686256958"><ele>1335.75</ele><time>2026-05-02T11:06:29Z</time></trkpt><trkpt lat="41.803420504769136" lon="13.93808625903986"><ele>1336.0</ele><time>2026-05-02T11:06:30Z</time></trkpt><trkpt lat="41.803558800959955" lon="13.938083645966657"><ele>1337.75</ele><time>2026-05-02T11:06:31Z</time></trkpt><trkpt lat="41.803706237844416" lon="13.938077762668293"><ele>1339.5</ele><time>2026-05-02T11:06:32Z</time></trkpt><trkpt lat="41.80385349232136" lon="13.938094038153578"><ele>1341.25</ele><time>2026-05-02T11:06:33Z</time></trkpt><trkpt lat="41.80399655278532" lon="13.93809570310185"><ele>1343.0</ele><time>2026-05-02T11:06:34Z</time></trkpt><trkpt lat="41.804147921971094" lon="13.93808803829092"><ele>1343.0</ele><time>2026-05-02T11:06:35Z</time></trkpt><trkpt lat="41.80429911014711" lon="13.938083812996249"><ele>1343.0</ele><time>2026-05-02T11:06:36Z</time></trkpt><trkpt lat="41.80445119419609" lon="13.938083702494755"><ele>1343.0</ele><time>2026-05-02T11:06:37Z</time></trkpt><trkpt lat="41.80460461206621" lon="13.93808830988789"><ele>1345.0</ele><time>2026-05-02T11:06:38Z</time></trkpt><trkpt lat="41.80475889076614" lon="13.938093433225935"><ele>1347.0</ele><time>2026-05-02T11:06:39Z</time></trkpt><trkpt lat="41.8049159512874" lon="13.938101437021432"><ele>1349.0</ele><time>2026-05-02T11:06:40Z</time></trkpt><trkpt lat="41.80507697296193" lon="13.93812224665903"><ele>1351.3333333333335</ele><time>2026-05-02T11:06:41Z</time></trkpt><trkpt lat="41.8052327619943" lon="13.938163130270045"><ele>1353.6666666666667</ele><time>2026-05-02T11:06:42Z</time></trkpt><trkpt lat="41.80538584185627" lon="13.938235946111197"><ele>1356.0</ele><time>2026-05-02T11:06:43Z</time></trkpt><trkpt lat="41.805538464307425" lon="13.938297587959443"><ele>1356.0</ele><time>2026-05-02T11:06:44Z</time></trkpt><trkpt lat="41.805669837272355" lon="13.938353766041503"><ele>1356.0</ele><time>2026-05-02T11:06:45Z</time></trkpt><trkpt lat="41.80576810310962" lon="13.938386479108953"><ele>1356.0</ele><time>2026-05-02T11:06:46Z</time></trkpt><trkpt lat="41.80585037015676" lon="13.938382810499657"><ele>1356.0</ele><time>2026-05-02T11:06:47Z</time></trkpt><trkpt lat="41.8059064977938" lon="13.938285065197029"><ele>1356.0</ele><time>2026-05-02T11:06:48Z</time></trkpt><trkpt lat="41.8059111032634" lon="13.93816321137071"><ele>1356.0</ele><time>2026-05-02T11:06:49Z</time></trkpt><trkpt lat="41.80586402215857" lon="13.938055322316064"><ele>1356.0</ele><time>2026-05-02T11:06:50Z</time></trkpt><trkpt lat="41.8057553838156" lon="13.937995785871328"><ele>1356.0</ele><time>2026-05-02T11:06:51Z</time></trkpt><trkpt lat="41.80560250061529" lon="13.937961986417283"><ele>1356.0</ele><time>2026-05-02T11:06:52Z</time></trkpt><trkpt lat="41.80543288103585" lon="13.937897120846904"><ele>1356.0</ele><time>2026-05-02T11:06:53Z</time></trkpt><trkpt lat="41.805242764282" lon="13.937797852976704"><ele>1356.0</ele><time>2026-05-02T11:06:54Z</time></trkpt><trkpt lat="41.805031746438424" lon="13.937712254331274"><ele>1356.0</ele><time>2026-05-02T11:06:55Z</time></trkpt><trkpt lat="41.804809140640224" lon="13.9376143829445"><ele>1361.0</ele><time>2026-05-02T11:06:56Z</time></trkpt><trkpt lat="41.80457521930473" lon="13.937515939423344"><ele>1366.0</ele><time>2026-05-02T11:06:57Z</time></trkpt><trkpt lat="41.80435738381112" lon="13.937417110356428"><ele>1363.3333333333333</ele><time>2026-05-02T11:06:58Z</time></trkpt><trkpt lat="41.804151146030875" lon="13.937314513888493"><ele>1360.6666666666667</ele><time>2026-05-02T11:06:59Z</time></trkpt><trkpt lat="41.80395941433293" lon="13.93718494653367"><ele>1358.0</ele><time>2026-05-02T11:07:00Z</time></trkpt><trkpt lat="41.803781549176804" lon="13.93701112098063"><ele>1358.0</ele><time>2026-05-02T11:07:01Z</time></trkpt><trkpt lat="41.80360870562804" lon="13.936782703457151"><ele>1358.0</ele><time>2026-05-02T11:07:02Z</time></trkpt><trkpt lat="41.803437147237545" lon="13.936539716024862"><ele>1361.5</ele><time>2026-05-02T11:07:03Z</time></trkpt><trkpt lat="41.80325441186669" lon="13.936292562029593"><ele>1365.0</ele><time>2026-05-02T11:07:04Z</time></trkpt><trkpt lat="41.803071610037335" lon="13.936035332887972"><ele>1373.0</ele><time>2026-05-02T11:07:05Z</time></trkpt><trkpt lat="41.80288268815347" lon="13.935790024076535"><ele>1381.0</ele><time>2026-05-02T11:07:06Z</time></trkpt><trkpt lat="41.80270689125425" lon="13.935545345740897"><ele>1374.0</ele><time>2026-05-02T11:07:07Z</time></trkpt><trkpt lat="41.80253649128034" lon="13.93530779316094"><ele>1367.0</ele><time>2026-05-02T11:07:08Z</time></trkpt><trkpt lat="41.80236610608015" lon="13.935084609465996"><ele>1371.6666666666667</ele><time>2026-05-02T11:07:09Z</time></trkpt><trkpt lat="41.80221181035155" lon="13.934875198691067"><ele>1376.3333333333333</ele><time>2026-05-02T11:07:10Z</time></trkpt><trkpt lat="41.80207179366429" lon="13.934674111074193"><ele>1381.0</ele><time>2026-05-02T11:07:11Z</time></trkpt><trkpt lat="41.801935876629855" lon="13.93450566332573"><ele>1383.3333333333333</ele><time>2026-05-02T11:07:12Z</time></trkpt><trkpt lat="41.80178618832539" lon="13.934337930456252"><ele>1385.6666666666667</ele><time>2026-05-02T11:07:13Z</time></trkpt><trkpt lat="41.801602225235996" lon="13.934214488959729"><ele>1388.0</ele><time>2026-05-02T11:07:14Z</time></trkpt><trkpt lat="41.801401829070144" lon="13.934123852483564"><ele>1388.0</ele><time>2026-05-02T11:07:15Z</time></trkpt><trkpt lat="41.80120570361981" lon="13.934054992416433"><ele>1388.0</ele><time>2026-05-02T11:07:16Z</time></trkpt><trkpt lat="41.801057762286376" lon="13.934022429607737"><ele>1388.0</ele><time>2026-05-02T11:07:17Z</time></trkpt><trkpt lat="41.80093053942272" lon="13.933979101296284"><ele>1385.2</ele><time>2026-05-02T11:07:18Z</time></trkpt><trkpt lat="41.80082314395571" lon="13.933935744214141"><ele>1382.4</ele><time>2026-05-02T11:07:19Z</time></trkpt><trkpt lat="41.80073815327925" lon="13.93387800708373"><ele>1379.6000000000001</ele><time>2026-05-02T11:07:20Z</time></trkpt><trkpt lat="41.80070142840453" lon="13.933765010823228"><ele>1376.8000000000002</ele><time>2026-05-02T11:07:21Z</time></trkpt><trkpt lat="41.80071740387301" lon="13.933633078052775"><ele>1374.0</ele><time>2026-05-02T11:07:22Z</time></trkpt><trkpt lat="41.800801285113245" lon="13.933548682457566"><ele>1374.0</ele><time>2026-05-02T11:07:23Z</time></trkpt><trkpt lat="41.80091491777351" lon="13.933546873361626"><ele>1374.0</ele><time>2026-05-02T11:07:24Z</time></trkpt><trkpt lat="41.80103315361779" lon="13.93364579549641"><ele>1374.0</ele><time>2026-05-02T11:07:25Z</time></trkpt><trkpt lat="41.80120729866605" lon="13.933734391133736"><ele>1374.0</ele><time>2026-05-02T11:07:26Z</time></trkpt><trkpt lat="41.80139729668606" lon="13.933883681441422"><ele>1381.0</ele><time>2026-05-02T11:07:27Z</time></trkpt><trkpt lat="41.801615324638774" lon="13.934005057163311"><ele>1388.0</ele><time>2026-05-02T11:07:28Z</time></trkpt><trkpt lat="41.801846717100766" lon="13.934138768141814"><ele>1384.5</ele><time>2026-05-02T11:07:29Z</time></trkpt><trkpt lat="41.802089907679594" lon="13.934313882165286"><ele>1381.0</ele><time>2026-05-02T11:07:30Z</time></trkpt><trkpt lat="41.80235410948853" lon="13.934485602296375"><ele>1381.0</ele><time>2026-05-02T11:07:31Z</time></trkpt><trkpt lat="41.80261676353615" lon="13.934635827558196"><ele>1381.0</ele><time>2026-05-02T11:07:32Z</time></trkpt><trkpt lat="41.80284483414135" lon="13.934788990633058"><ele>1381.0</ele><time>2026-05-02T11:07:33Z</time></trkpt><trkpt lat="41.80306415568572" lon="13.934927774512827"><ele>1381.0</ele><time>2026-05-02T11:07:34Z</time></trkpt><trkpt lat="41.8032804755037" lon="13.935065515920435"><ele>1381.0</ele><time>2026-05-02T11:07:35Z</time></trkpt><trkpt lat="41.80348855182745" lon="13.935194820249727"><ele>1381.0</ele><time>2026-05-02T11:07:36Z</time></trkpt><trkpt lat="41.80369541377095" lon="13.935314052454137"><ele>1384.6666666666665</ele><time>2026-05-02T11:07:37Z</time></trkpt><trkpt lat="41.803904074150516" lon="13.935405653822295"><ele>1388.3333333333333</ele><time>2026-05-02T11:07:38Z</time></trkpt><trkpt lat="41.80411073802786" lon="13.935475353925975"><ele>1392.0</ele><time>2026-05-02T11:07:39Z</time></trkpt><trkpt lat="41.80430961532643" lon="13.935532220100749"><ele>1395.6666666666667</ele><time>2026-05-02T11:07:40Z</time></trkpt><trkpt lat="41.80450778045402" lon="13.935607628612525"><ele>1399.3333333333335</ele><time>2026-05-02T11:07:41Z</time></trkpt><trkpt lat="41.804706002311235" lon="13.935663374339876"><ele>1403.0</ele><time>2026-05-02T11:07:42Z</time></trkpt><trkpt lat="41.804901820902856" lon="13.935718444199171"><ele>1403.0</ele><time>2026-05-02T11:07:43Z</time></trkpt><trkpt lat="41.80509847686756" lon="13.935753701938197"><ele>1403.0</ele><time>2026-05-02T11:07:44Z</time></trkpt><trkpt lat="41.805297653368214" lon="13.935810606049973"><ele>1403.0</ele><time>2026-05-02T11:07:45Z</time></trkpt><trkpt lat="41.8054886350829" lon="13.935884026406558"><ele>1404.3333333333335</ele><time>2026-05-02T11:07:46Z</time></trkpt><trkpt lat="41.80568374556818" lon="13.935939794945616"><ele>1405.6666666666667</ele><time>2026-05-02T11:07:47Z</time></trkpt><trkpt lat="41.80588039613836" lon="13.935996003705698"><ele>1407.0</ele><time>2026-05-02T11:07:48Z</time></trkpt><trkpt lat="41.80607274294675" lon="13.93605098231263"><ele>1407.0</ele><time>2026-05-02T11:07:49Z</time></trkpt><trkpt lat="41.80626486322826" lon="13.93610423899858"><ele>1407.0</ele><time>2026-05-02T11:07:50Z</time></trkpt><trkpt lat="41.80645533725194" lon="13.936158411822289"><ele>1407.0</ele><time>2026-05-02T11:07:51Z</time></trkpt><trkpt lat="41.80664476179158" lon="13.936212711404155"><ele>1409.0</ele><time>2026-05-02T11:07:52Z</time></trkpt><trkpt lat="41.806831994299095" lon="13.936263819343559"><ele>1411.0</ele><time>2026-05-02T11:07:53Z</time></trkpt><trkpt lat="41.80701595834069" lon="13.936314175488107"><ele>1413.0</ele><time>2026-05-02T11:07:54Z</time></trkpt><trkpt lat="41.80719785615238" lon="13.936364899305064"><ele>1413.0</ele><time>2026-05-02T11:07:55Z</time></trkpt><trkpt lat="41.80738262492606" lon="13.93641704116315"><ele>1413.0</ele><time>2026-05-02T11:07:56Z</time></trkpt><trkpt lat="41.80756454968775" lon="13.936468108395347"><ele>1413.0</ele><time>2026-05-02T11:07:57Z</time></trkpt><trkpt lat="41.80773971980687" lon="13.936516061148449"><ele>1416.6666666666667</ele><time>2026-05-02T11:07:58Z</time></trkpt><trkpt lat="41.8079191962766" lon="13.936565727246721"><ele>1420.3333333333335</ele><time>2026-05-02T11:07:59Z</time></trkpt><trkpt lat="41.808095638642065" lon="13.93661631098764"><ele>1424.0</ele><time>2026-05-02T11:08:00Z</time></trkpt><trkpt lat="41.80827058436" lon="13.936666465643436"><ele>1424.0</ele><time>2026-05-02T11:08:01Z</time></trkpt><trkpt lat="41.80844633991627" lon="13.936715896160356"><ele>1424.0</ele><time>2026-05-02T11:08:02Z</time></trkpt><trkpt lat="41.80861975842086" lon="13.936764449942629"><ele>1424.0</ele><time>2026-05-02T11:08:03Z</time></trkpt><trkpt lat="41.80879319135277" lon="13.936813007767634"><ele>1420.3333333333335</ele><time>2026-05-02T11:08:04Z</time></trkpt><trkpt lat="41.80896045663724" lon="13.936859945775069"><ele>1416.6666666666667</ele><time>2026-05-02T11:08:05Z</time></trkpt><trkpt lat="41.80912766087453" lon="13.936907168334814"><ele>1413.0</ele><time>2026-05-02T11:08:06Z</time></trkpt><trkpt lat="41.809295827941725" lon="13.936954662809987"><ele>1416.0</ele><time>2026-05-02T11:08:07Z</time></trkpt><trkpt lat="41.80946974116723" lon="13.936983705972736"><ele>1419.0</ele><time>2026-05-02T11:08:08Z</time></trkpt><trkpt lat="41.8096392422393" lon="13.937033490119699"><ele>1422.0</ele><time>2026-05-02T11:08:09Z</time></trkpt><trkpt lat="41.809802480661695" lon="13.937097065520462"><ele>1422.0</ele><time>2026-05-02T11:08:10Z</time></trkpt><trkpt lat="41.80996682027178" lon="13.937142845172692"><ele>1422.0</ele><time>2026-05-02T11:08:11Z</time></trkpt><trkpt lat="41.81013400925061" lon="13.937189416806746"><ele>1422.0</ele><time>2026-05-02T11:08:12Z</time></trkpt><trkpt lat="41.81030250352499" lon="13.937237207130343"><ele>1427.6666666666667</ele><time>2026-05-02T11:08:13Z</time></trkpt><trkpt lat="41.81046711784556" lon="13.937292986912091"><ele>1433.3333333333335</ele><time>2026-05-02T11:08:14Z</time></trkpt><trkpt lat="41.81064272355706" lon="13.937368691922815"><ele>1439.0</ele><time>2026-05-02T11:08:15Z</time></trkpt><trkpt lat="41.8108185094651" lon="13.937460952116057"><ele>1436.3333333333335</ele><time>2026-05-02T11:08:16Z</time></trkpt><trkpt lat="41.81098736518787" lon="13.937562566332623"><ele>1433.6666666666667</ele><time>2026-05-02T11:08:17Z</time></trkpt><trkpt lat="41.81115848767855" lon="13.937670371566641"><ele>1431.0</ele><time>2026-05-02T11:08:18Z</time></trkpt><trkpt lat="41.81132440137078" lon="13.937771553153448"><ele>1431.0</ele><time>2026-05-02T11:08:19Z</time></trkpt><trkpt lat="41.81148977510823" lon="13.937869827302224"><ele>1431.0</ele><time>2026-05-02T11:08:20Z</time></trkpt><trkpt lat="41.81166516607064" lon="13.937943223978705"><ele>1431.0</ele><time>2026-05-02T11:08:21Z</time></trkpt><trkpt lat="41.811855691227606" lon="13.937969531559949"><ele>1433.3333333333333</ele><time>2026-05-02T11:08:22Z</time></trkpt><trkpt lat="41.81203439297338" lon="13.937996258222343"><ele>1435.6666666666665</ele><time>2026-05-02T11:08:23Z</time></trkpt><trkpt lat="41.81220774412007" lon="13.93798714580098"><ele>1438.0</ele><time>2026-05-02T11:08:24Z</time></trkpt><trkpt lat="41.81239171655442" lon="13.937975172952576"><ele>1438.0</ele><time>2026-05-02T11:08:25Z</time></trkpt><trkpt lat="41.812553116932726" lon="13.937965188327505"><ele>1438.0</ele><time>2026-05-02T11:08:26Z</time></trkpt><trkpt lat="41.81272106909177" lon="13.937953441150594"><ele>1438.0</ele><time>2026-05-02T11:08:27Z</time></trkpt><trkpt lat="41.812904869929866" lon="13.937940399250968"><ele>1438.0</ele><time>2026-05-02T11:08:28Z</time></trkpt><trkpt lat="41.813088559783374" lon="13.937927365230713"><ele>1438.0</ele><time>2026-05-02T11:08:29Z</time></trkpt><trkpt lat="41.8132761992806" lon="13.937914050955415"><ele>1438.0</ele><time>2026-05-02T11:08:30Z</time></trkpt><trkpt lat="41.81345978472879" lon="13.937903326776247"><ele>1440.6666666666665</ele><time>2026-05-02T11:08:31Z</time></trkpt><trkpt lat="41.813643071015484" lon="13.937903331631988"><ele>1443.3333333333333</ele><time>2026-05-02T11:08:32Z</time></trkpt><trkpt lat="41.81382751404627" lon="13.937915269147696"><ele>1446.0</ele><time>2026-05-02T11:08:33Z</time></trkpt><trkpt lat="41.814010018378404" lon="13.937913338906036"><ele>1446.0</ele><time>2026-05-02T11:08:34Z</time></trkpt><trkpt lat="41.81418966885875" lon="13.937937526649492"><ele>1446.0</ele><time>2026-05-02T11:08:35Z</time></trkpt><trkpt lat="41.814366624814134" lon="13.937987957917194"><ele>1446.0</ele><time>2026-05-02T11:08:36Z</time></trkpt><trkpt lat="41.81454930673186" lon="13.938019682956778"><ele>1450.0</ele><time>2026-05-02T11:08:37Z</time></trkpt><trkpt lat="41.81472025736779" lon="13.938048651130552"><ele>1454.0</ele><time>2026-05-02T11:08:38Z</time></trkpt><trkpt lat="41.814895206604184" lon="13.93807793031207"><ele>1458.0</ele><time>2026-05-02T11:08:39Z</time></trkpt><trkpt lat="41.81507277265875" lon="13.93808599727299"><ele>1459.0</ele><time>2026-05-02T11:08:40Z</time></trkpt><trkpt lat="41.8152462290138" lon="13.938138553701425"><ele>1460.0</ele><time>2026-05-02T11:08:41Z</time></trkpt><trkpt lat="41.81541397675441" lon="13.93816881871812"><ele>1461.0</ele><time>2026-05-02T11:08:42Z</time></trkpt><trkpt lat="41.81557745660688" lon="13.938159306320209"><ele>1461.0</ele><time>2026-05-02T11:08:43Z</time></trkpt><trkpt lat="41.81573739802203" lon="13.938127624971948"><ele>1461.0</ele><time>2026-05-02T11:08:44Z</time></trkpt><trkpt lat="41.81589611528938" lon="13.938071026316203"><ele>1461.0</ele><time>2026-05-02T11:08:45Z</time></trkpt><trkpt lat="41.8160390104787" lon="13.937945641127195"><ele>1460.0</ele><time>2026-05-02T11:08:46Z</time></trkpt><trkpt lat="41.816143860595325" lon="13.937792969278155"><ele>1459.0</ele><time>2026-05-02T11:08:47Z</time></trkpt><trkpt lat="41.81623712220096" lon="13.937622074008933"><ele>1458.0</ele><time>2026-05-02T11:08:48Z</time></trkpt><trkpt lat="41.81632674750292" lon="13.937445686780848"><ele>1460.0</ele><time>2026-05-02T11:08:49Z</time></trkpt><trkpt lat="41.81643162764502" lon="13.937289999333782"><ele>1462.0</ele><time>2026-05-02T11:08:50Z</time></trkpt><trkpt lat="41.81650962571309" lon="13.9371113716904"><ele>1464.0</ele><time>2026-05-02T11:08:51Z</time></trkpt><trkpt lat="41.81660647631553" lon="13.936944544764135"><ele>1464.0</ele><time>2026-05-02T11:08:52Z</time></trkpt><trkpt lat="41.8167057801917" lon="13.936787197015892"><ele>1464.0</ele><time>2026-05-02T11:08:53Z</time></trkpt><trkpt lat="41.81681939002515" lon="13.936639814783376"><ele>1464.0</ele><time>2026-05-02T11:08:54Z</time></trkpt><trkpt lat="41.816939762111126" lon="13.936511024583124"><ele>1465.75</ele><time>2026-05-02T11:08:55Z</time></trkpt><trkpt lat="41.81707434779253" lon="13.936422736863415"><ele>1467.5</ele><time>2026-05-02T11:08:56Z</time></trkpt><trkpt lat="41.81720808786041" lon="13.936341698215218"><ele>1469.25</ele><time>2026-05-02T11:08:57Z</time></trkpt><trkpt lat="41.81734649216457" lon="13.936287382228405"><ele>1471.0</ele><time>2026-05-02T11:08:58Z</time></trkpt><trkpt lat="41.817488964393725" lon="13.936256965095664"><ele>1471.0</ele><time>2026-05-02T11:08:59Z</time></trkpt><trkpt lat="41.81763543793404" lon="13.936246685255357"><ele>1471.0</ele><time>2026-05-02T11:09:00Z</time></trkpt><trkpt lat="41.817779800624734" lon="13.936259205476146"><ele>1471.0</ele><time>2026-05-02T11:09:01Z</time></trkpt><trkpt lat="41.81792736897069" lon="13.936281004698053"><ele>1471.0</ele><time>2026-05-02T11:09:02Z</time></trkpt><trkpt lat="41.81807489838735" lon="13.9362808549729"><ele>1471.75</ele><time>2026-05-02T11:09:03Z</time></trkpt><trkpt lat="41.81821485260486" lon="13.936319545691982"><ele>1472.5</ele><time>2026-05-02T11:09:04Z</time></trkpt><trkpt lat="41.81835860521652" lon="13.936338908978229"><ele>1473.25</ele><time>2026-05-02T11:09:05Z</time></trkpt><trkpt lat="41.81849842412903" lon="13.936357742399746"><ele>1474.0</ele><time>2026-05-02T11:09:06Z</time></trkpt><trkpt lat="41.81864079218688" lon="13.93637691918556"><ele>1475.0</ele><time>2026-05-02T11:09:07Z</time></trkpt><trkpt lat="41.81878496553144" lon="13.93639683768893"><ele>1476.0</ele><time>2026-05-02T11:09:08Z</time></trkpt><trkpt lat="41.818932273816756" lon="13.936410201750608"><ele>1477.0</ele><time>2026-05-02T11:09:09Z</time></trkpt><trkpt lat="41.819088109218214" lon="13.936379129892401"><ele>1477.0</ele><time>2026-05-02T11:09:10Z</time></trkpt><trkpt lat="41.81924379473196" lon="13.936350139912546"><ele>1477.0</ele><time>2026-05-02T11:09:11Z</time></trkpt><trkpt lat="41.819406083036995" lon="13.936322903755595"><ele>1477.0</ele><time>2026-05-02T11:09:12Z</time></trkpt><trkpt lat="41.819564443227236" lon="13.936268906867408"><ele>1477.6666666666665</ele><time>2026-05-02T11:09:13Z</time></trkpt><trkpt lat="41.81972579982401" lon="13.936212952613486"><ele>1478.3333333333333</ele><time>2026-05-02T11:09:14Z</time></trkpt><trkpt lat="41.819889564852524" lon="13.936156161333583"><ele>1479.0</ele><time>2026-05-02T11:09:15Z</time></trkpt><trkpt lat="41.82005115795013" lon="13.936116921555675"><ele>1482.0</ele><time>2026-05-02T11:09:16Z</time></trkpt><trkpt lat="41.820213325726556" lon="13.936110351616238"><ele>1485.0</ele><time>2026-05-02T11:09:17Z</time></trkpt><trkpt lat="41.82038371232845" lon="13.936129064795928"><ele>1488.0</ele><time>2026-05-02T11:09:18Z</time></trkpt><trkpt lat="41.82054859743517" lon="13.9361857762933"><ele>1488.0</ele><time>2026-05-02T11:09:19Z</time></trkpt><trkpt lat="41.82071556664745" lon="13.93625191522821"><ele>1488.0</ele><time>2026-05-02T11:09:20Z</time></trkpt><trkpt lat="41.82088910207752" lon="13.936323936956859"><ele>1488.0</ele><time>2026-05-02T11:09:21Z</time></trkpt><trkpt lat="41.82105639893199" lon="13.93639094053073"><ele>1491.3333333333333</ele><time>2026-05-02T11:09:22Z</time></trkpt><trkpt lat="41.82122497423526" lon="13.936451202746476"><ele>1494.6666666666665</ele><time>2026-05-02T11:09:23Z</time></trkpt><trkpt lat="41.821403208415134" lon="13.9364822826441"><ele>1498.0</ele><time>2026-05-02T11:09:24Z</time></trkpt><trkpt lat="41.821582148416276" lon="13.936477217755144"><ele>1498.0</ele><time>2026-05-02T11:09:25Z</time></trkpt><trkpt lat="41.82175916034206" lon="13.936438745154662"><ele>1498.0</ele><time>2026-05-02T11:09:26Z</time></trkpt><trkpt lat="41.82193200508674" lon="13.93638326535276"><ele>1498.0</ele><time>2026-05-02T11:09:27Z</time></trkpt><trkpt lat="41.8221021244379" lon="13.936327483071388"><ele>1497.6666666666665</ele><time>2026-05-02T11:09:28Z</time></trkpt><trkpt lat="41.822270615374606" lon="13.93627612525201"><ele>1497.3333333333333</ele><time>2026-05-02T11:09:29Z</time></trkpt><trkpt lat="41.822445136851506" lon="13.936220670637393"><ele>1497.0</ele><time>2026-05-02T11:09:30Z</time></trkpt><trkpt lat="41.82261861735352" lon="13.936193369265041"><ele>1497.3333333333333</ele><time>2026-05-02T11:09:31Z</time></trkpt><trkpt lat="41.82278669881681" lon="13.936155336903544"><ele>1497.6666666666665</ele><time>2026-05-02T11:09:32Z</time></trkpt><trkpt lat="41.82294281364587" lon="13.936112866252394"><ele>1498.0</ele><time>2026-05-02T11:09:33Z</time></trkpt><trkpt lat="41.82307433326798" lon="13.936038584092016"><ele>1498.0</ele><time>2026-05-02T11:09:34Z</time></trkpt><trkpt lat="41.82319272330547" lon="13.935909219677015"><ele>1498.0</ele><time>2026-05-02T11:09:35Z</time></trkpt><trkpt lat="41.823310098292744" lon="13.935772967375774"><ele>1498.0</ele><time>2026-05-02T11:09:36Z</time></trkpt><trkpt lat="41.82342713716653" lon="13.935587917201284"><ele>1499.6666666666665</ele><time>2026-05-02T11:09:37Z</time></trkpt><trkpt lat="41.823544274253656" lon="13.93539045349586"><ele>1501.3333333333333</ele><time>2026-05-02T11:09:38Z</time></trkpt><trkpt lat="41.823666801314204" lon="13.93520880950078"><ele>1503.0</ele><time>2026-05-02T11:09:39Z</time></trkpt><trkpt lat="41.82378753316908" lon="13.935045061563878"><ele>1503.75</ele><time>2026-05-02T11:09:40Z</time></trkpt><trkpt lat="41.82387305600366" lon="13.934855905145724"><ele>1504.5</ele><time>2026-05-02T11:09:41Z</time></trkpt><trkpt lat="41.82391295811285" lon="13.934669020038118"><ele>1505.25</ele><time>2026-05-02T11:09:42Z</time></trkpt><trkpt lat="41.823917567562624" lon="13.934497608769599"><ele>1506.0</ele><time>2026-05-02T11:09:43Z</time></trkpt><trkpt lat="41.823956605128394" lon="13.93437088769176"><ele>1506.0</ele><time>2026-05-02T11:09:44Z</time></trkpt><trkpt lat="41.82400151676937" lon="13.934259577038004"><ele>1506.0</ele><time>2026-05-02T11:09:45Z</time></trkpt><trkpt lat="41.82409609500466" lon="13.934222350085074"><ele>1506.0</ele><time>2026-05-02T11:09:46Z</time></trkpt><trkpt lat="41.8242047474786" lon="13.934243038982942"><ele>1506.0</ele><time>2026-05-02T11:09:47Z</time></trkpt><trkpt lat="41.824301791672276" lon="13.934335427447644"><ele>1506.0</ele><time>2026-05-02T11:09:48Z</time></trkpt><trkpt lat="41.8244360248756" lon="13.934444113041508"><ele>1506.3333333333333</ele><time>2026-05-02T11:09:49Z</time></trkpt><trkpt lat="41.82455793453247" lon="13.934563443989214"><ele>1506.6666666666665</ele><time>2026-05-02T11:09:50Z</time></trkpt><trkpt lat="41.82469866166863" lon="13.934682056003235"><ele>1507.0</ele><time>2026-05-02T11:09:51Z</time></trkpt><trkpt lat="41.82483184181695" lon="13.93476610514302"><ele>1507.0</ele><time>2026-05-02T11:09:52Z</time></trkpt><trkpt lat="41.82497885188057" lon="13.9348423928068"><ele>1507.0</ele><time>2026-05-02T11:09:53Z</time></trkpt><trkpt lat="41.82513367743045" lon="13.934857811430595"><ele>1507.0</ele><time>2026-05-02T11:09:54Z</time></trkpt><trkpt lat="41.8252945850111" lon="13.934833796303552"><ele>1509.0</ele><time>2026-05-02T11:09:55Z</time></trkpt><trkpt lat="41.82543248685445" lon="13.93473360151387"><ele>1511.0</ele><time>2026-05-02T11:09:56Z</time></trkpt><trkpt lat="41.82557038115393" lon="13.934646112083042"><ele>1513.0</ele><time>2026-05-02T11:09:57Z</time></trkpt><trkpt lat="41.82569975769852" lon="13.93454805103415"><ele>1513.0</ele><time>2026-05-02T11:09:58Z</time></trkpt><trkpt lat="41.82582214993793" lon="13.934465533643348"><ele>1513.0</ele><time>2026-05-02T11:09:59Z</time></trkpt><trkpt lat="41.825926447944326" lon="13.934370524041382"><ele>1513.0</ele><time>2026-05-02T11:10:00Z</time></trkpt><trkpt lat="41.826016634113486" lon="13.934266505562062"><ele>1513.0</ele><time>2026-05-02T11:10:01Z</time></trkpt><trkpt lat="41.82608559811308" lon="13.934141636018833"><ele>1514.75</ele><time>2026-05-02T11:10:02Z</time></trkpt><trkpt lat="41.82612524868896" lon="13.933995289115057"><ele>1516.5</ele><time>2026-05-02T11:10:03Z</time></trkpt><trkpt lat="41.82616488183884" lon="13.933849450865665"><ele>1518.25</ele><time>2026-05-02T11:10:04Z</time></trkpt><trkpt lat="41.82620795300125" lon="13.93370725755121"><ele>1520.0</ele><time>2026-05-02T11:10:05Z</time></trkpt><trkpt lat="41.82627392428668" lon="13.933586288706524"><ele>1520.0</ele><time>2026-05-02T11:10:06Z</time></trkpt><trkpt lat="41.82635229448351" lon="13.933501628638696"><ele>1520.0</ele><time>2026-05-02T11:10:07Z</time></trkpt><trkpt lat="41.826441917294936" lon="13.933448611086021"><ele>1520.0</ele><time>2026-05-02T11:10:08Z</time></trkpt><trkpt lat="41.826532503962866" lon="13.933385295050815"><ele>1520.0</ele><time>2026-05-02T11:10:09Z</time></trkpt><trkpt lat="41.82663395204073" lon="13.93333962607243"><ele>1520.0</ele><time>2026-05-02T11:10:10Z</time></trkpt><trkpt lat="41.826742065610425" lon="13.933310517222056"><ele>1521.5</ele><time>2026-05-02T11:10:11Z</time></trkpt><trkpt lat="41.82685059382298" lon="13.93328035551666"><ele>1523.0</ele><time>2026-05-02T11:10:12Z</time></trkpt><trkpt lat="41.8269646820205" lon="13.933253365576887"><ele>1524.5</ele><time>2026-05-02T11:10:13Z</time></trkpt><trkpt lat="41.82707711048091" lon="13.933225621722446"><ele>1526.0</ele><time>2026-05-02T11:10:14Z</time></trkpt><trkpt lat="41.82718782614003" lon="13.933223310059638"><ele>1526.0</ele><time>2026-05-02T11:10:15Z</time></trkpt><trkpt lat="41.827298896943425" lon="13.933191597640807"><ele>1526.0</ele><time>2026-05-02T11:10:16Z</time></trkpt><trkpt lat="41.82740925983686" lon="13.933151911826597"><ele>1526.0</ele><time>2026-05-02T11:10:17Z</time></trkpt><trkpt lat="41.82752522113933" lon="13.933083867566822"><ele>1526.0</ele><time>2026-05-02T11:10:18Z</time></trkpt><trkpt lat="41.82765017069941" lon="13.932998762375837"><ele>1526.3333333333335</ele><time>2026-05-02T11:10:19Z</time></trkpt><trkpt lat="41.82777747470873" lon="13.932881175937837"><ele>1526.6666666666667</ele><time>2026-05-02T11:10:20Z</time></trkpt><trkpt lat="41.82791219282077" lon="13.93279047858727"><ele>1527.0</ele><time>2026-05-02T11:10:21Z</time></trkpt><trkpt lat="41.828043136167274" lon="13.932696144691956"><ele>1527.0</ele><time>2026-05-02T11:10:22Z</time></trkpt><trkpt lat="41.82817756570867" lon="13.932595160796334"><ele>1527.0</ele><time>2026-05-02T11:10:23Z</time></trkpt><trkpt lat="41.82831863627598" lon="13.932486093189288"><ele>1527.0</ele><time>2026-05-02T11:10:24Z</time></trkpt><trkpt lat="41.82846583807994" lon="13.932382013295902"><ele>1526.0</ele><time>2026-05-02T11:10:25Z</time></trkpt><trkpt lat="41.828608002640294" lon="13.932293377780491"><ele>1525.0</ele><time>2026-05-02T11:10:26Z</time></trkpt><trkpt lat="41.828750063845334" lon="13.93222336882938"><ele>1524.0</ele><time>2026-05-02T11:10:27Z</time></trkpt><trkpt lat="41.828889338838344" lon="13.932171021090353"><ele>1524.0</ele><time>2026-05-02T11:10:28Z</time></trkpt><trkpt lat="41.82901566410512" lon="13.93212100415907"><ele>1524.0</ele><time>2026-05-02T11:10:29Z</time></trkpt><trkpt lat="41.82915582775726" lon="13.932187366645612"><ele>1524.0</ele><time>2026-05-02T11:10:30Z</time></trkpt><trkpt lat="41.829265171088856" lon="13.932341596403104"><ele>1524.0</ele><time>2026-05-02T11:10:31Z</time></trkpt><trkpt lat="41.82935833183996" lon="13.932525729872262"><ele>1527.6666666666667</ele><time>2026-05-02T11:10:32Z</time></trkpt><trkpt lat="41.82944915913459" lon="13.932708291475848"><ele>1531.3333333333335</ele><time>2026-05-02T11:10:33Z</time></trkpt><trkpt lat="41.829563532152804" lon="13.932867158577773"><ele>1535.0</ele><time>2026-05-02T11:10:34Z</time></trkpt><trkpt lat="41.82971183798768" lon="13.93298264672036"><ele>1535.0</ele><time>2026-05-02T11:10:35Z</time></trkpt><trkpt lat="41.829881282005786" lon="13.93304852811802"><ele>1535.0</ele><time>2026-05-02T11:10:36Z</time></trkpt><trkpt lat="41.83006675683261" lon="13.933066745463083"><ele>1535.0</ele><time>2026-05-02T11:10:37Z</time></trkpt><trkpt lat="41.83025910288042" lon="13.933074441227896"><ele>1534.3333333333335</ele><time>2026-05-02T11:10:38Z</time></trkpt><trkpt lat="41.83044879584866" lon="13.93311596099183"><ele>1533.6666666666667</ele><time>2026-05-02T11:10:39Z</time></trkpt><trkpt lat="41.830628548337096" lon="13.933170587196138"><ele>1533.0</ele><time>2026-05-02T11:10:40Z</time></trkpt><trkpt lat="41.8308047304904" lon="13.933254642366782"><ele>1535.3333333333335</ele><time>2026-05-02T11:10:41Z</time></trkpt><trkpt lat="41.83097428439955" lon="13.933393988630078"><ele>1537.6666666666667</ele><time>2026-05-02T11:10:42Z</time></trkpt><trkpt lat="41.83113635753725" lon="13.933541155175506"><ele>1540.0</ele><time>2026-05-02T11:10:43Z</time></trkpt><trkpt lat="41.83131636304138" lon="13.933648739263559"><ele>1540.0</ele><time>2026-05-02T11:10:44Z</time></trkpt><trkpt lat="41.831501972407644" lon="13.93375017345705"><ele>1540.0</ele><time>2026-05-02T11:10:45Z</time></trkpt><trkpt lat="41.83167266193989" lon="13.933820631385666"><ele>1540.0</ele><time>2026-05-02T11:10:46Z</time></trkpt><trkpt lat="41.831844057864735" lon="13.933843209649666"><ele>1541.6666666666667</ele><time>2026-05-02T11:10:47Z</time></trkpt><trkpt lat="41.832036735756304" lon="13.933795848459747"><ele>1543.3333333333335</ele><time>2026-05-02T11:10:48Z</time></trkpt><trkpt lat="41.83221976725681" lon="13.933719488509624"><ele>1545.0</ele><time>2026-05-02T11:10:49Z</time></trkpt><trkpt lat="41.832404861679315" lon="13.933640989373826"><ele>1545.0</ele><time>2026-05-02T11:10:50Z</time></trkpt><trkpt lat="41.83257767303289" lon="13.933556646135449"><ele>1545.0</ele><time>2026-05-02T11:10:51Z</time></trkpt><trkpt lat="41.83273492757" lon="13.93341541753705"><ele>1545.0</ele><time>2026-05-02T11:10:52Z</time></trkpt><trkpt lat="41.83288174961706" lon="13.933239168677662"><ele>1544.3333333333335</ele><time>2026-05-02T11:10:53Z</time></trkpt><trkpt lat="41.83302725734344" lon="13.933070737346688"><ele>1543.6666666666667</ele><time>2026-05-02T11:10:54Z</time></trkpt><trkpt lat="41.8331694175568" lon="13.93288931116017"><ele>1543.0</ele><time>2026-05-02T11:10:55Z</time></trkpt><trkpt lat="41.83331287087729" lon="13.932713153046054"><ele>1542.0</ele><time>2026-05-02T11:10:56Z</time></trkpt><trkpt lat="41.83344876642173" lon="13.932546068390124"><ele>1541.0</ele><time>2026-05-02T11:10:57Z</time></trkpt><trkpt lat="41.83358771617242" lon="13.932386129646918"><ele>1540.0</ele><time>2026-05-02T11:10:58Z</time></trkpt><trkpt lat="41.83373461162474" lon="13.932241608893113"><ele>1543.0</ele><time>2026-05-02T11:10:59Z</time></trkpt><trkpt lat="41.833892215691016" lon="13.932114146822796"><ele>1546.0</ele><time>2026-05-02T11:11:00Z</time></trkpt><trkpt lat="41.83405513797292" lon="13.931997367672226"><ele>1549.0</ele><time>2026-05-02T11:11:01Z</time></trkpt><trkpt lat="41.83422420852564" lon="13.931889018652173"><ele>1549.3333333333335</ele><time>2026-05-02T11:11:02Z</time></trkpt><trkpt lat="41.83438825967744" lon="13.931777752728822"><ele>1549.6666666666665</ele><time>2026-05-02T11:11:03Z</time></trkpt><trkpt lat="41.83455595516804" lon="13.93167926295722"><ele>1550.0</ele><time>2026-05-02T11:11:04Z</time></trkpt><trkpt lat="41.834733353752775" lon="13.93161962806963"><ele>1550.0</ele><time>2026-05-02T11:11:05Z</time></trkpt><trkpt lat="41.83491642007737" lon="13.931587358893216"><ele>1550.0</ele><time>2026-05-02T11:11:06Z</time></trkpt><trkpt lat="41.83510173289601" lon="13.931572383532433"><ele>1550.0</ele><time>2026-05-02T11:11:07Z</time></trkpt><trkpt lat="41.83529036371952" lon="13.93156159891567"><ele>1550.6666666666665</ele><time>2026-05-02T11:11:08Z</time></trkpt><trkpt lat="41.83547682334485" lon="13.93153209509757"><ele>1551.3333333333335</ele><time>2026-05-02T11:11:09Z</time></trkpt><trkpt lat="41.83565966134376" lon="13.931500370041295"><ele>1552.0</ele><time>2026-05-02T11:11:10Z</time></trkpt><trkpt lat="41.83583855736658" lon="13.931447751920484"><ele>1551.0</ele><time>2026-05-02T11:11:11Z</time></trkpt><trkpt lat="41.83600616925491" lon="13.931351492251224"><ele>1550.0</ele><time>2026-05-02T11:11:12Z</time></trkpt><trkpt lat="41.836159443203755" lon="13.931219796193387"><ele>1549.0</ele><time>2026-05-02T11:11:13Z</time></trkpt><trkpt lat="41.83630535668546" lon="13.931069307735374"><ele>1549.0</ele><time>2026-05-02T11:11:14Z</time></trkpt><trkpt lat="41.83645073988832" lon="13.93091682890444"><ele>1549.0</ele><time>2026-05-02T11:11:15Z</time></trkpt><trkpt lat="41.836594436536956" lon="13.930769059091244"><ele>1549.0</ele><time>2026-05-02T11:11:16Z</time></trkpt><trkpt lat="41.836744277875276" lon="13.930629060967393"><ele>1548.6666666666667</ele><time>2026-05-02T11:11:17Z</time></trkpt><trkpt lat="41.83688492797873" lon="13.930503225498493"><ele>1548.3333333333335</ele><time>2026-05-02T11:11:18Z</time></trkpt><trkpt lat="41.8370223889362" lon="13.930380129736932"><ele>1548.0</ele><time>2026-05-02T11:11:19Z</time></trkpt><trkpt lat="41.83716726139255" lon="13.930269849690951"><ele>1548.0</ele><time>2026-05-02T11:11:20Z</time></trkpt><trkpt lat="41.83732886261372" lon="13.930189676061877"><ele>1548.0</ele><time>2026-05-02T11:11:21Z</time></trkpt><trkpt lat="41.83750114825054" lon="13.93014062710435"><ele>1548.0</ele><time>2026-05-02T11:11:22Z</time></trkpt><trkpt lat="41.837683357760035" lon="13.930116322275158"><ele>1548.6666666666665</ele><time>2026-05-02T11:11:23Z</time></trkpt><trkpt lat="41.8378690809877" lon="13.930099961633863"><ele>1549.3333333333333</ele><time>2026-05-02T11:11:24Z</time></trkpt><trkpt lat="41.83805410385468" lon="13.930087511379869"><ele>1550.0</ele><time>2026-05-02T11:11:25Z</time></trkpt><trkpt lat="41.83824312039052" lon="13.930052471078664"><ele>1550.0</ele><time>2026-05-02T11:11:26Z</time></trkpt><trkpt lat="41.83842752301539" lon="13.929979669758856"><ele>1550.0</ele><time>2026-05-02T11:11:27Z</time></trkpt><trkpt lat="41.83861230479183" lon="13.929880621965387"><ele>1550.0</ele><time>2026-05-02T11:11:28Z</time></trkpt><trkpt lat="41.83879436974012" lon="13.929770171468277"><ele>1549.6666666666665</ele><time>2026-05-02T11:11:29Z</time></trkpt><trkpt lat="41.83898148665266" lon="13.929652289317835"><ele>1549.3333333333335</ele><time>2026-05-02T11:11:30Z</time></trkpt><trkpt lat="41.839173895009075" lon="13.929537097372624"><ele>1549.0</ele><time>2026-05-02T11:11:31Z</time></trkpt><trkpt lat="41.83936520071099" lon="13.929424903491224"><ele>1547.6666666666667</ele><time>2026-05-02T11:11:32Z</time></trkpt><trkpt lat="41.8395572627143" lon="13.929314153380064"><ele>1546.3333333333335</ele><time>2026-05-02T11:11:33Z</time></trkpt><trkpt lat="41.83974534296017" lon="13.929197218416157"><ele>1545.0</ele><time>2026-05-02T11:11:34Z</time></trkpt><trkpt lat="41.83992038606448" lon="13.929094909361009"><ele>1545.6666666666665</ele><time>2026-05-02T11:11:35Z</time></trkpt><trkpt lat="41.840096982946584" lon="13.928984473366677"><ele>1546.3333333333333</ele><time>2026-05-02T11:11:36Z</time></trkpt><trkpt lat="41.84026864077333" lon="13.92884889655368"><ele>1547.0</ele><time>2026-05-02T11:11:37Z</time></trkpt><trkpt lat="41.84042122259042" lon="13.928666963747993"><ele>1547.0</ele><time>2026-05-02T11:11:38Z</time></trkpt><trkpt lat="41.84056663014859" lon="13.928479049285206"><ele>1547.0</ele><time>2026-05-02T11:11:39Z</time></trkpt><trkpt lat="41.840723100285935" lon="13.928303335544475"><ele>1547.0</ele><time>2026-05-02T11:11:40Z</time></trkpt><trkpt lat="41.84090139490267" lon="13.928153119182719"><ele>1547.0</ele><time>2026-05-02T11:11:41Z</time></trkpt><trkpt lat="41.84108998394957" lon="13.928018692458524"><ele>1547.0</ele><time>2026-05-02T11:11:42Z</time></trkpt><trkpt lat="41.84127466542271" lon="13.927875557759547"><ele>1547.0</ele><time>2026-05-02T11:11:43Z</time></trkpt><trkpt lat="41.841465216459284" lon="13.927739130624811"><ele>1547.0</ele><time>2026-05-02T11:11:44Z</time></trkpt><trkpt lat="41.841652957234615" lon="13.927605225361873"><ele>1547.0</ele><time>2026-05-02T11:11:45Z</time></trkpt><trkpt lat="41.84183687465412" lon="13.9274665103304"><ele>1547.0</ele><time>2026-05-02T11:11:46Z</time></trkpt><trkpt lat="41.84201565175325" lon="13.92732817627192"><ele>1548.0</ele><time>2026-05-02T11:11:47Z</time></trkpt><trkpt lat="41.842200885054844" lon="13.927208968961613"><ele>1549.0</ele><time>2026-05-02T11:11:48Z</time></trkpt><trkpt lat="41.84239736518738" lon="13.9271287555721"><ele>1550.0</ele><time>2026-05-02T11:11:49Z</time></trkpt><trkpt lat="41.84260489776468" lon="13.927092500240395"><ele>1548.6666666666665</ele><time>2026-05-02T11:11:50Z</time></trkpt><trkpt lat="41.84280211233254" lon="13.927084389278338"><ele>1547.3333333333335</ele><time>2026-05-02T11:11:51Z</time></trkpt><trkpt lat="41.8429864079822" lon="13.927073126713637"><ele>1546.0</ele><time>2026-05-02T11:11:52Z</time></trkpt><trkpt lat="41.84316726539806" lon="13.927044974043206"><ele>1546.0</ele><time>2026-05-02T11:11:53Z</time></trkpt><trkpt lat="41.84335153150567" lon="13.92696058551649"><ele>1546.0</ele><time>2026-05-02T11:11:54Z</time></trkpt><trkpt lat="41.84353529856059" lon="13.926819321800775"><ele>1546.0</ele><time>2026-05-02T11:11:55Z</time></trkpt><trkpt lat="41.84372091580751" lon="13.926650547977806"><ele>1547.3333333333335</ele><time>2026-05-02T11:11:56Z</time></trkpt><trkpt lat="41.843903470986966" lon="13.926486376824693"><ele>1548.6666666666665</ele><time>2026-05-02T11:11:57Z</time></trkpt><trkpt lat="41.844062655812934" lon="13.926342499060295"><ele>1550.0</ele><time>2026-05-02T11:11:58Z</time></trkpt><trkpt lat="41.84421644812047" lon="13.92622097473341"><ele>1550.3333333333333</ele><time>2026-05-02T11:11:59Z</time></trkpt><trkpt lat="41.8443635404213" lon="13.92610718554237"><ele>1550.6666666666665</ele><time>2026-05-02T11:12:00Z</time></trkpt><trkpt lat="41.844520035049925" lon="13.926021058810669"><ele>1551.0</ele><time>2026-05-02T11:12:01Z</time></trkpt><trkpt lat="41.844701984019025" lon="13.925981987574932"><ele>1551.0</ele><time>2026-05-02T11:12:02Z</time></trkpt><trkpt lat="41.844898396201295" lon="13.925985813934224"><ele>1551.0</ele><time>2026-05-02T11:12:03Z</time></trkpt><trkpt lat="41.845093919588024" lon="13.926054372009032"><ele>1551.0</ele><time>2026-05-02T11:12:04Z</time></trkpt><trkpt lat="41.845291789162815" lon="13.926183505703428"><ele>1556.5</ele><time>2026-05-02T11:12:05Z</time></trkpt><trkpt lat="41.84548397286688" lon="13.926374519215134"><ele>1562.0</ele><time>2026-05-02T11:12:06Z</time></trkpt><trkpt lat="41.84565514673533" lon="13.92661155206323"><ele>1559.5</ele><time>2026-05-02T11:12:07Z</time></trkpt><trkpt lat="41.84582116486689" lon="13.926870404999697"><ele>1557.0</ele><time>2026-05-02T11:12:08Z</time></trkpt><trkpt lat="41.846017114320354" lon="13.927112174437735"><ele>1562.0</ele><time>2026-05-02T11:12:09Z</time></trkpt><trkpt lat="41.84621537735969" lon="13.927349021813034"><ele>1567.0</ele><time>2026-05-02T11:12:10Z</time></trkpt><trkpt lat="41.84639916822979" lon="13.927600291678829"><ele>1567.0</ele><time>2026-05-02T11:12:11Z</time></trkpt><trkpt lat="41.84657836464832" lon="13.927845075480638"><ele>1567.0</ele><time>2026-05-02T11:12:12Z</time></trkpt><trkpt lat="41.84674504731945" lon="13.928062815439542"><ele>1568.3333333333335</ele><time>2026-05-02T11:12:13Z</time></trkpt><trkpt lat="41.84689951306176" lon="13.92826675056382"><ele>1569.6666666666665</ele><time>2026-05-02T11:12:14Z</time></trkpt><trkpt lat="41.84705757245599" lon="13.928455564002542"><ele>1571.0</ele><time>2026-05-02T11:12:15Z</time></trkpt><trkpt lat="41.847228281988656" lon="13.928608641050095"><ele>1571.0</ele><time>2026-05-02T11:12:16Z</time></trkpt><trkpt lat="41.84741308444831" lon="13.928734554643931"><ele>1571.0</ele><time>2026-05-02T11:12:17Z</time></trkpt><trkpt lat="41.847613401133394" lon="13.928836043507806"><ele>1571.0</ele><time>2026-05-02T11:12:18Z</time></trkpt><trkpt lat="41.84781855860482" lon="13.928913764631329"><ele>1573.3333333333333</ele><time>2026-05-02T11:12:19Z</time></trkpt><trkpt lat="41.848009969755985" lon="13.928996950215927"><ele>1575.6666666666665</ele><time>2026-05-02T11:12:20Z</time></trkpt><trkpt lat="41.848185585348176" lon="13.929075388731954"><ele>1578.0</ele><time>2026-05-02T11:12:21Z</time></trkpt><trkpt lat="41.84835102201283" lon="13.929143602549107"><ele>1575.0</ele><time>2026-05-02T11:12:22Z</time></trkpt><trkpt lat="41.848499072756894" lon="13.929201419804054"><ele>1572.0</ele><time>2026-05-02T11:12:23Z</time></trkpt><trkpt lat="41.848651500208604" lon="13.92923890767508"><ele>1569.0</ele><time>2026-05-02T11:12:24Z</time></trkpt><trkpt lat="41.848822044401906" lon="13.929243728929222"><ele>1569.0</ele><time>2026-05-02T11:12:25Z</time></trkpt><trkpt lat="41.84900998170947" lon="13.929233560061183"><ele>1569.0</ele><time>2026-05-02T11:12:26Z</time></trkpt><trkpt lat="41.8492031716973" lon="13.929219242226003"><ele>1569.0</ele><time>2026-05-02T11:12:27Z</time></trkpt><trkpt lat="41.84940747447218" lon="13.929206765407583"><ele>1574.0</ele><time>2026-05-02T11:12:28Z</time></trkpt><trkpt lat="41.84961083542402" lon="13.929201827945086"><ele>1579.0</ele><time>2026-05-02T11:12:29Z</time></trkpt><trkpt lat="41.84981426625222" lon="13.929187417667928"><ele>1584.0</ele><time>2026-05-02T11:12:30Z</time></trkpt><trkpt lat="41.85001220754349" lon="13.929157176229207"><ele>1579.6666666666665</ele><time>2026-05-02T11:12:31Z</time></trkpt><trkpt lat="41.850208832122725" lon="13.929101627053871"><ele>1575.3333333333333</ele><time>2026-05-02T11:12:32Z</time></trkpt><trkpt lat="41.85040581021262" lon="13.929026983356916"><ele>1571.0</ele><time>2026-05-02T11:12:33Z</time></trkpt><trkpt lat="41.850608036163116" lon="13.928946368053582"><ele>1571.0</ele><time>2026-05-02T11:12:34Z</time></trkpt><trkpt lat="41.85080811577233" lon="13.92887093337742"><ele>1571.0</ele><time>2026-05-02T11:12:35Z</time></trkpt><trkpt lat="41.85101768975891" lon="13.92878500923429"><ele>1571.0</ele><time>2026-05-02T11:12:36Z</time></trkpt><trkpt lat="41.85121433836373" lon="13.928715671609405"><ele>1567.0</ele><time>2026-05-02T11:12:37Z</time></trkpt><trkpt lat="41.851412021866565" lon="13.928636649690832"><ele>1563.0</ele><time>2026-05-02T11:12:38Z</time></trkpt><trkpt lat="41.85159552220775" lon="13.928564133189182"><ele>1559.0</ele><time>2026-05-02T11:12:39Z</time></trkpt><trkpt lat="41.85177312221384" lon="13.928482958559147"><ele>1557.6666666666665</ele><time>2026-05-02T11:12:40Z</time></trkpt><trkpt lat="41.85192914702312" lon="13.92839483904809"><ele>1556.3333333333335</ele><time>2026-05-02T11:12:41Z</time></trkpt><trkpt lat="41.85207859683504" lon="13.928290309379452"><ele>1555.0</ele><time>2026-05-02T11:12:42Z</time></trkpt><trkpt lat="41.852208431486574" lon="13.928150809713188"><ele>1556.5</ele><time>2026-05-02T11:12:43Z</time></trkpt><trkpt lat="41.85233313001344" lon="13.928039055331535"><ele>1558.0</ele><time>2026-05-02T11:12:44Z</time></trkpt><trkpt lat="41.852448213865195" lon="13.927936175559664"><ele>1559.5</ele><time>2026-05-02T11:12:45Z</time></trkpt><trkpt lat="41.85255773537799" lon="13.927810729458372"><ele>1561.0</ele><time>2026-05-02T11:12:46Z</time></trkpt><trkpt lat="41.85265816239775" lon="13.927710283426842"><ele>1561.0</ele><time>2026-05-02T11:12:47Z</time></trkpt><trkpt lat="41.85276084122187" lon="13.927649976720927"><ele>1561.0</ele><time>2026-05-02T11:12:48Z</time></trkpt><trkpt lat="41.85284804712161" lon="13.9275909387081"><ele>1561.0</ele><time>2026-05-02T11:12:49Z</time></trkpt><trkpt lat="41.85292635572222" lon="13.927546739179263"><ele>1561.0</ele><time>2026-05-02T11:12:50Z</time></trkpt><trkpt lat="41.853011947786406" lon="13.927516483633212"><ele>1561.0</ele><time>2026-05-02T11:12:51Z</time></trkpt><trkpt lat="41.85309544820323" lon="13.927513534426291"><ele>1561.0000000000002</ele><time>2026-05-02T11:12:52Z</time></trkpt><trkpt lat="41.85317837387406" lon="13.92755843109283"><ele>1561.0</ele><time>2026-05-02T11:12:53Z</time></trkpt><trkpt lat="41.85325532441667" lon="13.927619915088883"><ele>1561.0</ele><time>2026-05-02T11:12:54Z</time></trkpt><trkpt lat="41.85331106963171" lon="13.927687146775646"><ele>1561.0</ele><time>2026-05-02T11:12:55Z</time></trkpt><trkpt lat="41.853360047181226" lon="13.927748015378612"><ele>1561.0000000000002</ele><time>2026-05-02T11:12:56Z</time></trkpt><trkpt lat="41.853413040179255" lon="13.927806527060355"><ele>1561.0</ele><time>2026-05-02T11:12:57Z</time></trkpt><trkpt lat="41.85348076897642" lon="13.9278575671915"><ele>1561.0</ele><time>2026-05-02T11:12:58Z</time></trkpt><trkpt lat="41.85355217851604" lon="13.927894487843666"><ele>1561.0</ele><time>2026-05-02T11:12:59Z</time></trkpt><trkpt lat="41.853620435110614" lon="13.927922849778959"><ele>1561.0</ele><time>2026-05-02T11:13:00Z</time></trkpt><trkpt lat="41.853687158371585" lon="13.927961330700763"><ele>1561.0</ele><time>2026-05-02T11:13:01Z</time></trkpt><trkpt lat="41.85375588606116" lon="13.928002027603487"><ele>1561.0</ele><time>2026-05-02T11:13:02Z</time></trkpt><trkpt lat="41.85381768232145" lon="13.928044055062792"><ele>1561.0</ele><time>2026-05-02T11:13:03Z</time></trkpt><trkpt lat="41.85387373099421" lon="13.928091743679149"><ele>1561.0</ele><time>2026-05-02T11:13:04Z</time></trkpt><trkpt lat="41.8539359621048" lon="13.92812896859296"><ele>1561.0000000000002</ele><time>2026-05-02T11:13:05Z</time></trkpt><trkpt lat="41.85400241012216" lon="13.928144032606523"><ele>1561.0</ele><time>2026-05-02T11:13:06Z</time></trkpt><trkpt lat="41.85408669348821" lon="13.928126718475557"><ele>1561.0</ele><time>2026-05-02T11:13:07Z</time></trkpt><trkpt lat="41.854158846099764" lon="13.928100890484464"><ele>1561.0</ele><time>2026-05-02T11:13:08Z</time></trkpt><trkpt lat="41.85422594479243" lon="13.928047325688546"><ele>1561.0000000000002</ele><time>2026-05-02T11:13:09Z</time></trkpt><trkpt lat="41.854295329553345" lon="13.927983066628439"><ele>1561.0</ele><time>2026-05-02T11:13:10Z</time></trkpt><trkpt lat="41.854359498338574" lon="13.927910843704026"><ele>1558.1999999999998</ele><time>2026-05-02T11:13:11Z</time></trkpt><trkpt lat="41.854423358342274" lon="13.927832531536602"><ele>1555.3999999999999</ele><time>2026-05-02T11:13:12Z</time></trkpt><trkpt lat="41.85448829203045" lon="13.927752840257694"><ele>1552.6</ele><time>2026-05-02T11:13:13Z</time></trkpt><trkpt lat="41.85455676508866" lon="13.927659512585272"><ele>1549.8</ele><time>2026-05-02T11:13:14Z</time></trkpt><trkpt lat="41.85460787193825" lon="13.9275405792699"><ele>1547.0</ele><time>2026-05-02T11:13:15Z</time></trkpt><trkpt lat="41.85465668191987" lon="13.927367416013178"><ele>1547.0</ele><time>2026-05-02T11:13:16Z</time></trkpt><trkpt lat="41.85471831730509" lon="13.927161259927788"><ele>1547.0</ele><time>2026-05-02T11:13:17Z</time></trkpt><trkpt lat="41.85478966567201" lon="13.92695500929522"><ele>1547.0</ele><time>2026-05-02T11:13:18Z</time></trkpt><trkpt lat="41.854858215958465" lon="13.92675258579522"><ele>1551.6666666666665</ele><time>2026-05-02T11:13:19Z</time></trkpt><trkpt lat="41.85491739152769" lon="13.92655875557844"><ele>1556.3333333333335</ele><time>2026-05-02T11:13:20Z</time></trkpt><trkpt lat="41.85498697229465" lon="13.926372503348441"><ele>1561.0</ele><time>2026-05-02T11:13:21Z</time></trkpt><trkpt lat="41.855110196482244" lon="13.926211774269408"><ele>1556.0</ele><time>2026-05-02T11:13:22Z</time></trkpt><trkpt lat="41.85523048119359" lon="13.926048220887656"><ele>1551.0</ele><time>2026-05-02T11:13:23Z</time></trkpt><trkpt lat="41.85531187658366" lon="13.925842902124344"><ele>1546.0</ele><time>2026-05-02T11:13:24Z</time></trkpt><trkpt lat="41.85537802683627" lon="13.925652302854168"><ele>1546.0</ele><time>2026-05-02T11:13:25Z</time></trkpt><trkpt lat="41.85545157822542" lon="13.925465432602353"><ele>1546.0</ele><time>2026-05-02T11:13:26Z</time></trkpt><trkpt lat="41.855543397663595" lon="13.925300348255817"><ele>1546.0</ele><time>2026-05-02T11:13:27Z</time></trkpt><trkpt lat="41.85565523541455" lon="13.925170447016718"><ele>1547.0</ele><time>2026-05-02T11:13:28Z</time></trkpt><trkpt lat="41.85576850515569" lon="13.925058800353245"><ele>1548.0</ele><time>2026-05-02T11:13:29Z</time></trkpt><trkpt lat="41.85590083096209" lon="13.924974855872405"><ele>1549.0</ele><time>2026-05-02T11:13:30Z</time></trkpt><trkpt lat="41.85604975977947" lon="13.92494099335214"><ele>1550.0</ele><time>2026-05-02T11:13:31Z</time></trkpt><trkpt lat="41.85621954402716" lon="13.924946568782447"><ele>1550.0</ele><time>2026-05-02T11:13:32Z</time></trkpt><trkpt lat="41.85637171559841" lon="13.924948553847207"><ele>1550.0</ele><time>2026-05-02T11:13:33Z</time></trkpt><trkpt lat="41.856517423615486" lon="13.924927196368454"><ele>1550.0</ele><time>2026-05-02T11:13:34Z</time></trkpt><trkpt lat="41.85666400789977" lon="13.924858257253346"><ele>1545.25</ele><time>2026-05-02T11:13:35Z</time></trkpt><trkpt lat="41.85679427671581" lon="13.924750406131087"><ele>1540.5</ele><time>2026-05-02T11:13:36Z</time></trkpt><trkpt lat="41.85690175087228" lon="13.924628229284862"><ele>1535.75</ele><time>2026-05-02T11:13:37Z</time></trkpt><trkpt lat="41.85703160788253" lon="13.924535659140474"><ele>1531.0</ele><time>2026-05-02T11:13:38Z</time></trkpt><trkpt lat="41.85718535044697" lon="13.92450278721563"><ele>1531.0</ele><time>2026-05-02T11:13:39Z</time></trkpt><trkpt lat="41.857332118283956" lon="13.92448379055821"><ele>1531.0</ele><time>2026-05-02T11:13:40Z</time></trkpt><trkpt lat="41.857465262820746" lon="13.924429844767241"><ele>1531.0</ele><time>2026-05-02T11:13:41Z</time></trkpt><trkpt lat="41.85759005425872" lon="13.924318372799219"><ele>1531.0</ele><time>2026-05-02T11:13:42Z</time></trkpt><trkpt lat="41.857699577048606" lon="13.924155376179607"><ele>1529.75</ele><time>2026-05-02T11:13:43Z</time></trkpt><trkpt lat="41.85779527181058" lon="13.924028435960782"><ele>1528.5</ele><time>2026-05-02T11:13:44Z</time></trkpt><trkpt lat="41.85788178400544" lon="13.923913398258145"><ele>1527.25</ele><time>2026-05-02T11:13:45Z</time></trkpt><trkpt lat="41.85792509909211" lon="13.923743619674871"><ele>1526.0</ele><time>2026-05-02T11:13:46Z</time></trkpt><trkpt lat="41.85794683755741" lon="13.923550116566345"><ele>1530.25</ele><time>2026-05-02T11:13:47Z</time></trkpt><trkpt lat="41.85802022180463" lon="13.923379897024116"><ele>1534.5</ele><time>2026-05-02T11:13:48Z</time></trkpt><trkpt lat="41.858096391045414" lon="13.923199462770489"><ele>1538.75</ele><time>2026-05-02T11:13:49Z</time></trkpt><trkpt lat="41.858145495334504" lon="13.923011709325174"><ele>1543.0</ele><time>2026-05-02T11:13:50Z</time></trkpt><trkpt lat="41.858153876549984" lon="13.922805540732094"><ele>1543.0</ele><time>2026-05-02T11:13:51Z</time></trkpt><trkpt lat="41.858147555967676" lon="13.922624421402338"><ele>1543.0</ele><time>2026-05-02T11:13:52Z</time></trkpt><trkpt lat="41.85817025913644" lon="13.922472495586605"><ele>1543.0</ele><time>2026-05-02T11:13:53Z</time></trkpt><trkpt lat="41.85823293902801" lon="13.922330653853388"><ele>1543.0</ele><time>2026-05-02T11:13:54Z</time></trkpt><trkpt lat="41.858345122394965" lon="13.922192490722187"><ele>1540.0</ele><time>2026-05-02T11:13:55Z</time></trkpt><trkpt lat="41.85846079659196" lon="13.922025073826195"><ele>1537.0</ele><time>2026-05-02T11:13:56Z</time></trkpt><trkpt lat="41.85857137273974" lon="13.92183079650226"><ele>1534.0</ele><time>2026-05-02T11:13:57Z</time></trkpt><trkpt lat="41.85869149878007" lon="13.921632034847386"><ele>1534.0</ele><time>2026-05-02T11:13:58Z</time></trkpt><trkpt lat="41.85881847969947" lon="13.92143892268968"><ele>1534.0</ele><time>2026-05-02T11:13:59Z</time></trkpt><trkpt lat="41.85893374135704" lon="13.921223258498507"><ele>1534.0</ele><time>2026-05-02T11:14:00Z</time></trkpt><trkpt lat="41.85904324571137" lon="13.920998585530096"><ele>1539.3333333333333</ele><time>2026-05-02T11:14:01Z</time></trkpt><trkpt lat="41.85917022052167" lon="13.920785359065398"><ele>1544.6666666666665</ele><time>2026-05-02T11:14:02Z</time></trkpt><trkpt lat="41.85929218324231" lon="13.920586145189409"><ele>1550.0</ele><time>2026-05-02T11:14:03Z</time></trkpt><trkpt lat="41.85940467106331" lon="13.920394005758519"><ele>1542.3333333333333</ele><time>2026-05-02T11:14:04Z</time></trkpt><trkpt lat="41.85951560556601" lon="13.920205420074716"><ele>1534.6666666666665</ele><time>2026-05-02T11:14:05Z</time></trkpt><trkpt lat="41.8596032808276" lon="13.919988594003115"><ele>1527.0</ele><time>2026-05-02T11:14:06Z</time></trkpt><trkpt lat="41.85968427522947" lon="13.919752331505098"><ele>1527.0</ele><time>2026-05-02T11:14:07Z</time></trkpt><trkpt lat="41.859769689531035" lon="13.91950901346586"><ele>1527.0</ele><time>2026-05-02T11:14:08Z</time></trkpt><trkpt lat="41.859859754593" lon="13.919267449261948"><ele>1527.0</ele><time>2026-05-02T11:14:09Z</time></trkpt><trkpt lat="41.859953964631835" lon="13.919021065601756"><ele>1531.0</ele><time>2026-05-02T11:14:10Z</time></trkpt><trkpt lat="41.860046890244085" lon="13.918779273972042"><ele>1535.0</ele><time>2026-05-02T11:14:11Z</time></trkpt><trkpt lat="41.860143220503375" lon="13.918534727523017"><ele>1539.0</ele><time>2026-05-02T11:14:12Z</time></trkpt><trkpt lat="41.860244235203766" lon="13.918291453654614"><ele>1533.3333333333333</ele><time>2026-05-02T11:14:13Z</time></trkpt><trkpt lat="41.860344106939884" lon="13.918046157915507"><ele>1527.6666666666665</ele><time>2026-05-02T11:14:14Z</time></trkpt><trkpt lat="41.86043231199814" lon="13.91779496761132"><ele>1522.0</ele><time>2026-05-02T11:14:15Z</time></trkpt><trkpt lat="41.86051472084545" lon="13.917539550210943"><ele>1522.0</ele><time>2026-05-02T11:14:16Z</time></trkpt><trkpt lat="41.86058364341666" lon="13.917276794415393"><ele>1522.0</ele><time>2026-05-02T11:14:17Z</time></trkpt><trkpt lat="41.860647786272544" lon="13.917026908871952"><ele>1522.0</ele><time>2026-05-02T11:14:18Z</time></trkpt><trkpt lat="41.860705230284566" lon="13.916798393911112"><ele>1522.6666666666665</ele><time>2026-05-02T11:14:19Z</time></trkpt><trkpt lat="41.86074918463881" lon="13.91657704984542"><ele>1523.3333333333333</ele><time>2026-05-02T11:14:20Z</time></trkpt><trkpt lat="41.86077108161187" lon="13.916370432851183"><ele>1524.0</ele><time>2026-05-02T11:14:21Z</time></trkpt><trkpt lat="41.86078126649153" lon="13.916185005624186"><ele>1524.0</ele><time>2026-05-02T11:14:22Z</time></trkpt><trkpt lat="41.86076934818893" lon="13.916035186768408"><ele>1524.0</ele><time>2026-05-02T11:14:23Z</time></trkpt><trkpt lat="41.860709728522835" lon="13.915895181968757"><ele>1524.0</ele><time>2026-05-02T11:14:24Z</time></trkpt><trkpt lat="41.86060826210199" lon="13.915771889721475"><ele>1524.0</ele><time>2026-05-02T11:14:25Z</time></trkpt><trkpt lat="41.8604784862552" lon="13.915664000040733"><ele>1523.6</ele><time>2026-05-02T11:14:26Z</time></trkpt><trkpt lat="41.860363596682205" lon="13.915573778204688"><ele>1523.2</ele><time>2026-05-02T11:14:27Z</time></trkpt><trkpt lat="41.86027151542608" lon="13.915514997613997"><ele>1522.8</ele><time>2026-05-02T11:14:28Z</time></trkpt><trkpt lat="41.86021133243922" lon="13.915422202491255"><ele>1522.3999999999999</ele><time>2026-05-02T11:14:29Z</time></trkpt><trkpt lat="41.86020107184565" lon="13.915286090650085"><ele>1522.0</ele><time>2026-05-02T11:14:30Z</time></trkpt><trkpt lat="41.86023180779762" lon="13.915185698955378"><ele>1522.0</ele><time>2026-05-02T11:14:31Z</time></trkpt><trkpt lat="41.860299336567785" lon="13.915102700107015"><ele>1522.0</ele><time>2026-05-02T11:14:32Z</time></trkpt><trkpt lat="41.860422014887284" lon="13.915026071395067"><ele>1522.0</ele><time>2026-05-02T11:14:33Z</time></trkpt><trkpt lat="41.86053265708442" lon="13.91489172655196"><ele>1522.0</ele><time>2026-05-02T11:14:34Z</time></trkpt><trkpt lat="41.86060307290411" lon="13.914701644513244"><ele>1521.0</ele><time>2026-05-02T11:14:35Z</time></trkpt><trkpt lat="41.86065886512724" lon="13.914486499928874"><ele>1520.0</ele><time>2026-05-02T11:14:36Z</time></trkpt><trkpt lat="41.86072339875093" lon="13.914249589982521"><ele>1519.0</ele><time>2026-05-02T11:14:37Z</time></trkpt><trkpt lat="41.8608089643393" lon="13.914024207376883"><ele>1519.0</ele><time>2026-05-02T11:14:38Z</time></trkpt><trkpt lat="41.86089438075069" lon="13.91378028810072"><ele>1519.0</ele><time>2026-05-02T11:14:39Z</time></trkpt><trkpt lat="41.86097741072444" lon="13.913525573583065"><ele>1519.0</ele><time>2026-05-02T11:14:40Z</time></trkpt><trkpt lat="41.861067753618556" lon="13.913272716232111"><ele>1513.3333333333333</ele><time>2026-05-02T11:14:41Z</time></trkpt><trkpt lat="41.861161112667965" lon="13.913011297109831"><ele>1507.6666666666667</ele><time>2026-05-02T11:14:42Z</time></trkpt><trkpt lat="41.861248025990164" lon="13.912745732145552"><ele>1502.0</ele><time>2026-05-02T11:14:43Z</time></trkpt><trkpt lat="41.861344640784836" lon="13.912485016641059"><ele>1502.0</ele><time>2026-05-02T11:14:44Z</time></trkpt><trkpt lat="41.861432482222675" lon="13.91222305257943"><ele>1502.0</ele><time>2026-05-02T11:14:45Z</time></trkpt><trkpt lat="41.861522408857866" lon="13.911982779246467"><ele>1502.0</ele><time>2026-05-02T11:14:46Z</time></trkpt><trkpt lat="41.86160068128827" lon="13.911764344658275"><ele>1503.5</ele><time>2026-05-02T11:14:47Z</time></trkpt><trkpt lat="41.86167680362626" lon="13.911580979538662"><ele>1505.0</ele><time>2026-05-02T11:14:48Z</time></trkpt><trkpt lat="41.86177831462492" lon="13.911459456480612"><ele>1506.5</ele><time>2026-05-02T11:14:49Z</time></trkpt><trkpt lat="41.86190676153482" lon="13.911368015907216"><ele>1508.0</ele><time>2026-05-02T11:14:50Z</time></trkpt><trkpt lat="41.86207222902026" lon="13.911325607363565"><ele>1501.6666666666667</ele><time>2026-05-02T11:14:51Z</time></trkpt><trkpt lat="41.86224161593394" lon="13.911272658583583"><ele>1495.3333333333333</ele><time>2026-05-02T11:14:52Z</time></trkpt><trkpt lat="41.862408006540214" lon="13.911199543030735"><ele>1489.0</ele><time>2026-05-02T11:14:53Z</time></trkpt><trkpt lat="41.86257275430442" lon="13.91111669740514"><ele>1491.3333333333333</ele><time>2026-05-02T11:14:54Z</time></trkpt><trkpt lat="41.862738347488275" lon="13.911010317092368"><ele>1493.6666666666667</ele><time>2026-05-02T11:14:55Z</time></trkpt><trkpt lat="41.862903305328" lon="13.910871762751967"><ele>1496.0</ele><time>2026-05-02T11:14:56Z</time></trkpt><trkpt lat="41.86306231577018" lon="13.910737931635449"><ele>1496.0</ele><time>2026-05-02T11:14:57Z</time></trkpt><trkpt lat="41.86319448427511" lon="13.910623546547546"><ele>1496.0</ele><time>2026-05-02T11:14:58Z</time></trkpt><trkpt lat="41.86329796614132" lon="13.910503141141225"><ele>1496.0</ele><time>2026-05-02T11:14:59Z</time></trkpt><trkpt lat="41.863372689365036" lon="13.910351242801045"><ele>1496.0</ele><time>2026-05-02T11:15:00Z</time></trkpt><trkpt lat="41.863405754361146" lon="13.910141746008309"><ele>1498.6666666666667</ele><time>2026-05-02T11:15:01Z</time></trkpt><trkpt lat="41.86342914937049" lon="13.90990965812038"><ele>1501.3333333333333</ele><time>2026-05-02T11:15:02Z</time></trkpt><trkpt lat="41.86345526630539" lon="13.909652442985017"><ele>1504.0</ele><time>2026-05-02T11:15:03Z</time></trkpt><trkpt lat="41.86350114287253" lon="13.909405891134785"><ele>1495.6666666666665</ele><time>2026-05-02T11:15:04Z</time></trkpt><trkpt lat="41.863534605961405" lon="13.909149571238936"><ele>1487.3333333333333</ele><time>2026-05-02T11:15:05Z</time></trkpt><trkpt lat="41.86358344355855" lon="13.90893011469737"><ele>1479.0</ele><time>2026-05-02T11:15:06Z</time></trkpt><trkpt lat="41.86363452929389" lon="13.908747042014936"><ele>1479.0</ele><time>2026-05-02T11:15:07Z</time></trkpt><trkpt lat="41.86366536968107" lon="13.90857477027397"><ele>1479.0</ele><time>2026-05-02T11:15:08Z</time></trkpt><trkpt lat="41.863659478147504" lon="13.908388956817484"><ele>1479.0</ele><time>2026-05-02T11:15:09Z</time></trkpt><trkpt lat="41.863602207404334" lon="13.908232769079959"><ele>1479.0</ele><time>2026-05-02T11:15:10Z</time></trkpt><trkpt lat="41.86353704272551" lon="13.908114535395168"><ele>1483.0</ele><time>2026-05-02T11:15:11Z</time></trkpt><trkpt lat="41.863410743185916" lon="13.908035178931708"><ele>1487.0</ele><time>2026-05-02T11:15:12Z</time></trkpt><trkpt lat="41.863255374475195" lon="13.908026749851315"><ele>1491.0</ele><time>2026-05-02T11:15:13Z</time></trkpt><trkpt lat="41.86308053451312" lon="13.907989360628592"><ele>1491.0</ele><time>2026-05-02T11:15:14Z</time></trkpt><trkpt lat="41.86293498730289" lon="13.907905734768171"><ele>1491.0</ele><time>2026-05-02T11:15:15Z</time></trkpt><trkpt lat="41.86282388517321" lon="13.907812183955818"><ele>1491.0</ele><time>2026-05-02T11:15:16Z</time></trkpt><trkpt lat="41.86275755728345" lon="13.907691138858558"><ele>1491.0</ele><time>2026-05-02T11:15:17Z</time></trkpt><trkpt lat="41.86273541273115" lon="13.907502598318008"><ele>1490.5</ele><time>2026-05-02T11:15:18Z</time></trkpt><trkpt lat="41.86273523583494" lon="13.907284376389951"><ele>1490.0</ele><time>2026-05-02T11:15:19Z</time></trkpt><trkpt lat="41.862723052140616" lon="13.907117154047215"><ele>1489.5</ele><time>2026-05-02T11:15:20Z</time></trkpt><trkpt lat="41.86268278792967" lon="13.90699328228193"><ele>1489.0</ele><time>2026-05-02T11:15:21Z</time></trkpt><trkpt lat="41.862570426874406" lon="13.906904914682631"><ele>1489.0</ele><time>2026-05-02T11:15:22Z</time></trkpt><trkpt lat="41.86243514432137" lon="13.906852974658138"><ele>1489.0</ele><time>2026-05-02T11:15:23Z</time></trkpt><trkpt lat="41.86237033295917" lon="13.906735967484328"><ele>1489.0</ele><time>2026-05-02T11:15:24Z</time></trkpt><trkpt lat="41.86233373646304" lon="13.906582273856403"><ele>1489.0</ele><time>2026-05-02T11:15:25Z</time></trkpt><trkpt lat="41.8623454196313" lon="13.906380814992609"><ele>1486.0</ele><time>2026-05-02T11:15:26Z</time></trkpt><trkpt lat="41.862381151461065" lon="13.90615529939424"><ele>1483.0</ele><time>2026-05-02T11:15:27Z</time></trkpt><trkpt lat="41.86241862960348" lon="13.90595249127434"><ele>1480.0</ele><time>2026-05-02T11:15:28Z</time></trkpt><trkpt lat="41.8624384292274" lon="13.90576599377309"><ele>1479.6666666666665</ele><time>2026-05-02T11:15:29Z</time></trkpt><trkpt lat="41.862406912905875" lon="13.905581495670585"><ele>1479.3333333333333</ele><time>2026-05-02T11:15:30Z</time></trkpt><trkpt lat="41.86232891919241" lon="13.905385194227724"><ele>1479.0</ele><time>2026-05-02T11:15:31Z</time></trkpt><trkpt lat="41.862302008994504" lon="13.905148026243094"><ele>1477.3333333333333</ele><time>2026-05-02T11:15:32Z</time></trkpt><trkpt lat="41.86232875368359" lon="13.90491184066399"><ele>1475.6666666666665</ele><time>2026-05-02T11:15:33Z</time></trkpt><trkpt lat="41.862382069226626" lon="13.90468253370377"><ele>1474.0</ele><time>2026-05-02T11:15:34Z</time></trkpt><trkpt lat="41.86246354824058" lon="13.904495635617165"><ele>1474.0</ele><time>2026-05-02T11:15:35Z</time></trkpt><trkpt lat="41.862529788846615" lon="13.904362026994416"><ele>1474.0</ele><time>2026-05-02T11:15:36Z</time></trkpt><trkpt lat="41.86255885426174" lon="13.904253319050472"><ele>1474.0</ele><time>2026-05-02T11:15:37Z</time></trkpt><trkpt lat="41.86255475734391" lon="13.904130444947548"><ele>1474.0</ele><time>2026-05-02T11:15:38Z</time></trkpt><trkpt lat="41.86249351432092" lon="13.90403341029428"><ele>1474.0</ele><time>2026-05-02T11:15:39Z</time></trkpt><trkpt lat="41.86239437642127" lon="13.903991832892018"><ele>1472.0</ele><time>2026-05-02T11:15:40Z</time></trkpt><trkpt lat="41.86224316647734" lon="13.903995339915307"><ele>1470.0</ele><time>2026-05-02T11:15:41Z</time></trkpt><trkpt lat="41.86207616063469" lon="13.904018826136097"><ele>1468.0</ele><time>2026-05-02T11:15:42Z</time></trkpt><trkpt lat="41.86189755028157" lon="13.904038642117007"><ele>1466.6666666666665</ele><time>2026-05-02T11:15:43Z</time></trkpt><trkpt lat="41.861717218724074" lon="13.90407525910387"><ele>1465.3333333333333</ele><time>2026-05-02T11:15:44Z</time></trkpt><trkpt lat="41.861525405348374" lon="13.90412350455993"><ele>1464.0</ele><time>2026-05-02T11:15:45Z</time></trkpt><trkpt lat="41.86133183471491" lon="13.904176968700673"><ele>1464.0</ele><time>2026-05-02T11:15:46Z</time></trkpt><trkpt lat="41.8611395447488" lon="13.90421810627011"><ele>1464.0</ele><time>2026-05-02T11:15:47Z</time></trkpt><trkpt lat="41.86094404807998" lon="13.904259309006502"><ele>1464.0</ele><time>2026-05-02T11:15:48Z</time></trkpt><trkpt lat="41.86074663142686" lon="13.904306419695946"><ele>1468.3333333333333</ele><time>2026-05-02T11:15:49Z</time></trkpt><trkpt lat="41.86054596651513" lon="13.904350836288838"><ele>1472.6666666666665</ele><time>2026-05-02T11:15:50Z</time></trkpt><trkpt lat="41.860343540704605" lon="13.904392770090649"><ele>1477.0</ele><time>2026-05-02T11:15:51Z</time></trkpt><trkpt lat="41.86014545853287" lon="13.904429715692194"><ele>1475.0</ele><time>2026-05-02T11:15:52Z</time></trkpt><trkpt lat="41.859942416752226" lon="13.90446480672948"><ele>1473.0</ele><time>2026-05-02T11:15:53Z</time></trkpt><trkpt lat="41.85974108026498" lon="13.90446165738836"><ele>1471.0</ele><time>2026-05-02T11:15:54Z</time></trkpt><trkpt lat="41.85952929301862" lon="13.904430994797256"><ele>1471.0</ele><time>2026-05-02T11:15:55Z</time></trkpt><trkpt lat="41.85931807413442" lon="13.904475985325448"><ele>1471.0</ele><time>2026-05-02T11:15:56Z</time></trkpt><trkpt lat="41.85911564751331" lon="13.904516365253897"><ele>1471.0</ele><time>2026-05-02T11:15:57Z</time></trkpt><trkpt lat="41.85893670954827" lon="13.904556014614672"><ele>1470.75</ele><time>2026-05-02T11:15:58Z</time></trkpt><trkpt lat="41.858775426712135" lon="13.90458344931473"><ele>1470.5</ele><time>2026-05-02T11:15:59Z</time></trkpt><trkpt lat="41.85863320125532" lon="13.904634097824067"><ele>1470.25</ele><time>2026-05-02T11:16:00Z</time></trkpt><trkpt lat="41.85852529231541" lon="13.904661111452047"><ele>1470.0</ele><time>2026-05-02T11:16:01Z</time></trkpt><trkpt lat="41.85843876630668" lon="13.904682942237304"><ele>1470.0</ele><time>2026-05-02T11:16:02Z</time></trkpt><trkpt lat="41.858368695677754" lon="13.904702836705168"><ele>1470.0</ele><time>2026-05-02T11:16:03Z</time></trkpt><trkpt lat="41.85830517830454" lon="13.904626298150438"><ele>1470.0</ele><time>2026-05-02T11:16:05Z</time></trkpt><trkpt lat="41.85834271907001" lon="13.904539035118466"><ele>1470.0</ele><time>2026-05-02T11:16:06Z</time></trkpt><trkpt lat="41.858439313529864" lon="13.904492902102213"><ele>1470.0</ele><time>2026-05-02T11:16:07Z</time></trkpt><trkpt lat="41.858556672228445" lon="13.904472387995266"><ele>1470.0</ele><time>2026-05-02T11:16:08Z</time></trkpt><trkpt lat="41.85869510443861" lon="13.904461778379305"><ele>1470.0</ele><time>2026-05-02T11:16:09Z</time></trkpt><trkpt lat="41.85884796182591" lon="13.904397969548603"><ele>1470.0</ele><time>2026-05-02T11:16:10Z</time></trkpt><trkpt lat="41.859013047054724" lon="13.904340169979585"><ele>1470.0</ele><time>2026-05-02T11:16:11Z</time></trkpt><trkpt lat="41.85919904917094" lon="13.90428762014296"><ele>1470.0</ele><time>2026-05-02T11:16:12Z</time></trkpt><trkpt lat="41.859380323116284" lon="13.904235654079757"><ele>1470.0</ele><time>2026-05-02T11:16:13Z</time></trkpt><trkpt lat="41.85956944537694" lon="13.904167828129724"><ele>1465.0</ele><time>2026-05-02T11:16:14Z</time></trkpt><trkpt lat="41.85976397082551" lon="13.904082239836434"><ele>1460.0</ele><time>2026-05-02T11:16:15Z</time></trkpt><trkpt lat="41.85995582150952" lon="13.904014948184447"><ele>1455.0</ele><time>2026-05-02T11:16:16Z</time></trkpt><trkpt lat="41.860155372196814" lon="13.903932806892223"><ele>1455.0</ele><time>2026-05-02T11:16:17Z</time></trkpt><trkpt lat="41.860360434886616" lon="13.903851029873902"><ele>1455.0</ele><time>2026-05-02T11:16:18Z</time></trkpt><trkpt lat="41.860568955239316" lon="13.9037639904557"><ele>1455.0</ele><time>2026-05-02T11:16:19Z</time></trkpt><trkpt lat="41.8607838310736" lon="13.90367715143217"><ele>1459.5</ele><time>2026-05-02T11:16:20Z</time></trkpt><trkpt lat="41.86099925593281" lon="13.903577031041454"><ele>1464.0</ele><time>2026-05-02T11:16:21Z</time></trkpt><trkpt lat="41.861212767250954" lon="13.903462200816437"><ele>1449.5</ele><time>2026-05-02T11:16:22Z</time></trkpt><trkpt lat="41.86142369461177" lon="13.903345324297346"><ele>1435.0</ele><time>2026-05-02T11:16:23Z</time></trkpt><trkpt lat="41.861627369158626" lon="13.90322611929728"><ele>1439.0</ele><time>2026-05-02T11:16:24Z</time></trkpt><trkpt lat="41.86182060603444" lon="13.90312215478626"><ele>1443.0</ele><time>2026-05-02T11:16:25Z</time></trkpt><trkpt lat="41.86200592266715" lon="13.902994875543667"><ele>1447.0</ele><time>2026-05-02T11:16:26Z</time></trkpt><trkpt lat="41.862175921538245" lon="13.902890517334578"><ele>1447.0</ele><time>2026-05-02T11:16:27Z</time></trkpt><trkpt lat="41.86234752922958" lon="13.902797393378183"><ele>1447.0</ele><time>2026-05-02T11:16:28Z</time></trkpt><trkpt lat="41.86253499414829" lon="13.902730262334861"><ele>1447.0</ele><time>2026-05-02T11:16:29Z</time></trkpt><trkpt lat="41.86270684010019" lon="13.902681779822375"><ele>1449.3333333333333</ele><time>2026-05-02T11:16:30Z</time></trkpt><trkpt lat="41.862863937651234" lon="13.902659127307741"><ele>1451.6666666666667</ele><time>2026-05-02T11:16:31Z</time></trkpt><trkpt lat="41.86300937871206" lon="13.902596871332475"><ele>1454.0</ele><time>2026-05-02T11:16:32Z</time></trkpt><trkpt lat="41.86314638050977" lon="13.902453214950404"><ele>1454.0</ele><time>2026-05-02T11:16:33Z</time></trkpt><trkpt lat="41.86328035392998" lon="13.902268231179905"><ele>1454.0</ele><time>2026-05-02T11:16:34Z</time></trkpt><trkpt lat="41.86341442475581" lon="13.90209031156528"><ele>1454.0</ele><time>2026-05-02T11:16:35Z</time></trkpt><trkpt lat="41.86357796960842" lon="13.901921355059663"><ele>1447.0</ele><time>2026-05-02T11:16:36Z</time></trkpt><trkpt lat="41.86373880294923" lon="13.90173728399142"><ele>1440.0</ele><time>2026-05-02T11:16:37Z</time></trkpt><trkpt lat="41.8638993838998" lon="13.901539883211955"><ele>1433.0</ele><time>2026-05-02T11:16:38Z</time></trkpt><trkpt lat="41.864060168582945" lon="13.901338722385592"><ele>1433.0</ele><time>2026-05-02T11:16:39Z</time></trkpt><trkpt lat="41.86422263538148" lon="13.901135171134829"><ele>1433.0</ele><time>2026-05-02T11:16:40Z</time></trkpt><trkpt lat="41.864372156627695" lon="13.900915784922498"><ele>1433.0</ele><time>2026-05-02T11:16:41Z</time></trkpt><trkpt lat="41.864504778583694" lon="13.900698840276464"><ele>1433.6666666666667</ele><time>2026-05-02T11:16:42Z</time></trkpt><trkpt lat="41.864622135135114" lon="13.900495703724722"><ele>1434.3333333333333</ele><time>2026-05-02T11:16:43Z</time></trkpt><trkpt lat="41.864725877935925" lon="13.900295209912509"><ele>1435.0</ele><time>2026-05-02T11:16:44Z</time></trkpt><trkpt lat="41.86486129161665" lon="13.900131349270811"><ele>1431.3333333333333</ele><time>2026-05-02T11:16:45Z</time></trkpt><trkpt lat="41.865028203194576" lon="13.899990093636248"><ele>1427.6666666666667</ele><time>2026-05-02T11:16:46Z</time></trkpt><trkpt lat="41.86521732644304" lon="13.89985558259486"><ele>1424.0</ele><time>2026-05-02T11:16:47Z</time></trkpt><trkpt lat="41.86541152950893" lon="13.899738615103502"><ele>1424.0</ele><time>2026-05-02T11:16:48Z</time></trkpt><trkpt lat="41.865608945749976" lon="13.89962956963708"><ele>1424.0</ele><time>2026-05-02T11:16:49Z</time></trkpt><trkpt lat="41.865774073761" lon="13.899529795147096"><ele>1424.0</ele><time>2026-05-02T11:16:50Z</time></trkpt><trkpt lat="41.86592744204999" lon="13.899467252279324"><ele>1425.25</ele><time>2026-05-02T11:16:51Z</time></trkpt><trkpt lat="41.86607324488904" lon="13.899438188252025"><ele>1426.5</ele><time>2026-05-02T11:16:52Z</time></trkpt><trkpt lat="41.86620090806798" lon="13.899444930758348"><ele>1427.75</ele><time>2026-05-02T11:16:53Z</time></trkpt><trkpt lat="41.86630439330115" lon="13.899454975262202"><ele>1429.0</ele><time>2026-05-02T11:16:54Z</time></trkpt><trkpt lat="41.86637788357916" lon="13.899426443894273"><ele>1429.0</ele><time>2026-05-02T11:16:55Z</time></trkpt><trkpt lat="41.86642472093789" lon="13.899363666421626"><ele>1429.0</ele><time>2026-05-02T11:16:56Z</time></trkpt><trkpt lat="41.866370688936236" lon="13.899211607426047"><ele>1429.0</ele><time>2026-05-02T11:16:58Z</time></trkpt><trkpt lat="41.86626454981309" lon="13.89920430255643"><ele>1429.0</ele><time>2026-05-02T11:16:59Z</time></trkpt><trkpt lat="41.86611361184046" lon="13.899257612129732"><ele>1429.0</ele><time>2026-05-02T11:17:00Z</time></trkpt><trkpt lat="41.865946467499626" lon="13.8993148295831"><ele>1429.0</ele><time>2026-05-02T11:17:01Z</time></trkpt><trkpt lat="41.8657687695987" lon="13.899367710830374"><ele>1429.0</ele><time>2026-05-02T11:17:02Z</time></trkpt><trkpt lat="41.86558796955767" lon="13.89943260648097"><ele>1427.3333333333333</ele><time>2026-05-02T11:17:03Z</time></trkpt><trkpt lat="41.865402187502674" lon="13.899507000001188"><ele>1425.6666666666667</ele><time>2026-05-02T11:17:04Z</time></trkpt><trkpt lat="41.865207869391526" lon="13.899574191008018"><ele>1424.0</ele><time>2026-05-02T11:17:05Z</time></trkpt><trkpt lat="41.865010570069" lon="13.899642714171678"><ele>1417.0</ele><time>2026-05-02T11:17:06Z</time></trkpt><trkpt lat="41.86481676609245" lon="13.899729158632654"><ele>1410.0</ele><time>2026-05-02T11:17:07Z</time></trkpt><trkpt lat="41.86463396634828" lon="13.899831450196714"><ele>1403.0</ele><time>2026-05-02T11:17:08Z</time></trkpt><trkpt lat="41.86446108867623" lon="13.899967378455852"><ele>1403.0</ele><time>2026-05-02T11:17:09Z</time></trkpt><trkpt lat="41.864292548468356" lon="13.900137578102825"><ele>1403.0</ele><time>2026-05-02T11:17:10Z</time></trkpt><trkpt lat="41.86412643767256" lon="13.900327508462345"><ele>1403.0</ele><time>2026-05-02T11:17:11Z</time></trkpt><trkpt lat="41.86396928639233" lon="13.900519899073569"><ele>1403.0</ele><time>2026-05-02T11:17:12Z</time></trkpt><trkpt lat="41.863802412191305" lon="13.900671065391842"><ele>1403.0</ele><time>2026-05-02T11:17:13Z</time></trkpt><trkpt lat="41.86364606724573" lon="13.900813942203902"><ele>1403.0</ele><time>2026-05-02T11:17:14Z</time></trkpt><trkpt lat="41.86351673343723" lon="13.900935922172218"><ele>1403.0</ele><time>2026-05-02T11:17:15Z</time></trkpt><trkpt lat="41.86339644816248" lon="13.901050319495004"><ele>1403.0</ele><time>2026-05-02T11:17:16Z</time></trkpt><trkpt lat="41.863301020620604" lon="13.901158827173933"><ele>1403.0</ele><time>2026-05-02T11:17:17Z</time></trkpt><trkpt lat="41.86322402498596" lon="13.901242121902133"><ele>1403.0</ele><time>2026-05-02T11:17:18Z</time></trkpt><trkpt lat="41.86315968242805" lon="13.90130961936891"><ele>1403.0</ele><time>2026-05-02T11:17:19Z</time></trkpt><trkpt lat="41.86305874842473" lon="13.901316754783272"><ele>1403.0</ele><time>2026-05-02T11:17:21Z</time></trkpt><trkpt lat="41.8630820325325" lon="13.901171831435342"><ele>1403.0</ele><time>2026-05-02T11:17:23Z</time></trkpt><trkpt lat="41.86320495302468" lon="13.901094839472217"><ele>1403.0</ele><time>2026-05-02T11:17:24Z</time></trkpt><trkpt lat="41.86332964414731" lon="13.90099932254432"><ele>1403.0</ele><time>2026-05-02T11:17:25Z</time></trkpt><trkpt lat="41.863454174357514" lon="13.90086992994785"><ele>1403.0</ele><time>2026-05-02T11:17:26Z</time></trkpt><trkpt lat="41.86358903665262" lon="13.90069728839959"><ele>1403.0</ele><time>2026-05-02T11:17:27Z</time></trkpt><trkpt lat="41.86372475289434" lon="13.900514121493917"><ele>1403.0</ele><time>2026-05-02T11:17:28Z</time></trkpt><trkpt lat="41.863865375459795" lon="13.900314097359"><ele>1403.0</ele><time>2026-05-02T11:17:29Z</time></trkpt><trkpt lat="41.86400204251278" lon="13.900113811703628"><ele>1403.0</ele><time>2026-05-02T11:17:30Z</time></trkpt><trkpt lat="41.86413223096765" lon="13.899900430846541"><ele>1403.0</ele><time>2026-05-02T11:17:31Z</time></trkpt><trkpt lat="41.86425909085295" lon="13.899693857964632"><ele>1403.0</ele><time>2026-05-02T11:17:32Z</time></trkpt><trkpt lat="41.86440311952958" lon="13.899502165400174"><ele>1403.0</ele><time>2026-05-02T11:17:33Z</time></trkpt><trkpt lat="41.86455705040944" lon="13.899331932686456"><ele>1391.6666666666667</ele><time>2026-05-02T11:17:34Z</time></trkpt><trkpt lat="41.864711797574486" lon="13.899177139084568"><ele>1380.3333333333333</ele><time>2026-05-02T11:17:35Z</time></trkpt><trkpt lat="41.864888168286114" lon="13.899070991793902"><ele>1369.0</ele><time>2026-05-02T11:17:36Z</time></trkpt><trkpt lat="41.86506551982208" lon="13.898955374112663"><ele>1374.3333333333333</ele><time>2026-05-02T11:17:37Z</time></trkpt><trkpt lat="41.86525083507753" lon="13.898833111990834"><ele>1379.6666666666667</ele><time>2026-05-02T11:17:38Z</time></trkpt><trkpt lat="41.865435802500976" lon="13.898714334492638"><ele>1385.0</ele><time>2026-05-02T11:17:39Z</time></trkpt><trkpt lat="41.865611740023084" lon="13.898612679453855"><ele>1385.0</ele><time>2026-05-02T11:17:40Z</time></trkpt><trkpt lat="41.865785573943825" lon="13.898529386303915"><ele>1385.0</ele><time>2026-05-02T11:17:41Z</time></trkpt><trkpt lat="41.86597684434703" lon="13.898476577435186"><ele>1385.0</ele><time>2026-05-02T11:17:42Z</time></trkpt><trkpt lat="41.8661827431496" lon="13.898449528537432"><ele>1387.6666666666667</ele><time>2026-05-02T11:17:43Z</time></trkpt><trkpt lat="41.8663845056977" lon="13.898428942905667"><ele>1390.3333333333333</ele><time>2026-05-02T11:17:44Z</time></trkpt><trkpt lat="41.866574185912654" lon="13.89840597973628"><ele>1393.0</ele><time>2026-05-02T11:17:45Z</time></trkpt><trkpt lat="41.866756386579006" lon="13.89835664126409"><ele>1378.3333333333333</ele><time>2026-05-02T11:17:46Z</time></trkpt><trkpt lat="41.86695221063095" lon="13.898309397447514"><ele>1363.6666666666667</ele><time>2026-05-02T11:17:47Z</time></trkpt><trkpt lat="41.867146261210756" lon="13.898292553730606"><ele>1349.0</ele><time>2026-05-02T11:17:48Z</time></trkpt><trkpt lat="41.86734840824313" lon="13.89829296063328"><ele>1349.0</ele><time>2026-05-02T11:17:49Z</time></trkpt><trkpt lat="41.86754909801619" lon="13.898293291840092"><ele>1349.0</ele><time>2026-05-02T11:17:50Z</time></trkpt><trkpt lat="41.86773490541859" lon="13.898297694474968"><ele>1349.0</ele><time>2026-05-02T11:17:51Z</time></trkpt><trkpt lat="41.86789847358769" lon="13.898317485496229"><ele>1351.0</ele><time>2026-05-02T11:17:52Z</time></trkpt><trkpt lat="41.86803844602012" lon="13.898344935961182"><ele>1353.0</ele><time>2026-05-02T11:17:53Z</time></trkpt><trkpt lat="41.86816408424329" lon="13.898372708530426"><ele>1355.0</ele><time>2026-05-02T11:17:54Z</time></trkpt><trkpt lat="41.86827325638604" lon="13.898384849180967"><ele>1357.0</ele><time>2026-05-02T11:17:55Z</time></trkpt><trkpt lat="41.86837215594492" lon="13.89833004159452"><ele>1357.0</ele><time>2026-05-02T11:17:56Z</time></trkpt><trkpt lat="41.86843909808102" lon="13.898201709918169"><ele>1357.0</ele><time>2026-05-02T11:17:57Z</time></trkpt><trkpt lat="41.86847395996921" lon="13.898035987215335"><ele>1357.0</ele><time>2026-05-02T11:17:58Z</time></trkpt><trkpt lat="41.86848736455297" lon="13.897827844929864"><ele>1357.0</ele><time>2026-05-02T11:17:59Z</time></trkpt><trkpt lat="41.86848708066474" lon="13.897561956272696"><ele>1368.6666666666665</ele><time>2026-05-02T11:18:00Z</time></trkpt><trkpt lat="41.86848657049933" lon="13.897280867096487"><ele>1380.3333333333333</ele><time>2026-05-02T11:18:01Z</time></trkpt><trkpt lat="41.86848692544906" lon="13.896996650322313"><ele>1392.0</ele><time>2026-05-02T11:18:02Z</time></trkpt><trkpt lat="41.86849819051112" lon="13.896762462215042"><ele>1387.0</ele><time>2026-05-02T11:18:03Z</time></trkpt><trkpt lat="41.86850275792344" lon="13.896565260892652"><ele>1382.0</ele><time>2026-05-02T11:18:04Z</time></trkpt><trkpt lat="41.86851547056771" lon="13.896389981070012"><ele>1377.0</ele><time>2026-05-02T11:18:05Z</time></trkpt><trkpt lat="41.868544286477515" lon="13.896233660935621"><ele>1372.0</ele><time>2026-05-02T11:18:06Z</time></trkpt><trkpt lat="41.86859130276206" lon="13.896064480654038"><ele>1363.0</ele><time>2026-05-02T11:18:07Z</time></trkpt><trkpt lat="41.86867188133741" lon="13.895917456240898"><ele>1354.0</ele><time>2026-05-02T11:18:08Z</time></trkpt><trkpt lat="41.86876353851774" lon="13.89580003249282"><ele>1345.0</ele><time>2026-05-02T11:18:09Z</time></trkpt><trkpt lat="41.86889189099761" lon="13.895720349908105"><ele>1336.0</ele><time>2026-05-02T11:18:10Z</time></trkpt><trkpt lat="41.8690516149012" lon="13.895663204037275"><ele>1336.0</ele><time>2026-05-02T11:18:11Z</time></trkpt><trkpt lat="41.869227192439574" lon="13.895609801063904"><ele>1336.0</ele><time>2026-05-02T11:18:12Z</time></trkpt><trkpt lat="41.86941135240667" lon="13.895535628465604"><ele>1336.0</ele><time>2026-05-02T11:18:13Z</time></trkpt><trkpt lat="41.86959685561992" lon="13.895460940749272"><ele>1341.3333333333333</ele><time>2026-05-02T11:18:14Z</time></trkpt><trkpt lat="41.86978951929166" lon="13.895384407987866"><ele>1346.6666666666667</ele><time>2026-05-02T11:18:15Z</time></trkpt><trkpt lat="41.86999611813693" lon="13.89531387276952"><ele>1352.0</ele><time>2026-05-02T11:18:16Z</time></trkpt><trkpt lat="41.870209647777166" lon="13.89525251062175"><ele>1357.0</ele><time>2026-05-02T11:18:17Z</time></trkpt><trkpt lat="41.87043148408611" lon="13.89520225505115"><ele>1362.0</ele><time>2026-05-02T11:18:18Z</time></trkpt><trkpt lat="41.87065691678904" lon="13.895154005353037"><ele>1362.0</ele><time>2026-05-02T11:18:19Z</time></trkpt><trkpt lat="41.87088765662532" lon="13.895110363462154"><ele>1362.0</ele><time>2026-05-02T11:18:20Z</time></trkpt><trkpt lat="41.871115341701284" lon="13.895066841364747"><ele>1349.6666666666667</ele><time>2026-05-02T11:18:21Z</time></trkpt><trkpt lat="41.87133147153798" lon="13.895031455817891"><ele>1337.3333333333335</ele><time>2026-05-02T11:18:22Z</time></trkpt><trkpt lat="41.8715348967378" lon="13.894995693778334"><ele>1325.0</ele><time>2026-05-02T11:18:23Z</time></trkpt><trkpt lat="41.87172131085561" lon="13.894967854126019"><ele>1326.0</ele><time>2026-05-02T11:18:24Z</time></trkpt><trkpt lat="41.871889427035825" lon="13.894939510320262"><ele>1327.0</ele><time>2026-05-02T11:18:25Z</time></trkpt><trkpt lat="41.8720449011917" lon="13.894915697046574"><ele>1328.0</ele><time>2026-05-02T11:18:26Z</time></trkpt><trkpt lat="41.87216946559029" lon="13.894909843524227"><ele>1328.0</ele><time>2026-05-02T11:18:27Z</time></trkpt><trkpt lat="41.8722808037862" lon="13.894908526065917"><ele>1328.0</ele><time>2026-05-02T11:18:28Z</time></trkpt><trkpt lat="41.872360383980705" lon="13.894889484845455"><ele>1328.0</ele><time>2026-05-02T11:18:29Z</time></trkpt><trkpt lat="41.872425816075236" lon="13.8948360567963"><ele>1328.0</ele><time>2026-05-02T11:18:30Z</time></trkpt><trkpt lat="41.87244887547593" lon="13.894748741466216"><ele>1328.0</ele><time>2026-05-02T11:18:31Z</time></trkpt><trkpt lat="41.87242281968025" lon="13.894666752951538"><ele>1328.0</ele><time>2026-05-02T11:18:32Z</time></trkpt><trkpt lat="41.87235499329339" lon="13.894613046768573"><ele>1328.0</ele><time>2026-05-02T11:18:33Z</time></trkpt><trkpt lat="41.87225365409021" lon="13.894621182460295"><ele>1328.0</ele><time>2026-05-02T11:18:34Z</time></trkpt><trkpt lat="41.872106791969046" lon="13.894678792569103"><ele>1328.0</ele><time>2026-05-02T11:18:35Z</time></trkpt><trkpt lat="41.87195631055501" lon="13.894735957180105"><ele>1328.0</ele><time>2026-05-02T11:18:36Z</time></trkpt><trkpt lat="41.87177492885762" lon="13.894772328556584"><ele>1327.0</ele><time>2026-05-02T11:18:37Z</time></trkpt><trkpt lat="41.871589329361896" lon="13.894795986160505"><ele>1326.0</ele><time>2026-05-02T11:18:38Z</time></trkpt><trkpt lat="41.87138579659603" lon="13.894778377273713"><ele>1325.0</ele><time>2026-05-02T11:18:39Z</time></trkpt><trkpt lat="41.87117673562783" lon="13.894754265020184"><ele>1325.0</ele><time>2026-05-02T11:18:40Z</time></trkpt><trkpt lat="41.87095978673841" lon="13.894757231489695"><ele>1325.0</ele><time>2026-05-02T11:18:41Z</time></trkpt><trkpt lat="41.87073631362058" lon="13.89478714221899"><ele>1325.0</ele><time>2026-05-02T11:18:42Z</time></trkpt><trkpt lat="41.87050581647285" lon="13.894807925400448"><ele>1322.5</ele><time>2026-05-02T11:18:43Z</time></trkpt><trkpt lat="41.870272729704915" lon="13.894823183414607"><ele>1320.0</ele><time>2026-05-02T11:18:44Z</time></trkpt><trkpt lat="41.870036949064705" lon="13.894841406367213"><ele>1316.0</ele><time>2026-05-02T11:18:45Z</time></trkpt><trkpt lat="41.86980348879076" lon="13.89487392912336"><ele>1312.0</ele><time>2026-05-02T11:18:46Z</time></trkpt><trkpt lat="41.86957510857666" lon="13.89489334041877"><ele>1312.0</ele><time>2026-05-02T11:18:47Z</time></trkpt><trkpt lat="41.86935362148965" lon="13.89492300702083"><ele>1312.0</ele><time>2026-05-02T11:18:48Z</time></trkpt><trkpt lat="41.8691544188424" lon="13.894933108768898"><ele>1312.0</ele><time>2026-05-02T11:18:49Z</time></trkpt><trkpt lat="41.86895615026563" lon="13.89496772565396"><ele>1307.3333333333333</ele><time>2026-05-02T11:18:50Z</time></trkpt><trkpt lat="41.86878571733695" lon="13.895010386215235"><ele>1302.6666666666667</ele><time>2026-05-02T11:18:51Z</time></trkpt><trkpt lat="41.86861993670027" lon="13.895050615775101"><ele>1298.0</ele><time>2026-05-02T11:18:52Z</time></trkpt><trkpt lat="41.86846379263305" lon="13.895116092755739"><ele>1300.25</ele><time>2026-05-02T11:18:53Z</time></trkpt><trkpt lat="41.86834497537192" lon="13.895192722463499"><ele>1302.5</ele><time>2026-05-02T11:18:54Z</time></trkpt><trkpt lat="41.86821394403131" lon="13.895259279634635"><ele>1304.75</ele><time>2026-05-02T11:18:55Z</time></trkpt><trkpt lat="41.8681154593086" lon="13.895420811026996"><ele>1307.0</ele><time>2026-05-02T11:18:56Z</time></trkpt><trkpt lat="41.86802410306" lon="13.895573389957615"><ele>1307.0</ele><time>2026-05-02T11:18:57Z</time></trkpt><trkpt lat="41.86794693863099" lon="13.895712857940108"><ele>1307.0</ele><time>2026-05-02T11:18:58Z</time></trkpt><trkpt lat="41.867902835979805" lon="13.895864398955192"><ele>1307.0</ele><time>2026-05-02T11:18:59Z</time></trkpt><trkpt lat="41.867864879580004" lon="13.896043268196122"><ele>1307.0</ele><time>2026-05-02T11:19:00Z</time></trkpt><trkpt lat="41.867845766532305" lon="13.896165222426424"><ele>1310.1666666666667</ele><time>2026-05-02T11:19:01Z</time></trkpt><trkpt lat="41.867829891124025" lon="13.896269208009132"><ele>1313.3333333333335</ele><time>2026-05-02T11:19:02Z</time></trkpt><trkpt lat="41.86781273831834" lon="13.896372868135535"><ele>1316.5</ele><time>2026-05-02T11:19:03Z</time></trkpt><trkpt lat="41.86778460579649" lon="13.89646624177002"><ele>1319.6666666666667</ele><time>2026-05-02T11:19:04Z</time></trkpt><trkpt lat="41.86774475238371" lon="13.896535679711292"><ele>1322.8333333333333</ele><time>2026-05-02T11:19:05Z</time></trkpt><trkpt lat="41.86765754209677" lon="13.896571179144377"><ele>1326.0</ele><time>2026-05-02T11:19:07Z</time></trkpt><trkpt lat="41.86762107401348" lon="13.89648967458476"><ele>1326.0</ele><time>2026-05-02T11:19:08Z</time></trkpt><trkpt lat="41.86762624194685" lon="13.896375305798099"><ele>1326.0</ele><time>2026-05-02T11:19:09Z</time></trkpt><trkpt lat="41.86767010811295" lon="13.89625405548257"><ele>1326.0</ele><time>2026-05-02T11:19:10Z</time></trkpt><trkpt lat="41.86771673500387" lon="13.896100816703752"><ele>1326.0</ele><time>2026-05-02T11:19:11Z</time></trkpt><trkpt lat="41.86776657010451" lon="13.895927983292118"><ele>1326.0</ele><time>2026-05-02T11:19:12Z</time></trkpt><trkpt lat="41.867819802462854" lon="13.895744546998113"><ele>1319.6666666666667</ele><time>2026-05-02T11:19:13Z</time></trkpt><trkpt lat="41.86789935303706" lon="13.895553825911605"><ele>1313.3333333333335</ele><time>2026-05-02T11:19:14Z</time></trkpt><trkpt lat="41.867999352170926" lon="13.895369830194406"><ele>1307.0</ele><time>2026-05-02T11:19:15Z</time></trkpt><trkpt lat="41.86808731801562" lon="13.895213546162207"><ele>1304.75</ele><time>2026-05-02T11:19:16Z</time></trkpt><trkpt lat="41.868171011616845" lon="13.895068617945313"><ele>1302.5</ele><time>2026-05-02T11:19:17Z</time></trkpt><trkpt lat="41.868262730434935" lon="13.894939737706641"><ele>1300.25</ele><time>2026-05-02T11:19:18Z</time></trkpt><trkpt lat="41.868398744000025" lon="13.894872183827331"><ele>1298.0</ele><time>2026-05-02T11:19:19Z</time></trkpt><trkpt lat="41.868539885185214" lon="13.89478414000123"><ele>1298.0</ele><time>2026-05-02T11:19:20Z</time></trkpt><trkpt lat="41.868701918669124" lon="13.894709164537968"><ele>1298.0</ele><time>2026-05-02T11:19:21Z</time></trkpt><trkpt lat="41.86887681632783" lon="13.894648187381573"><ele>1298.0</ele><time>2026-05-02T11:19:22Z</time></trkpt><trkpt lat="41.86906644580301" lon="13.894578430252189"><ele>1298.0</ele><time>2026-05-02T11:19:23Z</time></trkpt><trkpt lat="41.86927545999212" lon="13.894502674754564"><ele>1298.0</ele><time>2026-05-02T11:19:24Z</time></trkpt><trkpt lat="41.869495902774446" lon="13.894424700476076"><ele>1298.0</ele><time>2026-05-02T11:19:25Z</time></trkpt><trkpt lat="41.86972997660188" lon="13.894342101380147"><ele>1285.0</ele><time>2026-05-02T11:19:26Z</time></trkpt><trkpt lat="41.86996847448174" lon="13.894253689550474"><ele>1272.0</ele><time>2026-05-02T11:19:27Z</time></trkpt><trkpt lat="41.87021572007532" lon="13.894160622938102"><ele>1272.0</ele><time>2026-05-02T11:19:28Z</time></trkpt><trkpt lat="41.87045371035876" lon="13.894076057088924"><ele>1272.0</ele><time>2026-05-02T11:19:29Z</time></trkpt><trkpt lat="41.87067480868936" lon="13.893980316804884"><ele>1272.0</ele><time>2026-05-02T11:19:30Z</time></trkpt><trkpt lat="41.87089599712924" lon="13.893922526341784"><ele>1272.0</ele><time>2026-05-02T11:19:31Z</time></trkpt><trkpt lat="41.87110587903768" lon="13.893848704623986"><ele>1272.0</ele><time>2026-05-02T11:19:32Z</time></trkpt><trkpt lat="41.87130607596363" lon="13.893754483187232"><ele>1274.3333333333333</ele><time>2026-05-02T11:19:33Z</time></trkpt><trkpt lat="41.87150748719698" lon="13.893698608575932"><ele>1276.6666666666665</ele><time>2026-05-02T11:19:34Z</time></trkpt><trkpt lat="41.87168567416922" lon="13.893548443597735"><ele>1279.0</ele><time>2026-05-02T11:19:35Z</time></trkpt><trkpt lat="41.87187189402397" lon="13.89342572885781"><ele>1271.6666666666665</ele><time>2026-05-02T11:19:36Z</time></trkpt><trkpt lat="41.872040256700735" lon="13.893328762100257"><ele>1264.3333333333333</ele><time>2026-05-02T11:19:37Z</time></trkpt><trkpt lat="41.87223338484789" lon="13.893274891072354"><ele>1257.0</ele><time>2026-05-02T11:19:38Z</time></trkpt><trkpt lat="41.87246261410168" lon="13.893224934716654"><ele>1256.5</ele><time>2026-05-02T11:19:39Z</time></trkpt><trkpt lat="41.87269100612617" lon="13.893175795067322"><ele>1256.0</ele><time>2026-05-02T11:19:40Z</time></trkpt><trkpt lat="41.872929956721414" lon="13.893124012563934"><ele>1256.0</ele><time>2026-05-02T11:19:41Z</time></trkpt><trkpt lat="41.873168563993765" lon="13.893071124182756"><ele>1256.0</ele><time>2026-05-02T11:19:42Z</time></trkpt><trkpt lat="41.873395104682395" lon="13.893019920937943"><ele>1259.0</ele><time>2026-05-02T11:19:43Z</time></trkpt><trkpt lat="41.87360914870271" lon="13.892958525566472"><ele>1262.0</ele><time>2026-05-02T11:19:44Z</time></trkpt><trkpt lat="41.87381875368387" lon="13.892928976110293"><ele>1265.0</ele><time>2026-05-02T11:19:45Z</time></trkpt><trkpt lat="41.87400826482236" lon="13.892887320119426"><ele>1265.0</ele><time>2026-05-02T11:19:46Z</time></trkpt><trkpt lat="41.87418747970569" lon="13.892799534434332"><ele>1265.0</ele><time>2026-05-02T11:19:47Z</time></trkpt><trkpt lat="41.87436513950842" lon="13.892669760313714"><ele>1265.0</ele><time>2026-05-02T11:19:48Z</time></trkpt><trkpt lat="41.874546380946384" lon="13.89252008965121"><ele>1258.0</ele><time>2026-05-02T11:19:49Z</time></trkpt><trkpt lat="41.87470106679494" lon="13.892416150474904"><ele>1251.0</ele><time>2026-05-02T11:19:50Z</time></trkpt><trkpt lat="41.87485236626419" lon="13.8923626917103"><ele>1244.0</ele><time>2026-05-02T11:19:51Z</time></trkpt><trkpt lat="41.87501823619167" lon="13.892352578844694"><ele>1243.3333333333335</ele><time>2026-05-02T11:19:52Z</time></trkpt><trkpt lat="41.87519131207699" lon="13.892375696931595"><ele>1242.6666666666667</ele><time>2026-05-02T11:19:53Z</time></trkpt><trkpt lat="41.87537172009241" lon="13.892427699968538"><ele>1242.0</ele><time>2026-05-02T11:19:54Z</time></trkpt><trkpt lat="41.875543646626966" lon="13.89242084582551"><ele>1242.0</ele><time>2026-05-02T11:19:55Z</time></trkpt><trkpt lat="41.875718816497226" lon="13.892359645464706"><ele>1242.0</ele><time>2026-05-02T11:19:56Z</time></trkpt><trkpt lat="41.87588646049553" lon="13.892217380520142"><ele>1242.0</ele><time>2026-05-02T11:19:57Z</time></trkpt><trkpt lat="41.87603782736129" lon="13.892128162987662"><ele>1242.0</ele><time>2026-05-02T11:19:58Z</time></trkpt><trkpt lat="41.87617440595473" lon="13.89206090364342"><ele>1242.0</ele><time>2026-05-02T11:19:59Z</time></trkpt><trkpt lat="41.8763184229012" lon="13.892060280919003"><ele>1242.0</ele><time>2026-05-02T11:20:00Z</time></trkpt><trkpt lat="41.87648243124243" lon="13.89210532669979"><ele>1242.0</ele><time>2026-05-02T11:20:01Z</time></trkpt><trkpt lat="41.876667181795" lon="13.89214559022929"><ele>1242.0</ele><time>2026-05-02T11:20:02Z</time></trkpt><trkpt lat="41.87685507571736" lon="13.892144280824121"><ele>1242.0</ele><time>2026-05-02T11:20:03Z</time></trkpt><trkpt lat="41.87705980292889" lon="13.892052559504451"><ele>1244.0</ele><time>2026-05-02T11:20:04Z</time></trkpt><trkpt lat="41.87727963033074" lon="13.891940798475726"><ele>1246.0</ele><time>2026-05-02T11:20:05Z</time></trkpt><trkpt lat="41.8775154995901" lon="13.89187736904385"><ele>1249.6666666666665</ele><time>2026-05-02T11:20:06Z</time></trkpt><trkpt lat="41.87772545645919" lon="13.891812212182728"><ele>1253.3333333333333</ele><time>2026-05-02T11:20:07Z</time></trkpt><trkpt lat="41.87790565053419" lon="13.891786087514037"><ele>1257.0</ele><time>2026-05-02T11:20:08Z</time></trkpt><trkpt lat="41.87808358274338" lon="13.891745641461435"><ele>1246.6666666666667</ele><time>2026-05-02T11:20:09Z</time></trkpt><trkpt lat="41.878257679839066" lon="13.891706067173098"><ele>1236.3333333333335</ele><time>2026-05-02T11:20:10Z</time></trkpt><trkpt lat="41.878417374889366" lon="13.89142748212316"><ele>1226.0</ele><time>2026-05-02T11:20:11Z</time></trkpt><trkpt lat="41.878608358742895" lon="13.891380714015563"><ele>1226.0</ele><time>2026-05-02T11:20:12Z</time></trkpt><trkpt lat="41.87878531734156" lon="13.891336113233862"><ele>1226.0</ele><time>2026-05-02T11:20:13Z</time></trkpt><trkpt lat="41.87897500217993" lon="13.891334880482104"><ele>1226.0</ele><time>2026-05-02T11:20:14Z</time></trkpt><trkpt lat="41.87916681746965" lon="13.891368692619771"><ele>1228.3333333333335</ele><time>2026-05-02T11:20:15Z</time></trkpt><trkpt lat="41.879362075386766" lon="13.891326663244365"><ele>1230.6666666666667</ele><time>2026-05-02T11:20:16Z</time></trkpt><trkpt lat="41.87955714401656" lon="13.891220949712386"><ele>1233.0</ele><time>2026-05-02T11:20:17Z</time></trkpt><trkpt lat="41.87976227158911" lon="13.891130532622059"><ele>1233.0</ele><time>2026-05-02T11:20:18Z</time></trkpt><trkpt lat="41.879986887288666" lon="13.891069601858291"><ele>1233.0</ele><time>2026-05-02T11:20:19Z</time></trkpt><trkpt lat="41.88021593498186" lon="13.891019221527817"><ele>1234.0</ele><time>2026-05-02T11:20:20Z</time></trkpt><trkpt lat="41.880439648475324" lon="13.890974260457114"><ele>1235.0</ele><time>2026-05-02T11:20:21Z</time></trkpt><trkpt lat="41.88063845141793" lon="13.89094440773653"><ele>1236.0</ele><time>2026-05-02T11:20:22Z</time></trkpt><trkpt lat="41.88081788708644" lon="13.89091513367305"><ele>1235.0</ele><time>2026-05-02T11:20:23Z</time></trkpt><trkpt lat="41.88099463395973" lon="13.89091939758339"><ele>1234.0</ele><time>2026-05-02T11:20:24Z</time></trkpt><trkpt lat="41.88118969591959" lon="13.890958068585743"><ele>1233.0</ele><time>2026-05-02T11:20:25Z</time></trkpt><trkpt lat="41.88140004450786" lon="13.891010329264862"><ele>1233.0</ele><time>2026-05-02T11:20:26Z</time></trkpt><trkpt lat="41.881592117724246" lon="13.89103537849216"><ele>1233.0</ele><time>2026-05-02T11:20:27Z</time></trkpt><trkpt lat="41.88176955808344" lon="13.891072965931846"><ele>1233.0</ele><time>2026-05-02T11:20:28Z</time></trkpt><trkpt lat="41.8819194646304" lon="13.891087796626644"><ele>1235.3333333333333</ele><time>2026-05-02T11:20:29Z</time></trkpt><trkpt lat="41.88208273576116" lon="13.891047003185232"><ele>1237.6666666666665</ele><time>2026-05-02T11:20:30Z</time></trkpt><trkpt lat="41.8822536937313" lon="13.890944989209531"><ele>1240.0</ele><time>2026-05-02T11:20:31Z</time></trkpt><trkpt lat="41.8824145807047" lon="13.890842249825633"><ele>1227.0</ele><time>2026-05-02T11:20:32Z</time></trkpt><trkpt lat="41.882571662138574" lon="13.890750671847075"><ele>1214.0</ele><time>2026-05-02T11:20:33Z</time></trkpt><trkpt lat="41.88271940097668" lon="13.890703341021624"><ele>1201.0</ele><time>2026-05-02T11:20:34Z</time></trkpt><trkpt lat="41.88284868278265" lon="13.890669595059906"><ele>1201.0</ele><time>2026-05-02T11:20:35Z</time></trkpt><trkpt lat="41.88295877262763" lon="13.890635959618974"><ele>1201.0</ele><time>2026-05-02T11:20:36Z</time></trkpt><trkpt lat="41.883039981342236" lon="13.89060662465007"><ele>1201.0</ele><time>2026-05-02T11:20:37Z</time></trkpt><trkpt lat="41.883102155208604" lon="13.8905592961118"><ele>1201.0</ele><time>2026-05-02T11:20:38Z</time></trkpt><trkpt lat="41.883121964600925" lon="13.890472218957921"><ele>1201.0</ele><time>2026-05-02T11:20:39Z</time></trkpt><trkpt lat="41.883100536251796" lon="13.890348977589884"><ele>1201.0</ele><time>2026-05-02T11:20:40Z</time></trkpt><trkpt lat="41.88306663964047" lon="13.890183124297574"><ele>1196.75</ele><time>2026-05-02T11:20:41Z</time></trkpt><trkpt lat="41.88304176837577" lon="13.890007004732324"><ele>1192.5</ele><time>2026-05-02T11:20:42Z</time></trkpt><trkpt lat="41.88304370474927" lon="13.88985618467385"><ele>1188.25</ele><time>2026-05-02T11:20:43Z</time></trkpt><trkpt lat="41.88309349127374" lon="13.88968497621366"><ele>1184.0</ele><time>2026-05-02T11:20:44Z</time></trkpt><trkpt lat="41.8831419787799" lon="13.889516285760214"><ele>1184.0</ele><time>2026-05-02T11:20:45Z</time></trkpt><trkpt lat="41.883196341065066" lon="13.889356700148676"><ele>1184.0</ele><time>2026-05-02T11:20:46Z</time></trkpt><trkpt lat="41.8832884268959" lon="13.889248724035612"><ele>1184.0</ele><time>2026-05-02T11:20:47Z</time></trkpt><trkpt lat="41.88341524735713" lon="13.8891655725865"><ele>1184.0</ele><time>2026-05-02T11:20:48Z</time></trkpt><trkpt lat="41.88357484660792" lon="13.889121689929713"><ele>1183.3333333333335</ele><time>2026-05-02T11:20:49Z</time></trkpt><trkpt lat="41.883752218553155" lon="13.889068445195162"><ele>1182.6666666666667</ele><time>2026-05-02T11:20:50Z</time></trkpt><trkpt lat="41.88393833421219" lon="13.88896045576732"><ele>1182.0</ele><time>2026-05-02T11:20:51Z</time></trkpt><trkpt lat="41.884133944219045" lon="13.888855609094016"><ele>1180.6666666666667</ele><time>2026-05-02T11:20:52Z</time></trkpt><trkpt lat="41.88429970927995" lon="13.88877211071226"><ele>1179.3333333333335</ele><time>2026-05-02T11:20:53Z</time></trkpt><trkpt lat="41.88445831455854" lon="13.888713355424573"><ele>1178.0</ele><time>2026-05-02T11:20:54Z</time></trkpt><trkpt lat="41.88460539125791" lon="13.88870030106725"><ele>1178.0</ele><time>2026-05-02T11:20:55Z</time></trkpt><trkpt lat="41.88475588914034" lon="13.888701033516492"><ele>1178.0</ele><time>2026-05-02T11:20:56Z</time></trkpt><trkpt lat="41.88489164546454" lon="13.888737594480663"><ele>1178.0</ele><time>2026-05-02T11:20:57Z</time></trkpt><trkpt lat="41.885003732287544" lon="13.88881567808339"><ele>1178.0</ele><time>2026-05-02T11:20:58Z</time></trkpt><trkpt lat="41.88510797950501" lon="13.888939981082023"><ele>1177.0</ele><time>2026-05-02T11:20:59Z</time></trkpt><trkpt lat="41.88521720405636" lon="13.889040384564764"><ele>1176.0</ele><time>2026-05-02T11:21:00Z</time></trkpt><trkpt lat="41.885360182628915" lon="13.889096244491373"><ele>1175.0</ele><time>2026-05-02T11:21:01Z</time></trkpt><trkpt lat="41.88550201424542" lon="13.889095680518146"><ele>1174.0</ele><time>2026-05-02T11:21:02Z</time></trkpt><trkpt lat="41.88563204944529" lon="13.889083915524097"><ele>1174.0</ele><time>2026-05-02T11:21:03Z</time></trkpt><trkpt lat="41.885734999169394" lon="13.888996738183598"><ele>1174.0</ele><time>2026-05-02T11:21:04Z</time></trkpt><trkpt lat="41.88580293268844" lon="13.888835639522123"><ele>1174.0</ele><time>2026-05-02T11:21:05Z</time></trkpt><trkpt lat="41.885879194318974" lon="13.888650531094653"><ele>1174.0</ele><time>2026-05-02T11:21:06Z</time></trkpt><trkpt lat="41.88595735898956" lon="13.888435774322367"><ele>1170.0</ele><time>2026-05-02T11:21:07Z</time></trkpt><trkpt lat="41.88604085965542" lon="13.888252459311657"><ele>1166.0</ele><time>2026-05-02T11:21:08Z</time></trkpt><trkpt lat="41.8861329983768" lon="13.888091618549304"><ele>1162.0</ele><time>2026-05-02T11:21:09Z</time></trkpt><trkpt lat="41.88627743389556" lon="13.887970815529327"><ele>1162.0</ele><time>2026-05-02T11:21:10Z</time></trkpt><trkpt lat="41.886432791619136" lon="13.887855582186727"><ele>1162.0</ele><time>2026-05-02T11:21:11Z</time></trkpt><trkpt lat="41.88659026048155" lon="13.88773881517023"><ele>1162.0</ele><time>2026-05-02T11:21:12Z</time></trkpt><trkpt lat="41.88673906015189" lon="13.887632372334599"><ele>1164.0</ele><time>2026-05-02T11:21:13Z</time></trkpt><trkpt lat="41.88688467384941" lon="13.887564294509184"><ele>1166.0</ele><time>2026-05-02T11:21:14Z</time></trkpt><trkpt lat="41.88706130654197" lon="13.887544545276958"><ele>1168.0</ele><time>2026-05-02T11:21:15Z</time></trkpt><trkpt lat="41.887243188624936" lon="13.887511241639979"><ele>1168.0</ele><time>2026-05-02T11:21:16Z</time></trkpt><trkpt lat="41.887391096629436" lon="13.887486227787273"><ele>1168.0</ele><time>2026-05-02T11:21:17Z</time></trkpt><trkpt lat="41.887522122421636" lon="13.887469721738578"><ele>1168.0</ele><time>2026-05-02T11:21:18Z</time></trkpt><trkpt lat="41.88763011164194" lon="13.88746909153336"><ele>1168.0</ele><time>2026-05-02T11:21:19Z</time></trkpt><trkpt lat="41.88775346205449" lon="13.887533903623163"><ele>1161.6666666666665</ele><time>2026-05-02T11:21:20Z</time></trkpt><trkpt lat="41.887879733394236" lon="13.887656910991604"><ele>1155.3333333333333</ele><time>2026-05-02T11:21:21Z</time></trkpt><trkpt lat="41.88799714628631" lon="13.887824980762028"><ele>1149.0</ele><time>2026-05-02T11:21:22Z</time></trkpt><trkpt lat="41.888132424198965" lon="13.88795507936338"><ele>1149.0</ele><time>2026-05-02T11:21:23Z</time></trkpt><trkpt lat="41.88823383634404" lon="13.88805354632142"><ele>1149.0</ele><time>2026-05-02T11:21:24Z</time></trkpt><trkpt lat="41.88833299771973" lon="13.888121237805455"><ele>1149.0</ele><time>2026-05-02T11:21:25Z</time></trkpt><trkpt lat="41.88845930265529" lon="13.888133285416298"><ele>1149.0</ele><time>2026-05-02T11:21:26Z</time></trkpt><trkpt lat="41.88858117322719" lon="13.888051475143417"><ele>1151.0</ele><time>2026-05-02T11:21:27Z</time></trkpt><trkpt lat="41.88868413538328" lon="13.887872010887783"><ele>1153.0</ele><time>2026-05-02T11:21:28Z</time></trkpt><trkpt lat="41.88878166281696" lon="13.88769541141978"><ele>1155.0</ele><time>2026-05-02T11:21:29Z</time></trkpt><trkpt lat="41.88887893627455" lon="13.887573050622999"><ele>1155.0</ele><time>2026-05-02T11:21:30Z</time></trkpt><trkpt lat="41.8889964832487" lon="13.887520483892002"><ele>1155.0</ele><time>2026-05-02T11:21:31Z</time></trkpt><trkpt lat="41.889164039469485" lon="13.88751422254629"><ele>1155.0</ele><time>2026-05-02T11:21:32Z</time></trkpt><trkpt lat="41.88936004353343" lon="13.887505086543834"><ele>1155.0</ele><time>2026-05-02T11:21:33Z</time></trkpt><trkpt lat="41.8895342598236" lon="13.887471667136603"><ele>1155.0</ele><time>2026-05-02T11:21:34Z</time></trkpt><trkpt lat="41.88967620523575" lon="13.887488085448133"><ele>1155.0</ele><time>2026-05-02T11:21:35Z</time></trkpt><trkpt lat="41.889798005261" lon="13.88750807087629"><ele>1155.0</ele><time>2026-05-02T11:21:36Z</time></trkpt><trkpt lat="41.889882535509294" lon="13.887604138087728"><ele>1150.0</ele><time>2026-05-02T11:21:37Z</time></trkpt><trkpt lat="41.88999081882669" lon="13.887722621236955"><ele>1145.0</ele><time>2026-05-02T11:21:38Z</time></trkpt><trkpt lat="41.890096596845204" lon="13.887831382388727"><ele>1140.0</ele><time>2026-05-02T11:21:39Z</time></trkpt><trkpt lat="41.89018510303422" lon="13.88792116728094"><ele>1135.0</ele><time>2026-05-02T11:21:40Z</time></trkpt><trkpt lat="41.89027021908901" lon="13.887998306150427"><ele>1135.0</ele><time>2026-05-02T11:21:41Z</time></trkpt><trkpt lat="41.8903624538311" lon="13.888058286429162"><ele>1135.0</ele><time>2026-05-02T11:21:42Z</time></trkpt><trkpt lat="41.89046540270745" lon="13.888092999142136"><ele>1135.0</ele><time>2026-05-02T11:21:43Z</time></trkpt><trkpt lat="41.89057063443895" lon="13.888112403299978"><ele>1135.0</ele><time>2026-05-02T11:21:44Z</time></trkpt><trkpt lat="41.89066794297973" lon="13.888117570244615"><ele>1135.0</ele><time>2026-05-02T11:21:45Z</time></trkpt><trkpt lat="41.89075344853666" lon="13.888111795507006"><ele>1135.0</ele><time>2026-05-02T11:21:46Z</time></trkpt><trkpt lat="41.89082996514105" lon="13.88811237719652"><ele>1135.0</ele><time>2026-05-02T11:21:47Z</time></trkpt><trkpt lat="41.890942669761905" lon="13.888118332035571"><ele>1135.0</ele><time>2026-05-02T11:21:49Z</time></trkpt><trkpt lat="41.89101373397333" lon="13.888140145596536"><ele>1135.0</ele><time>2026-05-02T11:21:51Z</time></trkpt><trkpt lat="41.891045112373156" lon="13.888283451495974"><ele>1135.0</ele><time>2026-05-02T11:21:53Z</time></trkpt><trkpt lat="41.891010553784525" lon="13.888361728221788"><ele>1135.0</ele><time>2026-05-02T11:21:54Z</time></trkpt><trkpt lat="41.89095059957049" lon="13.888406480837428"><ele>1135.0</ele><time>2026-05-02T11:21:55Z</time></trkpt><trkpt lat="41.89087765207055" lon="13.888420693062304"><ele>1135.0</ele><time>2026-05-02T11:21:56Z</time></trkpt><trkpt lat="41.89077900817006" lon="13.888428139848735"><ele>1135.0</ele><time>2026-05-02T11:21:57Z</time></trkpt><trkpt lat="41.890654462392746" lon="13.888424627066247"><ele>1135.0</ele><time>2026-05-02T11:21:58Z</time></trkpt><trkpt lat="41.89048811722299" lon="13.88842867359336"><ele>1128.6666666666665</ele><time>2026-05-02T11:21:59Z</time></trkpt><trkpt lat="41.89030062100474" lon="13.888434199928657"><ele>1122.3333333333333</ele><time>2026-05-02T11:22:00Z</time></trkpt><trkpt lat="41.8901153893454" lon="13.88844167524413"><ele>1116.0</ele><time>2026-05-02T11:22:01Z</time></trkpt><trkpt lat="41.88997255128285" lon="13.888440236088924"><ele>1116.0</ele><time>2026-05-02T11:22:02Z</time></trkpt><trkpt lat="41.889866195860016" lon="13.888448642940904"><ele>1116.0</ele><time>2026-05-02T11:22:03Z</time></trkpt><trkpt lat="41.88977757356448" lon="13.88845272764535"><ele>1116.0</ele><time>2026-05-02T11:22:04Z</time></trkpt><trkpt lat="41.889683475365636" lon="13.888486939927212"><ele>1116.0</ele><time>2026-05-02T11:22:06Z</time></trkpt><trkpt lat="41.8896702798477" lon="13.888645918151182"><ele>1116.0</ele><time>2026-05-02T11:22:08Z</time></trkpt><trkpt lat="41.88969272049309" lon="13.88874804992054"><ele>1116.0</ele><time>2026-05-02T11:22:09Z</time></trkpt><trkpt lat="41.889764356738105" lon="13.888833249414331"><ele>1116.0</ele><time>2026-05-02T11:22:11Z</time></trkpt><trkpt lat="41.889842167580234" lon="13.888795329278679"><ele>1116.0</ele><time>2026-05-02T11:22:12Z</time></trkpt><trkpt lat="41.88991513596266" lon="13.888778765406052"><ele>1116.0</ele><time>2026-05-02T11:22:13Z</time></trkpt><trkpt lat="41.88999628634222" lon="13.888735818718672"><ele>1116.0</ele><time>2026-05-02T11:22:14Z</time></trkpt><trkpt lat="41.89008834054664" lon="13.888728726154007"><ele>1116.0</ele><time>2026-05-02T11:22:15Z</time></trkpt><trkpt lat="41.89016880684507" lon="13.88876829139002"><ele>1114.6</ele><time>2026-05-02T11:22:16Z</time></trkpt><trkpt lat="41.89025401257768" lon="13.888795201742028"><ele>1113.1999999999998</ele><time>2026-05-02T11:22:17Z</time></trkpt><trkpt lat="41.8903530247745" lon="13.888825428247983"><ele>1111.8000000000002</ele><time>2026-05-02T11:22:18Z</time></trkpt><trkpt lat="41.890451541633404" lon="13.888854173493602"><ele>1110.4</ele><time>2026-05-02T11:22:19Z</time></trkpt><trkpt lat="41.89055288576964" lon="13.88888473358894"><ele>1109.0</ele><time>2026-05-02T11:22:20Z</time></trkpt><trkpt lat="41.8906644802334" lon="13.88891829603587"><ele>1109.0</ele><time>2026-05-02T11:22:21Z</time></trkpt><trkpt lat="41.89076684279122" lon="13.888947199903468"><ele>1109.0</ele><time>2026-05-02T11:22:22Z</time></trkpt><trkpt lat="41.8908544288913" lon="13.888971654138404"><ele>1109.0</ele><time>2026-05-02T11:22:23Z</time></trkpt><trkpt lat="41.89093758181709" lon="13.88896400602986"><ele>1109.0</ele><time>2026-05-02T11:22:24Z</time></trkpt><trkpt lat="41.891009539415734" lon="13.888946622973117"><ele>1109.0</ele><time>2026-05-02T11:22:25Z</time></trkpt><trkpt lat="41.89108701342273" lon="13.888885051862017"><ele>1109.0</ele><time>2026-05-02T11:22:26Z</time></trkpt><trkpt lat="41.891156872648935" lon="13.88878553786577"><ele>1106.6000000000001</ele><time>2026-05-02T11:22:27Z</time></trkpt><trkpt lat="41.89123558603396" lon="13.888718875351364"><ele>1104.2</ele><time>2026-05-02T11:22:28Z</time></trkpt><trkpt lat="41.89131165571265" lon="13.88867687395838"><ele>1101.8000000000002</ele><time>2026-05-02T11:22:29Z</time></trkpt><trkpt lat="41.89140874872324" lon="13.888667826181539"><ele>1099.4</ele><time>2026-05-02T11:22:30Z</time></trkpt><trkpt lat="41.89153510631916" lon="13.888673978313514"><ele>1097.0</ele><time>2026-05-02T11:22:31Z</time></trkpt><trkpt lat="41.89169157806282" lon="13.888676912159037"><ele>1094.6666666666667</ele><time>2026-05-02T11:22:32Z</time></trkpt><trkpt lat="41.89188070964209" lon="13.888680458384696"><ele>1092.3333333333333</ele><time>2026-05-02T11:22:33Z</time></trkpt><trkpt lat="41.89206035549515" lon="13.88866932703009"><ele>1090.0</ele><time>2026-05-02T11:22:34Z</time></trkpt><trkpt lat="41.892225689048445" lon="13.88867444723837"><ele>1090.0</ele><time>2026-05-02T11:22:35Z</time></trkpt><trkpt lat="41.8923886395062" lon="13.888674764974894"><ele>1090.0</ele><time>2026-05-02T11:22:36Z</time></trkpt><trkpt lat="41.89251421539312" lon="13.888671713094741"><ele>1090.0</ele><time>2026-05-02T11:22:37Z</time></trkpt><trkpt lat="41.892634513779804" lon="13.888676123525558"><ele>1090.0</ele><time>2026-05-02T11:22:38Z</time></trkpt><trkpt lat="41.892765444890564" lon="13.888565851966183"><ele>1090.0</ele><time>2026-05-02T11:22:39Z</time></trkpt><trkpt lat="41.89288623828903" lon="13.88843688469035"><ele>1090.0</ele><time>2026-05-02T11:22:40Z</time></trkpt><trkpt lat="41.892980078991364" lon="13.88836255533404"><ele>1090.0</ele><time>2026-05-02T11:22:41Z</time></trkpt><trkpt lat="41.89303602003371" lon="13.88825441557643"><ele>1090.0</ele><time>2026-05-02T11:22:42Z</time></trkpt><trkpt lat="41.893044989051106" lon="13.888115907318825"><ele>1090.0</ele><time>2026-05-02T11:22:43Z</time></trkpt><trkpt lat="41.893017282455745" lon="13.887934356028973"><ele>1090.0</ele><time>2026-05-02T11:22:44Z</time></trkpt><trkpt lat="41.892966421605415" lon="13.887701679309979"><ele>1090.0</ele><time>2026-05-02T11:22:45Z</time></trkpt><trkpt lat="41.89294424150109" lon="13.88751481958774"><ele>1091.5</ele><time>2026-05-02T11:22:46Z</time></trkpt><trkpt lat="41.89292841259927" lon="13.887381609681801"><ele>1093.0</ele><time>2026-05-02T11:22:47Z</time></trkpt><trkpt lat="41.89294176877999" lon="13.887269404397157"><ele>1094.5</ele><time>2026-05-02T11:22:48Z</time></trkpt><trkpt lat="41.89298855411494" lon="13.887192161092416"><ele>1096.0</ele><time>2026-05-02T11:22:49Z</time></trkpt><trkpt lat="41.89306111327566" lon="13.887169189498254"><ele>1097.5</ele><time>2026-05-02T11:22:50Z</time></trkpt><trkpt lat="41.89313000846031" lon="13.887209872752619"><ele>1099.0</ele><time>2026-05-02T11:22:51Z</time></trkpt><trkpt lat="41.89318081891717" lon="13.887318548483718"><ele>1099.0</ele><time>2026-05-02T11:22:52Z</time></trkpt><trkpt lat="41.89320258321754" lon="13.887492580352134"><ele>1099.0</ele><time>2026-05-02T11:22:53Z</time></trkpt><trkpt lat="41.893221826388974" lon="13.887667481801316"><ele>1099.0</ele><time>2026-05-02T11:22:54Z</time></trkpt><trkpt lat="41.893240842533324" lon="13.887807421812047"><ele>1099.0</ele><time>2026-05-02T11:22:55Z</time></trkpt><trkpt lat="41.89324995212048" lon="13.887903643784846"><ele>1099.0</ele><time>2026-05-02T11:22:56Z</time></trkpt><trkpt lat="41.893263929427434" lon="13.887991422586168"><ele>1097.2</ele><time>2026-05-02T11:22:57Z</time></trkpt><trkpt lat="41.89327916420954" lon="13.888074403695288"><ele>1095.4</ele><time>2026-05-02T11:22:58Z</time></trkpt><trkpt lat="41.89330284682384" lon="13.888222663929355"><ele>1093.6</ele><time>2026-05-02T11:23:00Z</time></trkpt><trkpt lat="41.8933668738681" lon="13.888331650422462"><ele>1091.8</ele><time>2026-05-02T11:23:02Z</time></trkpt><trkpt lat="41.89342726114067" lon="13.888360577837773"><ele>1090.0</ele><time>2026-05-02T11:23:03Z</time></trkpt><trkpt lat="41.893536273382836" lon="13.888316758518265"><ele>1087.25</ele><time>2026-05-02T11:23:05Z</time></trkpt><trkpt lat="41.89358705313941" lon="13.888124266146455"><ele>1084.5</ele><time>2026-05-02T11:23:07Z</time></trkpt><trkpt lat="41.89356438498813" lon="13.887932413865087"><ele>1081.75</ele><time>2026-05-02T11:23:08Z</time></trkpt><trkpt lat="41.893531672359224" lon="13.887741928287243"><ele>1079.0</ele><time>2026-05-02T11:23:09Z</time></trkpt><trkpt lat="41.89352524882743" lon="13.887577161265721"><ele>1079.0</ele><time>2026-05-02T11:23:10Z</time></trkpt><trkpt lat="41.89353866290391" lon="13.887419898969418"><ele>1079.0</ele><time>2026-05-02T11:23:11Z</time></trkpt><trkpt lat="41.89359669114419" lon="13.887289453319392"><ele>1079.0</ele><time>2026-05-02T11:23:12Z</time></trkpt><trkpt lat="41.89371100766598" lon="13.887232519661744"><ele>1079.0</ele><time>2026-05-02T11:23:13Z</time></trkpt><trkpt lat="41.893846316685504" lon="13.887159208173149"><ele>1079.0</ele><time>2026-05-02T11:23:14Z</time></trkpt><trkpt lat="41.89399227201819" lon="13.887049751880383"><ele>1079.0</ele><time>2026-05-02T11:23:15Z</time></trkpt><trkpt lat="41.894143684044856" lon="13.886872793591815"><ele>1079.0</ele><time>2026-05-02T11:23:16Z</time></trkpt><trkpt lat="41.89429153496486" lon="13.886689942009571"><ele>1076.3333333333335</ele><time>2026-05-02T11:23:17Z</time></trkpt><trkpt lat="41.8944410692393" lon="13.886506825809173"><ele>1073.6666666666667</ele><time>2026-05-02T11:23:18Z</time></trkpt><trkpt lat="41.8945769242537" lon="13.886336283552637"><ele>1071.0</ele><time>2026-05-02T11:23:19Z</time></trkpt><trkpt lat="41.89469037086197" lon="13.886167254691632"><ele>1071.0</ele><time>2026-05-02T11:23:20Z</time></trkpt><trkpt lat="41.89478334504819" lon="13.885999115700967"><ele>1071.0</ele><time>2026-05-02T11:23:21Z</time></trkpt><trkpt lat="41.89485362498813" lon="13.885864735705214"><ele>1071.0</ele><time>2026-05-02T11:23:22Z</time></trkpt><trkpt lat="41.8949143982546" lon="13.885772233705103"><ele>1071.0</ele><time>2026-05-02T11:23:23Z</time></trkpt><trkpt lat="41.89497651425276" lon="13.885732669533905"><ele>1071.0</ele><time>2026-05-02T11:23:24Z</time></trkpt><trkpt lat="41.89509804110249" lon="13.885785978993939"><ele>1071.0</ele><time>2026-05-02T11:23:26Z</time></trkpt><trkpt lat="41.895110098899714" lon="13.885906415607188"><ele>1071.0</ele><time>2026-05-02T11:23:27Z</time></trkpt><trkpt lat="41.895063056147855" lon="13.886031325994228"><ele>1071.0</ele><time>2026-05-02T11:23:28Z</time></trkpt><trkpt lat="41.89496547763511" lon="13.886166572423466"><ele>1071.0</ele><time>2026-05-02T11:23:29Z</time></trkpt><trkpt lat="41.89484774210199" lon="13.886329939784689"><ele>1071.0</ele><time>2026-05-02T11:23:30Z</time></trkpt><trkpt lat="41.89472909705717" lon="13.886527866585935"><ele>1071.0</ele><time>2026-05-02T11:23:31Z</time></trkpt><trkpt lat="41.894613136016666" lon="13.886703221003877"><ele>1071.0</ele><time>2026-05-02T11:23:32Z</time></trkpt><trkpt lat="41.89451334283948" lon="13.886828407662355"><ele>1068.0</ele><time>2026-05-02T11:23:33Z</time></trkpt><trkpt lat="41.89444132901296" lon="13.886948589302124"><ele>1065.0</ele><time>2026-05-02T11:23:34Z</time></trkpt><trkpt lat="41.8944046961319" lon="13.887067247711839"><ele>1062.0</ele><time>2026-05-02T11:23:35Z</time></trkpt><trkpt lat="41.894413754732" lon="13.887196387609487"><ele>1059.0</ele><time>2026-05-02T11:23:36Z</time></trkpt><trkpt lat="41.89449633483437" lon="13.887292329049767"><ele>1056.0</ele><time>2026-05-02T11:23:37Z</time></trkpt><trkpt lat="41.89459969058207" lon="13.887280287868602"><ele>1056.0</ele><time>2026-05-02T11:23:38Z</time></trkpt><trkpt lat="41.89468281244103" lon="13.887229912647557"><ele>1056.0</ele><time>2026-05-02T11:23:39Z</time></trkpt><trkpt lat="41.894770534398596" lon="13.887112047352188"><ele>1056.0</ele><time>2026-05-02T11:23:40Z</time></trkpt><trkpt lat="41.89483562964193" lon="13.886940916683157"><ele>1056.0</ele><time>2026-05-02T11:23:41Z</time></trkpt><trkpt lat="41.89490533365584" lon="13.886739688888008"><ele>1054.3333333333333</ele><time>2026-05-02T11:23:42Z</time></trkpt><trkpt lat="41.89502138774365" lon="13.886560431305332"><ele>1052.6666666666665</ele><time>2026-05-02T11:23:43Z</time></trkpt><trkpt lat="41.89518119758933" lon="13.886413497366034"><ele>1051.0</ele><time>2026-05-02T11:23:44Z</time></trkpt><trkpt lat="41.89535108484092" lon="13.886260516718517"><ele>1051.0</ele><time>2026-05-02T11:23:45Z</time></trkpt><trkpt lat="41.895526242176715" lon="13.886101934513693"><ele>1051.0</ele><time>2026-05-02T11:23:46Z</time></trkpt><trkpt lat="41.895691764319416" lon="13.885926387139074"><ele>1051.0</ele><time>2026-05-02T11:23:47Z</time></trkpt><trkpt lat="41.89585845666148" lon="13.885775174954404"><ele>1048.6666666666665</ele><time>2026-05-02T11:23:48Z</time></trkpt><trkpt lat="41.89602174827663" lon="13.885634581703544"><ele>1046.3333333333333</ele><time>2026-05-02T11:23:49Z</time></trkpt><trkpt lat="41.89617947814956" lon="13.885495073934528"><ele>1044.0</ele><time>2026-05-02T11:23:50Z</time></trkpt><trkpt lat="41.89633657594985" lon="13.885366388310445"><ele>1044.0</ele><time>2026-05-02T11:23:51Z</time></trkpt><trkpt lat="41.89648744018203" lon="13.885230826871098"><ele>1044.0</ele><time>2026-05-02T11:23:52Z</time></trkpt><trkpt lat="41.8966229111606" lon="13.885085271798257"><ele>1044.0</ele><time>2026-05-02T11:23:53Z</time></trkpt><trkpt lat="41.89674564891948" lon="13.884930965070556"><ele>1042.0</ele><time>2026-05-02T11:23:54Z</time></trkpt><trkpt lat="41.89686970248505" lon="13.884785241477665"><ele>1040.0</ele><time>2026-05-02T11:23:55Z</time></trkpt><trkpt lat="41.89700675234654" lon="13.884651371698823"><ele>1038.0</ele><time>2026-05-02T11:23:56Z</time></trkpt><trkpt lat="41.897164371374494" lon="13.884551935265156"><ele>1038.0</ele><time>2026-05-02T11:23:57Z</time></trkpt><trkpt lat="41.89732797873175" lon="13.884461030720212"><ele>1038.0</ele><time>2026-05-02T11:23:58Z</time></trkpt><trkpt lat="41.89748688320995" lon="13.884370058528392"><ele>1038.0</ele><time>2026-05-02T11:23:59Z</time></trkpt><trkpt lat="41.89762621241806" lon="13.884291382100097"><ele>1036.75</ele><time>2026-05-02T11:24:00Z</time></trkpt><trkpt lat="41.897756930716724" lon="13.884261199112338"><ele>1035.5</ele><time>2026-05-02T11:24:01Z</time></trkpt><trkpt lat="41.897889119088234" lon="13.88426864658131"><ele>1034.25</ele><time>2026-05-02T11:24:02Z</time></trkpt><trkpt lat="41.89801561566011" lon="13.884289815914267"><ele>1033.0</ele><time>2026-05-02T11:24:03Z</time></trkpt><trkpt lat="41.89813872399982" lon="13.884294064113048"><ele>1033.0</ele><time>2026-05-02T11:24:04Z</time></trkpt><trkpt lat="41.89823035127798" lon="13.884298995043586"><ele>1033.0</ele><time>2026-05-02T11:24:05Z</time></trkpt><trkpt lat="41.89831302111826" lon="13.88430339041579"><ele>1033.0</ele><time>2026-05-02T11:24:06Z</time></trkpt><trkpt lat="41.89839743109686" lon="13.884284743899055"><ele>1033.0</ele><time>2026-05-02T11:24:07Z</time></trkpt><trkpt lat="41.89851168021596" lon="13.884298669221717"><ele>1033.0</ele><time>2026-05-02T11:24:08Z</time></trkpt><trkpt lat="41.89863764797492" lon="13.884297689567143"><ele>1034.5</ele><time>2026-05-02T11:24:09Z</time></trkpt><trkpt lat="41.898757456388125" lon="13.884336842846063"><ele>1036.0</ele><time>2026-05-02T11:24:10Z</time></trkpt><trkpt lat="41.89888365584462" lon="13.884351835255682"><ele>1037.5</ele><time>2026-05-02T11:24:11Z</time></trkpt><trkpt lat="41.89900150570688" lon="13.88436003980326"><ele>1039.0</ele><time>2026-05-02T11:24:12Z</time></trkpt><trkpt lat="41.899106078321736" lon="13.884362389152141"><ele>1039.0</ele><time>2026-05-02T11:24:13Z</time></trkpt><trkpt lat="41.899202566228176" lon="13.884358384644115"><ele>1039.0</ele><time>2026-05-02T11:24:14Z</time></trkpt><trkpt lat="41.89929617332997" lon="13.884340770059493"><ele>1039.0</ele><time>2026-05-02T11:24:15Z</time></trkpt><trkpt lat="41.8993920726716" lon="13.88430529260405"><ele>1039.0</ele><time>2026-05-02T11:24:16Z</time></trkpt><trkpt lat="41.89948430175415" lon="13.884247891676035"><ele>1039.0</ele><time>2026-05-02T11:24:17Z</time></trkpt><trkpt lat="41.89957066500657" lon="13.884179719375462"><ele>1040.8</ele><time>2026-05-02T11:24:18Z</time></trkpt><trkpt lat="41.899656632768846" lon="13.884108997616037"><ele>1042.6000000000001</ele><time>2026-05-02T11:24:19Z</time></trkpt><trkpt lat="41.899738699200675" lon="13.884040222901172"><ele>1044.4</ele><time>2026-05-02T11:24:20Z</time></trkpt><trkpt lat="41.89982349484787" lon="13.883974139005053"><ele>1046.2</ele><time>2026-05-02T11:24:21Z</time></trkpt><trkpt lat="41.89991464363735" lon="13.8839137136958"><ele>1048.0</ele><time>2026-05-02T11:24:22Z</time></trkpt><trkpt lat="41.89999998817425" lon="13.883848632250377"><ele>1044.2</ele><time>2026-05-02T11:24:23Z</time></trkpt><trkpt lat="41.90009845972764" lon="13.883832461643223"><ele>1040.4</ele><time>2026-05-02T11:24:24Z</time></trkpt><trkpt lat="41.90019510810852" lon="13.883800745208372"><ele>1036.6000000000001</ele><time>2026-05-02T11:24:25Z</time></trkpt><trkpt lat="41.900291795365774" lon="13.883768846566031"><ele>1032.8</ele><time>2026-05-02T11:24:26Z</time></trkpt><trkpt lat="41.900390274345014" lon="13.883720195709301"><ele>1029.0</ele><time>2026-05-02T11:24:27Z</time></trkpt><trkpt lat="41.900501851091036" lon="13.883704136786934"><ele>1029.0</ele><time>2026-05-02T11:24:28Z</time></trkpt><trkpt lat="41.900593009450276" lon="13.88367382757122"><ele>1029.0</ele><time>2026-05-02T11:24:29Z</time></trkpt><trkpt lat="41.90068087761614" lon="13.883623973429284"><ele>1029.0</ele><time>2026-05-02T11:24:30Z</time></trkpt><trkpt lat="41.90076951396517" lon="13.88357098374521"><ele>1029.0</ele><time>2026-05-02T11:24:31Z</time></trkpt><trkpt lat="41.90086626637681" lon="13.88348793816287"><ele>1029.0</ele><time>2026-05-02T11:24:32Z</time></trkpt><trkpt lat="41.900955703761795" lon="13.88341132133118"><ele>1030.4</ele><time>2026-05-02T11:24:33Z</time></trkpt><trkpt lat="41.901053594110365" lon="13.883353421851787"><ele>1031.8000000000002</ele><time>2026-05-02T11:24:34Z</time></trkpt><trkpt lat="41.90114482734969" lon="13.883276460965053"><ele>1033.1999999999998</ele><time>2026-05-02T11:24:35Z</time></trkpt><trkpt lat="41.90122485899246" lon="13.883209887315363"><ele>1034.6</ele><time>2026-05-02T11:24:36Z</time></trkpt><trkpt lat="41.901309060509845" lon="13.88313984481002"><ele>1036.0</ele><time>2026-05-02T11:24:37Z</time></trkpt><trkpt lat="41.90138889580231" lon="13.883073434357334"><ele>1036.0</ele><time>2026-05-02T11:24:38Z</time></trkpt><trkpt lat="41.90147315034698" lon="13.883003102349786"><ele>1036.0</ele><time>2026-05-02T11:24:39Z</time></trkpt><trkpt lat="41.90155265774771" lon="13.882936519555651"><ele>1036.0</ele><time>2026-05-02T11:24:40Z</time></trkpt><trkpt lat="41.901630898048474" lon="13.882867890331774"><ele>1036.0</ele><time>2026-05-02T11:24:41Z</time></trkpt><trkpt lat="41.90170159162277" lon="13.882797304641258"><ele>1036.0</ele><time>2026-05-02T11:24:42Z</time></trkpt><trkpt lat="41.90177170516372" lon="13.882720161207356"><ele>1036.0</ele><time>2026-05-02T11:24:43Z</time></trkpt><trkpt lat="41.90180461562188" lon="13.882604715979722"><ele>1036.0</ele><time>2026-05-02T11:24:44Z</time></trkpt><trkpt lat="41.901865874951696" lon="13.882527855054352"><ele>1036.0</ele><time>2026-05-02T11:24:45Z</time></trkpt><trkpt lat="41.901912535893096" lon="13.882427456498707"><ele>1036.0</ele><time>2026-05-02T11:24:46Z</time></trkpt><trkpt lat="41.90195652762483" lon="13.882314674315948"><ele>1036.0</ele><time>2026-05-02T11:24:47Z</time></trkpt><trkpt lat="41.9019988588802" lon="13.882191018852296"><ele>1036.0</ele><time>2026-05-02T11:24:48Z</time></trkpt><trkpt lat="41.9020308463987" lon="13.882089806516435"><ele>1036.0</ele><time>2026-05-02T11:24:49Z</time></trkpt><trkpt lat="41.90204445510283" lon="13.881995058267133"><ele>1036.0</ele><time>2026-05-02T11:24:50Z</time></trkpt><trkpt lat="41.90206866205392" lon="13.881898389394035"><ele>1036.0</ele><time>2026-05-02T11:24:51Z</time></trkpt><trkpt lat="41.90210349959659" lon="13.881812799355753"><ele>1036.0</ele><time>2026-05-02T11:24:52Z</time></trkpt><trkpt lat="41.9021315832642" lon="13.881729357897276"><ele>1036.0</ele><time>2026-05-02T11:24:53Z</time></trkpt><trkpt lat="41.902146261609694" lon="13.881638661104287"><ele>1036.0</ele><time>2026-05-02T11:24:54Z</time></trkpt><trkpt lat="41.90217047114889" lon="13.88155965877686"><ele>1036.5</ele><time>2026-05-02T11:24:55Z</time></trkpt><trkpt lat="41.90220303398981" lon="13.88148581352297"><ele>1037.0</ele><time>2026-05-02T11:24:56Z</time></trkpt><trkpt lat="41.9022382754606" lon="13.88141236160696"><ele>1037.5</ele><time>2026-05-02T11:24:57Z</time></trkpt><trkpt lat="41.90227580525238" lon="13.881283294666215"><ele>1038.0</ele><time>2026-05-02T11:24:59Z</time></trkpt><trkpt lat="41.902324062984626" lon="13.88115769890418"><ele>1038.5</ele><time>2026-05-02T11:25:01Z</time></trkpt><trkpt lat="41.90234970331969" lon="13.881036224519006"><ele>1039.0</ele><time>2026-05-02T11:25:03Z</time></trkpt><trkpt lat="41.90236608597627" lon="13.880953742966666"><ele>1038.5</ele><time>2026-05-02T11:25:05Z</time></trkpt><trkpt lat="41.902390767855664" lon="13.880851210131043"><ele>1038.0</ele><time>2026-05-02T11:25:08Z</time></trkpt><trkpt lat="41.902446260134695" lon="13.880811031333199"><ele>1037.5</ele><time>2026-05-02T11:25:09Z</time></trkpt><trkpt lat="41.90250395496342" lon="13.880637518536682"><ele>1037.0</ele><time>2026-05-02T11:25:11Z</time></trkpt><trkpt lat="41.902536051057055" lon="13.880540066831765"><ele>1036.5</ele><time>2026-05-02T11:25:12Z</time></trkpt><trkpt lat="41.90256462509109" lon="13.880448179051482"><ele>1036.0</ele><time>2026-05-02T11:25:13Z</time></trkpt><trkpt lat="41.90259421111988" lon="13.880353036470176"><ele>1033.857142857143</ele><time>2026-05-02T11:25:14Z</time></trkpt><trkpt lat="41.90262193691886" lon="13.880262152585072"><ele>1031.7142857142858</ele><time>2026-05-02T11:25:15Z</time></trkpt><trkpt lat="41.90264708259419" lon="13.880177682182225"><ele>1029.5714285714284</ele><time>2026-05-02T11:25:16Z</time></trkpt><trkpt lat="41.90267211033137" lon="13.880093608082396"><ele>1027.4285714285716</ele><time>2026-05-02T11:25:17Z</time></trkpt><trkpt lat="41.902698434322154" lon="13.880005179532976"><ele>1025.2857142857142</ele><time>2026-05-02T11:25:18Z</time></trkpt><trkpt lat="41.90272392035512" lon="13.879901281459414"><ele>1023.1428571428571</ele><time>2026-05-02T11:25:20Z</time></trkpt><trkpt lat="41.90276054242245" lon="13.879807930577348"><ele>1021.0</ele><time>2026-05-02T11:25:22Z</time></trkpt><trkpt lat="41.90279205514567" lon="13.879683938732422"><ele>1020.0</ele><time>2026-05-02T11:25:25Z</time></trkpt><trkpt lat="41.90280574892988" lon="13.879533625393039"><ele>1018.9999999999999</ele><time>2026-05-02T11:25:28Z</time></trkpt><trkpt lat="41.9027193312927" lon="13.879368752246249"><ele>1017.9999999999999</ele><time>2026-05-02T11:25:32Z</time></trkpt><trkpt lat="41.90265464667317" lon="13.879386389887484"><ele>1017.0</ele><time>2026-05-02T11:25:33Z</time></trkpt><trkpt lat="41.90259934203832" lon="13.87928852674339"><ele>1016.0</ele><time>2026-05-02T11:25:35Z</time></trkpt><trkpt lat="41.90255075454603" lon="13.879185764210622"><ele>1018.5</ele><time>2026-05-02T11:25:37Z</time></trkpt><trkpt lat="41.90248252665595" lon="13.879048135372004"><ele>1021.0</ele><time>2026-05-02T11:25:39Z</time></trkpt><trkpt lat="41.902379707529754" lon="13.87891858297619"><ele>1023.5</ele><time>2026-05-02T11:25:41Z</time></trkpt><trkpt lat="41.90233656503871" lon="13.878837184887876"><ele>1026.0</ele><time>2026-05-02T11:25:42Z</time></trkpt><trkpt lat="41.902269173491085" lon="13.878713601188368"><ele>1026.0</ele><time>2026-05-02T11:25:44Z</time></trkpt><trkpt lat="41.902283833629426" lon="13.878580275719075"><ele>1026.0</ele><time>2026-05-02T11:25:46Z</time></trkpt><trkpt lat="41.90228244570316" lon="13.878425376540054"><ele>1026.0</ele><time>2026-05-02T11:25:48Z</time></trkpt><trkpt lat="41.90232472143425" lon="13.878351295126917"><ele>1026.0</ele><time>2026-05-02T11:25:49Z</time></trkpt><trkpt lat="41.9024075016536" lon="13.878255500115165"><ele>1026.0</ele><time>2026-05-02T11:25:51Z</time></trkpt><trkpt lat="41.90249002266278" lon="13.878260151608565"><ele>1025.1666666666667</ele><time>2026-05-02T11:25:53Z</time></trkpt><trkpt lat="41.902555484398746" lon="13.878256712859212"><ele>1024.3333333333333</ele><time>2026-05-02T11:25:55Z</time></trkpt><trkpt lat="41.90263034212907" lon="13.878276189240044"><ele>1023.5</ele><time>2026-05-02T11:25:57Z</time></trkpt><trkpt lat="41.90271082741936" lon="13.87829816364883"><ele>1022.6666666666666</ele><time>2026-05-02T11:25:59Z</time></trkpt><trkpt lat="41.902838491765976" lon="13.878245697659219"><ele>1021.8333333333333</ele><time>2026-05-02T11:26:01Z</time></trkpt><trkpt lat="41.90292112760481" lon="13.878275610247403"><ele>1021.0</ele><time>2026-05-02T11:26:03Z</time></trkpt><trkpt lat="41.90307844770576" lon="13.8782666336004"><ele>1019.9999999999999</ele><time>2026-05-02T11:26:06Z</time></trkpt><trkpt lat="41.9031730555187" lon="13.878240584629294"><ele>1019.0</ele><time>2026-05-02T11:26:07Z</time></trkpt><trkpt lat="41.90324926300965" lon="13.878212964937045"><ele>1018.0</ele><time>2026-05-02T11:26:08Z</time></trkpt><trkpt lat="41.90332373913942" lon="13.878183652887465"><ele>1017.0</ele><time>2026-05-02T11:26:09Z</time></trkpt><trkpt lat="41.90341138382846" lon="13.878144437620769"><ele>1015.9999999999999</ele><time>2026-05-02T11:26:10Z</time></trkpt><trkpt lat="41.90348819934263" lon="13.878104484550398"><ele>1015.0</ele><time>2026-05-02T11:26:11Z</time></trkpt><trkpt lat="41.90355613082366" lon="13.87806021846216"><ele>1014.2</ele><time>2026-05-02T11:26:12Z</time></trkpt><trkpt lat="41.90361678039711" lon="13.878018776812901"><ele>1013.4</ele><time>2026-05-02T11:26:13Z</time></trkpt><trkpt lat="41.90371522277008" lon="13.877956458206365"><ele>1012.5999999999999</ele><time>2026-05-02T11:26:15Z</time></trkpt><trkpt lat="41.90381513953847" lon="13.877896395764001"><ele>1011.8</ele><time>2026-05-02T11:26:17Z</time></trkpt><trkpt lat="41.903930644441736" lon="13.877865109477506"><ele>1011.0</ele><time>2026-05-02T11:26:19Z</time></trkpt><trkpt lat="41.9040002378827" lon="13.87787309935866"><ele>1011.0</ele><time>2026-05-02T11:26:20Z</time></trkpt><trkpt lat="41.90406330683134" lon="13.877890944342811"><ele>1010.9999999999999</ele><time>2026-05-02T11:26:21Z</time></trkpt><trkpt lat="41.904173956870316" lon="13.877928044980383"><ele>1010.9999999999999</ele><time>2026-05-02T11:26:23Z</time></trkpt><trkpt lat="41.9042797810736" lon="13.877994127845685"><ele>1011.0</ele><time>2026-05-02T11:26:25Z</time></trkpt><trkpt lat="41.90435624161168" lon="13.87808912468471"><ele>1011.0</ele><time>2026-05-02T11:26:27Z</time></trkpt><trkpt lat="41.90440170620318" lon="13.878149021946903"><ele>1011.4</ele><time>2026-05-02T11:26:28Z</time></trkpt><trkpt lat="41.90450754178733" lon="13.878286461540846"><ele>1011.8</ele><time>2026-05-02T11:26:30Z</time></trkpt><trkpt lat="41.90457062652955" lon="13.878375044353291"><ele>1012.1999999999999</ele><time>2026-05-02T11:26:32Z</time></trkpt><trkpt lat="41.90464315200271" lon="13.878476880067371"><ele>1012.5999999999999</ele><time>2026-05-02T11:26:34Z</time></trkpt><trkpt lat="41.90467531025627" lon="13.8785556556007"><ele>1013.0</ele><time>2026-05-02T11:26:35Z</time></trkpt><trkpt lat="41.9047096068208" lon="13.878631864683154"><ele>1010.8</ele><time>2026-05-02T11:26:36Z</time></trkpt><trkpt lat="41.90477977453713" lon="13.878813078527784"><ele>1008.5999999999999</ele><time>2026-05-02T11:26:38Z</time></trkpt><trkpt lat="41.90484134763342" lon="13.878932769980176"><ele>1006.4000000000001</ele><time>2026-05-02T11:26:40Z</time></trkpt><trkpt lat="41.90491613065754" lon="13.879040215729844"><ele>1004.2</ele><time>2026-05-02T11:26:42Z</time></trkpt><trkpt lat="41.90497919181343" lon="13.879097463032103"><ele>1002.0</ele><time>2026-05-02T11:26:43Z</time></trkpt><trkpt lat="41.905045211630096" lon="13.879139908430266"><ele>1001.2</ele><time>2026-05-02T11:26:44Z</time></trkpt><trkpt lat="41.905155328562756" lon="13.879184839918091"><ele>1000.4000000000001</ele><time>2026-05-02T11:26:46Z</time></trkpt><trkpt lat="41.90524349137416" lon="13.879137858266546"><ele>999.5999999999999</ele><time>2026-05-02T11:26:48Z</time></trkpt><trkpt lat="41.90530746626521" lon="13.879036437114149"><ele>998.8</ele><time>2026-05-02T11:26:50Z</time></trkpt><trkpt lat="41.90531884739601" lon="13.878953147418342"><ele>998.0</ele><time>2026-05-02T11:26:51Z</time></trkpt><trkpt lat="41.905368954720686" lon="13.878820082298493"><ele>998.0</ele><time>2026-05-02T11:26:53Z</time></trkpt><trkpt lat="41.90540454465575" lon="13.878716612380448"><ele>998.0</ele><time>2026-05-02T11:26:54Z</time></trkpt><trkpt lat="41.9054437186792" lon="13.878584080655287"><ele>998.0</ele><time>2026-05-02T11:26:56Z</time></trkpt><trkpt lat="41.90556936628551" lon="13.878555491238595"><ele>998.0</ele><time>2026-05-02T11:26:58Z</time></trkpt><trkpt lat="41.90568647589189" lon="13.878594380251196"><ele>998.0</ele><time>2026-05-02T11:27:00Z</time></trkpt><trkpt lat="41.90573361471217" lon="13.878656555297027"><ele>998.0000000000001</ele><time>2026-05-02T11:27:01Z</time></trkpt><trkpt lat="41.90578118414624" lon="13.878727673546921"><ele>998.0</ele><time>2026-05-02T11:27:02Z</time></trkpt><trkpt lat="41.905824086802994" lon="13.878801242523325"><ele>998.0</ele><time>2026-05-02T11:27:03Z</time></trkpt><trkpt lat="41.90588524663789" lon="13.87895588659063"><ele>998.0</ele><time>2026-05-02T11:27:05Z</time></trkpt><trkpt lat="41.90592121090854" lon="13.879038953915087"><ele>998.0000000000001</ele><time>2026-05-02T11:27:06Z</time></trkpt><trkpt lat="41.90596806865131" lon="13.879118092958114"><ele>998.0</ele><time>2026-05-02T11:27:07Z</time></trkpt><trkpt lat="41.90602195686609" lon="13.87918409677719"><ele>998.8</ele><time>2026-05-02T11:27:08Z</time></trkpt><trkpt lat="41.90610026949425" lon="13.879259360699857"><ele>999.5999999999999</ele><time>2026-05-02T11:27:10Z</time></trkpt><trkpt lat="41.906159764317" lon="13.879307436106123"><ele>1000.4000000000001</ele><time>2026-05-02T11:27:12Z</time></trkpt><trkpt lat="41.906251943035606" lon="13.87937915532231"><ele>1001.2</ele><time>2026-05-02T11:27:14Z</time></trkpt><trkpt lat="41.90635511319048" lon="13.879459478935656"><ele>1002.0</ele><time>2026-05-02T11:27:16Z</time></trkpt><trkpt lat="41.90641572020846" lon="13.879510477545983"><ele>998.5</ele><time>2026-05-02T11:27:17Z</time></trkpt><trkpt lat="41.90652056413292" lon="13.879586892213087"><ele>995.0</ele><time>2026-05-02T11:27:19Z</time></trkpt><trkpt lat="41.90657126742732" lon="13.87964493587488"><ele>991.5</ele><time>2026-05-02T11:27:20Z</time></trkpt><trkpt lat="41.90667815831601" lon="13.879700237872038"><ele>988.0</ele><time>2026-05-02T11:27:22Z</time></trkpt><trkpt lat="41.90674900044884" lon="13.879731113999469"><ele>984.5</ele><time>2026-05-02T11:27:23Z</time></trkpt><trkpt lat="41.90680802096946" lon="13.87977340744396"><ele>981.0</ele><time>2026-05-02T11:27:24Z</time></trkpt><trkpt lat="41.906871011851756" lon="13.879799252000447"><ele>980.0</ele><time>2026-05-02T11:27:25Z</time></trkpt><trkpt lat="41.906995163585414" lon="13.879865039722603"><ele>978.9999999999999</ele><time>2026-05-02T11:27:27Z</time></trkpt><trkpt lat="41.907059744167604" lon="13.879911627978379"><ele>977.9999999999999</ele><time>2026-05-02T11:27:28Z</time></trkpt><trkpt lat="41.90714102108345" lon="13.87992835723116"><ele>977.0</ele><time>2026-05-02T11:27:29Z</time></trkpt><trkpt lat="41.90723549972276" lon="13.879906979603872"><ele>976.0</ele><time>2026-05-02T11:27:30Z</time></trkpt><trkpt lat="41.90732106749634" lon="13.879859048819139"><ele>975.9999999999999</ele><time>2026-05-02T11:27:31Z</time></trkpt><trkpt lat="41.90739419395534" lon="13.879802197160922"><ele>976.0</ele><time>2026-05-02T11:27:32Z</time></trkpt><trkpt lat="41.90747371107743" lon="13.87972469158807"><ele>976.0</ele><time>2026-05-02T11:27:33Z</time></trkpt><trkpt lat="41.90754160876306" lon="13.879652399759433"><ele>976.0</ele><time>2026-05-02T11:27:34Z</time></trkpt><trkpt lat="41.907611168654775" lon="13.87957438366747"><ele>975.9999999999999</ele><time>2026-05-02T11:27:35Z</time></trkpt><trkpt lat="41.90766162015208" lon="13.879514602659324"><ele>976.0</ele><time>2026-05-02T11:27:36Z</time></trkpt><trkpt lat="41.90771918362299" lon="13.879445834071026"><ele>975.4</ele><time>2026-05-02T11:27:37Z</time></trkpt><trkpt lat="41.907782215595624" lon="13.879372991874018"><ele>974.8</ele><time>2026-05-02T11:27:38Z</time></trkpt><trkpt lat="41.90784944093766" lon="13.879302218198774"><ele>974.1999999999999</ele><time>2026-05-02T11:27:39Z</time></trkpt><trkpt lat="41.90791601589886" lon="13.879238019289318"><ele>973.5999999999999</ele><time>2026-05-02T11:27:40Z</time></trkpt><trkpt lat="41.90800017157427" lon="13.8791724547404"><ele>973.0</ele><time>2026-05-02T11:27:41Z</time></trkpt><trkpt lat="41.9080939974237" lon="13.879108806090125"><ele>973.0</ele><time>2026-05-02T11:27:42Z</time></trkpt><trkpt lat="41.908191961338375" lon="13.879047619988144"><ele>973.0</ele><time>2026-05-02T11:27:43Z</time></trkpt><trkpt lat="41.90827918793839" lon="13.878989047791784"><ele>973.0</ele><time>2026-05-02T11:27:44Z</time></trkpt><trkpt lat="41.90839061522674" lon="13.878950576145975"><ele>973.0</ele><time>2026-05-02T11:27:45Z</time></trkpt><trkpt lat="41.90848394588308" lon="13.878912215626164"><ele>973.0</ele><time>2026-05-02T11:27:46Z</time></trkpt><trkpt lat="41.90855627321866" lon="13.878874054049366"><ele>970.9999999999999</ele><time>2026-05-02T11:27:47Z</time></trkpt><trkpt lat="41.90862251877898" lon="13.878834642545257"><ele>969.0</ele><time>2026-05-02T11:27:48Z</time></trkpt><trkpt lat="41.908689039086546" lon="13.87878193294302"><ele>967.0</ele><time>2026-05-02T11:27:51Z</time></trkpt><trkpt lat="41.908759932529456" lon="13.878745390429348"><ele>965.0</ele><time>2026-05-02T11:27:54Z</time></trkpt><trkpt lat="41.90884620873059" lon="13.878717419821346"><ele>962.9999999999999</ele><time>2026-05-02T11:27:57Z</time></trkpt><trkpt lat="41.90886427421222" lon="13.878820757326917"><ele>961.0</ele><time>2026-05-02T11:27:59Z</time></trkpt><trkpt lat="41.908784885071256" lon="13.87891321742584"><ele>961.0</ele><time>2026-05-02T11:28:01Z</time></trkpt><trkpt lat="41.90861541644303" lon="13.879000835834951"><ele>961.0</ele><time>2026-05-02T11:28:03Z</time></trkpt><trkpt lat="41.908483563743175" lon="13.8790871707987"><ele>961.0</ele><time>2026-05-02T11:28:04Z</time></trkpt><trkpt lat="41.90834794485786" lon="13.879190104137837"><ele>960.4</ele><time>2026-05-02T11:28:05Z</time></trkpt><trkpt lat="41.90822014641689" lon="13.879273687168434"><ele>959.8</ele><time>2026-05-02T11:28:06Z</time></trkpt><trkpt lat="41.90812520260053" lon="13.879339874369377"><ele>959.1999999999999</ele><time>2026-05-02T11:28:07Z</time></trkpt><trkpt lat="41.908074378154" lon="13.879391782957395"><ele>958.5999999999999</ele><time>2026-05-02T11:28:08Z</time></trkpt><trkpt lat="41.90800326281249" lon="13.879520079675208"><ele>958.0</ele><time>2026-05-02T11:28:10Z</time></trkpt><trkpt lat="41.908043914646306" lon="13.879650402521099"><ele>958.0</ele><time>2026-05-02T11:28:11Z</time></trkpt><trkpt lat="41.9081936875615" lon="13.87962930451624"><ele>958.0</ele><time>2026-05-02T11:28:12Z</time></trkpt><trkpt lat="41.90830106445465" lon="13.87949733953319"><ele>958.0</ele><time>2026-05-02T11:28:13Z</time></trkpt><trkpt lat="41.90843596789144" lon="13.879418764062034"><ele>958.0</ele><time>2026-05-02T11:28:14Z</time></trkpt><trkpt lat="41.90863057074195" lon="13.879304606347835"><ele>958.75</ele><time>2026-05-02T11:28:16Z</time></trkpt><trkpt lat="41.90877222677149" lon="13.879226756135369"><ele>959.5</ele><time>2026-05-02T11:28:17Z</time></trkpt><trkpt lat="41.908886784812076" lon="13.879179518421967"><ele>960.25</ele><time>2026-05-02T11:28:18Z</time></trkpt><trkpt lat="41.90899656411838" lon="13.879159694580784"><ele>961.0</ele><time>2026-05-02T11:28:19Z</time></trkpt><trkpt lat="41.90911420780631" lon="13.87919288504219"><ele>961.0</ele><time>2026-05-02T11:28:20Z</time></trkpt><trkpt lat="41.90920050729299" lon="13.879214342063019"><ele>961.0</ele><time>2026-05-02T11:28:21Z</time></trkpt><trkpt lat="41.909328486569365" lon="13.879331879595364"><ele>961.0</ele><time>2026-05-02T11:28:22Z</time></trkpt><trkpt lat="41.90946067082459" lon="13.87943696311461"><ele>961.0</ele><time>2026-05-02T11:28:23Z</time></trkpt><trkpt lat="41.909594993562685" lon="13.879509290586883"><ele>957.5</ele><time>2026-05-02T11:28:24Z</time></trkpt><trkpt lat="41.90971606405512" lon="13.879590758868416"><ele>954.0</ele><time>2026-05-02T11:28:25Z</time></trkpt><trkpt lat="41.909867403063096" lon="13.879640770363311"><ele>950.5</ele><time>2026-05-02T11:28:26Z</time></trkpt><trkpt lat="41.91002210106818" lon="13.879598289824735"><ele>947.0</ele><time>2026-05-02T11:28:27Z</time></trkpt><trkpt lat="41.91022545458946" lon="13.879437407803263"><ele>947.0</ele><time>2026-05-02T11:28:28Z</time></trkpt><trkpt lat="41.91042969761659" lon="13.879379620414879"><ele>947.0</ele><time>2026-05-02T11:28:29Z</time></trkpt><trkpt lat="41.91058751175602" lon="13.879390922909026"><ele>947.0</ele><time>2026-05-02T11:28:30Z</time></trkpt><trkpt lat="41.910745687755714" lon="13.879424240390021"><ele>947.0</ele><time>2026-05-02T11:28:31Z</time></trkpt><trkpt lat="41.91089718499289" lon="13.879442707010982"><ele>947.0</ele><time>2026-05-02T11:28:32Z</time></trkpt><trkpt lat="41.91104725172927" lon="13.879414340026695"><ele>947.0</ele><time>2026-05-02T11:28:33Z</time></trkpt><trkpt lat="41.91119042502859" lon="13.879383606838394"><ele>947.0</ele><time>2026-05-02T11:28:34Z</time></trkpt><trkpt lat="41.9112907648407" lon="13.879346566725534"><ele>947.0</ele><time>2026-05-02T11:28:35Z</time></trkpt><trkpt lat="41.91138904971696" lon="13.879292666140051"><ele>947.0</ele><time>2026-05-02T11:28:36Z</time></trkpt><trkpt lat="41.911521921142736" lon="13.879239500045728"><ele>947.0</ele><time>2026-05-02T11:28:37Z</time></trkpt><trkpt lat="41.911642365758496" lon="13.87914919337546"><ele>947.0</ele><time>2026-05-02T11:28:38Z</time></trkpt><trkpt lat="41.911789446147985" lon="13.879018258683216"><ele>947.0</ele><time>2026-05-02T11:28:39Z</time></trkpt><trkpt lat="41.911953910936575" lon="13.878941486485022"><ele>947.0</ele><time>2026-05-02T11:28:40Z</time></trkpt><trkpt lat="41.91211329315984" lon="13.878858723675753"><ele>947.0</ele><time>2026-05-02T11:28:41Z</time></trkpt><trkpt lat="41.91227356799484" lon="13.878771385916698"><ele>947.0</ele><time>2026-05-02T11:28:42Z</time></trkpt><trkpt lat="41.91243060394119" lon="13.87867644884636"><ele>947.0</ele><time>2026-05-02T11:28:43Z</time></trkpt><trkpt lat="41.912585180986206" lon="13.878557326762513"><ele>947.0</ele><time>2026-05-02T11:28:44Z</time></trkpt><trkpt lat="41.91270086250264" lon="13.878462223785283"><ele>946.5000000000001</ele><time>2026-05-02T11:28:45Z</time></trkpt><trkpt lat="41.91279657707494" lon="13.878379629367677"><ele>946.0</ele><time>2026-05-02T11:28:46Z</time></trkpt><trkpt lat="41.91284634652366" lon="13.87832266630467"><ele>945.5</ele><time>2026-05-02T11:28:47Z</time></trkpt><trkpt lat="41.91295314887545" lon="13.878284049560449"><ele>945.0</ele><time>2026-05-02T11:28:49Z</time></trkpt><trkpt lat="41.91303700701994" lon="13.878234626540296"><ele>944.5000000000001</ele><time>2026-05-02T11:28:51Z</time></trkpt><trkpt lat="41.913084658796556" lon="13.878179283043803"><ele>944.0</ele><time>2026-05-02T11:28:52Z</time></trkpt><trkpt lat="41.91314600283643" lon="13.87814796389943"><ele>944.0000000000001</ele><time>2026-05-02T11:28:53Z</time></trkpt><trkpt lat="41.913206508510946" lon="13.87809491443234"><ele>944.0</ele><time>2026-05-02T11:28:54Z</time></trkpt><trkpt lat="41.91326489931671" lon="13.878051249399753"><ele>944.0</ele><time>2026-05-02T11:28:55Z</time></trkpt><trkpt lat="41.913326422234775" lon="13.878003706587"><ele>944.0</ele><time>2026-05-02T11:28:56Z</time></trkpt><trkpt lat="41.91340673621469" lon="13.877927456999618"><ele>944.0000000000001</ele><time>2026-05-02T11:28:57Z</time></trkpt><trkpt lat="41.913492530943024" lon="13.877845373483629"><ele>944.0</ele><time>2026-05-02T11:28:58Z</time></trkpt><trkpt lat="41.91357583385215" lon="13.877754887326587"><ele>944.0</ele><time>2026-05-02T11:28:59Z</time></trkpt><trkpt lat="41.913701123152286" lon="13.877654447187274"><ele>944.0</ele><time>2026-05-02T11:29:00Z</time></trkpt><trkpt lat="41.91385854660815" lon="13.87754549684765"><ele>944.0</ele><time>2026-05-02T11:29:01Z</time></trkpt><trkpt lat="41.91398672511515" lon="13.87750007914039"><ele>943.75</ele><time>2026-05-02T11:29:02Z</time></trkpt><trkpt lat="41.91414198625139" lon="13.877462531588824"><ele>943.5</ele><time>2026-05-02T11:29:03Z</time></trkpt><trkpt lat="41.9142736105859" lon="13.877432936990429"><ele>943.25</ele><time>2026-05-02T11:29:04Z</time></trkpt><trkpt lat="41.91440142952971" lon="13.877403709849833"><ele>943.0</ele><time>2026-05-02T11:29:05Z</time></trkpt><trkpt lat="41.91454001415867" lon="13.877373252339916"><ele>942.0</ele><time>2026-05-02T11:29:06Z</time></trkpt><trkpt lat="41.914683979611326" lon="13.87733982756695"><ele>941.0</ele><time>2026-05-02T11:29:07Z</time></trkpt><trkpt lat="41.91481105167601" lon="13.877309362916845"><ele>940.0</ele><time>2026-05-02T11:29:08Z</time></trkpt><trkpt lat="41.91492676789318" lon="13.877281620736799"><ele>939.0</ele><time>2026-05-02T11:29:09Z</time></trkpt><trkpt lat="41.915070444891604" lon="13.877248257455598"><ele>944.0</ele><time>2026-05-02T11:29:10Z</time></trkpt><trkpt lat="41.915231576933444" lon="13.877211110561056"><ele>949.0</ele><time>2026-05-02T11:29:11Z</time></trkpt><trkpt lat="41.91539300551444" lon="13.877173423284134"><ele>954.0</ele><time>2026-05-02T11:29:12Z</time></trkpt><trkpt lat="41.91551345081901" lon="13.877143785327693"><ele>954.0</ele><time>2026-05-02T11:29:13Z</time></trkpt><trkpt lat="41.915605839493814" lon="13.87709671422126"><ele>954.0</ele><time>2026-05-02T11:29:14Z</time></trkpt><trkpt lat="41.915717801533724" lon="13.877063240881414"><ele>954.0</ele><time>2026-05-02T11:29:15Z</time></trkpt><trkpt lat="41.915800306943616" lon="13.8770042487558"><ele>954.0</ele><time>2026-05-02T11:29:16Z</time></trkpt><trkpt lat="41.9158924000046" lon="13.876832752145807"><ele>959.75</ele><time>2026-05-02T11:29:17Z</time></trkpt><trkpt lat="41.91594390375906" lon="13.87669819349633"><ele>965.5</ele><time>2026-05-02T11:29:18Z</time></trkpt><trkpt lat="41.91605323573308" lon="13.876563124220985"><ele>971.25</ele><time>2026-05-02T11:29:19Z</time></trkpt><trkpt lat="41.91616022063272" lon="13.87644058805028"><ele>977.0</ele><time>2026-05-02T11:29:20Z</time></trkpt><trkpt lat="41.91627393733907" lon="13.876313105984375"><ele>977.0</ele><time>2026-05-02T11:29:21Z</time></trkpt><trkpt lat="41.91641194416771" lon="13.876156894870158"><ele>977.0</ele><time>2026-05-02T11:29:22Z</time></trkpt><trkpt lat="41.9165473887603" lon="13.87599367214297"><ele>977.0</ele><time>2026-05-02T11:29:23Z</time></trkpt><trkpt lat="41.916664063082116" lon="13.87581546534838"><ele>983.6666666666667</ele><time>2026-05-02T11:29:24Z</time></trkpt><trkpt lat="41.91678547953925" lon="13.87563992370658"><ele>990.3333333333333</ele><time>2026-05-02T11:29:25Z</time></trkpt><trkpt lat="41.9168838781915" lon="13.875469898407657"><ele>997.0</ele><time>2026-05-02T11:29:26Z</time></trkpt><trkpt lat="41.91697557254499" lon="13.87528113335749"><ele>986.3333333333333</ele><time>2026-05-02T11:29:27Z</time></trkpt><trkpt lat="41.9170298612615" lon="13.87509537882958"><ele>975.6666666666667</ele><time>2026-05-02T11:29:28Z</time></trkpt><trkpt lat="41.91703049468225" lon="13.874878365445358"><ele>965.0</ele><time>2026-05-02T11:29:29Z</time></trkpt><trkpt lat="41.917078133346514" lon="13.874677640115118"><ele>965.0</ele><time>2026-05-02T11:29:30Z</time></trkpt><trkpt lat="41.9171424957261" lon="13.874501788977927"><ele>965.0</ele><time>2026-05-02T11:29:31Z</time></trkpt><trkpt lat="41.91720562528776" lon="13.874331153624134"><ele>965.0</ele><time>2026-05-02T11:29:32Z</time></trkpt><trkpt lat="41.91732551072258" lon="13.874165067631992"><ele>970.3333333333334</ele><time>2026-05-02T11:29:33Z</time></trkpt><trkpt lat="41.91743536785556" lon="13.874006011558592"><ele>975.6666666666667</ele><time>2026-05-02T11:29:34Z</time></trkpt><trkpt lat="41.91754474287701" lon="13.873867717641911"><ele>981.0</ele><time>2026-05-02T11:29:35Z</time></trkpt><trkpt lat="41.91766569283377" lon="13.87371519573316"><ele>981.0</ele><time>2026-05-02T11:29:36Z</time></trkpt><trkpt lat="41.917780624731996" lon="13.873567607399863"><ele>981.0</ele><time>2026-05-02T11:29:37Z</time></trkpt><trkpt lat="41.91789053076981" lon="13.873415874482637"><ele>981.0</ele><time>2026-05-02T11:29:38Z</time></trkpt><trkpt lat="41.91798657957711" lon="13.873275735820625"><ele>972.3333333333333</ele><time>2026-05-02T11:29:39Z</time></trkpt><trkpt lat="41.91808887993448" lon="13.87312382461101"><ele>963.6666666666666</ele><time>2026-05-02T11:29:40Z</time></trkpt><trkpt lat="41.91815458100376" lon="13.872896255685115"><ele>955.0</ele><time>2026-05-02T11:29:41Z</time></trkpt><trkpt lat="41.91825332266307" lon="13.872723295820283"><ele>954.3333333333333</ele><time>2026-05-02T11:29:42Z</time></trkpt><trkpt lat="41.91836648792348" lon="13.872579851298628"><ele>953.6666666666667</ele><time>2026-05-02T11:29:43Z</time></trkpt><trkpt lat="41.91851877971781" lon="13.872503818111984"><ele>953.0</ele><time>2026-05-02T11:29:44Z</time></trkpt><trkpt lat="41.918566124690955" lon="13.87232341450236"><ele>953.0</ele><time>2026-05-02T11:29:45Z</time></trkpt><trkpt lat="41.918636423677505" lon="13.872238096142452"><ele>953.0</ele><time>2026-05-02T11:29:46Z</time></trkpt><trkpt lat="41.91869139366948" lon="13.872191610954383"><ele>953.0</ele><time>2026-05-02T11:29:47Z</time></trkpt><trkpt lat="41.91876990010944" lon="13.872136771339317"><ele>953.0</ele><time>2026-05-02T11:29:48Z</time></trkpt><trkpt lat="41.918860814031675" lon="13.872075210550546"><ele>953.0</ele><time>2026-05-02T11:29:49Z</time></trkpt><trkpt lat="41.91897636689606" lon="13.872072912053323"><ele>953.0</ele><time>2026-05-02T11:29:50Z</time></trkpt><trkpt lat="41.919082283420586" lon="13.871979201864118"><ele>953.0</ele><time>2026-05-02T11:29:51Z</time></trkpt><trkpt lat="41.919186123467796" lon="13.871888727826368"><ele>953.0</ele><time>2026-05-02T11:29:52Z</time></trkpt><trkpt lat="41.91929140138485" lon="13.871794151163032"><ele>953.0</ele><time>2026-05-02T11:29:53Z</time></trkpt><trkpt lat="41.9194054695935" lon="13.871679987506884"><ele>956.25</ele><time>2026-05-02T11:29:54Z</time></trkpt><trkpt lat="41.91948651955857" lon="13.871576214019942"><ele>959.5</ele><time>2026-05-02T11:29:55Z</time></trkpt><trkpt lat="41.91957540092286" lon="13.871427229770054"><ele>962.75</ele><time>2026-05-02T11:29:56Z</time></trkpt><trkpt lat="41.91965063688665" lon="13.871284011026754"><ele>966.0</ele><time>2026-05-02T11:29:57Z</time></trkpt><trkpt lat="41.91973063420293" lon="13.871113716145945"><ele>966.0</ele><time>2026-05-02T11:29:58Z</time></trkpt><trkpt lat="41.91983371939961" lon="13.87102148239048"><ele>966.0</ele><time>2026-05-02T11:29:59Z</time></trkpt><trkpt lat="41.91995977326564" lon="13.870891952261106"><ele>966.0</ele><time>2026-05-02T11:30:00Z</time></trkpt><trkpt lat="41.92007130820932" lon="13.870725737977446"><ele>966.0</ele><time>2026-05-02T11:30:01Z</time></trkpt><trkpt lat="41.9201467161714" lon="13.870536380658516"><ele>965.3333333333333</ele><time>2026-05-02T11:30:02Z</time></trkpt><trkpt lat="41.92020072950772" lon="13.870317355964534"><ele>964.6666666666666</ele><time>2026-05-02T11:30:03Z</time></trkpt><trkpt lat="41.920260424719004" lon="13.870122830452257"><ele>964.0</ele><time>2026-05-02T11:30:04Z</time></trkpt><trkpt lat="41.92032929057026" lon="13.869922851195577"><ele>959.0</ele><time>2026-05-02T11:30:05Z</time></trkpt><trkpt lat="41.92039891779058" lon="13.869731738502002"><ele>954.0</ele><time>2026-05-02T11:30:06Z</time></trkpt><trkpt lat="41.920477734268545" lon="13.869555892058424"><ele>949.0</ele><time>2026-05-02T11:30:07Z</time></trkpt><trkpt lat="41.92057727040221" lon="13.869398267811407"><ele>946.5</ele><time>2026-05-02T11:30:08Z</time></trkpt><trkpt lat="41.92068938610391" lon="13.869249598122364"><ele>944.0</ele><time>2026-05-02T11:30:09Z</time></trkpt><trkpt lat="41.92079159056602" lon="13.869117301049906"><ele>941.5</ele><time>2026-05-02T11:30:10Z</time></trkpt><trkpt lat="41.920890374977624" lon="13.869015424274854"><ele>939.0</ele><time>2026-05-02T11:30:11Z</time></trkpt><trkpt lat="41.92100654705059" lon="13.86898223624445"><ele>946.6666666666667</ele><time>2026-05-02T11:30:12Z</time></trkpt><trkpt lat="41.92116073536187" lon="13.868939458500455"><ele>954.3333333333334</ele><time>2026-05-02T11:30:13Z</time></trkpt><trkpt lat="41.921325920437724" lon="13.868891102973514"><ele>962.0</ele><time>2026-05-02T11:30:14Z</time></trkpt><trkpt lat="41.921492625450924" lon="13.86882258026973"><ele>962.0</ele><time>2026-05-02T11:30:15Z</time></trkpt><trkpt lat="41.92166768204905" lon="13.868727321439595"><ele>962.0</ele><time>2026-05-02T11:30:16Z</time></trkpt><trkpt lat="41.92183170706279" lon="13.868616818578923"><ele>962.0</ele><time>2026-05-02T11:30:17Z</time></trkpt><trkpt lat="41.92199771706164" lon="13.86848230665478"><ele>955.6666666666667</ele><time>2026-05-02T11:30:18Z</time></trkpt><trkpt lat="41.922154981543954" lon="13.8683553584385"><ele>949.3333333333333</ele><time>2026-05-02T11:30:19Z</time></trkpt><trkpt lat="41.922307906222215" lon="13.868257227706396"><ele>943.0</ele><time>2026-05-02T11:30:20Z</time></trkpt><trkpt lat="41.92245869357" lon="13.868163202894362"><ele>952.3333333333333</ele><time>2026-05-02T11:30:21Z</time></trkpt><trkpt lat="41.922603821229735" lon="13.868047175487"><ele>961.6666666666667</ele><time>2026-05-02T11:30:22Z</time></trkpt><trkpt lat="41.9227297773923" lon="13.867868905612625"><ele>971.0</ele><time>2026-05-02T11:30:23Z</time></trkpt><trkpt lat="41.92286882498152" lon="13.867701095631956"><ele>961.6666666666667</ele><time>2026-05-02T11:30:24Z</time></trkpt><trkpt lat="41.92297407399172" lon="13.867524521691747"><ele>952.3333333333333</ele><time>2026-05-02T11:30:25Z</time></trkpt><trkpt lat="41.92310254981804" lon="13.867366800631883"><ele>943.0</ele><time>2026-05-02T11:30:26Z</time></trkpt><trkpt lat="41.923226311719965" lon="13.867210043414573"><ele>943.0</ele><time>2026-05-02T11:30:27Z</time></trkpt><trkpt lat="41.923344342076774" lon="13.867060545778855"><ele>943.0</ele><time>2026-05-02T11:30:28Z</time></trkpt><trkpt lat="41.923445030475754" lon="13.866933013527007"><ele>943.0</ele><time>2026-05-02T11:30:29Z</time></trkpt><trkpt lat="41.92349979745489" lon="13.866742425335353"><ele>943.3333333333333</ele><time>2026-05-02T11:30:30Z</time></trkpt><trkpt lat="41.92361039248685" lon="13.86656418645874"><ele>943.6666666666667</ele><time>2026-05-02T11:30:31Z</time></trkpt><trkpt lat="41.92362549164438" lon="13.8663392279351"><ele>944.0</ele><time>2026-05-02T11:30:32Z</time></trkpt><trkpt lat="41.92370956950247" lon="13.866163677712708"><ele>944.0</ele><time>2026-05-02T11:30:33Z</time></trkpt><trkpt lat="41.92384230951733" lon="13.86602222884425"><ele>944.0</ele><time>2026-05-02T11:30:34Z</time></trkpt><trkpt lat="41.92400960906713" lon="13.865937399094866"><ele>944.0</ele><time>2026-05-02T11:30:35Z</time></trkpt><trkpt lat="41.92416890936993" lon="13.865852726163258"><ele>946.5</ele><time>2026-05-02T11:30:36Z</time></trkpt><trkpt lat="41.924320915272496" lon="13.865819665645411"><ele>949.0</ele><time>2026-05-02T11:30:37Z</time></trkpt><trkpt lat="41.92445697264648" lon="13.865770395856222"><ele>951.5</ele><time>2026-05-02T11:30:38Z</time></trkpt><trkpt lat="41.92458148886188" lon="13.865657533866461"><ele>954.0</ele><time>2026-05-02T11:30:39Z</time></trkpt><trkpt lat="41.924692642542" lon="13.86551700471846"><ele>954.0</ele><time>2026-05-02T11:30:40Z</time></trkpt><trkpt lat="41.92479063901361" lon="13.865295369373953"><ele>954.0</ele><time>2026-05-02T11:30:41Z</time></trkpt><trkpt lat="41.92484372871702" lon="13.865025806387392"><ele>954.0</ele><time>2026-05-02T11:30:42Z</time></trkpt><trkpt lat="41.92489135235876" lon="13.864777540588971"><ele>957.3333333333333</ele><time>2026-05-02T11:30:43Z</time></trkpt><trkpt lat="41.924970443812654" lon="13.86459567447347"><ele>960.6666666666666</ele><time>2026-05-02T11:30:44Z</time></trkpt><trkpt lat="41.92508508826008" lon="13.864459477257492"><ele>964.0</ele><time>2026-05-02T11:30:45Z</time></trkpt><trkpt lat="41.925208072964104" lon="13.864330737278088"><ele>956.3333333333333</ele><time>2026-05-02T11:30:46Z</time></trkpt><trkpt lat="41.92534594671824" lon="13.864201679371249"><ele>948.6666666666667</ele><time>2026-05-02T11:30:47Z</time></trkpt><trkpt lat="41.92547711561449" lon="13.86407304068403"><ele>941.0</ele><time>2026-05-02T11:30:48Z</time></trkpt><trkpt lat="41.925618722419244" lon="13.863968120073029"><ele>941.0</ele><time>2026-05-02T11:30:49Z</time></trkpt><trkpt lat="41.92575177965757" lon="13.863831827881464"><ele>941.0</ele><time>2026-05-02T11:30:50Z</time></trkpt><trkpt lat="41.92588006224413" lon="13.863695152734067"><ele>941.0</ele><time>2026-05-02T11:30:51Z</time></trkpt><trkpt lat="41.92599431535276" lon="13.86355180404437"><ele>942.5</ele><time>2026-05-02T11:30:52Z</time></trkpt><trkpt lat="41.926095384285894" lon="13.863409622451202"><ele>944.0</ele><time>2026-05-02T11:30:53Z</time></trkpt><trkpt lat="41.92618837887043" lon="13.863295038820493"><ele>945.5</ele><time>2026-05-02T11:30:54Z</time></trkpt><trkpt lat="41.92626384009019" lon="13.86316768276433"><ele>947.0</ele><time>2026-05-02T11:30:55Z</time></trkpt><trkpt lat="41.92632265961642" lon="13.863043359402676"><ele>947.0</ele><time>2026-05-02T11:30:56Z</time></trkpt><trkpt lat="41.926400135953116" lon="13.862937374722426"><ele>947.0</ele><time>2026-05-02T11:30:57Z</time></trkpt><trkpt lat="41.92647482204318" lon="13.862834258523222"><ele>947.0</ele><time>2026-05-02T11:30:58Z</time></trkpt><trkpt lat="41.9265656886492" lon="13.862740132125438"><ele>947.0</ele><time>2026-05-02T11:30:59Z</time></trkpt><trkpt lat="41.92665566982999" lon="13.862677424399392"><ele>947.0</ele><time>2026-05-02T11:31:00Z</time></trkpt><trkpt lat="41.92674222224336" lon="13.862615409404716"><ele>949.8</ele><time>2026-05-02T11:31:01Z</time></trkpt><trkpt lat="41.92680689945302" lon="13.862509610668202"><ele>952.6</ele><time>2026-05-02T11:31:02Z</time></trkpt><trkpt lat="41.926837896690806" lon="13.86238102736434"><ele>955.3999999999999</ele><time>2026-05-02T11:31:03Z</time></trkpt><trkpt lat="41.92684226376108" lon="13.8622414683552"><ele>958.1999999999999</ele><time>2026-05-02T11:31:04Z</time></trkpt><trkpt lat="41.92685122461623" lon="13.862116411261606"><ele>961.0</ele><time>2026-05-02T11:31:05Z</time></trkpt><trkpt lat="41.92688051759356" lon="13.862013799286897"><ele>961.0</ele><time>2026-05-02T11:31:06Z</time></trkpt><trkpt lat="41.926863905043355" lon="13.861879854468741"><ele>960.9999999999999</ele><time>2026-05-02T11:31:07Z</time></trkpt><trkpt lat="41.926831353543776" lon="13.86173848753991"><ele>960.9999999999999</ele><time>2026-05-02T11:31:08Z</time></trkpt><trkpt lat="41.92678814877563" lon="13.861602943844385"><ele>961.0</ele><time>2026-05-02T11:31:09Z</time></trkpt><trkpt lat="41.92674916795302" lon="13.861482899657922"><ele>961.0</ele><time>2026-05-02T11:31:10Z</time></trkpt><trkpt lat="41.92673687290522" lon="13.861362251238457"><ele>959.8</ele><time>2026-05-02T11:31:11Z</time></trkpt><trkpt lat="41.92673869923858" lon="13.861240178111572"><ele>958.5999999999999</ele><time>2026-05-02T11:31:12Z</time></trkpt><trkpt lat="41.92676229475222" lon="13.861117923631078"><ele>957.4</ele><time>2026-05-02T11:31:13Z</time></trkpt><trkpt lat="41.926807765382236" lon="13.860997190960044"><ele>956.2</ele><time>2026-05-02T11:31:14Z</time></trkpt><trkpt lat="41.92685387383326" lon="13.860874094371715"><ele>955.0</ele><time>2026-05-02T11:31:15Z</time></trkpt><trkpt lat="41.92689483843239" lon="13.860750451721762"><ele>954.2</ele><time>2026-05-02T11:31:16Z</time></trkpt><trkpt lat="41.92693885595848" lon="13.860631547285541"><ele>953.4</ele><time>2026-05-02T11:31:17Z</time></trkpt><trkpt lat="41.9269807773733" lon="13.860511380427592"><ele>952.5999999999999</ele><time>2026-05-02T11:31:18Z</time></trkpt><trkpt lat="41.92703123417854" lon="13.86039678806871"><ele>951.8</ele><time>2026-05-02T11:31:19Z</time></trkpt><trkpt lat="41.92710262558637" lon="13.860302362429955"><ele>951.0</ele><time>2026-05-02T11:31:20Z</time></trkpt><trkpt lat="41.92719333340203" lon="13.86023172600086"><ele>951.0</ele><time>2026-05-02T11:31:21Z</time></trkpt><trkpt lat="41.9272803701911" lon="13.860171773671897"><ele>950.9999999999999</ele><time>2026-05-02T11:31:22Z</time></trkpt><trkpt lat="41.927369264610604" lon="13.860114759313944"><ele>950.9999999999999</ele><time>2026-05-02T11:31:23Z</time></trkpt><trkpt lat="41.92745402704986" lon="13.860054586515904"><ele>951.0</ele><time>2026-05-02T11:31:24Z</time></trkpt><trkpt lat="41.927540588481584" lon="13.85999176936301"><ele>951.0</ele><time>2026-05-02T11:31:25Z</time></trkpt><trkpt lat="41.92760859083523" lon="13.85990103520392"><ele>949.1666666666666</ele><time>2026-05-02T11:31:26Z</time></trkpt><trkpt lat="41.927643066726304" lon="13.859801573940796"><ele>947.3333333333333</ele><time>2026-05-02T11:31:27Z</time></trkpt><trkpt lat="41.927638175561164" lon="13.859688897475108"><ele>945.5</ele><time>2026-05-02T11:31:28Z</time></trkpt><trkpt lat="41.92761339417432" lon="13.859595275563763"><ele>943.6666666666666</ele><time>2026-05-02T11:31:29Z</time></trkpt><trkpt lat="41.92757520842875" lon="13.859494728304737"><ele>941.8333333333333</ele><time>2026-05-02T11:31:30Z</time></trkpt><trkpt lat="41.927545218501905" lon="13.859392905728823"><ele>940.0</ele><time>2026-05-02T11:31:31Z</time></trkpt><trkpt lat="41.92751470878982" lon="13.859296994580426"><ele>939.2</ele><time>2026-05-02T11:31:32Z</time></trkpt><trkpt lat="41.927479726889615" lon="13.859179082974487"><ele>938.4</ele><time>2026-05-02T11:31:33Z</time></trkpt><trkpt lat="41.927440420115495" lon="13.859048707841275"><ele>937.5999999999999</ele><time>2026-05-02T11:31:34Z</time></trkpt><trkpt lat="41.9274141546376" lon="13.858913690825185"><ele>936.8</ele><time>2026-05-02T11:31:35Z</time></trkpt><trkpt lat="41.92739897346844" lon="13.858799350127885"><ele>936.0</ele><time>2026-05-02T11:31:36Z</time></trkpt><trkpt lat="41.92738710862693" lon="13.858672589498351"><ele>936.0</ele><time>2026-05-02T11:31:37Z</time></trkpt><trkpt lat="41.92732891597565" lon="13.85851285610882"><ele>936.0</ele><time>2026-05-02T11:31:38Z</time></trkpt><trkpt lat="41.927243898545385" lon="13.858332067683024"><ele>936.0</ele><time>2026-05-02T11:31:39Z</time></trkpt><trkpt lat="41.92717514736768" lon="13.858148871505025"><ele>936.0</ele><time>2026-05-02T11:31:40Z</time></trkpt><trkpt lat="41.92713794861141" lon="13.85797169387468"><ele>936.25</ele><time>2026-05-02T11:31:41Z</time></trkpt><trkpt lat="41.92714191263521" lon="13.857804771613505"><ele>936.5</ele><time>2026-05-02T11:31:42Z</time></trkpt><trkpt lat="41.927185033655114" lon="13.857654503671306"><ele>936.75</ele><time>2026-05-02T11:31:43Z</time></trkpt><trkpt lat="41.92728607355789" lon="13.857509343933781"><ele>937.0</ele><time>2026-05-02T11:31:44Z</time></trkpt><trkpt lat="41.92743370018445" lon="13.857394610502071"><ele>938.6666666666666</ele><time>2026-05-02T11:31:45Z</time></trkpt><trkpt lat="41.92759356142848" lon="13.857298315506785"><ele>940.3333333333333</ele><time>2026-05-02T11:31:46Z</time></trkpt><trkpt lat="41.92773256593094" lon="13.857155406621228"><ele>942.0</ele><time>2026-05-02T11:31:47Z</time></trkpt><trkpt lat="41.927850866366455" lon="13.856993165201462"><ele>942.0</ele><time>2026-05-02T11:31:48Z</time></trkpt><trkpt lat="41.927938084646954" lon="13.856828779117059"><ele>942.0</ele><time>2026-05-02T11:31:49Z</time></trkpt><trkpt lat="41.927986596773" lon="13.856646854442852"><ele>942.0</ele><time>2026-05-02T11:31:50Z</time></trkpt><trkpt lat="41.92800335896816" lon="13.856448309919939"><ele>942.0</ele><time>2026-05-02T11:31:51Z</time></trkpt><trkpt lat="41.927983440841494" lon="13.856223031393021"><ele>939.6666666666667</ele><time>2026-05-02T11:31:52Z</time></trkpt><trkpt lat="41.927949524569385" lon="13.855978808206887"><ele>937.3333333333334</ele><time>2026-05-02T11:31:53Z</time></trkpt><trkpt lat="41.927925349606475" lon="13.855731404186654"><ele>935.0</ele><time>2026-05-02T11:31:54Z</time></trkpt><trkpt lat="41.92789511986079" lon="13.855491694624153"><ele>934.6666666666667</ele><time>2026-05-02T11:31:55Z</time></trkpt><trkpt lat="41.927860332311575" lon="13.855253680418667"><ele>934.3333333333333</ele><time>2026-05-02T11:31:56Z</time></trkpt><trkpt lat="41.9278273466586" lon="13.855009795638683"><ele>934.0</ele><time>2026-05-02T11:31:57Z</time></trkpt><trkpt lat="41.9277991767451" lon="13.854761438742434"><ele>935.6666666666666</ele><time>2026-05-02T11:31:58Z</time></trkpt><trkpt lat="41.92776778956771" lon="13.854516436412677"><ele>937.3333333333333</ele><time>2026-05-02T11:31:59Z</time></trkpt><trkpt lat="41.927733903583494" lon="13.854279924039538"><ele>939.0</ele><time>2026-05-02T11:32:00Z</time></trkpt><trkpt lat="41.92770260488581" lon="13.854057805667297"><ele>938.6666666666667</ele><time>2026-05-02T11:32:01Z</time></trkpt><trkpt lat="41.92768603290556" lon="13.85383516844528"><ele>938.3333333333334</ele><time>2026-05-02T11:32:02Z</time></trkpt><trkpt lat="41.927707780133524" lon="13.85362256823647"><ele>938.0</ele><time>2026-05-02T11:32:03Z</time></trkpt><trkpt lat="41.92775178485114" lon="13.85342114808114"><ele>938.0</ele><time>2026-05-02T11:32:04Z</time></trkpt><trkpt lat="41.92782861417561" lon="13.853251474571353"><ele>938.0</ele><time>2026-05-02T11:32:05Z</time></trkpt><trkpt lat="41.92793028688417" lon="13.85309393291775"><ele>938.0</ele><time>2026-05-02T11:32:06Z</time></trkpt><trkpt lat="41.92804703056029" lon="13.852935225113603"><ele>938.0</ele><time>2026-05-02T11:32:07Z</time></trkpt><trkpt lat="41.92818630512132" lon="13.852779795886795"><ele>938.0</ele><time>2026-05-02T11:32:08Z</time></trkpt><trkpt lat="41.928338324367466" lon="13.85262681986901"><ele>938.0</ele><time>2026-05-02T11:32:09Z</time></trkpt><trkpt lat="41.928493373581254" lon="13.852472234925276"><ele>936.0</ele><time>2026-05-02T11:32:10Z</time></trkpt><trkpt lat="41.92866971747468" lon="13.85231158206312"><ele>934.0</ele><time>2026-05-02T11:32:11Z</time></trkpt><trkpt lat="41.92883166351953" lon="13.852144915896158"><ele>932.0</ele><time>2026-05-02T11:32:12Z</time></trkpt><trkpt lat="41.92898064584681" lon="13.851968848052817"><ele>931.3333333333334</ele><time>2026-05-02T11:32:13Z</time></trkpt><trkpt lat="41.92913767231998" lon="13.85178765383235"><ele>930.6666666666667</ele><time>2026-05-02T11:32:14Z</time></trkpt><trkpt lat="41.92928916507839" lon="13.851655310912669"><ele>930.0</ele><time>2026-05-02T11:32:15Z</time></trkpt><trkpt lat="41.92943598864443" lon="13.851543060581196"><ele>930.0</ele><time>2026-05-02T11:32:16Z</time></trkpt><trkpt lat="41.92958693014705" lon="13.851446383188259"><ele>930.0</ele><time>2026-05-02T11:32:17Z</time></trkpt><trkpt lat="41.92975101694374" lon="13.851380192739471"><ele>930.0</ele><time>2026-05-02T11:32:18Z</time></trkpt><trkpt lat="41.92992914443521" lon="13.851361390423481"><ele>931.0</ele><time>2026-05-02T11:32:19Z</time></trkpt><trkpt lat="41.930123200149964" lon="13.851345284591654"><ele>932.0</ele><time>2026-05-02T11:32:20Z</time></trkpt><trkpt lat="41.930325177639816" lon="13.851308836792418"><ele>933.0</ele><time>2026-05-02T11:32:21Z</time></trkpt><trkpt lat="41.93051541136003" lon="13.851301951433022"><ele>933.0</ele><time>2026-05-02T11:32:22Z</time></trkpt><trkpt lat="41.93071639466571" lon="13.851282496491697"><ele>933.0</ele><time>2026-05-02T11:32:23Z</time></trkpt><trkpt lat="41.93091703756848" lon="13.851263484389856"><ele>933.0</ele><time>2026-05-02T11:32:24Z</time></trkpt><trkpt lat="41.9311198225353" lon="13.85124432410698"><ele>933.6666666666667</ele><time>2026-05-02T11:32:25Z</time></trkpt><trkpt lat="41.93132512378389" lon="13.851224662112491"><ele>934.3333333333334</ele><time>2026-05-02T11:32:26Z</time></trkpt><trkpt lat="41.93152842478017" lon="13.851203121250185"><ele>935.0</ele><time>2026-05-02T11:32:27Z</time></trkpt><trkpt lat="41.93173548559094" lon="13.851181182016962"><ele>932.6666666666667</ele><time>2026-05-02T11:32:28Z</time></trkpt><trkpt lat="41.931946370345315" lon="13.851122902843677"><ele>930.3333333333333</ele><time>2026-05-02T11:32:29Z</time></trkpt><trkpt lat="41.93215630496483" lon="13.851097430125735"><ele>928.0</ele><time>2026-05-02T11:32:30Z</time></trkpt><trkpt lat="41.93236575939122" lon="13.851080502596147"><ele>929.0</ele><time>2026-05-02T11:32:31Z</time></trkpt><trkpt lat="41.932579009579406" lon="13.851060768088397"><ele>930.0</ele><time>2026-05-02T11:32:32Z</time></trkpt><trkpt lat="41.9327793272552" lon="13.851052811501688"><ele>931.0</ele><time>2026-05-02T11:32:33Z</time></trkpt><trkpt lat="41.93297528933751" lon="13.851033896604044"><ele>931.0</ele><time>2026-05-02T11:32:34Z</time></trkpt><trkpt lat="41.933164906403015" lon="13.85100322437659"><ele>931.0</ele><time>2026-05-02T11:32:35Z</time></trkpt><trkpt lat="41.93335534041004" lon="13.850941999404279"><ele>931.0</ele><time>2026-05-02T11:32:36Z</time></trkpt><trkpt lat="41.93353659896564" lon="13.85085839604184"><ele>929.6666666666666</ele><time>2026-05-02T11:32:37Z</time></trkpt><trkpt lat="41.93370290965204" lon="13.85074340207047"><ele>928.3333333333333</ele><time>2026-05-02T11:32:38Z</time></trkpt><trkpt lat="41.93385365498945" lon="13.85059636545199"><ele>927.0</ele><time>2026-05-02T11:32:39Z</time></trkpt><trkpt lat="41.93401371894103" lon="13.850448431998561"><ele>927.0</ele><time>2026-05-02T11:32:40Z</time></trkpt><trkpt lat="41.93413352454282" lon="13.85025644667261"><ele>927.0</ele><time>2026-05-02T11:32:41Z</time></trkpt><trkpt lat="41.93424720758465" lon="13.850038672953168"><ele>927.0</ele><time>2026-05-02T11:32:42Z</time></trkpt><trkpt lat="41.934357734812494" lon="13.84982326032259"><ele>927.0</ele><time>2026-05-02T11:32:43Z</time></trkpt><trkpt lat="41.93447131095985" lon="13.849603210195347"><ele>927.0</ele><time>2026-05-02T11:32:44Z</time></trkpt><trkpt lat="41.934569830038846" lon="13.849373595843264"><ele>927.0</ele><time>2026-05-02T11:32:45Z</time></trkpt><trkpt lat="41.934684376276664" lon="13.849151495205122"><ele>926.0</ele><time>2026-05-02T11:32:46Z</time></trkpt><trkpt lat="41.93481352693612" lon="13.84894017841219"><ele>925.0</ele><time>2026-05-02T11:32:47Z</time></trkpt><trkpt lat="41.934930403040234" lon="13.848713734972971"><ele>924.0</ele><time>2026-05-02T11:32:48Z</time></trkpt><trkpt lat="41.93503382962292" lon="13.848474298231524"><ele>924.0</ele><time>2026-05-02T11:32:49Z</time></trkpt><trkpt lat="41.935150291103845" lon="13.84824879852599"><ele>924.0</ele><time>2026-05-02T11:32:50Z</time></trkpt><trkpt lat="41.93526853608208" lon="13.84802377612161"><ele>924.0</ele><time>2026-05-02T11:32:51Z</time></trkpt><trkpt lat="41.935395427582385" lon="13.847806720519818"><ele>923.6666666666667</ele><time>2026-05-02T11:32:52Z</time></trkpt><trkpt lat="41.93546678664543" lon="13.847547650687622"><ele>923.3333333333334</ele><time>2026-05-02T11:32:53Z</time></trkpt><trkpt lat="41.93554662623607" lon="13.847299926155568"><ele>923.0</ele><time>2026-05-02T11:32:54Z</time></trkpt><trkpt lat="41.93557772764774" lon="13.847030948485155"><ele>922.0</ele><time>2026-05-02T11:32:55Z</time></trkpt><trkpt lat="41.935586397573715" lon="13.846757296486894"><ele>921.0</ele><time>2026-05-02T11:32:56Z</time></trkpt><trkpt lat="41.93555421441002" lon="13.846474068632546"><ele>920.0</ele><time>2026-05-02T11:32:57Z</time></trkpt><trkpt lat="41.935497173740174" lon="13.846204376596962"><ele>920.0</ele><time>2026-05-02T11:32:58Z</time></trkpt><trkpt lat="41.935433470499795" lon="13.845940764526341"><ele>920.0</ele><time>2026-05-02T11:32:59Z</time></trkpt><trkpt lat="41.93535306818489" lon="13.845678598548352"><ele>920.0</ele><time>2026-05-02T11:33:00Z</time></trkpt><trkpt lat="41.93528900375483" lon="13.84540974016687"><ele>920.0</ele><time>2026-05-02T11:33:01Z</time></trkpt><trkpt lat="41.93522939754177" lon="13.845139152993829"><ele>920.0</ele><time>2026-05-02T11:33:02Z</time></trkpt><trkpt lat="41.935166752223275" lon="13.84487212167983"><ele>920.0</ele><time>2026-05-02T11:33:03Z</time></trkpt><trkpt lat="41.935103923464624" lon="13.844605714376428"><ele>920.0</ele><time>2026-05-02T11:33:04Z</time></trkpt><trkpt lat="41.93504516301475" lon="13.844345052984186"><ele>920.0</ele><time>2026-05-02T11:33:05.021Z</time></trkpt><trkpt lat="41.93499486113473" lon="13.844102342447224"><ele>920.0</ele><time>2026-05-02T11:33:06.018Z</time></trkpt><trkpt lat="41.93494742445794" lon="13.843871130409298"><ele>920.0</ele><time>2026-05-02T11:33:07.015Z</time></trkpt><trkpt lat="41.934900168461375" lon="13.84365151658528"><ele>920.0</ele><time>2026-05-02T11:33:08.016Z</time></trkpt><trkpt lat="41.934850673274234" lon="13.843433431830132"><ele>920.0</ele><time>2026-05-02T11:33:09.02Z</time></trkpt><trkpt lat="41.93477908153267" lon="13.843201501307863"><ele>918.5</ele><time>2026-05-02T11:33:10Z</time></trkpt><trkpt lat="41.93472903795682" lon="13.842970389861978"><ele>917.0</ele><time>2026-05-02T11:33:11Z</time></trkpt><trkpt lat="41.93474857200822" lon="13.842799107184446"><ele>915.5</ele><time>2026-05-02T11:33:12Z</time></trkpt><trkpt lat="41.934716365271235" lon="13.842701746045917"><ele>914.0</ele><time>2026-05-02T11:33:13Z</time></trkpt><trkpt lat="41.93470650512682" lon="13.84250569385324"><ele>912.6666666666667</ele><time>2026-05-02T11:33:14Z</time></trkpt><trkpt lat="41.934728438834256" lon="13.842315859780582"><ele>911.3333333333333</ele><time>2026-05-02T11:33:15Z</time></trkpt><trkpt lat="41.934815346067445" lon="13.842161561271356"><ele>910.0</ele><time>2026-05-02T11:33:16Z</time></trkpt><trkpt lat="41.934963083703074" lon="13.842000110286945"><ele>909.6666666666666</ele><time>2026-05-02T11:33:17Z</time></trkpt><trkpt lat="41.93519709160907" lon="13.842060494159535"><ele>909.3333333333333</ele><time>2026-05-02T11:33:18Z</time></trkpt><trkpt lat="41.93534373822858" lon="13.84213326015217"><ele>909.0</ele><time>2026-05-02T11:33:19Z</time></trkpt><trkpt lat="41.93549875746672" lon="13.842194531659208"><ele>909.0</ele><time>2026-05-02T11:33:20Z</time></trkpt><trkpt lat="41.935641071629334" lon="13.842188208048428"><ele>909.0</ele><time>2026-05-02T11:33:21Z</time></trkpt><trkpt lat="41.935772199212366" lon="13.84217781141775"><ele>909.0</ele><time>2026-05-02T11:33:22Z</time></trkpt><trkpt lat="41.93589391715104" lon="13.842152036446414"><ele>909.0</ele><time>2026-05-02T11:33:23Z</time></trkpt><trkpt lat="41.935997896672085" lon="13.84210467049077"><ele>909.8000000000001</ele><time>2026-05-02T11:33:24Z</time></trkpt><trkpt lat="41.93610193112213" lon="13.842058482653233"><ele>910.6000000000001</ele><time>2026-05-02T11:33:25Z</time></trkpt><trkpt lat="41.93619293878949" lon="13.841976812471357"><ele>911.4</ele><time>2026-05-02T11:33:26Z</time></trkpt><trkpt lat="41.9362741285739" lon="13.841889211906752"><ele>912.2</ele><time>2026-05-02T11:33:27Z</time></trkpt><trkpt lat="41.9363693362553" lon="13.84181022872811"><ele>913.0</ele><time>2026-05-02T11:33:28Z</time></trkpt><trkpt lat="41.93646893813259" lon="13.841727286755884"><ele>912.2</ele><time>2026-05-02T11:33:29Z</time></trkpt><trkpt lat="41.936561884639914" lon="13.84166183933507"><ele>911.4</ele><time>2026-05-02T11:33:30Z</time></trkpt><trkpt lat="41.93664074793891" lon="13.84158383138813"><ele>910.6000000000001</ele><time>2026-05-02T11:33:31Z</time></trkpt><trkpt lat="41.936710766076004" lon="13.841537782821208"><ele>909.8000000000001</ele><time>2026-05-02T11:33:32Z</time></trkpt><trkpt lat="41.936802328788026" lon="13.841464375157024"><ele>909.0</ele><time>2026-05-02T11:33:34Z</time></trkpt><trkpt lat="41.936890855759636" lon="13.841367298573807"><ele>909.0</ele><time>2026-05-02T11:33:36Z</time></trkpt><trkpt lat="41.93694722626462" lon="13.841319176800827"><ele>909.0</ele><time>2026-05-02T11:33:37Z</time></trkpt><trkpt lat="41.93699569719055" lon="13.841241757888282"><ele>909.0</ele><time>2026-05-02T11:33:38Z</time></trkpt><trkpt lat="41.93701824008542" lon="13.841126998277216"><ele>909.0</ele><time>2026-05-02T11:33:39Z</time></trkpt><trkpt lat="41.93701886090082" lon="13.841021056138313"><ele>909.0</ele><time>2026-05-02T11:33:40Z</time></trkpt><trkpt lat="41.9370358253756" lon="13.840921628465766"><ele>909.0</ele><time>2026-05-02T11:33:41Z</time></trkpt><trkpt lat="41.937063057768995" lon="13.840816252081558"><ele>907.6666666666666</ele><time>2026-05-02T11:33:42Z</time></trkpt><trkpt lat="41.93709142122459" lon="13.840695920541721"><ele>906.3333333333333</ele><time>2026-05-02T11:33:43Z</time></trkpt><trkpt lat="41.93712446711558" lon="13.84058042177073"><ele>905.0</ele><time>2026-05-02T11:33:44Z</time></trkpt><trkpt lat="41.937169224056106" lon="13.840487071964418"><ele>903.6666666666666</ele><time>2026-05-02T11:33:45Z</time></trkpt><trkpt lat="41.937217218700596" lon="13.840398019294112"><ele>902.3333333333333</ele><time>2026-05-02T11:33:46Z</time></trkpt><trkpt lat="41.93727149501653" lon="13.840315072605286"><ele>901.0</ele><time>2026-05-02T11:33:47Z</time></trkpt><trkpt lat="41.93733991834384" lon="13.840226398570564"><ele>903.0</ele><time>2026-05-02T11:33:48Z</time></trkpt><trkpt lat="41.93740906599893" lon="13.840132097344922"><ele>904.9999999999999</ele><time>2026-05-02T11:33:49Z</time></trkpt><trkpt lat="41.93750225360223" lon="13.840047141453795"><ele>906.9999999999999</ele><time>2026-05-02T11:33:50Z</time></trkpt><trkpt lat="41.93756830104425" lon="13.839946931720217"><ele>909.0</ele><time>2026-05-02T11:33:51Z</time></trkpt><trkpt lat="41.93765238620068" lon="13.839864017925526"><ele>911.0</ele><time>2026-05-02T11:33:52Z</time></trkpt><trkpt lat="41.937738172892" lon="13.839784148357838"><ele>911.0</ele><time>2026-05-02T11:33:53Z</time></trkpt><trkpt lat="41.93781465615977" lon="13.839717832949209"><ele>910.9999999999999</ele><time>2026-05-02T11:33:54Z</time></trkpt><trkpt lat="41.9378828961032" lon="13.839638186880926"><ele>910.9999999999999</ele><time>2026-05-02T11:33:55Z</time></trkpt><trkpt lat="41.93795855897399" lon="13.839558808960069"><ele>911.0</ele><time>2026-05-02T11:33:56Z</time></trkpt><trkpt lat="41.9380223987449" lon="13.839445229899669"><ele>911.0</ele><time>2026-05-02T11:33:57Z</time></trkpt><trkpt lat="41.938067782644225" lon="13.83931209122002"><ele>906.8</ele><time>2026-05-02T11:33:58Z</time></trkpt><trkpt lat="41.938121225071136" lon="13.83919297365593"><ele>902.5999999999999</ele><time>2026-05-02T11:33:59Z</time></trkpt><trkpt lat="41.93817699465758" lon="13.839080196801644"><ele>898.4</ele><time>2026-05-02T11:34:00Z</time></trkpt><trkpt lat="41.93821470758236" lon="13.838962552442673"><ele>894.2</ele><time>2026-05-02T11:34:01Z</time></trkpt><trkpt lat="41.93821674552579" lon="13.838829330324405"><ele>890.0</ele><time>2026-05-02T11:34:02Z</time></trkpt><trkpt lat="41.93819670937305" lon="13.838699370429408"><ele>890.0</ele><time>2026-05-02T11:34:03Z</time></trkpt><trkpt lat="41.938176134170305" lon="13.83855844775877"><ele>890.0</ele><time>2026-05-02T11:34:04Z</time></trkpt><trkpt lat="41.9381699336977" lon="13.838399242386952"><ele>890.0</ele><time>2026-05-02T11:34:05Z</time></trkpt><trkpt lat="41.93819065454421" lon="13.838242685001607"><ele>890.0</ele><time>2026-05-02T11:34:06Z</time></trkpt><trkpt lat="41.93822168330174" lon="13.83808549948124"><ele>886.5</ele><time>2026-05-02T11:34:07Z</time></trkpt><trkpt lat="41.93826446778032" lon="13.83793633448079"><ele>883.0</ele><time>2026-05-02T11:34:08Z</time></trkpt><trkpt lat="41.9383118433385" lon="13.83779732688044"><ele>879.5</ele><time>2026-05-02T11:34:09Z</time></trkpt><trkpt lat="41.9383579684506" lon="13.837664932974269"><ele>876.0</ele><time>2026-05-02T11:34:10Z</time></trkpt><trkpt lat="41.9383968597361" lon="13.837521444287823"><ele>885.1999999999999</ele><time>2026-05-02T11:34:11Z</time></trkpt><trkpt lat="41.93844770613373" lon="13.837424849557234"><ele>894.3999999999999</ele><time>2026-05-02T11:34:12Z</time></trkpt><trkpt lat="41.93848160976116" lon="13.83731141621625"><ele>903.6</ele><time>2026-05-02T11:34:13Z</time></trkpt><trkpt lat="41.93850705272141" lon="13.837192945662526"><ele>912.8</ele><time>2026-05-02T11:34:14Z</time></trkpt><trkpt lat="41.93852316025952" lon="13.837069473544753"><ele>922.0</ele><time>2026-05-02T11:34:15Z</time></trkpt><trkpt lat="41.938528656379845" lon="13.836952155574902"><ele>921.9999999999999</ele><time>2026-05-02T11:34:16Z</time></trkpt><trkpt lat="41.938530470009894" lon="13.836837061969776"><ele>922.0</ele><time>2026-05-02T11:34:17Z</time></trkpt><trkpt lat="41.93850972088551" lon="13.836702900786198"><ele>922.0</ele><time>2026-05-02T11:34:18Z</time></trkpt><trkpt lat="41.93855752131856" lon="13.836596364007223"><ele>922.0</ele><time>2026-05-02T11:34:19Z</time></trkpt><trkpt lat="41.938564263495586" lon="13.836471141151174"><ele>921.9999999999999</ele><time>2026-05-02T11:34:20Z</time></trkpt><trkpt lat="41.93857086822306" lon="13.8363830028397"><ele>922.0</ele><time>2026-05-02T11:34:21Z</time></trkpt><trkpt lat="41.93857152257803" lon="13.836292116204811"><ele>915.4000000000001</ele><time>2026-05-02T11:34:22Z</time></trkpt><trkpt lat="41.93867669377089" lon="13.83615580579054"><ele>908.8000000000001</ele><time>2026-05-02T11:34:24Z</time></trkpt><trkpt lat="41.938755746379385" lon="13.836091503459144"><ele>902.2</ele><time>2026-05-02T11:34:25Z</time></trkpt><trkpt lat="41.93882602653221" lon="13.836016703141517"><ele>895.6</ele><time>2026-05-02T11:34:26Z</time></trkpt><trkpt lat="41.93890679965698" lon="13.835984087211342"><ele>889.0</ele><time>2026-05-02T11:34:27Z</time></trkpt><trkpt lat="41.93897629292854" lon="13.835934028302908"><ele>890.8000000000001</ele><time>2026-05-02T11:34:28Z</time></trkpt><trkpt lat="41.93904781855448" lon="13.835881870563599"><ele>892.6000000000001</ele><time>2026-05-02T11:34:29Z</time></trkpt><trkpt lat="41.93913774528136" lon="13.835815475289305"><ele>894.4</ele><time>2026-05-02T11:34:30Z</time></trkpt><trkpt lat="41.93922120002637" lon="13.835750709473054"><ele>896.2</ele><time>2026-05-02T11:34:31Z</time></trkpt><trkpt lat="41.93929807348108" lon="13.835666940174388"><ele>898.0</ele><time>2026-05-02T11:34:32Z</time></trkpt><trkpt lat="41.93936724944745" lon="13.835589878472103"><ele>898.0</ele><time>2026-05-02T11:34:33Z</time></trkpt><trkpt lat="41.939427111341054" lon="13.835490319603513"><ele>898.0</ele><time>2026-05-02T11:34:34Z</time></trkpt><trkpt lat="41.93947805172217" lon="13.83537454983601"><ele>898.0</ele><time>2026-05-02T11:34:35Z</time></trkpt><trkpt lat="41.93953420184727" lon="13.83525637978782"><ele>898.0</ele><time>2026-05-02T11:34:36Z</time></trkpt><trkpt lat="41.939600960719716" lon="13.835142196598673"><ele>898.0</ele><time>2026-05-02T11:34:37Z</time></trkpt><trkpt lat="41.93967598000969" lon="13.835039808501243"><ele>900.5</ele><time>2026-05-02T11:34:38Z</time></trkpt><trkpt lat="41.93977022077119" lon="13.834961429317872"><ele>903.0</ele><time>2026-05-02T11:34:39Z</time></trkpt><trkpt lat="41.93986464683189" lon="13.834849272680026"><ele>905.5</ele><time>2026-05-02T11:34:40Z</time></trkpt><trkpt lat="41.9399960478471" lon="13.834744796332325"><ele>908.0</ele><time>2026-05-02T11:34:41Z</time></trkpt><trkpt lat="41.94013326485871" lon="13.834620125430325"><ele>908.0</ele><time>2026-05-02T11:34:42Z</time></trkpt><trkpt lat="41.94025373834519" lon="13.834485647310986"><ele>908.0</ele><time>2026-05-02T11:34:43Z</time></trkpt><trkpt lat="41.94037829441525" lon="13.834395593655255"><ele>908.0</ele><time>2026-05-02T11:34:44Z</time></trkpt><trkpt lat="41.940471321864706" lon="13.834307405828747"><ele>908.0</ele><time>2026-05-02T11:34:45Z</time></trkpt><trkpt lat="41.94054470467592" lon="13.834228393047116"><ele>902.0000000000001</ele><time>2026-05-02T11:34:46Z</time></trkpt><trkpt lat="41.94059364075057" lon="13.83415032253524"><ele>896.0</ele><time>2026-05-02T11:34:47Z</time></trkpt><trkpt lat="41.94061959594357" lon="13.834063196416453"><ele>890.0</ele><time>2026-05-02T11:34:48Z</time></trkpt><trkpt lat="41.940613258476596" lon="13.833964455477775"><ele>884.0</ele><time>2026-05-02T11:34:49Z</time></trkpt><trkpt lat="41.94059365102369" lon="13.833866301885179"><ele>878.0000000000001</ele><time>2026-05-02T11:34:50Z</time></trkpt><trkpt lat="41.94059357894246" lon="13.833751109581465"><ele>872.0</ele><time>2026-05-02T11:34:51Z</time></trkpt><trkpt lat="41.94060831434767" lon="13.833655425339861"><ele>872.0000000000001</ele><time>2026-05-02T11:34:52Z</time></trkpt><trkpt lat="41.940602502029336" lon="13.833558389531813"><ele>872.0</ele><time>2026-05-02T11:34:53Z</time></trkpt><trkpt lat="41.940633532100165" lon="13.833389081888859"><ele>872.0</ele><time>2026-05-02T11:34:55Z</time></trkpt><trkpt lat="41.94065044392447" lon="13.833303502154589"><ele>872.0</ele><time>2026-05-02T11:34:56Z</time></trkpt><trkpt lat="41.940671856900074" lon="13.833212731815495"><ele>872.0000000000001</ele><time>2026-05-02T11:34:57Z</time></trkpt><trkpt lat="41.94070752485888" lon="13.833120269957618"><ele>872.0</ele><time>2026-05-02T11:34:58Z</time></trkpt><trkpt lat="41.9407508075996" lon="13.833032346998184"><ele>872.3333333333334</ele><time>2026-05-02T11:34:59Z</time></trkpt><trkpt lat="41.940805810401386" lon="13.832952842911721"><ele>872.6666666666667</ele><time>2026-05-02T11:35:00Z</time></trkpt><trkpt lat="41.94085930087023" lon="13.832882022828036"><ele>873.0</ele><time>2026-05-02T11:35:01Z</time></trkpt><trkpt lat="41.94092973110026" lon="13.832783145146532"><ele>873.3333333333333</ele><time>2026-05-02T11:35:03Z</time></trkpt><trkpt lat="41.9409609277362" lon="13.832707835405582"><ele>873.6666666666666</ele><time>2026-05-02T11:35:06Z</time></trkpt><trkpt lat="41.94099674234848" lon="13.832628962916779"><ele>874.0</ele><time>2026-05-02T11:35:09Z</time></trkpt><trkpt lat="41.94100027480006" lon="13.832492837877684"><ele>873.9999999999999</ele><time>2026-05-02T11:35:11Z</time></trkpt><trkpt lat="41.94101298471927" lon="13.832391257767304"><ele>874.0</ele><time>2026-05-02T11:35:18Z</time></trkpt><trkpt lat="41.940998042021086" lon="13.832275401421533"><ele>874.0</ele><time>2026-05-02T11:35:21Z</time></trkpt><trkpt lat="41.94105541933508" lon="13.83216005628965"><ele>874.0</ele><time>2026-05-02T11:35:23Z</time></trkpt><trkpt lat="41.94111233357284" lon="13.83206298710542"><ele>873.9999999999999</ele><time>2026-05-02T11:35:24Z</time></trkpt><trkpt lat="41.941165699175436" lon="13.83197272864139"><ele>874.0</ele><time>2026-05-02T11:35:25Z</time></trkpt><trkpt lat="41.94120598062056" lon="13.8319039158924"><ele>873.9999999999999</ele><time>2026-05-02T11:35:26Z</time></trkpt><trkpt lat="41.94125157641092" lon="13.831826024642272"><ele>874.0</ele><time>2026-05-02T11:35:27Z</time></trkpt><trkpt lat="41.941305389839044" lon="13.831733684128741"><ele>874.0</ele><time>2026-05-02T11:35:28Z</time></trkpt><trkpt lat="41.9413575817766" lon="13.831643975513543"><ele>874.0</ele><time>2026-05-02T11:35:29Z</time></trkpt><trkpt lat="41.94140798146041" lon="13.831557347418805"><ele>873.9999999999999</ele><time>2026-05-02T11:35:30Z</time></trkpt><trkpt lat="41.941453368389006" lon="13.831479335384827"><ele>874.0</ele><time>2026-05-02T11:35:31Z</time></trkpt><trkpt lat="41.94150896557344" lon="13.83138377373469"><ele>875.9999999999999</ele><time>2026-05-02T11:35:32Z</time></trkpt><trkpt lat="41.94156429967318" lon="13.831256530734906"><ele>878.0</ele><time>2026-05-02T11:35:34Z</time></trkpt><trkpt lat="41.941615624848026" lon="13.831192847118347"><ele>880.0</ele><time>2026-05-02T11:35:38Z</time></trkpt><trkpt lat="41.941663472335335" lon="13.831127380694719"><ele>882.0</ele><time>2026-05-02T11:35:43Z</time></trkpt><trkpt lat="41.941755467771664" lon="13.83105977554394"><ele>883.9999999999999</ele><time>2026-05-02T11:35:46Z</time></trkpt><trkpt lat="41.941813939874315" lon="13.831021985912058"><ele>886.0</ele><time>2026-05-02T11:35:47Z</time></trkpt><trkpt lat="41.94185652544355" lon="13.831106837093543"><ele>886.0</ele><time>2026-05-02T11:35:48Z</time></trkpt><trkpt lat="41.9420970534325" lon="13.831008465799936"><ele>886.0</ele><time>2026-05-02T11:35:51Z</time></trkpt><trkpt lat="41.942189020935636" lon="13.830895457736808"><ele>886.0</ele><time>2026-05-02T11:35:53Z</time></trkpt><trkpt lat="41.942235581950136" lon="13.830813602594608"><ele>880.1666666666666</ele><time>2026-05-02T11:35:54Z</time></trkpt><trkpt lat="41.94226741065087" lon="13.830725352262693"><ele>874.3333333333333</ele><time>2026-05-02T11:35:55Z</time></trkpt><trkpt lat="41.942293715610326" lon="13.830639684270754"><ele>868.5</ele><time>2026-05-02T11:35:56Z</time></trkpt><trkpt lat="41.942319248469886" lon="13.83054026343077"><ele>862.6666666666667</ele><time>2026-05-02T11:35:57Z</time></trkpt><trkpt lat="41.942336238398795" lon="13.830390866847615"><ele>856.8333333333334</ele><time>2026-05-02T11:35:59Z</time></trkpt><trkpt lat="41.942379935784615" lon="13.83025462829551"><ele>851.0</ele><time>2026-05-02T11:36:01Z</time></trkpt><trkpt lat="41.94238883912562" lon="13.830092097678794"><ele>852.6666666666667</ele><time>2026-05-02T11:36:03Z</time></trkpt><trkpt lat="41.94239756818509" lon="13.8299951544661"><ele>854.3333333333334</ele><time>2026-05-02T11:36:04Z</time></trkpt><trkpt lat="41.94242357820996" lon="13.829903378681866"><ele>856.0</ele><time>2026-05-02T11:36:05Z</time></trkpt><trkpt lat="41.9424498800672" lon="13.829807719916667"><ele>857.6666666666667</ele><time>2026-05-02T11:36:06Z</time></trkpt><trkpt lat="41.942477255361325" lon="13.82972448154564"><ele>859.3333333333334</ele><time>2026-05-02T11:36:07Z</time></trkpt><trkpt lat="41.94254139404988" lon="13.829590115455028"><ele>861.0</ele><time>2026-05-02T11:36:09Z</time></trkpt><trkpt lat="41.94264719323329" lon="13.829523965717817"><ele>861.0</ele><time>2026-05-02T11:36:11Z</time></trkpt><trkpt lat="41.942731417725724" lon="13.829471986850955"><ele>860.9999999999999</ele><time>2026-05-02T11:36:13Z</time></trkpt><trkpt lat="41.94281845048361" lon="13.829420261952887"><ele>860.9999999999999</ele><time>2026-05-02T11:36:15Z</time></trkpt><trkpt lat="41.94291748920452" lon="13.829361592065684"><ele>861.0</ele><time>2026-05-02T11:36:17Z</time></trkpt><trkpt lat="41.94297678783995" lon="13.829326463946567"><ele>861.0</ele><time>2026-05-02T11:36:18Z</time></trkpt><trkpt lat="41.9430790345593" lon="13.829265822725146"><ele>858.7142857142857</ele><time>2026-05-02T11:36:20Z</time></trkpt><trkpt lat="41.94313909766491" lon="13.82922925560689"><ele>856.4285714285714</ele><time>2026-05-02T11:36:21Z</time></trkpt><trkpt lat="41.94319756820729" lon="13.829192210672893"><ele>854.1428571428571</ele><time>2026-05-02T11:36:22Z</time></trkpt><trkpt lat="41.94326450740609" lon="13.829148128780806"><ele>851.8571428571429</ele><time>2026-05-02T11:36:23Z</time></trkpt><trkpt lat="41.94333067603974" lon="13.829097788442887"><ele>849.5714285714286</ele><time>2026-05-02T11:36:24Z</time></trkpt><trkpt lat="41.9433878229485" lon="13.829038112451096"><ele>847.2857142857142</ele><time>2026-05-02T11:36:25Z</time></trkpt><trkpt lat="41.94343361565255" lon="13.828968917358962"><ele>845.0</ele><time>2026-05-02T11:36:26Z</time></trkpt><trkpt lat="41.943470090906445" lon="13.828894797990635"><ele>845.0</ele><time>2026-05-02T11:36:27Z</time></trkpt><trkpt lat="41.94354081409601" lon="13.828777139345917"><ele>845.0</ele><time>2026-05-02T11:36:29Z</time></trkpt><trkpt lat="41.943634534336624" lon="13.828666601648353"><ele>845.0</ele><time>2026-05-02T11:36:31Z</time></trkpt><trkpt lat="41.94370285070415" lon="13.828639777432173"><ele>845.0</ele><time>2026-05-02T11:36:32Z</time></trkpt><trkpt lat="41.94377659468434" lon="13.828624690849724"><ele>845.0</ele><time>2026-05-02T11:36:33Z</time></trkpt><trkpt lat="41.943889656378246" lon="13.828619249522895"><ele>845.0</ele><time>2026-05-02T11:36:35Z</time></trkpt><trkpt lat="41.94395563715053" lon="13.828620802654623"><ele>845.0</ele><time>2026-05-02T11:36:37Z</time></trkpt><trkpt lat="41.944051040181684" lon="13.828617031507555"><ele>845.0</ele><time>2026-05-02T11:36:39Z</time></trkpt><trkpt lat="41.94415082875017" lon="13.82861804910982"><ele>845.0</ele><time>2026-05-02T11:36:41Z</time></trkpt><trkpt lat="41.94427164818403" lon="13.828622151614521"><ele>845.0</ele><time>2026-05-02T11:36:43Z</time></trkpt><trkpt lat="41.944340848405446" lon="13.828624110330107"><ele>842.6666666666667</ele><time>2026-05-02T11:36:44Z</time></trkpt><trkpt lat="41.944416204867494" lon="13.828628537688768"><ele>840.3333333333334</ele><time>2026-05-02T11:36:45Z</time></trkpt><trkpt lat="41.94448841338781" lon="13.828628745917811"><ele>838.0</ele><time>2026-05-02T11:36:46Z</time></trkpt><trkpt lat="41.94459080042895" lon="13.828675016298092"><ele>835.6666666666667</ele><time>2026-05-02T11:36:48Z</time></trkpt><trkpt lat="41.94462612588534" lon="13.828745351932023"><ele>833.3333333333334</ele><time>2026-05-02T11:36:49Z</time></trkpt><trkpt lat="41.94472184907238" lon="13.8288316845011"><ele>831.0</ele><time>2026-05-02T11:36:51Z</time></trkpt><trkpt lat="41.94478512746437" lon="13.828844248610244"><ele>831.0</ele><time>2026-05-02T11:36:52Z</time></trkpt><trkpt lat="41.9448957282742" lon="13.828854521335758"><ele>831.0</ele><time>2026-05-02T11:36:54Z</time></trkpt><trkpt lat="41.94499379834938" lon="13.828874748355135"><ele>831.0</ele><time>2026-05-02T11:36:56Z</time></trkpt><trkpt lat="41.94510689986554" lon="13.828961077997176"><ele>831.0</ele><time>2026-05-02T11:36:58Z</time></trkpt><trkpt lat="41.9452045293218" lon="13.828986192774874"><ele>831.0</ele><time>2026-05-02T11:36:59Z</time></trkpt><trkpt lat="41.94531776276453" lon="13.828980656211098"><ele>833.75</ele><time>2026-05-02T11:37:00Z</time></trkpt><trkpt lat="41.94544742178969" lon="13.828915970096114"><ele>836.5</ele><time>2026-05-02T11:37:01Z</time></trkpt><trkpt lat="41.94556526519311" lon="13.828852623425554"><ele>839.25</ele><time>2026-05-02T11:37:02Z</time></trkpt><trkpt lat="41.945684868645" lon="13.828782284106047"><ele>842.0</ele><time>2026-05-02T11:37:03Z</time></trkpt><trkpt lat="41.9457869150582" lon="13.828732903584122"><ele>840.75</ele><time>2026-05-02T11:37:04Z</time></trkpt><trkpt lat="41.94589936105735" lon="13.82866764679793"><ele>839.5</ele><time>2026-05-02T11:37:05Z</time></trkpt><trkpt lat="41.94600082578498" lon="13.82853854987299"><ele>838.25</ele><time>2026-05-02T11:37:06Z</time></trkpt><trkpt lat="41.94606972726742" lon="13.828404052942602"><ele>837.0</ele><time>2026-05-02T11:37:07Z</time></trkpt><trkpt lat="41.9461264878163" lon="13.828309567906768"><ele>837.0</ele><time>2026-05-02T11:37:08Z</time></trkpt><trkpt lat="41.9461955868087" lon="13.828221760414172"><ele>837.0</ele><time>2026-05-02T11:37:09Z</time></trkpt><trkpt lat="41.94628698780958" lon="13.828154385553464"><ele>837.0</ele><time>2026-05-02T11:37:10Z</time></trkpt><trkpt lat="41.94638841095231" lon="13.828065632173697"><ele>837.0</ele><time>2026-05-02T11:37:11Z</time></trkpt><trkpt lat="41.94648936875122" lon="13.827958526386375"><ele>837.0</ele><time>2026-05-02T11:37:12Z</time></trkpt><trkpt lat="41.94657579303273" lon="13.827859367819626"><ele>837.0</ele><time>2026-05-02T11:37:13Z</time></trkpt><trkpt lat="41.946652392659914" lon="13.827793376593718"><ele>837.0</ele><time>2026-05-02T11:37:14Z</time></trkpt><trkpt lat="41.946726851009124" lon="13.827751225462807"><ele>837.0</ele><time>2026-05-02T11:37:15Z</time></trkpt><trkpt lat="41.946810188541946" lon="13.82775340698149"><ele>837.0</ele><time>2026-05-02T11:37:16Z</time></trkpt><trkpt lat="41.94691535543946" lon="13.827757406985782"><ele>837.0</ele><time>2026-05-02T11:37:17Z</time></trkpt><trkpt lat="41.94703450658044" lon="13.827658537131624"><ele>834.8</ele><time>2026-05-02T11:37:18Z</time></trkpt><trkpt lat="41.94710976998734" lon="13.827513304141016"><ele>832.6</ele><time>2026-05-02T11:37:19Z</time></trkpt><trkpt lat="41.94717258849149" lon="13.827387230919303"><ele>830.4</ele><time>2026-05-02T11:37:20Z</time></trkpt><trkpt lat="41.9472515127095" lon="13.827309060420722"><ele>828.1999999999999</ele><time>2026-05-02T11:37:21Z</time></trkpt><trkpt lat="41.94733907523563" lon="13.827235927602743"><ele>826.0</ele><time>2026-05-02T11:37:22Z</time></trkpt><trkpt lat="41.947416315095026" lon="13.827189189685797"><ele>826.0</ele><time>2026-05-02T11:37:23Z</time></trkpt><trkpt lat="41.9474943962895" lon="13.827199657941621"><ele>826.0</ele><time>2026-05-02T11:37:24Z</time></trkpt><trkpt lat="41.94758022208684" lon="13.827255619949133"><ele>826.0</ele><time>2026-05-02T11:37:25Z</time></trkpt><trkpt lat="41.94769101092534" lon="13.827291426158125"><ele>826.0</ele><time>2026-05-02T11:37:26Z</time></trkpt><trkpt lat="41.94783960246983" lon="13.8272450598784"><ele>826.0</ele><time>2026-05-02T11:37:27Z</time></trkpt><trkpt lat="41.947954066678946" lon="13.827145845058912"><ele>824.0</ele><time>2026-05-02T11:37:28Z</time></trkpt><trkpt lat="41.948039770610336" lon="13.82699730974566"><ele>822.0</ele><time>2026-05-02T11:37:29Z</time></trkpt><trkpt lat="41.94808287691192" lon="13.826804601752864"><ele>820.0</ele><time>2026-05-02T11:37:30Z</time></trkpt><trkpt lat="41.94810508568504" lon="13.826643850447747"><ele>818.0</ele><time>2026-05-02T11:37:31Z</time></trkpt><trkpt lat="41.94814597350737" lon="13.82647019599253"><ele>818.0</ele><time>2026-05-02T11:37:32Z</time></trkpt><trkpt lat="41.948190457011805" lon="13.826338499773732"><ele>818.0</ele><time>2026-05-02T11:37:33Z</time></trkpt><trkpt lat="41.94824372864961" lon="13.826218185594504"><ele>818.0</ele><time>2026-05-02T11:37:34Z</time></trkpt><trkpt lat="41.94831666818935" lon="13.826155686069471"><ele>818.0</ele><time>2026-05-02T11:37:35Z</time></trkpt><trkpt lat="41.94843351933842" lon="13.826060640386082"><ele>818.0</ele><time>2026-05-02T11:37:36Z</time></trkpt><trkpt lat="41.94852032120944" lon="13.825974345853908"><ele>815.2</ele><time>2026-05-02T11:37:37Z</time></trkpt><trkpt lat="41.948589778982345" lon="13.82590919507425"><ele>812.4</ele><time>2026-05-02T11:37:38Z</time></trkpt><trkpt lat="41.948662295834716" lon="13.825898057406135"><ele>809.6</ele><time>2026-05-02T11:37:39Z</time></trkpt><trkpt lat="41.9487793211019" lon="13.825928965263795"><ele>806.8000000000001</ele><time>2026-05-02T11:37:40Z</time></trkpt><trkpt lat="41.9489166185607" lon="13.825947023746306"><ele>804.0</ele><time>2026-05-02T11:37:41Z</time></trkpt><trkpt lat="41.94907429261248" lon="13.825898072629789"><ele>805.75</ele><time>2026-05-02T11:37:42Z</time></trkpt><trkpt lat="41.94921248307689" lon="13.825817695235825"><ele>807.5</ele><time>2026-05-02T11:37:43Z</time></trkpt><trkpt lat="41.949348264815036" lon="13.825742277965697"><ele>809.25</ele><time>2026-05-02T11:37:44Z</time></trkpt><trkpt lat="41.949472873078854" lon="13.825687548129912"><ele>811.0</ele><time>2026-05-02T11:37:45Z</time></trkpt><trkpt lat="41.94960373898883" lon="13.825677149337919"><ele>811.0</ele><time>2026-05-02T11:37:46Z</time></trkpt><trkpt lat="41.94974016225971" lon="13.825691516714071"><ele>811.0</ele><time>2026-05-02T11:37:47Z</time></trkpt><trkpt lat="41.94987474918348" lon="13.825638279034175"><ele>811.0</ele><time>2026-05-02T11:37:48Z</time></trkpt><trkpt lat="41.94998694795827" lon="13.825531690767436"><ele>811.0</ele><time>2026-05-02T11:37:49Z</time></trkpt><trkpt lat="41.95005392517631" lon="13.825380883714283"><ele>816.0</ele><time>2026-05-02T11:37:50Z</time></trkpt><trkpt lat="41.9501445599179" lon="13.82532043879607"><ele>821.0</ele><time>2026-05-02T11:37:51Z</time></trkpt><trkpt lat="41.95026291272587" lon="13.825260714904068"><ele>826.0</ele><time>2026-05-02T11:37:52Z</time></trkpt><trkpt lat="41.950391280309056" lon="13.825215766876546"><ele>831.0</ele><time>2026-05-02T11:37:53Z</time></trkpt><trkpt lat="41.950531817310726" lon="13.82519130361855"><ele>831.0</ele><time>2026-05-02T11:37:54Z</time></trkpt><trkpt lat="41.95067573284328" lon="13.825171666104326"><ele>831.0</ele><time>2026-05-02T11:37:55Z</time></trkpt><trkpt lat="41.95079999190714" lon="13.825150912667725"><ele>831.0</ele><time>2026-05-02T11:37:56Z</time></trkpt><trkpt lat="41.95091444438692" lon="13.825103739364591"><ele>831.0</ele><time>2026-05-02T11:37:57Z</time></trkpt><trkpt lat="41.9510154478252" lon="13.824985636682298"><ele>829.0</ele><time>2026-05-02T11:37:58Z</time></trkpt><trkpt lat="41.95106710457187" lon="13.824791865043332"><ele>827.0</ele><time>2026-05-02T11:37:59Z</time></trkpt><trkpt lat="41.951157810020035" lon="13.824612997525282"><ele>825.0</ele><time>2026-05-02T11:38:00Z</time></trkpt><trkpt lat="41.951238317729896" lon="13.824417307026621"><ele>814.6666666666667</ele><time>2026-05-02T11:38:01Z</time></trkpt><trkpt lat="41.9513230446147" lon="13.824210141703718"><ele>804.3333333333334</ele><time>2026-05-02T11:38:02Z</time></trkpt><trkpt lat="41.95140137804435" lon="13.824019556863226"><ele>794.0</ele><time>2026-05-02T11:38:03Z</time></trkpt><trkpt lat="41.95147059821601" lon="13.823852573968809"><ele>794.0</ele><time>2026-05-02T11:38:04Z</time></trkpt><trkpt lat="41.951538984096686" lon="13.823719093072258"><ele>794.0</ele><time>2026-05-02T11:38:05Z</time></trkpt><trkpt lat="41.95162538345831" lon="13.82361204955361"><ele>794.0</ele><time>2026-05-02T11:38:06Z</time></trkpt><trkpt lat="41.95174649319421" lon="13.823517332421826"><ele>794.0</ele><time>2026-05-02T11:38:07Z</time></trkpt><trkpt lat="41.95187416967873" lon="13.8234158355037"><ele>791.0</ele><time>2026-05-02T11:38:08Z</time></trkpt><trkpt lat="41.95200289090891" lon="13.823309597898016"><ele>788.0</ele><time>2026-05-02T11:38:09Z</time></trkpt><trkpt lat="41.952112709804986" lon="13.823220185424042"><ele>785.0</ele><time>2026-05-02T11:38:10Z</time></trkpt><trkpt lat="41.95222266547504" lon="13.823165702996857"><ele>782.0</ele><time>2026-05-02T11:38:11Z</time></trkpt><trkpt lat="41.95234396576055" lon="13.823156219382456"><ele>782.0</ele><time>2026-05-02T11:38:12Z</time></trkpt><trkpt lat="41.952474974412944" lon="13.82318527781741"><ele>782.0</ele><time>2026-05-02T11:38:13Z</time></trkpt><trkpt lat="41.952604976738115" lon="13.823268369679292"><ele>782.0</ele><time>2026-05-02T11:38:14Z</time></trkpt><trkpt lat="41.95274007299496" lon="13.823363358105915"><ele>782.0</ele><time>2026-05-02T11:38:15Z</time></trkpt><trkpt lat="41.95286950734673" lon="13.823448989117642"><ele>781.75</ele><time>2026-05-02T11:38:16Z</time></trkpt><trkpt lat="41.9529889246709" lon="13.823567083971353"><ele>781.5</ele><time>2026-05-02T11:38:17Z</time></trkpt><trkpt lat="41.95308729370196" lon="13.823699474590757"><ele>781.25</ele><time>2026-05-02T11:38:18Z</time></trkpt><trkpt lat="41.95318811478138" lon="13.823854119083895"><ele>781.0</ele><time>2026-05-02T11:38:19Z</time></trkpt><trkpt lat="41.95329482196003" lon="13.824016953904131"><ele>779.6666666666666</ele><time>2026-05-02T11:38:20Z</time></trkpt><trkpt lat="41.95340280013623" lon="13.82418437838284"><ele>778.3333333333333</ele><time>2026-05-02T11:38:21Z</time></trkpt><trkpt lat="41.95351301870265" lon="13.824350923104431"><ele>777.0</ele><time>2026-05-02T11:38:22Z</time></trkpt><trkpt lat="41.95361997573618" lon="13.824515253191734"><ele>777.0</ele><time>2026-05-02T11:38:23Z</time></trkpt><trkpt lat="41.95372903171842" lon="13.824684627977053"><ele>777.0</ele><time>2026-05-02T11:38:24Z</time></trkpt><trkpt lat="41.95384588727938" lon="13.824848560914692"><ele>777.0</ele><time>2026-05-02T11:38:25Z</time></trkpt><trkpt lat="41.95397786452028" lon="13.825011151876925"><ele>777.0</ele><time>2026-05-02T11:38:26Z</time></trkpt><trkpt lat="41.95410257763278" lon="13.825139160731455"><ele>777.0</ele><time>2026-05-02T11:38:27Z</time></trkpt><trkpt lat="41.95422196719903" lon="13.825245098749011"><ele>777.0</ele><time>2026-05-02T11:38:28Z</time></trkpt><trkpt lat="41.95433415973859" lon="13.825338227371487"><ele>777.0</ele><time>2026-05-02T11:38:29Z</time></trkpt><trkpt lat="41.95446831498206" lon="13.825437201364618"><ele>782.0</ele><time>2026-05-02T11:38:30Z</time></trkpt><trkpt lat="41.95461472270017" lon="13.825488213699138"><ele>787.0</ele><time>2026-05-02T11:38:31Z</time></trkpt><trkpt lat="41.9547679475951" lon="13.825465454183313"><ele>792.0</ele><time>2026-05-02T11:38:32Z</time></trkpt><trkpt lat="41.95491895428314" lon="13.82542384814755"><ele>793.0</ele><time>2026-05-02T11:38:33Z</time></trkpt><trkpt lat="41.955076857299424" lon="13.825380760169656"><ele>794.0</ele><time>2026-05-02T11:38:34Z</time></trkpt><trkpt lat="41.95523336936413" lon="13.825316012187278"><ele>795.0</ele><time>2026-05-02T11:38:35Z</time></trkpt><trkpt lat="41.955382431990245" lon="13.82525984097211"><ele>795.0</ele><time>2026-05-02T11:38:36Z</time></trkpt><trkpt lat="41.95552862193006" lon="13.82518479960137"><ele>795.0</ele><time>2026-05-02T11:38:37Z</time></trkpt><trkpt lat="41.95567180190135" lon="13.825155043837396"><ele>795.0</ele><time>2026-05-02T11:38:38Z</time></trkpt><trkpt lat="41.95580621731591" lon="13.82510644112661"><ele>795.0</ele><time>2026-05-02T11:38:39Z</time></trkpt><trkpt lat="41.95593578174721" lon="13.825059592466328"><ele>791.5</ele><time>2026-05-02T11:38:40Z</time></trkpt><trkpt lat="41.95607071900393" lon="13.825035291815777"><ele>788.0</ele><time>2026-05-02T11:38:41Z</time></trkpt><trkpt lat="41.95619524783696" lon="13.824986505269669"><ele>784.5</ele><time>2026-05-02T11:38:42Z</time></trkpt><trkpt lat="41.95631981117837" lon="13.82493793203565"><ele>781.0</ele><time>2026-05-02T11:38:43Z</time></trkpt><trkpt lat="41.95644667673194" lon="13.82488292271178"><ele>781.0</ele><time>2026-05-02T11:38:44Z</time></trkpt><trkpt lat="41.95657572774218" lon="13.824842134157416"><ele>781.0</ele><time>2026-05-02T11:38:45Z</time></trkpt><trkpt lat="41.95669924054475" lon="13.824778775471035"><ele>781.0</ele><time>2026-05-02T11:38:46Z</time></trkpt><trkpt lat="41.95681525770528" lon="13.824714934001149"><ele>781.0</ele><time>2026-05-02T11:38:47Z</time></trkpt><trkpt lat="41.9569501264448" lon="13.824710410136761"><ele>784.25</ele><time>2026-05-02T11:38:48Z</time></trkpt><trkpt lat="41.95707882272123" lon="13.824654911017547"><ele>787.5</ele><time>2026-05-02T11:38:49Z</time></trkpt><trkpt lat="41.95721333950723" lon="13.824579640681469"><ele>790.75</ele><time>2026-05-02T11:38:50Z</time></trkpt><trkpt lat="41.95737687070865" lon="13.824551593116688"><ele>794.0</ele><time>2026-05-02T11:38:51Z</time></trkpt><trkpt lat="41.95755153323787" lon="13.824471067169009"><ele>800.0</ele><time>2026-05-02T11:38:52Z</time></trkpt><trkpt lat="41.95773109728506" lon="13.824386508447649"><ele>806.0</ele><time>2026-05-02T11:38:53Z</time></trkpt><trkpt lat="41.957925857628325" lon="13.824309735937375"><ele>812.0</ele><time>2026-05-02T11:38:54Z</time></trkpt><trkpt lat="41.95812770513591" lon="13.824258886147925"><ele>801.6666666666667</ele><time>2026-05-02T11:38:55Z</time></trkpt><trkpt lat="41.95831809851692" lon="13.824194528240493"><ele>791.3333333333333</ele><time>2026-05-02T11:38:56Z</time></trkpt><trkpt lat="41.95849968039212" lon="13.824127793006765"><ele>781.0</ele><time>2026-05-02T11:38:57Z</time></trkpt><trkpt lat="41.958663830418345" lon="13.824054781624623"><ele>781.0</ele><time>2026-05-02T11:38:58Z</time></trkpt><trkpt lat="41.95883191155988" lon="13.82400153970585"><ele>781.0</ele><time>2026-05-02T11:38:59Z</time></trkpt><trkpt lat="41.95900252594504" lon="13.824003114442059"><ele>781.0</ele><time>2026-05-02T11:39:00Z</time></trkpt><trkpt lat="41.95917774614963" lon="13.824013237177684"><ele>779.3333333333333</ele><time>2026-05-02T11:39:01Z</time></trkpt><trkpt lat="41.95935259730046" lon="13.824033125337207"><ele>777.6666666666667</ele><time>2026-05-02T11:39:02Z</time></trkpt><trkpt lat="41.95952155472989" lon="13.82406291154482"><ele>776.0</ele><time>2026-05-02T11:39:03Z</time></trkpt><trkpt lat="41.95968864669013" lon="13.824090333280383"><ele>776.0</ele><time>2026-05-02T11:39:04Z</time></trkpt><trkpt lat="41.95985802849872" lon="13.824101112206073"><ele>776.0</ele><time>2026-05-02T11:39:05Z</time></trkpt><trkpt lat="41.960034083710546" lon="13.824073843425086"><ele>776.0</ele><time>2026-05-02T11:39:06Z</time></trkpt><trkpt lat="41.960207661013634" lon="13.824028977455372"><ele>778.3333333333334</ele><time>2026-05-02T11:39:07Z</time></trkpt><trkpt lat="41.960384872224644" lon="13.823982205777563"><ele>780.6666666666667</ele><time>2026-05-02T11:39:08Z</time></trkpt><trkpt lat="41.96056890456893" lon="13.823933633752944"><ele>783.0</ele><time>2026-05-02T11:39:09Z</time></trkpt><trkpt lat="41.960752308068784" lon="13.823884208153604"><ele>783.0</ele><time>2026-05-02T11:39:10Z</time></trkpt><trkpt lat="41.960933009995976" lon="13.82383738099971"><ele>783.0</ele><time>2026-05-02T11:39:11Z</time></trkpt><trkpt lat="41.96111056084841" lon="13.823791980208364"><ele>783.0</ele><time>2026-05-02T11:39:12Z</time></trkpt><trkpt lat="41.961276383976355" lon="13.823747758573719"><ele>783.0</ele><time>2026-05-02T11:39:13Z</time></trkpt><trkpt lat="41.961430981406465" lon="13.823705368606824"><ele>783.0</ele><time>2026-05-02T11:39:14Z</time></trkpt><trkpt lat="41.96158565130674" lon="13.823651439409593"><ele>783.0</ele><time>2026-05-02T11:39:15Z</time></trkpt><trkpt lat="41.96172935209923" lon="13.823530157459802"><ele>778.6666666666667</ele><time>2026-05-02T11:39:16Z</time></trkpt><trkpt lat="41.96186987553043" lon="13.823402009214725"><ele>774.3333333333334</ele><time>2026-05-02T11:39:17Z</time></trkpt><trkpt lat="41.96200488543925" lon="13.823277247638405"><ele>770.0</ele><time>2026-05-02T11:39:18Z</time></trkpt><trkpt lat="41.96213857110452" lon="13.823151611429843"><ele>770.0</ele><time>2026-05-02T11:39:19Z</time></trkpt><trkpt lat="41.96225112655429" lon="13.823046708562215"><ele>770.0</ele><time>2026-05-02T11:39:20Z</time></trkpt><trkpt lat="41.96235835354358" lon="13.822950156883593"><ele>770.0</ele><time>2026-05-02T11:39:21Z</time></trkpt><trkpt lat="41.96244259615991" lon="13.82289694327766"><ele>770.0</ele><time>2026-05-02T11:39:22Z</time></trkpt><trkpt lat="41.96253623077503" lon="13.822901434492117"><ele>774.75</ele><time>2026-05-02T11:39:23Z</time></trkpt><trkpt lat="41.96266101540831" lon="13.822939393906076"><ele>779.5</ele><time>2026-05-02T11:39:24Z</time></trkpt><trkpt lat="41.962799344493334" lon="13.82298729291075"><ele>784.25</ele><time>2026-05-02T11:39:25Z</time></trkpt><trkpt lat="41.96292595015655" lon="13.823023637792407"><ele>789.0</ele><time>2026-05-02T11:39:26Z</time></trkpt><trkpt lat="41.963053276497384" lon="13.823027969246029"><ele>789.0</ele><time>2026-05-02T11:39:27Z</time></trkpt><trkpt lat="41.96319322957983" lon="13.822927911472394"><ele>789.0</ele><time>2026-05-02T11:39:28Z</time></trkpt><trkpt lat="41.963339131511084" lon="13.822818891345394"><ele>789.0</ele><time>2026-05-02T11:39:29Z</time></trkpt><trkpt lat="41.96349598774504" lon="13.82270371741599"><ele>786.0</ele><time>2026-05-02T11:39:30Z</time></trkpt><trkpt lat="41.963660279613045" lon="13.82258540885456"><ele>783.0</ele><time>2026-05-02T11:39:31Z</time></trkpt><trkpt lat="41.96382435939762" lon="13.822465448334901"><ele>780.0</ele><time>2026-05-02T11:39:32Z</time></trkpt><trkpt lat="41.96396935213154" lon="13.822344782213136"><ele>780.0</ele><time>2026-05-02T11:39:33Z</time></trkpt><trkpt lat="41.96409025419378" lon="13.82220800081105"><ele>780.0</ele><time>2026-05-02T11:39:34Z</time></trkpt><trkpt lat="41.964181733812474" lon="13.822046481620838"><ele>780.0</ele><time>2026-05-02T11:39:35Z</time></trkpt><trkpt lat="41.96424624863325" lon="13.82184055961648"><ele>781.5</ele><time>2026-05-02T11:39:36Z</time></trkpt><trkpt lat="41.9642835982808" lon="13.821640356614346"><ele>783.0</ele><time>2026-05-02T11:39:37Z</time></trkpt><trkpt lat="41.9642950028159" lon="13.821497750806028"><ele>784.5</ele><time>2026-05-02T11:39:38Z</time></trkpt><trkpt lat="41.964345103333414" lon="13.821346636231853"><ele>786.0</ele><time>2026-05-02T11:39:39Z</time></trkpt><trkpt lat="41.96440242353798" lon="13.82123241048296"><ele>786.0</ele><time>2026-05-02T11:39:40Z</time></trkpt><trkpt lat="41.964456285502415" lon="13.821131242059469"><ele>786.0</ele><time>2026-05-02T11:39:41Z</time></trkpt><trkpt lat="41.96452307919913" lon="13.821073516611495"><ele>786.0</ele><time>2026-05-02T11:39:42Z</time></trkpt><trkpt lat="41.96458168987356" lon="13.82100212489829"><ele>786.0</ele><time>2026-05-02T11:39:45Z</time></trkpt><trkpt lat="41.96464932782236" lon="13.820955352435389"><ele>786.0</ele><time>2026-05-02T11:39:47Z</time></trkpt><trkpt lat="41.96475575067414" lon="13.820959960698344"><ele>786.0</ele><time>2026-05-02T11:39:49Z</time></trkpt><trkpt lat="41.96482492337508" lon="13.82098697459027"><ele>786.0</ele><time>2026-05-02T11:39:50.02Z</time></trkpt><trkpt lat="41.964904275153806" lon="13.82101600030762"><ele>786.0</ele><time>2026-05-02T11:39:51.019Z</time></trkpt><trkpt lat="41.96497797234845" lon="13.821060649122977"><ele>786.0</ele><time>2026-05-02T11:39:52.012Z</time></trkpt><trkpt lat="41.965054122332624" lon="13.821077403166258"><ele>786.0</ele><time>2026-05-02T11:39:53.013Z</time></trkpt><trkpt lat="41.965118667422665" lon="13.821081724320445"><ele>786.0</ele><time>2026-05-02T11:39:54.019Z</time></trkpt><trkpt lat="41.96520267340615" lon="13.821064693945107"><ele>786.0</ele><time>2026-05-02T11:39:55Z</time></trkpt><trkpt lat="41.96529154820414" lon="13.821024079181631"><ele>785.4</ele><time>2026-05-02T11:39:56Z</time></trkpt><trkpt lat="41.96538758249922" lon="13.820970435393756"><ele>784.8</ele><time>2026-05-02T11:39:57Z</time></trkpt><trkpt lat="41.96548270292298" lon="13.820887368931041"><ele>784.1999999999999</ele><time>2026-05-02T11:39:58Z</time></trkpt><trkpt lat="41.96554480926436" lon="13.820784119530968"><ele>783.5999999999999</ele><time>2026-05-02T11:39:59Z</time></trkpt><trkpt lat="41.96558481934345" lon="13.820686267892299"><ele>783.0</ele><time>2026-05-02T11:40:00Z</time></trkpt><trkpt lat="41.96562493513052" lon="13.820589940148283"><ele>783.0</ele><time>2026-05-02T11:40:01Z</time></trkpt><trkpt lat="41.96566644579192" lon="13.820494540871987"><ele>783.0</ele><time>2026-05-02T11:40:02Z</time></trkpt><trkpt lat="41.96571198201789" lon="13.820399380140852"><ele>783.0</ele><time>2026-05-02T11:40:03Z</time></trkpt><trkpt lat="41.96581122888546" lon="13.820270045492348"><ele>783.0</ele><time>2026-05-02T11:40:05Z</time></trkpt><trkpt lat="41.965870282536926" lon="13.820228476543985"><ele>783.0</ele><time>2026-05-02T11:40:06Z</time></trkpt><trkpt lat="41.965958620011484" lon="13.820181624441133"><ele>780.75</ele><time>2026-05-02T11:40:07Z</time></trkpt><trkpt lat="41.9660699347179" lon="13.8201212932231"><ele>778.5</ele><time>2026-05-02T11:40:08Z</time></trkpt><trkpt lat="41.96618663764836" lon="13.820006642969089"><ele>776.25</ele><time>2026-05-02T11:40:09Z</time></trkpt><trkpt lat="41.9662731759427" lon="13.819894375705136"><ele>774.0</ele><time>2026-05-02T11:40:10Z</time></trkpt><trkpt lat="41.966327476874966" lon="13.819796816657284"><ele>774.0</ele><time>2026-05-02T11:40:11Z</time></trkpt><trkpt lat="41.966402944481956" lon="13.819762838871325"><ele>774.0</ele><time>2026-05-02T11:40:12Z</time></trkpt><trkpt lat="41.966469111581496" lon="13.819675949577723"><ele>774.0</ele><time>2026-05-02T11:40:13Z</time></trkpt><trkpt lat="41.9665288665512" lon="13.819588894461576"><ele>774.0</ele><time>2026-05-02T11:40:14Z</time></trkpt><trkpt lat="41.966600464112716" lon="13.819487753052595"><ele>774.0</ele><time>2026-05-02T11:40:15Z</time></trkpt><trkpt lat="41.96669174992933" lon="13.819392143455344"><ele>775.6666666666666</ele><time>2026-05-02T11:40:16Z</time></trkpt><trkpt lat="41.966773842276716" lon="13.819321143138268"><ele>777.3333333333333</ele><time>2026-05-02T11:40:17Z</time></trkpt><trkpt lat="41.96683711608509" lon="13.819255621702515"><ele>779.0</ele><time>2026-05-02T11:40:18Z</time></trkpt><trkpt lat="41.96690892379172" lon="13.819201849985218"><ele>780.6666666666666</ele><time>2026-05-02T11:40:19Z</time></trkpt><trkpt lat="41.96699656089898" lon="13.819188853620464"><ele>782.3333333333333</ele><time>2026-05-02T11:40:20Z</time></trkpt><trkpt lat="41.9670629968036" lon="13.819137692031871"><ele>784.0</ele><time>2026-05-02T11:40:21Z</time></trkpt><trkpt lat="41.967122761619684" lon="13.819097210873784"><ele>783.9999999999999</ele><time>2026-05-02T11:40:22Z</time></trkpt><trkpt lat="41.967188408118545" lon="13.819045395131807"><ele>784.0</ele><time>2026-05-02T11:40:23Z</time></trkpt><trkpt lat="41.96726367380258" lon="13.819006689998629"><ele>784.0</ele><time>2026-05-02T11:40:24Z</time></trkpt><trkpt lat="41.96734659076004" lon="13.818951818485058"><ele>784.0</ele><time>2026-05-02T11:40:25Z</time></trkpt><trkpt lat="41.96740365108668" lon="13.818908080649713"><ele>783.9999999999999</ele><time>2026-05-02T11:40:26Z</time></trkpt><trkpt lat="41.96746895493333" lon="13.81877942592417"><ele>784.0</ele><time>2026-05-02T11:40:28Z</time></trkpt><trkpt lat="41.96748857333075" lon="13.81865719238848"><ele>783.9999999999999</ele><time>2026-05-02T11:40:29Z</time></trkpt><trkpt lat="41.96752289694136" lon="13.818530603742023"><ele>784.0</ele><time>2026-05-02T11:40:30Z</time></trkpt><trkpt lat="41.96755848969523" lon="13.818398418845277"><ele>784.0</ele><time>2026-05-02T11:40:31Z</time></trkpt><trkpt lat="41.96758849906531" lon="13.818297099453808"><ele>784.0</ele><time>2026-05-02T11:40:32Z</time></trkpt><trkpt lat="41.96763217943544" lon="13.818202242156186"><ele>783.9999999999999</ele><time>2026-05-02T11:40:33Z</time></trkpt><trkpt lat="41.9676598646885" lon="13.818106917820508"><ele>784.0</ele><time>2026-05-02T11:40:34Z</time></trkpt><trkpt lat="41.967695905715935" lon="13.818014707958925"><ele>789.0</ele><time>2026-05-02T11:40:35Z</time></trkpt><trkpt lat="41.96772427889022" lon="13.81789875206921"><ele>794.0</ele><time>2026-05-02T11:40:36Z</time></trkpt><trkpt lat="41.9677759926239" lon="13.817764741960199"><ele>799.0</ele><time>2026-05-02T11:40:37Z</time></trkpt><trkpt lat="41.967858550268815" lon="13.817627319511194"><ele>804.0</ele><time>2026-05-02T11:40:38Z</time></trkpt><trkpt lat="41.96795367112702" lon="13.817479695220028"><ele>793.25</ele><time>2026-05-02T11:40:39Z</time></trkpt><trkpt lat="41.968031571383904" lon="13.817325931464172"><ele>782.5</ele><time>2026-05-02T11:40:40Z</time></trkpt><trkpt lat="41.968118196537965" lon="13.817144823508187"><ele>771.75</ele><time>2026-05-02T11:40:41Z</time></trkpt><trkpt lat="41.9681999119626" lon="13.81697616734921"><ele>761.0</ele><time>2026-05-02T11:40:42Z</time></trkpt><trkpt lat="41.96824902613454" lon="13.816804952718533"><ele>758.25</ele><time>2026-05-02T11:40:43Z</time></trkpt><trkpt lat="41.96827937178237" lon="13.816623957827087"><ele>755.5</ele><time>2026-05-02T11:40:44Z</time></trkpt><trkpt lat="41.96833989597822" lon="13.816451876058148"><ele>752.75</ele><time>2026-05-02T11:40:45Z</time></trkpt><trkpt lat="41.96842933637528" lon="13.81629715436708"><ele>750.0</ele><time>2026-05-02T11:40:46Z</time></trkpt><trkpt lat="41.968580072493914" lon="13.816180922631585"><ele>750.0</ele><time>2026-05-02T11:40:47Z</time></trkpt><trkpt lat="41.968713243044036" lon="13.816055446825215"><ele>750.0</ele><time>2026-05-02T11:40:48Z</time></trkpt><trkpt lat="41.96885527624953" lon="13.815917321259427"><ele>750.0</ele><time>2026-05-02T11:40:49Z</time></trkpt><trkpt lat="41.96900506328602" lon="13.815773344782867"><ele>750.0</ele><time>2026-05-02T11:40:50Z</time></trkpt><trkpt lat="41.96915014580659" lon="13.815643017987705"><ele>750.0</ele><time>2026-05-02T11:40:51Z</time></trkpt><trkpt lat="41.969288760080715" lon="13.815511026141529"><ele>750.0</ele><time>2026-05-02T11:40:52Z</time></trkpt><trkpt lat="41.9694258031954" lon="13.815390111507357"><ele>751.0</ele><time>2026-05-02T11:40:53Z</time></trkpt><trkpt lat="41.969554980235166" lon="13.815293904879937"><ele>752.0</ele><time>2026-05-02T11:40:54Z</time></trkpt><trkpt lat="41.96967077973293" lon="13.815204340021168"><ele>753.0</ele><time>2026-05-02T11:40:55Z</time></trkpt><trkpt lat="41.96978263069214" lon="13.815130772060463"><ele>754.0</ele><time>2026-05-02T11:40:56Z</time></trkpt><trkpt lat="41.969939400386124" lon="13.815145091750782"><ele>754.75</ele><time>2026-05-02T11:40:57Z</time></trkpt><trkpt lat="41.97008828591932" lon="13.815140237111626"><ele>755.5</ele><time>2026-05-02T11:40:58Z</time></trkpt><trkpt lat="41.97021315010056" lon="13.8151092805096"><ele>756.25</ele><time>2026-05-02T11:40:59Z</time></trkpt><trkpt lat="41.97031395032584" lon="13.815074398860517"><ele>757.0</ele><time>2026-05-02T11:41:00Z</time></trkpt><trkpt lat="41.97038973048101" lon="13.814999747218893"><ele>757.0</ele><time>2026-05-02T11:41:01Z</time></trkpt><trkpt lat="41.97043640053193" lon="13.814874652781231"><ele>757.0</ele><time>2026-05-02T11:41:02Z</time></trkpt><trkpt lat="41.97045683416792" lon="13.814734878357"><ele>757.0</ele><time>2026-05-02T11:41:03Z</time></trkpt><trkpt lat="41.97047379607514" lon="13.814574899295392"><ele>757.0</ele><time>2026-05-02T11:41:04Z</time></trkpt><trkpt lat="41.970554623879465" lon="13.81445183787183"><ele>757.0</ele><time>2026-05-02T11:41:05Z</time></trkpt><trkpt lat="41.9706724351359" lon="13.814349111328937"><ele>757.0</ele><time>2026-05-02T11:41:06Z</time></trkpt><trkpt lat="41.97082655864063" lon="13.814284947471164"><ele>757.0</ele><time>2026-05-02T11:41:07Z</time></trkpt><trkpt lat="41.971005799085574" lon="13.814256452224814"><ele>747.6666666666667</ele><time>2026-05-02T11:41:08Z</time></trkpt><trkpt lat="41.97118251528986" lon="13.81416389748625"><ele>738.3333333333334</ele><time>2026-05-02T11:41:09Z</time></trkpt><trkpt lat="41.97134948094346" lon="13.814075996308754"><ele>729.0</ele><time>2026-05-02T11:41:10Z</time></trkpt><trkpt lat="41.97150657305435" lon="13.81399408438946"><ele>729.0</ele><time>2026-05-02T11:41:11Z</time></trkpt><trkpt lat="41.971651741890525" lon="13.813875629256758"><ele>729.0</ele><time>2026-05-02T11:41:12Z</time></trkpt><trkpt lat="41.97179742979537" lon="13.813738925812135"><ele>729.0</ele><time>2026-05-02T11:41:13Z</time></trkpt><trkpt lat="41.97196023467229" lon="13.813621029141943"><ele>727.75</ele><time>2026-05-02T11:41:14Z</time></trkpt><trkpt lat="41.972106150436716" lon="13.813495244176762"><ele>726.5</ele><time>2026-05-02T11:41:15Z</time></trkpt><trkpt lat="41.972211254845206" lon="13.813385885771236"><ele>725.25</ele><time>2026-05-02T11:41:16Z</time></trkpt><trkpt lat="41.97230999031434" lon="13.813300333907359"><ele>724.0</ele><time>2026-05-02T11:41:17Z</time></trkpt><trkpt lat="41.97244551785558" lon="13.813282281745881"><ele>719.6666666666667</ele><time>2026-05-02T11:41:18Z</time></trkpt><trkpt lat="41.97260242523843" lon="13.813275972897308"><ele>715.3333333333334</ele><time>2026-05-02T11:41:19Z</time></trkpt><trkpt lat="41.972775375423375" lon="13.813275696664148"><ele>711.0</ele><time>2026-05-02T11:41:20Z</time></trkpt><trkpt lat="41.972898069516184" lon="13.813237002322689"><ele>711.0</ele><time>2026-05-02T11:41:21Z</time></trkpt><trkpt lat="41.97299575782181" lon="13.813140589196182"><ele>711.0</ele><time>2026-05-02T11:41:22Z</time></trkpt><trkpt lat="41.97309026088593" lon="13.812989928280116"><ele>711.0</ele><time>2026-05-02T11:41:23Z</time></trkpt><trkpt lat="41.97321514562803" lon="13.812843468985761"><ele>711.0</ele><time>2026-05-02T11:41:24Z</time></trkpt><trkpt lat="41.973355898006616" lon="13.81272417388115"><ele>711.6666666666666</ele><time>2026-05-02T11:41:25Z</time></trkpt><trkpt lat="41.97351461677119" lon="13.812603992761247"><ele>712.3333333333333</ele><time>2026-05-02T11:41:26Z</time></trkpt><trkpt lat="41.973676031296925" lon="13.8124951487789"><ele>713.0</ele><time>2026-05-02T11:41:27Z</time></trkpt><trkpt lat="41.9738356315809" lon="13.812399721466374"><ele>713.0</ele><time>2026-05-02T11:41:28Z</time></trkpt><trkpt lat="41.97399932146915" lon="13.81230273223222"><ele>713.0</ele><time>2026-05-02T11:41:29Z</time></trkpt><trkpt lat="41.97417905580079" lon="13.81225786269766"><ele>713.0</ele><time>2026-05-02T11:41:30Z</time></trkpt><trkpt lat="41.974351541627875" lon="13.81222588525489"><ele>709.0</ele><time>2026-05-02T11:41:31Z</time></trkpt><trkpt lat="41.97453520792815" lon="13.812231825751525"><ele>705.0</ele><time>2026-05-02T11:41:32Z</time></trkpt><trkpt lat="41.97471481781626" lon="13.812280606433458"><ele>701.0</ele><time>2026-05-02T11:41:33Z</time></trkpt><trkpt lat="41.97488073750341" lon="13.812334452504722"><ele>699.1999999999999</ele><time>2026-05-02T11:41:34Z</time></trkpt><trkpt lat="41.97502720643035" lon="13.81236186787652"><ele>697.4</ele><time>2026-05-02T11:41:35Z</time></trkpt><trkpt lat="41.97513436649587" lon="13.812346518845583"><ele>695.6</ele><time>2026-05-02T11:41:36Z</time></trkpt><trkpt lat="41.97522627935575" lon="13.8123406871608"><ele>693.8</ele><time>2026-05-02T11:41:37Z</time></trkpt><trkpt lat="41.975310962262675" lon="13.81241554532461"><ele>692.0</ele><time>2026-05-02T11:41:38Z</time></trkpt><trkpt lat="41.97538975544566" lon="13.812582761832218"><ele>702.5</ele><time>2026-05-02T11:41:39Z</time></trkpt><trkpt lat="41.97547380811673" lon="13.81272360388382"><ele>713.0</ele><time>2026-05-02T11:41:40Z</time></trkpt><trkpt lat="41.97555873068708" lon="13.81282114178869"><ele>723.5</ele><time>2026-05-02T11:41:41Z</time></trkpt><trkpt lat="41.97567265414964" lon="13.812880458173582"><ele>734.0</ele><time>2026-05-02T11:41:42Z</time></trkpt><trkpt lat="41.97582466070826" lon="13.812879386217492"><ele>728.0</ele><time>2026-05-02T11:41:43Z</time></trkpt><trkpt lat="41.97599382189118" lon="13.812888651571022"><ele>722.0</ele><time>2026-05-02T11:41:44Z</time></trkpt><trkpt lat="41.97617857335716" lon="13.812898410188614"><ele>716.0</ele><time>2026-05-02T11:41:45Z</time></trkpt><trkpt lat="41.976364277377265" lon="13.812934205879838"><ele>716.0</ele><time>2026-05-02T11:41:46Z</time></trkpt><trkpt lat="41.97652250731638" lon="13.812933715909242"><ele>716.0</ele><time>2026-05-02T11:41:47Z</time></trkpt><trkpt lat="41.976671071107575" lon="13.8128931544932"><ele>716.0</ele><time>2026-05-02T11:41:48Z</time></trkpt><trkpt lat="41.9768072029841" lon="13.812800717126297"><ele>719.25</ele><time>2026-05-02T11:41:49Z</time></trkpt><trkpt lat="41.97692455970581" lon="13.812700296169881"><ele>722.5</ele><time>2026-05-02T11:41:50Z</time></trkpt><trkpt lat="41.9770675167726" lon="13.812695689973289"><ele>725.75</ele><time>2026-05-02T11:41:52Z</time></trkpt><trkpt lat="41.97718966170968" lon="13.8127373805461"><ele>729.0</ele><time>2026-05-02T11:41:53Z</time></trkpt><trkpt lat="41.97734190023592" lon="13.81271746826733"><ele>719.0</ele><time>2026-05-02T11:41:54Z</time></trkpt><trkpt lat="41.97749114773082" lon="13.812640398126213"><ele>709.0</ele><time>2026-05-02T11:41:55Z</time></trkpt><trkpt lat="41.97764687610854" lon="13.812550565925221"><ele>699.0</ele><time>2026-05-02T11:41:56Z</time></trkpt><trkpt lat="41.97779316641881" lon="13.81247497316574"><ele>699.0</ele><time>2026-05-02T11:41:57Z</time></trkpt><trkpt lat="41.97793900756563" lon="13.812437363183532"><ele>699.0</ele><time>2026-05-02T11:41:58Z</time></trkpt><trkpt lat="41.97809580810077" lon="13.812406547199545"><ele>699.0</ele><time>2026-05-02T11:41:59Z</time></trkpt><trkpt lat="41.97826901536208" lon="13.812367124943762"><ele>702.3333333333334</ele><time>2026-05-02T11:42:00Z</time></trkpt><trkpt lat="41.97843913461759" lon="13.812276106904218"><ele>705.6666666666667</ele><time>2026-05-02T11:42:01Z</time></trkpt><trkpt lat="41.97861700127681" lon="13.812226612103013"><ele>709.0</ele><time>2026-05-02T11:42:02Z</time></trkpt><trkpt lat="41.978799334535765" lon="13.81218058819799"><ele>709.0</ele><time>2026-05-02T11:42:03Z</time></trkpt><trkpt lat="41.978977810762245" lon="13.812090317439733"><ele>709.0</ele><time>2026-05-02T11:42:04Z</time></trkpt><trkpt lat="41.979154579541714" lon="13.811983447623097"><ele>709.0</ele><time>2026-05-02T11:42:05Z</time></trkpt><trkpt lat="41.97933213272683" lon="13.811888523463173"><ele>697.3333333333334</ele><time>2026-05-02T11:42:06Z</time></trkpt><trkpt lat="41.97950979319132" lon="13.811812187873551"><ele>685.6666666666666</ele><time>2026-05-02T11:42:07Z</time></trkpt><trkpt lat="41.97969046892136" lon="13.811764831048094"><ele>674.0</ele><time>2026-05-02T11:42:08Z</time></trkpt><trkpt lat="41.979877148816485" lon="13.811729422829119"><ele>677.0</ele><time>2026-05-02T11:42:09Z</time></trkpt><trkpt lat="41.980064905195704" lon="13.81169495683481"><ele>680.0</ele><time>2026-05-02T11:42:10Z</time></trkpt><trkpt lat="41.98024968734274" lon="13.811661487153968"><ele>683.0</ele><time>2026-05-02T11:42:11Z</time></trkpt><trkpt lat="41.98043102263407" lon="13.811631100125377"><ele>683.0</ele><time>2026-05-02T11:42:12Z</time></trkpt><trkpt lat="41.98061184632035" lon="13.811607746463133"><ele>683.0</ele><time>2026-05-02T11:42:13Z</time></trkpt><trkpt lat="41.98077327685996" lon="13.811602344392682"><ele>683.0</ele><time>2026-05-02T11:42:14Z</time></trkpt><trkpt lat="41.98095990006801" lon="13.811616525347521"><ele>681.6666666666666</ele><time>2026-05-02T11:42:15Z</time></trkpt><trkpt lat="41.98112269581757" lon="13.811636789167588"><ele>680.3333333333334</ele><time>2026-05-02T11:42:16Z</time></trkpt><trkpt lat="41.981270031489906" lon="13.811640282717947"><ele>679.0</ele><time>2026-05-02T11:42:17Z</time></trkpt><trkpt lat="41.98142030572528" lon="13.811565378569197"><ele>679.0</ele><time>2026-05-02T11:42:18Z</time></trkpt><trkpt lat="41.9815475860835" lon="13.811422032482653"><ele>679.0</ele><time>2026-05-02T11:42:19Z</time></trkpt><trkpt lat="41.981634434998234" lon="13.81119703936747"><ele>679.0</ele><time>2026-05-02T11:42:20Z</time></trkpt><trkpt lat="41.981716525765066" lon="13.811021073593215"><ele>683.0</ele><time>2026-05-02T11:42:21Z</time></trkpt><trkpt lat="41.98182076238391" lon="13.810854235585861"><ele>687.0</ele><time>2026-05-02T11:42:22Z</time></trkpt><trkpt lat="41.9819596234988" lon="13.81067762618517"><ele>691.0</ele><time>2026-05-02T11:42:23Z</time></trkpt><trkpt lat="41.9821069129472" lon="13.810492234586853"><ele>691.0</ele><time>2026-05-02T11:42:24Z</time></trkpt><trkpt lat="41.982258646868246" lon="13.810299793052732"><ele>691.0</ele><time>2026-05-02T11:42:25Z</time></trkpt><trkpt lat="41.98239914991224" lon="13.810118626588238"><ele>691.0</ele><time>2026-05-02T11:42:26Z</time></trkpt><trkpt lat="41.98254094659393" lon="13.809949758557057"><ele>691.0</ele><time>2026-05-02T11:42:27Z</time></trkpt><trkpt lat="41.98270177999444" lon="13.809797375470751"><ele>691.0</ele><time>2026-05-02T11:42:28Z</time></trkpt><trkpt lat="41.982866491303604" lon="13.809664907586942"><ele>691.0</ele><time>2026-05-02T11:42:29Z</time></trkpt><trkpt lat="41.983034228282" lon="13.80952858373576"><ele>691.0</ele><time>2026-05-02T11:42:30Z</time></trkpt><trkpt lat="41.98319186465458" lon="13.809387185358197"><ele>691.0</ele><time>2026-05-02T11:42:31Z</time></trkpt><trkpt lat="41.98333882736824" lon="13.809210872435925"><ele>691.0</ele><time>2026-05-02T11:42:32Z</time></trkpt><trkpt lat="41.98346193823124" lon="13.809015282785158"><ele>691.6666666666667</ele><time>2026-05-02T11:42:33Z</time></trkpt><trkpt lat="41.98357571353897" lon="13.808809347351737"><ele>692.3333333333334</ele><time>2026-05-02T11:42:34Z</time></trkpt><trkpt lat="41.98368617957789" lon="13.808606983868637"><ele>693.0</ele><time>2026-05-02T11:42:35Z</time></trkpt><trkpt lat="41.98380031232276" lon="13.80839413128174"><ele>684.6666666666666</ele><time>2026-05-02T11:42:36Z</time></trkpt><trkpt lat="41.983919168739725" lon="13.808180681310784"><ele>676.3333333333333</ele><time>2026-05-02T11:42:37Z</time></trkpt><trkpt lat="41.98404056852881" lon="13.807966284310416"><ele>668.0</ele><time>2026-05-02T11:42:38Z</time></trkpt><trkpt lat="41.984161296423636" lon="13.807755539303354"><ele>672.0</ele><time>2026-05-02T11:42:39Z</time></trkpt><trkpt lat="41.98427671644538" lon="13.807552952648319"><ele>676.0</ele><time>2026-05-02T11:42:40Z</time></trkpt><trkpt lat="41.98438147461242" lon="13.807349391307532"><ele>680.0</ele><time>2026-05-02T11:42:41Z</time></trkpt><trkpt lat="41.98446802226137" lon="13.80714118549329"><ele>680.0</ele><time>2026-05-02T11:42:42Z</time></trkpt><trkpt lat="41.98452581822227" lon="13.80691835119414"><ele>680.0</ele><time>2026-05-02T11:42:43Z</time></trkpt><trkpt lat="41.984552644480864" lon="13.806675419882627"><ele>680.0</ele><time>2026-05-02T11:42:44Z</time></trkpt><trkpt lat="41.98456278997073" lon="13.806439998369331"><ele>676.6666666666666</ele><time>2026-05-02T11:42:45Z</time></trkpt><trkpt lat="41.9845497233329" lon="13.806192182371657"><ele>673.3333333333334</ele><time>2026-05-02T11:42:46Z</time></trkpt><trkpt lat="41.98456152378883" lon="13.80592759549019"><ele>670.0</ele><time>2026-05-02T11:42:47Z</time></trkpt><trkpt lat="41.98454019315391" lon="13.805691778605189"><ele>669.25</ele><time>2026-05-02T11:42:48Z</time></trkpt><trkpt lat="41.98451478577633" lon="13.805499594103631"><ele>668.5</ele><time>2026-05-02T11:42:49Z</time></trkpt><trkpt lat="41.984479857118735" lon="13.80534109703436"><ele>667.75</ele><time>2026-05-02T11:42:50Z</time></trkpt><trkpt lat="41.984417567368176" lon="13.805210070259127"><ele>667.0</ele><time>2026-05-02T11:42:51Z</time></trkpt><trkpt lat="41.98432601599438" lon="13.80511843705873"><ele>666.4000000000001</ele><time>2026-05-02T11:42:52Z</time></trkpt><trkpt lat="41.984264616697956" lon="13.805065229583347"><ele>665.8000000000001</ele><time>2026-05-02T11:42:53Z</time></trkpt><trkpt lat="41.984243163553806" lon="13.804949823582168"><ele>665.2</ele><time>2026-05-02T11:42:54Z</time></trkpt><trkpt lat="41.98427630859957" lon="13.804818203177836"><ele>664.6</ele><time>2026-05-02T11:42:55Z</time></trkpt><trkpt lat="41.984346784599346" lon="13.804688707053153"><ele>664.0</ele><time>2026-05-02T11:42:56Z</time></trkpt><trkpt lat="41.98439517332169" lon="13.804509723288984"><ele>661.6666666666667</ele><time>2026-05-02T11:42:57Z</time></trkpt><trkpt lat="41.984400697362815" lon="13.8043074428547"><ele>659.3333333333334</ele><time>2026-05-02T11:42:58Z</time></trkpt><trkpt lat="41.984386467135586" lon="13.804096576375112"><ele>657.0</ele><time>2026-05-02T11:42:59Z</time></trkpt><trkpt lat="41.98436261595058" lon="13.803898372246264"><ele>657.0</ele><time>2026-05-02T11:43:00Z</time></trkpt><trkpt lat="41.98435832482366" lon="13.803734923970842"><ele>657.0</ele><time>2026-05-02T11:43:01Z</time></trkpt><trkpt lat="41.98440593879194" lon="13.803554353401328"><ele>657.0</ele><time>2026-05-02T11:43:02Z</time></trkpt><trkpt lat="41.98445425095756" lon="13.803353092365992"><ele>657.0</ele><time>2026-05-02T11:43:03Z</time></trkpt><trkpt lat="41.98451357031374" lon="13.803162994278408"><ele>651.0</ele><time>2026-05-02T11:43:04Z</time></trkpt><trkpt lat="41.98454862852558" lon="13.802942467651189"><ele>645.0</ele><time>2026-05-02T11:43:05Z</time></trkpt><trkpt lat="41.984597698114285" lon="13.802719662968494"><ele>639.0</ele><time>2026-05-02T11:43:06Z</time></trkpt><trkpt lat="41.98461196706075" lon="13.802485222662995"><ele>638.0</ele><time>2026-05-02T11:43:07Z</time></trkpt><trkpt lat="41.9846202679572" lon="13.802279265743355"><ele>637.0</ele><time>2026-05-02T11:43:08Z</time></trkpt><trkpt lat="41.98465203784239" lon="13.802119068953683"><ele>636.0</ele><time>2026-05-02T11:43:09Z</time></trkpt><trkpt lat="41.98467745017214" lon="13.802004127508953"><ele>635.0</ele><time>2026-05-02T11:43:10Z</time></trkpt><trkpt lat="41.984744314219846" lon="13.801914684142746"><ele>640.0</ele><time>2026-05-02T11:43:11Z</time></trkpt><trkpt lat="41.98485119946342" lon="13.801812644757323"><ele>645.0</ele><time>2026-05-02T11:43:12Z</time></trkpt><trkpt lat="41.98494687852091" lon="13.801675218075564"><ele>650.0</ele><time>2026-05-02T11:43:13Z</time></trkpt><trkpt lat="41.98501712178238" lon="13.801477397404396"><ele>655.0</ele><time>2026-05-02T11:43:14Z</time></trkpt><trkpt lat="41.98509813293372" lon="13.801325802176901"><ele>651.4</ele><time>2026-05-02T11:43:15Z</time></trkpt><trkpt lat="41.98518490704597" lon="13.80120995256366"><ele>647.8</ele><time>2026-05-02T11:43:16Z</time></trkpt><trkpt lat="41.98526070165342" lon="13.801115735841343"><ele>644.2</ele><time>2026-05-02T11:43:17Z</time></trkpt><trkpt lat="41.98535042388755" lon="13.801037485186948"><ele>640.6</ele><time>2026-05-02T11:43:18Z</time></trkpt><trkpt lat="41.985440487763725" lon="13.8009636353256"><ele>637.0</ele><time>2026-05-02T11:43:19Z</time></trkpt><trkpt lat="41.9855268364222" lon="13.800918638289561"><ele>637.0</ele><time>2026-05-02T11:43:20Z</time></trkpt><trkpt lat="41.985607753956096" lon="13.800884686975815"><ele>637.0</ele><time>2026-05-02T11:43:21Z</time></trkpt><trkpt lat="41.98570202332269" lon="13.800885849140082"><ele>637.0</ele><time>2026-05-02T11:43:22Z</time></trkpt><trkpt lat="41.985797462999" lon="13.800884236790539"><ele>637.0</ele><time>2026-05-02T11:43:23Z</time></trkpt><trkpt lat="41.98589623023304" lon="13.800839747945405"><ele>637.0</ele><time>2026-05-02T11:43:24Z</time></trkpt><trkpt lat="41.98599025791234" lon="13.80077849641222"><ele>630.5</ele><time>2026-05-02T11:43:25Z</time></trkpt><trkpt lat="41.98608711748731" lon="13.800713160827796"><ele>624.0</ele><time>2026-05-02T11:43:26Z</time></trkpt><trkpt lat="41.986173559439564" lon="13.80066682417821"><ele>617.5</ele><time>2026-05-02T11:43:27Z</time></trkpt><trkpt lat="41.98624253421868" lon="13.800614687702192"><ele>611.0</ele><time>2026-05-02T11:43:28Z</time></trkpt><trkpt lat="41.986299570670326" lon="13.800552199606328"><ele>604.5</ele><time>2026-05-02T11:43:29Z</time></trkpt><trkpt lat="41.9863521722871" lon="13.800472853170525"><ele>598.0</ele><time>2026-05-02T11:43:30Z</time></trkpt><trkpt lat="41.98636185403932" lon="13.800330265704336"><ele>598.0</ele><time>2026-05-02T11:43:31Z</time></trkpt><trkpt lat="41.98634331084758" lon="13.800215693197485"><ele>598.0</ele><time>2026-05-02T11:43:32Z</time></trkpt><trkpt lat="41.98633003392075" lon="13.800111670834283"><ele>598.0</ele><time>2026-05-02T11:43:33Z</time></trkpt><trkpt lat="41.986324954038906" lon="13.800020586952591"><ele>598.0</ele><time>2026-05-02T11:43:34Z</time></trkpt><trkpt lat="41.98631788854561" lon="13.79992620289085"><ele>598.0</ele><time>2026-05-02T11:43:35Z</time></trkpt><trkpt lat="41.98635175825328" lon="13.799844802563063"><ele>598.0</ele><time>2026-05-02T11:43:36Z</time></trkpt><trkpt lat="41.98641336553538" lon="13.799786828689513"><ele>598.0</ele><time>2026-05-02T11:43:37Z</time></trkpt><trkpt lat="41.986492671006545" lon="13.799749159638875"><ele>600.8333333333334</ele><time>2026-05-02T11:43:38Z</time></trkpt><trkpt lat="41.98657474533888" lon="13.79971798902704"><ele>603.6666666666667</ele><time>2026-05-02T11:43:39Z</time></trkpt><trkpt lat="41.98667074076858" lon="13.799698502248527"><ele>606.5</ele><time>2026-05-02T11:43:40Z</time></trkpt><trkpt lat="41.986763262257234" lon="13.799696964474938"><ele>609.3333333333334</ele><time>2026-05-02T11:43:41Z</time></trkpt><trkpt lat="41.98684733923602" lon="13.799704354718111"><ele>612.1666666666666</ele><time>2026-05-02T11:43:42Z</time></trkpt><trkpt lat="41.9869331231865" lon="13.799723148402101"><ele>615.0</ele><time>2026-05-02T11:43:43Z</time></trkpt><trkpt lat="41.987001537035205" lon="13.799729198074"><ele>615.0</ele><time>2026-05-02T11:43:44Z</time></trkpt><trkpt lat="41.98707745091741" lon="13.799732845601543"><ele>615.0</ele><time>2026-05-02T11:43:45Z</time></trkpt><trkpt lat="41.98715168871311" lon="13.799661336370107"><ele>615.0</ele><time>2026-05-02T11:43:46Z</time></trkpt><trkpt lat="41.98722783746929" lon="13.799594041486355"><ele>615.0</ele><time>2026-05-02T11:43:47Z</time></trkpt><trkpt lat="41.98730679567517" lon="13.799530668684099"><ele>615.0</ele><time>2026-05-02T11:43:48Z</time></trkpt><trkpt lat="41.987385436044235" lon="13.79947815615546"><ele>615.0</ele><time>2026-05-02T11:43:49Z</time></trkpt><trkpt lat="41.9874635273543" lon="13.79945288333406"><ele>614.2</ele><time>2026-05-02T11:43:50Z</time></trkpt><trkpt lat="41.98754191577174" lon="13.799496234781937"><ele>613.4</ele><time>2026-05-02T11:43:51Z</time></trkpt><trkpt lat="41.987612581472185" lon="13.79954014641732"><ele>612.6</ele><time>2026-05-02T11:43:52Z</time></trkpt><trkpt lat="41.987695920440956" lon="13.799582121676373"><ele>611.8</ele><time>2026-05-02T11:43:53Z</time></trkpt><trkpt lat="41.98780188997244" lon="13.799601930389002"><ele>611.0</ele><time>2026-05-02T11:43:54Z</time></trkpt><trkpt lat="41.987951353032265" lon="13.799559883056261"><ele>611.0</ele><time>2026-05-02T11:43:55Z</time></trkpt><trkpt lat="41.98810863039388" lon="13.79950416490941"><ele>611.0</ele><time>2026-05-02T11:43:56Z</time></trkpt><trkpt lat="41.988295227184054" lon="13.799431758145515"><ele>611.0</ele><time>2026-05-02T11:43:57Z</time></trkpt><trkpt lat="41.9884481005695" lon="13.799383927683893"><ele>611.0</ele><time>2026-05-02T11:43:58Z</time></trkpt><trkpt lat="41.98859257928063" lon="13.799370120568865"><ele>611.0</ele><time>2026-05-02T11:43:59Z</time></trkpt><trkpt lat="41.98872489265713" lon="13.799392396680654"><ele>611.0</ele><time>2026-05-02T11:44:00Z</time></trkpt><trkpt lat="41.988845335820244" lon="13.799431370750256"><ele>611.0</ele><time>2026-05-02T11:44:01Z</time></trkpt><trkpt lat="41.98896158789812" lon="13.799435627559667"><ele>614.75</ele><time>2026-05-02T11:44:02Z</time></trkpt><trkpt lat="41.9891198396606" lon="13.79937481290988"><ele>618.5</ele><time>2026-05-02T11:44:03Z</time></trkpt><trkpt lat="41.98926080647583" lon="13.799293009351409"><ele>622.25</ele><time>2026-05-02T11:44:04Z</time></trkpt><trkpt lat="41.98936185938717" lon="13.799229553174634"><ele>626.0</ele><time>2026-05-02T11:44:05Z</time></trkpt><trkpt lat="41.989454955253336" lon="13.799191120894136"><ele>626.0</ele><time>2026-05-02T11:44:06Z</time></trkpt><trkpt lat="41.98955194362226" lon="13.79918442199969"><ele>626.0</ele><time>2026-05-02T11:44:07Z</time></trkpt><trkpt lat="41.989664396158645" lon="13.799200342099567"><ele>626.0</ele><time>2026-05-02T11:44:08Z</time></trkpt><trkpt lat="41.98977227048011" lon="13.799227710047438"><ele>626.0</ele><time>2026-05-02T11:44:09Z</time></trkpt><trkpt lat="41.9898967266525" lon="13.799210407682692"><ele>626.0</ele><time>2026-05-02T11:44:10Z</time></trkpt><trkpt lat="41.99002507546389" lon="13.799086780114209"><ele>629.0</ele><time>2026-05-02T11:44:11Z</time></trkpt><trkpt lat="41.99011459799" lon="13.79898083621549"><ele>632.0</ele><time>2026-05-02T11:44:12Z</time></trkpt><trkpt lat="41.99022553397553" lon="13.798904380398113"><ele>635.0</ele><time>2026-05-02T11:44:13Z</time></trkpt><trkpt lat="41.99031055105506" lon="13.798823148363839"><ele>638.0</ele><time>2026-05-02T11:44:14Z</time></trkpt><trkpt lat="41.99039274494777" lon="13.798687976068292"><ele>638.0</ele><time>2026-05-02T11:44:15Z</time></trkpt><trkpt lat="41.99045949296557" lon="13.798565525692643"><ele>638.0</ele><time>2026-05-02T11:44:16Z</time></trkpt><trkpt lat="41.990513044741064" lon="13.798469703416064"><ele>638.0</ele><time>2026-05-02T11:44:17Z</time></trkpt><trkpt lat="41.990559219170834" lon="13.798399347233309"><ele>638.0</ele><time>2026-05-02T11:44:18Z</time></trkpt><trkpt lat="41.990637809141" lon="13.798390030535199"><ele>638.0</ele><time>2026-05-02T11:44:20Z</time></trkpt><trkpt lat="41.990717210596536" lon="13.798429317333666"><ele>638.0</ele><time>2026-05-02T11:44:21Z</time></trkpt><trkpt lat="41.99080971316727" lon="13.798486751734409"><ele>643.0</ele><time>2026-05-02T11:44:22Z</time></trkpt><trkpt lat="41.99089860093793" lon="13.798581653633805"><ele>648.0</ele><time>2026-05-02T11:44:23Z</time></trkpt><trkpt lat="41.99099606956042" lon="13.798707923472826"><ele>653.0</ele><time>2026-05-02T11:44:24Z</time></trkpt><trkpt lat="41.99110877751531" lon="13.79883037688003"><ele>658.0</ele><time>2026-05-02T11:44:25.02Z</time></trkpt><trkpt lat="41.99118836069738" lon="13.79899934218902"><ele>658.0</ele><time>2026-05-02T11:44:26.021Z</time></trkpt><trkpt lat="41.99128780997865" lon="13.799153807811487"><ele>658.0</ele><time>2026-05-02T11:44:27.016Z</time></trkpt><trkpt lat="41.99137626140418" lon="13.799288545687054"><ele>658.0</ele><time>2026-05-02T11:44:28.016Z</time></trkpt><trkpt lat="41.99145514878051" lon="13.799416001074247"><ele>658.0</ele><time>2026-05-02T11:44:29.021Z</time></trkpt><trkpt lat="41.99152015402535" lon="13.799528108438567"><ele>644.25</ele><time>2026-05-02T11:44:30Z</time></trkpt><trkpt lat="41.9916839805319" lon="13.799651176070155"><ele>630.5</ele><time>2026-05-02T11:44:31Z</time></trkpt><trkpt lat="41.9917420146532" lon="13.799803233722256"><ele>616.75</ele><time>2026-05-02T11:44:32Z</time></trkpt><trkpt lat="41.99177715091294" lon="13.79987594861666"><ele>603.0</ele><time>2026-05-02T11:44:33Z</time></trkpt><trkpt lat="41.99182759321474" lon="13.799949613743705"><ele>603.0</ele><time>2026-05-02T11:44:34Z</time></trkpt><trkpt lat="41.991922244454784" lon="13.799958335801778"><ele>603.0</ele><time>2026-05-02T11:44:35Z</time></trkpt><trkpt lat="41.9920197964459" lon="13.799934271831395"><ele>603.0</ele><time>2026-05-02T11:44:36Z</time></trkpt><trkpt lat="41.992102205795376" lon="13.79981616929367"><ele>603.0</ele><time>2026-05-02T11:44:37Z</time></trkpt><trkpt lat="41.992174310594216" lon="13.799700826068081"><ele>603.0</ele><time>2026-05-02T11:44:38Z</time></trkpt><trkpt lat="41.992285839822884" lon="13.799656208092596"><ele>603.0</ele><time>2026-05-02T11:44:39Z</time></trkpt><trkpt lat="41.992377754014335" lon="13.799593366643949"><ele>603.0</ele><time>2026-05-02T11:44:40Z</time></trkpt><trkpt lat="41.992435384662926" lon="13.79951422025571"><ele>603.0</ele><time>2026-05-02T11:44:41Z</time></trkpt><trkpt lat="41.99250749348719" lon="13.799446950813982"><ele>603.0</ele><time>2026-05-02T11:44:42Z</time></trkpt><trkpt lat="41.99255711424271" lon="13.799394002505599"><ele>603.0</ele><time>2026-05-02T11:44:43Z</time></trkpt><trkpt lat="41.99261990590493" lon="13.799372327953197"><ele>603.0</ele><time>2026-05-02T11:44:44Z</time></trkpt><trkpt lat="41.99270298244147" lon="13.799465770740744"><ele>604.8</ele><time>2026-05-02T11:44:45Z</time></trkpt><trkpt lat="41.99281232097679" lon="13.799518071447201"><ele>606.5999999999999</ele><time>2026-05-02T11:44:46Z</time></trkpt><trkpt lat="41.99294008050184" lon="13.799470692849482"><ele>608.4000000000001</ele><time>2026-05-02T11:44:47Z</time></trkpt><trkpt lat="41.99302958818533" lon="13.799517818750138"><ele>610.2</ele><time>2026-05-02T11:44:48Z</time></trkpt><trkpt lat="41.99309833782029" lon="13.799587415973637"><ele>612.0</ele><time>2026-05-02T11:44:49Z</time></trkpt><trkpt lat="41.99314153632793" lon="13.799688283391548"><ele>612.0</ele><time>2026-05-02T11:44:50Z</time></trkpt><trkpt lat="41.993217320072496" lon="13.799790870297603"><ele>612.0</ele><time>2026-05-02T11:44:51Z</time></trkpt><trkpt lat="41.993302602777135" lon="13.79987065005085"><ele>612.0</ele><time>2026-05-02T11:44:52Z</time></trkpt><trkpt lat="41.993406908279304" lon="13.799909276475425"><ele>612.0</ele><time>2026-05-02T11:44:53Z</time></trkpt><trkpt lat="41.993526707450215" lon="13.799921595924424"><ele>612.0</ele><time>2026-05-02T11:44:54Z</time></trkpt><trkpt lat="41.993640349375994" lon="13.79993764998771"><ele>611.8000000000001</ele><time>2026-05-02T11:44:55Z</time></trkpt><trkpt lat="41.99372055634711" lon="13.799970599712104"><ele>611.6</ele><time>2026-05-02T11:44:56Z</time></trkpt><trkpt lat="41.99377879055272" lon="13.80003078965225"><ele>611.4000000000001</ele><time>2026-05-02T11:44:57Z</time></trkpt><trkpt lat="41.99383597494862" lon="13.800151651244656"><ele>611.2</ele><time>2026-05-02T11:44:58Z</time></trkpt><trkpt lat="41.99389514102178" lon="13.800315953338412"><ele>611.0</ele><time>2026-05-02T11:44:59Z</time></trkpt><trkpt lat="41.99394978528346" lon="13.80049526518424"><ele>611.0</ele><time>2026-05-02T11:45:00Z</time></trkpt><trkpt lat="41.99399810833369" lon="13.800678589633165"><ele>611.0</ele><time>2026-05-02T11:45:01Z</time></trkpt><trkpt lat="41.99403915170654" lon="13.800852751367"><ele>611.0</ele><time>2026-05-02T11:45:02Z</time></trkpt><trkpt lat="41.99407070030886" lon="13.801019762540552"><ele>611.0</ele><time>2026-05-02T11:45:03Z</time></trkpt><trkpt lat="41.99409767939744" lon="13.801177838571634"><ele>609.0</ele><time>2026-05-02T11:45:04Z</time></trkpt><trkpt lat="41.99411783969164" lon="13.801334063927378"><ele>607.0</ele><time>2026-05-02T11:45:05Z</time></trkpt><trkpt lat="41.99411871188715" lon="13.801483628137788"><ele>605.0</ele><time>2026-05-02T11:45:06Z</time></trkpt><trkpt lat="41.994071578468464" lon="13.801624937515859"><ele>603.0</ele><time>2026-05-02T11:45:07Z</time></trkpt><trkpt lat="41.994025191849396" lon="13.801777756941016"><ele>604.0</ele><time>2026-05-02T11:45:08Z</time></trkpt><trkpt lat="41.99395840208616" lon="13.801914975575666"><ele>605.0</ele><time>2026-05-02T11:45:09Z</time></trkpt><trkpt lat="41.993875576189104" lon="13.80202573309514"><ele>606.0</ele><time>2026-05-02T11:45:10Z</time></trkpt><trkpt lat="41.99379698656238" lon="13.80211836208677"><ele>607.0</ele><time>2026-05-02T11:45:11Z</time></trkpt><trkpt lat="41.993717985084245" lon="13.802208797587882"><ele>608.0</ele><time>2026-05-02T11:45:12Z</time></trkpt><trkpt lat="41.9936508158598" lon="13.802308574763579"><ele>608.0</ele><time>2026-05-02T11:45:13Z</time></trkpt><trkpt lat="41.993592598466826" lon="13.802429473764628"><ele>608.0</ele><time>2026-05-02T11:45:14Z</time></trkpt><trkpt lat="41.99354350484251" lon="13.802570544437911"><ele>608.0</ele><time>2026-05-02T11:45:15Z</time></trkpt><trkpt lat="41.99349371670128" lon="13.802713376071102"><ele>608.0</ele><time>2026-05-02T11:45:16Z</time></trkpt><trkpt lat="41.993439291445135" lon="13.802850802011198"><ele>606.3333333333333</ele><time>2026-05-02T11:45:17Z</time></trkpt><trkpt lat="41.99337295373259" lon="13.802949509397775"><ele>604.6666666666666</ele><time>2026-05-02T11:45:18Z</time></trkpt><trkpt lat="41.99333270131093" lon="13.803064887978254"><ele>603.0</ele><time>2026-05-02T11:45:19Z</time></trkpt><trkpt lat="41.99330101152949" lon="13.803161074887681"><ele>601.3333333333334</ele><time>2026-05-02T11:45:20Z</time></trkpt><trkpt lat="41.99326177138704" lon="13.803255532563238"><ele>599.6666666666667</ele><time>2026-05-02T11:45:21Z</time></trkpt><trkpt lat="41.9932504372884" lon="13.803343816011962"><ele>598.0</ele><time>2026-05-02T11:45:22Z</time></trkpt><trkpt lat="41.99325080568021" lon="13.803445400343941"><ele>594.8333333333334</ele><time>2026-05-02T11:45:23Z</time></trkpt><trkpt lat="41.99323960725919" lon="13.803540521516494"><ele>591.6666666666667</ele><time>2026-05-02T11:45:24Z</time></trkpt><trkpt lat="41.99328134615815" lon="13.803676433782165"><ele>588.5</ele><time>2026-05-02T11:45:26Z</time></trkpt><trkpt lat="41.99335217587908" lon="13.803684044435986"><ele>585.3333333333334</ele><time>2026-05-02T11:45:27Z</time></trkpt><trkpt lat="41.99341965717311" lon="13.80371893439925"><ele>582.1666666666666</ele><time>2026-05-02T11:45:28Z</time></trkpt><trkpt lat="41.993497703687915" lon="13.80373220083712"><ele>579.0</ele><time>2026-05-02T11:45:29Z</time></trkpt><trkpt lat="41.99357736991852" lon="13.803778333577291"><ele>578.8333333333334</ele><time>2026-05-02T11:45:30Z</time></trkpt><trkpt lat="41.99366933664185" lon="13.803823326194735"><ele>578.6666666666666</ele><time>2026-05-02T11:45:31Z</time></trkpt><trkpt lat="41.993731834436154" lon="13.803883258494404"><ele>578.5</ele><time>2026-05-02T11:45:32Z</time></trkpt><trkpt lat="41.99379683564931" lon="13.803903047967303"><ele>578.3333333333333</ele><time>2026-05-02T11:45:33Z</time></trkpt><trkpt lat="41.99384841691757" lon="13.80395253186983"><ele>578.1666666666666</ele><time>2026-05-02T11:45:34Z</time></trkpt><trkpt lat="41.99392498497466" lon="13.803910073021521"><ele>578.0</ele><time>2026-05-02T11:45:35Z</time></trkpt><trkpt lat="41.993867509833805" lon="13.803866799029125"><ele>578.0</ele><time>2026-05-02T11:45:36Z</time></trkpt><trkpt lat="41.993937211710374" lon="13.803780257140275"><ele>578.0</ele><time>2026-05-02T11:45:38Z</time></trkpt><trkpt lat="41.99400930267009" lon="13.803757613027626"><ele>578.0</ele><time>2026-05-02T11:45:40Z</time></trkpt><trkpt lat="41.99407708380006" lon="13.80375591508882"><ele>578.0</ele><time>2026-05-02T11:45:42Z</time></trkpt><trkpt lat="41.99416406657575" lon="13.803663893310427"><ele>578.0</ele><time>2026-05-02T11:45:44Z</time></trkpt><trkpt lat="41.99421903051641" lon="13.80361020276969"><ele>578.0</ele><time>2026-05-02T11:45:46Z</time></trkpt><trkpt lat="41.9943189102818" lon="13.803580894315893"><ele>578.0</ele><time>2026-05-02T11:45:49Z</time></trkpt><trkpt lat="41.994406093535076" lon="13.803565731546096"><ele>578.0</ele><time>2026-05-02T11:45:51Z</time></trkpt><trkpt lat="41.994481476435965" lon="13.803567173055963"><ele>578.0</ele><time>2026-05-02T11:45:53Z</time></trkpt><trkpt lat="41.99457132832225" lon="13.803602654225484"><ele>578.0</ele><time>2026-05-02T11:45:55Z</time></trkpt><trkpt lat="41.9946408079796" lon="13.803638792289357"><ele>578.0</ele><time>2026-05-02T11:45:56Z</time></trkpt><trkpt lat="41.99470641189739" lon="13.803656574738673"><ele>578.0</ele><time>2026-05-02T11:45:57Z</time></trkpt><trkpt lat="41.99478115699536" lon="13.803670093880028"><ele>578.0</ele><time>2026-05-02T11:45:58Z</time></trkpt><trkpt lat="41.99484905895402" lon="13.803678246981157"><ele>578.0</ele><time>2026-05-02T11:45:59Z</time></trkpt><trkpt lat="41.99491720767846" lon="13.803685540437126"><ele>578.0</ele><time>2026-05-02T11:46:00Z</time></trkpt><trkpt lat="41.99499347395203" lon="13.803690758702754"><ele>578.0</ele><time>2026-05-02T11:46:01Z</time></trkpt><trkpt lat="41.99506550076471" lon="13.80368872660404"><ele>578.0</ele><time>2026-05-02T11:46:02Z</time></trkpt><trkpt lat="41.99513259888165" lon="13.803686833546259"><ele>578.0</ele><time>2026-05-02T11:46:03Z</time></trkpt><trkpt lat="41.99520301037229" lon="13.80368484700338"><ele>578.0</ele><time>2026-05-02T11:46:04Z</time></trkpt><trkpt lat="41.99528219104866" lon="13.803681725444436"><ele>578.1999999999999</ele><time>2026-05-02T11:46:05Z</time></trkpt><trkpt lat="41.99538045518032" lon="13.803649749775138"><ele>578.4</ele><time>2026-05-02T11:46:06Z</time></trkpt><trkpt lat="41.99547771294183" lon="13.803684207414944"><ele>578.5999999999999</ele><time>2026-05-02T11:46:07Z</time></trkpt><trkpt lat="41.99557905396236" lon="13.803711890826282"><ele>578.8</ele><time>2026-05-02T11:46:08Z</time></trkpt><trkpt lat="41.99568687185136" lon="13.803713371629765"><ele>579.0</ele><time>2026-05-02T11:46:09Z</time></trkpt><trkpt lat="41.9957987663899" lon="13.803726075989607"><ele>580.0</ele><time>2026-05-02T11:46:10Z</time></trkpt><trkpt lat="41.99591258772979" lon="13.803741082392593"><ele>581.0</ele><time>2026-05-02T11:46:11Z</time></trkpt><trkpt lat="41.996025679118645" lon="13.803760617070987"><ele>582.0</ele><time>2026-05-02T11:46:12Z</time></trkpt><trkpt lat="41.99613551700449" lon="13.803781110407247"><ele>583.0</ele><time>2026-05-02T11:46:13Z</time></trkpt><trkpt lat="41.996235081337396" lon="13.80388905200139"><ele>583.0</ele><time>2026-05-02T11:46:14Z</time></trkpt><trkpt lat="41.9963518825006" lon="13.803893754957143"><ele>583.0</ele><time>2026-05-02T11:46:15Z</time></trkpt><trkpt lat="41.99646924100444" lon="13.803875842088935"><ele>583.0</ele><time>2026-05-02T11:46:16Z</time></trkpt><trkpt lat="41.99658807338315" lon="13.803844697628385"><ele>583.0</ele><time>2026-05-02T11:46:17Z</time></trkpt><trkpt lat="41.99671788556522" lon="13.80380102464549"><ele>583.5</ele><time>2026-05-02T11:46:18Z</time></trkpt><trkpt lat="41.99683909810668" lon="13.803731522516188"><ele>584.0</ele><time>2026-05-02T11:46:19Z</time></trkpt><trkpt lat="41.99694729322961" lon="13.803700717327436"><ele>584.5</ele><time>2026-05-02T11:46:20Z</time></trkpt><trkpt lat="41.99705213113317" lon="13.803652781523294"><ele>585.0</ele><time>2026-05-02T11:46:21Z</time></trkpt><trkpt lat="41.99717033788024" lon="13.80362835895597"><ele>585.0</ele><time>2026-05-02T11:46:22Z</time></trkpt><trkpt lat="41.997292194452925" lon="13.8036487726418"><ele>585.0</ele><time>2026-05-02T11:46:23Z</time></trkpt><trkpt lat="41.99742524734869" lon="13.803692288414032"><ele>585.0</ele><time>2026-05-02T11:46:24Z</time></trkpt><trkpt lat="41.997564245861284" lon="13.803735258829123"><ele>585.0</ele><time>2026-05-02T11:46:25Z</time></trkpt><trkpt lat="41.997699850242064" lon="13.80379255389607"><ele>588.0</ele><time>2026-05-02T11:46:26Z</time></trkpt><trkpt lat="41.997841721503534" lon="13.80387112057375"><ele>591.0</ele><time>2026-05-02T11:46:27Z</time></trkpt><trkpt lat="41.99797290278983" lon="13.80396840546824"><ele>594.0</ele><time>2026-05-02T11:46:28Z</time></trkpt><trkpt lat="41.998108331285074" lon="13.804043254768086"><ele>594.0</ele><time>2026-05-02T11:46:29Z</time></trkpt><trkpt lat="41.99822868266087" lon="13.804100637448501"><ele>594.0</ele><time>2026-05-02T11:46:30Z</time></trkpt><trkpt lat="41.99833034926102" lon="13.804138931765467"><ele>594.0</ele><time>2026-05-02T11:46:31Z</time></trkpt><trkpt lat="41.99842357848867" lon="13.804151279700038"><ele>594.0</ele><time>2026-05-02T11:46:32Z</time></trkpt><trkpt lat="41.9985247407053" lon="13.804132754723618"><ele>594.0</ele><time>2026-05-02T11:46:33Z</time></trkpt><trkpt lat="41.99862884573666" lon="13.804062961957966"><ele>593.25</ele><time>2026-05-02T11:46:34Z</time></trkpt><trkpt lat="41.99871721675769" lon="13.803937792740086"><ele>592.5</ele><time>2026-05-02T11:46:35Z</time></trkpt><trkpt lat="41.998791960117515" lon="13.803791067917254"><ele>591.75</ele><time>2026-05-02T11:46:36Z</time></trkpt><trkpt lat="41.99886929589199" lon="13.803640486742767"><ele>591.0</ele><time>2026-05-02T11:46:37Z</time></trkpt><trkpt lat="41.998944265691605" lon="13.803499938794424"><ele>593.75</ele><time>2026-05-02T11:46:38Z</time></trkpt><trkpt lat="41.99902666662297" lon="13.803368126664463"><ele>596.5</ele><time>2026-05-02T11:46:39Z</time></trkpt><trkpt lat="41.999134096131925" lon="13.803282229093616"><ele>599.25</ele><time>2026-05-02T11:46:40Z</time></trkpt><trkpt lat="41.99924837963505" lon="13.803213657124152"><ele>602.0</ele><time>2026-05-02T11:46:41Z</time></trkpt><trkpt lat="41.999369393472044" lon="13.803148988774899"><ele>602.25</ele><time>2026-05-02T11:46:42Z</time></trkpt><trkpt lat="41.999491126987465" lon="13.803076430161099"><ele>602.5</ele><time>2026-05-02T11:46:43Z</time></trkpt><trkpt lat="41.99960752332816" lon="13.802999865896213"><ele>602.75</ele><time>2026-05-02T11:46:44Z</time></trkpt><trkpt lat="41.9997219287948" lon="13.802950180483768"><ele>603.0</ele><time>2026-05-02T11:46:45Z</time></trkpt><trkpt lat="41.99980769805857" lon="13.802871987577593"><ele>603.0</ele><time>2026-05-02T11:46:46Z</time></trkpt><trkpt lat="41.99988264116309" lon="13.8028533913202"><ele>603.0</ele><time>2026-05-02T11:46:47Z</time></trkpt><trkpt lat="41.99994567532879" lon="13.802801803314543"><ele>603.0</ele><time>2026-05-02T11:46:48Z</time></trkpt><trkpt lat="42.00003241065972" lon="13.802792022185768"><ele>603.0</ele><time>2026-05-02T11:46:49Z</time></trkpt><trkpt lat="42.00011806320623" lon="13.802818173187836"><ele>603.0</ele><time>2026-05-02T11:46:50Z</time></trkpt><trkpt lat="42.000207252362515" lon="13.802873948868996"><ele>603.0</ele><time>2026-05-02T11:46:51Z</time></trkpt><trkpt lat="42.0003029380362" lon="13.802925107726645"><ele>603.0</ele><time>2026-05-02T11:46:52Z</time></trkpt><trkpt lat="42.000404634964944" lon="13.802976459492381"><ele>603.0</ele><time>2026-05-02T11:46:53Z</time></trkpt><trkpt lat="42.00050829483816" lon="13.803035954175746"><ele>603.0</ele><time>2026-05-02T11:46:54Z</time></trkpt><trkpt lat="42.00061004695927" lon="13.803116728753407"><ele>603.0</ele><time>2026-05-02T11:46:55Z</time></trkpt><trkpt lat="42.00072833402847" lon="13.80316693210529"><ele>605.25</ele><time>2026-05-02T11:46:56Z</time></trkpt><trkpt lat="42.00083994321941" lon="13.803231090192844"><ele>607.5</ele><time>2026-05-02T11:46:57Z</time></trkpt><trkpt lat="42.000948296875116" lon="13.803293102330414"><ele>609.75</ele><time>2026-05-02T11:46:58Z</time></trkpt><trkpt lat="42.00104686244509" lon="13.8033713271251"><ele>612.0</ele><time>2026-05-02T11:46:59Z</time></trkpt><trkpt lat="42.00114224735902" lon="13.8034158303512"><ele>612.0</ele><time>2026-05-02T11:47:00Z</time></trkpt><trkpt lat="42.00124552417036" lon="13.803425759691944"><ele>612.0</ele><time>2026-05-02T11:47:01Z</time></trkpt><trkpt lat="42.0013493060612" lon="13.803388120931766"><ele>612.0</ele><time>2026-05-02T11:47:02Z</time></trkpt><trkpt lat="42.00145739600635" lon="13.803360989936527"><ele>612.0</ele><time>2026-05-02T11:47:03Z</time></trkpt><trkpt lat="42.00157220893968" lon="13.80334759470363"><ele>612.0</ele><time>2026-05-02T11:47:04Z</time></trkpt><trkpt lat="42.00167395693237" lon="13.80328045207404"><ele>612.6</ele><time>2026-05-02T11:47:05Z</time></trkpt><trkpt lat="42.00178063578232" lon="13.8032336074024"><ele>613.2</ele><time>2026-05-02T11:47:06Z</time></trkpt><trkpt lat="42.0018615568056" lon="13.803156710526217"><ele>613.8</ele><time>2026-05-02T11:47:07Z</time></trkpt><trkpt lat="42.001943553168154" lon="13.803054446965962"><ele>614.4</ele><time>2026-05-02T11:47:08Z</time></trkpt><trkpt lat="42.00201938191037" lon="13.802938704918365"><ele>615.0</ele><time>2026-05-02T11:47:09Z</time></trkpt><trkpt lat="42.002089852016" lon="13.802819742520855"><ele>615.0</ele><time>2026-05-02T11:47:10Z</time></trkpt><trkpt lat="42.002153088281425" lon="13.802693572215047"><ele>615.0</ele><time>2026-05-02T11:47:11Z</time></trkpt><trkpt lat="42.00220451651397" lon="13.802560251300715"><ele>615.0</ele><time>2026-05-02T11:47:12Z</time></trkpt><trkpt lat="42.00223375708847" lon="13.802426308007288"><ele>615.0</ele><time>2026-05-02T11:47:13Z</time></trkpt><trkpt lat="42.00225188216242" lon="13.802299697261947"><ele>615.0</ele><time>2026-05-02T11:47:14Z</time></trkpt><trkpt lat="42.002272282323055" lon="13.80218329862738"><ele>616.6666666666666</ele><time>2026-05-02T11:47:15Z</time></trkpt><trkpt lat="42.00229372998965" lon="13.802079046738497"><ele>618.3333333333334</ele><time>2026-05-02T11:47:16Z</time></trkpt><trkpt lat="42.00232071389265" lon="13.801983782082399"><ele>620.0</ele><time>2026-05-02T11:47:17Z</time></trkpt><trkpt lat="42.00236657495179" lon="13.801903294493927"><ele>621.6666666666667</ele><time>2026-05-02T11:47:18Z</time></trkpt><trkpt lat="42.002429648089446" lon="13.801831179355073"><ele>623.3333333333334</ele><time>2026-05-02T11:47:19Z</time></trkpt><trkpt lat="42.0024980271002" lon="13.801761848897861"><ele>625.0</ele><time>2026-05-02T11:47:20Z</time></trkpt><trkpt lat="42.00257334944114" lon="13.801690829673666"><ele>625.8</ele><time>2026-05-02T11:47:21Z</time></trkpt><trkpt lat="42.002658634506005" lon="13.80161330083361"><ele>626.6</ele><time>2026-05-02T11:47:22Z</time></trkpt><trkpt lat="42.00274446099202" lon="13.801535305879142"><ele>627.4</ele><time>2026-05-02T11:47:23Z</time></trkpt><trkpt lat="42.002837603907864" lon="13.801449070065287"><ele>628.2</ele><time>2026-05-02T11:47:24Z</time></trkpt><trkpt lat="42.002937677807545" lon="13.801356031098436"><ele>629.0</ele><time>2026-05-02T11:47:25Z</time></trkpt><trkpt lat="42.00303057752141" lon="13.801243681305873"><ele>629.0</ele><time>2026-05-02T11:47:26Z</time></trkpt><trkpt lat="42.00314082564699" lon="13.801159291939054"><ele>629.0</ele><time>2026-05-02T11:47:27Z</time></trkpt><trkpt lat="42.003251996520184" lon="13.80105788825773"><ele>629.0</ele><time>2026-05-02T11:47:28Z</time></trkpt><trkpt lat="42.003351206047896" lon="13.800943744391699"><ele>629.0</ele><time>2026-05-02T11:47:29Z</time></trkpt><trkpt lat="42.00348990575841" lon="13.800828582400818"><ele>630.6666666666666</ele><time>2026-05-02T11:47:30Z</time></trkpt><trkpt lat="42.00364949388034" lon="13.800667531578009"><ele>632.3333333333334</ele><time>2026-05-02T11:47:31Z</time></trkpt><trkpt lat="42.003805433127646" lon="13.800503224456858"><ele>634.0</ele><time>2026-05-02T11:47:32Z</time></trkpt><trkpt lat="42.003968307523635" lon="13.800309970406037"><ele>636.0</ele><time>2026-05-02T11:47:33Z</time></trkpt><trkpt lat="42.004141602038175" lon="13.800136610172675"><ele>638.0</ele><time>2026-05-02T11:47:34Z</time></trkpt><trkpt lat="42.00430084151106" lon="13.799962220776758"><ele>640.0</ele><time>2026-05-02T11:47:35Z</time></trkpt><trkpt lat="42.00445648947188" lon="13.799805729983287"><ele>640.0</ele><time>2026-05-02T11:47:36Z</time></trkpt><trkpt lat="42.0046166554494" lon="13.79965030799688"><ele>640.0</ele><time>2026-05-02T11:47:37Z</time></trkpt><trkpt lat="42.00478325337821" lon="13.799504300045948"><ele>640.0</ele><time>2026-05-02T11:47:38Z</time></trkpt><trkpt lat="42.00495566893714" lon="13.799392714053052"><ele>642.6666666666667</ele><time>2026-05-02T11:47:39Z</time></trkpt><trkpt lat="42.00512385398929" lon="13.799297122601466"><ele>645.3333333333334</ele><time>2026-05-02T11:47:40Z</time></trkpt><trkpt lat="42.005274631859635" lon="13.799177626834892"><ele>648.0</ele><time>2026-05-02T11:47:41Z</time></trkpt><trkpt lat="42.0054130935644" lon="13.799019721184239"><ele>648.0</ele><time>2026-05-02T11:47:42Z</time></trkpt><trkpt lat="42.00554439901368" lon="13.798837594547349"><ele>648.0</ele><time>2026-05-02T11:47:43Z</time></trkpt><trkpt lat="42.00567470600086" lon="13.798650859070975"><ele>648.0</ele><time>2026-05-02T11:47:44Z</time></trkpt><trkpt lat="42.00580088150138" lon="13.79846515874437"><ele>648.6666666666666</ele><time>2026-05-02T11:47:45Z</time></trkpt><trkpt lat="42.005918315913874" lon="13.798301525866703"><ele>649.3333333333333</ele><time>2026-05-02T11:47:46Z</time></trkpt><trkpt lat="42.00601336307334" lon="13.798142888595555"><ele>650.0</ele><time>2026-05-02T11:47:47Z</time></trkpt><trkpt lat="42.00608760406205" lon="13.797962996949062"><ele>650.0</ele><time>2026-05-02T11:47:48Z</time></trkpt><trkpt lat="42.006136653023134" lon="13.797762920082251"><ele>650.0</ele><time>2026-05-02T11:47:49Z</time></trkpt><trkpt lat="42.006186176069434" lon="13.79756931530378"><ele>650.0</ele><time>2026-05-02T11:47:50Z</time></trkpt><trkpt lat="42.006274974208814" lon="13.797388438344251"><ele>650.3333333333333</ele><time>2026-05-02T11:47:51Z</time></trkpt><trkpt lat="42.00639307280219" lon="13.797227288622961"><ele>650.6666666666666</ele><time>2026-05-02T11:47:52Z</time></trkpt><trkpt lat="42.006533714338744" lon="13.79708474420127"><ele>651.0</ele><time>2026-05-02T11:47:53Z</time></trkpt><trkpt lat="42.00666885104447" lon="13.796934346969376"><ele>654.6666666666666</ele><time>2026-05-02T11:47:54Z</time></trkpt><trkpt lat="42.00680948430258" lon="13.796780955957184"><ele>658.3333333333333</ele><time>2026-05-02T11:47:55Z</time></trkpt><trkpt lat="42.00695458930182" lon="13.796632718679255"><ele>662.0</ele><time>2026-05-02T11:47:56Z</time></trkpt><trkpt lat="42.00710007363725" lon="13.796482870332945"><ele>662.0</ele><time>2026-05-02T11:47:57Z</time></trkpt><trkpt lat="42.00724354406954" lon="13.796335581528906"><ele>662.0</ele><time>2026-05-02T11:47:58Z</time></trkpt><trkpt lat="42.00738456062895" lon="13.796187485464053"><ele>662.0</ele><time>2026-05-02T11:47:59Z</time></trkpt><trkpt lat="42.00752251638649" lon="13.796040939998383"><ele>664.6666666666666</ele><time>2026-05-02T11:48:00Z</time></trkpt><trkpt lat="42.00766489346111" lon="13.795893259859211"><ele>667.3333333333334</ele><time>2026-05-02T11:48:01Z</time></trkpt><trkpt lat="42.00781211443191" lon="13.795752080386633"><ele>670.0</ele><time>2026-05-02T11:48:02Z</time></trkpt><trkpt lat="42.00795526624274" lon="13.795607233610246"><ele>670.0</ele><time>2026-05-02T11:48:03Z</time></trkpt><trkpt lat="42.00809886759536" lon="13.795463320409414"><ele>670.0</ele><time>2026-05-02T11:48:04Z</time></trkpt><trkpt lat="42.008236632134334" lon="13.795316410996493"><ele>670.0</ele><time>2026-05-02T11:48:05Z</time></trkpt><trkpt lat="42.00836787033648" lon="13.79515779805681"><ele>672.3333333333334</ele><time>2026-05-02T11:48:06Z</time></trkpt><trkpt lat="42.00848096525499" lon="13.794973494974395"><ele>674.6666666666666</ele><time>2026-05-02T11:48:07Z</time></trkpt><trkpt lat="42.00858270965442" lon="13.794771175542898"><ele>677.0</ele><time>2026-05-02T11:48:08Z</time></trkpt><trkpt lat="42.008674267652474" lon="13.794556769516495"><ele>681.3333333333333</ele><time>2026-05-02T11:48:09Z</time></trkpt><trkpt lat="42.00876750504577" lon="13.794335693843335"><ele>685.6666666666666</ele><time>2026-05-02T11:48:10Z</time></trkpt><trkpt lat="42.0088749037" lon="13.79413027729449"><ele>690.0</ele><time>2026-05-02T11:48:11Z</time></trkpt><trkpt lat="42.00899889403137" lon="13.793953434124536"><ele>690.0</ele><time>2026-05-02T11:48:12Z</time></trkpt><trkpt lat="42.00912922267847" lon="13.793782307005596"><ele>690.0</ele><time>2026-05-02T11:48:13Z</time></trkpt><trkpt lat="42.00923470312091" lon="13.793589054324297"><ele>690.0</ele><time>2026-05-02T11:48:14Z</time></trkpt><trkpt lat="42.0093267675914" lon="13.793390536831776"><ele>689.6666666666666</ele><time>2026-05-02T11:48:15Z</time></trkpt><trkpt lat="42.00941564248955" lon="13.793169241053851"><ele>689.3333333333333</ele><time>2026-05-02T11:48:16Z</time></trkpt><trkpt lat="42.00952496635342" lon="13.79297610134915"><ele>689.0</ele><time>2026-05-02T11:48:17Z</time></trkpt><trkpt lat="42.00963801502997" lon="13.792790141934683"><ele>696.0</ele><time>2026-05-02T11:48:18Z</time></trkpt><trkpt lat="42.009749005688555" lon="13.792618840451949"><ele>703.0</ele><time>2026-05-02T11:48:19Z</time></trkpt><trkpt lat="42.00983677197304" lon="13.792426778176816"><ele>710.0</ele><time>2026-05-02T11:48:20Z</time></trkpt><trkpt lat="42.00989508361518" lon="13.79220723991227"><ele>710.0</ele><time>2026-05-02T11:48:21Z</time></trkpt><trkpt lat="42.00994416889039" lon="13.79198256185807"><ele>710.0</ele><time>2026-05-02T11:48:22Z</time></trkpt><trkpt lat="42.01001214053288" lon="13.791768287290138"><ele>710.0</ele><time>2026-05-02T11:48:23Z</time></trkpt><trkpt lat="42.01009801816273" lon="13.791560640038707"><ele>708.3333333333333</ele><time>2026-05-02T11:48:24Z</time></trkpt><trkpt lat="42.010196309613235" lon="13.791361785946796"><ele>706.6666666666666</ele><time>2026-05-02T11:48:25Z</time></trkpt><trkpt lat="42.01029991868648" lon="13.791174188584359"><ele>705.0</ele><time>2026-05-02T11:48:26Z</time></trkpt><trkpt lat="42.01040494148765" lon="13.79098347154376"><ele>711.0</ele><time>2026-05-02T11:48:27Z</time></trkpt><trkpt lat="42.01051219040511" lon="13.790804709412004"><ele>717.0</ele><time>2026-05-02T11:48:28Z</time></trkpt><trkpt lat="42.01063540804433" lon="13.790649544169776"><ele>723.0</ele><time>2026-05-02T11:48:29Z</time></trkpt><trkpt lat="42.01079023494548" lon="13.790505253530222"><ele>723.6666666666666</ele><time>2026-05-02T11:48:30Z</time></trkpt><trkpt lat="42.01094184758313" lon="13.790377189348316"><ele>724.3333333333333</ele><time>2026-05-02T11:48:31Z</time></trkpt><trkpt lat="42.011104990134314" lon="13.790262891438275"><ele>725.0</ele><time>2026-05-02T11:48:32Z</time></trkpt><trkpt lat="42.01126133662243" lon="13.790146579317723"><ele>725.0</ele><time>2026-05-02T11:48:33Z</time></trkpt><trkpt lat="42.011426709267546" lon="13.790061702882321"><ele>725.0</ele><time>2026-05-02T11:48:34Z</time></trkpt><trkpt lat="42.01160110473777" lon="13.790001906847113"><ele>725.0</ele><time>2026-05-02T11:48:35Z</time></trkpt><trkpt lat="42.01178246872439" lon="13.789965480390393"><ele>720.6666666666666</ele><time>2026-05-02T11:48:36Z</time></trkpt><trkpt lat="42.01196328243861" lon="13.789935760721308"><ele>716.3333333333334</ele><time>2026-05-02T11:48:37Z</time></trkpt><trkpt lat="42.01214650318862" lon="13.789885289200761"><ele>712.0</ele><time>2026-05-02T11:48:38Z</time></trkpt><trkpt lat="42.012332428897224" lon="13.789820169496146"><ele>712.6666666666667</ele><time>2026-05-02T11:48:39Z</time></trkpt><trkpt lat="42.01251410813417" lon="13.789751127712895"><ele>713.3333333333334</ele><time>2026-05-02T11:48:40Z</time></trkpt><trkpt lat="42.01268228516503" lon="13.789677302094395"><ele>714.0</ele><time>2026-05-02T11:48:41Z</time></trkpt><trkpt lat="42.01283278544047" lon="13.789616690993451"><ele>714.0</ele><time>2026-05-02T11:48:42Z</time></trkpt><trkpt lat="42.012975129965554" lon="13.789533976799063"><ele>714.0</ele><time>2026-05-02T11:48:43Z</time></trkpt><trkpt lat="42.013108712921884" lon="13.78940850574517"><ele>714.0</ele><time>2026-05-02T11:48:44Z</time></trkpt><trkpt lat="42.013221031778265" lon="13.789273788568392"><ele>718.0</ele><time>2026-05-02T11:48:45Z</time></trkpt><trkpt lat="42.01333182481777" lon="13.789160805475534"><ele>722.0</ele><time>2026-05-02T11:48:46Z</time></trkpt><trkpt lat="42.013450892600964" lon="13.78913167778589"><ele>726.0</ele><time>2026-05-02T11:48:47Z</time></trkpt><trkpt lat="42.013570059068726" lon="13.789148229669081"><ele>730.0</ele><time>2026-05-02T11:48:48Z</time></trkpt><trkpt lat="42.013680303606314" lon="13.789213856828827"><ele>730.0</ele><time>2026-05-02T11:48:49Z</time></trkpt><trkpt lat="42.01378285661849" lon="13.789339629478127"><ele>730.0</ele><time>2026-05-02T11:48:50Z</time></trkpt><trkpt lat="42.01390101093339" lon="13.789468436808416"><ele>730.0</ele><time>2026-05-02T11:48:51Z</time></trkpt><trkpt lat="42.01403984157479" lon="13.789601826767646"><ele>729.0</ele><time>2026-05-02T11:48:52Z</time></trkpt><trkpt lat="42.01417741444327" lon="13.789722699723026"><ele>728.0</ele><time>2026-05-02T11:48:53Z</time></trkpt><trkpt lat="42.014323961585134" lon="13.789833595639644"><ele>727.0</ele><time>2026-05-02T11:48:54Z</time></trkpt><trkpt lat="42.014499373695294" lon="13.789881148865593"><ele>727.0</ele><time>2026-05-02T11:48:55Z</time></trkpt><trkpt lat="42.01466454398839" lon="13.78988030280963"><ele>727.0</ele><time>2026-05-02T11:48:56Z</time></trkpt><trkpt lat="42.01481606770016" lon="13.789815377856947"><ele>727.0</ele><time>2026-05-02T11:48:57Z</time></trkpt><trkpt lat="42.014935984627336" lon="13.789724283475888"><ele>728.5</ele><time>2026-05-02T11:48:58Z</time></trkpt><trkpt lat="42.01502888905465" lon="13.789606474354516"><ele>730.0</ele><time>2026-05-02T11:48:59Z</time></trkpt><trkpt lat="42.015103676900104" lon="13.789444301423757"><ele>731.5</ele><time>2026-05-02T11:49:00Z</time></trkpt><trkpt lat="42.01518141485367" lon="13.78925591834443"><ele>733.0</ele><time>2026-05-02T11:49:01Z</time></trkpt><trkpt lat="42.015285622784035" lon="13.789066563672922"><ele>736.0</ele><time>2026-05-02T11:49:02Z</time></trkpt><trkpt lat="42.01539029321625" lon="13.788873484397454"><ele>739.0</ele><time>2026-05-02T11:49:03Z</time></trkpt><trkpt lat="42.01550283121584" lon="13.788714956392505"><ele>742.0</ele><time>2026-05-02T11:49:04Z</time></trkpt><trkpt lat="42.015598758651315" lon="13.7885745687036"><ele>744.0</ele><time>2026-05-02T11:49:05Z</time></trkpt><trkpt lat="42.015648962212644" lon="13.788412535711462"><ele>746.0</ele><time>2026-05-02T11:49:06Z</time></trkpt><trkpt lat="42.01566630800924" lon="13.788201671354825"><ele>748.0</ele><time>2026-05-02T11:49:07Z</time></trkpt><trkpt lat="42.015718815203996" lon="13.787987570327411"><ele>748.0</ele><time>2026-05-02T11:49:08Z</time></trkpt><trkpt lat="42.01576237107629" lon="13.787756369288056"><ele>748.0</ele><time>2026-05-02T11:49:09Z</time></trkpt><trkpt lat="42.01581114201917" lon="13.787526295482767"><ele>748.0</ele><time>2026-05-02T11:49:10Z</time></trkpt><trkpt lat="42.01588175042761" lon="13.787296060633306"><ele>748.6666666666667</ele><time>2026-05-02T11:49:11Z</time></trkpt><trkpt lat="42.01596020087382" lon="13.787072537564613"><ele>749.3333333333334</ele><time>2026-05-02T11:49:12Z</time></trkpt><trkpt lat="42.01604117797771" lon="13.786848151677592"><ele>750.0</ele><time>2026-05-02T11:49:13Z</time></trkpt><trkpt lat="42.01612181905359" lon="13.786626062826546"><ele>752.3333333333334</ele><time>2026-05-02T11:49:14Z</time></trkpt><trkpt lat="42.01618988812097" lon="13.786397833862722"><ele>754.6666666666667</ele><time>2026-05-02T11:49:15Z</time></trkpt><trkpt lat="42.0162922478579" lon="13.78618997915304"><ele>757.0</ele><time>2026-05-02T11:49:16Z</time></trkpt><trkpt lat="42.016405865792095" lon="13.785980378247908"><ele>758.0</ele><time>2026-05-02T11:49:17Z</time></trkpt><trkpt lat="42.01652548861709" lon="13.785784291794196"><ele>759.0</ele><time>2026-05-02T11:49:18Z</time></trkpt><trkpt lat="42.016645431132424" lon="13.785589799726791"><ele>760.0</ele><time>2026-05-02T11:49:19Z</time></trkpt><trkpt lat="42.01675952268687" lon="13.785405550591237"><ele>760.0</ele><time>2026-05-02T11:49:20Z</time></trkpt><trkpt lat="42.01684027085732" lon="13.785188903721291"><ele>760.0</ele><time>2026-05-02T11:49:21Z</time></trkpt><trkpt lat="42.01690469722138" lon="13.78497422004907"><ele>760.0</ele><time>2026-05-02T11:49:22Z</time></trkpt><trkpt lat="42.01696749805085" lon="13.784780848477725"><ele>762.0</ele><time>2026-05-02T11:49:23Z</time></trkpt><trkpt lat="42.01703964619271" lon="13.784597770219946"><ele>764.0</ele><time>2026-05-02T11:49:24Z</time></trkpt><trkpt lat="42.01714561201579" lon="13.78441553693219"><ele>766.0</ele><time>2026-05-02T11:49:25Z</time></trkpt><trkpt lat="42.01729629288267" lon="13.784273541321086"><ele>767.6666666666667</ele><time>2026-05-02T11:49:26Z</time></trkpt><trkpt lat="42.01746469830878" lon="13.784139404269057"><ele>769.3333333333334</ele><time>2026-05-02T11:49:27Z</time></trkpt><trkpt lat="42.0176436514583" lon="13.78401117271233"><ele>771.0</ele><time>2026-05-02T11:49:28Z</time></trkpt><trkpt lat="42.01782932664359" lon="13.783881653750555"><ele>771.0</ele><time>2026-05-02T11:49:29Z</time></trkpt><trkpt lat="42.01801605489732" lon="13.783759497746711"><ele>771.0</ele><time>2026-05-02T11:49:30Z</time></trkpt><trkpt lat="42.0182073041045" lon="13.783653215053855"><ele>771.0</ele><time>2026-05-02T11:49:31Z</time></trkpt><trkpt lat="42.01837427087291" lon="13.783551677494295"><ele>773.75</ele><time>2026-05-02T11:49:32Z</time></trkpt><trkpt lat="42.01852118370771" lon="13.783476076578607"><ele>776.5</ele><time>2026-05-02T11:49:33Z</time></trkpt><trkpt lat="42.018647006215886" lon="13.783385427219791"><ele>779.25</ele><time>2026-05-02T11:49:34Z</time></trkpt><trkpt lat="42.01874758465948" lon="13.78324831528744"><ele>782.0</ele><time>2026-05-02T11:49:35Z</time></trkpt><trkpt lat="42.01883461345058" lon="13.78308086864805"><ele>782.0</ele><time>2026-05-02T11:49:36Z</time></trkpt><trkpt lat="42.018913600082215" lon="13.782900002854264"><ele>782.0</ele><time>2026-05-02T11:49:37Z</time></trkpt><trkpt lat="42.01898815621642" lon="13.782719446791418"><ele>782.0</ele><time>2026-05-02T11:49:38Z</time></trkpt><trkpt lat="42.01909271114454" lon="13.782564406302665"><ele>783.0</ele><time>2026-05-02T11:49:39Z</time></trkpt><trkpt lat="42.01923358609947" lon="13.782465797925548"><ele>784.0</ele><time>2026-05-02T11:49:40Z</time></trkpt><trkpt lat="42.01940103803884" lon="13.782391479206009"><ele>785.0</ele><time>2026-05-02T11:49:41Z</time></trkpt><trkpt lat="42.01956957309854" lon="13.782314530352114"><ele>785.0</ele><time>2026-05-02T11:49:42Z</time></trkpt><trkpt lat="42.019750858796996" lon="13.782231566172214"><ele>785.0</ele><time>2026-05-02T11:49:43Z</time></trkpt><trkpt lat="42.01992773011682" lon="13.782151936685636"><ele>785.0</ele><time>2026-05-02T11:49:44Z</time></trkpt><trkpt lat="42.0201032180879" lon="13.782070870764791"><ele>783.6666666666667</ele><time>2026-05-02T11:49:45Z</time></trkpt><trkpt lat="42.02027583609648" lon="13.781985076569713"><ele>782.3333333333333</ele><time>2026-05-02T11:49:46Z</time></trkpt><trkpt lat="42.020437496054576" lon="13.781874733275412"><ele>781.0</ele><time>2026-05-02T11:49:47Z</time></trkpt><trkpt lat="42.02059980447674" lon="13.781767938073875"><ele>785.6666666666666</ele><time>2026-05-02T11:49:48Z</time></trkpt><trkpt lat="42.02075109753752" lon="13.781631481268883"><ele>790.3333333333333</ele><time>2026-05-02T11:49:49Z</time></trkpt><trkpt lat="42.020897295606964" lon="13.781488700561386"><ele>795.0</ele><time>2026-05-02T11:49:50Z</time></trkpt><trkpt lat="42.02105040164238" lon="13.78135111986124"><ele>795.0</ele><time>2026-05-02T11:49:51Z</time></trkpt><trkpt lat="42.02120645588951" lon="13.781215432309356"><ele>795.0</ele><time>2026-05-02T11:49:52Z</time></trkpt><trkpt lat="42.02136966423575" lon="13.781088211847088"><ele>795.0</ele><time>2026-05-02T11:49:53Z</time></trkpt><trkpt lat="42.0215343992574" lon="13.780951328572458"><ele>798.0</ele><time>2026-05-02T11:49:54Z</time></trkpt><trkpt lat="42.021706950748275" lon="13.780835400529138"><ele>801.0</ele><time>2026-05-02T11:49:55Z</time></trkpt><trkpt lat="42.0218879734677" lon="13.780739375758369"><ele>804.0</ele><time>2026-05-02T11:49:56Z</time></trkpt><trkpt lat="42.02206301555927" lon="13.780623715369817"><ele>804.0</ele><time>2026-05-02T11:49:57Z</time></trkpt><trkpt lat="42.02223628383406" lon="13.780515611988642"><ele>804.0</ele><time>2026-05-02T11:49:58Z</time></trkpt><trkpt lat="42.022412362283255" lon="13.780413949164354"><ele>804.0</ele><time>2026-05-02T11:49:59Z</time></trkpt><trkpt lat="42.0225939969561" lon="13.780332785660898"><ele>802.0</ele><time>2026-05-02T11:50:00Z</time></trkpt><trkpt lat="42.022776504006366" lon="13.780280591405736"><ele>800.0</ele><time>2026-05-02T11:50:01Z</time></trkpt><trkpt lat="42.02296698118125" lon="13.78023332188765"><ele>798.0</ele><time>2026-05-02T11:50:02Z</time></trkpt><trkpt lat="42.023158813797195" lon="13.780174161728194"><ele>803.6666666666667</ele><time>2026-05-02T11:50:03Z</time></trkpt><trkpt lat="42.023356953820326" lon="13.780139292118637"><ele>809.3333333333334</ele><time>2026-05-02T11:50:04Z</time></trkpt><trkpt lat="42.0235411045553" lon="13.780099433591886"><ele>815.0</ele><time>2026-05-02T11:50:05Z</time></trkpt><trkpt lat="42.023723717819436" lon="13.780046762294797"><ele>815.0</ele><time>2026-05-02T11:50:06Z</time></trkpt><trkpt lat="42.02389752257368" lon="13.779948721622052"><ele>815.0</ele><time>2026-05-02T11:50:07Z</time></trkpt><trkpt lat="42.024046685442485" lon="13.779796587831068"><ele>815.0</ele><time>2026-05-02T11:50:08Z</time></trkpt><trkpt lat="42.02420806831006" lon="13.779659113262527"><ele>814.0</ele><time>2026-05-02T11:50:09Z</time></trkpt><trkpt lat="42.024374683514885" lon="13.779511382824326"><ele>813.0</ele><time>2026-05-02T11:50:10Z</time></trkpt><trkpt lat="42.02454244804638" lon="13.779378531408117"><ele>812.0</ele><time>2026-05-02T11:50:11Z</time></trkpt><trkpt lat="42.02468601344351" lon="13.779253581737903"><ele>814.3333333333334</ele><time>2026-05-02T11:50:12Z</time></trkpt><trkpt lat="42.02481965898563" lon="13.77911390526854"><ele>816.6666666666667</ele><time>2026-05-02T11:50:13Z</time></trkpt><trkpt lat="42.0249431212257" lon="13.77894065155981"><ele>819.0</ele><time>2026-05-02T11:50:14Z</time></trkpt><trkpt lat="42.025048596423794" lon="13.778738946665065"><ele>819.0</ele><time>2026-05-02T11:50:15Z</time></trkpt><trkpt lat="42.025169737446056" lon="13.778554768039792"><ele>819.0</ele><time>2026-05-02T11:50:16Z</time></trkpt><trkpt lat="42.02533067681584" lon="13.77839861595425"><ele>819.0</ele><time>2026-05-02T11:50:17Z</time></trkpt><trkpt lat="42.02548974779144" lon="13.77826520494216"><ele>820.0</ele><time>2026-05-02T11:50:18Z</time></trkpt><trkpt lat="42.0256615418664" lon="13.778128462699815"><ele>821.0</ele><time>2026-05-02T11:50:19Z</time></trkpt><trkpt lat="42.02582299669947" lon="13.777982999832957"><ele>822.0</ele><time>2026-05-02T11:50:20Z</time></trkpt><trkpt lat="42.025995040616976" lon="13.777833256355864"><ele>829.6666666666667</ele><time>2026-05-02T11:50:21Z</time></trkpt><trkpt lat="42.02617342027586" lon="13.777683155979938"><ele>837.3333333333334</ele><time>2026-05-02T11:50:22Z</time></trkpt><trkpt lat="42.026345384351764" lon="13.777532569301316"><ele>845.0</ele><time>2026-05-02T11:50:23Z</time></trkpt><trkpt lat="42.026512658077564" lon="13.777392132280951"><ele>841.6666666666667</ele><time>2026-05-02T11:50:24Z</time></trkpt><trkpt lat="42.026680036594364" lon="13.77725675861841"><ele>838.3333333333333</ele><time>2026-05-02T11:50:25Z</time></trkpt><trkpt lat="42.02685226177607" lon="13.777157236889677"><ele>835.0</ele><time>2026-05-02T11:50:26Z</time></trkpt><trkpt lat="42.027007289140435" lon="13.777007616642319"><ele>844.0</ele><time>2026-05-02T11:50:27Z</time></trkpt><trkpt lat="42.027152940277254" lon="13.776851844256033"><ele>853.0</ele><time>2026-05-02T11:50:28Z</time></trkpt><trkpt lat="42.02731397567892" lon="13.776720647270512"><ele>862.0</ele><time>2026-05-02T11:50:29Z</time></trkpt><trkpt lat="42.027473840735226" lon="13.77658525403839"><ele>856.0</ele><time>2026-05-02T11:50:30Z</time></trkpt><trkpt lat="42.027633919520035" lon="13.776435399893366"><ele>850.0</ele><time>2026-05-02T11:50:31Z</time></trkpt><trkpt lat="42.02779657656495" lon="13.776302839130716"><ele>844.0</ele><time>2026-05-02T11:50:32Z</time></trkpt><trkpt lat="42.027964666317644" lon="13.776160322133993"><ele>844.0</ele><time>2026-05-02T11:50:33Z</time></trkpt><trkpt lat="42.02813094099235" lon="13.77602660143092"><ele>844.0</ele><time>2026-05-02T11:50:34Z</time></trkpt><trkpt lat="42.02829229183399" lon="13.775901565549953"><ele>844.0</ele><time>2026-05-02T11:50:35Z</time></trkpt><trkpt lat="42.028463682283544" lon="13.775778258122955"><ele>847.0</ele><time>2026-05-02T11:50:36Z</time></trkpt><trkpt lat="42.02864297508508" lon="13.775664767932236"><ele>850.0</ele><time>2026-05-02T11:50:37Z</time></trkpt><trkpt lat="42.028820410346974" lon="13.775550291011594"><ele>853.0</ele><time>2026-05-02T11:50:38Z</time></trkpt><trkpt lat="42.028989462187646" lon="13.775419173936365"><ele>851.0</ele><time>2026-05-02T11:50:39Z</time></trkpt><trkpt lat="42.02915766009247" lon="13.775276809422694"><ele>849.0</ele><time>2026-05-02T11:50:40Z</time></trkpt><trkpt lat="42.0293220583654" lon="13.775129833533745"><ele>847.0</ele><time>2026-05-02T11:50:41Z</time></trkpt><trkpt lat="42.029487999400416" lon="13.774989137028161"><ele>853.0</ele><time>2026-05-02T11:50:42Z</time></trkpt><trkpt lat="42.029654015520684" lon="13.77485667448899"><ele>859.0</ele><time>2026-05-02T11:50:43Z</time></trkpt><trkpt lat="42.02980625714" lon="13.774689906317363"><ele>865.0</ele><time>2026-05-02T11:50:44Z</time></trkpt><trkpt lat="42.02993136865934" lon="13.774563349668165"><ele>863.0</ele><time>2026-05-02T11:50:45Z</time></trkpt><trkpt lat="42.030064440297615" lon="13.774439229539716"><ele>861.0</ele><time>2026-05-02T11:50:46Z</time></trkpt><trkpt lat="42.03019995126608" lon="13.774348137740756"><ele>859.0</ele><time>2026-05-02T11:50:47Z</time></trkpt><trkpt lat="42.03035268809699" lon="13.774287487143365"><ele>862.6666666666666</ele><time>2026-05-02T11:50:48Z</time></trkpt><trkpt lat="42.03050318568239" lon="13.774249921101628"><ele>866.3333333333333</ele><time>2026-05-02T11:50:49Z</time></trkpt><trkpt lat="42.03066670457979" lon="13.774212910963739"><ele>870.0</ele><time>2026-05-02T11:50:50Z</time></trkpt><trkpt lat="42.03083479933309" lon="13.774182517437376"><ele>870.0</ele><time>2026-05-02T11:50:51Z</time></trkpt><trkpt lat="42.03100445413561" lon="13.774150075075497"><ele>870.0</ele><time>2026-05-02T11:50:52Z</time></trkpt><trkpt lat="42.031173449908195" lon="13.774121660889698"><ele>870.0</ele><time>2026-05-02T11:50:53Z</time></trkpt><trkpt lat="42.03133584353608" lon="13.774078727748272"><ele>870.0</ele><time>2026-05-02T11:50:54Z</time></trkpt><trkpt lat="42.03149052091748" lon="13.774060117013246"><ele>870.0</ele><time>2026-05-02T11:50:55Z</time></trkpt><trkpt lat="42.031638565846286" lon="13.774002705426838"><ele>870.0</ele><time>2026-05-02T11:50:56Z</time></trkpt><trkpt lat="42.031773997685605" lon="13.77389862682345"><ele>872.3333333333333</ele><time>2026-05-02T11:50:57Z</time></trkpt><trkpt lat="42.03189972131943" lon="13.773789272377075"><ele>874.6666666666666</ele><time>2026-05-02T11:50:58Z</time></trkpt><trkpt lat="42.032021195833764" lon="13.77365786433886"><ele>877.0</ele><time>2026-05-02T11:50:59Z</time></trkpt><trkpt lat="42.03214664777907" lon="13.77355148344512"><ele>878.75</ele><time>2026-05-02T11:51:00Z</time></trkpt><trkpt lat="42.03227020270154" lon="13.773460308349808"><ele>880.5</ele><time>2026-05-02T11:51:01Z</time></trkpt><trkpt lat="42.03237749642177" lon="13.773330478025391"><ele>882.25</ele><time>2026-05-02T11:51:02Z</time></trkpt><trkpt lat="42.03246286882358" lon="13.773190911437029"><ele>884.0</ele><time>2026-05-02T11:51:03Z</time></trkpt><trkpt lat="42.03253673126491" lon="13.773076946047336"><ele>884.0</ele><time>2026-05-02T11:51:04Z</time></trkpt><trkpt lat="42.03259757585608" lon="13.773000622365839"><ele>884.0000000000001</ele><time>2026-05-02T11:51:05Z</time></trkpt><trkpt lat="42.032708906820226" lon="13.773030658634227"><ele>884.0000000000001</ele><time>2026-05-02T11:51:07Z</time></trkpt><trkpt lat="42.03278001450257" lon="13.773102056859898"><ele>884.0</ele><time>2026-05-02T11:51:08Z</time></trkpt><trkpt lat="42.03283750520224" lon="13.77317541838542"><ele>884.0</ele><time>2026-05-02T11:51:09Z</time></trkpt><trkpt lat="42.03288030283014" lon="13.773322719868148"><ele>884.0</ele><time>2026-05-02T11:51:10Z</time></trkpt><trkpt lat="42.03288363668689" lon="13.773459679146475"><ele>884.0000000000001</ele><time>2026-05-02T11:51:11Z</time></trkpt><trkpt lat="42.03287301895722" lon="13.773591428080355"><ele>884.0000000000001</ele><time>2026-05-02T11:51:12Z</time></trkpt><trkpt lat="42.03285575117279" lon="13.773726795907228"><ele>884.0</ele><time>2026-05-02T11:51:13Z</time></trkpt><trkpt lat="42.03284616504243" lon="13.773883050782596"><ele>884.0</ele><time>2026-05-02T11:51:14Z</time></trkpt><trkpt lat="42.03281887534888" lon="13.774024570641465"><ele>884.3333333333334</ele><time>2026-05-02T11:51:15Z</time></trkpt><trkpt lat="42.03280485023819" lon="13.774143918717849"><ele>884.6666666666667</ele><time>2026-05-02T11:51:16Z</time></trkpt><trkpt lat="42.03279683160739" lon="13.77423133207139"><ele>885.0</ele><time>2026-05-02T11:51:17Z</time></trkpt><trkpt lat="42.032800854501154" lon="13.774375197771649"><ele>885.3333333333333</ele><time>2026-05-02T11:51:19Z</time></trkpt><trkpt lat="42.03286140319136" lon="13.774520084384063"><ele>885.6666666666666</ele><time>2026-05-02T11:51:21Z</time></trkpt><trkpt lat="42.032909823599695" lon="13.774574467492252"><ele>886.0</ele><time>2026-05-02T11:51:22Z</time></trkpt><trkpt lat="42.032950329391454" lon="13.774641672473093"><ele>886.4</ele><time>2026-05-02T11:51:23Z</time></trkpt><trkpt lat="42.03305126699796" lon="13.774696185204363"><ele>886.8</ele><time>2026-05-02T11:51:25Z</time></trkpt><trkpt lat="42.03312986168655" lon="13.774740579839452"><ele>887.1999999999999</ele><time>2026-05-02T11:51:28Z</time></trkpt><trkpt lat="42.033185266563166" lon="13.77456666723667"><ele>887.5999999999999</ele><time>2026-05-02T11:51:29Z</time></trkpt><trkpt lat="42.033228251942354" lon="13.774489793552306"><ele>888.0</ele><time>2026-05-02T11:51:31Z</time></trkpt><trkpt lat="42.033312245181335" lon="13.77441497984121"><ele>890.0</ele><time>2026-05-02T11:51:33Z</time></trkpt><trkpt lat="42.033360610427074" lon="13.774347673650723"><ele>892.0</ele><time>2026-05-02T11:51:34Z</time></trkpt><trkpt lat="42.03341454416268" lon="13.774276398520822"><ele>894.0</ele><time>2026-05-02T11:51:35Z</time></trkpt><trkpt lat="42.033494068212455" lon="13.774169346290495"><ele>896.0</ele><time>2026-05-02T11:51:37Z</time></trkpt><trkpt lat="42.03353178085998" lon="13.774091255623599"><ele>898.0</ele><time>2026-05-02T11:51:38Z</time></trkpt><trkpt lat="42.03356103767546" lon="13.774002877723996"><ele>900.0</ele><time>2026-05-02T11:51:39Z</time></trkpt><trkpt lat="42.03360442568929" lon="13.773888003853143"><ele>900.0</ele><time>2026-05-02T11:51:40Z</time></trkpt><trkpt lat="42.033627074616625" lon="13.77377960173736"><ele>900.0</ele><time>2026-05-02T11:51:41Z</time></trkpt><trkpt lat="42.03366314651456" lon="13.773680488809262"><ele>900.0</ele><time>2026-05-02T11:51:42Z</time></trkpt><trkpt lat="42.03368723955465" lon="13.773576645426076"><ele>900.0</ele><time>2026-05-02T11:51:43Z</time></trkpt><trkpt lat="42.033721224938596" lon="13.77347044922678"><ele>900.0</ele><time>2026-05-02T11:51:44Z</time></trkpt><trkpt lat="42.03377461310553" lon="13.773352704603024"><ele>900.0</ele><time>2026-05-02T11:51:45Z</time></trkpt><trkpt lat="42.033822536009595" lon="13.77324319679012"><ele>900.0</ele><time>2026-05-02T11:51:46Z</time></trkpt><trkpt lat="42.033881442080926" lon="13.773133835717758"><ele>900.0</ele><time>2026-05-02T11:51:47Z</time></trkpt><trkpt lat="42.03392327103717" lon="13.773014159370664"><ele>900.0</ele><time>2026-05-02T11:51:48Z</time></trkpt><trkpt lat="42.033974403280986" lon="13.772902498098125"><ele>900.0</ele><time>2026-05-02T11:51:49Z</time></trkpt><trkpt lat="42.03402717842737" lon="13.772795065369513"><ele>900.0</ele><time>2026-05-02T11:51:50Z</time></trkpt><trkpt lat="42.03405601394814" lon="13.77267682167198"><ele>900.0</ele><time>2026-05-02T11:51:51Z</time></trkpt><trkpt lat="42.03408872271089" lon="13.772569479807256"><ele>900.0</ele><time>2026-05-02T11:51:52Z</time></trkpt><trkpt lat="42.03409820918767" lon="13.77247824331816"><ele>900.0</ele><time>2026-05-02T11:51:53Z</time></trkpt><trkpt lat="42.03409819904001" lon="13.772308693497727"><ele>900.0</ele><time>2026-05-02T11:51:55Z</time></trkpt><trkpt lat="42.03410832740162" lon="13.772218474868893"><ele>900.0</ele><time>2026-05-02T11:51:56Z</time></trkpt><trkpt lat="42.034097760134955" lon="13.772111332615983"><ele>900.0</ele><time>2026-05-02T11:51:57Z</time></trkpt><trkpt lat="42.03409808750874" lon="13.771988580479244"><ele>900.0</ele><time>2026-05-02T11:51:58Z</time></trkpt><trkpt lat="42.0340649322952" lon="13.77186278715968"><ele>900.0</ele><time>2026-05-02T11:51:59Z</time></trkpt><trkpt lat="42.03404002036256" lon="13.771738558889101"><ele>900.0</ele><time>2026-05-02T11:52:00Z</time></trkpt><trkpt lat="42.03401421129503" lon="13.77160649702752"><ele>900.0</ele><time>2026-05-02T11:52:01Z</time></trkpt><trkpt lat="42.03401620758107" lon="13.771472146702118"><ele>900.0</ele><time>2026-05-02T11:52:02Z</time></trkpt><trkpt lat="42.034013431346054" lon="13.771352066944257"><ele>901.6</ele><time>2026-05-02T11:52:03Z</time></trkpt><trkpt lat="42.03403365111445" lon="13.771228677461359"><ele>903.2</ele><time>2026-05-02T11:52:04Z</time></trkpt><trkpt lat="42.03407030766572" lon="13.771085740495908"><ele>904.8</ele><time>2026-05-02T11:52:05Z</time></trkpt><trkpt lat="42.03409965665554" lon="13.770965446076247"><ele>906.4</ele><time>2026-05-02T11:52:06Z</time></trkpt><trkpt lat="42.034138750021" lon="13.770851306140665"><ele>908.0</ele><time>2026-05-02T11:52:07Z</time></trkpt><trkpt lat="42.03418479972049" lon="13.770727307938746"><ele>912.8</ele><time>2026-05-02T11:52:08Z</time></trkpt><trkpt lat="42.0342251352079" lon="13.770595192436032"><ele>917.5999999999999</ele><time>2026-05-02T11:52:09Z</time></trkpt><trkpt lat="42.03427737059825" lon="13.770476865215615"><ele>922.4000000000001</ele><time>2026-05-02T11:52:10Z</time></trkpt><trkpt lat="42.034310440021144" lon="13.770357744855938"><ele>927.2</ele><time>2026-05-02T11:52:11Z</time></trkpt><trkpt lat="42.03432297429197" lon="13.770234316680488"><ele>932.0</ele><time>2026-05-02T11:52:12Z</time></trkpt><trkpt lat="42.034353170877694" lon="13.770123571291002"><ele>932.6666666666667</ele><time>2026-05-02T11:52:13Z</time></trkpt><trkpt lat="42.0343734671837" lon="13.770007516360948"><ele>933.3333333333334</ele><time>2026-05-02T11:52:14Z</time></trkpt><trkpt lat="42.03439223378123" lon="13.76987028709179"><ele>934.0</ele><time>2026-05-02T11:52:15Z</time></trkpt><trkpt lat="42.034419640979436" lon="13.769747947059127"><ele>934.6666666666667</ele><time>2026-05-02T11:52:16Z</time></trkpt><trkpt lat="42.03444567448986" lon="13.769659705423376"><ele>935.3333333333334</ele><time>2026-05-02T11:52:17Z</time></trkpt><trkpt lat="42.03448759558858" lon="13.769550801781083"><ele>936.0</ele><time>2026-05-02T11:52:19Z</time></trkpt><trkpt lat="42.034487494969845" lon="13.76943912373394"><ele>936.0</ele><time>2026-05-02T11:52:51Z</time></trkpt><trkpt lat="42.03443843763402" lon="13.769492863205476"><ele>935.9999999999999</ele><time>2026-05-02T11:52:55Z</time></trkpt><trkpt lat="42.034474899049954" lon="13.769561964259928"><ele>935.9999999999999</ele><time>2026-05-02T11:53:39Z</time></trkpt><trkpt lat="42.03443956786495" lon="13.769695647894562"><ele>936.0</ele><time>2026-05-02T11:53:41Z</time></trkpt><trkpt lat="42.0344122262221" lon="13.769821810079415"><ele>936.0</ele><time>2026-05-02T11:53:43Z</time></trkpt><trkpt lat="42.034387728780175" lon="13.769985064445486"><ele>936.0</ele><time>2026-05-02T11:53:45Z</time></trkpt><trkpt lat="42.03436827987215" lon="13.770078627694845"><ele>936.0000000000001</ele><time>2026-05-02T11:53:46Z</time></trkpt><trkpt lat="42.03435575396562" lon="13.770164513952425"><ele>936.0</ele><time>2026-05-02T11:53:47Z</time></trkpt><trkpt lat="42.0343422869349" lon="13.770252094276447"><ele>936.0</ele><time>2026-05-02T11:53:48Z</time></trkpt><trkpt lat="42.034317384934454" lon="13.770336550089839"><ele>936.0000000000001</ele><time>2026-05-02T11:53:49Z</time></trkpt><trkpt lat="42.034289614822825" lon="13.770422904464962"><ele>936.0</ele><time>2026-05-02T11:53:50Z</time></trkpt><trkpt lat="42.034235187916615" lon="13.770497920538952"><ele>936.0</ele><time>2026-05-02T11:53:51Z</time></trkpt><trkpt lat="42.034195447223105" lon="13.77062337473409"><ele>935.3333333333334</ele><time>2026-05-02T11:53:53Z</time></trkpt><trkpt lat="42.034144349568216" lon="13.770748166486902"><ele>934.6666666666667</ele><time>2026-05-02T11:53:55Z</time></trkpt><trkpt lat="42.03411089581123" lon="13.7708645254022"><ele>934.0</ele><time>2026-05-02T11:53:56Z</time></trkpt><trkpt lat="42.0340904622651" lon="13.770959237639781"><ele>933.3333333333334</ele><time>2026-05-02T11:53:57Z</time></trkpt><trkpt lat="42.034060094143" lon="13.771054228698796"><ele>932.6666666666667</ele><time>2026-05-02T11:53:58Z</time></trkpt><trkpt lat="42.03404065032702" lon="13.771144569112142"><ele>932.0</ele><time>2026-05-02T11:53:59Z</time></trkpt><trkpt lat="42.034004974220615" lon="13.77122581926626"><ele>928.0000000000001</ele><time>2026-05-02T11:54:00Z</time></trkpt><trkpt lat="42.03398809537318" lon="13.771327680777404"><ele>924.0</ele><time>2026-05-02T11:54:01Z</time></trkpt><trkpt lat="42.03398178144145" lon="13.771427308259842"><ele>920.0</ele><time>2026-05-02T11:54:02Z</time></trkpt><trkpt lat="42.03398529969708" lon="13.771527113522199"><ele>916.0</ele><time>2026-05-02T11:54:03Z</time></trkpt><trkpt lat="42.03399521857075" lon="13.771636895869035"><ele>912.0000000000001</ele><time>2026-05-02T11:54:04Z</time></trkpt><trkpt lat="42.03401195122128" lon="13.771746204153931"><ele>908.0</ele><time>2026-05-02T11:54:05Z</time></trkpt><trkpt lat="42.03404685579097" lon="13.771857003310956"><ele>906.6666666666667</ele><time>2026-05-02T11:54:06Z</time></trkpt><trkpt lat="42.03405036743469" lon="13.771972263011998"><ele>905.3333333333334</ele><time>2026-05-02T11:54:07Z</time></trkpt><trkpt lat="42.03406043700826" lon="13.772077465488874"><ele>904.0</ele><time>2026-05-02T11:54:08Z</time></trkpt><trkpt lat="42.034075164261495" lon="13.772183290035969"><ele>902.6666666666667</ele><time>2026-05-02T11:54:09Z</time></trkpt><trkpt lat="42.03407937484127" lon="13.772274425083856"><ele>901.3333333333334</ele><time>2026-05-02T11:54:10Z</time></trkpt><trkpt lat="42.03405758188404" lon="13.772404007321223"><ele>900.0</ele><time>2026-05-02T11:54:12Z</time></trkpt><trkpt lat="42.0340375147153" lon="13.772550964284124"><ele>900.0</ele><time>2026-05-02T11:54:14Z</time></trkpt><trkpt lat="42.034046637756006" lon="13.772643420238229"><ele>900.0</ele><time>2026-05-02T11:54:15Z</time></trkpt><trkpt lat="42.03401670553419" lon="13.772818316146914"><ele>900.0</ele><time>2026-05-02T11:54:17Z</time></trkpt><trkpt lat="42.03398896539873" lon="13.772910522905143"><ele>900.0</ele><time>2026-05-02T11:54:18Z</time></trkpt><trkpt lat="42.03394719386555" lon="13.772991707567458"><ele>900.0</ele><time>2026-05-02T11:54:19Z</time></trkpt><trkpt lat="42.03387619053534" lon="13.773117071674344"><ele>900.0</ele><time>2026-05-02T11:54:21Z</time></trkpt><trkpt lat="42.03382332516795" lon="13.773260712915718"><ele>900.0</ele><time>2026-05-02T11:54:23Z</time></trkpt><trkpt lat="42.03377541672411" lon="13.773372594528164"><ele>900.0</ele><time>2026-05-02T11:54:25Z</time></trkpt><trkpt lat="42.033731417151635" lon="13.773493439372007"><ele>900.0</ele><time>2026-05-02T11:54:27Z</time></trkpt><trkpt lat="42.03368162027903" lon="13.773630996035969"><ele>900.0</ele><time>2026-05-02T11:54:29Z</time></trkpt><trkpt lat="42.03364905391342" lon="13.773767832207621"><ele>900.0</ele><time>2026-05-02T11:54:31Z</time></trkpt><trkpt lat="42.033599402962764" lon="13.77389505478503"><ele>900.0</ele><time>2026-05-02T11:54:33Z</time></trkpt><trkpt lat="42.033565495462575" lon="13.774033250622033"><ele>900.0</ele><time>2026-05-02T11:54:35Z</time></trkpt><trkpt lat="42.03346973441467" lon="13.774098543124785"><ele>900.0</ele><time>2026-05-02T11:54:37Z</time></trkpt><trkpt lat="42.033424010490776" lon="13.77417280917278"><ele>900.0</ele><time>2026-05-02T11:54:39Z</time></trkpt><trkpt lat="42.03335018042692" lon="13.774265807801637"><ele>897.8</ele><time>2026-05-02T11:54:41Z</time></trkpt><trkpt lat="42.03330016338822" lon="13.774335056633127"><ele>895.6</ele><time>2026-05-02T11:54:42Z</time></trkpt><trkpt lat="42.03326152084061" lon="13.774413928518268"><ele>893.4000000000001</ele><time>2026-05-02T11:54:43Z</time></trkpt><trkpt lat="42.033161052457004" lon="13.774507204970915"><ele>891.2</ele><time>2026-05-02T11:54:45Z</time></trkpt><trkpt lat="42.03309453057904" lon="13.774567730884604"><ele>889.0</ele><time>2026-05-02T11:54:47Z</time></trkpt><trkpt lat="42.033188689221404" lon="13.774721820284633"><ele>888.8000000000001</ele><time>2026-05-02T11:54:53Z</time></trkpt><trkpt lat="42.03331204006336" lon="13.774715130882235"><ele>888.6000000000001</ele><time>2026-05-02T11:54:55Z</time></trkpt><trkpt lat="42.03338042947312" lon="13.77472219465469"><ele>888.4</ele><time>2026-05-02T11:54:56Z</time></trkpt><trkpt lat="42.03349989365604" lon="13.774731463951777"><ele>888.2</ele><time>2026-05-02T11:54:58Z</time></trkpt><trkpt lat="42.033607002613145" lon="13.774751525090695"><ele>888.0</ele><time>2026-05-02T11:55:00Z</time></trkpt><trkpt lat="42.03366996582595" lon="13.774740257323193"><ele>888.0</ele><time>2026-05-02T11:58:59Z</time></trkpt><trkpt lat="42.03374345309344" lon="13.77473894205096"><ele>888.0</ele><time>2026-05-02T11:59:01Z</time></trkpt><trkpt lat="42.03380038633974" lon="13.7747765624686"><ele>888.0</ele><time>2026-05-02T11:59:05Z</time></trkpt><trkpt lat="42.03388408128457" lon="13.774762978239439"><ele>888.0</ele><time>2026-05-02T11:59:15Z</time></trkpt><trkpt lat="42.033984241224196" lon="13.774774520105638"><ele>888.0</ele><time>2026-05-02T11:59:17Z</time></trkpt><trkpt lat="42.03405538543821" lon="13.774781812747229"><ele>888.0</ele><time>2026-05-02T11:59:18Z</time></trkpt><trkpt lat="42.03414422550808" lon="13.774790348981982"><ele>887.4</ele><time>2026-05-02T11:59:19Z</time></trkpt><trkpt lat="42.03422996570383" lon="13.774777984241165"><ele>886.8</ele><time>2026-05-02T11:59:20Z</time></trkpt><trkpt lat="42.03432254335645" lon="13.774808489447894"><ele>886.2</ele><time>2026-05-02T11:59:21Z</time></trkpt><trkpt lat="42.03442205516335" lon="13.774825288616807"><ele>885.6</ele><time>2026-05-02T11:59:22Z</time></trkpt><trkpt lat="42.034499551097284" lon="13.774846254990567"><ele>885.0</ele><time>2026-05-02T11:59:23Z</time></trkpt><trkpt lat="42.03461234589574" lon="13.774850585418807"><ele>885.0</ele><time>2026-05-02T11:59:24Z</time></trkpt><trkpt lat="42.03471944365494" lon="13.774891852898966"><ele>885.0</ele><time>2026-05-02T11:59:25Z</time></trkpt><trkpt lat="42.03484487012053" lon="13.774886844937567"><ele>885.0</ele><time>2026-05-02T11:59:26Z</time></trkpt><trkpt lat="42.03496889265675" lon="13.774883827989205"><ele>885.0</ele><time>2026-05-02T11:59:27Z</time></trkpt><trkpt lat="42.03510232510166" lon="13.774890961112153"><ele>885.2</ele><time>2026-05-02T11:59:28Z</time></trkpt><trkpt lat="42.03521996258372" lon="13.774909652236204"><ele>885.4</ele><time>2026-05-02T11:59:29Z</time></trkpt><trkpt lat="42.03532460032876" lon="13.774925340897589"><ele>885.5999999999999</ele><time>2026-05-02T11:59:30Z</time></trkpt><trkpt lat="42.035423056627174" lon="13.774943094945117"><ele>885.8</ele><time>2026-05-02T11:59:31Z</time></trkpt><trkpt lat="42.03549964665234" lon="13.774955326329609"><ele>886.0</ele><time>2026-05-02T11:59:32Z</time></trkpt><trkpt lat="42.035567726905114" lon="13.774952121931031"><ele>886.0</ele><time>2026-05-02T11:59:33Z</time></trkpt><trkpt lat="42.035627601139794" lon="13.774913472606407"><ele>885.9999999999999</ele><time>2026-05-02T11:59:34Z</time></trkpt><trkpt lat="42.03566155145722" lon="13.774833848922917"><ele>885.9999999999999</ele><time>2026-05-02T11:59:35Z</time></trkpt><trkpt lat="42.03578463510731" lon="13.774761906532985"><ele>886.0</ele><time>2026-05-02T11:59:37Z</time></trkpt><trkpt lat="42.03587498515428" lon="13.774750868012513"><ele>886.0</ele><time>2026-05-02T11:59:38Z</time></trkpt><trkpt lat="42.035989174287465" lon="13.774767863777653"><ele>886.5</ele><time>2026-05-02T11:59:39Z</time></trkpt><trkpt lat="42.0361129526128" lon="13.774776146596093"><ele>887.0</ele><time>2026-05-02T11:59:40Z</time></trkpt><trkpt lat="42.03623173514244" lon="13.774782952961214"><ele>887.5</ele><time>2026-05-02T11:59:41Z</time></trkpt><trkpt lat="42.036349955397895" lon="13.774805398696872"><ele>888.0</ele><time>2026-05-02T11:59:42Z</time></trkpt><trkpt lat="42.03649001211777" lon="13.774810996924572"><ele>888.0</ele><time>2026-05-02T11:59:43Z</time></trkpt><trkpt lat="42.036617203131634" lon="13.774824010593866"><ele>888.0</ele><time>2026-05-02T11:59:44Z</time></trkpt><trkpt lat="42.03675629475667" lon="13.774835376536503"><ele>888.0</ele><time>2026-05-02T11:59:45Z</time></trkpt><trkpt lat="42.03691186249817" lon="13.774836334615165"><ele>888.0</ele><time>2026-05-02T11:59:46Z</time></trkpt><trkpt lat="42.03707038988827" lon="13.774841042847171"><ele>889.0</ele><time>2026-05-02T11:59:47Z</time></trkpt><trkpt lat="42.03722274056616" lon="13.77486128574475"><ele>890.0</ele><time>2026-05-02T11:59:48Z</time></trkpt><trkpt lat="42.03738054049887" lon="13.774877614173407"><ele>891.0</ele><time>2026-05-02T11:59:49Z</time></trkpt><trkpt lat="42.03754099685843" lon="13.774886486388803"><ele>891.0</ele><time>2026-05-02T11:59:50Z</time></trkpt><trkpt lat="42.03770528441321" lon="13.77489342922794"><ele>891.0</ele><time>2026-05-02T11:59:51Z</time></trkpt><trkpt lat="42.0378710198337" lon="13.774895207657242"><ele>891.0</ele><time>2026-05-02T11:59:52Z</time></trkpt><trkpt lat="42.03802249915087" lon="13.774910707613872"><ele>891.0</ele><time>2026-05-02T11:59:53Z</time></trkpt><trkpt lat="42.038163768845564" lon="13.7749164765663"><ele>891.0</ele><time>2026-05-02T11:59:54Z</time></trkpt><trkpt lat="42.03829263642246" lon="13.774941181292494"><ele>891.0</ele><time>2026-05-02T11:59:55Z</time></trkpt><trkpt lat="42.03841597061145" lon="13.774977144331547"><ele>891.0</ele><time>2026-05-02T11:59:56Z</time></trkpt><trkpt lat="42.03853960964223" lon="13.775028498611078"><ele>892.0</ele><time>2026-05-02T11:59:57Z</time></trkpt><trkpt lat="42.03865750074861" lon="13.775125534057079"><ele>893.0</ele><time>2026-05-02T11:59:58Z</time></trkpt><trkpt lat="42.03878584427067" lon="13.77520568665354"><ele>894.0</ele><time>2026-05-02T11:59:59Z</time></trkpt><trkpt lat="42.03891173558695" lon="13.77528785906692"><ele>895.0</ele><time>2026-05-02T12:00:00Z</time></trkpt><trkpt lat="42.03904760689793" lon="13.775379051602915"><ele>892.0</ele><time>2026-05-02T12:00:01Z</time></trkpt><trkpt lat="42.03918151746093" lon="13.775469032536943"><ele>889.0</ele><time>2026-05-02T12:00:02Z</time></trkpt><trkpt lat="42.03932314063422" lon="13.775564195813748"><ele>886.0</ele><time>2026-05-02T12:00:03Z</time></trkpt><trkpt lat="42.03946332063168" lon="13.775658389339245"><ele>886.0</ele><time>2026-05-02T12:00:04Z</time></trkpt><trkpt lat="42.03961236045551" lon="13.775754176841271"><ele>886.0</ele><time>2026-05-02T12:00:05Z</time></trkpt><trkpt lat="42.03976086932038" lon="13.775847697026675"><ele>886.0</ele><time>2026-05-02T12:00:06Z</time></trkpt><trkpt lat="42.03991263772404" lon="13.775932916377538"><ele>887.3333333333333</ele><time>2026-05-02T12:00:07Z</time></trkpt><trkpt lat="42.04006742790816" lon="13.77600018320512"><ele>888.6666666666667</ele><time>2026-05-02T12:00:08Z</time></trkpt><trkpt lat="42.040207255921864" lon="13.776095095096155"><ele>890.0</ele><time>2026-05-02T12:00:09Z</time></trkpt><trkpt lat="42.040340798719384" lon="13.776169875447456"><ele>889.25</ele><time>2026-05-02T12:00:10Z</time></trkpt><trkpt lat="42.040481660599994" lon="13.776235297250853"><ele>888.5</ele><time>2026-05-02T12:00:11Z</time></trkpt><trkpt lat="42.040607944219296" lon="13.776281588292887"><ele>887.75</ele><time>2026-05-02T12:00:12Z</time></trkpt><trkpt lat="42.04072533052891" lon="13.776322578697824"><ele>887.0</ele><time>2026-05-02T12:00:13Z</time></trkpt><trkpt lat="42.040830988185604" lon="13.776379813654184"><ele>887.0</ele><time>2026-05-02T12:00:14Z</time></trkpt><trkpt lat="42.04094330344464" lon="13.776407915287873"><ele>887.0</ele><time>2026-05-02T12:00:15Z</time></trkpt><trkpt lat="42.04105903462985" lon="13.77637715520249"><ele>887.0</ele><time>2026-05-02T12:00:16Z</time></trkpt><trkpt lat="42.04115884195406" lon="13.776413129889043"><ele>887.0</ele><time>2026-05-02T12:00:17Z</time></trkpt><trkpt lat="42.04125176941086" lon="13.776451337839728"><ele>887.0</ele><time>2026-05-02T12:00:18Z</time></trkpt><trkpt lat="42.04132084616216" lon="13.776529720090897"><ele>887.0</ele><time>2026-05-02T12:00:19Z</time></trkpt><trkpt lat="42.041381804722484" lon="13.776589853123513"><ele>887.0</ele><time>2026-05-02T12:00:20Z</time></trkpt><trkpt lat="42.04140620823185" lon="13.776685552999556"><ele>887.0</ele><time>2026-05-02T12:00:22Z</time></trkpt><trkpt lat="42.0413420597813" lon="13.77682797354479"><ele>887.0</ele><time>2026-05-02T12:00:24Z</time></trkpt><trkpt lat="42.04129849782472" lon="13.776934206272445"><ele>887.0</ele><time>2026-05-02T12:00:25Z</time></trkpt><trkpt lat="42.041258531093014" lon="13.77703536834171"><ele>885.6</ele><time>2026-05-02T12:00:26Z</time></trkpt><trkpt lat="42.04122712402245" lon="13.777118201107369"><ele>884.2</ele><time>2026-05-02T12:00:27Z</time></trkpt><trkpt lat="42.04117026920737" lon="13.777233162767267"><ele>882.8</ele><time>2026-05-02T12:00:29Z</time></trkpt><trkpt lat="42.04113338665878" lon="13.77732076938618"><ele>881.4</ele><time>2026-05-02T12:00:36Z</time></trkpt><trkpt lat="42.04127830651519" lon="13.777407778573087"><ele>880.0</ele><time>2026-05-02T12:02:12Z</time></trkpt><trkpt lat="42.041349310692496" lon="13.777450046535272"><ele>880.0</ele><time>2026-05-02T12:02:13Z</time></trkpt><trkpt lat="42.041430713980574" lon="13.777505371595536"><ele>880.0</ele><time>2026-05-02T12:02:14Z</time></trkpt><trkpt lat="42.0415081659721" lon="13.777598465735299"><ele>880.0</ele><time>2026-05-02T12:02:15Z</time></trkpt><trkpt lat="42.041605102528905" lon="13.777670692292311"><ele>880.0</ele><time>2026-05-02T12:02:16Z</time></trkpt><trkpt lat="42.041709615695886" lon="13.777748563986362"><ele>880.0</ele><time>2026-05-02T12:02:17Z</time></trkpt><trkpt lat="42.04182005014822" lon="13.777807079187456"><ele>880.25</ele><time>2026-05-02T12:02:18Z</time></trkpt><trkpt lat="42.041927288389616" lon="13.777896338652262"><ele>880.5</ele><time>2026-05-02T12:02:19Z</time></trkpt><trkpt lat="42.042051344592316" lon="13.777981623628104"><ele>880.75</ele><time>2026-05-02T12:02:20Z</time></trkpt><trkpt lat="42.04216346374234" lon="13.77807512960984"><ele>881.0</ele><time>2026-05-02T12:02:21Z</time></trkpt><trkpt lat="42.04227593565307" lon="13.778175205198368"><ele>881.0</ele><time>2026-05-02T12:02:22Z</time></trkpt><trkpt lat="42.04240210618111" lon="13.77827105809436"><ele>881.0</ele><time>2026-05-02T12:02:23Z</time></trkpt><trkpt lat="42.042521905365355" lon="13.778359097624556"><ele>881.0</ele><time>2026-05-02T12:02:24Z</time></trkpt><trkpt lat="42.04264145442233" lon="13.778447852867199"><ele>881.0</ele><time>2026-05-02T12:02:25Z</time></trkpt><trkpt lat="42.04274443987491" lon="13.77853377333615"><ele>882.25</ele><time>2026-05-02T12:02:26Z</time></trkpt><trkpt lat="42.04282824653384" lon="13.778623303925267"><ele>883.5</ele><time>2026-05-02T12:02:27Z</time></trkpt><trkpt lat="42.04290173045605" lon="13.778741120409611"><ele>884.75</ele><time>2026-05-02T12:02:28Z</time></trkpt><trkpt lat="42.04293399575141" lon="13.778888849197005"><ele>886.0</ele><time>2026-05-02T12:02:29Z</time></trkpt><trkpt lat="42.04291818923761" lon="13.779049842070068"><ele>886.0</ele><time>2026-05-02T12:02:30Z</time></trkpt><trkpt lat="42.042874581061554" lon="13.779194378128857"><ele>886.0</ele><time>2026-05-02T12:02:31Z</time></trkpt><trkpt lat="42.04279717484175" lon="13.77934225790368"><ele>886.0</ele><time>2026-05-02T12:02:32Z</time></trkpt><trkpt lat="42.04271020128567" lon="13.77949068358801"><ele>886.0</ele><time>2026-05-02T12:02:33Z</time></trkpt><trkpt lat="42.042624319786114" lon="13.779648811166291"><ele>884.6666666666666</ele><time>2026-05-02T12:02:34Z</time></trkpt><trkpt lat="42.04252858649884" lon="13.7798069324597"><ele>883.3333333333333</ele><time>2026-05-02T12:02:35Z</time></trkpt><trkpt lat="42.0424294756852" lon="13.779974699348855"><ele>882.0</ele><time>2026-05-02T12:02:36Z</time></trkpt><trkpt lat="42.04233287873715" lon="13.780145867285148"><ele>888.0</ele><time>2026-05-02T12:02:37Z</time></trkpt><trkpt lat="42.042235567290454" lon="13.780304794007128"><ele>894.0</ele><time>2026-05-02T12:02:38Z</time></trkpt><trkpt lat="42.04212567075922" lon="13.78046097607498"><ele>900.0</ele><time>2026-05-02T12:02:39Z</time></trkpt><trkpt lat="42.04198656484157" lon="13.780598548742145"><ele>900.0</ele><time>2026-05-02T12:02:40Z</time></trkpt><trkpt lat="42.04183792759607" lon="13.780700493603941"><ele>900.0</ele><time>2026-05-02T12:02:41Z</time></trkpt><trkpt lat="42.04167800549361" lon="13.780801301692744"><ele>900.0</ele><time>2026-05-02T12:02:42Z</time></trkpt><trkpt lat="42.04153448957656" lon="13.780912709978944"><ele>902.3333333333333</ele><time>2026-05-02T12:02:43Z</time></trkpt><trkpt lat="42.04138135373137" lon="13.781032347073833"><ele>904.6666666666666</ele><time>2026-05-02T12:02:44Z</time></trkpt><trkpt lat="42.04121797855553" lon="13.78112474562185"><ele>907.0</ele><time>2026-05-02T12:02:45Z</time></trkpt><trkpt lat="42.04106576478364" lon="13.781256821101781"><ele>907.0</ele><time>2026-05-02T12:02:46Z</time></trkpt><trkpt lat="42.04092315202421" lon="13.78142280597863"><ele>907.0</ele><time>2026-05-02T12:02:47Z</time></trkpt><trkpt lat="42.0407810956923" lon="13.781571772717124"><ele>907.0</ele><time>2026-05-02T12:02:48Z</time></trkpt><trkpt lat="42.040629896101244" lon="13.781707195113913"><ele>908.0</ele><time>2026-05-02T12:02:49Z</time></trkpt><trkpt lat="42.04049166715464" lon="13.781862917672486"><ele>909.0</ele><time>2026-05-02T12:02:50Z</time></trkpt><trkpt lat="42.040354443280464" lon="13.78202600421035"><ele>910.0</ele><time>2026-05-02T12:02:51Z</time></trkpt><trkpt lat="42.04021838601348" lon="13.78219274391764"><ele>910.0</ele><time>2026-05-02T12:02:52Z</time></trkpt><trkpt lat="42.040084103583546" lon="13.782365230525107"><ele>910.0</ele><time>2026-05-02T12:02:53Z</time></trkpt><trkpt lat="42.039958715034864" lon="13.782531085249937"><ele>910.0</ele><time>2026-05-02T12:02:54Z</time></trkpt><trkpt lat="42.03982627422191" lon="13.7826959462604"><ele>913.6666666666666</ele><time>2026-05-02T12:02:55Z</time></trkpt><trkpt lat="42.03967584243502" lon="13.782820741502816"><ele>917.3333333333333</ele><time>2026-05-02T12:02:56Z</time></trkpt><trkpt lat="42.03950436329926" lon="13.782888892470952"><ele>921.0</ele><time>2026-05-02T12:02:57Z</time></trkpt><trkpt lat="42.039335772370684" lon="13.782962488136205"><ele>921.0</ele><time>2026-05-02T12:02:58Z</time></trkpt><trkpt lat="42.039163239768975" lon="13.78304668659644"><ele>921.0</ele><time>2026-05-02T12:02:59Z</time></trkpt><trkpt lat="42.03898476132004" lon="13.783104025067578"><ele>921.0</ele><time>2026-05-02T12:03:00Z</time></trkpt><trkpt lat="42.03881080230899" lon="13.78316664010535"><ele>920.3333333333333</ele><time>2026-05-02T12:03:01Z</time></trkpt><trkpt lat="42.03863097946982" lon="13.783232510955557"><ele>919.6666666666666</ele><time>2026-05-02T12:03:02Z</time></trkpt><trkpt lat="42.038447220700384" lon="13.78328406227174"><ele>919.0</ele><time>2026-05-02T12:03:03Z</time></trkpt><trkpt lat="42.03827946773059" lon="13.783305879904686"><ele>919.0</ele><time>2026-05-02T12:03:04Z</time></trkpt><trkpt lat="42.03811242058357" lon="13.78331373824948"><ele>919.0</ele><time>2026-05-02T12:03:05Z</time></trkpt><trkpt lat="42.03794337103981" lon="13.783286492828207"><ele>919.0</ele><time>2026-05-02T12:03:06Z</time></trkpt><trkpt lat="42.0377803271881" lon="13.783231037184752"><ele>919.0</ele><time>2026-05-02T12:03:07Z</time></trkpt><trkpt lat="42.03760262297726" lon="13.783195859123753"><ele>919.0</ele><time>2026-05-02T12:03:08Z</time></trkpt><trkpt lat="42.03742250314857" lon="13.783180473191063"><ele>919.0</ele><time>2026-05-02T12:03:09Z</time></trkpt><trkpt lat="42.03724590086824" lon="13.783170717911766"><ele>918.3333333333333</ele><time>2026-05-02T12:03:10Z</time></trkpt><trkpt lat="42.03707167266125" lon="13.783176732938758"><ele>917.6666666666667</ele><time>2026-05-02T12:03:11Z</time></trkpt><trkpt lat="42.03689786315674" lon="13.783209437763343"><ele>917.0</ele><time>2026-05-02T12:03:12Z</time></trkpt><trkpt lat="42.036740830483694" lon="13.783292328881673"><ele>915.75</ele><time>2026-05-02T12:03:13Z</time></trkpt><trkpt lat="42.036591904755745" lon="13.783369870390597"><ele>914.5</ele><time>2026-05-02T12:03:14Z</time></trkpt><trkpt lat="42.03645970191179" lon="13.783455171415987"><ele>913.25</ele><time>2026-05-02T12:03:15Z</time></trkpt><trkpt lat="42.03633793005288" lon="13.7835189499785"><ele>912.0</ele><time>2026-05-02T12:03:16Z</time></trkpt><trkpt lat="42.03625102977497" lon="13.783610827960677"><ele>912.0</ele><time>2026-05-02T12:03:17Z</time></trkpt><trkpt lat="42.03619567224646" lon="13.783746355688452"><ele>912.0</ele><time>2026-05-02T12:03:18Z</time></trkpt><trkpt lat="42.03618693893661" lon="13.783903917229363"><ele>912.0</ele><time>2026-05-02T12:03:19Z</time></trkpt><trkpt lat="42.0362086964285" lon="13.784044948795062"><ele>912.0</ele><time>2026-05-02T12:03:20Z</time></trkpt><trkpt lat="42.036279127577565" lon="13.78416873805206"><ele>912.0</ele><time>2026-05-02T12:03:21Z</time></trkpt><trkpt lat="42.036394840217" lon="13.7842294117138"><ele>912.0</ele><time>2026-05-02T12:03:22Z</time></trkpt><trkpt lat="42.0365080208349" lon="13.784251490797232"><ele>912.0</ele><time>2026-05-02T12:03:23Z</time></trkpt><trkpt lat="42.03661667045381" lon="13.784198173849964"><ele>912.0</ele><time>2026-05-02T12:03:24Z</time></trkpt><trkpt lat="42.03669885400352" lon="13.784110962631518"><ele>916.0</ele><time>2026-05-02T12:03:25Z</time></trkpt><trkpt lat="42.03677013573734" lon="13.78396650263812"><ele>920.0</ele><time>2026-05-02T12:03:26Z</time></trkpt><trkpt lat="42.036826587903704" lon="13.78379402210058"><ele>924.0</ele><time>2026-05-02T12:03:27Z</time></trkpt><trkpt lat="42.03691346070161" lon="13.783671157126923"><ele>928.0</ele><time>2026-05-02T12:03:28Z</time></trkpt><trkpt lat="42.037033528615865" lon="13.783562509160193"><ele>928.0</ele><time>2026-05-02T12:03:29Z</time></trkpt><trkpt lat="42.037188064453055" lon="13.783535744834344"><ele>928.0</ele><time>2026-05-02T12:03:30Z</time></trkpt><trkpt lat="42.037343150588356" lon="13.783493331833217"><ele>928.0</ele><time>2026-05-02T12:03:31Z</time></trkpt><trkpt lat="42.03750143181201" lon="13.783480195891306"><ele>925.0</ele><time>2026-05-02T12:03:32Z</time></trkpt><trkpt lat="42.03766547282204" lon="13.783475493768869"><ele>922.0</ele><time>2026-05-02T12:03:33Z</time></trkpt><trkpt lat="42.03783441907088" lon="13.783502390051819"><ele>919.0</ele><time>2026-05-02T12:03:34Z</time></trkpt><trkpt lat="42.03800339032853" lon="13.783560166289707"><ele>927.0</ele><time>2026-05-02T12:03:35Z</time></trkpt><trkpt lat="42.038182450485756" lon="13.783594618423319"><ele>935.0</ele><time>2026-05-02T12:03:36Z</time></trkpt><trkpt lat="42.038358716691185" lon="13.783628017864917"><ele>943.0</ele><time>2026-05-02T12:03:37Z</time></trkpt><trkpt lat="42.03854151873925" lon="13.78366119634854"><ele>946.6666666666666</ele><time>2026-05-02T12:03:38Z</time></trkpt><trkpt lat="42.03872814460751" lon="13.783630161990958"><ele>950.3333333333333</ele><time>2026-05-02T12:03:39Z</time></trkpt><trkpt lat="42.03891320639299" lon="13.783616791024619"><ele>954.0</ele><time>2026-05-02T12:03:40Z</time></trkpt><trkpt lat="42.03909689891132" lon="13.783560841506297"><ele>955.6666666666667</ele><time>2026-05-02T12:03:41Z</time></trkpt><trkpt lat="42.03929076858885" lon="13.783546623734683"><ele>957.3333333333334</ele><time>2026-05-02T12:03:42Z</time></trkpt><trkpt lat="42.0394852812579" lon="13.783511388112018"><ele>959.0</ele><time>2026-05-02T12:03:43Z</time></trkpt><trkpt lat="42.03967746403299" lon="13.783472142366378"><ele>950.6666666666667</ele><time>2026-05-02T12:03:44Z</time></trkpt><trkpt lat="42.03987286976269" lon="13.783403709898401"><ele>942.3333333333333</ele><time>2026-05-02T12:03:45Z</time></trkpt><trkpt lat="42.04006588900858" lon="13.783325311602725"><ele>934.0</ele><time>2026-05-02T12:03:46Z</time></trkpt><trkpt lat="42.040239950359926" lon="13.783185631242112"><ele>934.0</ele><time>2026-05-02T12:03:47Z</time></trkpt><trkpt lat="42.040397860601786" lon="13.783033562237863"><ele>934.0</ele><time>2026-05-02T12:03:48Z</time></trkpt><trkpt lat="42.040557675006625" lon="13.782876134300501"><ele>934.0</ele><time>2026-05-02T12:03:49Z</time></trkpt><trkpt lat="42.04072910783471" lon="13.782747395419124"><ele>933.3333333333333</ele><time>2026-05-02T12:03:50Z</time></trkpt><trkpt lat="42.04090018527197" lon="13.782626499332356"><ele>932.6666666666667</ele><time>2026-05-02T12:03:51Z</time></trkpt><trkpt lat="42.04107507104817" lon="13.782512840215317"><ele>932.0</ele><time>2026-05-02T12:03:52Z</time></trkpt><trkpt lat="42.04124585092822" lon="13.782380915336333"><ele>932.0</ele><time>2026-05-02T12:03:53Z</time></trkpt><trkpt lat="42.041425489719636" lon="13.782278781173144"><ele>932.0</ele><time>2026-05-02T12:03:54Z</time></trkpt><trkpt lat="42.04160229639527" lon="13.782175599199483"><ele>932.0</ele><time>2026-05-02T12:03:55Z</time></trkpt><trkpt lat="42.04177533190065" lon="13.782073936649013"><ele>939.6666666666667</ele><time>2026-05-02T12:03:56Z</time></trkpt><trkpt lat="42.04195141545673" lon="13.781981227832832"><ele>947.3333333333333</ele><time>2026-05-02T12:03:57Z</time></trkpt><trkpt lat="42.042131705136036" lon="13.781906976262855"><ele>955.0</ele><time>2026-05-02T12:03:58Z</time></trkpt><trkpt lat="42.04230983138507" lon="13.781868286246494"><ele>959.6666666666666</ele><time>2026-05-02T12:03:59Z</time></trkpt><trkpt lat="42.042473429203476" lon="13.781866190361397"><ele>964.3333333333333</ele><time>2026-05-02T12:04:00Z</time></trkpt><trkpt lat="42.04262668953711" lon="13.781914955426032"><ele>969.0</ele><time>2026-05-02T12:04:01Z</time></trkpt><trkpt lat="42.04276201262448" lon="13.782035046840655"><ele>969.0</ele><time>2026-05-02T12:04:02Z</time></trkpt><trkpt lat="42.04289895935913" lon="13.78209168492493"><ele>969.0</ele><time>2026-05-02T12:04:03Z</time></trkpt><trkpt lat="42.04304600765301" lon="13.78210584221483"><ele>969.0</ele><time>2026-05-02T12:04:04Z</time></trkpt><trkpt lat="42.043196980195525" lon="13.782071477024942"><ele>969.0</ele><time>2026-05-02T12:04:05Z</time></trkpt><trkpt lat="42.0433602885739" lon="13.781991668558055"><ele>971.0</ele><time>2026-05-02T12:04:06Z</time></trkpt><trkpt lat="42.043540776335206" lon="13.781942658927225"><ele>973.0</ele><time>2026-05-02T12:04:07Z</time></trkpt><trkpt lat="42.043714496262695" lon="13.781839002388066"><ele>975.0</ele><time>2026-05-02T12:04:08Z</time></trkpt><trkpt lat="42.043876250896346" lon="13.781687536626716"><ele>971.6666666666667</ele><time>2026-05-02T12:04:09Z</time></trkpt><trkpt lat="42.044037255995995" lon="13.78151280067816"><ele>968.3333333333334</ele><time>2026-05-02T12:04:10Z</time></trkpt><trkpt lat="42.044205606826274" lon="13.781334228590875"><ele>965.0</ele><time>2026-05-02T12:04:11Z</time></trkpt><trkpt lat="42.04437699671664" lon="13.781162765107549"><ele>958.3333333333334</ele><time>2026-05-02T12:04:12Z</time></trkpt><trkpt lat="42.04454023393813" lon="13.780974443351372"><ele>951.6666666666667</ele><time>2026-05-02T12:04:13Z</time></trkpt><trkpt lat="42.044700185318646" lon="13.780809309947632"><ele>945.0</ele><time>2026-05-02T12:04:14Z</time></trkpt><trkpt lat="42.04486048903205" lon="13.780640629481075"><ele>948.6666666666667</ele><time>2026-05-02T12:04:15Z</time></trkpt><trkpt lat="42.04500999207025" lon="13.780455056598962"><ele>952.3333333333334</ele><time>2026-05-02T12:04:16Z</time></trkpt><trkpt lat="42.04514975864522" lon="13.780254340295123"><ele>956.0</ele><time>2026-05-02T12:04:17Z</time></trkpt><trkpt lat="42.04529355309388" lon="13.780053439761229"><ele>956.0</ele><time>2026-05-02T12:04:18Z</time></trkpt><trkpt lat="42.04544820597641" lon="13.779860200203824"><ele>956.0</ele><time>2026-05-02T12:04:19Z</time></trkpt><trkpt lat="42.04559302812966" lon="13.779666837117995"><ele>956.0</ele><time>2026-05-02T12:04:20Z</time></trkpt><trkpt lat="42.045735419089304" lon="13.779468019876626"><ele>960.0</ele><time>2026-05-02T12:04:21Z</time></trkpt><trkpt lat="42.045880322434456" lon="13.779273314755073"><ele>964.0</ele><time>2026-05-02T12:04:22Z</time></trkpt><trkpt lat="42.04603268836067" lon="13.779088803820882"><ele>968.0</ele><time>2026-05-02T12:04:23Z</time></trkpt><trkpt lat="42.046185175078485" lon="13.778907779985785"><ele>968.0</ele><time>2026-05-02T12:04:24Z</time></trkpt><trkpt lat="42.04634076124837" lon="13.778732256122275"><ele>968.0</ele><time>2026-05-02T12:04:25Z</time></trkpt><trkpt lat="42.04648403779716" lon="13.778540044466883"><ele>968.0</ele><time>2026-05-02T12:04:26Z</time></trkpt><trkpt lat="42.04662074477884" lon="13.778342529484686"><ele>972.0</ele><time>2026-05-02T12:04:27Z</time></trkpt><trkpt lat="42.04675728127874" lon="13.7781421565727"><ele>976.0</ele><time>2026-05-02T12:04:28Z</time></trkpt><trkpt lat="42.04690375179575" lon="13.777954728470808"><ele>980.0</ele><time>2026-05-02T12:04:29Z</time></trkpt><trkpt lat="42.0470500481847" lon="13.777766865577966"><ele>983.0</ele><time>2026-05-02T12:04:30Z</time></trkpt><trkpt lat="42.04719692036928" lon="13.77758231996412"><ele>986.0</ele><time>2026-05-02T12:04:31Z</time></trkpt><trkpt lat="42.04733132989452" lon="13.77741075725734"><ele>989.0</ele><time>2026-05-02T12:04:32Z</time></trkpt><trkpt lat="42.04747805161378" lon="13.777268219808665"><ele>989.0</ele><time>2026-05-02T12:04:33Z</time></trkpt><trkpt lat="42.047637493230795" lon="13.777142062156114"><ele>989.0</ele><time>2026-05-02T12:04:34Z</time></trkpt><trkpt lat="42.04779924630778" lon="13.777042689941823"><ele>989.0</ele><time>2026-05-02T12:04:35Z</time></trkpt><trkpt lat="42.04793269315097" lon="13.776957449505714"><ele>989.0</ele><time>2026-05-02T12:04:36Z</time></trkpt><trkpt lat="42.04804828274106" lon="13.776877639776364"><ele>989.0</ele><time>2026-05-02T12:04:37Z</time></trkpt><trkpt lat="42.04813664222488" lon="13.77678640716384"><ele>989.0</ele><time>2026-05-02T12:04:38Z</time></trkpt><trkpt lat="42.04819140806249" lon="13.776658225221713"><ele>989.0</ele><time>2026-05-02T12:04:39Z</time></trkpt><trkpt lat="42.04820382954544" lon="13.776489779593952"><ele>988.25</ele><time>2026-05-02T12:04:40Z</time></trkpt><trkpt lat="42.04818899716846" lon="13.776315485845753"><ele>987.5</ele><time>2026-05-02T12:04:41Z</time></trkpt><trkpt lat="42.04814824286313" lon="13.77616455500501"><ele>986.75</ele><time>2026-05-02T12:04:42Z</time></trkpt><trkpt lat="42.048056430331236" lon="13.776032454041543"><ele>986.0</ele><time>2026-05-02T12:04:43Z</time></trkpt><trkpt lat="42.04792366985408" lon="13.77592137065536"><ele>986.0</ele><time>2026-05-02T12:04:44Z</time></trkpt><trkpt lat="42.04777286139625" lon="13.775797710572238"><ele>986.0</ele><time>2026-05-02T12:04:45Z</time></trkpt><trkpt lat="42.04762600445443" lon="13.775653907209357"><ele>986.0</ele><time>2026-05-02T12:04:46Z</time></trkpt><trkpt lat="42.04748312055359" lon="13.775514155853942"><ele>986.3333333333334</ele><time>2026-05-02T12:04:47Z</time></trkpt><trkpt lat="42.0473554275449" lon="13.775379009191827"><ele>986.6666666666667</ele><time>2026-05-02T12:04:48Z</time></trkpt><trkpt lat="42.0472324950942" lon="13.775241364685538"><ele>987.0</ele><time>2026-05-02T12:04:49Z</time></trkpt><trkpt lat="42.04711416796865" lon="13.775092552049044"><ele>987.0</ele><time>2026-05-02T12:04:50Z</time></trkpt><trkpt lat="42.04699853872191" lon="13.774944812071158"><ele>987.0</ele><time>2026-05-02T12:04:51Z</time></trkpt><trkpt lat="42.04688892573077" lon="13.774796514283912"><ele>987.0</ele><time>2026-05-02T12:04:52Z</time></trkpt><trkpt lat="42.04677684134875" lon="13.77464857582203"><ele>987.0</ele><time>2026-05-02T12:04:53Z</time></trkpt><trkpt lat="42.04666376224449" lon="13.774500276412292"><ele>987.0</ele><time>2026-05-02T12:04:54Z</time></trkpt><trkpt lat="42.04654605135084" lon="13.774346952891097"><ele>987.0</ele><time>2026-05-02T12:04:55Z</time></trkpt><trkpt lat="42.04643116708916" lon="13.774192779940712"><ele>987.0</ele><time>2026-05-02T12:04:56Z</time></trkpt><trkpt lat="42.046318199248326" lon="13.774030332100397"><ele>987.0</ele><time>2026-05-02T12:04:57Z</time></trkpt><trkpt lat="42.046227672602285" lon="13.773840928207852"><ele>987.0</ele><time>2026-05-02T12:04:58Z</time></trkpt><trkpt lat="42.04615112155764" lon="13.773620947511713"><ele>992.3333333333333</ele><time>2026-05-02T12:04:59Z</time></trkpt><trkpt lat="42.04607700648706" lon="13.773420589347275"><ele>997.6666666666666</ele><time>2026-05-02T12:05:00Z</time></trkpt><trkpt lat="42.045982157000594" lon="13.773232102828548"><ele>1003.0</ele><time>2026-05-02T12:05:01Z</time></trkpt><trkpt lat="42.04588723841939" lon="13.77304236490525"><ele>1005.3333333333333</ele><time>2026-05-02T12:05:02Z</time></trkpt><trkpt lat="42.04577005358625" lon="13.772864687162127"><ele>1007.6666666666667</ele><time>2026-05-02T12:05:03Z</time></trkpt><trkpt lat="42.04565995179311" lon="13.772706592746186"><ele>1010.0</ele><time>2026-05-02T12:05:04Z</time></trkpt><trkpt lat="42.04552839720671" lon="13.77256320549513"><ele>1010.0</ele><time>2026-05-02T12:05:05Z</time></trkpt><trkpt lat="42.04536015043264" lon="13.7724714203202"><ele>1010.0</ele><time>2026-05-02T12:05:06Z</time></trkpt><trkpt lat="42.04518608459152" lon="13.772393095248686"><ele>1010.0</ele><time>2026-05-02T12:05:07Z</time></trkpt><trkpt lat="42.04500675652051" lon="13.772313084272069"><ele>1007.6666666666667</ele><time>2026-05-02T12:05:08Z</time></trkpt><trkpt lat="42.044843386230625" lon="13.772230104818366"><ele>1005.3333333333333</ele><time>2026-05-02T12:05:09Z</time></trkpt><trkpt lat="42.04466522401657" lon="13.772153192120143"><ele>1003.0</ele><time>2026-05-02T12:05:10Z</time></trkpt><trkpt lat="42.04448348799981" lon="13.772091914176494"><ele>1003.0</ele><time>2026-05-02T12:05:11Z</time></trkpt><trkpt lat="42.04429718791569" lon="13.772073856532288"><ele>1003.0</ele><time>2026-05-02T12:05:12Z</time></trkpt><trkpt lat="42.04411021599143" lon="13.772066617182622"><ele>1003.0</ele><time>2026-05-02T12:05:13Z</time></trkpt><trkpt lat="42.04392650152312" lon="13.772077859906917"><ele>1004.6666666666666</ele><time>2026-05-02T12:05:14Z</time></trkpt><trkpt lat="42.0437350168507" lon="13.77209397816856"><ele>1006.3333333333333</ele><time>2026-05-02T12:05:15Z</time></trkpt><trkpt lat="42.04354379146016" lon="13.772129358774448"><ele>1008.0</ele><time>2026-05-02T12:05:16Z</time></trkpt><trkpt lat="42.04334987904474" lon="13.772135033875875"><ele>1008.6666666666667</ele><time>2026-05-02T12:05:17Z</time></trkpt><trkpt lat="42.04315388361993" lon="13.772125043812453"><ele>1009.3333333333334</ele><time>2026-05-02T12:05:18Z</time></trkpt><trkpt lat="42.04295727212528" lon="13.772108943238957"><ele>1010.0</ele><time>2026-05-02T12:05:19Z</time></trkpt><trkpt lat="42.04275919219961" lon="13.772088939075664"><ele>1010.0</ele><time>2026-05-02T12:05:20Z</time></trkpt><trkpt lat="42.04256060346321" lon="13.77207203726562"><ele>1010.0</ele><time>2026-05-02T12:05:21Z</time></trkpt><trkpt lat="42.04235822163903" lon="13.772055044999759"><ele>1010.0</ele><time>2026-05-02T12:05:22Z</time></trkpt><trkpt lat="42.042154960771555" lon="13.772034056985838"><ele>1010.3333333333334</ele><time>2026-05-02T12:05:23Z</time></trkpt><trkpt lat="42.04196050349078" lon="13.772016185383986"><ele>1010.6666666666667</ele><time>2026-05-02T12:05:24Z</time></trkpt><trkpt lat="42.04176462830379" lon="13.771995836002766"><ele>1011.0</ele><time>2026-05-02T12:05:25Z</time></trkpt><trkpt lat="42.041570642558355" lon="13.771981429872119"><ele>1010.3333333333333</ele><time>2026-05-02T12:05:26Z</time></trkpt><trkpt lat="42.041371091650106" lon="13.771958632477812"><ele>1009.6666666666666</ele><time>2026-05-02T12:05:27Z</time></trkpt><trkpt lat="42.041172365853114" lon="13.771934876335298"><ele>1009.0</ele><time>2026-05-02T12:05:28Z</time></trkpt><trkpt lat="42.04096885453096" lon="13.77191538301714"><ele>1010.3333333333333</ele><time>2026-05-02T12:05:29Z</time></trkpt><trkpt lat="42.04076672176733" lon="13.77188811864337"><ele>1011.6666666666667</ele><time>2026-05-02T12:05:30Z</time></trkpt><trkpt lat="42.040561621013715" lon="13.771877944560806"><ele>1013.0</ele><time>2026-05-02T12:05:31Z</time></trkpt><trkpt lat="42.040355728267876" lon="13.771844004973218"><ele>1026.0</ele><time>2026-05-02T12:05:32Z</time></trkpt><trkpt lat="42.040145794171146" lon="13.771824448374089"><ele>1039.0</ele><time>2026-05-02T12:05:33Z</time></trkpt><trkpt lat="42.039936501367066" lon="13.771807683182686"><ele>1052.0</ele><time>2026-05-02T12:05:34Z</time></trkpt><trkpt lat="42.03972664330442" lon="13.77179323520168"><ele>1054.3333333333335</ele><time>2026-05-02T12:05:35Z</time></trkpt><trkpt lat="42.03951835714555" lon="13.771789464658944"><ele>1056.6666666666667</ele><time>2026-05-02T12:05:36Z</time></trkpt><trkpt lat="42.039316259651464" lon="13.771798479020589"><ele>1059.0</ele><time>2026-05-02T12:05:37Z</time></trkpt><trkpt lat="42.03911040665877" lon="13.771810818426639"><ele>1059.0</ele><time>2026-05-02T12:05:38Z</time></trkpt><trkpt lat="42.038905508809314" lon="13.77182746620287"><ele>1059.0</ele><time>2026-05-02T12:05:39Z</time></trkpt><trkpt lat="42.038702801593764" lon="13.771842934649268"><ele>1059.0</ele><time>2026-05-02T12:05:40Z</time></trkpt><trkpt lat="42.03850297967163" lon="13.771832291195592"><ele>1058.3333333333333</ele><time>2026-05-02T12:05:41Z</time></trkpt><trkpt lat="42.038297931844674" lon="13.771802544751143"><ele>1057.6666666666665</ele><time>2026-05-02T12:05:42Z</time></trkpt><trkpt lat="42.03809413738552" lon="13.771771473818204"><ele>1057.0</ele><time>2026-05-02T12:05:43Z</time></trkpt><trkpt lat="42.0378920470562" lon="13.771740662703177"><ele>1057.0</ele><time>2026-05-02T12:05:44Z</time></trkpt><trkpt lat="42.03768639717749" lon="13.77171373972118"><ele>1057.0</ele><time>2026-05-02T12:05:45Z</time></trkpt><trkpt lat="42.03748269194545" lon="13.771707042474242"><ele>1057.0</ele><time>2026-05-02T12:05:46Z</time></trkpt><trkpt lat="42.03729140213384" lon="13.771707822902528"><ele>1055.6666666666665</ele><time>2026-05-02T12:05:47Z</time></trkpt><trkpt lat="42.03710243409422" lon="13.771715403774804"><ele>1054.3333333333333</ele><time>2026-05-02T12:05:48Z</time></trkpt><trkpt lat="42.03693398835029" lon="13.771667885958692"><ele>1053.0</ele><time>2026-05-02T12:05:49Z</time></trkpt><trkpt lat="42.03679145578387" lon="13.771602519655351"><ele>1053.0</ele><time>2026-05-02T12:05:50Z</time></trkpt><trkpt lat="42.036671621818165" lon="13.771517750299385"><ele>1053.0</ele><time>2026-05-02T12:05:51Z</time></trkpt><trkpt lat="42.03657877574966" lon="13.771405479677522"><ele>1053.0</ele><time>2026-05-02T12:05:52Z</time></trkpt><trkpt lat="42.0365177132674" lon="13.771238820530233"><ele>1053.0</ele><time>2026-05-02T12:05:53Z</time></trkpt><trkpt lat="42.036488686639096" lon="13.771028969739815"><ele>1042.3333333333333</ele><time>2026-05-02T12:05:54Z</time></trkpt><trkpt lat="42.03648980623676" lon="13.770765351035637"><ele>1031.6666666666665</ele><time>2026-05-02T12:05:55Z</time></trkpt><trkpt lat="42.036512031439926" lon="13.770517329583075"><ele>1021.0</ele><time>2026-05-02T12:05:56Z</time></trkpt><trkpt lat="42.03655183017661" lon="13.77027074663552"><ele>1019.0</ele><time>2026-05-02T12:05:57Z</time></trkpt><trkpt lat="42.036607204531954" lon="13.770015699783968"><ele>1017.0</ele><time>2026-05-02T12:05:58Z</time></trkpt><trkpt lat="42.03667049578594" lon="13.769758652243631"><ele>1015.0</ele><time>2026-05-02T12:05:59Z</time></trkpt><trkpt lat="42.0367392795857" lon="13.769503138330396"><ele>1027.3333333333333</ele><time>2026-05-02T12:06:00Z</time></trkpt><trkpt lat="42.036813656112436" lon="13.769251452977011"><ele>1039.6666666666667</ele><time>2026-05-02T12:06:01Z</time></trkpt><trkpt lat="42.03689048784454" lon="13.769009711048332"><ele>1052.0</ele><time>2026-05-02T12:06:02Z</time></trkpt><trkpt lat="42.03695493450741" lon="13.768775805717636"><ele>1052.0</ele><time>2026-05-02T12:06:03Z</time></trkpt><trkpt lat="42.03702668187762" lon="13.76857106888183"><ele>1052.0</ele><time>2026-05-02T12:06:04Z</time></trkpt><trkpt lat="42.037078859217196" lon="13.768366041046045"><ele>1052.0</ele><time>2026-05-02T12:06:05Z</time></trkpt><trkpt lat="42.03710190688495" lon="13.768151046713113"><ele>1049.25</ele><time>2026-05-02T12:06:06Z</time></trkpt><trkpt lat="42.037106125402815" lon="13.767954314360537"><ele>1046.5</ele><time>2026-05-02T12:06:07Z</time></trkpt><trkpt lat="42.03713736899844" lon="13.767789821976123"><ele>1043.75</ele><time>2026-05-02T12:06:08Z</time></trkpt><trkpt lat="42.037221094481964" lon="13.767639486292738"><ele>1041.0</ele><time>2026-05-02T12:06:09Z</time></trkpt><trkpt lat="42.03733576239916" lon="13.767496094885097"><ele>1038.0</ele><time>2026-05-02T12:06:10Z</time></trkpt><trkpt lat="42.037465280665955" lon="13.767361408064984"><ele>1035.0</ele><time>2026-05-02T12:06:11Z</time></trkpt><trkpt lat="42.037597829098594" lon="13.767203087991783"><ele>1032.0</ele><time>2026-05-02T12:06:12Z</time></trkpt><trkpt lat="42.037733454768485" lon="13.767016289167005"><ele>1041.3333333333333</ele><time>2026-05-02T12:06:13Z</time></trkpt><trkpt lat="42.037867835745594" lon="13.766810069577186"><ele>1050.6666666666665</ele><time>2026-05-02T12:06:14Z</time></trkpt><trkpt lat="42.03800946082825" lon="13.76658697861077"><ele>1060.0</ele><time>2026-05-02T12:06:15Z</time></trkpt><trkpt lat="42.03814101326503" lon="13.766369498443284"><ele>1060.0</ele><time>2026-05-02T12:06:16Z</time></trkpt><trkpt lat="42.03827269094125" lon="13.766146243903428"><ele>1060.0</ele><time>2026-05-02T12:06:17Z</time></trkpt><trkpt lat="42.03839290438324" lon="13.765905306972863"><ele>1060.0</ele><time>2026-05-02T12:06:18Z</time></trkpt><trkpt lat="42.03849825636632" lon="13.765660959129935"><ele>1063.0</ele><time>2026-05-02T12:06:19Z</time></trkpt><trkpt lat="42.03859501332364" lon="13.76542126277193"><ele>1066.0</ele><time>2026-05-02T12:06:20Z</time></trkpt><trkpt lat="42.0387027316239" lon="13.765197479608249"><ele>1069.0</ele><time>2026-05-02T12:06:21Z</time></trkpt><trkpt lat="42.03883027161327" lon="13.764994124342232"><ele>1069.0</ele><time>2026-05-02T12:06:22Z</time></trkpt><trkpt lat="42.03897148575387" lon="13.764806422185524"><ele>1069.0</ele><time>2026-05-02T12:06:23Z</time></trkpt><trkpt lat="42.03912465706797" lon="13.764620771894105"><ele>1069.0</ele><time>2026-05-02T12:06:24Z</time></trkpt><trkpt lat="42.039288399111136" lon="13.76445809253714"><ele>1072.0</ele><time>2026-05-02T12:06:25Z</time></trkpt><trkpt lat="42.03945107375503" lon="13.764279807986552"><ele>1075.0</ele><time>2026-05-02T12:06:26Z</time></trkpt><trkpt lat="42.039599538726186" lon="13.764077541897219"><ele>1078.0</ele><time>2026-05-02T12:06:27Z</time></trkpt><trkpt lat="42.03975897464431" lon="13.763895635235952"><ele>1078.0</ele><time>2026-05-02T12:06:28Z</time></trkpt><trkpt lat="42.03991053178156" lon="13.763702677847881"><ele>1078.0</ele><time>2026-05-02T12:06:29Z</time></trkpt><trkpt lat="42.040061201326104" lon="13.763509258717455"><ele>1078.0</ele><time>2026-05-02T12:06:30Z</time></trkpt><trkpt lat="42.04021674490445" lon="13.763322362079968"><ele>1080.6666666666665</ele><time>2026-05-02T12:06:31Z</time></trkpt><trkpt lat="42.04037054627973" lon="13.763132882083752"><ele>1083.3333333333333</ele><time>2026-05-02T12:06:32Z</time></trkpt><trkpt lat="42.0405227581232" lon="13.762947919580212"><ele>1086.0</ele><time>2026-05-02T12:06:33Z</time></trkpt><trkpt lat="42.04066248141339" lon="13.76277882755182"><ele>1084.6666666666667</ele><time>2026-05-02T12:06:34Z</time></trkpt><trkpt lat="42.04078273311341" lon="13.762628668726483"><ele>1083.3333333333335</ele><time>2026-05-02T12:06:35Z</time></trkpt><trkpt lat="42.040878886152626" lon="13.762480191563016"><ele>1082.0</ele><time>2026-05-02T12:06:36Z</time></trkpt><trkpt lat="42.0409471028395" lon="13.762316588861966"><ele>1086.25</ele><time>2026-05-02T12:06:37Z</time></trkpt><trkpt lat="42.04097160511508" lon="13.762142051711695"><ele>1090.5</ele><time>2026-05-02T12:06:38Z</time></trkpt><trkpt lat="42.04095590125014" lon="13.7619561190086"><ele>1094.75</ele><time>2026-05-02T12:06:39Z</time></trkpt><trkpt lat="42.0409003293069" lon="13.761769780936183"><ele>1099.0</ele><time>2026-05-02T12:06:40Z</time></trkpt><trkpt lat="42.040830127373845" lon="13.761577964376913"><ele>1098.0</ele><time>2026-05-02T12:06:41Z</time></trkpt><trkpt lat="42.04075491420362" lon="13.76136999084055"><ele>1097.0</ele><time>2026-05-02T12:06:42Z</time></trkpt><trkpt lat="42.04068352293879" lon="13.76114970493973"><ele>1096.0</ele><time>2026-05-02T12:06:43Z</time></trkpt><trkpt lat="42.040612842425496" lon="13.760922027698234"><ele>1096.0</ele><time>2026-05-02T12:06:44Z</time></trkpt><trkpt lat="42.04054004773949" lon="13.760693856811624"><ele>1096.0</ele><time>2026-05-02T12:06:45Z</time></trkpt><trkpt lat="42.040477960425754" lon="13.760482002541528"><ele>1096.0</ele><time>2026-05-02T12:06:46Z</time></trkpt><trkpt lat="42.0404339286695" lon="13.76028322463198"><ele>1100.0</ele><time>2026-05-02T12:06:47Z</time></trkpt><trkpt lat="42.04041893033815" lon="13.760080548234763"><ele>1104.0</ele><time>2026-05-02T12:06:48Z</time></trkpt><trkpt lat="42.04042645362987" lon="13.759888327813385"><ele>1108.0</ele><time>2026-05-02T12:06:49Z</time></trkpt><trkpt lat="42.040473306589085" lon="13.759682578037948"><ele>1108.0</ele><time>2026-05-02T12:06:50Z</time></trkpt><trkpt lat="42.040559162466174" lon="13.759496422355125"><ele>1108.0</ele><time>2026-05-02T12:06:51Z</time></trkpt><trkpt lat="42.040674464690866" lon="13.759321341221009"><ele>1108.0</ele><time>2026-05-02T12:06:52Z</time></trkpt><trkpt lat="42.04081111302088" lon="13.759161481891704"><ele>1109.0</ele><time>2026-05-02T12:06:53Z</time></trkpt><trkpt lat="42.04095217871526" lon="13.758992233899617"><ele>1110.0</ele><time>2026-05-02T12:06:54Z</time></trkpt><trkpt lat="42.041078913743114" lon="13.758816548733233"><ele>1111.0</ele><time>2026-05-02T12:06:55Z</time></trkpt><trkpt lat="42.04120520118121" lon="13.758638962525449"><ele>1115.0</ele><time>2026-05-02T12:06:56Z</time></trkpt><trkpt lat="42.041327007863856" lon="13.758448516162705"><ele>1119.0</ele><time>2026-05-02T12:06:57Z</time></trkpt><trkpt lat="42.041448916904926" lon="13.758251689888068"><ele>1123.0</ele><time>2026-05-02T12:06:58Z</time></trkpt><trkpt lat="42.04155635444385" lon="13.7580385691745"><ele>1121.6666666666665</ele><time>2026-05-02T12:06:59Z</time></trkpt><trkpt lat="42.041658355715576" lon="13.757820282869297"><ele>1120.3333333333333</ele><time>2026-05-02T12:07:00Z</time></trkpt><trkpt lat="42.041762334486705" lon="13.757599750210503"><ele>1119.0</ele><time>2026-05-02T12:07:01Z</time></trkpt><trkpt lat="42.04186889832254" lon="13.757377144941808"><ele>1119.0</ele><time>2026-05-02T12:07:02Z</time></trkpt><trkpt lat="42.0419721401659" lon="13.757153099833687"><ele>1119.0</ele><time>2026-05-02T12:07:03Z</time></trkpt><trkpt lat="42.04207323393933" lon="13.75692199594556"><ele>1119.0</ele><time>2026-05-02T12:07:04Z</time></trkpt><trkpt lat="42.04216575774846" lon="13.756689100105925"><ele>1123.6666666666667</ele><time>2026-05-02T12:07:05Z</time></trkpt><trkpt lat="42.042253282897505" lon="13.756453373214974"><ele>1128.3333333333335</ele><time>2026-05-02T12:07:06Z</time></trkpt><trkpt lat="42.04234938976509" lon="13.756220086122811"><ele>1133.0</ele><time>2026-05-02T12:07:07Z</time></trkpt><trkpt lat="42.04244516575381" lon="13.755989678826657"><ele>1132.0</ele><time>2026-05-02T12:07:08Z</time></trkpt><trkpt lat="42.04253709972438" lon="13.755761247465827"><ele>1131.0</ele><time>2026-05-02T12:07:09Z</time></trkpt><trkpt lat="42.04262501611502" lon="13.755528073898956"><ele>1130.0</ele><time>2026-05-02T12:07:10Z</time></trkpt><trkpt lat="42.04272317208249" lon="13.755300842442642"><ele>1134.6666666666667</ele><time>2026-05-02T12:07:11Z</time></trkpt><trkpt lat="42.04282882850159" lon="13.755079997531498"><ele>1139.3333333333333</ele><time>2026-05-02T12:07:12Z</time></trkpt><trkpt lat="42.042940635381825" lon="13.754861337596234"><ele>1144.0</ele><time>2026-05-02T12:07:13Z</time></trkpt><trkpt lat="42.043058125066736" lon="13.754652990236556"><ele>1144.0</ele><time>2026-05-02T12:07:14Z</time></trkpt><trkpt lat="42.04318003052128" lon="13.754448393124122"><ele>1144.0</ele><time>2026-05-02T12:07:15Z</time></trkpt><trkpt lat="42.04329936753125" lon="13.75424854849217"><ele>1144.0</ele><time>2026-05-02T12:07:16Z</time></trkpt><trkpt lat="42.04342302873941" lon="13.754062403036437"><ele>1142.3333333333333</ele><time>2026-05-02T12:07:17Z</time></trkpt><trkpt lat="42.043534789788374" lon="13.75389739604104"><ele>1140.6666666666667</ele><time>2026-05-02T12:07:18Z</time></trkpt><trkpt lat="42.04365645495821" lon="13.753737943689039"><ele>1139.0</ele><time>2026-05-02T12:07:19Z</time></trkpt><trkpt lat="42.04381647787586" lon="13.753623524165647"><ele>1141.3333333333335</ele><time>2026-05-02T12:07:20Z</time></trkpt><trkpt lat="42.043987136144814" lon="13.753515974305898"><ele>1143.6666666666667</ele><time>2026-05-02T12:07:21Z</time></trkpt><trkpt lat="42.04416232393962" lon="13.753395532608797"><ele>1146.0</ele><time>2026-05-02T12:07:22Z</time></trkpt><trkpt lat="42.04433592062563" lon="13.753265024137143"><ele>1146.0</ele><time>2026-05-02T12:07:23Z</time></trkpt><trkpt lat="42.044519920458505" lon="13.753166296727334"><ele>1146.0</ele><time>2026-05-02T12:07:24Z</time></trkpt><trkpt lat="42.044716878953224" lon="13.753102460619942"><ele>1146.0</ele><time>2026-05-02T12:07:25Z</time></trkpt><trkpt lat="42.044917004121764" lon="13.753065554373453"><ele>1143.3333333333333</ele><time>2026-05-02T12:07:26Z</time></trkpt><trkpt lat="42.04512269152532" lon="13.75303053618871"><ele>1140.6666666666665</ele><time>2026-05-02T12:07:27Z</time></trkpt><trkpt lat="42.04531815765236" lon="13.752988174956467"><ele>1138.0</ele><time>2026-05-02T12:07:28Z</time></trkpt><trkpt lat="42.04550840000913" lon="13.75294860126734"><ele>1138.0</ele><time>2026-05-02T12:07:29Z</time></trkpt><trkpt lat="42.04569372314415" lon="13.752884074581031"><ele>1138.0</ele><time>2026-05-02T12:07:30Z</time></trkpt><trkpt lat="42.045870386032796" lon="13.752777578511834"><ele>1138.0</ele><time>2026-05-02T12:07:31Z</time></trkpt><trkpt lat="42.04604065367647" lon="13.75263830091097"><ele>1146.0</ele><time>2026-05-02T12:07:32Z</time></trkpt><trkpt lat="42.04621033487638" lon="13.752487567689712"><ele>1154.0</ele><time>2026-05-02T12:07:33Z</time></trkpt><trkpt lat="42.046372182945206" lon="13.752346932179439"><ele>1162.0</ele><time>2026-05-02T12:07:34Z</time></trkpt><trkpt lat="42.0465229176063" lon="13.752222570430245"><ele>1165.6666666666665</ele><time>2026-05-02T12:07:35Z</time></trkpt><trkpt lat="42.04666504126793" lon="13.752109814115302"><ele>1169.3333333333333</ele><time>2026-05-02T12:07:36Z</time></trkpt><trkpt lat="42.04679879146974" lon="13.751979788545942"><ele>1173.0</ele><time>2026-05-02T12:07:37Z</time></trkpt><trkpt lat="42.04690328621073" lon="13.751798074273486"><ele>1173.0</ele><time>2026-05-02T12:07:38Z</time></trkpt><trkpt lat="42.04699645926623" lon="13.7516118132678"><ele>1173.0</ele><time>2026-05-02T12:07:39Z</time></trkpt><trkpt lat="42.04713045263465" lon="13.751484340070672"><ele>1173.0</ele><time>2026-05-02T12:07:40Z</time></trkpt><trkpt lat="42.047275867375106" lon="13.7514282807689"><ele>1173.0</ele><time>2026-05-02T12:07:41Z</time></trkpt><trkpt lat="42.04741310454972" lon="13.751365424840253"><ele>1173.0</ele><time>2026-05-02T12:07:42Z</time></trkpt><trkpt lat="42.04753837060998" lon="13.751276788586553"><ele>1173.0</ele><time>2026-05-02T12:07:43Z</time></trkpt><trkpt lat="42.04764004772913" lon="13.751102210177695"><ele>1173.0</ele><time>2026-05-02T12:07:44Z</time></trkpt><trkpt lat="42.04773720372448" lon="13.75090976213406"><ele>1173.0</ele><time>2026-05-02T12:07:45Z</time></trkpt><trkpt lat="42.04782351605595" lon="13.750682271502969"><ele>1173.0</ele><time>2026-05-02T12:07:46Z</time></trkpt><trkpt lat="42.04790735314458" lon="13.750455865979982"><ele>1173.0</ele><time>2026-05-02T12:07:47Z</time></trkpt><trkpt lat="42.04804136816849" lon="13.750263663929116"><ele>1173.0</ele><time>2026-05-02T12:07:48Z</time></trkpt><trkpt lat="42.04820012725479" lon="13.75009544527596"><ele>1173.0</ele><time>2026-05-02T12:07:49Z</time></trkpt><trkpt lat="42.0483701318096" lon="13.749968094582687"><ele>1173.6666666666667</ele><time>2026-05-02T12:07:50Z</time></trkpt><trkpt lat="42.048541385175945" lon="13.749882320898902"><ele>1174.3333333333335</ele><time>2026-05-02T12:07:51Z</time></trkpt><trkpt lat="42.04871751694482" lon="13.749847565491208"><ele>1175.0</ele><time>2026-05-02T12:07:52Z</time></trkpt><trkpt lat="42.048875980695826" lon="13.74975537008334"><ele>1175.0</ele><time>2026-05-02T12:07:53Z</time></trkpt><trkpt lat="42.04902515810814" lon="13.74962285807976"><ele>1175.0</ele><time>2026-05-02T12:07:54Z</time></trkpt><trkpt lat="42.04914753125341" lon="13.74949773875457"><ele>1175.0</ele><time>2026-05-02T12:07:55Z</time></trkpt><trkpt lat="42.04925141114815" lon="13.749373044474197"><ele>1175.5</ele><time>2026-05-02T12:07:56Z</time></trkpt><trkpt lat="42.049316035245354" lon="13.749240617600199"><ele>1176.0</ele><time>2026-05-02T12:07:57Z</time></trkpt><trkpt lat="42.049343344785854" lon="13.749096279029489"><ele>1176.5</ele><time>2026-05-02T12:07:58Z</time></trkpt><trkpt lat="42.0493166725315" lon="13.748942040457367"><ele>1177.0</ele><time>2026-05-02T12:07:59Z</time></trkpt><trkpt lat="42.04923789968431" lon="13.748810494925836"><ele>1179.0</ele><time>2026-05-02T12:08:00Z</time></trkpt><trkpt lat="42.04912159883445" lon="13.748731543507692"><ele>1181.0</ele><time>2026-05-02T12:08:01Z</time></trkpt><trkpt lat="42.04899221416263" lon="13.748720305722758"><ele>1183.0</ele><time>2026-05-02T12:08:02Z</time></trkpt><trkpt lat="42.04885493648365" lon="13.74877189204952"><ele>1185.0</ele><time>2026-05-02T12:08:03Z</time></trkpt><trkpt lat="42.04870795184746" lon="13.748887779241757"><ele>1185.0</ele><time>2026-05-02T12:08:04Z</time></trkpt><trkpt lat="42.048529062889145" lon="13.748993236103948"><ele>1185.0</ele><time>2026-05-02T12:08:05Z</time></trkpt><trkpt lat="42.04831883876499" lon="13.749036944787857"><ele>1185.0</ele><time>2026-05-02T12:08:06Z</time></trkpt><trkpt lat="42.0480846355435" lon="13.749086882967216"><ele>1187.0</ele><time>2026-05-02T12:08:07Z</time></trkpt><trkpt lat="42.04785895036137" lon="13.74912697097882"><ele>1189.0</ele><time>2026-05-02T12:08:08Z</time></trkpt><trkpt lat="42.0476959979693" lon="13.749140646070988"><ele>1191.0</ele><time>2026-05-02T12:08:09Z</time></trkpt><trkpt lat="42.047515725102386" lon="13.749152027490808"><ele>1194.75</ele><time>2026-05-02T12:08:10Z</time></trkpt><trkpt lat="42.04734257088883" lon="13.749124074447614"><ele>1198.5</ele><time>2026-05-02T12:08:11Z</time></trkpt><trkpt lat="42.04720521855367" lon="13.749083959053328"><ele>1202.25</ele><time>2026-05-02T12:08:12Z</time></trkpt><trkpt lat="42.04709338096395" lon="13.74902684927093"><ele>1206.0</ele><time>2026-05-02T12:08:13Z</time></trkpt><trkpt lat="42.04699976636886" lon="13.748921026771361"><ele>1206.0</ele><time>2026-05-02T12:08:14Z</time></trkpt><trkpt lat="42.04694960506269" lon="13.748748205447365"><ele>1206.0</ele><time>2026-05-02T12:08:15Z</time></trkpt><trkpt lat="42.04693790324842" lon="13.74854395590519"><ele>1206.0</ele><time>2026-05-02T12:08:16Z</time></trkpt><trkpt lat="42.046957484301444" lon="13.748286232524805"><ele>1207.3333333333333</ele><time>2026-05-02T12:08:17Z</time></trkpt><trkpt lat="42.04699920139426" lon="13.748003728023347"><ele>1208.6666666666665</ele><time>2026-05-02T12:08:18Z</time></trkpt><trkpt lat="42.047056720964285" lon="13.74770496055316"><ele>1210.0</ele><time>2026-05-02T12:08:19Z</time></trkpt><trkpt lat="42.047104708773254" lon="13.747403739007977"><ele>1210.0</ele><time>2026-05-02T12:08:20Z</time></trkpt><trkpt lat="42.0471017424183" lon="13.747088714680379"><ele>1210.0</ele><time>2026-05-02T12:08:21Z</time></trkpt><trkpt lat="42.047098578496374" lon="13.746823769672588"><ele>1210.0</ele><time>2026-05-02T12:08:22Z</time></trkpt><trkpt lat="42.047129490105355" lon="13.746582508458257"><ele>1208.6666666666665</ele><time>2026-05-02T12:08:23Z</time></trkpt><trkpt lat="42.04719284383846" lon="13.746354137371556"><ele>1207.3333333333333</ele><time>2026-05-02T12:08:24Z</time></trkpt><trkpt lat="42.047309965505555" lon="13.74613657300608"><ele>1206.0</ele><time>2026-05-02T12:08:25Z</time></trkpt><trkpt lat="42.04742906001347" lon="13.745904356448362"><ele>1205.0</ele><time>2026-05-02T12:08:26Z</time></trkpt><trkpt lat="42.047514935604056" lon="13.745624416244695"><ele>1204.0</ele><time>2026-05-02T12:08:27Z</time></trkpt><trkpt lat="42.0475676808792" lon="13.745332199617934"><ele>1203.0</ele><time>2026-05-02T12:08:28Z</time></trkpt><trkpt lat="42.04760473934158" lon="13.745055604903412"><ele>1203.0</ele><time>2026-05-02T12:08:29Z</time></trkpt><trkpt lat="42.04763836738206" lon="13.744808554315787"><ele>1203.0</ele><time>2026-05-02T12:08:30Z</time></trkpt><trkpt lat="42.047660766102275" lon="13.744584210068895"><ele>1203.0</ele><time>2026-05-02T12:08:31Z</time></trkpt><trkpt lat="42.04767900563963" lon="13.744360777149224"><ele>1205.6666666666667</ele><time>2026-05-02T12:08:32Z</time></trkpt><trkpt lat="42.04763937494712" lon="13.744129793419924"><ele>1208.3333333333335</ele><time>2026-05-02T12:08:33Z</time></trkpt><trkpt lat="42.04756442285664" lon="13.743904228342075"><ele>1211.0</ele><time>2026-05-02T12:08:34Z</time></trkpt><trkpt lat="42.047460158507604" lon="13.74367997725811"><ele>1219.3333333333335</ele><time>2026-05-02T12:08:35Z</time></trkpt><trkpt lat="42.047358677961434" lon="13.743460675921263"><ele>1227.6666666666667</ele><time>2026-05-02T12:08:36Z</time></trkpt><trkpt lat="42.04723700917306" lon="13.743237559622653"><ele>1236.0</ele><time>2026-05-02T12:08:37Z</time></trkpt><trkpt lat="42.04713937995766" lon="13.742978505178831"><ele>1236.0</ele><time>2026-05-02T12:08:38Z</time></trkpt><trkpt lat="42.04702453254566" lon="13.742723874190874"><ele>1236.0</ele><time>2026-05-02T12:08:39Z</time></trkpt><trkpt lat="42.046903257022855" lon="13.742454991297114"><ele>1245.5</ele><time>2026-05-02T12:08:40.022Z</time></trkpt><trkpt lat="42.04678386796651" lon="13.742190290943533"><ele>1255.0</ele><time>2026-05-02T12:08:41.021Z</time></trkpt><trkpt lat="42.046658181458646" lon="13.741916998944234"><ele>1256.5</ele><time>2026-05-02T12:08:42.019Z</time></trkpt><trkpt lat="42.04653260254425" lon="13.741644347875802"><ele>1258.0</ele><time>2026-05-02T12:08:43.018Z</time></trkpt><trkpt lat="42.04640621271056" lon="13.741369936191592"><ele>1219.0</ele><time>2026-05-02T12:08:44.019Z</time></trkpt><trkpt lat="42.04585505653363" lon="13.740148684022707"><ele>1218.3333333333333</ele><time>2026-05-02T12:08:51Z</time></trkpt><trkpt lat="42.04576120422801" lon="13.73995514098053"><ele>1217.6666666666667</ele><time>2026-05-02T12:08:52Z</time></trkpt><trkpt lat="42.045671360220396" lon="13.739942873998015"><ele>1217.0</ele><time>2026-05-02T12:08:53Z</time></trkpt><trkpt lat="42.04547562545349" lon="13.74013739905846"><ele>1217.0</ele><time>2026-05-02T12:08:54Z</time></trkpt><trkpt lat="42.04531999851042" lon="13.740140965466685"><ele>1217.0</ele><time>2026-05-02T12:08:55Z</time></trkpt><trkpt lat="42.04514489736958" lon="13.740153915139379"><ele>1217.0</ele><time>2026-05-02T12:08:56Z</time></trkpt><trkpt lat="42.044946918430625" lon="13.740178080769185"><ele>1216.6666666666667</ele><time>2026-05-02T12:08:57Z</time></trkpt><trkpt lat="42.04476115238678" lon="13.740197309562118"><ele>1216.3333333333333</ele><time>2026-05-02T12:08:58Z</time></trkpt><trkpt lat="42.04457387724268" lon="13.740219932479707"><ele>1216.0</ele><time>2026-05-02T12:08:59Z</time></trkpt><trkpt lat="42.04438728315148" lon="13.740223062099892"><ele>1216.0</ele><time>2026-05-02T12:09:00Z</time></trkpt><trkpt lat="42.044187812140315" lon="13.740188236472479"><ele>1216.0</ele><time>2026-05-02T12:09:01Z</time></trkpt><trkpt lat="42.04399370488541" lon="13.740113656455875"><ele>1216.0</ele><time>2026-05-02T12:09:02Z</time></trkpt><trkpt lat="42.043794686316716" lon="13.740001293072767"><ele>1217.3333333333333</ele><time>2026-05-02T12:09:03Z</time></trkpt><trkpt lat="42.043611899610426" lon="13.739911768779342"><ele>1218.6666666666667</ele><time>2026-05-02T12:09:04Z</time></trkpt><trkpt lat="42.0434518273736" lon="13.739818347823306"><ele>1220.0</ele><time>2026-05-02T12:09:05Z</time></trkpt><trkpt lat="42.04329152941634" lon="13.739758451394252"><ele>1220.0</ele><time>2026-05-02T12:09:06Z</time></trkpt><trkpt lat="42.043118582164965" lon="13.7397416810812"><ele>1220.0</ele><time>2026-05-02T12:09:07Z</time></trkpt><trkpt lat="42.042927616687194" lon="13.7397786163237"><ele>1220.0</ele><time>2026-05-02T12:09:08Z</time></trkpt><trkpt lat="42.04274600038844" lon="13.73984977250454"><ele>1220.0</ele><time>2026-05-02T12:09:09Z</time></trkpt><trkpt lat="42.04259223541534" lon="13.739896109842235"><ele>1220.0</ele><time>2026-05-02T12:09:10Z</time></trkpt><trkpt lat="42.04241665026843" lon="13.739931111334188"><ele>1220.0</ele><time>2026-05-02T12:09:11Z</time></trkpt><trkpt lat="42.04223339889064" lon="13.739876467559364"><ele>1219.0</ele><time>2026-05-02T12:09:12Z</time></trkpt><trkpt lat="42.0420524819635" lon="13.739802152062225"><ele>1218.0</ele><time>2026-05-02T12:09:13Z</time></trkpt><trkpt lat="42.04187467907796" lon="13.73970746462873"><ele>1217.0</ele><time>2026-05-02T12:09:14Z</time></trkpt><trkpt lat="42.041701284463024" lon="13.739617961322795"><ele>1214.5</ele><time>2026-05-02T12:09:15Z</time></trkpt><trkpt lat="42.04156035012957" lon="13.7395546608061"><ele>1212.0</ele><time>2026-05-02T12:09:16Z</time></trkpt><trkpt lat="42.04142482387769" lon="13.739533217176763"><ele>1209.5</ele><time>2026-05-02T12:09:17Z</time></trkpt><trkpt lat="42.04128439274296" lon="13.739586371560959"><ele>1207.0</ele><time>2026-05-02T12:09:18Z</time></trkpt><trkpt lat="42.04114547235171" lon="13.739698158028958"><ele>1207.0</ele><time>2026-05-02T12:09:19Z</time></trkpt><trkpt lat="42.041013888870076" lon="13.739886089337832"><ele>1207.0</ele><time>2026-05-02T12:09:20Z</time></trkpt><trkpt lat="42.04086742613005" lon="13.74007951502586"><ele>1207.0</ele><time>2026-05-02T12:09:21Z</time></trkpt><trkpt lat="42.04074960701924" lon="13.740244473607294"><ele>1206.75</ele><time>2026-05-02T12:09:22Z</time></trkpt><trkpt lat="42.040652491874795" lon="13.74037467993085"><ele>1206.5</ele><time>2026-05-02T12:09:23Z</time></trkpt><trkpt lat="42.040546268979405" lon="13.7404870044375"><ele>1206.25</ele><time>2026-05-02T12:09:24Z</time></trkpt><trkpt lat="42.040396459836344" lon="13.740526561554164"><ele>1206.0</ele><time>2026-05-02T12:09:25Z</time></trkpt><trkpt lat="42.0402422798208" lon="13.74053321594153"><ele>1206.0</ele><time>2026-05-02T12:09:26Z</time></trkpt><trkpt lat="42.04010909548998" lon="13.74052788543072"><ele>1206.0</ele><time>2026-05-02T12:09:27Z</time></trkpt><trkpt lat="42.04001206654607" lon="13.740548636166928"><ele>1206.0</ele><time>2026-05-02T12:09:28Z</time></trkpt><trkpt lat="42.039925547792876" lon="13.740613973125875"><ele>1206.0</ele><time>2026-05-02T12:09:29Z</time></trkpt><trkpt lat="42.039825754089264" lon="13.740734849884852"><ele>1201.0</ele><time>2026-05-02T12:09:30Z</time></trkpt><trkpt lat="42.039717138586205" lon="13.74089170906294"><ele>1196.0</ele><time>2026-05-02T12:09:31Z</time></trkpt><trkpt lat="42.03961106115727" lon="13.741081057079649"><ele>1191.0</ele><time>2026-05-02T12:09:32Z</time></trkpt><trkpt lat="42.039497174479095" lon="13.741284180268684"><ele>1191.0</ele><time>2026-05-02T12:09:33Z</time></trkpt><trkpt lat="42.03938381907142" lon="13.741484337349446"><ele>1191.0</ele><time>2026-05-02T12:09:34Z</time></trkpt><trkpt lat="42.03927014989398" lon="13.741717672493985"><ele>1191.0</ele><time>2026-05-02T12:09:35Z</time></trkpt><trkpt lat="42.03912678998493" lon="13.741938185948063"><ele>1185.6666666666667</ele><time>2026-05-02T12:09:36Z</time></trkpt><trkpt lat="42.0389964813315" lon="13.742176153603008"><ele>1180.3333333333335</ele><time>2026-05-02T12:09:37Z</time></trkpt><trkpt lat="42.03887524642429" lon="13.742425946447725"><ele>1175.0</ele><time>2026-05-02T12:09:38Z</time></trkpt><trkpt lat="42.03873790244618" lon="13.742651277514707"><ele>1174.0</ele><time>2026-05-02T12:09:39Z</time></trkpt><trkpt lat="42.03859384727839" lon="13.7428171011266"><ele>1173.0</ele><time>2026-05-02T12:09:40Z</time></trkpt><trkpt lat="42.03841439075102" lon="13.742968159228075"><ele>1172.0</ele><time>2026-05-02T12:09:41Z</time></trkpt><trkpt lat="42.03821715892491" lon="13.743100969239805"><ele>1172.0</ele><time>2026-05-02T12:09:42Z</time></trkpt><trkpt lat="42.0380044388865" lon="13.74323176906298"><ele>1172.0</ele><time>2026-05-02T12:09:43Z</time></trkpt><trkpt lat="42.03778217059025" lon="13.743369049567296"><ele>1172.0</ele><time>2026-05-02T12:09:44Z</time></trkpt><trkpt lat="42.03756369202931" lon="13.743504598792674"><ele>1172.0</ele><time>2026-05-02T12:09:45Z</time></trkpt><trkpt lat="42.037342778083186" lon="13.74364226979763"><ele>1174.5</ele><time>2026-05-02T12:09:46Z</time></trkpt><trkpt lat="42.03712948314869" lon="13.743776764762101"><ele>1177.0</ele><time>2026-05-02T12:09:47Z</time></trkpt><trkpt lat="42.0369314560698" lon="13.743904293408324"><ele>1177.0</ele><time>2026-05-02T12:09:48Z</time></trkpt><trkpt lat="42.036744265021994" lon="13.744042685722274"><ele>1177.0</ele><time>2026-05-02T12:09:49Z</time></trkpt><trkpt lat="42.03654942491567" lon="13.744157098111078"><ele>1177.0</ele><time>2026-05-02T12:09:50Z</time></trkpt><trkpt lat="42.0363661563162" lon="13.744279673323204"><ele>1178.3333333333333</ele><time>2026-05-02T12:09:51Z</time></trkpt><trkpt lat="42.036192798540476" lon="13.74439285344042"><ele>1179.6666666666667</ele><time>2026-05-02T12:09:52Z</time></trkpt><trkpt lat="42.03602762257581" lon="13.744491771880766"><ele>1181.0</ele><time>2026-05-02T12:09:53Z</time></trkpt><trkpt lat="42.03585160076845" lon="13.744544657772908"><ele>1176.3333333333335</ele><time>2026-05-02T12:09:54Z</time></trkpt><trkpt lat="42.0356752174509" lon="13.7445392249573"><ele>1171.6666666666667</ele><time>2026-05-02T12:09:55Z</time></trkpt><trkpt lat="42.03549528431867" lon="13.744517130148502"><ele>1167.0</ele><time>2026-05-02T12:09:56Z</time></trkpt><trkpt lat="42.03532259856539" lon="13.7444968788179"><ele>1167.0</ele><time>2026-05-02T12:09:57Z</time></trkpt><trkpt lat="42.0351529551089" lon="13.744562012574587"><ele>1167.0</ele><time>2026-05-02T12:09:58Z</time></trkpt><trkpt lat="42.034971063715865" lon="13.744686711885842"><ele>1167.0</ele><time>2026-05-02T12:09:59Z</time></trkpt><trkpt lat="42.03476772541959" lon="13.744812138607601"><ele>1167.6666666666667</ele><time>2026-05-02T12:10:00Z</time></trkpt><trkpt lat="42.03456248753565" lon="13.744955615748355"><ele>1168.3333333333335</ele><time>2026-05-02T12:10:01Z</time></trkpt><trkpt lat="42.03437326746154" lon="13.745082813710818"><ele>1169.0</ele><time>2026-05-02T12:10:02Z</time></trkpt><trkpt lat="42.03421397235665" lon="13.745220932189596"><ele>1166.5</ele><time>2026-05-02T12:10:03Z</time></trkpt><trkpt lat="42.03406630393034" lon="13.745343155781049"><ele>1164.0</ele><time>2026-05-02T12:10:04Z</time></trkpt><trkpt lat="42.03394485001656" lon="13.745452558389914"><ele>1161.5</ele><time>2026-05-02T12:10:05Z</time></trkpt><trkpt lat="42.03384494488308" lon="13.745515996890013"><ele>1159.0</ele><time>2026-05-02T12:10:06Z</time></trkpt><trkpt lat="42.033751404135465" lon="13.745561684958785"><ele>1159.0</ele><time>2026-05-02T12:10:07Z</time></trkpt><trkpt lat="42.03365405457561" lon="13.745559533701728"><ele>1159.0</ele><time>2026-05-02T12:10:08Z</time></trkpt><trkpt lat="42.03356193092488" lon="13.745481888735842"><ele>1159.0</ele><time>2026-05-02T12:10:09Z</time></trkpt><trkpt lat="42.033499314279034" lon="13.74536916908373"><ele>1159.0</ele><time>2026-05-02T12:10:10Z</time></trkpt><trkpt lat="42.033457326495096" lon="13.74524914661115"><ele>1159.0</ele><time>2026-05-02T12:10:11Z</time></trkpt><trkpt lat="42.033466021612085" lon="13.745114231999768"><ele>1160.5</ele><time>2026-05-02T12:10:12Z</time></trkpt><trkpt lat="42.03353248172563" lon="13.744960636205665"><ele>1162.0</ele><time>2026-05-02T12:10:13Z</time></trkpt><trkpt lat="42.033640027774624" lon="13.74483029226651"><ele>1163.5</ele><time>2026-05-02T12:10:14Z</time></trkpt><trkpt lat="42.03375542853142" lon="13.744671323312138"><ele>1165.0</ele><time>2026-05-02T12:10:15Z</time></trkpt><trkpt lat="42.03388113913148" lon="13.74444589265402"><ele>1159.3333333333333</ele><time>2026-05-02T12:10:16Z</time></trkpt><trkpt lat="42.033992358064864" lon="13.744213473230806"><ele>1153.6666666666667</ele><time>2026-05-02T12:10:17Z</time></trkpt><trkpt lat="42.0341037697615" lon="13.743968078289148"><ele>1148.0</ele><time>2026-05-02T12:10:18Z</time></trkpt><trkpt lat="42.03422466885387" lon="13.743705097193915"><ele>1154.0</ele><time>2026-05-02T12:10:19Z</time></trkpt><trkpt lat="42.0343562784096" lon="13.743459253929057"><ele>1160.0</ele><time>2026-05-02T12:10:20Z</time></trkpt><trkpt lat="42.03447592294008" lon="13.74319332217798"><ele>1160.0</ele><time>2026-05-02T12:10:21Z</time></trkpt><trkpt lat="42.034573883487425" lon="13.742911504753206"><ele>1160.0</ele><time>2026-05-02T12:10:22Z</time></trkpt><trkpt lat="42.0346648167431" lon="13.742625739313622"><ele>1163.6666666666667</ele><time>2026-05-02T12:10:23Z</time></trkpt><trkpt lat="42.03474224630886" lon="13.742351330577524"><ele>1167.3333333333333</ele><time>2026-05-02T12:10:24Z</time></trkpt><trkpt lat="42.03482431065493" lon="13.742109956373737"><ele>1171.0</ele><time>2026-05-02T12:10:25Z</time></trkpt><trkpt lat="42.034893765188315" lon="13.741877976393543"><ele>1171.0</ele><time>2026-05-02T12:10:26Z</time></trkpt><trkpt lat="42.034960866196045" lon="13.741664378860609"><ele>1171.0</ele><time>2026-05-02T12:10:27Z</time></trkpt><trkpt lat="42.03501373108615" lon="13.741487306529837"><ele>1171.0</ele><time>2026-05-02T12:10:28Z</time></trkpt><trkpt lat="42.03504713959314" lon="13.741326593222631"><ele>1171.0</ele><time>2026-05-02T12:10:29Z</time></trkpt><trkpt lat="42.035035143006574" lon="13.741147801922105"><ele>1167.3333333333333</ele><time>2026-05-02T12:10:30Z</time></trkpt><trkpt lat="42.03496276340123" lon="13.740980354342568"><ele>1163.6666666666667</ele><time>2026-05-02T12:10:31Z</time></trkpt><trkpt lat="42.03487466588434" lon="13.740749586058344"><ele>1160.0</ele><time>2026-05-02T12:10:32Z</time></trkpt><trkpt lat="42.03477569316046" lon="13.74053504506995"><ele>1160.0</ele><time>2026-05-02T12:10:33Z</time></trkpt><trkpt lat="42.03466126477265" lon="13.740308049213354"><ele>1160.0</ele><time>2026-05-02T12:10:34Z</time></trkpt><trkpt lat="42.0345550315499" lon="13.74005457527013"><ele>1160.0</ele><time>2026-05-02T12:10:35Z</time></trkpt><trkpt lat="42.03444681478958" lon="13.739803605952908"><ele>1155.3333333333335</ele><time>2026-05-02T12:10:36Z</time></trkpt><trkpt lat="42.03433821324029" lon="13.739569500852868"><ele>1150.6666666666667</ele><time>2026-05-02T12:10:37Z</time></trkpt><trkpt lat="42.03422613393242" lon="13.739336787957301"><ele>1146.0</ele><time>2026-05-02T12:10:38Z</time></trkpt><trkpt lat="42.03409632786229" lon="13.739108956369934"><ele>1146.0</ele><time>2026-05-02T12:10:39Z</time></trkpt><trkpt lat="42.03395480865035" lon="13.738890287499634"><ele>1146.0</ele><time>2026-05-02T12:10:40Z</time></trkpt><trkpt lat="42.033809068512596" lon="13.738696707938844"><ele>1146.0</ele><time>2026-05-02T12:10:41Z</time></trkpt><trkpt lat="42.03366688892727" lon="13.738517401785012"><ele>1138.6666666666667</ele><time>2026-05-02T12:10:42Z</time></trkpt><trkpt lat="42.03352382768217" lon="13.73836496957601"><ele>1131.3333333333335</ele><time>2026-05-02T12:10:43Z</time></trkpt><trkpt lat="42.0333747279284" lon="13.738234616161018"><ele>1124.0</ele><time>2026-05-02T12:10:44Z</time></trkpt><trkpt lat="42.03321416912441" lon="13.738125667190523"><ele>1124.0</ele><time>2026-05-02T12:10:45Z</time></trkpt><trkpt lat="42.033020578401405" lon="13.738047303260604"><ele>1124.0</ele><time>2026-05-02T12:10:46Z</time></trkpt><trkpt lat="42.03282564250632" lon="13.737972907303632"><ele>1124.0</ele><time>2026-05-02T12:10:47Z</time></trkpt><trkpt lat="42.03266059852749" lon="13.73790407470361"><ele>1124.0</ele><time>2026-05-02T12:10:48Z</time></trkpt><trkpt lat="42.032515795717615" lon="13.737848139654696"><ele>1124.0</ele><time>2026-05-02T12:10:49Z</time></trkpt><trkpt lat="42.03240673138974" lon="13.737805828541688"><ele>1124.0</ele><time>2026-05-02T12:10:50Z</time></trkpt><trkpt lat="42.032309068593705" lon="13.73775000885664"><ele>1124.0</ele><time>2026-05-02T12:10:51Z</time></trkpt><trkpt lat="42.03223113449858" lon="13.737682518778328"><ele>1124.0</ele><time>2026-05-02T12:10:52Z</time></trkpt><trkpt lat="42.03218756456215" lon="13.737591325381516"><ele>1124.0</ele><time>2026-05-02T12:10:53Z</time></trkpt><trkpt lat="42.03216322996189" lon="13.73745859319506"><ele>1124.0</ele><time>2026-05-02T12:10:55Z</time></trkpt><trkpt lat="42.032100091769635" lon="13.737495030979938"><ele>1124.0</ele><time>2026-05-02T12:10:58Z</time></trkpt><trkpt lat="42.03210429228575" lon="13.737394987645585"><ele>1124.0</ele><time>2026-05-02T12:11:06Z</time></trkpt><trkpt lat="42.03214548763185" lon="13.73726769252833"><ele>1124.0</ele><time>2026-05-02T12:11:07Z</time></trkpt><trkpt lat="42.03219560905449" lon="13.737182663710609"><ele>1124.0</ele><time>2026-05-02T12:11:08Z</time></trkpt><trkpt lat="42.032241909551125" lon="13.737072979820116"><ele>1124.0</ele><time>2026-05-02T12:11:09Z</time></trkpt><trkpt lat="42.03228136786259" lon="13.736938233307997"><ele>1124.0</ele><time>2026-05-02T12:11:10Z</time></trkpt><trkpt lat="42.032320753134485" lon="13.736791355532139"><ele>1124.0</ele><time>2026-05-02T12:11:11Z</time></trkpt><trkpt lat="42.03233004221614" lon="13.736633280570524"><ele>1124.0</ele><time>2026-05-02T12:11:12Z</time></trkpt><trkpt lat="42.032314566123176" lon="13.736490042501462"><ele>1123.25</ele><time>2026-05-02T12:11:13Z</time></trkpt><trkpt lat="42.03225640171159" lon="13.736317399087477"><ele>1122.5</ele><time>2026-05-02T12:11:14Z</time></trkpt><trkpt lat="42.03217838370635" lon="13.73615037791696"><ele>1121.75</ele><time>2026-05-02T12:11:15Z</time></trkpt><trkpt lat="42.0320848032006" lon="13.735983891189221"><ele>1121.0</ele><time>2026-05-02T12:11:16Z</time></trkpt><trkpt lat="42.03198034422151" lon="13.735813028630686"><ele>1119.0</ele><time>2026-05-02T12:11:17Z</time></trkpt><trkpt lat="42.03184977127827" lon="13.735637404070657"><ele>1117.0</ele><time>2026-05-02T12:11:18Z</time></trkpt><trkpt lat="42.03169084276573" lon="13.735467502709934"><ele>1115.0</ele><time>2026-05-02T12:11:19Z</time></trkpt><trkpt lat="42.031533229529664" lon="13.735317877594474"><ele>1105.3333333333335</ele><time>2026-05-02T12:11:20Z</time></trkpt><trkpt lat="42.03139840655181" lon="13.735143965670838"><ele>1095.6666666666667</ele><time>2026-05-02T12:11:21Z</time></trkpt><trkpt lat="42.031272899911855" lon="13.735018926763306"><ele>1086.0</ele><time>2026-05-02T12:11:22Z</time></trkpt><trkpt lat="42.031144571023056" lon="13.734905225539556"><ele>1086.0</ele><time>2026-05-02T12:11:23Z</time></trkpt><trkpt lat="42.03101274481124" lon="13.734825554813003"><ele>1086.0</ele><time>2026-05-02T12:11:24Z</time></trkpt><trkpt lat="42.03085026656784" lon="13.734778440540202"><ele>1086.0</ele><time>2026-05-02T12:11:25Z</time></trkpt><trkpt lat="42.030674746247605" lon="13.734778535141226"><ele>1084.0</ele><time>2026-05-02T12:11:26Z</time></trkpt><trkpt lat="42.03048217299962" lon="13.734803141756968"><ele>1082.0</ele><time>2026-05-02T12:11:27Z</time></trkpt><trkpt lat="42.030285680215265" lon="13.734806763045428"><ele>1080.0</ele><time>2026-05-02T12:11:28Z</time></trkpt><trkpt lat="42.03010546697431" lon="13.734816605885934"><ele>1074.6666666666667</ele><time>2026-05-02T12:11:29Z</time></trkpt><trkpt lat="42.029921893976024" lon="13.73482478286679"><ele>1069.3333333333335</ele><time>2026-05-02T12:11:30Z</time></trkpt><trkpt lat="42.02975105062364" lon="13.734870499718417"><ele>1064.0</ele><time>2026-05-02T12:11:31Z</time></trkpt><trkpt lat="42.02959056547336" lon="13.73493600343046"><ele>1064.0</ele><time>2026-05-02T12:11:32Z</time></trkpt><trkpt lat="42.02943396993904" lon="13.735037747577536"><ele>1064.0</ele><time>2026-05-02T12:11:33Z</time></trkpt><trkpt lat="42.029275143441495" lon="13.735123692652543"><ele>1064.0</ele><time>2026-05-02T12:11:34Z</time></trkpt><trkpt lat="42.02914276677255" lon="13.735215861357908"><ele>1064.25</ele><time>2026-05-02T12:11:35Z</time></trkpt><trkpt lat="42.029011929405286" lon="13.735277004142244"><ele>1064.5</ele><time>2026-05-02T12:11:36Z</time></trkpt><trkpt lat="42.0288912898384" lon="13.735324760466334"><ele>1064.75</ele><time>2026-05-02T12:11:37Z</time></trkpt><trkpt lat="42.02876468557065" lon="13.735289702472077"><ele>1065.0</ele><time>2026-05-02T12:11:38Z</time></trkpt><trkpt lat="42.02865115138162" lon="13.735183050504641"><ele>1065.0</ele><time>2026-05-02T12:11:39Z</time></trkpt><trkpt lat="42.028539494416165" lon="13.735030779032364"><ele>1065.0</ele><time>2026-05-02T12:11:40Z</time></trkpt><trkpt lat="42.02843167742576" lon="13.734907999017079"><ele>1065.0</ele><time>2026-05-02T12:11:41Z</time></trkpt><trkpt lat="42.02830174386191" lon="13.734832323170636"><ele>1065.0</ele><time>2026-05-02T12:11:42Z</time></trkpt><trkpt lat="42.0281370239566" lon="13.734781287350945"><ele>1065.6666666666667</ele><time>2026-05-02T12:11:43Z</time></trkpt><trkpt lat="42.0279527594984" lon="13.734774204869483"><ele>1066.3333333333335</ele><time>2026-05-02T12:11:44Z</time></trkpt><trkpt lat="42.027767174600044" lon="13.734777654399656"><ele>1067.0</ele><time>2026-05-02T12:11:45Z</time></trkpt><trkpt lat="42.02757092280051" lon="13.734778067549959"><ele>1062.3333333333335</ele><time>2026-05-02T12:11:46Z</time></trkpt><trkpt lat="42.027372160322194" lon="13.734795063296911"><ele>1057.6666666666667</ele><time>2026-05-02T12:11:47Z</time></trkpt><trkpt lat="42.027154463604774" lon="13.73482451795111"><ele>1053.0</ele><time>2026-05-02T12:11:48Z</time></trkpt><trkpt lat="42.02695531287178" lon="13.734861324499708"><ele>1053.0</ele><time>2026-05-02T12:11:49Z</time></trkpt><trkpt lat="42.02677206557318" lon="13.734908748050398"><ele>1053.0</ele><time>2026-05-02T12:11:50Z</time></trkpt><trkpt lat="42.02659651498197" lon="13.734961215451376"><ele>1053.0</ele><time>2026-05-02T12:11:51Z</time></trkpt><trkpt lat="42.026427499675876" lon="13.735039701790532"><ele>1056.6666666666667</ele><time>2026-05-02T12:11:52Z</time></trkpt><trkpt lat="42.02625135305122" lon="13.735164628249622"><ele>1060.3333333333335</ele><time>2026-05-02T12:11:53Z</time></trkpt><trkpt lat="42.02606674728679" lon="13.735308924762569"><ele>1064.0</ele><time>2026-05-02T12:11:54Z</time></trkpt><trkpt lat="42.02589452917582" lon="13.735432978561713"><ele>1060.0</ele><time>2026-05-02T12:11:55Z</time></trkpt><trkpt lat="42.025717491310324" lon="13.735519253004501"><ele>1056.0</ele><time>2026-05-02T12:11:56Z</time></trkpt><trkpt lat="42.02556090489459" lon="13.73558108672285"><ele>1052.0</ele><time>2026-05-02T12:11:57Z</time></trkpt><trkpt lat="42.025423374034105" lon="13.735634964832768"><ele>1052.0</ele><time>2026-05-02T12:11:58Z</time></trkpt><trkpt lat="42.02529237088303" lon="13.735683158675467"><ele>1052.0</ele><time>2026-05-02T12:11:59Z</time></trkpt><trkpt lat="42.02516760592612" lon="13.73571672464132"><ele>1052.0</ele><time>2026-05-02T12:12:00Z</time></trkpt><trkpt lat="42.025047304917805" lon="13.735680443603613"><ele>1052.0</ele><time>2026-05-02T12:12:01Z</time></trkpt><trkpt lat="42.02494772582647" lon="13.735622116241142"><ele>1056.0</ele><time>2026-05-02T12:12:02Z</time></trkpt><trkpt lat="42.02488853699648" lon="13.73551116374569"><ele>1060.0</ele><time>2026-05-02T12:12:03Z</time></trkpt><trkpt lat="42.024865891533665" lon="13.735375404884989"><ele>1064.0</ele><time>2026-05-02T12:12:04Z</time></trkpt><trkpt lat="42.0248696052905" lon="13.735195446492217"><ele>1068.0</ele><time>2026-05-02T12:12:05Z</time></trkpt><trkpt lat="42.0248475375887" lon="13.734980495263487"><ele>1068.0</ele><time>2026-05-02T12:12:06Z</time></trkpt><trkpt lat="42.02482158970661" lon="13.734791603651377"><ele>1068.0</ele><time>2026-05-02T12:12:07Z</time></trkpt><trkpt lat="42.024787909461836" lon="13.73464535075062"><ele>1068.0</ele><time>2026-05-02T12:12:08Z</time></trkpt><trkpt lat="42.024709051374174" lon="13.73452944911856"><ele>1068.0</ele><time>2026-05-02T12:12:09Z</time></trkpt><trkpt lat="42.02459424168329" lon="13.734443192657439"><ele>1058.0</ele><time>2026-05-02T12:12:10Z</time></trkpt><trkpt lat="42.024414595081794" lon="13.734347452830958"><ele>1048.0</ele><time>2026-05-02T12:12:11Z</time></trkpt><trkpt lat="42.024227387201464" lon="13.734275351227396"><ele>1038.0</ele><time>2026-05-02T12:12:12Z</time></trkpt><trkpt lat="42.02401164347076" lon="13.734196210600997"><ele>1038.0</ele><time>2026-05-02T12:12:13Z</time></trkpt><trkpt lat="42.0237915650243" lon="13.734118254148152"><ele>1038.0</ele><time>2026-05-02T12:12:14Z</time></trkpt><trkpt lat="42.023563088951946" lon="13.734036580179954"><ele>1038.0</ele><time>2026-05-02T12:12:15Z</time></trkpt><trkpt lat="42.02333054399241" lon="13.733953770608478"><ele>1038.0</ele><time>2026-05-02T12:12:16Z</time></trkpt><trkpt lat="42.02309859531085" lon="13.733871725831118"><ele>1039.5</ele><time>2026-05-02T12:12:17Z</time></trkpt><trkpt lat="42.02285077955072" lon="13.733805664583405"><ele>1041.0</ele><time>2026-05-02T12:12:18Z</time></trkpt><trkpt lat="42.02257888282949" lon="13.733764576028934"><ele>1041.0</ele><time>2026-05-02T12:12:19Z</time></trkpt><trkpt lat="42.022319194626114" lon="13.733738430395018"><ele>1041.0</ele><time>2026-05-02T12:12:20Z</time></trkpt><trkpt lat="42.02207407674593" lon="13.733714787865434"><ele>1041.0</ele><time>2026-05-02T12:12:21Z</time></trkpt><trkpt lat="42.02184330505865" lon="13.733691839721153"><ele>1041.0</ele><time>2026-05-02T12:12:22Z</time></trkpt><trkpt lat="42.02163294564202" lon="13.733669020823092"><ele>1041.0</ele><time>2026-05-02T12:12:23Z</time></trkpt><trkpt lat="42.021437187162086" lon="13.733647979964138"><ele>1039.6666666666667</ele><time>2026-05-02T12:12:24Z</time></trkpt><trkpt lat="42.02125400609982" lon="13.73363379114475"><ele>1038.3333333333335</ele><time>2026-05-02T12:12:25Z</time></trkpt><trkpt lat="42.02108459014226" lon="13.733610225475852"><ele>1037.0</ele><time>2026-05-02T12:12:26Z</time></trkpt><trkpt lat="42.02092078399958" lon="13.733564992715127"><ele>1029.6666666666667</ele><time>2026-05-02T12:12:27Z</time></trkpt><trkpt lat="42.020756090596905" lon="13.733511182445064"><ele>1022.3333333333333</ele><time>2026-05-02T12:12:28Z</time></trkpt><trkpt lat="42.020596545430315" lon="13.733413544169528"><ele>1015.0</ele><time>2026-05-02T12:12:29Z</time></trkpt><trkpt lat="42.020425422150126" lon="13.733346608541684"><ele>1015.0</ele><time>2026-05-02T12:12:30Z</time></trkpt><trkpt lat="42.020256935400525" lon="13.733267198641538"><ele>1015.0</ele><time>2026-05-02T12:12:31Z</time></trkpt><trkpt lat="42.02008795028828" lon="13.733183387251254"><ele>1015.0</ele><time>2026-05-02T12:12:32Z</time></trkpt><trkpt lat="42.01990248466655" lon="13.73309818926551"><ele>1016.3333333333333</ele><time>2026-05-02T12:12:33Z</time></trkpt><trkpt lat="42.01972013376472" lon="13.732997773953336"><ele>1017.6666666666667</ele><time>2026-05-02T12:12:34Z</time></trkpt><trkpt lat="42.01952717144653" lon="13.73291338222401"><ele>1019.0</ele><time>2026-05-02T12:12:35Z</time></trkpt><trkpt lat="42.01933546471723" lon="13.732800521546539"><ele>1014.0</ele><time>2026-05-02T12:12:36Z</time></trkpt><trkpt lat="42.01914501148153" lon="13.7327058913752"><ele>1009.0</ele><time>2026-05-02T12:12:37Z</time></trkpt><trkpt lat="42.01895756573306" lon="13.73263179271661"><ele>1004.0</ele><time>2026-05-02T12:12:38Z</time></trkpt><trkpt lat="42.018772936260454" lon="13.732528819869655"><ele>1004.0</ele><time>2026-05-02T12:12:39Z</time></trkpt><trkpt lat="42.01859085514292" lon="13.732386767899564"><ele>1004.0</ele><time>2026-05-02T12:12:40Z</time></trkpt><trkpt lat="42.018415668423884" lon="13.732232727657584"><ele>1004.0</ele><time>2026-05-02T12:12:41Z</time></trkpt><trkpt lat="42.018261805000726" lon="13.732102990900836"><ele>1004.3333333333334</ele><time>2026-05-02T12:12:42Z</time></trkpt><trkpt lat="42.018134334145905" lon="13.731969532030899"><ele>1004.6666666666667</ele><time>2026-05-02T12:12:43Z</time></trkpt><trkpt lat="42.01801683870684" lon="13.731850190426009"><ele>1005.0</ele><time>2026-05-02T12:12:44Z</time></trkpt><trkpt lat="42.01788553965359" lon="13.73175240288283"><ele>999.6666666666667</ele><time>2026-05-02T12:12:45Z</time></trkpt><trkpt lat="42.017730266974155" lon="13.731700077895288"><ele>994.3333333333334</ele><time>2026-05-02T12:12:46Z</time></trkpt><trkpt lat="42.01755930149192" lon="13.731712163853407"><ele>989.0</ele><time>2026-05-02T12:12:47Z</time></trkpt><trkpt lat="42.01737690573373" lon="13.731760022304115"><ele>988.0</ele><time>2026-05-02T12:12:48Z</time></trkpt><trkpt lat="42.017193952275754" lon="13.73182466527081"><ele>987.0</ele><time>2026-05-02T12:12:49Z</time></trkpt><trkpt lat="42.017029380430316" lon="13.731869538014442"><ele>986.0</ele><time>2026-05-02T12:12:50Z</time></trkpt><trkpt lat="42.01686528933059" lon="13.73186551080195"><ele>986.0</ele><time>2026-05-02T12:12:51Z</time></trkpt><trkpt lat="42.016713464150214" lon="13.731804079948695"><ele>986.0</ele><time>2026-05-02T12:12:52Z</time></trkpt><trkpt lat="42.01656448830261" lon="13.731696406510606"><ele>986.0</ele><time>2026-05-02T12:12:53Z</time></trkpt><trkpt lat="42.01642729048904" lon="13.731535486074351"><ele>987.6666666666667</ele><time>2026-05-02T12:12:54Z</time></trkpt><trkpt lat="42.01628194428341" lon="13.731377854178222"><ele>989.3333333333333</ele><time>2026-05-02T12:12:55Z</time></trkpt><trkpt lat="42.01613109005226" lon="13.731223192780574"><ele>991.0</ele><time>2026-05-02T12:12:56Z</time></trkpt><trkpt lat="42.0159953871787" lon="13.731077506054133"><ele>987.75</ele><time>2026-05-02T12:12:57Z</time></trkpt><trkpt lat="42.015876449685756" lon="13.730949761571468"><ele>984.5</ele><time>2026-05-02T12:12:58Z</time></trkpt><trkpt lat="42.01576802274939" lon="13.730860136416686"><ele>981.25</ele><time>2026-05-02T12:12:59Z</time></trkpt><trkpt lat="42.01565059587982" lon="13.730800343547159"><ele>978.0</ele><time>2026-05-02T12:13:00Z</time></trkpt><trkpt lat="42.01550939323448" lon="13.730806473641344"><ele>977.0</ele><time>2026-05-02T12:13:01Z</time></trkpt><trkpt lat="42.015348831318505" lon="13.730849597332607"><ele>976.0</ele><time>2026-05-02T12:13:02Z</time></trkpt><trkpt lat="42.01519015703404" lon="13.73094449206805"><ele>975.0</ele><time>2026-05-02T12:13:03Z</time></trkpt><trkpt lat="42.01502449848155" lon="13.731046725555805"><ele>978.3333333333333</ele><time>2026-05-02T12:13:04Z</time></trkpt><trkpt lat="42.0148730926671" lon="13.73114085180915"><ele>981.6666666666666</ele><time>2026-05-02T12:13:05Z</time></trkpt><trkpt lat="42.01473339238535" lon="13.731207858096845"><ele>985.0</ele><time>2026-05-02T12:13:06Z</time></trkpt><trkpt lat="42.01459523678818" lon="13.731220908156704"><ele>985.0</ele><time>2026-05-02T12:13:07Z</time></trkpt><trkpt lat="42.014439590684944" lon="13.731145885517188"><ele>985.0</ele><time>2026-05-02T12:13:08Z</time></trkpt><trkpt lat="42.01428035159848" lon="13.731009181705856"><ele>985.0</ele><time>2026-05-02T12:13:09Z</time></trkpt><trkpt lat="42.014114809753686" lon="13.730870434605153"><ele>980.3333333333333</ele><time>2026-05-02T12:13:10Z</time></trkpt><trkpt lat="42.013952211557594" lon="13.730740562537383"><ele>975.6666666666667</ele><time>2026-05-02T12:13:11Z</time></trkpt><trkpt lat="42.0138160973313" lon="13.730624263068064"><ele>971.0</ele><time>2026-05-02T12:13:12Z</time></trkpt><trkpt lat="42.01368206266731" lon="13.730520213466232"><ele>971.0</ele><time>2026-05-02T12:13:13Z</time></trkpt><trkpt lat="42.01353094457288" lon="13.730457082635578"><ele>971.0</ele><time>2026-05-02T12:13:14Z</time></trkpt><trkpt lat="42.01334392268654" lon="13.730427968248708"><ele>971.0</ele><time>2026-05-02T12:13:15Z</time></trkpt><trkpt lat="42.01312198166683" lon="13.730462160856037"><ele>969.6666666666667</ele><time>2026-05-02T12:13:16Z</time></trkpt><trkpt lat="42.01291115830119" lon="13.730489668051975"><ele>968.3333333333333</ele><time>2026-05-02T12:13:17Z</time></trkpt><trkpt lat="42.01269099759963" lon="13.730518743712507"><ele>967.0</ele><time>2026-05-02T12:13:18Z</time></trkpt><trkpt lat="42.01246880827396" lon="13.73054371014729"><ele>966.5</ele><time>2026-05-02T12:13:19Z</time></trkpt><trkpt lat="42.01224368101475" lon="13.730526446994393"><ele>966.0</ele><time>2026-05-02T12:13:20Z</time></trkpt><trkpt lat="42.01200185414011" lon="13.730458649129828"><ele>966.0</ele><time>2026-05-02T12:13:21Z</time></trkpt><trkpt lat="42.01175581218505" lon="13.730388462114847"><ele>966.0</ele><time>2026-05-02T12:13:22Z</time></trkpt><trkpt lat="42.01153465223083" lon="13.730345895886526"><ele>966.0</ele><time>2026-05-02T12:13:23Z</time></trkpt><trkpt lat="42.01133756784152" lon="13.730290205899756"><ele>966.0</ele><time>2026-05-02T12:13:24Z</time></trkpt><trkpt lat="42.01116452221073" lon="13.730225761589676"><ele>966.0</ele><time>2026-05-02T12:13:25Z</time></trkpt><trkpt lat="42.0110057645598" lon="13.73010553554882"><ele>965.0</ele><time>2026-05-02T12:13:26Z</time></trkpt><trkpt lat="42.01083164628465" lon="13.729930474312141"><ele>964.0</ele><time>2026-05-02T12:13:27Z</time></trkpt><trkpt lat="42.01067621693022" lon="13.729792271130089"><ele>963.0</ele><time>2026-05-02T12:13:28Z</time></trkpt><trkpt lat="42.01055341178825" lon="13.729659083720687"><ele>963.0</ele><time>2026-05-02T12:13:29Z</time></trkpt><trkpt lat="42.0104377207814" lon="13.729507506426813"><ele>963.0</ele><time>2026-05-02T12:13:30Z</time></trkpt><trkpt lat="42.0103577097692" lon="13.729343042375143"><ele>963.0</ele><time>2026-05-02T12:13:31Z</time></trkpt><trkpt lat="42.0102934275822" lon="13.729118643887444"><ele>961.0</ele><time>2026-05-02T12:13:32Z</time></trkpt><trkpt lat="42.010237244303774" lon="13.728862299904787"><ele>959.0</ele><time>2026-05-02T12:13:33Z</time></trkpt><trkpt lat="42.01016923509379" lon="13.728596229675373"><ele>957.0</ele><time>2026-05-02T12:13:34Z</time></trkpt><trkpt lat="42.010094240736954" lon="13.728322235472037"><ele>954.0</ele><time>2026-05-02T12:13:35Z</time></trkpt><trkpt lat="42.01003180319228" lon="13.728073488683064"><ele>951.0</ele><time>2026-05-02T12:13:36Z</time></trkpt><trkpt lat="42.009997127819396" lon="13.727863106605568"><ele>948.0</ele><time>2026-05-02T12:13:37Z</time></trkpt><trkpt lat="42.00994715425174" lon="13.727672321257957"><ele>946.0</ele><time>2026-05-02T12:13:38Z</time></trkpt><trkpt lat="42.009890597786026" lon="13.727512026379992"><ele>944.0</ele><time>2026-05-02T12:13:39Z</time></trkpt><trkpt lat="42.00979888233221" lon="13.72738584252661"><ele>942.0</ele><time>2026-05-02T12:13:40Z</time></trkpt><trkpt lat="42.009677418595395" lon="13.727292611134182"><ele>940.0</ele><time>2026-05-02T12:13:41Z</time></trkpt><trkpt lat="42.00954197529837" lon="13.727256731208845"><ele>940.0</ele><time>2026-05-02T12:13:42Z</time></trkpt><trkpt lat="42.00938641290921" lon="13.72727118665847"><ele>940.0</ele><time>2026-05-02T12:13:43Z</time></trkpt><trkpt lat="42.00922646453429" lon="13.727333589408111"><ele>940.0</ele><time>2026-05-02T12:13:44Z</time></trkpt><trkpt lat="42.009050227799605" lon="13.727413657987015"><ele>939.0</ele><time>2026-05-02T12:13:45Z</time></trkpt><trkpt lat="42.00890154522932" lon="13.727482646376563"><ele>938.0</ele><time>2026-05-02T12:13:46Z</time></trkpt><trkpt lat="42.00876660488111" lon="13.727518703661689"><ele>937.0</ele><time>2026-05-02T12:13:47Z</time></trkpt><trkpt lat="42.00863670466554" lon="13.727554567007813"><ele>936.0</ele><time>2026-05-02T12:13:48Z</time></trkpt><trkpt lat="42.00852396893879" lon="13.727526010791133"><ele>936.0</ele><time>2026-05-02T12:13:49Z</time></trkpt><trkpt lat="42.008418477189046" lon="13.727473199240396"><ele>935.9999999999999</ele><time>2026-05-02T12:13:50Z</time></trkpt><trkpt lat="42.00832985747227" lon="13.727386186420953"><ele>935.9999999999999</ele><time>2026-05-02T12:13:51Z</time></trkpt><trkpt lat="42.00826761051124" lon="13.727264389999439"><ele>936.0</ele><time>2026-05-02T12:13:52Z</time></trkpt><trkpt lat="42.00820052005425" lon="13.727158694820616"><ele>936.0</ele><time>2026-05-02T12:13:53Z</time></trkpt><trkpt lat="42.00814066875461" lon="13.727066346777269"><ele>933.6666666666667</ele><time>2026-05-02T12:13:54Z</time></trkpt><trkpt lat="42.00821413412958" lon="13.726854004186258"><ele>931.3333333333334</ele><time>2026-05-02T12:13:55Z</time></trkpt><trkpt lat="42.00826121984158" lon="13.726686848826246"><ele>929.0</ele><time>2026-05-02T12:13:56Z</time></trkpt><trkpt lat="42.00832517075605" lon="13.726507720979031"><ele>929.0</ele><time>2026-05-02T12:13:57Z</time></trkpt><trkpt lat="42.008406684531955" lon="13.726292388274317"><ele>929.0</ele><time>2026-05-02T12:13:58Z</time></trkpt><trkpt lat="42.008496566080716" lon="13.726097278061278"><ele>929.0</ele><time>2026-05-02T12:13:59Z</time></trkpt><trkpt lat="42.00863201004324" lon="13.725944362805949"><ele>926.0</ele><time>2026-05-02T12:14:00Z</time></trkpt><trkpt lat="42.008767230351964" lon="13.725789622976007"><ele>923.0</ele><time>2026-05-02T12:14:01Z</time></trkpt><trkpt lat="42.00889766523994" lon="13.725639768790534"><ele>920.0</ele><time>2026-05-02T12:14:02Z</time></trkpt><trkpt lat="42.00899187823156" lon="13.725508639240037"><ele>920.0</ele><time>2026-05-02T12:14:03Z</time></trkpt><trkpt lat="42.00909513433973" lon="13.725448534144059"><ele>920.0</ele><time>2026-05-02T12:14:04Z</time></trkpt><trkpt lat="42.00918469435347" lon="13.725436790548487"><ele>920.0</ele><time>2026-05-02T12:14:05Z</time></trkpt><trkpt lat="42.009280676628975" lon="13.72548804923295"><ele>920.0</ele><time>2026-05-02T12:14:06Z</time></trkpt><trkpt lat="42.00941231950493" lon="13.725573926350556"><ele>921.0</ele><time>2026-05-02T12:14:07Z</time></trkpt><trkpt lat="42.00955243702348" lon="13.725667183635172"><ele>922.0</ele><time>2026-05-02T12:14:08Z</time></trkpt><trkpt lat="42.00969828065189" lon="13.725760974967956"><ele>923.0</ele><time>2026-05-02T12:14:09Z</time></trkpt><trkpt lat="42.00983764364309" lon="13.725838743833027"><ele>923.0</ele><time>2026-05-02T12:14:10Z</time></trkpt><trkpt lat="42.00997685118269" lon="13.725870706157242"><ele>923.0</ele><time>2026-05-02T12:14:11Z</time></trkpt><trkpt lat="42.01011004685518" lon="13.725838244721656"><ele>923.0</ele><time>2026-05-02T12:14:12Z</time></trkpt><trkpt lat="42.01023218133642" lon="13.725769758425153"><ele>923.0</ele><time>2026-05-02T12:14:13Z</time></trkpt><trkpt lat="42.01034568509491" lon="13.725649566618499"><ele>920.6666666666667</ele><time>2026-05-02T12:14:14Z</time></trkpt><trkpt lat="42.010420688993065" lon="13.725461911633625"><ele>918.3333333333333</ele><time>2026-05-02T12:14:15Z</time></trkpt><trkpt lat="42.010464074317646" lon="13.72526373118624"><ele>916.0</ele><time>2026-05-02T12:14:16Z</time></trkpt><trkpt lat="42.01045452355314" lon="13.72504944926091"><ele>914.0</ele><time>2026-05-02T12:14:17Z</time></trkpt><trkpt lat="42.0104177075446" lon="13.724801376547166"><ele>912.0</ele><time>2026-05-02T12:14:18Z</time></trkpt><trkpt lat="42.010391464712335" lon="13.724564105340598"><ele>910.0</ele><time>2026-05-02T12:14:19Z</time></trkpt><trkpt lat="42.01036027320258" lon="13.724316169624222"><ele>907.6666666666666</ele><time>2026-05-02T12:14:20Z</time></trkpt><trkpt lat="42.01034939707368" lon="13.724093197369909"><ele>905.3333333333333</ele><time>2026-05-02T12:14:21Z</time></trkpt><trkpt lat="42.010347052104514" lon="13.723869121513848"><ele>903.0</ele><time>2026-05-02T12:14:22Z</time></trkpt><trkpt lat="42.0103723345303" lon="13.723642293601056"><ele>901.0</ele><time>2026-05-02T12:14:23Z</time></trkpt><trkpt lat="42.01043152713293" lon="13.723413665091407"><ele>899.0</ele><time>2026-05-02T12:14:24Z</time></trkpt><trkpt lat="42.01049733751577" lon="13.7232251913157"><ele>897.0</ele><time>2026-05-02T12:14:25Z</time></trkpt><trkpt lat="42.010554181211255" lon="13.72307538422112"><ele>897.0</ele><time>2026-05-02T12:14:26Z</time></trkpt><trkpt lat="42.01062821669407" lon="13.722957454828359"><ele>897.0</ele><time>2026-05-02T12:14:27Z</time></trkpt><trkpt lat="42.010745385548056" lon="13.72288329069111"><ele>897.0</ele><time>2026-05-02T12:14:28Z</time></trkpt><trkpt lat="42.01088918285516" lon="13.722863650736015"><ele>897.0</ele><time>2026-05-02T12:14:29Z</time></trkpt><trkpt lat="42.01104839060246" lon="13.722922875875403"><ele>899.3333333333333</ele><time>2026-05-02T12:14:30Z</time></trkpt><trkpt lat="42.01122175992395" lon="13.722936981149886"><ele>901.6666666666666</ele><time>2026-05-02T12:14:31Z</time></trkpt><trkpt lat="42.01136096030675" lon="13.723000993228352"><ele>904.0</ele><time>2026-05-02T12:14:32Z</time></trkpt><trkpt lat="42.01148772124115" lon="13.723073031288422"><ele>904.0</ele><time>2026-05-02T12:14:33Z</time></trkpt><trkpt lat="42.01160840189159" lon="13.723207895169146"><ele>904.0</ele><time>2026-05-02T12:14:34Z</time></trkpt><trkpt lat="42.01173703766652" lon="13.723358566779261"><ele>904.0</ele><time>2026-05-02T12:14:35Z</time></trkpt><trkpt lat="42.011849908678215" lon="13.723515235157073"><ele>903.0</ele><time>2026-05-02T12:14:36Z</time></trkpt><trkpt lat="42.01195368543701" lon="13.723643588934241"><ele>902.0</ele><time>2026-05-02T12:14:37Z</time></trkpt><trkpt lat="42.01204194165878" lon="13.723740160250998"><ele>901.0</ele><time>2026-05-02T12:14:38Z</time></trkpt><trkpt lat="42.01217860190582" lon="13.723776747747822"><ele>900.0</ele><time>2026-05-02T12:14:39Z</time></trkpt><trkpt lat="42.0123188136469" lon="13.72373437472425"><ele>900.0</ele><time>2026-05-02T12:14:40Z</time></trkpt><trkpt lat="42.0124596828696" lon="13.72361310838226"><ele>900.0</ele><time>2026-05-02T12:14:41Z</time></trkpt><trkpt lat="42.01260640488513" lon="13.723438908686763"><ele>900.0</ele><time>2026-05-02T12:14:42Z</time></trkpt><trkpt lat="42.01274685783854" lon="13.723271214095565"><ele>897.0</ele><time>2026-05-02T12:14:43Z</time></trkpt><trkpt lat="42.01289009979542" lon="13.723102458349118"><ele>894.0</ele><time>2026-05-02T12:14:44Z</time></trkpt><trkpt lat="42.013020127572325" lon="13.7229492707847"><ele>891.0</ele><time>2026-05-02T12:14:45Z</time></trkpt><trkpt lat="42.013130301170385" lon="13.722829269745603"><ele>891.0</ele><time>2026-05-02T12:14:46Z</time></trkpt><trkpt lat="42.013233791284094" lon="13.722742968879944"><ele>891.0</ele><time>2026-05-02T12:14:47Z</time></trkpt><trkpt lat="42.01335206410922" lon="13.722716705921975"><ele>891.0</ele><time>2026-05-02T12:14:48Z</time></trkpt><trkpt lat="42.01349216502843" lon="13.722744826177138"><ele>891.0</ele><time>2026-05-02T12:14:49Z</time></trkpt><trkpt lat="42.01365632310374" lon="13.722819709295624"><ele>891.0</ele><time>2026-05-02T12:14:50Z</time></trkpt><trkpt lat="42.01383728881301" lon="13.722908970844639"><ele>891.0</ele><time>2026-05-02T12:14:51Z</time></trkpt><trkpt lat="42.01398649404838" lon="13.722964161759752"><ele>891.0</ele><time>2026-05-02T12:14:52Z</time></trkpt><trkpt lat="42.0141172975722" lon="13.722972230684277"><ele>889.3333333333333</ele><time>2026-05-02T12:14:53Z</time></trkpt><trkpt lat="42.014245310108784" lon="13.722898813950108"><ele>887.6666666666666</ele><time>2026-05-02T12:14:54Z</time></trkpt><trkpt lat="42.01438077902098" lon="13.72278122402568"><ele>886.0</ele><time>2026-05-02T12:14:55Z</time></trkpt><trkpt lat="42.01450839385321" lon="13.722595137602216"><ele>883.6666666666666</ele><time>2026-05-02T12:14:56Z</time></trkpt><trkpt lat="42.0146482969999" lon="13.722450664209207"><ele>881.3333333333333</ele><time>2026-05-02T12:14:57Z</time></trkpt><trkpt lat="42.01478246434246" lon="13.722344458825118"><ele>879.0</ele><time>2026-05-02T12:14:58Z</time></trkpt><trkpt lat="42.01492321516006" lon="13.722298280480704"><ele>878.3333333333333</ele><time>2026-05-02T12:14:59Z</time></trkpt><trkpt lat="42.01509318806995" lon="13.722300182858346"><ele>877.6666666666666</ele><time>2026-05-02T12:15:00Z</time></trkpt><trkpt lat="42.015302143262545" lon="13.722312656261085"><ele>877.0</ele><time>2026-05-02T12:15:01Z</time></trkpt><trkpt lat="42.015494630214455" lon="13.722318967959728"><ele>877.0</ele><time>2026-05-02T12:15:02Z</time></trkpt><trkpt lat="42.01567077644759" lon="13.722275312627268"><ele>877.0</ele><time>2026-05-02T12:15:03Z</time></trkpt><trkpt lat="42.015841250499484" lon="13.722204254647625"><ele>877.0</ele><time>2026-05-02T12:15:04Z</time></trkpt><trkpt lat="42.01600701369634" lon="13.722090257751539"><ele>876.6666666666666</ele><time>2026-05-02T12:15:05Z</time></trkpt><trkpt lat="42.01615201171177" lon="13.72197393104019"><ele>876.3333333333333</ele><time>2026-05-02T12:15:06Z</time></trkpt><trkpt lat="42.01628679392468" lon="13.721880742963052"><ele>876.0</ele><time>2026-05-02T12:15:07Z</time></trkpt><trkpt lat="42.01640786172952" lon="13.72178458270414"><ele>875.0</ele><time>2026-05-02T12:15:08Z</time></trkpt><trkpt lat="42.016504782670324" lon="13.721669905971938"><ele>874.0</ele><time>2026-05-02T12:15:09Z</time></trkpt><trkpt lat="42.016584314654274" lon="13.721538815343273"><ele>873.0</ele><time>2026-05-02T12:15:10Z</time></trkpt><trkpt lat="42.01664851272653" lon="13.72139708577813"><ele>872.0</ele><time>2026-05-02T12:15:11Z</time></trkpt><trkpt lat="42.0167159641375" lon="13.721241182893095"><ele>872.0</ele><time>2026-05-02T12:15:12Z</time></trkpt><trkpt lat="42.016747290224856" lon="13.72107797878155"><ele>872.0</ele><time>2026-05-02T12:15:13Z</time></trkpt><trkpt lat="42.01680078757357" lon="13.72095026983732"><ele>872.0</ele><time>2026-05-02T12:15:14Z</time></trkpt><trkpt lat="42.0168254771417" lon="13.72079407429033"><ele>872.0</ele><time>2026-05-02T12:15:15Z</time></trkpt><trkpt lat="42.01684545458672" lon="13.720629930448558"><ele>871.0</ele><time>2026-05-02T12:15:16Z</time></trkpt><trkpt lat="42.01686690855632" lon="13.720462001689404"><ele>870.0</ele><time>2026-05-02T12:15:17Z</time></trkpt><trkpt lat="42.01688273010522" lon="13.72029884651883"><ele>869.0</ele><time>2026-05-02T12:15:18Z</time></trkpt><trkpt lat="42.016893080015485" lon="13.720124141538257"><ele>868.0</ele><time>2026-05-02T12:15:19Z</time></trkpt><trkpt lat="42.016917646193086" lon="13.719977337102739"><ele>867.0</ele><time>2026-05-02T12:15:20Z</time></trkpt><trkpt lat="42.01696361194049" lon="13.719843616257482"><ele>866.0</ele><time>2026-05-02T12:15:21Z</time></trkpt><trkpt lat="42.017028370881455" lon="13.719731032420247"><ele>865.0</ele><time>2026-05-02T12:15:22Z</time></trkpt><trkpt lat="42.01712229596436" lon="13.719653163663345"><ele>864.0</ele><time>2026-05-02T12:15:23Z</time></trkpt><trkpt lat="42.01721755025617" lon="13.719575625068181"><ele>863.0</ele><time>2026-05-02T12:15:24Z</time></trkpt><trkpt lat="42.01731704228517" lon="13.719499486128027"><ele>863.0</ele><time>2026-05-02T12:15:25Z</time></trkpt><trkpt lat="42.0174150165462" lon="13.719407772496131"><ele>863.0</ele><time>2026-05-02T12:15:26Z</time></trkpt><trkpt lat="42.017496633181125" lon="13.719307631394313"><ele>863.0</ele><time>2026-05-02T12:15:27Z</time></trkpt><trkpt lat="42.0175496292" lon="13.719202244113733"><ele>863.0</ele><time>2026-05-02T12:15:28Z</time></trkpt><trkpt lat="42.01758880214744" lon="13.719079916161244"><ele>863.0</ele><time>2026-05-02T12:15:29Z</time></trkpt><trkpt lat="42.017617745233146" lon="13.718948594311799"><ele>862.3333333333334</ele><time>2026-05-02T12:15:30Z</time></trkpt><trkpt lat="42.01763597837027" lon="13.718825467352532"><ele>861.6666666666667</ele><time>2026-05-02T12:15:31.001Z</time></trkpt><trkpt lat="42.01763881972081" lon="13.718711906471535"><ele>861.0</ele><time>2026-05-02T12:15:32.001Z</time></trkpt><trkpt lat="42.01764114711379" lon="13.718616092260566"><ele>860.3333333333333</ele><time>2026-05-02T12:15:33.001Z</time></trkpt><trkpt lat="42.01763544133953" lon="13.718522876692036"><ele>859.6666666666666</ele><time>2026-05-02T12:15:34.001Z</time></trkpt><trkpt lat="42.0176354290366" lon="13.718433902245492"><ele>859.0</ele><time>2026-05-02T12:15:35.001Z</time></trkpt><trkpt lat="42.01763604549647" lon="13.718338505537329"><ele>858.0</ele><time>2026-05-02T12:15:36.001Z</time></trkpt><trkpt lat="42.017638808970545" lon="13.71823589796886"><ele>857.0000000000001</ele><time>2026-05-02T12:15:37.001Z</time></trkpt><trkpt lat="42.01765135991663" lon="13.71812859017511"><ele>856.0000000000001</ele><time>2026-05-02T12:15:38.001Z</time></trkpt><trkpt lat="42.01765332142538" lon="13.71803451192735"><ele>855.0</ele><time>2026-05-02T12:15:39.001Z</time></trkpt><trkpt lat="42.01767926807291" lon="13.717908056356942"><ele>854.0</ele><time>2026-05-02T12:15:41.001Z</time></trkpt><trkpt lat="42.017522534422845" lon="13.717939189025753"><ele>853.1428571428571</ele><time>2026-05-02T12:15:47Z</time></trkpt><trkpt lat="42.01747718593768" lon="13.71800506584567"><ele>852.2857142857142</ele><time>2026-05-02T12:15:49Z</time></trkpt><trkpt lat="42.01743082471388" lon="13.718066735766048"><ele>851.4285714285714</ele><time>2026-05-02T12:15:51Z</time></trkpt><trkpt lat="42.01737426142585" lon="13.718126654816773"><ele>850.5714285714286</ele><time>2026-05-02T12:15:53Z</time></trkpt><trkpt lat="42.01731837481634" lon="13.718181818502304"><ele>849.7142857142857</ele><time>2026-05-02T12:15:56Z</time></trkpt><trkpt lat="42.017267306202335" lon="13.718244963304993"><ele>848.8571428571429</ele><time>2026-05-02T12:16:45Z</time></trkpt><trkpt lat="42.01719935341381" lon="13.718326880971503"><ele>848.0</ele><time>2026-05-02T12:17:40.001Z</time></trkpt><trkpt lat="42.01723956717851" lon="13.718251352990855"><ele>848.0</ele><time>2026-05-02T12:19:35.001Z</time></trkpt><trkpt lat="42.01729541055433" lon="13.718188045119957"><ele>848.0</ele><time>2026-05-02T12:19:41.001Z</time></trkpt><trkpt lat="42.01725849728925" lon="13.718260922787758"><ele>848.0</ele><time>2026-05-02T12:20:28Z</time></trkpt><trkpt lat="42.01720794445294" lon="13.718311670328399"><ele>848.0</ele><time>2026-05-02T12:20:36Z</time></trkpt><trkpt lat="42.01715402885227" lon="13.718364335755988"><ele>848.0</ele><time>2026-05-02T12:21:49.001Z</time></trkpt><trkpt lat="42.01723437425366" lon="13.718302301243648"><ele>848.0</ele><time>2026-05-02T12:22:00.001Z</time></trkpt><trkpt lat="42.017293992589515" lon="13.718234497087744"><ele>848.0</ele><time>2026-05-02T12:22:02Z</time></trkpt><trkpt lat="42.017355035261446" lon="13.718182844533459"><ele>848.0</ele><time>2026-05-02T12:22:04Z</time></trkpt><trkpt lat="42.01744118097818" lon="13.718109637078616"><ele>848.0</ele><time>2026-05-02T12:22:06Z</time></trkpt><trkpt lat="42.01752742379258" lon="13.717977136800114"><ele>848.0</ele><time>2026-05-02T12:22:08Z</time></trkpt><trkpt lat="42.017577878848414" lon="13.71791623746079"><ele>848.0</ele><time>2026-05-02T12:22:09Z</time></trkpt><trkpt lat="42.01763429481201" lon="13.717845545394985"><ele>848.0</ele><time>2026-05-02T12:22:11Z</time></trkpt><trkpt lat="42.017706439692816" lon="13.717754094485912"><ele>848.4</ele><time>2026-05-02T12:22:14Z</time></trkpt><trkpt lat="42.017736233507925" lon="13.717662350655724"><ele>848.8</ele><time>2026-05-02T12:22:15Z</time></trkpt><trkpt lat="42.017762718410495" lon="13.71754795724646"><ele>849.2</ele><time>2026-05-02T12:22:16Z</time></trkpt><trkpt lat="42.01778507074628" lon="13.717421546941772"><ele>849.6</ele><time>2026-05-02T12:22:17Z</time></trkpt><trkpt lat="42.01781506415404" lon="13.717289981021827"><ele>850.0</ele><time>2026-05-02T12:22:18Z</time></trkpt><trkpt lat="42.01784299087615" lon="13.717148759046122"><ele>850.0</ele><time>2026-05-02T12:22:19Z</time></trkpt><trkpt lat="42.017876926835605" lon="13.717004710846842"><ele>850.0</ele><time>2026-05-02T12:22:20Z</time></trkpt><trkpt lat="42.017909498212745" lon="13.71684624394615"><ele>850.0</ele><time>2026-05-02T12:22:21Z</time></trkpt><trkpt lat="42.01793586684048" lon="13.71668098196542"><ele>850.0</ele><time>2026-05-02T12:22:22Z</time></trkpt><trkpt lat="42.0179687273866" lon="13.716506630736648"><ele>848.75</ele><time>2026-05-02T12:22:23Z</time></trkpt><trkpt lat="42.01801167413007" lon="13.716324507256054"><ele>847.5</ele><time>2026-05-02T12:22:24Z</time></trkpt><trkpt lat="42.018043503219786" lon="13.716138405982663"><ele>846.25</ele><time>2026-05-02T12:22:25Z</time></trkpt><trkpt lat="42.01808332113739" lon="13.715942605908959"><ele>845.0</ele><time>2026-05-02T12:22:26Z</time></trkpt><trkpt lat="42.01812534531775" lon="13.715739261443218"><ele>843.6666666666667</ele><time>2026-05-02T12:22:27Z</time></trkpt><trkpt lat="42.018164672451014" lon="13.715534502874728"><ele>842.3333333333333</ele><time>2026-05-02T12:22:28Z</time></trkpt><trkpt lat="42.018206243912225" lon="13.715325584298302"><ele>841.0</ele><time>2026-05-02T12:22:29Z</time></trkpt><trkpt lat="42.0182434636893" lon="13.71511655479905"><ele>841.0</ele><time>2026-05-02T12:22:30Z</time></trkpt><trkpt lat="42.01827777835771" lon="13.714906680499382"><ele>841.0</ele><time>2026-05-02T12:22:31Z</time></trkpt><trkpt lat="42.01831575008785" lon="13.714707828175348"><ele>841.0</ele><time>2026-05-02T12:22:32Z</time></trkpt><trkpt lat="42.018358098855984" lon="13.714501707448786"><ele>841.6666666666666</ele><time>2026-05-02T12:22:33Z</time></trkpt><trkpt lat="42.018401017049676" lon="13.714303110173512"><ele>842.3333333333333</ele><time>2026-05-02T12:22:34Z</time></trkpt><trkpt lat="42.01844260194262" lon="13.714106235382205"><ele>843.0</ele><time>2026-05-02T12:22:35Z</time></trkpt><trkpt lat="42.01848069366473" lon="13.713913952860468"><ele>843.0</ele><time>2026-05-02T12:22:36Z</time></trkpt><trkpt lat="42.018520967163525" lon="13.713721535579484"><ele>843.0</ele><time>2026-05-02T12:22:37Z</time></trkpt><trkpt lat="42.01855882382673" lon="13.713533533037698"><ele>843.0</ele><time>2026-05-02T12:22:38Z</time></trkpt><trkpt lat="42.01859847799574" lon="13.713339802770054"><ele>843.0</ele><time>2026-05-02T12:22:39Z</time></trkpt><trkpt lat="42.01863414249692" lon="13.713145818567483"><ele>843.6666666666667</ele><time>2026-05-02T12:22:40Z</time></trkpt><trkpt lat="42.0186784427996" lon="13.712951981504581"><ele>844.3333333333334</ele><time>2026-05-02T12:22:41Z</time></trkpt><trkpt lat="42.018729973493336" lon="13.712760803158103"><ele>845.0</ele><time>2026-05-02T12:22:42Z</time></trkpt><trkpt lat="42.018800052169595" lon="13.71257341263195"><ele>845.0</ele><time>2026-05-02T12:22:43Z</time></trkpt><trkpt lat="42.01886402113519" lon="13.712383679564981"><ele>845.0</ele><time>2026-05-02T12:22:44Z</time></trkpt><trkpt lat="42.01893063672903" lon="13.712207364051292"><ele>845.0</ele><time>2026-05-02T12:22:45Z</time></trkpt><trkpt lat="42.01897695047675" lon="13.712054605802424"><ele>845.0</ele><time>2026-05-02T12:22:46Z</time></trkpt><trkpt lat="42.018999572275185" lon="13.711908752375146"><ele>845.0</ele><time>2026-05-02T12:22:47Z</time></trkpt><trkpt lat="42.018986676152274" lon="13.711755878234255"><ele>845.0</ele><time>2026-05-02T12:22:48Z</time></trkpt><trkpt lat="42.01893153227233" lon="13.711611346886901"><ele>845.0</ele><time>2026-05-02T12:22:49Z</time></trkpt><trkpt lat="42.01884316638988" lon="13.711494907863766"><ele>845.0</ele><time>2026-05-02T12:22:50Z</time></trkpt><trkpt lat="42.01873125758533" lon="13.71139688139326"><ele>845.0</ele><time>2026-05-02T12:22:51Z</time></trkpt><trkpt lat="42.01861604033708" lon="13.711299203903705"><ele>845.0</ele><time>2026-05-02T12:22:52Z</time></trkpt><trkpt lat="42.018506013425416" lon="13.711203912805253"><ele>845.0</ele><time>2026-05-02T12:22:53Z</time></trkpt><trkpt lat="42.018419505284776" lon="13.711100630503525"><ele>845.0</ele><time>2026-05-02T12:22:54Z</time></trkpt><trkpt lat="42.01835031772983" lon="13.710986403205826"><ele>843.0</ele><time>2026-05-02T12:22:55Z</time></trkpt><trkpt lat="42.01830360802896" lon="13.71083381471572"><ele>841.0</ele><time>2026-05-02T12:22:56Z</time></trkpt><trkpt lat="42.01828269567509" lon="13.710660934514399"><ele>839.0</ele><time>2026-05-02T12:22:57Z</time></trkpt><trkpt lat="42.01828414875785" lon="13.7104741134518"><ele>837.0</ele><time>2026-05-02T12:22:58Z</time></trkpt><trkpt lat="42.01829547803527" lon="13.710276918067104"><ele>837.3333333333333</ele><time>2026-05-02T12:22:59Z</time></trkpt><trkpt lat="42.018299544346384" lon="13.710072780708057"><ele>837.6666666666666</ele><time>2026-05-02T12:23:00Z</time></trkpt><trkpt lat="42.01830657050693" lon="13.709865000674123"><ele>838.0</ele><time>2026-05-02T12:23:01Z</time></trkpt><trkpt lat="42.01831518204225" lon="13.709652203376661"><ele>842.6666666666666</ele><time>2026-05-02T12:23:02Z</time></trkpt><trkpt lat="42.01834361904699" lon="13.709435124072533"><ele>847.3333333333333</ele><time>2026-05-02T12:23:03Z</time></trkpt><trkpt lat="42.01838013269506" lon="13.709213545228819"><ele>852.0</ele><time>2026-05-02T12:23:04Z</time></trkpt><trkpt lat="42.01842460705648" lon="13.708994177643191"><ele>852.0</ele><time>2026-05-02T12:23:05Z</time></trkpt><trkpt lat="42.018476144815025" lon="13.708772514993777"><ele>852.0</ele><time>2026-05-02T12:23:06Z</time></trkpt><trkpt lat="42.01854296241228" lon="13.708556800021462"><ele>852.0</ele><time>2026-05-02T12:23:07Z</time></trkpt><trkpt lat="42.01862167974172" lon="13.708345697818917"><ele>851.6666666666667</ele><time>2026-05-02T12:23:08Z</time></trkpt><trkpt lat="42.018714602170135" lon="13.708143426114455"><ele>851.3333333333334</ele><time>2026-05-02T12:23:09Z</time></trkpt><trkpt lat="42.01881209738535" lon="13.707941685675301"><ele>851.0</ele><time>2026-05-02T12:23:10Z</time></trkpt><trkpt lat="42.01890869718524" lon="13.707741652004025"><ele>851.6666666666667</ele><time>2026-05-02T12:23:11Z</time></trkpt><trkpt lat="42.01900369728328" lon="13.707544058222583"><ele>852.3333333333333</ele><time>2026-05-02T12:23:12Z</time></trkpt><trkpt lat="42.01910085972841" lon="13.707350631869764"><ele>853.0</ele><time>2026-05-02T12:23:13Z</time></trkpt><trkpt lat="42.01921163835538" lon="13.707172349775135"><ele>855.6666666666666</ele><time>2026-05-02T12:23:14Z</time></trkpt><trkpt lat="42.01934165143094" lon="13.70701382263328"><ele>858.3333333333333</ele><time>2026-05-02T12:23:15Z</time></trkpt><trkpt lat="42.01947976915898" lon="13.706864077297258"><ele>861.0</ele><time>2026-05-02T12:23:16Z</time></trkpt><trkpt lat="42.01961750933447" lon="13.706710280017068"><ele>861.0</ele><time>2026-05-02T12:23:17Z</time></trkpt><trkpt lat="42.01975365241505" lon="13.706551031428926"><ele>861.0</ele><time>2026-05-02T12:23:18Z</time></trkpt><trkpt lat="42.01987491042837" lon="13.706370172647965"><ele>861.0</ele><time>2026-05-02T12:23:19Z</time></trkpt><trkpt lat="42.0199740879186" lon="13.70615761652625"><ele>861.0</ele><time>2026-05-02T12:23:20Z</time></trkpt><trkpt lat="42.020061038814255" lon="13.705926953607353"><ele>861.0</ele><time>2026-05-02T12:23:21Z</time></trkpt><trkpt lat="42.02014569949516" lon="13.705698115319613"><ele>861.0</ele><time>2026-05-02T12:23:22Z</time></trkpt><trkpt lat="42.02023177080327" lon="13.705466311347648"><ele>859.6666666666667</ele><time>2026-05-02T12:23:23Z</time></trkpt><trkpt lat="42.020315577700515" lon="13.705240235781805"><ele>858.3333333333334</ele><time>2026-05-02T12:23:24Z</time></trkpt><trkpt lat="42.02039342693807" lon="13.7050088297384"><ele>857.0</ele><time>2026-05-02T12:23:25Z</time></trkpt><trkpt lat="42.02047673694821" lon="13.704778493716635"><ele>857.0</ele><time>2026-05-02T12:23:26Z</time></trkpt><trkpt lat="42.02056325329184" lon="13.704545928608919"><ele>857.0</ele><time>2026-05-02T12:23:27Z</time></trkpt><trkpt lat="42.02063977461149" lon="13.704311830076417"><ele>857.0</ele><time>2026-05-02T12:23:28Z</time></trkpt><trkpt lat="42.02070052256881" lon="13.704071660091152"><ele>856.0</ele><time>2026-05-02T12:23:29Z</time></trkpt><trkpt lat="42.02072640703727" lon="13.703821634216876"><ele>855.0</ele><time>2026-05-02T12:23:30Z</time></trkpt><trkpt lat="42.020724266682144" lon="13.703570394691702"><ele>854.0</ele><time>2026-05-02T12:23:31Z</time></trkpt><trkpt lat="42.02071730172577" lon="13.703322748335934"><ele>852.0</ele><time>2026-05-02T12:23:32Z</time></trkpt><trkpt lat="42.020721075149666" lon="13.70307133935651"><ele>850.0</ele><time>2026-05-02T12:23:33Z</time></trkpt><trkpt lat="42.02074197115391" lon="13.702818279645518"><ele>848.0</ele><time>2026-05-02T12:23:34Z</time></trkpt><trkpt lat="42.02076861034802" lon="13.7025638252587"><ele>846.6666666666667</ele><time>2026-05-02T12:23:35Z</time></trkpt><trkpt lat="42.020798352519435" lon="13.702308444402279"><ele>845.3333333333333</ele><time>2026-05-02T12:23:36Z</time></trkpt><trkpt lat="42.0208316213835" lon="13.702060038060374"><ele>844.0</ele><time>2026-05-02T12:23:37Z</time></trkpt><trkpt lat="42.02087524594198" lon="13.701802057196817"><ele>848.3333333333333</ele><time>2026-05-02T12:23:38Z</time></trkpt><trkpt lat="42.02091434545582" lon="13.701542087688214"><ele>852.6666666666667</ele><time>2026-05-02T12:23:39Z</time></trkpt><trkpt lat="42.02095795137326" lon="13.70127365121244"><ele>857.0</ele><time>2026-05-02T12:23:40Z</time></trkpt><trkpt lat="42.02100217648525" lon="13.701009326841156"><ele>857.0</ele><time>2026-05-02T12:23:41Z</time></trkpt><trkpt lat="42.02103084202526" lon="13.700741436678225"><ele>857.0</ele><time>2026-05-02T12:23:42Z</time></trkpt><trkpt lat="42.021069179391716" lon="13.70047658162598"><ele>857.0</ele><time>2026-05-02T12:23:43Z</time></trkpt><trkpt lat="42.02111205020734" lon="13.700227039043394"><ele>853.6666666666667</ele><time>2026-05-02T12:23:44Z</time></trkpt><trkpt lat="42.021183577067816" lon="13.699984108431451"><ele>850.3333333333333</ele><time>2026-05-02T12:23:45Z</time></trkpt><trkpt lat="42.021285334023865" lon="13.699770109342548"><ele>847.0</ele><time>2026-05-02T12:23:46Z</time></trkpt><trkpt lat="42.02139260806179" lon="13.699548534109686"><ele>850.0</ele><time>2026-05-02T12:23:47Z</time></trkpt><trkpt lat="42.02150536934999" lon="13.699329337919677"><ele>853.0</ele><time>2026-05-02T12:23:48Z</time></trkpt><trkpt lat="42.0216160639538" lon="13.699107195182057"><ele>856.0</ele><time>2026-05-02T12:23:49Z</time></trkpt><trkpt lat="42.02173289833512" lon="13.698879752916381"><ele>856.0</ele><time>2026-05-02T12:23:50Z</time></trkpt><trkpt lat="42.0218480203324" lon="13.69864915705557"><ele>856.0</ele><time>2026-05-02T12:23:51Z</time></trkpt><trkpt lat="42.02195607170723" lon="13.698426904869915"><ele>856.0</ele><time>2026-05-02T12:23:52Z</time></trkpt><trkpt lat="42.02206023556585" lon="13.69821411640842"><ele>853.0</ele><time>2026-05-02T12:23:53Z</time></trkpt><trkpt lat="42.022126211136104" lon="13.697990032161751"><ele>850.0</ele><time>2026-05-02T12:23:54Z</time></trkpt><trkpt lat="42.02215939766364" lon="13.697742841182757"><ele>847.0</ele><time>2026-05-02T12:23:55Z</time></trkpt><trkpt lat="42.022170422758364" lon="13.697499720931505"><ele>842.6666666666666</ele><time>2026-05-02T12:23:56.001Z</time></trkpt><trkpt lat="42.02218838487354" lon="13.697275546033305"><ele>838.3333333333333</ele><time>2026-05-02T12:23:57.001Z</time></trkpt><trkpt lat="42.02223194588332" lon="13.69706325985368"><ele>834.0</ele><time>2026-05-02T12:23:58.001Z</time></trkpt><trkpt lat="42.02232108238922" lon="13.696861648596792"><ele>829.6666666666667</ele><time>2026-05-02T12:23:59.001Z</time></trkpt><trkpt lat="42.02243575748031" lon="13.696663986983141"><ele>825.3333333333334</ele><time>2026-05-02T12:24:00.001Z</time></trkpt><trkpt lat="42.0225428949628" lon="13.696459806334182"><ele>821.0</ele><time>2026-05-02T12:24:01.001Z</time></trkpt><trkpt lat="42.02265282545811" lon="13.696242483330899"><ele>824.6666666666667</ele><time>2026-05-02T12:24:02.001Z</time></trkpt><trkpt lat="42.02276854037295" lon="13.696025027231485"><ele>828.3333333333333</ele><time>2026-05-02T12:24:03.001Z</time></trkpt><trkpt lat="42.02289880278809" lon="13.695812487851306"><ele>832.0</ele><time>2026-05-02T12:24:04.001Z</time></trkpt><trkpt lat="42.02305401778808" lon="13.695625630563018"><ele>832.0</ele><time>2026-05-02T12:24:05.001Z</time></trkpt><trkpt lat="42.02321269231799" lon="13.695476484401055"><ele>832.0</ele><time>2026-05-02T12:24:06.001Z</time></trkpt><trkpt lat="42.02334241286736" lon="13.695343101311556"><ele>832.0</ele><time>2026-05-02T12:24:07Z</time></trkpt><trkpt lat="42.02344579666418" lon="13.695202162057626"><ele>833.25</ele><time>2026-05-02T12:24:08Z</time></trkpt><trkpt lat="42.02350008350472" lon="13.69502490936103"><ele>834.5</ele><time>2026-05-02T12:24:09Z</time></trkpt><trkpt lat="42.023511934134234" lon="13.69482444156107"><ele>835.75</ele><time>2026-05-02T12:24:10Z</time></trkpt><trkpt lat="42.02348846912658" lon="13.69462188796343"><ele>837.0</ele><time>2026-05-02T12:24:11Z</time></trkpt><trkpt lat="42.02347816473566" lon="13.694424206486085"><ele>834.6666666666667</ele><time>2026-05-02T12:24:12Z</time></trkpt><trkpt lat="42.0235212944883" lon="13.694224299843105"><ele>832.3333333333334</ele><time>2026-05-02T12:24:13Z</time></trkpt><trkpt lat="42.023623239385174" lon="13.694044184058573"><ele>830.0</ele><time>2026-05-02T12:24:14Z</time></trkpt><trkpt lat="42.023749903304385" lon="13.69386291945071"><ele>830.0</ele><time>2026-05-02T12:24:15Z</time></trkpt><trkpt lat="42.023878418948236" lon="13.69366372380911"><ele>830.0</ele><time>2026-05-02T12:24:16Z</time></trkpt><trkpt lat="42.024002404812016" lon="13.693455425393804"><ele>830.0</ele><time>2026-05-02T12:24:17Z</time></trkpt><trkpt lat="42.0241294523879" lon="13.69324232326106"><ele>831.6666666666667</ele><time>2026-05-02T12:24:18Z</time></trkpt><trkpt lat="42.02424961902605" lon="13.69303967978548"><ele>833.3333333333333</ele><time>2026-05-02T12:24:19Z</time></trkpt><trkpt lat="42.02436756631996" lon="13.69285664424919"><ele>835.0</ele><time>2026-05-02T12:24:20Z</time></trkpt><trkpt lat="42.0245043716849" lon="13.6927024841967"><ele>829.3333333333333</ele><time>2026-05-02T12:24:21Z</time></trkpt><trkpt lat="42.02467350316921" lon="13.692592384005906"><ele>823.6666666666667</ele><time>2026-05-02T12:24:22Z</time></trkpt><trkpt lat="42.02483583691469" lon="13.692516268734002"><ele>818.0</ele><time>2026-05-02T12:24:23Z</time></trkpt><trkpt lat="42.024966123567275" lon="13.692442211731532"><ele>817.0</ele><time>2026-05-02T12:24:24Z</time></trkpt><trkpt lat="42.02507662663769" lon="13.692344958176863"><ele>816.0</ele><time>2026-05-02T12:24:25Z</time></trkpt><trkpt lat="42.02514253759979" lon="13.692203968883943"><ele>815.0</ele><time>2026-05-02T12:24:26Z</time></trkpt><trkpt lat="42.02516927667821" lon="13.692020950322474"><ele>814.0</ele><time>2026-05-02T12:24:27Z</time></trkpt><trkpt lat="42.025176799902546" lon="13.6918269847991"><ele>814.0</ele><time>2026-05-02T12:24:28Z</time></trkpt><trkpt lat="42.025219222338556" lon="13.69165029419215"><ele>814.0</ele><time>2026-05-02T12:24:29Z</time></trkpt><trkpt lat="42.02531324309061" lon="13.691485213303947"><ele>814.0</ele><time>2026-05-02T12:24:30Z</time></trkpt><trkpt lat="42.02544900937762" lon="13.69135748209438"><ele>814.0</ele><time>2026-05-02T12:24:31Z</time></trkpt><trkpt lat="42.02557844550501" lon="13.691183925643719"><ele>814.0</ele><time>2026-05-02T12:24:32Z</time></trkpt><trkpt lat="42.02570592655886" lon="13.690993873706303"><ele>814.0</ele><time>2026-05-02T12:24:33Z</time></trkpt><trkpt lat="42.02581221731228" lon="13.690774451549812"><ele>812.0</ele><time>2026-05-02T12:24:34Z</time></trkpt><trkpt lat="42.025915591183576" lon="13.690556738723915"><ele>810.0</ele><time>2026-05-02T12:24:35Z</time></trkpt><trkpt lat="42.026004940294676" lon="13.690349417176886"><ele>808.0</ele><time>2026-05-02T12:24:36Z</time></trkpt><trkpt lat="42.026072884219346" lon="13.690133587954584"><ele>808.0</ele><time>2026-05-02T12:24:37Z</time></trkpt><trkpt lat="42.026108972091244" lon="13.689895762528138"><ele>808.0</ele><time>2026-05-02T12:24:38Z</time></trkpt><trkpt lat="42.02611691671714" lon="13.689652707857688"><ele>808.0</ele><time>2026-05-02T12:24:39Z</time></trkpt><trkpt lat="42.02614084755691" lon="13.689417502835518"><ele>804.0</ele><time>2026-05-02T12:24:40Z</time></trkpt><trkpt lat="42.026239567453025" lon="13.689222815623882"><ele>800.0</ele><time>2026-05-02T12:24:41Z</time></trkpt><trkpt lat="42.026336854385676" lon="13.689024575656122"><ele>796.0</ele><time>2026-05-02T12:24:42Z</time></trkpt><trkpt lat="42.02644869623398" lon="13.688844955382024"><ele>796.0</ele><time>2026-05-02T12:24:43Z</time></trkpt><trkpt lat="42.0265388608456" lon="13.688671595962589"><ele>796.0</ele><time>2026-05-02T12:24:44Z</time></trkpt><trkpt lat="42.02658810970812" lon="13.688504385439911"><ele>796.0</ele><time>2026-05-02T12:24:45Z</time></trkpt><trkpt lat="42.02657853908938" lon="13.688305576622659"><ele>796.0</ele><time>2026-05-02T12:24:46Z</time></trkpt><trkpt lat="42.02653444212242" lon="13.688095527199806"><ele>793.0</ele><time>2026-05-02T12:24:47Z</time></trkpt><trkpt lat="42.026477548279104" lon="13.687882256334108"><ele>790.0</ele><time>2026-05-02T12:24:48Z</time></trkpt><trkpt lat="42.02644810865271" lon="13.687658958927267"><ele>787.0</ele><time>2026-05-02T12:24:49Z</time></trkpt><trkpt lat="42.02644680184591" lon="13.687425871192348"><ele>785.6666666666666</ele><time>2026-05-02T12:24:50Z</time></trkpt><trkpt lat="42.026474019451996" lon="13.687190558204389"><ele>784.3333333333333</ele><time>2026-05-02T12:24:51Z</time></trkpt><trkpt lat="42.02650032866472" lon="13.686949678662208"><ele>783.0</ele><time>2026-05-02T12:24:52Z</time></trkpt><trkpt lat="42.02655152074978" lon="13.686708127601406"><ele>782.0</ele><time>2026-05-02T12:24:53Z</time></trkpt><trkpt lat="42.02661860114833" lon="13.68646813032741"><ele>781.0</ele><time>2026-05-02T12:24:54Z</time></trkpt><trkpt lat="42.026700547930346" lon="13.686236014711486"><ele>780.0</ele><time>2026-05-02T12:24:55Z</time></trkpt><trkpt lat="42.026799296193566" lon="13.686009643796284"><ele>787.0</ele><time>2026-05-02T12:24:56Z</time></trkpt><trkpt lat="42.02690468364891" lon="13.685800709549843"><ele>794.0</ele><time>2026-05-02T12:24:57Z</time></trkpt><trkpt lat="42.02697985116325" lon="13.685579610971455"><ele>801.0</ele><time>2026-05-02T12:24:58Z</time></trkpt><trkpt lat="42.02701293190493" lon="13.685342446989356"><ele>798.6666666666667</ele><time>2026-05-02T12:24:59Z</time></trkpt><trkpt lat="42.02702825348754" lon="13.685113543354477"><ele>796.3333333333334</ele><time>2026-05-02T12:25:00Z</time></trkpt><trkpt lat="42.0270327844519" lon="13.684894791237017"><ele>794.0</ele><time>2026-05-02T12:25:01Z</time></trkpt><trkpt lat="42.02704169738976" lon="13.684670570709637"><ele>794.0</ele><time>2026-05-02T12:25:02Z</time></trkpt><trkpt lat="42.02710789704306" lon="13.684463815325907"><ele>794.0</ele><time>2026-05-02T12:25:03Z</time></trkpt><trkpt lat="42.027189045197815" lon="13.684254235586046"><ele>794.0</ele><time>2026-05-02T12:25:04Z</time></trkpt><trkpt lat="42.02728087584638" lon="13.684045772453857"><ele>791.6666666666667</ele><time>2026-05-02T12:25:05Z</time></trkpt><trkpt lat="42.02737321052213" lon="13.683830722671539"><ele>789.3333333333333</ele><time>2026-05-02T12:25:06Z</time></trkpt><trkpt lat="42.02743807030521" lon="13.683596440537292"><ele>787.0</ele><time>2026-05-02T12:25:07Z</time></trkpt><trkpt lat="42.02746552432441" lon="13.683344439265262"><ele>784.3333333333333</ele><time>2026-05-02T12:25:08Z</time></trkpt><trkpt lat="42.02746375030104" lon="13.683087125465873"><ele>781.6666666666667</ele><time>2026-05-02T12:25:09Z</time></trkpt><trkpt lat="42.02745864916804" lon="13.682832401408628"><ele>779.0</ele><time>2026-05-02T12:25:10Z</time></trkpt><trkpt lat="42.02745680403826" lon="13.682605499752363"><ele>777.6666666666667</ele><time>2026-05-02T12:25:11Z</time></trkpt><trkpt lat="42.02747183696584" lon="13.68238143525008"><ele>776.3333333333333</ele><time>2026-05-02T12:25:12Z</time></trkpt><trkpt lat="42.0275235645893" lon="13.682157637694806"><ele>775.0</ele><time>2026-05-02T12:25:13Z</time></trkpt><trkpt lat="42.027590392773156" lon="13.681939520621968"><ele>778.3333333333333</ele><time>2026-05-02T12:25:14Z</time></trkpt><trkpt lat="42.027661094456136" lon="13.681714923398005"><ele>781.6666666666667</ele><time>2026-05-02T12:25:15Z</time></trkpt><trkpt lat="42.02773181443672" lon="13.681487943216997"><ele>785.0</ele><time>2026-05-02T12:25:16Z</time></trkpt><trkpt lat="42.027796176090014" lon="13.681289081045824"><ele>785.0</ele><time>2026-05-02T12:25:17Z</time></trkpt><trkpt lat="42.02786088321242" lon="13.681121220432715"><ele>785.0</ele><time>2026-05-02T12:25:18Z</time></trkpt><trkpt lat="42.027960493849335" lon="13.680977700457436"><ele>785.0</ele><time>2026-05-02T12:25:19Z</time></trkpt><trkpt lat="42.02809515884879" lon="13.68085460531101"><ele>785.0</ele><time>2026-05-02T12:25:20Z</time></trkpt><trkpt lat="42.028241902538376" lon="13.680762191641048"><ele>785.5</ele><time>2026-05-02T12:25:21Z</time></trkpt><trkpt lat="42.028362632411756" lon="13.680661782796413"><ele>786.0</ele><time>2026-05-02T12:25:22Z</time></trkpt><trkpt lat="42.02845072036065" lon="13.680531443319243"><ele>786.5</ele><time>2026-05-02T12:25:23Z</time></trkpt><trkpt lat="42.0285000992901" lon="13.680355365927584"><ele>787.0</ele><time>2026-05-02T12:25:24Z</time></trkpt><trkpt lat="42.028512285495005" lon="13.680140903683595"><ele>787.0</ele><time>2026-05-02T12:25:25Z</time></trkpt><trkpt lat="42.028500611216536" lon="13.679907853435543"><ele>787.0</ele><time>2026-05-02T12:25:26Z</time></trkpt><trkpt lat="42.02849868512182" lon="13.679663430097847"><ele>787.0</ele><time>2026-05-02T12:25:27Z</time></trkpt><trkpt lat="42.02850780049301" lon="13.679428540102768"><ele>784.6666666666666</ele><time>2026-05-02T12:25:28Z</time></trkpt><trkpt lat="42.02852156132362" lon="13.679225961440881"><ele>782.3333333333333</ele><time>2026-05-02T12:25:29Z</time></trkpt><trkpt lat="42.0285621593541" lon="13.67903125708799"><ele>780.0</ele><time>2026-05-02T12:25:30Z</time></trkpt><trkpt lat="42.0286448542067" lon="13.678842373677432"><ele>780.0</ele><time>2026-05-02T12:25:31Z</time></trkpt><trkpt lat="42.02874863063371" lon="13.678658976198701"><ele>780.0</ele><time>2026-05-02T12:25:32Z</time></trkpt><trkpt lat="42.028857598413005" lon="13.678463428848824"><ele>780.0</ele><time>2026-05-02T12:25:33Z</time></trkpt><trkpt lat="42.02895894780263" lon="13.678250482963982"><ele>779.0</ele><time>2026-05-02T12:25:34Z</time></trkpt><trkpt lat="42.02905787900619" lon="13.67802310758675"><ele>778.0</ele><time>2026-05-02T12:25:35Z</time></trkpt><trkpt lat="42.02915517921366" lon="13.677786654506047"><ele>777.0</ele><time>2026-05-02T12:25:36Z</time></trkpt><trkpt lat="42.0292473285039" lon="13.677542278798946"><ele>777.0</ele><time>2026-05-02T12:25:37Z</time></trkpt><trkpt lat="42.029314259072756" lon="13.677282131811658"><ele>777.0</ele><time>2026-05-02T12:25:38Z</time></trkpt><trkpt lat="42.029368031555556" lon="13.677025016028244"><ele>777.0</ele><time>2026-05-02T12:25:39Z</time></trkpt><trkpt lat="42.029419191277555" lon="13.676790593301567"><ele>774.0</ele><time>2026-05-02T12:25:40Z</time></trkpt><trkpt lat="42.029489067191655" lon="13.676572957340882"><ele>771.0</ele><time>2026-05-02T12:25:41Z</time></trkpt><trkpt lat="42.02959573054595" lon="13.676377234425741"><ele>768.0</ele><time>2026-05-02T12:25:42Z</time></trkpt><trkpt lat="42.02973123739304" lon="13.676203438015845"><ele>770.6666666666667</ele><time>2026-05-02T12:25:43Z</time></trkpt><trkpt lat="42.029872704062655" lon="13.67603079800909"><ele>773.3333333333334</ele><time>2026-05-02T12:25:44Z</time></trkpt><trkpt lat="42.030002101074636" lon="13.675827775559943"><ele>776.0</ele><time>2026-05-02T12:25:45Z</time></trkpt><trkpt lat="42.030109480280956" lon="13.675616316563284"><ele>776.0</ele><time>2026-05-02T12:25:46Z</time></trkpt><trkpt lat="42.03019640136105" lon="13.67542266351314"><ele>776.0</ele><time>2026-05-02T12:25:47Z</time></trkpt><trkpt lat="42.03026004561614" lon="13.675209932968986"><ele>776.0</ele><time>2026-05-02T12:25:48Z</time></trkpt><trkpt lat="42.03028270947591" lon="13.674960286562554"><ele>773.0</ele><time>2026-05-02T12:25:49Z</time></trkpt><trkpt lat="42.0302824715675" lon="13.674699342177428"><ele>770.0</ele><time>2026-05-02T12:25:50Z</time></trkpt><trkpt lat="42.030281951294256" lon="13.674431412354556"><ele>767.0</ele><time>2026-05-02T12:25:51Z</time></trkpt><trkpt lat="42.03027617598015" lon="13.674154754864482"><ele>764.6666666666666</ele><time>2026-05-02T12:25:52Z</time></trkpt><trkpt lat="42.03027397273152" lon="13.673889450863053"><ele>762.3333333333334</ele><time>2026-05-02T12:25:53Z</time></trkpt><trkpt lat="42.03027388540041" lon="13.673646012804504"><ele>760.0</ele><time>2026-05-02T12:25:54Z</time></trkpt><trkpt lat="42.0302737181824" lon="13.673441734498649"><ele>759.0</ele><time>2026-05-02T12:25:55Z</time></trkpt><trkpt lat="42.03028481773255" lon="13.673269125757049"><ele>758.0</ele><time>2026-05-02T12:25:56Z</time></trkpt><trkpt lat="42.03033398946416" lon="13.673105707051675"><ele>757.0</ele><time>2026-05-02T12:25:57Z</time></trkpt><trkpt lat="42.03043000268974" lon="13.672950667011474"><ele>756.0</ele><time>2026-05-02T12:25:58Z</time></trkpt><trkpt lat="42.030575372093175" lon="13.67286533800026"><ele>756.25</ele><time>2026-05-02T12:25:59Z</time></trkpt><trkpt lat="42.0307175353158" lon="13.672761064497871"><ele>756.5</ele><time>2026-05-02T12:26:00Z</time></trkpt><trkpt lat="42.03084010438134" lon="13.672688798847076"><ele>756.75</ele><time>2026-05-02T12:26:01Z</time></trkpt><trkpt lat="42.03093760227043" lon="13.672596337016522"><ele>757.0</ele><time>2026-05-02T12:26:02Z</time></trkpt><trkpt lat="42.03100663659767" lon="13.672475302318833"><ele>757.0</ele><time>2026-05-02T12:26:03Z</time></trkpt><trkpt lat="42.031043357880506" lon="13.672326376223463"><ele>757.0</ele><time>2026-05-02T12:26:04Z</time></trkpt><trkpt lat="42.0310236715474" lon="13.672168286740582"><ele>757.0</ele><time>2026-05-02T12:26:05Z</time></trkpt><trkpt lat="42.03096337413719" lon="13.672003244554597"><ele>757.0</ele><time>2026-05-02T12:26:06Z</time></trkpt><trkpt lat="42.0308669032041" lon="13.671843339902592"><ele>755.3333333333334</ele><time>2026-05-02T12:26:07Z</time></trkpt><trkpt lat="42.030756165826475" lon="13.671674800668418"><ele>753.6666666666666</ele><time>2026-05-02T12:26:08Z</time></trkpt><trkpt lat="42.03064839778716" lon="13.671475901110187"><ele>752.0</ele><time>2026-05-02T12:26:09Z</time></trkpt><trkpt lat="42.03055060273893" lon="13.671270117137823"><ele>753.3333333333333</ele><time>2026-05-02T12:26:10Z</time></trkpt><trkpt lat="42.03045754313494" lon="13.671067145823049"><ele>754.6666666666666</ele><time>2026-05-02T12:26:11Z</time></trkpt><trkpt lat="42.030390935552994" lon="13.670826410491044"><ele>756.0</ele><time>2026-05-02T12:26:12Z</time></trkpt><trkpt lat="42.03035795679966" lon="13.670568423338235"><ele>756.0</ele><time>2026-05-02T12:26:13Z</time></trkpt><trkpt lat="42.0303278578046" lon="13.670302324728016"><ele>756.0</ele><time>2026-05-02T12:26:14Z</time></trkpt><trkpt lat="42.03029632441118" lon="13.670034638852865"><ele>756.0</ele><time>2026-05-02T12:26:15Z</time></trkpt><trkpt lat="42.030260568531936" lon="13.669766714192754"><ele>756.3333333333334</ele><time>2026-05-02T12:26:16Z</time></trkpt><trkpt lat="42.030226227305484" lon="13.669501519986422"><ele>756.6666666666667</ele><time>2026-05-02T12:26:17Z</time></trkpt><trkpt lat="42.0301883501375" lon="13.669225394373974"><ele>757.0</ele><time>2026-05-02T12:26:18Z</time></trkpt><trkpt lat="42.030151999692066" lon="13.668964428215533"><ele>757.0</ele><time>2026-05-02T12:26:19Z</time></trkpt><trkpt lat="42.030114979746" lon="13.66872569275884"><ele>757.0</ele><time>2026-05-02T12:26:20Z</time></trkpt><trkpt lat="42.0300712310916" lon="13.668517553188837"><ele>757.0</ele><time>2026-05-02T12:26:21Z</time></trkpt><trkpt lat="42.02999392806367" lon="13.668326216160532"><ele>761.3333333333334</ele><time>2026-05-02T12:26:22Z</time></trkpt><trkpt lat="42.02989979531879" lon="13.668133673891834"><ele>765.6666666666667</ele><time>2026-05-02T12:26:23Z</time></trkpt><trkpt lat="42.02979282444779" lon="13.667956702161213"><ele>770.0</ele><time>2026-05-02T12:26:24Z</time></trkpt><trkpt lat="42.029682872707355" lon="13.667801778612747"><ele>766.75</ele><time>2026-05-02T12:26:25Z</time></trkpt><trkpt lat="42.02960280906615" lon="13.667651257566208"><ele>763.5</ele><time>2026-05-02T12:26:26Z</time></trkpt><trkpt lat="42.02955283440146" lon="13.667484391797023"><ele>760.25</ele><time>2026-05-02T12:26:27Z</time></trkpt><trkpt lat="42.02954511989791" lon="13.667313387759085"><ele>757.0</ele><time>2026-05-02T12:26:28Z</time></trkpt><trkpt lat="42.029581767558476" lon="13.6671233618026"><ele>757.6666666666667</ele><time>2026-05-02T12:26:29Z</time></trkpt><trkpt lat="42.02963582736098" lon="13.666919538417483"><ele>758.3333333333334</ele><time>2026-05-02T12:26:30Z</time></trkpt><trkpt lat="42.02966963744047" lon="13.666697440237796"><ele>759.0</ele><time>2026-05-02T12:26:31Z</time></trkpt><trkpt lat="42.029688450270285" lon="13.666461399509522"><ele>759.0</ele><time>2026-05-02T12:26:32Z</time></trkpt><trkpt lat="42.029684330959796" lon="13.666218148494865"><ele>759.0</ele><time>2026-05-02T12:26:33Z</time></trkpt><trkpt lat="42.029666562767844" lon="13.66597581891283"><ele>759.0</ele><time>2026-05-02T12:26:34Z</time></trkpt><trkpt lat="42.02963195002108" lon="13.665737996129984"><ele>758.0</ele><time>2026-05-02T12:26:35Z</time></trkpt><trkpt lat="42.029595497247946" lon="13.665517311803754"><ele>757.0</ele><time>2026-05-02T12:26:36Z</time></trkpt><trkpt lat="42.02954021674446" lon="13.665297146665278"><ele>756.0</ele><time>2026-05-02T12:26:37Z</time></trkpt><trkpt lat="42.0294705284299" lon="13.665095614703517"><ele>751.3333333333334</ele><time>2026-05-02T12:26:38Z</time></trkpt><trkpt lat="42.02938725993947" lon="13.664908578464884"><ele>746.6666666666667</ele><time>2026-05-02T12:26:39Z</time></trkpt><trkpt lat="42.02929524952885" lon="13.664735491699796"><ele>742.0</ele><time>2026-05-02T12:26:40Z</time></trkpt><trkpt lat="42.029186972616635" lon="13.66457837894347"><ele>740.3333333333334</ele><time>2026-05-02T12:26:41Z</time></trkpt><trkpt lat="42.029063241934075" lon="13.664432494379176"><ele>738.6666666666666</ele><time>2026-05-02T12:26:42Z</time></trkpt><trkpt lat="42.028951416894365" lon="13.664275894122113"><ele>737.0</ele><time>2026-05-02T12:26:43Z</time></trkpt><trkpt lat="42.0288271507206" lon="13.664133372047315"><ele>737.0</ele><time>2026-05-02T12:26:44Z</time></trkpt><trkpt lat="42.02870304859623" lon="13.663992226416424"><ele>737.0</ele><time>2026-05-02T12:26:45Z</time></trkpt><trkpt lat="42.02858365936127" lon="13.663844468071266"><ele>737.0</ele><time>2026-05-02T12:26:46Z</time></trkpt><trkpt lat="42.02846976698173" lon="13.66369537779827"><ele>738.0</ele><time>2026-05-02T12:26:47Z</time></trkpt><trkpt lat="42.02836218173724" lon="13.663544807086176"><ele>739.0</ele><time>2026-05-02T12:26:48Z</time></trkpt><trkpt lat="42.028250693870184" lon="13.663401066732995"><ele>740.0</ele><time>2026-05-02T12:26:49Z</time></trkpt><trkpt lat="42.02815493560631" lon="13.663232062737544"><ele>740.0</ele><time>2026-05-02T12:26:50Z</time></trkpt><trkpt lat="42.028074856609514" lon="13.663051319813162"><ele>740.0</ele><time>2026-05-02T12:26:51Z</time></trkpt><trkpt lat="42.0279836372729" lon="13.66288245418707"><ele>740.0</ele><time>2026-05-02T12:26:52Z</time></trkpt><trkpt lat="42.02788183577852" lon="13.662730958195366"><ele>738.25</ele><time>2026-05-02T12:26:53Z</time></trkpt><trkpt lat="42.0277974250895" lon="13.662571061345004"><ele>736.5</ele><time>2026-05-02T12:26:54Z</time></trkpt><trkpt lat="42.02771552870437" lon="13.662414701294326"><ele>734.75</ele><time>2026-05-02T12:26:55Z</time></trkpt><trkpt lat="42.02763871557952" lon="13.662262570113631"><ele>733.0</ele><time>2026-05-02T12:26:56Z</time></trkpt><trkpt lat="42.02756371747694" lon="13.662110771141954"><ele>733.0</ele><time>2026-05-02T12:26:57Z</time></trkpt><trkpt lat="42.02749218605293" lon="13.661968558399224"><ele>733.0</ele><time>2026-05-02T12:26:58Z</time></trkpt><trkpt lat="42.02741517676915" lon="13.661846201240962"><ele>733.0</ele><time>2026-05-02T12:26:59Z</time></trkpt><trkpt lat="42.02735237832819" lon="13.661732111181337"><ele>733.0</ele><time>2026-05-02T12:27:00Z</time></trkpt><trkpt lat="42.0272955565795" lon="13.661626246013006"><ele>733.0</ele><time>2026-05-02T12:27:01Z</time></trkpt><trkpt lat="42.02723917414281" lon="13.661529904667775"><ele>733.1666666666667</ele><time>2026-05-02T12:27:02Z</time></trkpt><trkpt lat="42.02720035821852" lon="13.66142647618497"><ele>733.3333333333334</ele><time>2026-05-02T12:27:03Z</time></trkpt><trkpt lat="42.02715146464276" lon="13.66133235088853"><ele>733.5</ele><time>2026-05-02T12:27:04Z</time></trkpt><trkpt lat="42.02710352490232" lon="13.661241498359512"><ele>733.6666666666666</ele><time>2026-05-02T12:27:05Z</time></trkpt><trkpt lat="42.02704523196848" lon="13.66116493995638"><ele>733.8333333333333</ele><time>2026-05-02T12:27:06Z</time></trkpt><trkpt lat="42.0270012063309" lon="13.66107969237213"><ele>734.0</ele><time>2026-05-02T12:27:07Z</time></trkpt><trkpt lat="42.02695847944816" lon="13.661000261039145"><ele>733.0</ele><time>2026-05-02T12:27:08Z</time></trkpt><trkpt lat="42.02692099913356" lon="13.660900377412641"><ele>732.0</ele><time>2026-05-02T12:27:09Z</time></trkpt><trkpt lat="42.026884718790846" lon="13.660827073721615"><ele>731.0</ele><time>2026-05-02T12:27:10Z</time></trkpt><trkpt lat="42.0268116855488" lon="13.66069490519074"><ele>730.0</ele><time>2026-05-02T12:27:12Z</time></trkpt><trkpt lat="42.02673362442224" lon="13.660568166420171"><ele>729.0</ele><time>2026-05-02T12:27:14Z</time></trkpt><trkpt lat="42.02669934055272" lon="13.660481897958965"><ele>729.0</ele><time>2026-05-02T12:27:15Z</time></trkpt><trkpt lat="42.02665573947337" lon="13.660404229972947"><ele>729.0</ele><time>2026-05-02T12:27:16Z</time></trkpt><trkpt lat="42.02660981239981" lon="13.660334840212096"><ele>729.0</ele><time>2026-05-02T12:27:17Z</time></trkpt><trkpt lat="42.02656588260023" lon="13.66024929076875"><ele>729.0</ele><time>2026-05-02T12:27:18Z</time></trkpt><trkpt lat="42.0265237730612" lon="13.66016545089271"><ele>729.0</ele><time>2026-05-02T12:27:19Z</time></trkpt><trkpt lat="42.026458639685" lon="13.660041440698928"><ele>729.0</ele><time>2026-05-02T12:27:21Z</time></trkpt><trkpt lat="42.02640272463869" lon="13.659979689717648"><ele>728.8000000000001</ele><time>2026-05-02T12:27:23Z</time></trkpt><trkpt lat="42.02634021491606" lon="13.659918201244825"><ele>728.6</ele><time>2026-05-02T12:27:25Z</time></trkpt><trkpt lat="42.02629071204913" lon="13.659814169313382"><ele>728.4</ele><time>2026-05-02T12:27:27Z</time></trkpt><trkpt lat="42.026292729967544" lon="13.65961157108433"><ele>728.2</ele><time>2026-05-02T12:27:29Z</time></trkpt><trkpt lat="42.02628428311839" lon="13.65951379329573"><ele>728.0</ele><time>2026-05-02T12:27:30Z</time></trkpt><trkpt lat="42.02627550354171" lon="13.659410221073902"><ele>727.2</ele><time>2026-05-02T12:27:31Z</time></trkpt><trkpt lat="42.02625365037494" lon="13.659299711832944"><ele>726.4</ele><time>2026-05-02T12:27:32Z</time></trkpt><trkpt lat="42.026246647536134" lon="13.659178898003328"><ele>725.6</ele><time>2026-05-02T12:27:33Z</time></trkpt><trkpt lat="42.02626739639853" lon="13.659043421088867"><ele>724.8000000000001</ele><time>2026-05-02T12:27:34Z</time></trkpt><trkpt lat="42.02629673912961" lon="13.658918304679002"><ele>724.0</ele><time>2026-05-02T12:27:35Z</time></trkpt><trkpt lat="42.02632955813491" lon="13.658780467032816"><ele>724.0</ele><time>2026-05-02T12:27:36Z</time></trkpt><trkpt lat="42.0263596581418" lon="13.658647495522283"><ele>724.0</ele><time>2026-05-02T12:27:37Z</time></trkpt><trkpt lat="42.02637574995358" lon="13.658512964610114"><ele>724.0</ele><time>2026-05-02T12:27:38Z</time></trkpt><trkpt lat="42.02636629257798" lon="13.65839140200165"><ele>724.0</ele><time>2026-05-02T12:27:39Z</time></trkpt><trkpt lat="42.02633942939556" lon="13.658272648189163"><ele>724.0</ele><time>2026-05-02T12:27:40Z</time></trkpt><trkpt lat="42.02630079062215" lon="13.65814009801271"><ele>724.5</ele><time>2026-05-02T12:27:41Z</time></trkpt><trkpt lat="42.0262834982" lon="13.658031697418066"><ele>725.0</ele><time>2026-05-02T12:27:42Z</time></trkpt><trkpt lat="42.02622309922919" lon="13.65795122690091"><ele>725.5</ele><time>2026-05-02T12:27:43Z</time></trkpt><trkpt lat="42.02617014650993" lon="13.657861650003593"><ele>726.0</ele><time>2026-05-02T12:27:44Z</time></trkpt><trkpt lat="42.02611583177213" lon="13.657776270997411"><ele>726.5</ele><time>2026-05-02T12:27:45Z</time></trkpt><trkpt lat="42.02605523605194" lon="13.657707657843103"><ele>727.0</ele><time>2026-05-02T12:27:46Z</time></trkpt><trkpt lat="42.025999886513006" lon="13.65761769085881"><ele>726.5</ele><time>2026-05-02T12:27:47Z</time></trkpt><trkpt lat="42.025936843656" lon="13.657522487338344"><ele>726.0</ele><time>2026-05-02T12:27:48Z</time></trkpt><trkpt lat="42.0258816205484" lon="13.657451239195547"><ele>725.5</ele><time>2026-05-02T12:27:49Z</time></trkpt><trkpt lat="42.02581076767481" lon="13.657380837996843"><ele>725.0</ele><time>2026-05-02T12:27:50Z</time></trkpt><trkpt lat="42.025737405751244" lon="13.657312568756732"><ele>724.5</ele><time>2026-05-02T12:27:51Z</time></trkpt><trkpt lat="42.02566851915525" lon="13.657250093121045"><ele>724.0</ele><time>2026-05-02T12:27:52Z</time></trkpt><trkpt lat="42.025603044813394" lon="13.657189645029339"><ele>724.0</ele><time>2026-05-02T12:27:53Z</time></trkpt><trkpt lat="42.02554477439354" lon="13.65711006453055"><ele>724.0</ele><time>2026-05-02T12:27:54Z</time></trkpt><trkpt lat="42.02548269268829" lon="13.657027004434733"><ele>724.0</ele><time>2026-05-02T12:27:55Z</time></trkpt><trkpt lat="42.02543343208432" lon="13.656913021216813"><ele>724.0</ele><time>2026-05-02T12:27:56Z</time></trkpt><trkpt lat="42.02539860712983" lon="13.656802113398305"><ele>724.0</ele><time>2026-05-02T12:27:57Z</time></trkpt><trkpt lat="42.02537671461176" lon="13.656660947043509"><ele>725.0</ele><time>2026-05-02T12:27:58Z</time></trkpt><trkpt lat="42.025354844988364" lon="13.656518011583467"><ele>726.0</ele><time>2026-05-02T12:27:59Z</time></trkpt><trkpt lat="42.02532079197731" lon="13.656383815891346"><ele>727.0</ele><time>2026-05-02T12:28:00Z</time></trkpt><trkpt lat="42.02527989568177" lon="13.656252945527497"><ele>728.0</ele><time>2026-05-02T12:28:01Z</time></trkpt><trkpt lat="42.025231049555096" lon="13.656131807514038"><ele>729.0</ele><time>2026-05-02T12:28:02Z</time></trkpt><trkpt lat="42.02517730856265" lon="13.656021511323587"><ele>730.0</ele><time>2026-05-02T12:28:03Z</time></trkpt><trkpt lat="42.02512051978693" lon="13.655909882059472"><ele>731.0</ele><time>2026-05-02T12:28:04Z</time></trkpt><trkpt lat="42.02506270681851" lon="13.655798778179497"><ele>732.0</ele><time>2026-05-02T12:28:05Z</time></trkpt><trkpt lat="42.02500269828049" lon="13.655692537290443"><ele>733.0</ele><time>2026-05-02T12:28:06Z</time></trkpt><trkpt lat="42.02494922867198" lon="13.655582172891405"><ele>734.0</ele><time>2026-05-02T12:28:07Z</time></trkpt><trkpt lat="42.02489807385804" lon="13.655474087220252"><ele>732.4000000000001</ele><time>2026-05-02T12:28:08Z</time></trkpt><trkpt lat="42.02484873077379" lon="13.655374830076589"><ele>730.8</ele><time>2026-05-02T12:28:09Z</time></trkpt><trkpt lat="42.024793456102266" lon="13.655283264213203"><ele>729.2</ele><time>2026-05-02T12:28:10Z</time></trkpt><trkpt lat="42.02474101229699" lon="13.655183148135917"><ele>727.5999999999999</ele><time>2026-05-02T12:28:11Z</time></trkpt><trkpt lat="42.02468761717118" lon="13.655095810072048"><ele>726.0</ele><time>2026-05-02T12:28:12Z</time></trkpt><trkpt lat="42.024630405301224" lon="13.654976432347597"><ele>726.0</ele><time>2026-05-02T12:28:13Z</time></trkpt><trkpt lat="42.02460747058755" lon="13.654846827625935"><ele>726.0</ele><time>2026-05-02T12:28:14Z</time></trkpt><trkpt lat="42.024593524580744" lon="13.654703564697497"><ele>726.0</ele><time>2026-05-02T12:28:15Z</time></trkpt><trkpt lat="42.02457518895725" lon="13.654566670265266"><ele>726.0</ele><time>2026-05-02T12:28:16Z</time></trkpt><trkpt lat="42.024551376294575" lon="13.65442817280624"><ele>726.0</ele><time>2026-05-02T12:28:17Z</time></trkpt><trkpt lat="42.02452321589751" lon="13.65428316240572"><ele>727.0</ele><time>2026-05-02T12:28:18Z</time></trkpt><trkpt lat="42.024489092554816" lon="13.65414411820005"><ele>728.0</ele><time>2026-05-02T12:28:19Z</time></trkpt><trkpt lat="42.024454708626656" lon="13.65400967036827"><ele>729.0</ele><time>2026-05-02T12:28:20Z</time></trkpt><trkpt lat="42.024410848238816" lon="13.653870001327485"><ele>730.0</ele><time>2026-05-02T12:28:21Z</time></trkpt><trkpt lat="42.02438286003285" lon="13.653709473642857"><ele>731.0</ele><time>2026-05-02T12:28:22Z</time></trkpt><trkpt lat="42.0243485231146" lon="13.653552356954625"><ele>732.0</ele><time>2026-05-02T12:28:23Z</time></trkpt><trkpt lat="42.02431925956223" lon="13.65339846525901"><ele>733.0</ele><time>2026-05-02T12:28:24Z</time></trkpt><trkpt lat="42.02429268264265" lon="13.653238617868764"><ele>734.0</ele><time>2026-05-02T12:28:25Z</time></trkpt><trkpt lat="42.02427613423682" lon="13.653082799261973"><ele>734.0</ele><time>2026-05-02T12:28:26Z</time></trkpt><trkpt lat="42.02426817351357" lon="13.652935150159225"><ele>734.0</ele><time>2026-05-02T12:28:27Z</time></trkpt><trkpt lat="42.02424393189155" lon="13.652795080380741"><ele>734.0</ele><time>2026-05-02T12:28:28Z</time></trkpt><trkpt lat="42.024223431766735" lon="13.652664534389556"><ele>734.0</ele><time>2026-05-02T12:28:29Z</time></trkpt><trkpt lat="42.024220458325075" lon="13.65254417278493"><ele>734.0</ele><time>2026-05-02T12:28:30Z</time></trkpt><trkpt lat="42.024247433847684" lon="13.652424306619148"><ele>734.4000000000001</ele><time>2026-05-02T12:28:31Z</time></trkpt><trkpt lat="42.02428836272782" lon="13.652313738531372"><ele>734.8</ele><time>2026-05-02T12:28:32Z</time></trkpt><trkpt lat="42.0243256767091" lon="13.652201112813037"><ele>735.2</ele><time>2026-05-02T12:28:33Z</time></trkpt><trkpt lat="42.02437883906355" lon="13.652092284698591"><ele>735.5999999999999</ele><time>2026-05-02T12:28:34Z</time></trkpt><trkpt lat="42.02443813674671" lon="13.651985454279238"><ele>736.0</ele><time>2026-05-02T12:28:35Z</time></trkpt><trkpt lat="42.02451588828271" lon="13.65187369032254"><ele>734.25</ele><time>2026-05-02T12:28:36Z</time></trkpt><trkpt lat="42.0245880706504" lon="13.651759149082428"><ele>732.5</ele><time>2026-05-02T12:28:37Z</time></trkpt><trkpt lat="42.02466393878432" lon="13.651644506616291"><ele>730.75</ele><time>2026-05-02T12:28:38Z</time></trkpt><trkpt lat="42.02474709132968" lon="13.651534547275583"><ele>729.0</ele><time>2026-05-02T12:28:39Z</time></trkpt><trkpt lat="42.024848228431814" lon="13.651427423788334"><ele>729.0</ele><time>2026-05-02T12:28:40Z</time></trkpt><trkpt lat="42.024940241666044" lon="13.651326224994085"><ele>729.0</ele><time>2026-05-02T12:28:41Z</time></trkpt><trkpt lat="42.025030057405075" lon="13.651222240923246"><ele>729.0</ele><time>2026-05-02T12:28:42Z</time></trkpt><trkpt lat="42.025119608364705" lon="13.65112362426815"><ele>729.0</ele><time>2026-05-02T12:28:43Z</time></trkpt><trkpt lat="42.0252005654129" lon="13.651025843773098"><ele>729.2</ele><time>2026-05-02T12:28:44Z</time></trkpt><trkpt lat="42.02527320424083" lon="13.650915865438703"><ele>729.4000000000001</ele><time>2026-05-02T12:28:45Z</time></trkpt><trkpt lat="42.02533989094999" lon="13.650822907292467"><ele>729.6</ele><time>2026-05-02T12:28:46Z</time></trkpt><trkpt lat="42.0254046894848" lon="13.650709080753208"><ele>729.8</ele><time>2026-05-02T12:28:47Z</time></trkpt><trkpt lat="42.02546958352798" lon="13.650604671356435"><ele>730.0</ele><time>2026-05-02T12:28:48Z</time></trkpt><trkpt lat="42.0255376151301" lon="13.650489506175404"><ele>730.0</ele><time>2026-05-02T12:28:49Z</time></trkpt><trkpt lat="42.02560465075133" lon="13.650377684919617"><ele>730.0</ele><time>2026-05-02T12:28:50Z</time></trkpt><trkpt lat="42.02566664495631" lon="13.650253896436299"><ele>730.0</ele><time>2026-05-02T12:28:51Z</time></trkpt><trkpt lat="42.02572997169485" lon="13.650151032584683"><ele>730.0</ele><time>2026-05-02T12:28:52Z</time></trkpt><trkpt lat="42.02579820338224" lon="13.65003594324607"><ele>730.0</ele><time>2026-05-02T12:28:53Z</time></trkpt><trkpt lat="42.0258612862616" lon="13.649934520518258"><ele>730.3333333333334</ele><time>2026-05-02T12:28:54Z</time></trkpt><trkpt lat="42.02592291151534" lon="13.649840207721228"><ele>730.6666666666667</ele><time>2026-05-02T12:28:55Z</time></trkpt><trkpt lat="42.0259816550968" lon="13.649749995229811"><ele>731.0</ele><time>2026-05-02T12:28:56Z</time></trkpt><trkpt lat="42.02603630118714" lon="13.649657556385195"><ele>731.3333333333334</ele><time>2026-05-02T12:28:57Z</time></trkpt><trkpt lat="42.02609003063905" lon="13.64956667590656"><ele>731.6666666666666</ele><time>2026-05-02T12:28:58Z</time></trkpt><trkpt lat="42.02614425057883" lon="13.649474461351634"><ele>732.0</ele><time>2026-05-02T12:28:59Z</time></trkpt><trkpt lat="42.0262079243928" lon="13.649386025962512"><ele>730.4000000000001</ele><time>2026-05-02T12:29:00Z</time></trkpt><trkpt lat="42.026271474694106" lon="13.649293093795407"><ele>728.8000000000001</ele><time>2026-05-02T12:29:01Z</time></trkpt><trkpt lat="42.02633552856933" lon="13.649197899019844"><ele>727.2</ele><time>2026-05-02T12:29:02Z</time></trkpt><trkpt lat="42.026400551248635" lon="13.649104886072342"><ele>725.6</ele><time>2026-05-02T12:29:03Z</time></trkpt><trkpt lat="42.026464670735365" lon="13.649016112856161"><ele>724.0</ele><time>2026-05-02T12:29:04Z</time></trkpt><trkpt lat="42.0265308578635" lon="13.648934129998874"><ele>724.0</ele><time>2026-05-02T12:29:05Z</time></trkpt><trkpt lat="42.02659472234956" lon="13.648852893761902"><ele>724.0</ele><time>2026-05-02T12:29:06Z</time></trkpt><trkpt lat="42.02666866205215" lon="13.648772937771339"><ele>724.0</ele><time>2026-05-02T12:29:07Z</time></trkpt><trkpt lat="42.026744153229735" lon="13.648690061449095"><ele>724.0</ele><time>2026-05-02T12:29:08Z</time></trkpt><trkpt lat="42.02682491447996" lon="13.648604721448873"><ele>724.0</ele><time>2026-05-02T12:29:09Z</time></trkpt><trkpt lat="42.02690495995496" lon="13.648512817936497"><ele>724.6</ele><time>2026-05-02T12:29:10Z</time></trkpt><trkpt lat="42.026982195712435" lon="13.648423309272955"><ele>725.2</ele><time>2026-05-02T12:29:11Z</time></trkpt><trkpt lat="42.027056722911276" lon="13.648337918012235"><ele>725.8000000000001</ele><time>2026-05-02T12:29:12Z</time></trkpt><trkpt lat="42.02712562938451" lon="13.648255465582853"><ele>726.4000000000001</ele><time>2026-05-02T12:29:13Z</time></trkpt><trkpt lat="42.02718745536486" lon="13.64818025411178"><ele>727.0</ele><time>2026-05-02T12:29:14Z</time></trkpt><trkpt lat="42.02723771272149" lon="13.648104073015066"><ele>727.0</ele><time>2026-05-02T12:29:15Z</time></trkpt><trkpt lat="42.027288918945814" lon="13.648017356569985"><ele>727.0</ele><time>2026-05-02T12:29:16Z</time></trkpt><trkpt lat="42.02736551589218" lon="13.647932943582259"><ele>727.0</ele><time>2026-05-02T12:29:17Z</time></trkpt><trkpt lat="42.02743125550096" lon="13.647809144510905"><ele>727.0</ele><time>2026-05-02T12:29:18Z</time></trkpt><trkpt lat="42.02751200086509" lon="13.647707242799806"><ele>727.0</ele><time>2026-05-02T12:29:19Z</time></trkpt><trkpt lat="42.0276121047523" lon="13.647583415065846"><ele>727.25</ele><time>2026-05-02T12:29:20Z</time></trkpt><trkpt lat="42.02770666469244" lon="13.647445005116056"><ele>727.5</ele><time>2026-05-02T12:29:21Z</time></trkpt><trkpt lat="42.02780050085975" lon="13.647319544394584"><ele>727.75</ele><time>2026-05-02T12:29:22Z</time></trkpt><trkpt lat="42.02790975252952" lon="13.647188143765659"><ele>728.0</ele><time>2026-05-02T12:29:23Z</time></trkpt><trkpt lat="42.02801444084397" lon="13.647054689972636"><ele>727.5</ele><time>2026-05-02T12:29:24Z</time></trkpt><trkpt lat="42.02812531285445" lon="13.646921462298586"><ele>727.0</ele><time>2026-05-02T12:29:25Z</time></trkpt><trkpt lat="42.0282371185047" lon="13.64679636445967"><ele>726.5</ele><time>2026-05-02T12:29:26Z</time></trkpt><trkpt lat="42.02834813257071" lon="13.646671247138435"><ele>726.0</ele><time>2026-05-02T12:29:27Z</time></trkpt><trkpt lat="42.028459914255855" lon="13.646531287199203"><ele>726.0</ele><time>2026-05-02T12:29:28Z</time></trkpt><trkpt lat="42.02857498643844" lon="13.646388047856414"><ele>726.0</ele><time>2026-05-02T12:29:29Z</time></trkpt><trkpt lat="42.02868097444208" lon="13.64623341845625"><ele>726.0</ele><time>2026-05-02T12:29:30Z</time></trkpt><trkpt lat="42.02877696390004" lon="13.646067428104157"><ele>725.0</ele><time>2026-05-02T12:29:31Z</time></trkpt><trkpt lat="42.028871748762555" lon="13.64589657722077"><ele>724.0</ele><time>2026-05-02T12:29:32Z</time></trkpt><trkpt lat="42.028972600596894" lon="13.645738337671618"><ele>723.0</ele><time>2026-05-02T12:29:33Z</time></trkpt><trkpt lat="42.02910410018932" lon="13.64563308908217"><ele>725.0</ele><time>2026-05-02T12:29:34Z</time></trkpt><trkpt lat="42.029257718370225" lon="13.645556763958247"><ele>727.0</ele><time>2026-05-02T12:29:35Z</time></trkpt><trkpt lat="42.02942191546392" lon="13.645491263385324"><ele>729.0</ele><time>2026-05-02T12:29:36Z</time></trkpt><trkpt lat="42.02960504156326" lon="13.645428229520936"><ele>729.0</ele><time>2026-05-02T12:29:37Z</time></trkpt><trkpt lat="42.02978369723401" lon="13.64535138250908"><ele>729.0</ele><time>2026-05-02T12:29:38Z</time></trkpt><trkpt lat="42.02996520298073" lon="13.64527042352941"><ele>729.0</ele><time>2026-05-02T12:29:39Z</time></trkpt><trkpt lat="42.030149791484945" lon="13.64518352493502"><ele>728.6666666666666</ele><time>2026-05-02T12:29:40Z</time></trkpt><trkpt lat="42.03031581702414" lon="13.645068431130012"><ele>728.3333333333333</ele><time>2026-05-02T12:29:41Z</time></trkpt><trkpt lat="42.030482532060006" lon="13.644945035084396"><ele>728.0</ele><time>2026-05-02T12:29:42Z</time></trkpt><trkpt lat="42.03064409745431" lon="13.64480823568363"><ele>728.0</ele><time>2026-05-02T12:29:43Z</time></trkpt><trkpt lat="42.030796477221756" lon="13.644659358038467"><ele>728.0</ele><time>2026-05-02T12:29:44Z</time></trkpt><trkpt lat="42.0309491960537" lon="13.644490830984324"><ele>728.0</ele><time>2026-05-02T12:29:45Z</time></trkpt><trkpt lat="42.03109424981769" lon="13.6443087193742"><ele>727.0</ele><time>2026-05-02T12:29:46Z</time></trkpt><trkpt lat="42.03123349034833" lon="13.644101204130308"><ele>726.0</ele><time>2026-05-02T12:29:47Z</time></trkpt><trkpt lat="42.03136375469198" lon="13.643886713089536"><ele>725.0</ele><time>2026-05-02T12:29:48Z</time></trkpt><trkpt lat="42.031490887259885" lon="13.643663791864507"><ele>724.0</ele><time>2026-05-02T12:29:49Z</time></trkpt><trkpt lat="42.031596858208246" lon="13.643423973431725"><ele>723.0</ele><time>2026-05-02T12:29:50Z</time></trkpt><trkpt lat="42.03170351571713" lon="13.643187141927426"><ele>722.0</ele><time>2026-05-02T12:29:51Z</time></trkpt><trkpt lat="42.031808598356136" lon="13.64296484273937"><ele>722.6666666666666</ele><time>2026-05-02T12:29:52Z</time></trkpt><trkpt lat="42.03192803333382" lon="13.6427560915115"><ele>723.3333333333334</ele><time>2026-05-02T12:29:53Z</time></trkpt><trkpt lat="42.03207246973864" lon="13.642568122938146"><ele>724.0</ele><time>2026-05-02T12:29:54Z</time></trkpt><trkpt lat="42.03222865269253" lon="13.642384664603375"><ele>724.0</ele><time>2026-05-02T12:29:55Z</time></trkpt><trkpt lat="42.03239034628679" lon="13.642220931758082"><ele>724.0</ele><time>2026-05-02T12:29:56Z</time></trkpt><trkpt lat="42.03256757630825" lon="13.642072161515001"><ele>724.0</ele><time>2026-05-02T12:29:57Z</time></trkpt><trkpt lat="42.032741017618385" lon="13.641924376832007"><ele>723.6666666666667</ele><time>2026-05-02T12:29:58Z</time></trkpt><trkpt lat="42.03291657888706" lon="13.641774389695549"><ele>723.3333333333334</ele><time>2026-05-02T12:29:59Z</time></trkpt><trkpt lat="42.03309154570481" lon="13.64161645283813"><ele>723.0</ele><time>2026-05-02T12:30:00Z</time></trkpt><trkpt lat="42.033274642423535" lon="13.641469850861169"><ele>723.3333333333334</ele><time>2026-05-02T12:30:01Z</time></trkpt><trkpt lat="42.03345986607984" lon="13.641321574534752"><ele>723.6666666666667</ele><time>2026-05-02T12:30:02Z</time></trkpt><trkpt lat="42.033644459080115" lon="13.641161175484717"><ele>724.0</ele><time>2026-05-02T12:30:03Z</time></trkpt><trkpt lat="42.033823676856755" lon="13.641000933511702"><ele>724.0</ele><time>2026-05-02T12:30:04Z</time></trkpt><trkpt lat="42.03399833730564" lon="13.640848933807694"><ele>724.0</ele><time>2026-05-02T12:30:05Z</time></trkpt><trkpt lat="42.034184721688646" lon="13.640691103124741"><ele>724.0</ele><time>2026-05-02T12:30:06Z</time></trkpt><trkpt lat="42.03436451253497" lon="13.64054351572542"><ele>723.6666666666667</ele><time>2026-05-02T12:30:07Z</time></trkpt><trkpt lat="42.034534175923014" lon="13.640393970301645"><ele>723.3333333333334</ele><time>2026-05-02T12:30:08Z</time></trkpt><trkpt lat="42.0347052848051" lon="13.640243201550415"><ele>723.0</ele><time>2026-05-02T12:30:09Z</time></trkpt><trkpt lat="42.03487813673198" lon="13.640094306984496"><ele>724.3333333333334</ele><time>2026-05-02T12:30:10Z</time></trkpt><trkpt lat="42.03505631515592" lon="13.639944750682938"><ele>725.6666666666667</ele><time>2026-05-02T12:30:11Z</time></trkpt><trkpt lat="42.03521943347227" lon="13.639789766333145"><ele>727.0</ele><time>2026-05-02T12:30:12Z</time></trkpt><trkpt lat="42.035379068674786" lon="13.63962601995422"><ele>728.0</ele><time>2026-05-02T12:30:13Z</time></trkpt><trkpt lat="42.035527043107855" lon="13.639451880630682"><ele>729.0</ele><time>2026-05-02T12:30:14Z</time></trkpt><trkpt lat="42.03567530993004" lon="13.63926764126289"><ele>730.0</ele><time>2026-05-02T12:30:15Z</time></trkpt><trkpt lat="42.035807681942075" lon="13.639066191065538"><ele>730.0</ele><time>2026-05-02T12:30:16Z</time></trkpt><trkpt lat="42.03593033914522" lon="13.638855438157627"><ele>730.0</ele><time>2026-05-02T12:30:17Z</time></trkpt><trkpt lat="42.036056064482025" lon="13.638650004082818"><ele>730.0</ele><time>2026-05-02T12:30:18Z</time></trkpt><trkpt lat="42.036179491441324" lon="13.638441095019964"><ele>728.3333333333334</ele><time>2026-05-02T12:30:19Z</time></trkpt><trkpt lat="42.03630282373444" lon="13.63822978609576"><ele>726.6666666666666</ele><time>2026-05-02T12:30:20Z</time></trkpt><trkpt lat="42.03642722853967" lon="13.63801643850336"><ele>725.0</ele><time>2026-05-02T12:30:21Z</time></trkpt><trkpt lat="42.036551585769885" lon="13.637812320449271"><ele>726.0</ele><time>2026-05-02T12:30:22Z</time></trkpt><trkpt lat="42.03669041349138" lon="13.637618744786348"><ele>727.0</ele><time>2026-05-02T12:30:23Z</time></trkpt><trkpt lat="42.03684172323234" lon="13.637444460232418"><ele>728.0</ele><time>2026-05-02T12:30:24Z</time></trkpt><trkpt lat="42.037013002641906" lon="13.63729409374531"><ele>728.0</ele><time>2026-05-02T12:30:25Z</time></trkpt><trkpt lat="42.03718657525663" lon="13.637132144736599"><ele>728.0</ele><time>2026-05-02T12:30:26Z</time></trkpt><trkpt lat="42.03734962445671" lon="13.636967653817612"><ele>728.0</ele><time>2026-05-02T12:30:27Z</time></trkpt><trkpt lat="42.037512368101694" lon="13.636791700131402"><ele>727.3333333333333</ele><time>2026-05-02T12:30:28Z</time></trkpt><trkpt lat="42.03766292516724" lon="13.636595543429356"><ele>726.6666666666666</ele><time>2026-05-02T12:30:29Z</time></trkpt><trkpt lat="42.03780169819008" lon="13.636383960900938"><ele>726.0</ele><time>2026-05-02T12:30:30Z</time></trkpt><trkpt lat="42.0379326931679" lon="13.636165136329405"><ele>725.6666666666666</ele><time>2026-05-02T12:30:31Z</time></trkpt><trkpt lat="42.03806532326504" lon="13.635936925486558"><ele>725.3333333333333</ele><time>2026-05-02T12:30:32Z</time></trkpt><trkpt lat="42.038201716037634" lon="13.635710654551247"><ele>725.0</ele><time>2026-05-02T12:30:33Z</time></trkpt><trkpt lat="42.03833537049388" lon="13.635477758747278"><ele>723.3333333333333</ele><time>2026-05-02T12:30:34Z</time></trkpt><trkpt lat="42.038448313794675" lon="13.63522738637845"><ele>721.6666666666666</ele><time>2026-05-02T12:30:35Z</time></trkpt><trkpt lat="42.03855546817859" lon="13.6349662363246"><ele>720.0</ele><time>2026-05-02T12:30:36Z</time></trkpt><trkpt lat="42.03866593071564" lon="13.63470511450681"><ele>719.0</ele><time>2026-05-02T12:30:37Z</time></trkpt><trkpt lat="42.0387739184339" lon="13.634442136191492"><ele>718.0</ele><time>2026-05-02T12:30:38Z</time></trkpt><trkpt lat="42.03888140518675" lon="13.6341788907038"><ele>717.0</ele><time>2026-05-02T12:30:39Z</time></trkpt><trkpt lat="42.03898889704018" lon="13.633915924312909"><ele>717.0</ele><time>2026-05-02T12:30:40Z</time></trkpt><trkpt lat="42.03909776129942" lon="13.633650041916418"><ele>717.0</ele><time>2026-05-02T12:30:41Z</time></trkpt><trkpt lat="42.03920472475859" lon="13.633384158627953"><ele>717.5</ele><time>2026-05-02T12:30:42Z</time></trkpt><trkpt lat="42.039313028067156" lon="13.633119387171192"><ele>718.0</ele><time>2026-05-02T12:30:43Z</time></trkpt><trkpt lat="42.03943025597918" lon="13.632856305389309"><ele>716.0</ele><time>2026-05-02T12:30:44Z</time></trkpt><trkpt lat="42.039553745363264" lon="13.632600108801238"><ele>714.0</ele><time>2026-05-02T12:30:45Z</time></trkpt><trkpt lat="42.03968959167144" lon="13.632353593942582"><ele>714.0</ele><time>2026-05-02T12:30:46Z</time></trkpt><trkpt lat="42.03982870965522" lon="13.632116741544726"><ele>714.0</ele><time>2026-05-02T12:30:47Z</time></trkpt><trkpt lat="42.03996622343282" lon="13.631884225513824"><ele>714.0</ele><time>2026-05-02T12:30:48Z</time></trkpt><trkpt lat="42.04009340581939" lon="13.631654890952529"><ele>714.0</ele><time>2026-05-02T12:30:49Z</time></trkpt><trkpt lat="42.04020373158681" lon="13.631435818632331"><ele>714.0</ele><time>2026-05-02T12:30:50Z</time></trkpt><trkpt lat="42.04034235669422" lon="13.631200552360728"><ele>714.0</ele><time>2026-05-02T12:30:51Z</time></trkpt><trkpt lat="42.040475435393894" lon="13.630999425797118"><ele>714.0</ele><time>2026-05-02T12:30:52Z</time></trkpt><trkpt lat="42.04062325039695" lon="13.630767065681063"><ele>714.0</ele><time>2026-05-02T12:30:53Z</time></trkpt><trkpt lat="42.040766169690265" lon="13.630542031195638"><ele>714.0</ele><time>2026-05-02T12:30:54Z</time></trkpt><trkpt lat="42.04089947031948" lon="13.630310086015111"><ele>714.3333333333334</ele><time>2026-05-02T12:30:55Z</time></trkpt><trkpt lat="42.04104171422736" lon="13.630086934879426"><ele>714.6666666666667</ele><time>2026-05-02T12:30:56Z</time></trkpt><trkpt lat="42.04117186486336" lon="13.629867787652843"><ele>715.0</ele><time>2026-05-02T12:30:57Z</time></trkpt><trkpt lat="42.04130098184576" lon="13.629658090828736"><ele>714.3333333333334</ele><time>2026-05-02T12:30:58Z</time></trkpt><trkpt lat="42.041434158856745" lon="13.629443061745604"><ele>713.6666666666666</ele><time>2026-05-02T12:30:59Z</time></trkpt><trkpt lat="42.04156580818676" lon="13.629231762775118"><ele>713.0</ele><time>2026-05-02T12:31:00Z</time></trkpt><trkpt lat="42.04169655248555" lon="13.629020380464947"><ele>713.3333333333333</ele><time>2026-05-02T12:31:01Z</time></trkpt><trkpt lat="42.041824948813684" lon="13.628814800383678"><ele>713.6666666666666</ele><time>2026-05-02T12:31:02Z</time></trkpt><trkpt lat="42.041951793016985" lon="13.628611464324308"><ele>714.0</ele><time>2026-05-02T12:31:03Z</time></trkpt><trkpt lat="42.04208455499085" lon="13.628408047799383"><ele>714.0</ele><time>2026-05-02T12:31:04Z</time></trkpt><trkpt lat="42.04221622926666" lon="13.628201151183129"><ele>714.0</ele><time>2026-05-02T12:31:05Z</time></trkpt><trkpt lat="42.042347148081596" lon="13.627995643251946"><ele>714.0</ele><time>2026-05-02T12:31:06Z</time></trkpt><trkpt lat="42.042479522600104" lon="13.627786664170506"><ele>713.6666666666666</ele><time>2026-05-02T12:31:07Z</time></trkpt><trkpt lat="42.042607847056175" lon="13.627583874793661"><ele>713.3333333333333</ele><time>2026-05-02T12:31:08Z</time></trkpt><trkpt lat="42.04273862761419" lon="13.627379686459978"><ele>713.0</ele><time>2026-05-02T12:31:09Z</time></trkpt><trkpt lat="42.042865546305386" lon="13.627174085440231"><ele>712.0</ele><time>2026-05-02T12:31:10Z</time></trkpt><trkpt lat="42.04299596741627" lon="13.626973611447987"><ele>711.0</ele><time>2026-05-02T12:31:11Z</time></trkpt><trkpt lat="42.04312423220368" lon="13.626772767097743"><ele>710.0</ele><time>2026-05-02T12:31:12Z</time></trkpt><trkpt lat="42.04325170822222" lon="13.626572694298984"><ele>710.6666666666666</ele><time>2026-05-02T12:31:13Z</time></trkpt><trkpt lat="42.0433775085826" lon="13.626373799845057"><ele>711.3333333333334</ele><time>2026-05-02T12:31:14Z</time></trkpt><trkpt lat="42.04351098103974" lon="13.626172322935137"><ele>712.0</ele><time>2026-05-02T12:31:15Z</time></trkpt><trkpt lat="42.04363346996121" lon="13.625977727119587"><ele>712.0</ele><time>2026-05-02T12:31:16Z</time></trkpt><trkpt lat="42.043752460998114" lon="13.625783130754682"><ele>712.0</ele><time>2026-05-02T12:31:17Z</time></trkpt><trkpt lat="42.04387035540038" lon="13.625603934993551"><ele>712.0</ele><time>2026-05-02T12:31:18Z</time></trkpt><trkpt lat="42.04399062509726" lon="13.625421426622278"><ele>712.0</ele><time>2026-05-02T12:31:19Z</time></trkpt><trkpt lat="42.04410970222669" lon="13.625236685024964"><ele>712.0</ele><time>2026-05-02T12:31:20Z</time></trkpt><trkpt lat="42.04422612149749" lon="13.625051299149085"><ele>712.0</ele><time>2026-05-02T12:31:21Z</time></trkpt><trkpt lat="42.04433993442406" lon="13.624868160846209"><ele>712.0</ele><time>2026-05-02T12:31:22Z</time></trkpt><trkpt lat="42.04445769441958" lon="13.624688840282001"><ele>712.0</ele><time>2026-05-02T12:31:23Z</time></trkpt><trkpt lat="42.04457895031672" lon="13.624502862022277"><ele>712.0</ele><time>2026-05-02T12:31:24Z</time></trkpt><trkpt lat="42.04470072532109" lon="13.624320256743857"><ele>711.6666666666667</ele><time>2026-05-02T12:31:25Z</time></trkpt><trkpt lat="42.044822974660775" lon="13.624146285457298"><ele>711.3333333333334</ele><time>2026-05-02T12:31:26Z</time></trkpt><trkpt lat="42.04495249892637" lon="13.623976288848624"><ele>711.0</ele><time>2026-05-02T12:31:27Z</time></trkpt><trkpt lat="42.04508330710543" lon="13.623822718846919"><ele>711.3333333333334</ele><time>2026-05-02T12:31:28Z</time></trkpt><trkpt lat="42.045220869717106" lon="13.623674559939627"><ele>711.6666666666667</ele><time>2026-05-02T12:31:29Z</time></trkpt><trkpt lat="42.045355294638746" lon="13.623526830994194"><ele>712.0</ele><time>2026-05-02T12:31:30Z</time></trkpt><trkpt lat="42.045493418589196" lon="13.62338552110867"><ele>712.0</ele><time>2026-05-02T12:31:31Z</time></trkpt><trkpt lat="42.04562966076213" lon="13.623242459267484"><ele>712.0</ele><time>2026-05-02T12:31:32Z</time></trkpt><trkpt lat="42.04575787792421" lon="13.623106725723519"><ele>712.0</ele><time>2026-05-02T12:31:33Z</time></trkpt><trkpt lat="42.04588184888023" lon="13.622981384049256"><ele>712.5</ele><time>2026-05-02T12:31:34Z</time></trkpt><trkpt lat="42.04600468817886" lon="13.622871361960218"><ele>713.0</ele><time>2026-05-02T12:31:35Z</time></trkpt><trkpt lat="42.04612206783385" lon="13.622774441769623"><ele>713.5</ele><time>2026-05-02T12:31:36Z</time></trkpt><trkpt lat="42.04623770200152" lon="13.622685131502463"><ele>714.0</ele><time>2026-05-02T12:31:37Z</time></trkpt><trkpt lat="42.04635790330172" lon="13.62259776289938"><ele>714.0</ele><time>2026-05-02T12:31:38Z</time></trkpt><trkpt lat="42.04647919591061" lon="13.622508328641123"><ele>714.0</ele><time>2026-05-02T12:31:39Z</time></trkpt><trkpt lat="42.04660319001294" lon="13.622413152899286"><ele>714.0</ele><time>2026-05-02T12:31:40Z</time></trkpt><trkpt lat="42.04672594478095" lon="13.622313585976311"><ele>714.0</ele><time>2026-05-02T12:31:41Z</time></trkpt><trkpt lat="42.04684921555847" lon="13.622200901119127"><ele>714.6666666666666</ele><time>2026-05-02T12:31:42Z</time></trkpt><trkpt lat="42.04696233915043" lon="13.622069819923828"><ele>715.3333333333333</ele><time>2026-05-02T12:31:43Z</time></trkpt><trkpt lat="42.04707349866406" lon="13.621927815697385"><ele>716.0</ele><time>2026-05-02T12:31:44Z</time></trkpt><trkpt lat="42.047186474031484" lon="13.621782022549041"><ele>716.0</ele><time>2026-05-02T12:31:45Z</time></trkpt><trkpt lat="42.04730362270863" lon="13.62163942128927"><ele>716.0</ele><time>2026-05-02T12:31:46Z</time></trkpt><trkpt lat="42.04742690159561" lon="13.62149956488206"><ele>716.0</ele><time>2026-05-02T12:31:47Z</time></trkpt><trkpt lat="42.04755814824895" lon="13.621370053138142"><ele>716.3333333333333</ele><time>2026-05-02T12:31:48Z</time></trkpt><trkpt lat="42.04768638888329" lon="13.621226947863473"><ele>716.6666666666666</ele><time>2026-05-02T12:31:49Z</time></trkpt><trkpt lat="42.04780582432857" lon="13.621081083692436"><ele>717.0</ele><time>2026-05-02T12:31:50Z</time></trkpt><trkpt lat="42.04792211355653" lon="13.6209242962913"><ele>717.0</ele><time>2026-05-02T12:31:51Z</time></trkpt><trkpt lat="42.04801819305004" lon="13.62074896812446"><ele>717.0</ele><time>2026-05-02T12:31:52Z</time></trkpt><trkpt lat="42.04810839592206" lon="13.620554526798692"><ele>717.0</ele><time>2026-05-02T12:31:53Z</time></trkpt><trkpt lat="42.048192745032516" lon="13.620361549715351"><ele>717.3333333333334</ele><time>2026-05-02T12:31:54Z</time></trkpt><trkpt lat="42.048280502256304" lon="13.620164778217966"><ele>717.6666666666667</ele><time>2026-05-02T12:31:55Z</time></trkpt><trkpt lat="42.04836933990734" lon="13.61996899754453"><ele>718.0</ele><time>2026-05-02T12:31:56Z</time></trkpt><trkpt lat="42.048463633136535" lon="13.619771249236003"><ele>718.0</ele><time>2026-05-02T12:31:57Z</time></trkpt><trkpt lat="42.04855393928856" lon="13.61957554655403"><ele>718.0</ele><time>2026-05-02T12:31:58Z</time></trkpt><trkpt lat="42.04864456528111" lon="13.619375953228516"><ele>718.0</ele><time>2026-05-02T12:31:59Z</time></trkpt><trkpt lat="42.04873726700429" lon="13.619169127222284"><ele>717.6666666666667</ele><time>2026-05-02T12:32:00Z</time></trkpt><trkpt lat="42.04882768751842" lon="13.618964725136335"><ele>717.3333333333334</ele><time>2026-05-02T12:32:01Z</time></trkpt><trkpt lat="42.04890874430068" lon="13.618759150215508"><ele>717.0</ele><time>2026-05-02T12:32:02Z</time></trkpt><trkpt lat="42.04897554283857" lon="13.618533539154022"><ele>716.0</ele><time>2026-05-02T12:32:03Z</time></trkpt><trkpt lat="42.049029966936125" lon="13.618305094608617"><ele>715.0</ele><time>2026-05-02T12:32:04Z</time></trkpt><trkpt lat="42.049080582301606" lon="13.618075985254114"><ele>714.0</ele><time>2026-05-02T12:32:05Z</time></trkpt><trkpt lat="42.049122689407376" lon="13.617842454538504"><ele>715.6666666666666</ele><time>2026-05-02T12:32:06Z</time></trkpt><trkpt lat="42.04916459070406" lon="13.617609480166989"><ele>717.3333333333333</ele><time>2026-05-02T12:32:07Z</time></trkpt><trkpt lat="42.04921250183297" lon="13.617368352131411"><ele>719.0</ele><time>2026-05-02T12:32:08Z</time></trkpt><trkpt lat="42.04925135099845" lon="13.617137592348845"><ele>718.6666666666666</ele><time>2026-05-02T12:32:09Z</time></trkpt><trkpt lat="42.049286709336485" lon="13.616907814383268"><ele>718.3333333333334</ele><time>2026-05-02T12:32:10Z</time></trkpt><trkpt lat="42.04932684622115" lon="13.616681110216195"><ele>718.0</ele><time>2026-05-02T12:32:11Z</time></trkpt><trkpt lat="42.04936799271878" lon="13.616456495600302"><ele>718.0</ele><time>2026-05-02T12:32:12Z</time></trkpt><trkpt lat="42.04940479388618" lon="13.616234688042129"><ele>718.0</ele><time>2026-05-02T12:32:13Z</time></trkpt><trkpt lat="42.04944701546436" lon="13.616010570020748"><ele>718.0</ele><time>2026-05-02T12:32:14Z</time></trkpt><trkpt lat="42.04948523451516" lon="13.615789832257391"><ele>717.6666666666667</ele><time>2026-05-02T12:32:15Z</time></trkpt><trkpt lat="42.0495220688596" lon="13.615571675446091"><ele>717.3333333333334</ele><time>2026-05-02T12:32:16Z</time></trkpt><trkpt lat="42.04956243861651" lon="13.615351026877507"><ele>717.0</ele><time>2026-05-02T12:32:17Z</time></trkpt><trkpt lat="42.04960968616523" lon="13.615129076530174"><ele>716.6666666666666</ele><time>2026-05-02T12:32:18Z</time></trkpt><trkpt lat="42.0496515765812" lon="13.614902979910434"><ele>716.3333333333333</ele><time>2026-05-02T12:32:19Z</time></trkpt><trkpt lat="42.04969401371168" lon="13.614684400310697"><ele>716.0</ele><time>2026-05-02T12:32:20Z</time></trkpt><trkpt lat="42.04975634463177" lon="13.61445932644173"><ele>715.6666666666666</ele><time>2026-05-02T12:32:21Z</time></trkpt><trkpt lat="42.04983052245972" lon="13.614231180728586"><ele>715.3333333333334</ele><time>2026-05-02T12:32:22Z</time></trkpt><trkpt lat="42.04991281963235" lon="13.614012721516477"><ele>715.0</ele><time>2026-05-02T12:32:23Z</time></trkpt><trkpt lat="42.05000207293049" lon="13.613793219195957"><ele>716.0</ele><time>2026-05-02T12:32:24Z</time></trkpt><trkpt lat="42.050094890006676" lon="13.61358058181633"><ele>717.0</ele><time>2026-05-02T12:32:25Z</time></trkpt><trkpt lat="42.05019766238803" lon="13.613362539861049"><ele>718.0</ele><time>2026-05-02T12:32:26Z</time></trkpt><trkpt lat="42.05030407263381" lon="13.6131476115353"><ele>718.0</ele><time>2026-05-02T12:32:27Z</time></trkpt><trkpt lat="42.05041776549036" lon="13.612934408939168"><ele>718.0</ele><time>2026-05-02T12:32:28Z</time></trkpt><trkpt lat="42.05051961770195" lon="13.612717304321"><ele>718.0</ele><time>2026-05-02T12:32:29Z</time></trkpt><trkpt lat="42.05059241441293" lon="13.612481296903258"><ele>717.3333333333334</ele><time>2026-05-02T12:32:30Z</time></trkpt><trkpt lat="42.050653562229144" lon="13.612241790970726"><ele>716.6666666666666</ele><time>2026-05-02T12:32:31Z</time></trkpt><trkpt lat="42.05070881184713" lon="13.612001346788789"><ele>716.0</ele><time>2026-05-02T12:32:32Z</time></trkpt><trkpt lat="42.050767730194266" lon="13.611761932621343"><ele>716.3333333333333</ele><time>2026-05-02T12:32:33Z</time></trkpt><trkpt lat="42.05083109107914" lon="13.611533764314007"><ele>716.6666666666666</ele><time>2026-05-02T12:32:34Z</time></trkpt><trkpt lat="42.05089980681223" lon="13.611305149813974"><ele>717.0</ele><time>2026-05-02T12:32:35Z</time></trkpt><trkpt lat="42.05097930118972" lon="13.611078504887946"><ele>717.0</ele><time>2026-05-02T12:32:36Z</time></trkpt><trkpt lat="42.05106195521656" lon="13.610855990170787"><ele>717.0</ele><time>2026-05-02T12:32:37Z</time></trkpt><trkpt lat="42.05114306996578" lon="13.61063244443571"><ele>717.0</ele><time>2026-05-02T12:32:38Z</time></trkpt><trkpt lat="42.05122226454326" lon="13.61040662076804"><ele>717.0</ele><time>2026-05-02T12:32:39Z</time></trkpt><trkpt lat="42.05129595859429" lon="13.61018406150479"><ele>717.0</ele><time>2026-05-02T12:32:40Z</time></trkpt><trkpt lat="42.051374888477824" lon="13.609961386905441"><ele>717.0</ele><time>2026-05-02T12:32:41Z</time></trkpt><trkpt lat="42.05145585200488" lon="13.609735773589222"><ele>717.0</ele><time>2026-05-02T12:32:42Z</time></trkpt><trkpt lat="42.051525780048344" lon="13.609507263904804"><ele>717.0</ele><time>2026-05-02T12:32:43Z</time></trkpt><trkpt lat="42.051588129489346" lon="13.609277428327442"><ele>717.0</ele><time>2026-05-02T12:32:44Z</time></trkpt><trkpt lat="42.05165395904132" lon="13.609050464103463"><ele>717.3333333333334</ele><time>2026-05-02T12:32:45Z</time></trkpt><trkpt lat="42.05172644294598" lon="13.60882421383249"><ele>717.6666666666667</ele><time>2026-05-02T12:32:46Z</time></trkpt><trkpt lat="42.05180335661397" lon="13.608603385854796"><ele>718.0</ele><time>2026-05-02T12:32:47Z</time></trkpt><trkpt lat="42.05188475767378" lon="13.60838799410632"><ele>718.0</ele><time>2026-05-02T12:32:48Z</time></trkpt><trkpt lat="42.05196545364192" lon="13.608168815984051"><ele>718.0</ele><time>2026-05-02T12:32:49Z</time></trkpt><trkpt lat="42.0520461792902" lon="13.60794937369801"><ele>718.0</ele><time>2026-05-02T12:32:50Z</time></trkpt><trkpt lat="42.05212770855758" lon="13.607732308988261"><ele>717.6666666666667</ele><time>2026-05-02T12:32:51Z</time></trkpt><trkpt lat="42.05221215553587" lon="13.607522951060993"><ele>717.3333333333334</ele><time>2026-05-02T12:32:52Z</time></trkpt><trkpt lat="42.05229647848741" lon="13.607327135869363"><ele>717.0</ele><time>2026-05-02T12:32:53Z</time></trkpt><trkpt lat="42.05237302027029" lon="13.607137182771703"><ele>717.6666666666666</ele><time>2026-05-02T12:32:54Z</time></trkpt><trkpt lat="42.05247111274453" lon="13.606976089836882"><ele>718.3333333333333</ele><time>2026-05-02T12:32:55Z</time></trkpt><trkpt lat="42.052600884327404" lon="13.606814972871867"><ele>719.0</ele><time>2026-05-02T12:32:56Z</time></trkpt><trkpt lat="42.05272578757303" lon="13.606677347473132"><ele>719.0</ele><time>2026-05-02T12:32:57Z</time></trkpt><trkpt lat="42.05285677313669" lon="13.606558801078867"><ele>719.0</ele><time>2026-05-02T12:32:58Z</time></trkpt><trkpt lat="42.052976620063625" lon="13.606443333554369"><ele>719.0</ele><time>2026-05-02T12:32:59Z</time></trkpt><trkpt lat="42.05309890591371" lon="13.606323714535376"><ele>719.0</ele><time>2026-05-02T12:33:00Z</time></trkpt><trkpt lat="42.053250676559564" lon="13.606250007315332"><ele>719.0</ele><time>2026-05-02T12:33:01Z</time></trkpt><trkpt lat="42.05338038413099" lon="13.6061332402634"><ele>719.0</ele><time>2026-05-02T12:33:02Z</time></trkpt><trkpt lat="42.05351493491775" lon="13.606020353475657"><ele>720.0</ele><time>2026-05-02T12:33:03Z</time></trkpt><trkpt lat="42.05362271528878" lon="13.605839167222552"><ele>721.0</ele><time>2026-05-02T12:33:04Z</time></trkpt><trkpt lat="42.05376661357975" lon="13.605738204969441"><ele>722.0</ele><time>2026-05-02T12:33:05Z</time></trkpt><trkpt lat="42.05390530389446" lon="13.605633819395608"><ele>722.0</ele><time>2026-05-02T12:33:06Z</time></trkpt><trkpt lat="42.054039121847005" lon="13.60551992615452"><ele>722.0</ele><time>2026-05-02T12:33:07Z</time></trkpt><trkpt lat="42.05417094411377" lon="13.605404739580148"><ele>722.0</ele><time>2026-05-02T12:33:08Z</time></trkpt><trkpt lat="42.054300100728916" lon="13.60528739808568"><ele>722.5</ele><time>2026-05-02T12:33:09Z</time></trkpt><trkpt lat="42.054417743577396" lon="13.605169203220045"><ele>723.0</ele><time>2026-05-02T12:33:10Z</time></trkpt><trkpt lat="42.05453784934288" lon="13.605056456978296"><ele>723.5</ele><time>2026-05-02T12:33:11Z</time></trkpt><trkpt lat="42.05465853379807" lon="13.604948019191482"><ele>724.0</ele><time>2026-05-02T12:33:12Z</time></trkpt><trkpt lat="42.05478234847654" lon="13.604846666341688"><ele>724.0</ele><time>2026-05-02T12:33:13Z</time></trkpt><trkpt lat="42.05490235425132" lon="13.604747970133182"><ele>724.0</ele><time>2026-05-02T12:33:14Z</time></trkpt><trkpt lat="42.05502453726404" lon="13.60465944661263"><ele>724.0</ele><time>2026-05-02T12:33:15Z</time></trkpt><trkpt lat="42.055140683800815" lon="13.604578973900173"><ele>724.0</ele><time>2026-05-02T12:33:16Z</time></trkpt><trkpt lat="42.05524912578778" lon="13.604511126625969"><ele>725.0</ele><time>2026-05-02T12:33:17Z</time></trkpt><trkpt lat="42.05535046995638" lon="13.604450572932944"><ele>726.0</ele><time>2026-05-02T12:33:18Z</time></trkpt><trkpt lat="42.055433771987865" lon="13.604400467789779"><ele>727.0</ele><time>2026-05-02T12:33:19Z</time></trkpt><trkpt lat="42.05552263580132" lon="13.604385108927433"><ele>728.0</ele><time>2026-05-02T12:33:20Z</time></trkpt><trkpt lat="42.055604757434445" lon="13.604333448882556"><ele>729.0</ele><time>2026-05-02T12:33:21Z</time></trkpt><trkpt lat="42.05569767361729" lon="13.60431029756445"><ele>730.6</ele><time>2026-05-02T12:33:22Z</time></trkpt><trkpt lat="42.055793327202224" lon="13.604290960881896"><ele>732.2</ele><time>2026-05-02T12:33:23Z</time></trkpt><trkpt lat="42.05588303934657" lon="13.604271953474264"><ele>733.8000000000001</ele><time>2026-05-02T12:33:24Z</time></trkpt><trkpt lat="42.05596261825152" lon="13.604255903528431"><ele>735.4000000000001</ele><time>2026-05-02T12:33:25Z</time></trkpt><trkpt lat="42.0560306102486" lon="13.604231535656066"><ele>737.0</ele><time>2026-05-02T12:33:26Z</time></trkpt><trkpt lat="42.05614379331337" lon="13.604195578226987"><ele>737.0</ele><time>2026-05-02T12:33:28Z</time></trkpt><trkpt lat="42.05621323276685" lon="13.604160644801544"><ele>737.0</ele><time>2026-05-02T12:33:31Z</time></trkpt><trkpt lat="42.056276607862486" lon="13.604144480542312"><ele>737.0</ele><time>2026-05-02T12:33:36Z</time></trkpt><trkpt lat="42.05640306735464" lon="13.6040635857795"><ele>737.0</ele><time>2026-05-02T12:33:39Z</time></trkpt><trkpt lat="42.05645169034863" lon="13.603975854982945"><ele>737.0</ele><time>2026-05-02T12:33:40Z</time></trkpt><trkpt lat="42.056502053638404" lon="13.60386077771704"><ele>737.0</ele><time>2026-05-02T12:33:41Z</time></trkpt><trkpt lat="42.05658695179371" lon="13.603746414975774"><ele>737.0</ele><time>2026-05-02T12:33:42Z</time></trkpt><trkpt lat="42.05665396976469" lon="13.603612724578621"><ele>737.0</ele><time>2026-05-02T12:33:43Z</time></trkpt><trkpt lat="42.0567272826479" lon="13.60347611670304"><ele>737.0</ele><time>2026-05-02T12:33:44Z</time></trkpt><trkpt lat="42.05681132815204" lon="13.603335899215121"><ele>737.4000000000001</ele><time>2026-05-02T12:33:45Z</time></trkpt><trkpt lat="42.05688373413889" lon="13.603205611293822"><ele>737.8000000000001</ele><time>2026-05-02T12:33:46Z</time></trkpt><trkpt lat="42.05694748738244" lon="13.603087559800635"><ele>738.2</ele><time>2026-05-02T12:33:47Z</time></trkpt><trkpt lat="42.05699447041304" lon="13.602963541604435"><ele>738.6</ele><time>2026-05-02T12:33:48Z</time></trkpt><trkpt lat="42.05702261826405" lon="13.602835365994492"><ele>739.0</ele><time>2026-05-02T12:33:49Z</time></trkpt><trkpt lat="42.05704435588934" lon="13.602702344432906"><ele>737.75</ele><time>2026-05-02T12:33:50Z</time></trkpt><trkpt lat="42.05704050105156" lon="13.60256274774561"><ele>736.5</ele><time>2026-05-02T12:33:51Z</time></trkpt><trkpt lat="42.057028006870176" lon="13.602420155959459"><ele>735.25</ele><time>2026-05-02T12:33:52Z</time></trkpt><trkpt lat="42.05701093530143" lon="13.602249435456915"><ele>734.0</ele><time>2026-05-02T12:33:53Z</time></trkpt><trkpt lat="42.05699877046612" lon="13.602067597133109"><ele>733.3333333333333</ele><time>2026-05-02T12:33:54Z</time></trkpt><trkpt lat="42.056977128281616" lon="13.60187380303134"><ele>732.6666666666666</ele><time>2026-05-02T12:33:55Z</time></trkpt><trkpt lat="42.0569465133143" lon="13.601667180715555"><ele>732.0</ele><time>2026-05-02T12:33:56Z</time></trkpt><trkpt lat="42.0569249032699" lon="13.601458560673997"><ele>732.0</ele><time>2026-05-02T12:33:57Z</time></trkpt><trkpt lat="42.056904504919636" lon="13.601254776717237"><ele>732.0</ele><time>2026-05-02T12:33:58Z</time></trkpt><trkpt lat="42.05688303180919" lon="13.601055601407321"><ele>732.0</ele><time>2026-05-02T12:33:59Z</time></trkpt><trkpt lat="42.05686055325105" lon="13.60085545934338"><ele>731.5</ele><time>2026-05-02T12:34:00Z</time></trkpt><trkpt lat="42.05684039790861" lon="13.600651336872296"><ele>731.0</ele><time>2026-05-02T12:34:01Z</time></trkpt><trkpt lat="42.05681875025841" lon="13.600459431005767"><ele>730.5</ele><time>2026-05-02T12:34:02Z</time></trkpt><trkpt lat="42.05680219841558" lon="13.600269519378674"><ele>730.0</ele><time>2026-05-02T12:34:03Z</time></trkpt><trkpt lat="42.056784726643585" lon="13.600085163643364"><ele>729.75</ele><time>2026-05-02T12:34:04Z</time></trkpt><trkpt lat="42.05676170519327" lon="13.599912903768121"><ele>729.5</ele><time>2026-05-02T12:34:05Z</time></trkpt><trkpt lat="42.05673896812387" lon="13.599725849485216"><ele>729.25</ele><time>2026-05-02T12:34:06Z</time></trkpt><trkpt lat="42.05672156016474" lon="13.599529293630843"><ele>729.0</ele><time>2026-05-02T12:34:07Z</time></trkpt><trkpt lat="42.056695528613815" lon="13.599337068849668"><ele>728.0</ele><time>2026-05-02T12:34:08Z</time></trkpt><trkpt lat="42.056675052829334" lon="13.599139966799465"><ele>727.0</ele><time>2026-05-02T12:34:09Z</time></trkpt><trkpt lat="42.056654283728925" lon="13.598956945882017"><ele>726.0</ele><time>2026-05-02T12:34:10Z</time></trkpt><trkpt lat="42.05663421438223" lon="13.598783430839992"><ele>725.0</ele><time>2026-05-02T12:34:11Z</time></trkpt><trkpt lat="42.05661355013679" lon="13.598613233606427"><ele>724.5</ele><time>2026-05-02T12:34:12Z</time></trkpt><trkpt lat="42.05659688418347" lon="13.598433556948947"><ele>724.0</ele><time>2026-05-02T12:34:13Z</time></trkpt><trkpt lat="42.056577846320835" lon="13.598251987584511"><ele>723.5</ele><time>2026-05-02T12:34:14Z</time></trkpt><trkpt lat="42.056558181191434" lon="13.598068378812147"><ele>723.0</ele><time>2026-05-02T12:34:15Z</time></trkpt><trkpt lat="42.05653784247065" lon="13.597873211224389"><ele>722.5</ele><time>2026-05-02T12:34:16Z</time></trkpt><trkpt lat="42.05651882576709" lon="13.597681885996357"><ele>722.0</ele><time>2026-05-02T12:34:17Z</time></trkpt><trkpt lat="42.056497327230375" lon="13.597498410724384"><ele>721.5</ele><time>2026-05-02T12:34:18Z</time></trkpt><trkpt lat="42.056478944266026" lon="13.597324067663507"><ele>721.0</ele><time>2026-05-02T12:34:19Z</time></trkpt><trkpt lat="42.056460215626174" lon="13.597143774083724"><ele>720.75</ele><time>2026-05-02T12:34:20Z</time></trkpt><trkpt lat="42.05643743426408" lon="13.596976460250698"><ele>720.5</ele><time>2026-05-02T12:34:21Z</time></trkpt><trkpt lat="42.05642096618038" lon="13.596786928039364"><ele>720.25</ele><time>2026-05-02T12:34:22Z</time></trkpt><trkpt lat="42.05640233648471" lon="13.59660298767246"><ele>720.0</ele><time>2026-05-02T12:34:23Z</time></trkpt><trkpt lat="42.0563753708819" lon="13.59641311778271"><ele>720.0</ele><time>2026-05-02T12:34:24Z</time></trkpt><trkpt lat="42.05634151719317" lon="13.596201711309726"><ele>720.0</ele><time>2026-05-02T12:34:25Z</time></trkpt><trkpt lat="42.05632091622229" lon="13.595963810921475"><ele>720.0</ele><time>2026-05-02T12:34:26Z</time></trkpt><trkpt lat="42.05629338681654" lon="13.595708182259267"><ele>720.0</ele><time>2026-05-02T12:34:27Z</time></trkpt><trkpt lat="42.05626415675671" lon="13.595442418476782"><ele>720.0</ele><time>2026-05-02T12:34:28Z</time></trkpt><trkpt lat="42.056232197096584" lon="13.595160771803382"><ele>720.0</ele><time>2026-05-02T12:34:29Z</time></trkpt><trkpt lat="42.056204946160406" lon="13.594876183915664"><ele>720.0</ele><time>2026-05-02T12:34:30Z</time></trkpt><trkpt lat="42.0561799029604" lon="13.59459608241101"><ele>720.0</ele><time>2026-05-02T12:34:31Z</time></trkpt><trkpt lat="42.056155809168914" lon="13.594337947475807"><ele>720.0</ele><time>2026-05-02T12:34:32Z</time></trkpt><trkpt lat="42.05613863996706" lon="13.59410845918131"><ele>720.0</ele><time>2026-05-02T12:34:33Z</time></trkpt><trkpt lat="42.05612386678753" lon="13.59389901863772"><ele>720.0</ele><time>2026-05-02T12:34:34Z</time></trkpt><trkpt lat="42.05611356537281" lon="13.593703520382926"><ele>720.0</ele><time>2026-05-02T12:34:35Z</time></trkpt><trkpt lat="42.05610077477916" lon="13.593503854412544"><ele>719.6666666666666</ele><time>2026-05-02T12:34:36Z</time></trkpt><trkpt lat="42.05609234381115" lon="13.593300401379018"><ele>719.3333333333333</ele><time>2026-05-02T12:34:37Z</time></trkpt><trkpt lat="42.05609005569666" lon="13.59309874873459"><ele>719.0</ele><time>2026-05-02T12:34:38Z</time></trkpt><trkpt lat="42.056090283129464" lon="13.592890931044112"><ele>718.6666666666666</ele><time>2026-05-02T12:34:39Z</time></trkpt><trkpt lat="42.056093320199665" lon="13.59268574358377"><ele>718.3333333333334</ele><time>2026-05-02T12:34:40Z</time></trkpt><trkpt lat="42.05610056632117" lon="13.592473045316328"><ele>718.0</ele><time>2026-05-02T12:34:41Z</time></trkpt><trkpt lat="42.056115221776835" lon="13.592260548594727"><ele>718.0</ele><time>2026-05-02T12:34:42Z</time></trkpt><trkpt lat="42.05612937725233" lon="13.592053795536621"><ele>718.0</ele><time>2026-05-02T12:34:43Z</time></trkpt><trkpt lat="42.05614263607315" lon="13.591842428674907"><ele>718.0</ele><time>2026-05-02T12:34:44Z</time></trkpt><trkpt lat="42.056151190793265" lon="13.59165147784902"><ele>717.5</ele><time>2026-05-02T12:34:45Z</time></trkpt><trkpt lat="42.05616413629487" lon="13.591461747674318"><ele>717.0</ele><time>2026-05-02T12:34:46Z</time></trkpt><trkpt lat="42.056174253325075" lon="13.591282746180918"><ele>716.5</ele><time>2026-05-02T12:34:47Z</time></trkpt><trkpt lat="42.05617903964532" lon="13.591080348789497"><ele>716.0</ele><time>2026-05-02T12:34:48Z</time></trkpt><trkpt lat="42.056190212240466" lon="13.590838802764138"><ele>716.0</ele><time>2026-05-02T12:34:49Z</time></trkpt><trkpt lat="42.05619922205145" lon="13.590571269376385"><ele>716.0</ele><time>2026-05-02T12:34:50Z</time></trkpt><trkpt lat="42.05621906640382" lon="13.590269366679422"><ele>716.0</ele><time>2026-05-02T12:34:51Z</time></trkpt><trkpt lat="42.05625177177398" lon="13.58996640833293"><ele>715.0</ele><time>2026-05-02T12:34:52Z</time></trkpt><trkpt lat="42.05627990829836" lon="13.589667399124162"><ele>714.0</ele><time>2026-05-02T12:34:53Z</time></trkpt><trkpt lat="42.05629382897754" lon="13.5893599696012"><ele>714.0</ele><time>2026-05-02T12:34:54Z</time></trkpt><trkpt lat="42.056312418621985" lon="13.589036902829559"><ele>714.0</ele><time>2026-05-02T12:34:55Z</time></trkpt><trkpt lat="42.05633043364126" lon="13.588709171965634"><ele>713.0</ele><time>2026-05-02T12:34:56Z</time></trkpt><trkpt lat="42.05634996422363" lon="13.588381917278351"><ele>712.0</ele><time>2026-05-02T12:34:57Z</time></trkpt><trkpt lat="42.05636616030112" lon="13.588055980541963"><ele>711.0</ele><time>2026-05-02T12:34:58Z</time></trkpt><trkpt lat="42.05638640799508" lon="13.58772077599299"><ele>710.0</ele><time>2026-05-02T12:34:59Z</time></trkpt><trkpt lat="42.05640620187419" lon="13.587391001969504"><ele>710.0</ele><time>2026-05-02T12:35:00Z</time></trkpt><trkpt lat="42.056428580102185" lon="13.587055366184757"><ele>710.0</ele><time>2026-05-02T12:35:01Z</time></trkpt><trkpt lat="42.05644600465171" lon="13.58672326384634"><ele>708.5</ele><time>2026-05-02T12:35:02Z</time></trkpt><trkpt lat="42.0564625005795" lon="13.586405695897156"><ele>707.0</ele><time>2026-05-02T12:35:03Z</time></trkpt><trkpt lat="42.05647839948418" lon="13.586099463549795"><ele>706.0</ele><time>2026-05-02T12:35:04Z</time></trkpt><trkpt lat="42.05649699321128" lon="13.585801045836156"><ele>705.0</ele><time>2026-05-02T12:35:05Z</time></trkpt><trkpt lat="42.05651894853936" lon="13.585513275788074"><ele>704.0</ele><time>2026-05-02T12:35:06Z</time></trkpt><trkpt lat="42.056535474873435" lon="13.585237346706405"><ele>703.3333333333333</ele><time>2026-05-02T12:35:07Z</time></trkpt><trkpt lat="42.05655354144079" lon="13.584968443343971"><ele>702.6666666666666</ele><time>2026-05-02T12:35:08Z</time></trkpt><trkpt lat="42.05656792866313" lon="13.584704938466624"><ele>702.0</ele><time>2026-05-02T12:35:09Z</time></trkpt><trkpt lat="42.056564147146986" lon="13.584455952870618"><ele>700.6666666666666</ele><time>2026-05-02T12:35:10Z</time></trkpt><trkpt lat="42.05653821628272" lon="13.584220463569373"><ele>699.3333333333333</ele><time>2026-05-02T12:35:11Z</time></trkpt><trkpt lat="42.056488288543946" lon="13.583998108168602"><ele>698.0</ele><time>2026-05-02T12:35:12Z</time></trkpt><trkpt lat="42.0564197490428" lon="13.583771582701914"><ele>697.3333333333333</ele><time>2026-05-02T12:35:13Z</time></trkpt><trkpt lat="42.05633479021839" lon="13.583542072254321"><ele>696.6666666666666</ele><time>2026-05-02T12:35:14Z</time></trkpt><trkpt lat="42.0562601994736" lon="13.583281233433487"><ele>696.0</ele><time>2026-05-02T12:35:15Z</time></trkpt><trkpt lat="42.05617751657724" lon="13.58302318752465"><ele>695.6666666666666</ele><time>2026-05-02T12:35:16Z</time></trkpt><trkpt lat="42.056104303729605" lon="13.582765009858893"><ele>695.3333333333333</ele><time>2026-05-02T12:35:17Z</time></trkpt><trkpt lat="42.056065599558295" lon="13.58250165448091"><ele>695.0</ele><time>2026-05-02T12:35:18Z</time></trkpt><trkpt lat="42.05605411832784" lon="13.582248927317695"><ele>695.0</ele><time>2026-05-02T12:35:19Z</time></trkpt><trkpt lat="42.056063019146755" lon="13.58203207394838"><ele>695.0</ele><time>2026-05-02T12:35:20Z</time></trkpt><trkpt lat="42.056082828933654" lon="13.581852834729405"><ele>695.0</ele><time>2026-05-02T12:35:21Z</time></trkpt><trkpt lat="42.056127306310465" lon="13.581680344744061"><ele>695.0</ele><time>2026-05-02T12:35:22Z</time></trkpt><trkpt lat="42.05620951255788" lon="13.581535383180679"><ele>694.25</ele><time>2026-05-02T12:35:23Z</time></trkpt><trkpt lat="42.056296082638525" lon="13.581393395853391"><ele>693.5</ele><time>2026-05-02T12:35:24Z</time></trkpt><trkpt lat="42.05633327617344" lon="13.581219693093619"><ele>692.75</ele><time>2026-05-02T12:35:25Z</time></trkpt><trkpt lat="42.0563362162488" lon="13.581023118528195"><ele>692.0</ele><time>2026-05-02T12:35:26Z</time></trkpt><trkpt lat="42.056342418252015" lon="13.580818796749515"><ele>691.6666666666666</ele><time>2026-05-02T12:35:27Z</time></trkpt><trkpt lat="42.05640596816834" lon="13.580615122922412"><ele>691.3333333333334</ele><time>2026-05-02T12:35:28Z</time></trkpt><trkpt lat="42.05651964316113" lon="13.580396481325213"><ele>691.0</ele><time>2026-05-02T12:35:29Z</time></trkpt><trkpt lat="42.056642587765374" lon="13.580162701350154"><ele>691.0</ele><time>2026-05-02T12:35:30Z</time></trkpt><trkpt lat="42.05674695134814" lon="13.579921740854687"><ele>691.0</ele><time>2026-05-02T12:35:31Z</time></trkpt><trkpt lat="42.05683038608108" lon="13.579657241687556"><ele>691.0</ele><time>2026-05-02T12:35:32Z</time></trkpt><trkpt lat="42.05688308521439" lon="13.579368911630434"><ele>690.3333333333334</ele><time>2026-05-02T12:35:33Z</time></trkpt><trkpt lat="42.056917596698405" lon="13.579075923555743"><ele>689.6666666666666</ele><time>2026-05-02T12:35:34Z</time></trkpt><trkpt lat="42.05693859977171" lon="13.57877643090066"><ele>689.0</ele><time>2026-05-02T12:35:35Z</time></trkpt><trkpt lat="42.056952594466246" lon="13.578481655338487"><ele>688.3333333333333</ele><time>2026-05-02T12:35:36Z</time></trkpt><trkpt lat="42.05697069689855" lon="13.578204385005334"><ele>687.6666666666666</ele><time>2026-05-02T12:35:37Z</time></trkpt><trkpt lat="42.05698543094556" lon="13.577933257152463"><ele>687.0</ele><time>2026-05-02T12:35:38Z</time></trkpt><trkpt lat="42.05699861054629" lon="13.577657709854591"><ele>687.0</ele><time>2026-05-02T12:35:39Z</time></trkpt><trkpt lat="42.05701291671181" lon="13.577381655712701"><ele>687.0</ele><time>2026-05-02T12:35:40Z</time></trkpt><trkpt lat="42.057023239464804" lon="13.577101240662596"><ele>687.0</ele><time>2026-05-02T12:35:41Z</time></trkpt><trkpt lat="42.05703289033761" lon="13.576817844733768"><ele>687.0</ele><time>2026-05-02T12:35:42Z</time></trkpt><trkpt lat="42.05704262134484" lon="13.576522397882561"><ele>687.0</ele><time>2026-05-02T12:35:43Z</time></trkpt><trkpt lat="42.05705544559883" lon="13.576229103100719"><ele>687.0</ele><time>2026-05-02T12:35:44Z</time></trkpt><trkpt lat="42.05707242665459" lon="13.575936509807887"><ele>687.0</ele><time>2026-05-02T12:35:45Z</time></trkpt><trkpt lat="42.0571002527355" lon="13.575640397084735"><ele>687.0</ele><time>2026-05-02T12:35:46Z</time></trkpt><trkpt lat="42.05712496991068" lon="13.575341455720652"><ele>687.0</ele><time>2026-05-02T12:35:47Z</time></trkpt><trkpt lat="42.057147552654754" lon="13.575038021297763"><ele>687.0</ele><time>2026-05-02T12:35:48Z</time></trkpt><trkpt lat="42.057163645348034" lon="13.574729469339678"><ele>687.0</ele><time>2026-05-02T12:35:49Z</time></trkpt><trkpt lat="42.057180336187045" lon="13.574418451952296"><ele>687.5</ele><time>2026-05-02T12:35:50Z</time></trkpt><trkpt lat="42.05719741201084" lon="13.5741066507647"><ele>688.0</ele><time>2026-05-02T12:35:51Z</time></trkpt><trkpt lat="42.05721500408613" lon="13.573794793252302"><ele>687.5</ele><time>2026-05-02T12:35:52Z</time></trkpt><trkpt lat="42.057235388706694" lon="13.573484603147365"><ele>687.0</ele><time>2026-05-02T12:35:53Z</time></trkpt><trkpt lat="42.05725462801541" lon="13.573177166291337"><ele>687.0</ele><time>2026-05-02T12:35:54Z</time></trkpt><trkpt lat="42.05726988121139" lon="13.572868487325334"><ele>687.0</ele><time>2026-05-02T12:35:55Z</time></trkpt><trkpt lat="42.05729176320527" lon="13.572557854058445"><ele>685.0</ele><time>2026-05-02T12:35:56Z</time></trkpt><trkpt lat="42.057309244066815" lon="13.572252050026437"><ele>683.0</ele><time>2026-05-02T12:35:57Z</time></trkpt><trkpt lat="42.0573297932316" lon="13.57194394325449"><ele>682.5</ele><time>2026-05-02T12:35:58Z</time></trkpt><trkpt lat="42.0573478956647" lon="13.571638189469468"><ele>682.0</ele><time>2026-05-02T12:35:59Z</time></trkpt><trkpt lat="42.05736480483071" lon="13.571331431566415"><ele>683.0</ele><time>2026-05-02T12:36:00Z</time></trkpt><trkpt lat="42.05738225090266" lon="13.571023150643118"><ele>684.0</ele><time>2026-05-02T12:36:01Z</time></trkpt><trkpt lat="42.05739916673008" lon="13.570715456092197"><ele>684.0</ele><time>2026-05-02T12:36:02Z</time></trkpt><trkpt lat="42.05741400141393" lon="13.570418585485374"><ele>684.0</ele><time>2026-05-02T12:36:03Z</time></trkpt><trkpt lat="42.057430807244394" lon="13.570123640190833"><ele>684.0</ele><time>2026-05-02T12:36:04Z</time></trkpt><trkpt lat="42.05744717418593" lon="13.56984089622466"><ele>684.3333333333334</ele><time>2026-05-02T12:36:05Z</time></trkpt><trkpt lat="42.0574614111668" lon="13.56957112172555"><ele>684.6666666666667</ele><time>2026-05-02T12:36:06Z</time></trkpt><trkpt lat="42.05747947003686" lon="13.569321612336172"><ele>685.0</ele><time>2026-05-02T12:36:07Z</time></trkpt><trkpt lat="42.05749915901308" lon="13.569084423682888"><ele>686.0</ele><time>2026-05-02T12:36:08Z</time></trkpt><trkpt lat="42.05751625673084" lon="13.568863618236906"><ele>687.0</ele><time>2026-05-02T12:36:09Z</time></trkpt><trkpt lat="42.05753014343668" lon="13.568652664377906"><ele>688.0</ele><time>2026-05-02T12:36:10Z</time></trkpt><trkpt lat="42.05754312427339" lon="13.568453927832302"><ele>688.0</ele><time>2026-05-02T12:36:11Z</time></trkpt><trkpt lat="42.05755477591021" lon="13.568271567050694"><ele>688.0</ele><time>2026-05-02T12:36:12Z</time></trkpt><trkpt lat="42.05756316521879" lon="13.568097426536992"><ele>688.0</ele><time>2026-05-02T12:36:13Z</time></trkpt><trkpt lat="42.0575734730457" lon="13.567936778787473"><ele>688.0</ele><time>2026-05-02T12:36:14Z</time></trkpt><trkpt lat="42.057587639328595" lon="13.567785021496281"><ele>688.2</ele><time>2026-05-02T12:36:15Z</time></trkpt><trkpt lat="42.05761463758567" lon="13.567642269634215"><ele>688.4</ele><time>2026-05-02T12:36:16Z</time></trkpt><trkpt lat="42.057644951172364" lon="13.567512991012032"><ele>688.6</ele><time>2026-05-02T12:36:17Z</time></trkpt><trkpt lat="42.05768972445087" lon="13.56739931881257"><ele>688.8000000000001</ele><time>2026-05-02T12:36:18Z</time></trkpt><trkpt lat="42.057743625125305" lon="13.567303648493189"><ele>689.0</ele><time>2026-05-02T12:36:19Z</time></trkpt><trkpt lat="42.05779734968311" lon="13.567225595465999"><ele>689.0</ele><time>2026-05-02T12:36:20Z</time></trkpt><trkpt lat="42.057820226080786" lon="13.567129104315296"><ele>689.0</ele><time>2026-05-02T12:36:21Z</time></trkpt><trkpt lat="42.05780920632716" lon="13.567017936535443"><ele>689.0</ele><time>2026-05-02T12:36:22Z</time></trkpt><trkpt lat="42.05776165364377" lon="13.566913766161642"><ele>689.0</ele><time>2026-05-02T12:36:23Z</time></trkpt><trkpt lat="42.0577031586943" lon="13.566808055647877"><ele>689.0</ele><time>2026-05-02T12:36:24Z</time></trkpt><trkpt lat="42.05766959510294" lon="13.566669217439559"><ele>689.0</ele><time>2026-05-02T12:36:25Z</time></trkpt><trkpt lat="42.05766454336953" lon="13.566510892960313"><ele>689.0</ele><time>2026-05-02T12:36:26Z</time></trkpt><trkpt lat="42.05767413811597" lon="13.566344021900788"><ele>689.0</ele><time>2026-05-02T12:36:27Z</time></trkpt><trkpt lat="42.057687365784126" lon="13.566161223173618"><ele>689.0</ele><time>2026-05-02T12:36:28Z</time></trkpt><trkpt lat="42.05770132006403" lon="13.56596177093758"><ele>689.0</ele><time>2026-05-02T12:36:29.001Z</time></trkpt><trkpt lat="42.05771640717762" lon="13.565736345446494"><ele>689.0</ele><time>2026-05-02T12:36:30.001Z</time></trkpt><trkpt lat="42.05772283762178" lon="13.565509303440823"><ele>689.0</ele><time>2026-05-02T12:36:31.001Z</time></trkpt><trkpt lat="42.05773125363537" lon="13.565272040268901"><ele>689.3333333333333</ele><time>2026-05-02T12:36:32.001Z</time></trkpt><trkpt lat="42.05773953030479" lon="13.565026965474013"><ele>689.6666666666666</ele><time>2026-05-02T12:36:33.001Z</time></trkpt><trkpt lat="42.05775167223056" lon="13.564774163312922"><ele>690.0</ele><time>2026-05-02T12:36:34.001Z</time></trkpt><trkpt lat="42.057756640767145" lon="13.564506488082873"><ele>690.6666666666666</ele><time>2026-05-02T12:36:35.001Z</time></trkpt><trkpt lat="42.0577622791287" lon="13.564221918634416"><ele>691.3333333333333</ele><time>2026-05-02T12:36:36.001Z</time></trkpt><trkpt lat="42.057771729979194" lon="13.56393794658155"><ele>692.0</ele><time>2026-05-02T12:36:37.001Z</time></trkpt><trkpt lat="42.05778820692661" lon="13.56364946733269"><ele>692.0</ele><time>2026-05-02T12:36:38.001Z</time></trkpt><trkpt lat="42.05780986540965" lon="13.563358578092219"><ele>692.0</ele><time>2026-05-02T12:36:39.001Z</time></trkpt><trkpt lat="42.05783527492432" lon="13.563072985525226"><ele>692.0</ele><time>2026-05-02T12:36:40.001Z</time></trkpt><trkpt lat="42.05785376719535" lon="13.562807290553224"><ele>692.3333333333333</ele><time>2026-05-02T12:36:41.001Z</time></trkpt><trkpt lat="42.057864737166575" lon="13.562566466253097"><ele>692.6666666666666</ele><time>2026-05-02T12:36:42.001Z</time></trkpt><trkpt lat="42.057880176851654" lon="13.562338526044858"><ele>693.0</ele><time>2026-05-02T12:36:43Z</time></trkpt><trkpt lat="42.05789915869214" lon="13.562123302226047"><ele>693.25</ele><time>2026-05-02T12:36:44Z</time></trkpt><trkpt lat="42.057910788300795" lon="13.561909583116403"><ele>693.5</ele><time>2026-05-02T12:36:45Z</time></trkpt><trkpt lat="42.05791968248294" lon="13.561709100756502"><ele>693.75</ele><time>2026-05-02T12:36:46Z</time></trkpt><trkpt lat="42.05792986773612" lon="13.56152545193761"><ele>694.0</ele><time>2026-05-02T12:36:47Z</time></trkpt><trkpt lat="42.057941061677404" lon="13.561339828483359"><ele>693.75</ele><time>2026-05-02T12:36:48Z</time></trkpt><trkpt lat="42.057954189976456" lon="13.561161367603795"><ele>693.5</ele><time>2026-05-02T12:36:49Z</time></trkpt><trkpt lat="42.057964910082795" lon="13.560988377342273"><ele>693.25</ele><time>2026-05-02T12:36:50Z</time></trkpt><trkpt lat="42.05797978941479" lon="13.560822146918568"><ele>693.0</ele><time>2026-05-02T12:36:51Z</time></trkpt><trkpt lat="42.05799347527136" lon="13.560670223923372"><ele>693.0</ele><time>2026-05-02T12:36:52Z</time></trkpt><trkpt lat="42.05800544975512" lon="13.560518359297259"><ele>693.0</ele><time>2026-05-02T12:36:53Z</time></trkpt><trkpt lat="42.05801494834285" lon="13.560367126899953"><ele>693.0</ele><time>2026-05-02T12:36:54Z</time></trkpt><trkpt lat="42.05802720525105" lon="13.560216852223624"><ele>693.0</ele><time>2026-05-02T12:36:55Z</time></trkpt><trkpt lat="42.05805652768631" lon="13.560061157434752"><ele>693.0</ele><time>2026-05-02T12:36:56Z</time></trkpt><trkpt lat="42.058093405961664" lon="13.559907976569384"><ele>693.0</ele><time>2026-05-02T12:36:57Z</time></trkpt><trkpt lat="42.05813359172744" lon="13.559762390673248"><ele>693.0</ele><time>2026-05-02T12:36:58Z</time></trkpt><trkpt lat="42.058184996930656" lon="13.559630551329018"><ele>693.0</ele><time>2026-05-02T12:36:59Z</time></trkpt><trkpt lat="42.05827379178319" lon="13.559539333321275"><ele>693.0</ele><time>2026-05-02T12:37:00Z</time></trkpt><trkpt lat="42.05836184616061" lon="13.559477293835766"><ele>693.0</ele><time>2026-05-02T12:37:01Z</time></trkpt><trkpt lat="42.05842839478742" lon="13.559398315085945"><ele>693.0</ele><time>2026-05-02T12:37:02Z</time></trkpt><trkpt lat="42.05846170468983" lon="13.55928632534533"><ele>693.0</ele><time>2026-05-02T12:37:03Z</time></trkpt><trkpt lat="42.05846376767962" lon="13.559167213876197"><ele>693.0</ele><time>2026-05-02T12:37:04Z</time></trkpt><trkpt lat="42.05843846263036" lon="13.559059692565102"><ele>693.0</ele><time>2026-05-02T12:37:05Z</time></trkpt><trkpt lat="42.05839178878712" lon="13.558968796792378"><ele>693.0</ele><time>2026-05-02T12:37:06Z</time></trkpt><trkpt lat="42.05831791830307" lon="13.558894691507144"><ele>693.0</ele><time>2026-05-02T12:37:07Z</time></trkpt><trkpt lat="42.05824464935133" lon="13.558809949526921"><ele>693.0</ele><time>2026-05-02T12:37:08Z</time></trkpt><trkpt lat="42.058200347088366" lon="13.558667669867114"><ele>693.0</ele><time>2026-05-02T12:37:09Z</time></trkpt><trkpt lat="42.05818543320165" lon="13.558505674587185"><ele>693.25</ele><time>2026-05-02T12:37:10Z</time></trkpt><trkpt lat="42.05817126764437" lon="13.558334091911293"><ele>693.5</ele><time>2026-05-02T12:37:11Z</time></trkpt><trkpt lat="42.05815693767759" lon="13.558153429720576"><ele>693.75</ele><time>2026-05-02T12:37:12Z</time></trkpt><trkpt lat="42.05814756124052" lon="13.557950381926492"><ele>694.0</ele><time>2026-05-02T12:37:13Z</time></trkpt><trkpt lat="42.058149086801734" lon="13.55773315544225"><ele>694.3333333333334</ele><time>2026-05-02T12:37:14Z</time></trkpt><trkpt lat="42.05815778855329" lon="13.557504340358925"><ele>694.6666666666666</ele><time>2026-05-02T12:37:15Z</time></trkpt><trkpt lat="42.05817183472974" lon="13.55726746614411"><ele>695.0</ele><time>2026-05-02T12:37:16Z</time></trkpt><trkpt lat="42.058187639965055" lon="13.557028188181919"><ele>695.3333333333333</ele><time>2026-05-02T12:37:17Z</time></trkpt><trkpt lat="42.05820361157021" lon="13.556780264068305"><ele>695.6666666666666</ele><time>2026-05-02T12:37:18Z</time></trkpt><trkpt lat="42.05822019905508" lon="13.556533688849429"><ele>696.0</ele><time>2026-05-02T12:37:19Z</time></trkpt><trkpt lat="42.05823748687319" lon="13.556286684224107"><ele>696.0</ele><time>2026-05-02T12:37:20Z</time></trkpt><trkpt lat="42.05825541738401" lon="13.55605138825684"><ele>696.0</ele><time>2026-05-02T12:37:21Z</time></trkpt><trkpt lat="42.05827379943276" lon="13.555831405456757"><ele>696.0</ele><time>2026-05-02T12:37:22Z</time></trkpt><trkpt lat="42.05829268560318" lon="13.555593948923976"><ele>696.6666666666666</ele><time>2026-05-02T12:37:23Z</time></trkpt><trkpt lat="42.05832071173769" lon="13.555321934456448"><ele>697.3333333333333</ele><time>2026-05-02T12:37:24Z</time></trkpt><trkpt lat="42.05836248721306" lon="13.555039288040657"><ele>698.0</ele><time>2026-05-02T12:37:25Z</time></trkpt><trkpt lat="42.05840236956924" lon="13.554742344938546"><ele>698.3333333333333</ele><time>2026-05-02T12:37:26Z</time></trkpt><trkpt lat="42.05844372666968" lon="13.55444560959876"><ele>698.6666666666666</ele><time>2026-05-02T12:37:27Z</time></trkpt><trkpt lat="42.05848976837376" lon="13.554149942482853"><ele>699.0</ele><time>2026-05-02T12:37:28Z</time></trkpt><trkpt lat="42.05853244301209" lon="13.553860310901948"><ele>697.6666666666666</ele><time>2026-05-02T12:37:29Z</time></trkpt><trkpt lat="42.05857635826217" lon="13.553579013587182"><ele>696.3333333333333</ele><time>2026-05-02T12:37:30Z</time></trkpt><trkpt lat="42.05862331320646" lon="13.553304389822696"><ele>695.0</ele><time>2026-05-02T12:37:31Z</time></trkpt><trkpt lat="42.058664411766294" lon="13.55304362947431"><ele>694.3333333333333</ele><time>2026-05-02T12:37:32Z</time></trkpt><trkpt lat="42.058708925039895" lon="13.552779955080291"><ele>693.6666666666666</ele><time>2026-05-02T12:37:33Z</time></trkpt><trkpt lat="42.05875432392258" lon="13.552518825267658"><ele>693.0</ele><time>2026-05-02T12:37:34Z</time></trkpt><trkpt lat="42.05879735970312" lon="13.55226925621667"><ele>692.6666666666666</ele><time>2026-05-02T12:37:35Z</time></trkpt><trkpt lat="42.058837367009104" lon="13.552032362217412"><ele>692.3333333333333</ele><time>2026-05-02T12:37:36Z</time></trkpt><trkpt lat="42.05887101588171" lon="13.55179171917405"><ele>692.0</ele><time>2026-05-02T12:37:37Z</time></trkpt><trkpt lat="42.05890481734887" lon="13.551545392267679"><ele>692.0</ele><time>2026-05-02T12:37:38Z</time></trkpt><trkpt lat="42.05894623564607" lon="13.551290971160899"><ele>692.0</ele><time>2026-05-02T12:37:39Z</time></trkpt><trkpt lat="42.0589850164334" lon="13.551035310472272"><ele>692.0</ele><time>2026-05-02T12:37:40Z</time></trkpt><trkpt lat="42.05903076144446" lon="13.550773803277751"><ele>693.0</ele><time>2026-05-02T12:37:41Z</time></trkpt><trkpt lat="42.0590781336813" lon="13.55050733166649"><ele>694.0</ele><time>2026-05-02T12:37:42Z</time></trkpt><trkpt lat="42.05912463765119" lon="13.550250749193742"><ele>695.0</ele><time>2026-05-02T12:37:43Z</time></trkpt><trkpt lat="42.05916454871902" lon="13.550013815693202"><ele>695.6666666666666</ele><time>2026-05-02T12:37:44Z</time></trkpt><trkpt lat="42.05920363912952" lon="13.549781955200542"><ele>696.3333333333334</ele><time>2026-05-02T12:37:45Z</time></trkpt><trkpt lat="42.05924177266204" lon="13.54954631660771"><ele>697.0</ele><time>2026-05-02T12:37:46Z</time></trkpt><trkpt lat="42.059278232996675" lon="13.54931185667792"><ele>697.0</ele><time>2026-05-02T12:37:47Z</time></trkpt><trkpt lat="42.05931498749854" lon="13.54907579600084"><ele>697.0</ele><time>2026-05-02T12:37:48Z</time></trkpt><trkpt lat="42.05935426824516" lon="13.548854496262301"><ele>697.0</ele><time>2026-05-02T12:37:49Z</time></trkpt><trkpt lat="42.05939394231772" lon="13.548630905284748"><ele>696.3333333333334</ele><time>2026-05-02T12:37:50Z</time></trkpt><trkpt lat="42.05942799353872" lon="13.548404516649676"><ele>695.6666666666666</ele><time>2026-05-02T12:37:51Z</time></trkpt><trkpt lat="42.059466365803715" lon="13.548175858790763"><ele>695.0</ele><time>2026-05-02T12:37:52Z</time></trkpt><trkpt lat="42.05949973750574" lon="13.547946436904942"><ele>695.3333333333333</ele><time>2026-05-02T12:37:53Z</time></trkpt><trkpt lat="42.05953732282518" lon="13.547713020113962"><ele>695.6666666666666</ele><time>2026-05-02T12:37:54Z</time></trkpt><trkpt lat="42.05957628695333" lon="13.547477642304298"><ele>696.0</ele><time>2026-05-02T12:37:55Z</time></trkpt><trkpt lat="42.059617042563694" lon="13.547237259732563"><ele>695.6666666666666</ele><time>2026-05-02T12:37:56Z</time></trkpt><trkpt lat="42.05965479858988" lon="13.546998202745925"><ele>695.3333333333333</ele><time>2026-05-02T12:37:57Z</time></trkpt><trkpt lat="42.05969856350246" lon="13.54675058580198"><ele>695.0</ele><time>2026-05-02T12:37:58Z</time></trkpt><trkpt lat="42.05973865066198" lon="13.546510227723655"><ele>695.0</ele><time>2026-05-02T12:37:59Z</time></trkpt><trkpt lat="42.059775635235574" lon="13.546284182561102"><ele>695.0</ele><time>2026-05-02T12:38:00Z</time></trkpt><trkpt lat="42.059808362327175" lon="13.546074777351684"><ele>695.0</ele><time>2026-05-02T12:38:01Z</time></trkpt><trkpt lat="42.05984308794751" lon="13.54586690905706"><ele>695.0</ele><time>2026-05-02T12:38:02Z</time></trkpt><trkpt lat="42.059872581781946" lon="13.54569103153517"><ele>695.0</ele><time>2026-05-02T12:38:03Z</time></trkpt><trkpt lat="42.05990189735158" lon="13.545537228840658"><ele>695.0</ele><time>2026-05-02T12:38:04Z</time></trkpt><trkpt lat="42.059924087745514" lon="13.54540858092482"><ele>695.0</ele><time>2026-05-02T12:38:05Z</time></trkpt><trkpt lat="42.05994500808861" lon="13.545303971788934"><ele>695.0</ele><time>2026-05-02T12:38:06Z</time></trkpt><trkpt lat="42.05996066088889" lon="13.545218160800832"><ele>695.0</ele><time>2026-05-02T12:38:07Z</time></trkpt><trkpt lat="42.059988007006545" lon="13.545059014650134"><ele>695.0</ele><time>2026-05-02T12:38:09Z</time></trkpt><trkpt lat="42.060013805681365" lon="13.544926027558752"><ele>695.0</ele><time>2026-05-02T12:38:11Z</time></trkpt><trkpt lat="42.060029848103994" lon="13.544819905500301"><ele>695.0</ele><time>2026-05-02T12:38:13Z</time></trkpt><trkpt lat="42.06004688363927" lon="13.544712758588066"><ele>695.0</ele><time>2026-05-02T12:38:15Z</time></trkpt><trkpt lat="42.060073867370164" lon="13.544578749223275"><ele>695.25</ele><time>2026-05-02T12:38:17Z</time></trkpt><trkpt lat="42.06009390648353" lon="13.544456323533433"><ele>695.5</ele><time>2026-05-02T12:38:18Z</time></trkpt><trkpt lat="42.06011958894004" lon="13.54427543541825"><ele>695.75</ele><time>2026-05-02T12:38:19Z</time></trkpt><trkpt lat="42.060141536090526" lon="13.544030766680118"><ele>696.0</ele><time>2026-05-02T12:38:20Z</time></trkpt><trkpt lat="42.06018406087871" lon="13.543768356974134"><ele>696.5</ele><time>2026-05-02T12:38:21Z</time></trkpt><trkpt lat="42.0602375889124" lon="13.543478651086202"><ele>697.0</ele><time>2026-05-02T12:38:22Z</time></trkpt><trkpt lat="42.06028414391681" lon="13.543158797859169"><ele>696.5</ele><time>2026-05-02T12:38:23Z</time></trkpt><trkpt lat="42.06033415873207" lon="13.54282624303996"><ele>696.0</ele><time>2026-05-02T12:38:24Z</time></trkpt><trkpt lat="42.06038536293534" lon="13.542500047982347"><ele>696.0</ele><time>2026-05-02T12:38:25Z</time></trkpt><trkpt lat="42.060437381439264" lon="13.542181490167096"><ele>696.0</ele><time>2026-05-02T12:38:26Z</time></trkpt><trkpt lat="42.06048716605144" lon="13.541865114551491"><ele>696.0</ele><time>2026-05-02T12:38:27Z</time></trkpt><trkpt lat="42.060538448475775" lon="13.541548553952069"><ele>696.0</ele><time>2026-05-02T12:38:28Z</time></trkpt><trkpt lat="42.060589182651924" lon="13.54123245861607"><ele>695.0</ele><time>2026-05-02T12:38:29Z</time></trkpt><trkpt lat="42.06064137737675" lon="13.5409215795435"><ele>694.0</ele><time>2026-05-02T12:38:30Z</time></trkpt><trkpt lat="42.060692850660146" lon="13.540600295876873"><ele>693.5</ele><time>2026-05-02T12:38:31.001Z</time></trkpt><trkpt lat="42.060747960907015" lon="13.540288497080208"><ele>693.0</ele><time>2026-05-02T12:38:32.001Z</time></trkpt><trkpt lat="42.06079650068624" lon="13.539987962079396"><ele>694.0</ele><time>2026-05-02T12:38:33.001Z</time></trkpt><trkpt lat="42.06084528677291" lon="13.539682198647192"><ele>695.0</ele><time>2026-05-02T12:38:34.001Z</time></trkpt><trkpt lat="42.06089334842255" lon="13.539382151167755"><ele>695.0</ele><time>2026-05-02T12:38:35.001Z</time></trkpt><trkpt lat="42.06094396237817" lon="13.539080418792828"><ele>695.0</ele><time>2026-05-02T12:38:36.001Z</time></trkpt><trkpt lat="42.060995561190204" lon="13.538779689849699"><ele>694.5</ele><time>2026-05-02T12:38:37.001Z</time></trkpt><trkpt lat="42.06104483713754" lon="13.538476632958641"><ele>694.0</ele><time>2026-05-02T12:38:38.001Z</time></trkpt><trkpt lat="42.06108846934757" lon="13.538176285703289"><ele>693.5</ele><time>2026-05-02T12:38:39.001Z</time></trkpt><trkpt lat="42.06113400032007" lon="13.537875471464517"><ele>693.0</ele><time>2026-05-02T12:38:40.001Z</time></trkpt><trkpt lat="42.06118233480651" lon="13.537572494390611"><ele>693.0</ele><time>2026-05-02T12:38:41.001Z</time></trkpt><trkpt lat="42.06123181534137" lon="13.537263203600608"><ele>693.0</ele><time>2026-05-02T12:38:42.001Z</time></trkpt><trkpt lat="42.06127951187635" lon="13.536959751854475"><ele>691.5</ele><time>2026-05-02T12:38:43.001Z</time></trkpt><trkpt lat="42.061326622359445" lon="13.536652634145867"><ele>690.0</ele><time>2026-05-02T12:38:44.001Z</time></trkpt><trkpt lat="42.06137515098203" lon="13.536346270863424"><ele>689.0</ele><time>2026-05-02T12:38:45.001Z</time></trkpt><trkpt lat="42.06142904241229" lon="13.536022559396116"><ele>688.0</ele><time>2026-05-02T12:38:46.001Z</time></trkpt><trkpt lat="42.061480814325435" lon="13.535710059716305"><ele>688.0</ele><time>2026-05-02T12:38:47.001Z</time></trkpt><trkpt lat="42.06153286209809" lon="13.535395698216348"><ele>688.0</ele><time>2026-05-02T12:38:48.001Z</time></trkpt><trkpt lat="42.06158918005111" lon="13.535082550537677"><ele>688.0</ele><time>2026-05-02T12:38:49Z</time></trkpt><trkpt lat="42.06164182305488" lon="13.534768620905423"><ele>688.0</ele><time>2026-05-02T12:38:50Z</time></trkpt><trkpt lat="42.0616902894956" lon="13.53445423828346"><ele>688.0</ele><time>2026-05-02T12:38:51Z</time></trkpt><trkpt lat="42.0617432477076" lon="13.53414239163331"><ele>688.0</ele><time>2026-05-02T12:38:52Z</time></trkpt><trkpt lat="42.06179655875316" lon="13.53382384375359"><ele>687.0</ele><time>2026-05-02T12:38:53Z</time></trkpt><trkpt lat="42.06185397022545" lon="13.53350841636483"><ele>686.0</ele><time>2026-05-02T12:38:54Z</time></trkpt><trkpt lat="42.061904916318305" lon="13.533194409857703"><ele>686.0</ele><time>2026-05-02T12:38:55Z</time></trkpt><trkpt lat="42.06195985382968" lon="13.532880306572174"><ele>686.0</ele><time>2026-05-02T12:38:56Z</time></trkpt><trkpt lat="42.062006331250544" lon="13.532567942631493"><ele>686.0</ele><time>2026-05-02T12:38:57Z</time></trkpt><trkpt lat="42.06206174085863" lon="13.532255949981964"><ele>686.0</ele><time>2026-05-02T12:38:58Z</time></trkpt><trkpt lat="42.0621172924233" lon="13.531940003359782"><ele>685.5</ele><time>2026-05-02T12:38:59Z</time></trkpt><trkpt lat="42.06217147421293" lon="13.53162725817736"><ele>685.0</ele><time>2026-05-02T12:39:00Z</time></trkpt><trkpt lat="42.06222412768278" lon="13.5313116177473"><ele>684.0</ele><time>2026-05-02T12:39:01Z</time></trkpt><trkpt lat="42.0622706083728" lon="13.530997519008471"><ele>683.0</ele><time>2026-05-02T12:39:02Z</time></trkpt><trkpt lat="42.06232142192725" lon="13.530683301194799"><ele>682.5</ele><time>2026-05-02T12:39:03Z</time></trkpt><trkpt lat="42.06237394505311" lon="13.530363709059062"><ele>682.0</ele><time>2026-05-02T12:39:04Z</time></trkpt><trkpt lat="42.06242628614177" lon="13.530043051289345"><ele>682.5</ele><time>2026-05-02T12:39:05Z</time></trkpt><trkpt lat="42.06247677627822" lon="13.529724077949327"><ele>683.0</ele><time>2026-05-02T12:39:06Z</time></trkpt><trkpt lat="42.06252765984891" lon="13.529402351789237"><ele>683.0</ele><time>2026-05-02T12:39:07Z</time></trkpt><trkpt lat="42.06257963435528" lon="13.529078658520492"><ele>683.0</ele><time>2026-05-02T12:39:08Z</time></trkpt><trkpt lat="42.06263099569075" lon="13.528759479531816"><ele>683.0</ele><time>2026-05-02T12:39:09Z</time></trkpt><trkpt lat="42.06268374644" lon="13.528441373446999"><ele>683.0</ele><time>2026-05-02T12:39:10Z</time></trkpt><trkpt lat="42.06273797050107" lon="13.528122492912166"><ele>683.0</ele><time>2026-05-02T12:39:11Z</time></trkpt><trkpt lat="42.062788186794975" lon="13.52780179701113"><ele>683.0</ele><time>2026-05-02T12:39:12Z</time></trkpt><trkpt lat="42.06284016453403" lon="13.527484384443932"><ele>683.0</ele><time>2026-05-02T12:39:13Z</time></trkpt><trkpt lat="42.062892988163185" lon="13.5271686980833"><ele>683.0</ele><time>2026-05-02T12:39:14Z</time></trkpt><trkpt lat="42.06294318459121" lon="13.526853313212047"><ele>683.0</ele><time>2026-05-02T12:39:15Z</time></trkpt><trkpt lat="42.062991488688546" lon="13.526538048252814"><ele>683.0</ele><time>2026-05-02T12:39:16Z</time></trkpt><trkpt lat="42.063034196481915" lon="13.526221061368664"><ele>684.0</ele><time>2026-05-02T12:39:17Z</time></trkpt><trkpt lat="42.06307757622889" lon="13.525902396138719"><ele>685.0</ele><time>2026-05-02T12:39:18Z</time></trkpt><trkpt lat="42.06311001498812" lon="13.525577501177944"><ele>685.0</ele><time>2026-05-02T12:39:19Z</time></trkpt><trkpt lat="42.06312865231387" lon="13.525260023906576"><ele>685.0</ele><time>2026-05-02T12:39:20Z</time></trkpt><trkpt lat="42.06313567962643" lon="13.524942364164326"><ele>685.0</ele><time>2026-05-02T12:39:21Z</time></trkpt><trkpt lat="42.06313567700063" lon="13.524623965440101"><ele>685.0</ele><time>2026-05-02T12:39:22Z</time></trkpt><trkpt lat="42.06312996365924" lon="13.524302488455435"><ele>686.0</ele><time>2026-05-02T12:39:23Z</time></trkpt><trkpt lat="42.06311959621861" lon="13.52398379655639"><ele>687.0</ele><time>2026-05-02T12:39:24Z</time></trkpt><trkpt lat="42.0631237810121" lon="13.523677157635241"><ele>687.0</ele><time>2026-05-02T12:39:25Z</time></trkpt><trkpt lat="42.06311598301013" lon="13.523355745790376"><ele>687.0</ele><time>2026-05-02T12:39:26Z</time></trkpt><trkpt lat="42.06311014238998" lon="13.52304420033664"><ele>687.0</ele><time>2026-05-02T12:39:27Z</time></trkpt><trkpt lat="42.06311133130825" lon="13.522711359798235"><ele>687.0</ele><time>2026-05-02T12:39:28Z</time></trkpt><trkpt lat="42.06310877275238" lon="13.522389185062941"><ele>687.0</ele><time>2026-05-02T12:39:29Z</time></trkpt><trkpt lat="42.063102974579785" lon="13.522067441585897"><ele>687.0</ele><time>2026-05-02T12:39:30Z</time></trkpt><trkpt lat="42.06309453754092" lon="13.521753780408488"><ele>686.5</ele><time>2026-05-02T12:39:31Z</time></trkpt><trkpt lat="42.06309224916594" lon="13.521428298838964"><ele>686.0</ele><time>2026-05-02T12:39:32Z</time></trkpt><trkpt lat="42.063089558917014" lon="13.521106557553686"><ele>686.0</ele><time>2026-05-02T12:39:33Z</time></trkpt><trkpt lat="42.06308605801042" lon="13.520788606938648"><ele>686.0</ele><time>2026-05-02T12:39:34Z</time></trkpt><trkpt lat="42.0630801133321" lon="13.52049051232172"><ele>685.3333333333333</ele><time>2026-05-02T12:39:35Z</time></trkpt><trkpt lat="42.06307982749854" lon="13.520208258852461"><ele>684.6666666666666</ele><time>2026-05-02T12:39:36Z</time></trkpt><trkpt lat="42.06309112655909" lon="13.519932319865276"><ele>684.0</ele><time>2026-05-02T12:39:37Z</time></trkpt><trkpt lat="42.063104504197455" lon="13.519676245043037"><ele>684.0</ele><time>2026-05-02T12:39:38Z</time></trkpt><trkpt lat="42.06311515728834" lon="13.519428957714517"><ele>684.0</ele><time>2026-05-02T12:39:39Z</time></trkpt><trkpt lat="42.06313090319058" lon="13.519210273435556"><ele>684.0</ele><time>2026-05-02T12:39:40Z</time></trkpt><trkpt lat="42.06316286378103" lon="13.519036537653088"><ele>684.0</ele><time>2026-05-02T12:39:41Z</time></trkpt><trkpt lat="42.06317254188136" lon="13.518864385510778"><ele>684.0</ele><time>2026-05-02T12:39:42Z</time></trkpt><trkpt lat="42.063193277939284" lon="13.518700750994029"><ele>684.0</ele><time>2026-05-02T12:39:43Z</time></trkpt><trkpt lat="42.0632476693922" lon="13.518556263689279"><ele>684.0</ele><time>2026-05-02T12:39:44Z</time></trkpt><trkpt lat="42.06331234880974" lon="13.518428225514592"><ele>684.0</ele><time>2026-05-02T12:39:45Z</time></trkpt><trkpt lat="42.063336978524966" lon="13.518277700919187"><ele>684.0</ele><time>2026-05-02T12:39:46Z</time></trkpt><trkpt lat="42.063321966205876" lon="13.518127122444682"><ele>684.0</ele><time>2026-05-02T12:39:47Z</time></trkpt><trkpt lat="42.063260734892" lon="13.5179792572946"><ele>684.0</ele><time>2026-05-02T12:39:48Z</time></trkpt><trkpt lat="42.063186159375924" lon="13.517821079840907"><ele>684.0</ele><time>2026-05-02T12:39:49Z</time></trkpt><trkpt lat="42.063154020859386" lon="13.517611372940289"><ele>684.0</ele><time>2026-05-02T12:39:50Z</time></trkpt><trkpt lat="42.06312662358701" lon="13.517371919697517"><ele>684.0</ele><time>2026-05-02T12:39:51Z</time></trkpt><trkpt lat="42.06309408962995" lon="13.517116910071518"><ele>683.6666666666666</ele><time>2026-05-02T12:39:52Z</time></trkpt><trkpt lat="42.06307095150727" lon="13.516864987481748"><ele>683.3333333333333</ele><time>2026-05-02T12:39:53Z</time></trkpt><trkpt lat="42.06305003611539" lon="13.516593473237098"><ele>683.0</ele><time>2026-05-02T12:39:54Z</time></trkpt><trkpt lat="42.063033638209916" lon="13.51631754170808"><ele>683.5</ele><time>2026-05-02T12:39:55Z</time></trkpt><trkpt lat="42.06303366340447" lon="13.516016922266"><ele>684.0</ele><time>2026-05-02T12:39:56Z</time></trkpt><trkpt lat="42.06303102736809" lon="13.51571003206646"><ele>684.5</ele><time>2026-05-02T12:39:57Z</time></trkpt><trkpt lat="42.063036968350204" lon="13.515393878048695"><ele>685.0</ele><time>2026-05-02T12:39:58Z</time></trkpt><trkpt lat="42.06302890538903" lon="13.515079268625287"><ele>685.0</ele><time>2026-05-02T12:39:59Z</time></trkpt><trkpt lat="42.06302285107341" lon="13.514773849943264"><ele>685.0</ele><time>2026-05-02T12:40:00Z</time></trkpt><trkpt lat="42.06301618928459" lon="13.514474017239428"><ele>685.0</ele><time>2026-05-02T12:40:01Z</time></trkpt><trkpt lat="42.0630134699301" lon="13.514177419300154"><ele>685.0</ele><time>2026-05-02T12:40:02Z</time></trkpt><trkpt lat="42.06301169024128" lon="13.513877019483987"><ele>685.0</ele><time>2026-05-02T12:40:03Z</time></trkpt><trkpt lat="42.06300472335233" lon="13.513578558361242"><ele>685.3333333333334</ele><time>2026-05-02T12:40:04Z</time></trkpt><trkpt lat="42.063000995678756" lon="13.513281635662434"><ele>685.6666666666666</ele><time>2026-05-02T12:40:05Z</time></trkpt><trkpt lat="42.06299801418946" lon="13.512986084855074"><ele>686.0</ele><time>2026-05-02T12:40:06Z</time></trkpt><trkpt lat="42.06299554290645" lon="13.512694093335991"><ele>685.3333333333333</ele><time>2026-05-02T12:40:07Z</time></trkpt><trkpt lat="42.06298900035555" lon="13.512406546690315"><ele>684.6666666666666</ele><time>2026-05-02T12:40:08Z</time></trkpt><trkpt lat="42.06298757421012" lon="13.51211470298311"><ele>684.0</ele><time>2026-05-02T12:40:09Z</time></trkpt><trkpt lat="42.06298830647019" lon="13.511822350116164"><ele>684.0</ele><time>2026-05-02T12:40:10Z</time></trkpt><trkpt lat="42.06298450587244" lon="13.511531016770718"><ele>684.0</ele><time>2026-05-02T12:40:11Z</time></trkpt><trkpt lat="42.06298024897065" lon="13.511239839767372"><ele>684.0</ele><time>2026-05-02T12:40:12Z</time></trkpt><trkpt lat="42.062977245245534" lon="13.510946855164764"><ele>684.0</ele><time>2026-05-02T12:40:13Z</time></trkpt><trkpt lat="42.062971030669516" lon="13.510657770251546"><ele>684.0</ele><time>2026-05-02T12:40:14Z</time></trkpt><trkpt lat="42.06296547634251" lon="13.510367227890004"><ele>684.0</ele><time>2026-05-02T12:40:15Z</time></trkpt><trkpt lat="42.06295872350788" lon="13.510076868863349"><ele>684.0</ele><time>2026-05-02T12:40:16Z</time></trkpt><trkpt lat="42.06295249258698" lon="13.509785283842595"><ele>684.0</ele><time>2026-05-02T12:40:17Z</time></trkpt><trkpt lat="42.06295064480827" lon="13.50949605584517"><ele>684.0</ele><time>2026-05-02T12:40:18Z</time></trkpt><trkpt lat="42.062945491733494" lon="13.50920831825506"><ele>684.3333333333334</ele><time>2026-05-02T12:40:19Z</time></trkpt><trkpt lat="42.062941164980295" lon="13.508920422998393"><ele>684.6666666666667</ele><time>2026-05-02T12:40:20Z</time></trkpt><trkpt lat="42.06293756706047" lon="13.50863386586081"><ele>685.0</ele><time>2026-05-02T12:40:21Z</time></trkpt><trkpt lat="42.06293398889168" lon="13.508349854996576"><ele>685.0</ele><time>2026-05-02T12:40:22Z</time></trkpt><trkpt lat="42.06292603459889" lon="13.508066798996435"><ele>685.0</ele><time>2026-05-02T12:40:23Z</time></trkpt><trkpt lat="42.062919549311445" lon="13.507767249408895"><ele>685.0</ele><time>2026-05-02T12:40:24Z</time></trkpt><trkpt lat="42.06291805616914" lon="13.507471448539658"><ele>685.0</ele><time>2026-05-02T12:40:25Z</time></trkpt><trkpt lat="42.06291709912148" lon="13.507172471181834"><ele>685.0</ele><time>2026-05-02T12:40:26Z</time></trkpt><trkpt lat="42.062913121261474" lon="13.506871704510111"><ele>685.0</ele><time>2026-05-02T12:40:27Z</time></trkpt><trkpt lat="42.06290639938567" lon="13.506575549125376"><ele>685.0</ele><time>2026-05-02T12:40:28Z</time></trkpt><trkpt lat="42.06290125937455" lon="13.506284262940282"><ele>685.0</ele><time>2026-05-02T12:40:29Z</time></trkpt><trkpt lat="42.06289811810003" lon="13.505987280229741"><ele>685.0</ele><time>2026-05-02T12:40:30Z</time></trkpt><trkpt lat="42.06289422276745" lon="13.505687051982871"><ele>684.3333333333334</ele><time>2026-05-02T12:40:31Z</time></trkpt><trkpt lat="42.062889528249215" lon="13.50539523299554"><ele>683.6666666666666</ele><time>2026-05-02T12:40:32Z</time></trkpt><trkpt lat="42.06288468761975" lon="13.50509832106827"><ele>683.0</ele><time>2026-05-02T12:40:33Z</time></trkpt><trkpt lat="42.062878982413494" lon="13.504808025169229"><ele>682.6666666666666</ele><time>2026-05-02T12:40:34Z</time></trkpt><trkpt lat="42.0628736931505" lon="13.504517650248058"><ele>682.3333333333334</ele><time>2026-05-02T12:40:35Z</time></trkpt><trkpt lat="42.06286388603136" lon="13.504228338980399"><ele>682.0</ele><time>2026-05-02T12:40:36Z</time></trkpt><trkpt lat="42.06286248380234" lon="13.503930666548497"><ele>682.0</ele><time>2026-05-02T12:40:37Z</time></trkpt><trkpt lat="42.0628625123517" lon="13.503634286043782"><ele>682.0</ele><time>2026-05-02T12:40:38Z</time></trkpt><trkpt lat="42.06286016576481" lon="13.50334921591632"><ele>682.0</ele><time>2026-05-02T12:40:39Z</time></trkpt><trkpt lat="42.06285476970101" lon="13.503051524424434"><ele>682.0</ele><time>2026-05-02T12:40:40Z</time></trkpt><trkpt lat="42.062857141281455" lon="13.502741811868516"><ele>682.0</ele><time>2026-05-02T12:40:41Z</time></trkpt><trkpt lat="42.06285135293054" lon="13.50244361113782"><ele>682.0</ele><time>2026-05-02T12:40:42.001Z</time></trkpt><trkpt lat="42.06284798175358" lon="13.502153358165843"><ele>682.0</ele><time>2026-05-02T12:40:43.001Z</time></trkpt><trkpt lat="42.06284544770989" lon="13.501856089404288"><ele>682.0</ele><time>2026-05-02T12:40:44.001Z</time></trkpt><trkpt lat="42.062847704481825" lon="13.501555265907196"><ele>682.0</ele><time>2026-05-02T12:40:45.001Z</time></trkpt><trkpt lat="42.06284474881552" lon="13.501253671615348"><ele>682.0</ele><time>2026-05-02T12:40:46.001Z</time></trkpt><trkpt lat="42.06283728155165" lon="13.500954902709623"><ele>682.0</ele><time>2026-05-02T12:40:47.001Z</time></trkpt><trkpt lat="42.06283218061881" lon="13.500649780075397"><ele>682.0</ele><time>2026-05-02T12:40:48.001Z</time></trkpt><trkpt lat="42.06282594913458" lon="13.5003526133089"><ele>682.0</ele><time>2026-05-02T12:40:49.001Z</time></trkpt><trkpt lat="42.06282160271963" lon="13.500056791074014"><ele>682.0</ele><time>2026-05-02T12:40:50.001Z</time></trkpt><trkpt lat="42.06281458998913" lon="13.499754885409402"><ele>682.3333333333334</ele><time>2026-05-02T12:40:51.001Z</time></trkpt><trkpt lat="42.062811457142004" lon="13.49945326001891"><ele>682.6666666666666</ele><time>2026-05-02T12:40:52.001Z</time></trkpt><trkpt lat="42.0628079946408" lon="13.499152086504179"><ele>683.0</ele><time>2026-05-02T12:40:53.001Z</time></trkpt><trkpt lat="42.062804421586264" lon="13.498853649707135"><ele>682.3333333333333</ele><time>2026-05-02T12:40:54.001Z</time></trkpt><trkpt lat="42.06280026448898" lon="13.49855278363099"><ele>681.6666666666666</ele><time>2026-05-02T12:40:55Z</time></trkpt><trkpt lat="42.062796951603616" lon="13.498255481097132"><ele>681.0</ele><time>2026-05-02T12:40:56Z</time></trkpt><trkpt lat="42.062790664165135" lon="13.497956163439568"><ele>680.6666666666666</ele><time>2026-05-02T12:40:57Z</time></trkpt><trkpt lat="42.0627866861834" lon="13.497656386428973"><ele>680.3333333333333</ele><time>2026-05-02T12:40:58Z</time></trkpt><trkpt lat="42.062782290832075" lon="13.497357416142236"><ele>680.0</ele><time>2026-05-02T12:40:59Z</time></trkpt><trkpt lat="42.06278004942933" lon="13.497058823420844"><ele>680.6666666666666</ele><time>2026-05-02T12:41:00Z</time></trkpt><trkpt lat="42.06277514084284" lon="13.49676415086362"><ele>681.3333333333334</ele><time>2026-05-02T12:41:01Z</time></trkpt><trkpt lat="42.062772267613674" lon="13.49646945913333"><ele>682.0</ele><time>2026-05-02T12:41:02Z</time></trkpt><trkpt lat="42.0627664788389" lon="13.496190481494535"><ele>682.3333333333334</ele><time>2026-05-02T12:41:03Z</time></trkpt><trkpt lat="42.062760043028526" lon="13.495914908475227"><ele>682.6666666666666</ele><time>2026-05-02T12:41:04Z</time></trkpt><trkpt lat="42.06275419039839" lon="13.495647764841806"><ele>683.0</ele><time>2026-05-02T12:41:05Z</time></trkpt><trkpt lat="42.06275015894394" lon="13.49538816404936"><ele>683.0</ele><time>2026-05-02T12:41:06Z</time></trkpt><trkpt lat="42.062751457994175" lon="13.495122428395657"><ele>683.0</ele><time>2026-05-02T12:41:07Z</time></trkpt><trkpt lat="42.06274968426638" lon="13.494864914360667"><ele>683.0</ele><time>2026-05-02T12:41:08Z</time></trkpt><trkpt lat="42.062746840480735" lon="13.494610268980374"><ele>682.3333333333333</ele><time>2026-05-02T12:41:09Z</time></trkpt><trkpt lat="42.06274320271259" lon="13.494358716362058"><ele>681.6666666666666</ele><time>2026-05-02T12:41:10Z</time></trkpt><trkpt lat="42.06273878832711" lon="13.494110226601155"><ele>681.0</ele><time>2026-05-02T12:41:11Z</time></trkpt><trkpt lat="42.062735311692414" lon="13.493866014011159"><ele>680.3333333333334</ele><time>2026-05-02T12:41:12Z</time></trkpt><trkpt lat="42.06273239960259" lon="13.493620271278647"><ele>679.6666666666667</ele><time>2026-05-02T12:41:13Z</time></trkpt><trkpt lat="42.062729537169425" lon="13.49337809320973"><ele>679.0</ele><time>2026-05-02T12:41:14Z</time></trkpt><trkpt lat="42.062724309959044" lon="13.493139228795805"><ele>679.0</ele><time>2026-05-02T12:41:15Z</time></trkpt><trkpt lat="42.062721097234515" lon="13.492893287305007"><ele>679.0</ele><time>2026-05-02T12:41:16Z</time></trkpt><trkpt lat="42.06271462399947" lon="13.492654605613025"><ele>679.0</ele><time>2026-05-02T12:41:17Z</time></trkpt><trkpt lat="42.06270982457213" lon="13.492408228004452"><ele>679.0</ele><time>2026-05-02T12:41:18Z</time></trkpt><trkpt lat="42.062711492054376" lon="13.492155817041075"><ele>679.0</ele><time>2026-05-02T12:41:19Z</time></trkpt><trkpt lat="42.06270732096898" lon="13.491909282997547"><ele>679.0</ele><time>2026-05-02T12:41:20Z</time></trkpt><trkpt lat="42.06270075662014" lon="13.491655884359288"><ele>678.6666666666667</ele><time>2026-05-02T12:41:21Z</time></trkpt><trkpt lat="42.062697514522306" lon="13.491400634082327"><ele>678.3333333333334</ele><time>2026-05-02T12:41:22Z</time></trkpt><trkpt lat="42.06269326426814" lon="13.491151535761185"><ele>678.0</ele><time>2026-05-02T12:41:23Z</time></trkpt><trkpt lat="42.06268687315353" lon="13.490901494270197"><ele>678.0</ele><time>2026-05-02T12:41:24Z</time></trkpt><trkpt lat="42.06268522816251" lon="13.490655355906597"><ele>678.0</ele><time>2026-05-02T12:41:25Z</time></trkpt><trkpt lat="42.062682071454965" lon="13.490420992935446"><ele>678.0</ele><time>2026-05-02T12:41:26Z</time></trkpt><trkpt lat="42.06267973494005" lon="13.490188363891892"><ele>678.6666666666666</ele><time>2026-05-02T12:41:27Z</time></trkpt><trkpt lat="42.062676687544375" lon="13.489958569609216"><ele>679.3333333333333</ele><time>2026-05-02T12:41:28Z</time></trkpt><trkpt lat="42.062667923462016" lon="13.489731131791764"><ele>680.0</ele><time>2026-05-02T12:41:29Z</time></trkpt><trkpt lat="42.06264793832378" lon="13.48951528881897"><ele>680.6666666666666</ele><time>2026-05-02T12:41:30Z</time></trkpt><trkpt lat="42.06262135465162" lon="13.489296642836901"><ele>681.3333333333334</ele><time>2026-05-02T12:41:31Z</time></trkpt><trkpt lat="42.06258575459442" lon="13.489078388562893"><ele>682.0</ele><time>2026-05-02T12:41:32Z</time></trkpt><trkpt lat="42.062542599267225" lon="13.488862178910555"><ele>682.6666666666667</ele><time>2026-05-02T12:41:33Z</time></trkpt><trkpt lat="42.062489813019866" lon="13.488643881673607"><ele>683.3333333333334</ele><time>2026-05-02T12:41:34Z</time></trkpt><trkpt lat="42.062422879971194" lon="13.48842220638232"><ele>684.0</ele><time>2026-05-02T12:41:35Z</time></trkpt><trkpt lat="42.06233270767135" lon="13.488199289382742"><ele>683.0</ele><time>2026-05-02T12:41:36Z</time></trkpt><trkpt lat="42.062225074955215" lon="13.48796890224953"><ele>682.0</ele><time>2026-05-02T12:41:37Z</time></trkpt><trkpt lat="42.062109845688724" lon="13.48772458126935"><ele>681.0</ele><time>2026-05-02T12:41:38Z</time></trkpt><trkpt lat="42.061994550467304" lon="13.487471573011238"><ele>681.0</ele><time>2026-05-02T12:41:39Z</time></trkpt><trkpt lat="42.061885432238725" lon="13.487202937935812"><ele>681.0</ele><time>2026-05-02T12:41:40Z</time></trkpt><trkpt lat="42.061772201200974" lon="13.48694207431113"><ele>680.3333333333334</ele><time>2026-05-02T12:41:41Z</time></trkpt><trkpt lat="42.06165735474245" lon="13.486684866343653"><ele>679.6666666666667</ele><time>2026-05-02T12:41:42Z</time></trkpt><trkpt lat="42.061543479461626" lon="13.486425232537245"><ele>679.0</ele><time>2026-05-02T12:41:43Z</time></trkpt><trkpt lat="42.061426141297574" lon="13.486172094717737"><ele>679.0</ele><time>2026-05-02T12:41:44Z</time></trkpt><trkpt lat="42.06130790929568" lon="13.485921312250934"><ele>679.0</ele><time>2026-05-02T12:41:45Z</time></trkpt><trkpt lat="42.06119120602948" lon="13.48566821393381"><ele>679.0</ele><time>2026-05-02T12:41:46Z</time></trkpt><trkpt lat="42.061076537594545" lon="13.485414582986309"><ele>678.6666666666667</ele><time>2026-05-02T12:41:47Z</time></trkpt><trkpt lat="42.060963960360695" lon="13.485163828265446"><ele>678.3333333333334</ele><time>2026-05-02T12:41:48Z</time></trkpt><trkpt lat="42.06085017729526" lon="13.484911556237545"><ele>678.0</ele><time>2026-05-02T12:41:49Z</time></trkpt><trkpt lat="42.06073268748026" lon="13.484660061776887"><ele>679.0</ele><time>2026-05-02T12:41:50Z</time></trkpt><trkpt lat="42.060614657685655" lon="13.484413809118454"><ele>680.0</ele><time>2026-05-02T12:41:51Z</time></trkpt><trkpt lat="42.06049948350816" lon="13.48417108985773"><ele>681.0</ele><time>2026-05-02T12:41:52Z</time></trkpt><trkpt lat="42.060388437675705" lon="13.483929383182522"><ele>682.3333333333334</ele><time>2026-05-02T12:41:53Z</time></trkpt><trkpt lat="42.06027735323188" lon="13.483687362454434"><ele>683.6666666666667</ele><time>2026-05-02T12:41:54Z</time></trkpt><trkpt lat="42.06016552401071" lon="13.483446080994732"><ele>685.0</ele><time>2026-05-02T12:41:55Z</time></trkpt><trkpt lat="42.06005358992261" lon="13.483207830573715"><ele>684.0</ele><time>2026-05-02T12:41:56Z</time></trkpt><trkpt lat="42.05994071959657" lon="13.48296948463779"><ele>683.0</ele><time>2026-05-02T12:41:57Z</time></trkpt><trkpt lat="42.05982717751889" lon="13.482733385784211"><ele>682.0</ele><time>2026-05-02T12:41:58Z</time></trkpt><trkpt lat="42.059716636428575" lon="13.48248267074001"><ele>682.0</ele><time>2026-05-02T12:41:59Z</time></trkpt><trkpt lat="42.05960394159287" lon="13.482233982353147"><ele>682.0</ele><time>2026-05-02T12:42:00Z</time></trkpt><trkpt lat="42.05949256333134" lon="13.481984274834605"><ele>682.0</ele><time>2026-05-02T12:42:01Z</time></trkpt><trkpt lat="42.059391293511744" lon="13.481740347130783"><ele>682.6666666666667</ele><time>2026-05-02T12:42:02Z</time></trkpt><trkpt lat="42.05930390185389" lon="13.481516502645743"><ele>683.3333333333334</ele><time>2026-05-02T12:42:03Z</time></trkpt><trkpt lat="42.059223857642486" lon="13.481300182933616"><ele>684.0</ele><time>2026-05-02T12:42:04Z</time></trkpt><trkpt lat="42.0591564522748" lon="13.481104458195453"><ele>683.2</ele><time>2026-05-02T12:42:05Z</time></trkpt><trkpt lat="42.05910078875981" lon="13.480934336494496"><ele>682.4000000000001</ele><time>2026-05-02T12:42:06Z</time></trkpt><trkpt lat="42.059049344271614" lon="13.480779932935015"><ele>681.6</ele><time>2026-05-02T12:42:07Z</time></trkpt><trkpt lat="42.05900954966179" lon="13.48066131187123"><ele>680.8</ele><time>2026-05-02T12:42:08Z</time></trkpt><trkpt lat="42.05898400001905" lon="13.480580912697816"><ele>680.0</ele><time>2026-05-02T12:42:09Z</time></trkpt><trkpt lat="42.05893486341652" lon="13.480420663773792"><ele>680.0</ele><time>2026-05-02T12:42:14Z</time></trkpt><trkpt lat="42.058876843089905" lon="13.480271804016382"><ele>680.0</ele><time>2026-05-02T12:42:15Z</time></trkpt><trkpt lat="42.05881561723453" lon="13.480111077480927"><ele>680.0</ele><time>2026-05-02T12:42:16Z</time></trkpt><trkpt lat="42.05875506434567" lon="13.479935821192285"><ele>680.0</ele><time>2026-05-02T12:42:17Z</time></trkpt><trkpt lat="42.05869067327779" lon="13.479746592540215"><ele>681.3333333333333</ele><time>2026-05-02T12:42:18Z</time></trkpt><trkpt lat="42.05862718520928" lon="13.47956381537755"><ele>682.6666666666666</ele><time>2026-05-02T12:42:19Z</time></trkpt><trkpt lat="42.05856334039736" lon="13.479374634199292"><ele>684.0</ele><time>2026-05-02T12:42:20Z</time></trkpt><trkpt lat="42.05849747591421" lon="13.479183439946974"><ele>684.0</ele><time>2026-05-02T12:42:21Z</time></trkpt><trkpt lat="42.05842974265992" lon="13.47898645756847"><ele>684.0</ele><time>2026-05-02T12:42:22Z</time></trkpt><trkpt lat="42.05836131256384" lon="13.4787897576064"><ele>684.0</ele><time>2026-05-02T12:42:23Z</time></trkpt><trkpt lat="42.05829214862923" lon="13.478594019156274"><ele>682.3333333333334</ele><time>2026-05-02T12:42:24Z</time></trkpt><trkpt lat="42.05822381804978" lon="13.478389156427502"><ele>680.6666666666667</ele><time>2026-05-02T12:42:25Z</time></trkpt><trkpt lat="42.05815817056297" lon="13.478180951948675"><ele>679.0</ele><time>2026-05-02T12:42:26Z</time></trkpt><trkpt lat="42.05808774980239" lon="13.47797343544403"><ele>679.6666666666667</ele><time>2026-05-02T12:42:27Z</time></trkpt><trkpt lat="42.058014871958726" lon="13.477760784936697"><ele>680.3333333333334</ele><time>2026-05-02T12:42:28Z</time></trkpt><trkpt lat="42.05794033950077" lon="13.477540993008944"><ele>681.0</ele><time>2026-05-02T12:42:29Z</time></trkpt><trkpt lat="42.057867069357016" lon="13.47731528368999"><ele>682.3333333333334</ele><time>2026-05-02T12:42:30Z</time></trkpt><trkpt lat="42.057793043375455" lon="13.477089382933514"><ele>683.6666666666667</ele><time>2026-05-02T12:42:31Z</time></trkpt><trkpt lat="42.05771181270712" lon="13.476869387410064"><ele>685.0</ele><time>2026-05-02T12:42:32.001Z</time></trkpt><trkpt lat="42.057636350424346" lon="13.476635375939331"><ele>685.0</ele><time>2026-05-02T12:42:33.001Z</time></trkpt><trkpt lat="42.057567257877096" lon="13.47639238251064"><ele>685.0</ele><time>2026-05-02T12:42:34.001Z</time></trkpt><trkpt lat="42.05749866734842" lon="13.476148010904994"><ele>685.0</ele><time>2026-05-02T12:42:35.001Z</time></trkpt><trkpt lat="42.05743043333649" lon="13.475898845696895"><ele>685.3333333333334</ele><time>2026-05-02T12:42:36.001Z</time></trkpt><trkpt lat="42.05736273683745" lon="13.47565326139279"><ele>685.6666666666666</ele><time>2026-05-02T12:42:37.001Z</time></trkpt><trkpt lat="42.05729735196022" lon="13.475409179766373"><ele>686.0</ele><time>2026-05-02T12:42:38.001Z</time></trkpt><trkpt lat="42.05723314272555" lon="13.475161485115095"><ele>686.0</ele><time>2026-05-02T12:42:39.001Z</time></trkpt><trkpt lat="42.05716714208791" lon="13.474917937135135"><ele>686.0</ele><time>2026-05-02T12:42:40.001Z</time></trkpt><trkpt lat="42.05710034630041" lon="13.474677540025741"><ele>686.0</ele><time>2026-05-02T12:42:41.001Z</time></trkpt><trkpt lat="42.05703195226707" lon="13.474439508775664"><ele>687.0</ele><time>2026-05-02T12:42:42.001Z</time></trkpt><trkpt lat="42.05696420401581" lon="13.47420491724149"><ele>688.0</ele><time>2026-05-02T12:42:43.001Z</time></trkpt><trkpt lat="42.056900356430305" lon="13.473971729618926"><ele>689.0</ele><time>2026-05-02T12:42:44.001Z</time></trkpt><trkpt lat="42.05683771615319" lon="13.473735881405755"><ele>690.0</ele><time>2026-05-02T12:42:45.001Z</time></trkpt><trkpt lat="42.05677438013258" lon="13.473499321976576"><ele>691.0</ele><time>2026-05-02T12:42:46.001Z</time></trkpt><trkpt lat="42.05670722805829" lon="13.473260994942274"><ele>692.0</ele><time>2026-05-02T12:42:47.001Z</time></trkpt><trkpt lat="42.05663484040436" lon="13.473020591086472"><ele>690.6666666666666</ele><time>2026-05-02T12:42:48.001Z</time></trkpt><trkpt lat="42.056567184333254" lon="13.472777238393636"><ele>689.3333333333334</ele><time>2026-05-02T12:42:49.001Z</time></trkpt><trkpt lat="42.05650103915556" lon="13.472530025143216"><ele>688.0</ele><time>2026-05-02T12:42:50.001Z</time></trkpt><trkpt lat="42.056434111802936" lon="13.472281479607716"><ele>688.6666666666667</ele><time>2026-05-02T12:42:51.001Z</time></trkpt><trkpt lat="42.056365396278565" lon="13.472038927602721"><ele>689.3333333333334</ele><time>2026-05-02T12:42:52.001Z</time></trkpt><trkpt lat="42.05629771574495" lon="13.47179428282386"><ele>690.0</ele><time>2026-05-02T12:42:53.001Z</time></trkpt><trkpt lat="42.05623274123778" lon="13.47155647255001"><ele>690.0</ele><time>2026-05-02T12:42:54.001Z</time></trkpt><trkpt lat="42.05616402401636" lon="13.471313316211148"><ele>690.0</ele><time>2026-05-02T12:42:55.001Z</time></trkpt><trkpt lat="42.05609524834453" lon="13.47107143849323"><ele>690.0</ele><time>2026-05-02T12:42:56.001Z</time></trkpt><trkpt lat="42.05602554842361" lon="13.470827555763744"><ele>690.6666666666666</ele><time>2026-05-02T12:42:57.001Z</time></trkpt><trkpt lat="42.05595303621638" lon="13.47058788155765"><ele>691.3333333333333</ele><time>2026-05-02T12:42:58.001Z</time></trkpt><trkpt lat="42.05587839952495" lon="13.470350187839324"><ele>692.0</ele><time>2026-05-02T12:42:59.001Z</time></trkpt><trkpt lat="42.05579361417854" lon="13.470115707083329"><ele>692.0</ele><time>2026-05-02T12:43:00.001Z</time></trkpt><trkpt lat="42.05570147136299" lon="13.469890911194218"><ele>692.0</ele><time>2026-05-02T12:43:01Z</time></trkpt><trkpt lat="42.05559586915125" lon="13.469673190102005"><ele>692.0</ele><time>2026-05-02T12:43:02Z</time></trkpt><trkpt lat="42.05548882348471" lon="13.469457027026118"><ele>693.0</ele><time>2026-05-02T12:43:03Z</time></trkpt><trkpt lat="42.05537630700714" lon="13.469245395227476"><ele>694.0</ele><time>2026-05-02T12:43:04Z</time></trkpt><trkpt lat="42.05526400425656" lon="13.469031614690039"><ele>695.0</ele><time>2026-05-02T12:43:05Z</time></trkpt><trkpt lat="42.055150335662525" lon="13.46881899370532"><ele>694.6666666666666</ele><time>2026-05-02T12:43:06Z</time></trkpt><trkpt lat="42.05503789576432" lon="13.468608024578367"><ele>694.3333333333334</ele><time>2026-05-02T12:43:07Z</time></trkpt><trkpt lat="42.05492453331955" lon="13.468398149506505"><ele>694.0</ele><time>2026-05-02T12:43:08Z</time></trkpt><trkpt lat="42.05480992917708" lon="13.468185530546691"><ele>694.0</ele><time>2026-05-02T12:43:09Z</time></trkpt><trkpt lat="42.05469686477204" lon="13.467970594155949"><ele>694.0</ele><time>2026-05-02T12:43:10Z</time></trkpt><trkpt lat="42.05458259653869" lon="13.467758323057149"><ele>694.0</ele><time>2026-05-02T12:43:11Z</time></trkpt><trkpt lat="42.05447104554493" lon="13.467547219828242"><ele>694.6666666666667</ele><time>2026-05-02T12:43:12Z</time></trkpt><trkpt lat="42.05436179859589" lon="13.467337670378532"><ele>695.3333333333334</ele><time>2026-05-02T12:43:13Z</time></trkpt><trkpt lat="42.05425717178845" lon="13.467138554649127"><ele>696.0</ele><time>2026-05-02T12:43:14Z</time></trkpt><trkpt lat="42.054154871253935" lon="13.466954532833618"><ele>696.3333333333334</ele><time>2026-05-02T12:43:15Z</time></trkpt><trkpt lat="42.05406033882454" lon="13.466776799905757"><ele>696.6666666666667</ele><time>2026-05-02T12:43:16Z</time></trkpt><trkpt lat="42.05397002503268" lon="13.466599426546018"><ele>697.0</ele><time>2026-05-02T12:43:17Z</time></trkpt><trkpt lat="42.053879329240274" lon="13.466431763264987"><ele>697.5</ele><time>2026-05-02T12:43:18Z</time></trkpt><trkpt lat="42.05379041721895" lon="13.466261071032452"><ele>698.0</ele><time>2026-05-02T12:43:19Z</time></trkpt><trkpt lat="42.05370359541034" lon="13.466100571150882"><ele>698.5</ele><time>2026-05-02T12:43:20Z</time></trkpt><trkpt lat="42.053619390742305" lon="13.465949143168169"><ele>699.0</ele><time>2026-05-02T12:43:21Z</time></trkpt><trkpt lat="42.05353889645448" lon="13.465808343689952"><ele>699.0</ele><time>2026-05-02T12:43:22Z</time></trkpt><trkpt lat="42.05346619527866" lon="13.465666130050664"><ele>699.0</ele><time>2026-05-02T12:43:23Z</time></trkpt><trkpt lat="42.05339875477936" lon="13.465536909913162"><ele>699.0</ele><time>2026-05-02T12:43:24Z</time></trkpt><trkpt lat="42.05333836281666" lon="13.465415502652155"><ele>699.0</ele><time>2026-05-02T12:43:25Z</time></trkpt><trkpt lat="42.053279330389664" lon="13.46529780457091"><ele>698.8000000000001</ele><time>2026-05-02T12:43:26Z</time></trkpt><trkpt lat="42.05321758141361" lon="13.465181242449338"><ele>698.6</ele><time>2026-05-02T12:43:27Z</time></trkpt><trkpt lat="42.053154533810606" lon="13.465059585316794"><ele>698.4</ele><time>2026-05-02T12:43:28Z</time></trkpt><trkpt lat="42.05308961564787" lon="13.464934762047765"><ele>698.2</ele><time>2026-05-02T12:43:29Z</time></trkpt><trkpt lat="42.053024760102595" lon="13.464812729657485"><ele>698.0</ele><time>2026-05-02T12:43:30Z</time></trkpt><trkpt lat="42.052957626211224" lon="13.46469036521781"><ele>698.5</ele><time>2026-05-02T12:43:31Z</time></trkpt><trkpt lat="42.05289229562409" lon="13.464563165603277"><ele>699.0</ele><time>2026-05-02T12:43:32Z</time></trkpt><trkpt lat="42.05282482218597" lon="13.46443749898765"><ele>699.5</ele><time>2026-05-02T12:43:33Z</time></trkpt><trkpt lat="42.05275752717847" lon="13.46430844316778"><ele>700.0</ele><time>2026-05-02T12:43:34Z</time></trkpt><trkpt lat="42.052690957728984" lon="13.464184830881205"><ele>700.0</ele><time>2026-05-02T12:43:35Z</time></trkpt><trkpt lat="42.05262446405306" lon="13.464057758174816"><ele>700.0</ele><time>2026-05-02T12:43:36Z</time></trkpt><trkpt lat="42.05256103864679" lon="13.463928858565906"><ele>700.0</ele><time>2026-05-02T12:43:37Z</time></trkpt><trkpt lat="42.052497744318096" lon="13.463802471536104"><ele>700.0</ele><time>2026-05-02T12:43:38Z</time></trkpt><trkpt lat="42.05243330590413" lon="13.463684020430826"><ele>700.0</ele><time>2026-05-02T12:43:39Z</time></trkpt><trkpt lat="42.052369355988176" lon="13.463569665488007"><ele>700.0</ele><time>2026-05-02T12:43:40Z</time></trkpt><trkpt lat="42.05230273908947" lon="13.463446444733197"><ele>700.0</ele><time>2026-05-02T12:43:41Z</time></trkpt><trkpt lat="42.05223641055716" lon="13.463325357051662"><ele>700.0</ele><time>2026-05-02T12:43:42Z</time></trkpt><trkpt lat="42.0521727529365" lon="13.463201632777244"><ele>700.0</ele><time>2026-05-02T12:43:43Z</time></trkpt><trkpt lat="42.052109252459225" lon="13.463076307507137"><ele>700.0</ele><time>2026-05-02T12:43:44Z</time></trkpt><trkpt lat="42.05204531487734" lon="13.462957917694146"><ele>700.0</ele><time>2026-05-02T12:43:45Z</time></trkpt><trkpt lat="42.05198508004113" lon="13.462852132304134"><ele>700.0</ele><time>2026-05-02T12:43:46Z</time></trkpt><trkpt lat="42.05193039522304" lon="13.46275185698523"><ele>700.0</ele><time>2026-05-02T12:43:47Z</time></trkpt><trkpt lat="42.05188104767787" lon="13.462660387806636"><ele>700.0</ele><time>2026-05-02T12:43:48Z</time></trkpt><trkpt lat="42.051840160906664" lon="13.462586873177244"><ele>700.2</ele><time>2026-05-02T12:43:49Z</time></trkpt><trkpt lat="42.05178927778382" lon="13.462488069208835"><ele>700.4</ele><time>2026-05-02T12:43:51Z</time></trkpt><trkpt lat="42.05173903541121" lon="13.462395741077758"><ele>700.5999999999999</ele><time>2026-05-02T12:43:54Z</time></trkpt><trkpt lat="42.05170135323058" lon="13.462319371984492"><ele>700.8</ele><time>2026-05-02T12:43:56Z</time></trkpt><trkpt lat="42.05164449066066" lon="13.462202304528995"><ele>701.0</ele><time>2026-05-02T12:43:58Z</time></trkpt><trkpt lat="42.05156102646949" lon="13.462065293518776"><ele>701.0</ele><time>2026-05-02T12:44:00Z</time></trkpt><trkpt lat="42.051513759445704" lon="13.461980925487195"><ele>701.0</ele><time>2026-05-02T12:44:01Z</time></trkpt><trkpt lat="42.05146821982263" lon="13.46188866215828"><ele>701.0</ele><time>2026-05-02T12:44:02Z</time></trkpt><trkpt lat="42.05141999183258" lon="13.461790331930624"><ele>701.0</ele><time>2026-05-02T12:44:03Z</time></trkpt><trkpt lat="42.05136960668873" lon="13.461691115807307"><ele>701.0</ele><time>2026-05-02T12:44:04Z</time></trkpt><trkpt lat="42.05132102404202" lon="13.461594760719043"><ele>701.0</ele><time>2026-05-02T12:44:05Z</time></trkpt><trkpt lat="42.051267765897634" lon="13.461498400935625"><ele>701.0</ele><time>2026-05-02T12:44:06Z</time></trkpt><trkpt lat="42.051216619733125" lon="13.461397102779038"><ele>701.0</ele><time>2026-05-02T12:44:07Z</time></trkpt><trkpt lat="42.051161493685534" lon="13.461294674694244"><ele>701.0</ele><time>2026-05-02T12:44:08Z</time></trkpt><trkpt lat="42.05110593207614" lon="13.461188781071769"><ele>701.0</ele><time>2026-05-02T12:44:09Z</time></trkpt><trkpt lat="42.051054297157116" lon="13.46109056616345"><ele>701.0</ele><time>2026-05-02T12:44:10Z</time></trkpt><trkpt lat="42.051011739704876" lon="13.461001572306053"><ele>701.0</ele><time>2026-05-02T12:44:11Z</time></trkpt><trkpt lat="42.050987829166644" lon="13.460905120048226"><ele>701.5999999999999</ele><time>2026-05-02T12:44:12Z</time></trkpt><trkpt lat="42.05100467848121" lon="13.46073125720559"><ele>702.2</ele><time>2026-05-02T12:44:14Z</time></trkpt><trkpt lat="42.05101172746695" lon="13.460644282054416"><ele>702.8</ele><time>2026-05-02T12:44:15Z</time></trkpt><trkpt lat="42.05102630121278" lon="13.46055232215695"><ele>703.4000000000001</ele><time>2026-05-02T12:44:16Z</time></trkpt><trkpt lat="42.05106403245866" lon="13.46039387881355"><ele>704.0</ele><time>2026-05-02T12:44:18Z</time></trkpt><trkpt lat="42.05110364245927" lon="13.460244417692035"><ele>704.3333333333333</ele><time>2026-05-02T12:44:20Z</time></trkpt><trkpt lat="42.05112376017574" lon="13.460163512055585"><ele>704.6666666666666</ele><time>2026-05-02T12:44:21Z</time></trkpt><trkpt lat="42.05114008580512" lon="13.460074382096812"><ele>705.0</ele><time>2026-05-02T12:44:22Z</time></trkpt><trkpt lat="42.05114793248153" lon="13.459973597586984"><ele>705.3333333333334</ele><time>2026-05-02T12:44:23Z</time></trkpt><trkpt lat="42.051137219367334" lon="13.459866514393456"><ele>705.6666666666667</ele><time>2026-05-02T12:44:24Z</time></trkpt><trkpt lat="42.051119238709994" lon="13.459773225439054"><ele>706.0</ele><time>2026-05-02T12:44:25Z</time></trkpt><trkpt lat="42.051112140674874" lon="13.459610317852912"><ele>706.0</ele><time>2026-05-02T12:44:27Z</time></trkpt><trkpt lat="42.05116749967397" lon="13.45948504418906"><ele>706.0</ele><time>2026-05-02T12:44:29Z</time></trkpt><trkpt lat="42.051256211980395" lon="13.459406558582465"><ele>706.0</ele><time>2026-05-02T12:44:31Z</time></trkpt><trkpt lat="42.0513392330291" lon="13.459284632346522"><ele>706.0</ele><time>2026-05-02T12:44:33Z</time></trkpt><trkpt lat="42.051365469097256" lon="13.459194335255663"><ele>706.0</ele><time>2026-05-02T12:44:34Z</time></trkpt><trkpt lat="42.051382559824994" lon="13.459094820289442"><ele>706.0</ele><time>2026-05-02T12:44:35Z</time></trkpt><trkpt lat="42.05140950224934" lon="13.458994600940231"><ele>706.0</ele><time>2026-05-02T12:44:36Z</time></trkpt><trkpt lat="42.05143524335686" lon="13.458902228560971"><ele>706.0</ele><time>2026-05-02T12:44:37Z</time></trkpt><trkpt lat="42.051465897869534" lon="13.458782596629904"><ele>706.0</ele><time>2026-05-02T12:44:39Z</time></trkpt><trkpt lat="42.0514791083592" lon="13.458673000077228"><ele>706.0</ele><time>2026-05-02T12:44:45.001Z</time></trkpt><trkpt lat="42.05149297647215" lon="13.458532154376526"><ele>706.0</ele><time>2026-05-02T12:44:47.001Z</time></trkpt><trkpt lat="42.051529955650864" lon="13.458445171380408"><ele>706.0</ele><time>2026-05-02T12:44:48.001Z</time></trkpt><trkpt lat="42.051558051151716" lon="13.4583251434524"><ele>706.0</ele><time>2026-05-02T12:44:49.001Z</time></trkpt><trkpt lat="42.051590671341515" lon="13.458191914898553"><ele>706.0</ele><time>2026-05-02T12:44:50.001Z</time></trkpt><trkpt lat="42.051628623393206" lon="13.45804520342722"><ele>706.0</ele><time>2026-05-02T12:44:51.001Z</time></trkpt><trkpt lat="42.05164067117784" lon="13.457933640862233"><ele>706.0</ele><time>2026-05-02T12:44:52.001Z</time></trkpt><trkpt lat="42.05168736141386" lon="13.45776300657808"><ele>707.0</ele><time>2026-05-02T12:44:53.001Z</time></trkpt><trkpt lat="42.05174818556533" lon="13.457581046458952"><ele>708.0</ele><time>2026-05-02T12:44:54.001Z</time></trkpt><trkpt lat="42.051794606343925" lon="13.45741545196792"><ele>709.0</ele><time>2026-05-02T12:44:55.001Z</time></trkpt><trkpt lat="42.05183612801713" lon="13.457242661230659"><ele>710.0</ele><time>2026-05-02T12:44:56.001Z</time></trkpt><trkpt lat="42.05187681987095" lon="13.457069084649838"><ele>711.0</ele><time>2026-05-02T12:44:57.001Z</time></trkpt><trkpt lat="42.05191674017421" lon="13.45690353271843"><ele>712.0</ele><time>2026-05-02T12:44:58.001Z</time></trkpt><trkpt lat="42.05195644401961" lon="13.456725015971607"><ele>713.0</ele><time>2026-05-02T12:44:59.001Z</time></trkpt><trkpt lat="42.0519964927776" lon="13.45654028660158"><ele>714.0</ele><time>2026-05-02T12:45:00.001Z</time></trkpt><trkpt lat="42.052047558505215" lon="13.456359437659177"><ele>715.5</ele><time>2026-05-02T12:45:01.001Z</time></trkpt><trkpt lat="42.05209426185836" lon="13.456180261494545"><ele>717.0</ele><time>2026-05-02T12:45:02.001Z</time></trkpt><trkpt lat="42.0521215060106" lon="13.456013335959137"><ele>718.5</ele><time>2026-05-02T12:45:03.001Z</time></trkpt><trkpt lat="42.0521708957813" lon="13.455844423824901"><ele>720.0</ele><time>2026-05-02T12:45:04.001Z</time></trkpt><trkpt lat="42.05221474701595" lon="13.455671012565732"><ele>720.0</ele><time>2026-05-02T12:45:05.001Z</time></trkpt><trkpt lat="42.052256083777344" lon="13.45549358570414"><ele>720.0</ele><time>2026-05-02T12:45:06.001Z</time></trkpt><trkpt lat="42.05229978325239" lon="13.455314639089309"><ele>720.0</ele><time>2026-05-02T12:45:07Z</time></trkpt><trkpt lat="42.05233586300646" lon="13.45513187308272"><ele>720.0</ele><time>2026-05-02T12:45:08Z</time></trkpt><trkpt lat="42.05236804705676" lon="13.45493779276151"><ele>720.75</ele><time>2026-05-02T12:45:09Z</time></trkpt><trkpt lat="42.0524234996947" lon="13.454754063175663"><ele>721.5</ele><time>2026-05-02T12:45:10Z</time></trkpt><trkpt lat="42.052457447633714" lon="13.454569397889827"><ele>722.25</ele><time>2026-05-02T12:45:11Z</time></trkpt><trkpt lat="42.05250691644946" lon="13.454390587391721"><ele>723.0</ele><time>2026-05-02T12:45:12Z</time></trkpt><trkpt lat="42.05255905198079" lon="13.45421462834151"><ele>724.75</ele><time>2026-05-02T12:45:13Z</time></trkpt><trkpt lat="42.05259952395008" lon="13.454022518965282"><ele>726.5</ele><time>2026-05-02T12:45:14Z</time></trkpt><trkpt lat="42.0526483096978" lon="13.453833364582321"><ele>728.25</ele><time>2026-05-02T12:45:15Z</time></trkpt><trkpt lat="42.05269732865264" lon="13.453640467563847"><ele>730.0</ele><time>2026-05-02T12:45:16Z</time></trkpt><trkpt lat="42.05274369614512" lon="13.453446453285396"><ele>731.0</ele><time>2026-05-02T12:45:17Z</time></trkpt><trkpt lat="42.05278310785463" lon="13.453247207943894"><ele>732.0</ele><time>2026-05-02T12:45:18Z</time></trkpt><trkpt lat="42.052815439538904" lon="13.453042752812625"><ele>733.0</ele><time>2026-05-02T12:45:19Z</time></trkpt><trkpt lat="42.05283818215008" lon="13.452833642261703"><ele>733.3333333333334</ele><time>2026-05-02T12:45:20Z</time></trkpt><trkpt lat="42.05285066191582" lon="13.452625371756612"><ele>733.6666666666666</ele><time>2026-05-02T12:45:21Z</time></trkpt><trkpt lat="42.052848075245635" lon="13.452414034118483"><ele>734.0</ele><time>2026-05-02T12:45:22Z</time></trkpt><trkpt lat="42.052825515434996" lon="13.452203588798996"><ele>734.6666666666666</ele><time>2026-05-02T12:45:23Z</time></trkpt><trkpt lat="42.05279044694348" lon="13.451998597942127"><ele>735.3333333333334</ele><time>2026-05-02T12:45:24Z</time></trkpt><trkpt lat="42.05273876262427" lon="13.451786953579635"><ele>736.0</ele><time>2026-05-02T12:45:25Z</time></trkpt><trkpt lat="42.052675757806796" lon="13.451569791688097"><ele>736.0</ele><time>2026-05-02T12:45:26Z</time></trkpt><trkpt lat="42.05261447886857" lon="13.451342435609064"><ele>736.0</ele><time>2026-05-02T12:45:27Z</time></trkpt><trkpt lat="42.05256720909777" lon="13.451105661968947"><ele>736.0</ele><time>2026-05-02T12:45:28Z</time></trkpt><trkpt lat="42.052554514185736" lon="13.450855141307533"><ele>736.0</ele><time>2026-05-02T12:45:29Z</time></trkpt><trkpt lat="42.05256645822971" lon="13.450594930877099"><ele>736.0</ele><time>2026-05-02T12:45:30Z</time></trkpt><trkpt lat="42.052611104327525" lon="13.450335995415656"><ele>736.0</ele><time>2026-05-02T12:45:31Z</time></trkpt><trkpt lat="42.052692037723595" lon="13.450086388574878"><ele>736.3333333333334</ele><time>2026-05-02T12:45:32Z</time></trkpt><trkpt lat="42.05280591475038" lon="13.449851794062889"><ele>736.6666666666666</ele><time>2026-05-02T12:45:33Z</time></trkpt><trkpt lat="42.052949300201355" lon="13.44964338988138"><ele>737.0</ele><time>2026-05-02T12:45:34Z</time></trkpt><trkpt lat="42.053123408668164" lon="13.449471810907458"><ele>738.3333333333333</ele><time>2026-05-02T12:45:35Z</time></trkpt><trkpt lat="42.05332085242716" lon="13.449342955090474"><ele>739.6666666666666</ele><time>2026-05-02T12:45:36Z</time></trkpt><trkpt lat="42.05351050937647" lon="13.449208953663495"><ele>741.0</ele><time>2026-05-02T12:45:37Z</time></trkpt><trkpt lat="42.05368703706042" lon="13.44905179420176"><ele>741.0</ele><time>2026-05-02T12:45:38Z</time></trkpt><trkpt lat="42.05385937750708" lon="13.448899306330425"><ele>741.0</ele><time>2026-05-02T12:45:39Z</time></trkpt><trkpt lat="42.054012899386244" lon="13.448702105029048"><ele>741.0</ele><time>2026-05-02T12:45:40Z</time></trkpt><trkpt lat="42.05414873527335" lon="13.448474478150938"><ele>742.6666666666666</ele><time>2026-05-02T12:45:41Z</time></trkpt><trkpt lat="42.0542558145988" lon="13.4482347666579"><ele>744.3333333333333</ele><time>2026-05-02T12:45:42Z</time></trkpt><trkpt lat="42.05435116156994" lon="13.447974958326476"><ele>746.0</ele><time>2026-05-02T12:45:43Z</time></trkpt><trkpt lat="42.05441041016828" lon="13.44770063751326"><ele>747.6666666666666</ele><time>2026-05-02T12:45:44Z</time></trkpt><trkpt lat="42.054438755773965" lon="13.447409529830361"><ele>749.3333333333334</ele><time>2026-05-02T12:45:45Z</time></trkpt><trkpt lat="42.05444388256455" lon="13.447119035351232"><ele>751.0</ele><time>2026-05-02T12:45:46Z</time></trkpt><trkpt lat="42.054433847006706" lon="13.446825897635023"><ele>751.0</ele><time>2026-05-02T12:45:47Z</time></trkpt><trkpt lat="42.05441587986188" lon="13.446554521197818"><ele>751.0</ele><time>2026-05-02T12:45:48Z</time></trkpt><trkpt lat="42.05443010345879" lon="13.446266326438971"><ele>751.0</ele><time>2026-05-02T12:45:49Z</time></trkpt><trkpt lat="42.05446910401008" lon="13.44597445860842"><ele>751.0</ele><time>2026-05-02T12:45:50Z</time></trkpt><trkpt lat="42.0545342654019" lon="13.445687579356983"><ele>751.0</ele><time>2026-05-02T12:45:51Z</time></trkpt><trkpt lat="42.05461320436083" lon="13.445400903536516"><ele>751.0</ele><time>2026-05-02T12:45:52Z</time></trkpt><trkpt lat="42.054684525011865" lon="13.445114959245316"><ele>751.0</ele><time>2026-05-02T12:45:53Z</time></trkpt><trkpt lat="42.05475328507064" lon="13.444827381325743"><ele>751.0</ele><time>2026-05-02T12:45:54Z</time></trkpt><trkpt lat="42.05482393386913" lon="13.444548102515434"><ele>751.6666666666667</ele><time>2026-05-02T12:45:55Z</time></trkpt><trkpt lat="42.05488762289106" lon="13.444266913267287"><ele>752.3333333333334</ele><time>2026-05-02T12:45:56Z</time></trkpt><trkpt lat="42.054963620043765" lon="13.443987117334126"><ele>753.0</ele><time>2026-05-02T12:45:57Z</time></trkpt><trkpt lat="42.05503659258235" lon="13.443699644951442"><ele>754.3333333333334</ele><time>2026-05-02T12:45:58Z</time></trkpt><trkpt lat="42.05509888813122" lon="13.443416332617375"><ele>755.6666666666667</ele><time>2026-05-02T12:45:59Z</time></trkpt><trkpt lat="42.0551628142591" lon="13.443130045312648"><ele>757.0</ele><time>2026-05-02T12:46:00Z</time></trkpt><trkpt lat="42.0552300690419" lon="13.442848296106353"><ele>757.3333333333334</ele><time>2026-05-02T12:46:01Z</time></trkpt><trkpt lat="42.0552968877045" lon="13.442567784888338"><ele>757.6666666666666</ele><time>2026-05-02T12:46:02Z</time></trkpt><trkpt lat="42.05536559970143" lon="13.442290092517277"><ele>758.0</ele><time>2026-05-02T12:46:03Z</time></trkpt><trkpt lat="42.055437148521115" lon="13.442010835372448"><ele>758.0</ele><time>2026-05-02T12:46:04Z</time></trkpt><trkpt lat="42.055502741067826" lon="13.441727249029494"><ele>758.0</ele><time>2026-05-02T12:46:05Z</time></trkpt><trkpt lat="42.05556815121358" lon="13.441443680287273"><ele>758.0</ele><time>2026-05-02T12:46:06Z</time></trkpt><trkpt lat="42.05562665399372" lon="13.44116146634744"><ele>758.0</ele><time>2026-05-02T12:46:07Z</time></trkpt><trkpt lat="42.055683211050315" lon="13.440877126820896"><ele>758.0</ele><time>2026-05-02T12:46:08Z</time></trkpt><trkpt lat="42.055750078715555" lon="13.440586464370488"><ele>758.0</ele><time>2026-05-02T12:46:09Z</time></trkpt><trkpt lat="42.055818969551424" lon="13.440300852058655"><ele>760.5</ele><time>2026-05-02T12:46:10Z</time></trkpt><trkpt lat="42.055897744317846" lon="13.440014383863366"><ele>763.0</ele><time>2026-05-02T12:46:11Z</time></trkpt><trkpt lat="42.05596785872051" lon="13.43972470777707"><ele>763.0</ele><time>2026-05-02T12:46:12Z</time></trkpt><trkpt lat="42.05602848245991" lon="13.439436348054459"><ele>763.0</ele><time>2026-05-02T12:46:13Z</time></trkpt><trkpt lat="42.05610094556149" lon="13.439150492382641"><ele>763.0</ele><time>2026-05-02T12:46:14Z</time></trkpt><trkpt lat="42.05617094659744" lon="13.438861716075477"><ele>763.6666666666667</ele><time>2026-05-02T12:46:15Z</time></trkpt><trkpt lat="42.0562291242305" lon="13.438577062433852"><ele>764.3333333333334</ele><time>2026-05-02T12:46:16Z</time></trkpt><trkpt lat="42.056291701776615" lon="13.43829131754984"><ele>765.0</ele><time>2026-05-02T12:46:17Z</time></trkpt><trkpt lat="42.056356399842365" lon="13.438005639817279"><ele>765.0</ele><time>2026-05-02T12:46:18Z</time></trkpt><trkpt lat="42.05642028620012" lon="13.437719547304885"><ele>765.0</ele><time>2026-05-02T12:46:19Z</time></trkpt><trkpt lat="42.056494697289914" lon="13.43744111934163"><ele>765.0</ele><time>2026-05-02T12:46:20Z</time></trkpt><trkpt lat="42.056559897856125" lon="13.437157241815639"><ele>765.6666666666666</ele><time>2026-05-02T12:46:21Z</time></trkpt><trkpt lat="42.05657838330669" lon="13.436862750958245"><ele>766.3333333333333</ele><time>2026-05-02T12:46:22Z</time></trkpt><trkpt lat="42.056640868235846" lon="13.436571807000558"><ele>767.0</ele><time>2026-05-02T12:46:23Z</time></trkpt><trkpt lat="42.0567038680462" lon="13.436289552241186"><ele>768.3333333333333</ele><time>2026-05-02T12:46:24Z</time></trkpt><trkpt lat="42.056766677921004" lon="13.436016770661501"><ele>769.6666666666666</ele><time>2026-05-02T12:46:25Z</time></trkpt><trkpt lat="42.05682079115384" lon="13.435746795545773"><ele>771.0</ele><time>2026-05-02T12:46:26Z</time></trkpt><trkpt lat="42.0568807458221" lon="13.435510788059231"><ele>770.3333333333333</ele><time>2026-05-02T12:46:27Z</time></trkpt><trkpt lat="42.05694094185341" lon="13.43526577246857"><ele>769.6666666666666</ele><time>2026-05-02T12:46:28Z</time></trkpt><trkpt lat="42.056991023539" lon="13.435074740324412"><ele>769.0</ele><time>2026-05-02T12:46:29Z</time></trkpt><trkpt lat="42.05703981581197" lon="13.434884018404619"><ele>769.0</ele><time>2026-05-02T12:46:30Z</time></trkpt><trkpt lat="42.05708104804833" lon="13.434724606696472"><ele>769.0</ele><time>2026-05-02T12:46:31Z</time></trkpt><trkpt lat="42.057114163041305" lon="13.434606583997557"><ele>769.0</ele><time>2026-05-02T12:46:32Z</time></trkpt><trkpt lat="42.05712787756337" lon="13.434504295465029"><ele>769.0</ele><time>2026-05-02T12:46:33Z</time></trkpt><trkpt lat="42.057191078104886" lon="13.434426142058209"><ele>769.0</ele><time>2026-05-02T12:46:34Z</time></trkpt><trkpt lat="42.057277195480346" lon="13.434376705647715"><ele>769.25</ele><time>2026-05-02T12:46:35Z</time></trkpt><trkpt lat="42.05738835313175" lon="13.434332026055479"><ele>769.5</ele><time>2026-05-02T12:46:36.001Z</time></trkpt><trkpt lat="42.05751144807295" lon="13.43433264873386"><ele>769.75</ele><time>2026-05-02T12:46:37.001Z</time></trkpt><trkpt lat="42.05766981594919" lon="13.434348876604645"><ele>770.0</ele><time>2026-05-02T12:46:38.001Z</time></trkpt><trkpt lat="42.05784602185614" lon="13.434373490884568"><ele>770.0</ele><time>2026-05-02T12:46:39.001Z</time></trkpt><trkpt lat="42.05802900912526" lon="13.434398900969102"><ele>770.0</ele><time>2026-05-02T12:46:40.001Z</time></trkpt><trkpt lat="42.05822332698882" lon="13.434429603945446"><ele>770.0</ele><time>2026-05-02T12:46:41.001Z</time></trkpt><trkpt lat="42.0584252273042" lon="13.434461609190834"><ele>772.0</ele><time>2026-05-02T12:46:42.001Z</time></trkpt><trkpt lat="42.05862477370708" lon="13.434491262430898"><ele>774.0</ele><time>2026-05-02T12:46:43.001Z</time></trkpt><trkpt lat="42.05882365141284" lon="13.434513105239766"><ele>776.0</ele><time>2026-05-02T12:46:44.001Z</time></trkpt><trkpt lat="42.05902979638561" lon="13.434543098372096"><ele>777.6666666666667</ele><time>2026-05-02T12:46:45.001Z</time></trkpt><trkpt lat="42.05924590336765" lon="13.434565871433325"><ele>779.3333333333333</ele><time>2026-05-02T12:46:46.001Z</time></trkpt><trkpt lat="42.05946089102116" lon="13.434596755127368"><ele>781.0</ele><time>2026-05-02T12:46:47.001Z</time></trkpt><trkpt lat="42.05967936358491" lon="13.434622017820002"><ele>781.3333333333333</ele><time>2026-05-02T12:46:48.001Z</time></trkpt><trkpt lat="42.059899464746074" lon="13.434648614446791"><ele>781.6666666666667</ele><time>2026-05-02T12:46:49.001Z</time></trkpt><trkpt lat="42.060116320583305" lon="13.434674227423528"><ele>782.0</ele><time>2026-05-02T12:46:50.001Z</time></trkpt><trkpt lat="42.06032986012802" lon="13.434697402727735"><ele>783.3333333333334</ele><time>2026-05-02T12:46:51.001Z</time></trkpt><trkpt lat="42.0605440102124" lon="13.434724131456244"><ele>784.6666666666667</ele><time>2026-05-02T12:46:52.001Z</time></trkpt><trkpt lat="42.060759363622914" lon="13.434753790712834"><ele>786.0</ele><time>2026-05-02T12:46:53.001Z</time></trkpt><trkpt lat="42.06097196854555" lon="13.434782840755668"><ele>786.0</ele><time>2026-05-02T12:46:54.001Z</time></trkpt><trkpt lat="42.06119022454643" lon="13.434804414464729"><ele>786.0</ele><time>2026-05-02T12:46:55.001Z</time></trkpt><trkpt lat="42.06140911497144" lon="13.434831051978438"><ele>786.0</ele><time>2026-05-02T12:46:56.001Z</time></trkpt><trkpt lat="42.061627112770395" lon="13.434866645290947"><ele>787.3333333333333</ele><time>2026-05-02T12:46:57.001Z</time></trkpt><trkpt lat="42.061845998314666" lon="13.434895130668822"><ele>788.6666666666666</ele><time>2026-05-02T12:46:58.001Z</time></trkpt><trkpt lat="42.062067205550385" lon="13.4349211049395"><ele>790.0</ele><time>2026-05-02T12:46:59.001Z</time></trkpt><trkpt lat="42.06228842114074" lon="13.434945341815641"><ele>791.3333333333333</ele><time>2026-05-02T12:47:00.001Z</time></trkpt><trkpt lat="42.06250995421645" lon="13.434977143000593"><ele>792.6666666666667</ele><time>2026-05-02T12:47:01.001Z</time></trkpt><trkpt lat="42.06273128250711" lon="13.435004370943732"><ele>794.0</ele><time>2026-05-02T12:47:02.001Z</time></trkpt><trkpt lat="42.06295408065803" lon="13.435034202107866"><ele>794.0</ele><time>2026-05-02T12:47:03.001Z</time></trkpt><trkpt lat="42.06317899374542" lon="13.435062517449138"><ele>794.0</ele><time>2026-05-02T12:47:04.001Z</time></trkpt><trkpt lat="42.063402578184025" lon="13.435094632991575"><ele>796.0</ele><time>2026-05-02T12:47:05.001Z</time></trkpt><trkpt lat="42.06362346104913" lon="13.435124826887726"><ele>798.0</ele><time>2026-05-02T12:47:06.001Z</time></trkpt><trkpt lat="42.063843144684064" lon="13.435156822183757"><ele>800.0</ele><time>2026-05-02T12:47:07.001Z</time></trkpt><trkpt lat="42.0640651677052" lon="13.43518372083595"><ele>800.6666666666667</ele><time>2026-05-02T12:47:08.001Z</time></trkpt><trkpt lat="42.06428695113264" lon="13.435209278622416"><ele>801.3333333333333</ele><time>2026-05-02T12:47:09.001Z</time></trkpt><trkpt lat="42.06450995639076" lon="13.43523573201715"><ele>802.0</ele><time>2026-05-02T12:47:10.001Z</time></trkpt><trkpt lat="42.064732896683886" lon="13.435263306843344"><ele>802.3333333333333</ele><time>2026-05-02T12:47:11.001Z</time></trkpt><trkpt lat="42.06495583883844" lon="13.435289552630467"><ele>802.6666666666667</ele><time>2026-05-02T12:47:12.001Z</time></trkpt><trkpt lat="42.06517926055199" lon="13.43531667291586"><ele>803.0</ele><time>2026-05-02T12:47:13Z</time></trkpt><trkpt lat="42.065402164907844" lon="13.435343113063368"><ele>803.0</ele><time>2026-05-02T12:47:14Z</time></trkpt><trkpt lat="42.065621803883786" lon="13.435370119009951"><ele>803.0</ele><time>2026-05-02T12:47:15Z</time></trkpt><trkpt lat="42.06584012898116" lon="13.435394256480796"><ele>803.0</ele><time>2026-05-02T12:47:16Z</time></trkpt><trkpt lat="42.06605457523761" lon="13.43541022667634"><ele>804.3333333333334</ele><time>2026-05-02T12:47:17Z</time></trkpt><trkpt lat="42.06626897385578" lon="13.435414620805117"><ele>805.6666666666667</ele><time>2026-05-02T12:47:18Z</time></trkpt><trkpt lat="42.066484254211794" lon="13.435411693615578"><ele>807.0</ele><time>2026-05-02T12:47:19Z</time></trkpt><trkpt lat="42.066696926197345" lon="13.435396867679644"><ele>808.6666666666667</ele><time>2026-05-02T12:47:20Z</time></trkpt><trkpt lat="42.066911178024164" lon="13.435375645809678"><ele>810.3333333333334</ele><time>2026-05-02T12:47:21Z</time></trkpt><trkpt lat="42.06712837478024" lon="13.43535046540594"><ele>812.0</ele><time>2026-05-02T12:47:22Z</time></trkpt><trkpt lat="42.06734840938129" lon="13.435323456342296"><ele>812.0</ele><time>2026-05-02T12:47:23Z</time></trkpt><trkpt lat="42.06756461924655" lon="13.435293151784899"><ele>812.0</ele><time>2026-05-02T12:47:24Z</time></trkpt><trkpt lat="42.06778203892592" lon="13.43526454509156"><ele>812.0</ele><time>2026-05-02T12:47:25Z</time></trkpt><trkpt lat="42.067999024435025" lon="13.435231330522866"><ele>812.0</ele><time>2026-05-02T12:47:26Z</time></trkpt><trkpt lat="42.06821918638985" lon="13.435201696858499"><ele>812.0</ele><time>2026-05-02T12:47:27Z</time></trkpt><trkpt lat="42.06843772160139" lon="13.435167690934861"><ele>812.0</ele><time>2026-05-02T12:47:28Z</time></trkpt><trkpt lat="42.068658071362336" lon="13.435140302878022"><ele>812.6666666666667</ele><time>2026-05-02T12:47:29Z</time></trkpt><trkpt lat="42.06887262189891" lon="13.435107730687818"><ele>813.3333333333333</ele><time>2026-05-02T12:47:30Z</time></trkpt><trkpt lat="42.069091924275625" lon="13.435074794929688"><ele>814.0</ele><time>2026-05-02T12:47:31Z</time></trkpt><trkpt lat="42.069310557097715" lon="13.43504733625494"><ele>815.0</ele><time>2026-05-02T12:47:32Z</time></trkpt><trkpt lat="42.06952561777902" lon="13.435016143327024"><ele>816.0</ele><time>2026-05-02T12:47:33Z</time></trkpt><trkpt lat="42.06974292469386" lon="13.434984113783013"><ele>817.0</ele><time>2026-05-02T12:47:34Z</time></trkpt><trkpt lat="42.069954996350475" lon="13.434947428323927"><ele>819.0</ele><time>2026-05-02T12:47:35Z</time></trkpt><trkpt lat="42.07016652138205" lon="13.434917491955455"><ele>821.0</ele><time>2026-05-02T12:47:36Z</time></trkpt><trkpt lat="42.070375362259654" lon="13.434883699224281"><ele>823.0</ele><time>2026-05-02T12:47:37Z</time></trkpt><trkpt lat="42.07057954942913" lon="13.434830688580753"><ele>824.3333333333333</ele><time>2026-05-02T12:47:38Z</time></trkpt><trkpt lat="42.07078330005899" lon="13.434749113054782"><ele>825.6666666666667</ele><time>2026-05-02T12:47:39Z</time></trkpt><trkpt lat="42.07097721447403" lon="13.434649556294392"><ele>827.0</ele><time>2026-05-02T12:47:40Z</time></trkpt><trkpt lat="42.0711654457998" lon="13.434532192742275"><ele>828.0</ele><time>2026-05-02T12:47:41Z</time></trkpt><trkpt lat="42.071358792664995" lon="13.43440406395898"><ele>829.0</ele><time>2026-05-02T12:47:42Z</time></trkpt><trkpt lat="42.071534774247574" lon="13.434253209753205"><ele>830.0</ele><time>2026-05-02T12:47:43Z</time></trkpt><trkpt lat="42.07170781293773" lon="13.434092874585732"><ele>831.0</ele><time>2026-05-02T12:47:44Z</time></trkpt><trkpt lat="42.07188757078187" lon="13.433945426986558"><ele>832.0</ele><time>2026-05-02T12:47:45Z</time></trkpt><trkpt lat="42.072054201975824" lon="13.433769495499645"><ele>833.0</ele><time>2026-05-02T12:47:46Z</time></trkpt><trkpt lat="42.07222225395795" lon="13.433604167576844"><ele>833.0</ele><time>2026-05-02T12:47:47Z</time></trkpt><trkpt lat="42.07238748442894" lon="13.433442333129301"><ele>833.0</ele><time>2026-05-02T12:47:48Z</time></trkpt><trkpt lat="42.07256653016923" lon="13.43327085140918"><ele>833.0</ele><time>2026-05-02T12:47:49Z</time></trkpt><trkpt lat="42.072738946250254" lon="13.433105036427014"><ele>834.3333333333334</ele><time>2026-05-02T12:47:50Z</time></trkpt><trkpt lat="42.07291247084884" lon="13.432938966231008"><ele>835.6666666666667</ele><time>2026-05-02T12:47:51Z</time></trkpt><trkpt lat="42.07308803306273" lon="13.432775472687787"><ele>837.0</ele><time>2026-05-02T12:47:52Z</time></trkpt><trkpt lat="42.073258114902686" lon="13.432608490169352"><ele>839.3333333333333</ele><time>2026-05-02T12:47:53Z</time></trkpt><trkpt lat="42.073430794576005" lon="13.432444238067296"><ele>841.6666666666666</ele><time>2026-05-02T12:47:54Z</time></trkpt><trkpt lat="42.07360519016434" lon="13.432285569644204"><ele>844.0</ele><time>2026-05-02T12:47:55Z</time></trkpt><trkpt lat="42.073774988435666" lon="13.432122717951996"><ele>844.0</ele><time>2026-05-02T12:47:56Z</time></trkpt><trkpt lat="42.07394572003751" lon="13.431961004595776"><ele>844.0</ele><time>2026-05-02T12:47:57Z</time></trkpt><trkpt lat="42.07411669706113" lon="13.431797381643163"><ele>844.0</ele><time>2026-05-02T12:47:58Z</time></trkpt><trkpt lat="42.0742871785655" lon="13.431640642387489"><ele>845.6666666666666</ele><time>2026-05-02T12:47:59Z</time></trkpt><trkpt lat="42.07446558891158" lon="13.43149968729213"><ele>847.3333333333333</ele><time>2026-05-02T12:48:00Z</time></trkpt><trkpt lat="42.07464725539112" lon="13.431367237114548"><ele>849.0</ele><time>2026-05-02T12:48:01Z</time></trkpt><trkpt lat="42.0748325425963" lon="13.431244911321153"><ele>850.6666666666667</ele><time>2026-05-02T12:48:02Z</time></trkpt><trkpt lat="42.07502122927609" lon="13.431134273148016"><ele>852.3333333333334</ele><time>2026-05-02T12:48:03Z</time></trkpt><trkpt lat="42.075212550376826" lon="13.431039884274481"><ele>854.0</ele><time>2026-05-02T12:48:04Z</time></trkpt><trkpt lat="42.07541099233699" lon="13.430956913947291"><ele>854.0</ele><time>2026-05-02T12:48:05Z</time></trkpt><trkpt lat="42.07560632809118" lon="13.430878216716076"><ele>854.0</ele><time>2026-05-02T12:48:06Z</time></trkpt><trkpt lat="42.07580347299495" lon="13.430801158840772"><ele>854.0</ele><time>2026-05-02T12:48:07Z</time></trkpt><trkpt lat="42.07599866574169" lon="13.430720903900966"><ele>856.0</ele><time>2026-05-02T12:48:08Z</time></trkpt><trkpt lat="42.07619527745019" lon="13.430640310400369"><ele>858.0</ele><time>2026-05-02T12:48:09Z</time></trkpt><trkpt lat="42.07639512302991" lon="13.430566925943154"><ele>860.0</ele><time>2026-05-02T12:48:10Z</time></trkpt><trkpt lat="42.076596109507" lon="13.430489756477007"><ele>860.6666666666667</ele><time>2026-05-02T12:48:11Z</time></trkpt><trkpt lat="42.07678902996956" lon="13.430404904832768"><ele>861.3333333333333</ele><time>2026-05-02T12:48:12Z</time></trkpt><trkpt lat="42.07698918388105" lon="13.430324822559836"><ele>862.0</ele><time>2026-05-02T12:48:13Z</time></trkpt><trkpt lat="42.07718678812813" lon="13.430248650040841"><ele>862.0</ele><time>2026-05-02T12:48:14Z</time></trkpt><trkpt lat="42.07738318314275" lon="13.430171600315516"><ele>862.0</ele><time>2026-05-02T12:48:15Z</time></trkpt><trkpt lat="42.07757825278687" lon="13.430098513692808"><ele>862.0</ele><time>2026-05-02T12:48:16Z</time></trkpt><trkpt lat="42.077775453909794" lon="13.430026384193852"><ele>863.6666666666666</ele><time>2026-05-02T12:48:17Z</time></trkpt><trkpt lat="42.077968853081586" lon="13.429953998147921"><ele>865.3333333333333</ele><time>2026-05-02T12:48:18Z</time></trkpt><trkpt lat="42.07816153085627" lon="13.42988053205951"><ele>867.0</ele><time>2026-05-02T12:48:19Z</time></trkpt><trkpt lat="42.07835131286337" lon="13.429813965414022"><ele>867.6666666666667</ele><time>2026-05-02T12:48:20Z</time></trkpt><trkpt lat="42.07854603678408" lon="13.429731156705609"><ele>868.3333333333334</ele><time>2026-05-02T12:48:21Z</time></trkpt><trkpt lat="42.0787403997944" lon="13.429660026247701"><ele>869.0</ele><time>2026-05-02T12:48:22Z</time></trkpt><trkpt lat="42.07893773160095" lon="13.429613237374179"><ele>871.3333333333334</ele><time>2026-05-02T12:48:23Z</time></trkpt><trkpt lat="42.07912632430418" lon="13.429536348782541"><ele>873.6666666666667</ele><time>2026-05-02T12:48:24Z</time></trkpt><trkpt lat="42.07932644220191" lon="13.429500292924095"><ele>876.0</ele><time>2026-05-02T12:48:25Z</time></trkpt><trkpt lat="42.07951913339834" lon="13.429463803374782"><ele>876.0</ele><time>2026-05-02T12:48:26Z</time></trkpt><trkpt lat="42.0797105817164" lon="13.429432895547693"><ele>876.0</ele><time>2026-05-02T12:48:27Z</time></trkpt><trkpt lat="42.079900198850154" lon="13.429405122824281"><ele>876.0</ele><time>2026-05-02T12:48:28Z</time></trkpt><trkpt lat="42.08009156009647" lon="13.429387715523172"><ele>877.3333333333333</ele><time>2026-05-02T12:48:29Z</time></trkpt><trkpt lat="42.080285224649806" lon="13.429368363975602"><ele>878.6666666666666</ele><time>2026-05-02T12:48:30Z</time></trkpt><trkpt lat="42.08048123002492" lon="13.429365683011829"><ele>880.0</ele><time>2026-05-02T12:48:31Z</time></trkpt><trkpt lat="42.0806836212983" lon="13.429362134662801"><ele>881.0</ele><time>2026-05-02T12:48:32Z</time></trkpt><trkpt lat="42.08088713329856" lon="13.429358998637841"><ele>882.0</ele><time>2026-05-02T12:48:33Z</time></trkpt><trkpt lat="42.08109254340653" lon="13.429356233621604"><ele>883.0</ele><time>2026-05-02T12:48:34Z</time></trkpt><trkpt lat="42.081309980631204" lon="13.429344341263544"><ele>883.0</ele><time>2026-05-02T12:48:35Z</time></trkpt><trkpt lat="42.08152348141621" lon="13.429334480185068"><ele>883.0</ele><time>2026-05-02T12:48:36Z</time></trkpt><trkpt lat="42.08174252558202" lon="13.429327637448383"><ele>883.0</ele><time>2026-05-02T12:48:37Z</time></trkpt><trkpt lat="42.08196371963709" lon="13.42931757564977"><ele>881.0</ele><time>2026-05-02T12:48:38Z</time></trkpt><trkpt lat="42.08218870919035" lon="13.429310154168137"><ele>879.0</ele><time>2026-05-02T12:48:39Z</time></trkpt><trkpt lat="42.0824133725317" lon="13.429291779793166"><ele>879.0</ele><time>2026-05-02T12:48:40Z</time></trkpt><trkpt lat="42.082636985159816" lon="13.429273783610364"><ele>879.0</ele><time>2026-05-02T12:48:41Z</time></trkpt><trkpt lat="42.08285411958784" lon="13.429251181441854"><ele>879.0</ele><time>2026-05-02T12:48:42Z</time></trkpt><trkpt lat="42.083066049028695" lon="13.429223375310976"><ele>880.3333333333333</ele><time>2026-05-02T12:48:43Z</time></trkpt><trkpt lat="42.08327610992749" lon="13.429189092504085"><ele>881.6666666666666</ele><time>2026-05-02T12:48:44Z</time></trkpt><trkpt lat="42.08347302512167" lon="13.429146524192236"><ele>883.0</ele><time>2026-05-02T12:48:45Z</time></trkpt><trkpt lat="42.08367516784166" lon="13.429108641261566"><ele>883.0</ele><time>2026-05-02T12:48:46Z</time></trkpt><trkpt lat="42.08387936359396" lon="13.429075341029735"><ele>883.0</ele><time>2026-05-02T12:48:47Z</time></trkpt><trkpt lat="42.084082304142306" lon="13.429039551293316"><ele>883.0</ele><time>2026-05-02T12:48:48Z</time></trkpt><trkpt lat="42.08428247137629" lon="13.428995198387835"><ele>884.0</ele><time>2026-05-02T12:48:49Z</time></trkpt><trkpt lat="42.08448375576046" lon="13.428950966215762"><ele>885.0</ele><time>2026-05-02T12:48:50Z</time></trkpt><trkpt lat="42.084684145926936" lon="13.428904280593462"><ele>886.0</ele><time>2026-05-02T12:48:51Z</time></trkpt><trkpt lat="42.08487973040428" lon="13.428840948384487"><ele>888.3333333333333</ele><time>2026-05-02T12:48:52Z</time></trkpt><trkpt lat="42.085072738384" lon="13.428758108873497"><ele>890.6666666666667</ele><time>2026-05-02T12:48:53Z</time></trkpt><trkpt lat="42.08526848805038" lon="13.42866826033398"><ele>893.0</ele><time>2026-05-02T12:48:54Z</time></trkpt><trkpt lat="42.08545686709777" lon="13.428570803007927"><ele>893.0</ele><time>2026-05-02T12:48:55Z</time></trkpt><trkpt lat="42.0856475369191" lon="13.428467025051107"><ele>893.0</ele><time>2026-05-02T12:48:56Z</time></trkpt><trkpt lat="42.0858407292884" lon="13.428360365005513"><ele>893.0</ele><time>2026-05-02T12:48:57Z</time></trkpt><trkpt lat="42.0860340948287" lon="13.428250371139944"><ele>896.0</ele><time>2026-05-02T12:48:58Z</time></trkpt><trkpt lat="42.08622160156741" lon="13.428138117382892"><ele>899.0</ele><time>2026-05-02T12:48:59.001Z</time></trkpt><trkpt lat="42.08641526874524" lon="13.428021748169579"><ele>902.0</ele><time>2026-05-02T12:49:00.001Z</time></trkpt><trkpt lat="42.08660711603316" lon="13.427909870225495"><ele>903.6666666666667</ele><time>2026-05-02T12:49:01.001Z</time></trkpt><trkpt lat="42.08679938595131" lon="13.427800860173177"><ele>905.3333333333333</ele><time>2026-05-02T12:49:02.001Z</time></trkpt><trkpt lat="42.086988178782406" lon="13.427686095919086"><ele>907.0</ele><time>2026-05-02T12:49:03.001Z</time></trkpt><trkpt lat="42.08718320974953" lon="13.427569174480073"><ele>907.0</ele><time>2026-05-02T12:49:04.001Z</time></trkpt><trkpt lat="42.08737739913314" lon="13.427450703895248"><ele>907.0</ele><time>2026-05-02T12:49:05.001Z</time></trkpt><trkpt lat="42.08756867922825" lon="13.427330439071966"><ele>907.0</ele><time>2026-05-02T12:49:06.001Z</time></trkpt><trkpt lat="42.08776821451207" lon="13.427215198489174"><ele>908.3333333333333</ele><time>2026-05-02T12:49:07.001Z</time></trkpt><trkpt lat="42.08796364101801" lon="13.427096911643146"><ele>909.6666666666667</ele><time>2026-05-02T12:49:08.001Z</time></trkpt><trkpt lat="42.08816029039728" lon="13.426983982524535"><ele>911.0</ele><time>2026-05-02T12:49:09.001Z</time></trkpt><trkpt lat="42.088362229767775" lon="13.426879450013548"><ele>912.3333333333334</ele><time>2026-05-02T12:49:10.001Z</time></trkpt><trkpt lat="42.08856619048989" lon="13.426777262522231"><ele>913.6666666666667</ele><time>2026-05-02T12:49:11.001Z</time></trkpt><trkpt lat="42.08877206474507" lon="13.426681916704409"><ele>915.0</ele><time>2026-05-02T12:49:12.001Z</time></trkpt><trkpt lat="42.088983445807955" lon="13.426588762820161"><ele>917.3333333333333</ele><time>2026-05-02T12:49:13.001Z</time></trkpt><trkpt lat="42.08919642026449" lon="13.426499154783007"><ele>919.6666666666666</ele><time>2026-05-02T12:49:14.001Z</time></trkpt><trkpt lat="42.08941007977363" lon="13.42641461944131"><ele>922.0</ele><time>2026-05-02T12:49:15.001Z</time></trkpt><trkpt lat="42.089626511319196" lon="13.426338532106193"><ele>921.6666666666666</ele><time>2026-05-02T12:49:16.001Z</time></trkpt><trkpt lat="42.0898466124193" lon="13.426278366151557"><ele>921.3333333333333</ele><time>2026-05-02T12:49:17.001Z</time></trkpt><trkpt lat="42.09006370545102" lon="13.426229401694444"><ele>921.0</ele><time>2026-05-02T12:49:18.001Z</time></trkpt><trkpt lat="42.09028358230873" lon="13.426189720578227"><ele>922.0</ele><time>2026-05-02T12:49:19Z</time></trkpt><trkpt lat="42.09049904923013" lon="13.426144855162793"><ele>923.0</ele><time>2026-05-02T12:49:20Z</time></trkpt><trkpt lat="42.09070909086579" lon="13.426085694110386"><ele>924.0</ele><time>2026-05-02T12:49:21Z</time></trkpt><trkpt lat="42.09091557595304" lon="13.42599751339109"><ele>926.0</ele><time>2026-05-02T12:49:22Z</time></trkpt><trkpt lat="42.09111600065283" lon="13.425880900936273"><ele>928.0</ele><time>2026-05-02T12:49:23Z</time></trkpt><trkpt lat="42.091293651566104" lon="13.425750795504326"><ele>930.0</ele><time>2026-05-02T12:49:24Z</time></trkpt><trkpt lat="42.09145871756077" lon="13.425617077094476"><ele>931.0</ele><time>2026-05-02T12:49:25Z</time></trkpt><trkpt lat="42.09161722788455" lon="13.425476262496934"><ele>932.0</ele><time>2026-05-02T12:49:26Z</time></trkpt><trkpt lat="42.09177288716587" lon="13.425330940476528"><ele>933.0</ele><time>2026-05-02T12:49:27Z</time></trkpt><trkpt lat="42.091915088840956" lon="13.425173032693484"><ele>933.0</ele><time>2026-05-02T12:49:28Z</time></trkpt><trkpt lat="42.09203385488687" lon="13.424998988982788"><ele>933.0</ele><time>2026-05-02T12:49:29Z</time></trkpt><trkpt lat="42.09213663126297" lon="13.424814318716662"><ele>933.0</ele><time>2026-05-02T12:49:30Z</time></trkpt><trkpt lat="42.092231092969854" lon="13.424608630313934"><ele>933.3333333333333</ele><time>2026-05-02T12:49:31Z</time></trkpt><trkpt lat="42.092338964921176" lon="13.424404682221146"><ele>933.6666666666666</ele><time>2026-05-02T12:49:32Z</time></trkpt><trkpt lat="42.09245194476607" lon="13.424206772460746"><ele>934.0</ele><time>2026-05-02T12:49:33Z</time></trkpt><trkpt lat="42.09255551141331" lon="13.424021582466578"><ele>934.0</ele><time>2026-05-02T12:49:34Z</time></trkpt><trkpt lat="42.092646624602374" lon="13.423860398979636"><ele>934.0</ele><time>2026-05-02T12:49:35Z</time></trkpt><trkpt lat="42.0927195887043" lon="13.423713247982725"><ele>934.0</ele><time>2026-05-02T12:49:36Z</time></trkpt><trkpt lat="42.092809741320636" lon="13.42355153303605"><ele>934.0</ele><time>2026-05-02T12:49:37Z</time></trkpt><trkpt lat="42.09289424815304" lon="13.423386417993681"><ele>934.0</ele><time>2026-05-02T12:49:38Z</time></trkpt><trkpt lat="42.09297904816884" lon="13.423219659297542"><ele>934.0</ele><time>2026-05-02T12:49:39Z</time></trkpt><trkpt lat="42.09307639581965" lon="13.423036018462343"><ele>934.0</ele><time>2026-05-02T12:49:40Z</time></trkpt><trkpt lat="42.09316320331754" lon="13.42285361640975"><ele>933.6666666666666</ele><time>2026-05-02T12:49:41Z</time></trkpt><trkpt lat="42.09324511723859" lon="13.422656692375787"><ele>933.3333333333333</ele><time>2026-05-02T12:49:42Z</time></trkpt><trkpt lat="42.09331563383996" lon="13.422437181101545"><ele>933.0</ele><time>2026-05-02T12:49:43Z</time></trkpt><trkpt lat="42.09339399359233" lon="13.422211801068025"><ele>932.3333333333333</ele><time>2026-05-02T12:49:44Z</time></trkpt><trkpt lat="42.09346806007152" lon="13.421980052548001"><ele>931.6666666666666</ele><time>2026-05-02T12:49:45Z</time></trkpt><trkpt lat="42.0935459355932" lon="13.421740366146135"><ele>931.0</ele><time>2026-05-02T12:49:46Z</time></trkpt><trkpt lat="42.09363130531921" lon="13.421499704227557"><ele>929.6666666666666</ele><time>2026-05-02T12:49:47Z</time></trkpt><trkpt lat="42.093709598841976" lon="13.42125452018834"><ele>928.3333333333333</ele><time>2026-05-02T12:49:48Z</time></trkpt><trkpt lat="42.09378737270262" lon="13.42101005617054"><ele>927.0</ele><time>2026-05-02T12:49:49Z</time></trkpt><trkpt lat="42.09386584324813" lon="13.420765306873712"><ele>927.0</ele><time>2026-05-02T12:49:50Z</time></trkpt><trkpt lat="42.09394171609218" lon="13.42052629723043"><ele>927.0</ele><time>2026-05-02T12:49:51Z</time></trkpt><trkpt lat="42.094007287765386" lon="13.420274692315322"><ele>927.0</ele><time>2026-05-02T12:49:52Z</time></trkpt><trkpt lat="42.09405739273247" lon="13.420016471741633"><ele>926.3333333333333</ele><time>2026-05-02T12:49:53Z</time></trkpt><trkpt lat="42.0940832887637" lon="13.419740547841842"><ele>925.6666666666666</ele><time>2026-05-02T12:49:54Z</time></trkpt><trkpt lat="42.09410816800692" lon="13.419464006991541"><ele>925.0</ele><time>2026-05-02T12:49:55Z</time></trkpt><trkpt lat="42.09413246617711" lon="13.419189332662272"><ele>924.3333333333333</ele><time>2026-05-02T12:49:56Z</time></trkpt><trkpt lat="42.09415541890293" lon="13.418919761218477"><ele>923.6666666666667</ele><time>2026-05-02T12:49:57Z</time></trkpt><trkpt lat="42.09417522419784" lon="13.418659777484786"><ele>923.0</ele><time>2026-05-02T12:49:58Z</time></trkpt><trkpt lat="42.094179075606114" lon="13.418406239890386"><ele>921.6666666666667</ele><time>2026-05-02T12:49:59Z</time></trkpt><trkpt lat="42.0941511382542" lon="13.41814738571298"><ele>920.3333333333333</ele><time>2026-05-02T12:50:00Z</time></trkpt><trkpt lat="42.09409747641801" lon="13.417902265539789"><ele>919.0</ele><time>2026-05-02T12:50:01Z</time></trkpt><trkpt lat="42.09402994811735" lon="13.417656720023343"><ele>918.0</ele><time>2026-05-02T12:50:02Z</time></trkpt><trkpt lat="42.09395986855974" lon="13.417409138663611"><ele>917.0</ele><time>2026-05-02T12:50:03Z</time></trkpt><trkpt lat="42.09389596745346" lon="13.417168005222676"><ele>916.0</ele><time>2026-05-02T12:50:04Z</time></trkpt><trkpt lat="42.09383771467928" lon="13.416942837061168"><ele>915.0</ele><time>2026-05-02T12:50:05Z</time></trkpt><trkpt lat="42.09378555727424" lon="13.41672660380133"><ele>914.0</ele><time>2026-05-02T12:50:06Z</time></trkpt><trkpt lat="42.09373391140389" lon="13.416527310087325"><ele>913.0</ele><time>2026-05-02T12:50:07Z</time></trkpt><trkpt lat="42.09369065979917" lon="13.41635069542664"><ele>912.2</ele><time>2026-05-02T12:50:08Z</time></trkpt><trkpt lat="42.09365108849295" lon="13.416192749728912"><ele>911.4</ele><time>2026-05-02T12:50:09Z</time></trkpt><trkpt lat="42.093619841606234" lon="13.416049846351763"><ele>910.6000000000001</ele><time>2026-05-02T12:50:10Z</time></trkpt><trkpt lat="42.09359352397941" lon="13.415932723114269"><ele>909.8000000000001</ele><time>2026-05-02T12:50:11Z</time></trkpt><trkpt lat="42.093564893058065" lon="13.41580027616763"><ele>909.0</ele><time>2026-05-02T12:50:13Z</time></trkpt><trkpt lat="42.093542287554584" lon="13.415707943677766"><ele>909.0</ele><time>2026-05-02T12:50:16Z</time></trkpt><trkpt lat="42.0935016037516" lon="13.415581766698555"><ele>909.0000000000001</ele><time>2026-05-02T12:51:43Z</time></trkpt><trkpt lat="42.09347444130739" lon="13.41549170731416"><ele>909.0000000000001</ele><time>2026-05-02T12:51:44Z</time></trkpt><trkpt lat="42.09344474748887" lon="13.415383154036514"><ele>909.0</ele><time>2026-05-02T12:51:45Z</time></trkpt><trkpt lat="42.09341312911367" lon="13.415263685436695"><ele>909.0</ele><time>2026-05-02T12:51:46Z</time></trkpt><trkpt lat="42.09338416993277" lon="13.415128591511275"><ele>908.5</ele><time>2026-05-02T12:51:47Z</time></trkpt><trkpt lat="42.0933491876483" lon="13.414984390176953"><ele>908.0</ele><time>2026-05-02T12:51:48Z</time></trkpt><trkpt lat="42.09331505252391" lon="13.414826573010203"><ele>907.5</ele><time>2026-05-02T12:51:49Z</time></trkpt><trkpt lat="42.09328328250353" lon="13.41465914074832"><ele>907.0</ele><time>2026-05-02T12:51:50Z</time></trkpt><trkpt lat="42.09325352810854" lon="13.414470834784165"><ele>905.6666666666666</ele><time>2026-05-02T12:51:51Z</time></trkpt><trkpt lat="42.0932244468283" lon="13.414271804825857"><ele>904.3333333333333</ele><time>2026-05-02T12:51:52Z</time></trkpt><trkpt lat="42.09319686404565" lon="13.414075274508937"><ele>903.0</ele><time>2026-05-02T12:51:53Z</time></trkpt><trkpt lat="42.0931687121923" lon="13.413867687291607"><ele>901.6666666666667</ele><time>2026-05-02T12:51:54Z</time></trkpt><trkpt lat="42.093140987264306" lon="13.413652409083905"><ele>900.3333333333334</ele><time>2026-05-02T12:51:55Z</time></trkpt><trkpt lat="42.093120636611694" lon="13.413430979344811"><ele>899.0</ele><time>2026-05-02T12:51:56Z</time></trkpt><trkpt lat="42.09309001259282" lon="13.413201877851966"><ele>899.0</ele><time>2026-05-02T12:51:57Z</time></trkpt><trkpt lat="42.09306217456135" lon="13.412969972210858"><ele>899.0</ele><time>2026-05-02T12:51:58Z</time></trkpt><trkpt lat="42.09303147559904" lon="13.412734791768774"><ele>899.0</ele><time>2026-05-02T12:51:59Z</time></trkpt><trkpt lat="42.092999763509845" lon="13.412492473487562"><ele>899.0</ele><time>2026-05-02T12:52:00Z</time></trkpt><trkpt lat="42.092967001652205" lon="13.412245710707426"><ele>899.0</ele><time>2026-05-02T12:52:01Z</time></trkpt><trkpt lat="42.092934800972166" lon="13.4119923487726"><ele>899.0</ele><time>2026-05-02T12:52:02Z</time></trkpt><trkpt lat="42.09290356707116" lon="13.411736582986727"><ele>897.3333333333334</ele><time>2026-05-02T12:52:03Z</time></trkpt><trkpt lat="42.092871352862126" lon="13.41147324248667"><ele>895.6666666666667</ele><time>2026-05-02T12:52:04Z</time></trkpt><trkpt lat="42.09283838446304" lon="13.411209157517707"><ele>894.0</ele><time>2026-05-02T12:52:05Z</time></trkpt><trkpt lat="42.092804877996066" lon="13.41094314305816"><ele>892.0</ele><time>2026-05-02T12:52:06Z</time></trkpt><trkpt lat="42.092768528418375" lon="13.410673420224196"><ele>890.0</ele><time>2026-05-02T12:52:07Z</time></trkpt><trkpt lat="42.09273259188242" lon="13.41040005585824"><ele>888.0</ele><time>2026-05-02T12:52:08Z</time></trkpt><trkpt lat="42.09270159985651" lon="13.410127437060309"><ele>886.3333333333333</ele><time>2026-05-02T12:52:09Z</time></trkpt><trkpt lat="42.092667404675424" lon="13.409851785483156"><ele>884.6666666666666</ele><time>2026-05-02T12:52:10Z</time></trkpt><trkpt lat="42.092631206614044" lon="13.40957228752405"><ele>883.0</ele><time>2026-05-02T12:52:11Z</time></trkpt><trkpt lat="42.09259554022936" lon="13.409292538649552"><ele>883.0</ele><time>2026-05-02T12:52:12Z</time></trkpt><trkpt lat="42.09256005481089" lon="13.409011103512974"><ele>883.0</ele><time>2026-05-02T12:52:13Z</time></trkpt><trkpt lat="42.092529625798214" lon="13.408734038098375"><ele>883.0</ele><time>2026-05-02T12:52:14Z</time></trkpt><trkpt lat="42.0924925423321" lon="13.408454784793813"><ele>881.3333333333333</ele><time>2026-05-02T12:52:15Z</time></trkpt><trkpt lat="42.092451054137044" lon="13.408178791565069"><ele>879.6666666666667</ele><time>2026-05-02T12:52:16Z</time></trkpt><trkpt lat="42.092401193323944" lon="13.407904479484545"><ele>878.0</ele><time>2026-05-02T12:52:17Z</time></trkpt><trkpt lat="42.09234753350818" lon="13.407630659155238"><ele>876.6666666666667</ele><time>2026-05-02T12:52:18Z</time></trkpt><trkpt lat="42.09229097422085" lon="13.407356290501713"><ele>875.3333333333333</ele><time>2026-05-02T12:52:19Z</time></trkpt><trkpt lat="42.09223342789327" lon="13.407086116846102"><ele>874.0</ele><time>2026-05-02T12:52:20Z</time></trkpt><trkpt lat="42.092176830799524" lon="13.40682437136638"><ele>872.0</ele><time>2026-05-02T12:52:21Z</time></trkpt><trkpt lat="42.09212424195088" lon="13.406582133115771"><ele>870.0</ele><time>2026-05-02T12:52:22Z</time></trkpt><trkpt lat="42.09207566902338" lon="13.406369441852378"><ele>868.0</ele><time>2026-05-02T12:52:23Z</time></trkpt><trkpt lat="42.09204145073257" lon="13.406165217787372"><ele>866.6666666666666</ele><time>2026-05-02T12:52:24Z</time></trkpt><trkpt lat="42.09204107838786" lon="13.405961478527743"><ele>865.3333333333333</ele><time>2026-05-02T12:52:25Z</time></trkpt><trkpt lat="42.092074736275684" lon="13.405748338349799"><ele>864.0</ele><time>2026-05-02T12:52:26Z</time></trkpt><trkpt lat="42.092147890957484" lon="13.405537172152236"><ele>863.0</ele><time>2026-05-02T12:52:27Z</time></trkpt><trkpt lat="42.092242991372494" lon="13.405327220744287"><ele>862.0</ele><time>2026-05-02T12:52:28Z</time></trkpt><trkpt lat="42.09236129919395" lon="13.405130547742903"><ele>861.0</ele><time>2026-05-02T12:52:29Z</time></trkpt><trkpt lat="42.09250267655173" lon="13.40494679242251"><ele>861.0</ele><time>2026-05-02T12:52:30Z</time></trkpt><trkpt lat="42.09265220118942" lon="13.404764191114252"><ele>861.0</ele><time>2026-05-02T12:52:31Z</time></trkpt><trkpt lat="42.09280528966265" lon="13.404583105282825"><ele>861.0</ele><time>2026-05-02T12:52:32Z</time></trkpt><trkpt lat="42.092966393790725" lon="13.404401200223813"><ele>860.3333333333333</ele><time>2026-05-02T12:52:33Z</time></trkpt><trkpt lat="42.09312043765936" lon="13.404215469215801"><ele>859.6666666666666</ele><time>2026-05-02T12:52:34Z</time></trkpt><trkpt lat="42.093276140464155" lon="13.404031545995322"><ele>859.0</ele><time>2026-05-02T12:52:35Z</time></trkpt><trkpt lat="42.0934386511694" lon="13.4038550389856"><ele>857.3333333333333</ele><time>2026-05-02T12:52:36Z</time></trkpt><trkpt lat="42.093613585590006" lon="13.403693971790267"><ele>855.6666666666667</ele><time>2026-05-02T12:52:37Z</time></trkpt><trkpt lat="42.09380107216253" lon="13.403555265467851"><ele>854.0</ele><time>2026-05-02T12:52:38Z</time></trkpt><trkpt lat="42.09399256926385" lon="13.403436886283778"><ele>854.3333333333334</ele><time>2026-05-02T12:52:39.001Z</time></trkpt><trkpt lat="42.09418648442261" lon="13.403326234834351"><ele>854.6666666666667</ele><time>2026-05-02T12:52:40.001Z</time></trkpt><trkpt lat="42.09437426923466" lon="13.40320941907332"><ele>855.0</ele><time>2026-05-02T12:52:41.001Z</time></trkpt><trkpt lat="42.09457098178813" lon="13.403095991120304"><ele>854.6666666666667</ele><time>2026-05-02T12:52:42.001Z</time></trkpt><trkpt lat="42.09476583454666" lon="13.402978097717797"><ele>854.3333333333334</ele><time>2026-05-02T12:52:43.001Z</time></trkpt><trkpt lat="42.094962063256865" lon="13.402860611023167"><ele>854.0</ele><time>2026-05-02T12:52:44.001Z</time></trkpt><trkpt lat="42.09515540527168" lon="13.402743988710963"><ele>854.0</ele><time>2026-05-02T12:52:45.001Z</time></trkpt><trkpt lat="42.0953490432493" lon="13.402627610926753"><ele>854.0</ele><time>2026-05-02T12:52:46.001Z</time></trkpt><trkpt lat="42.09554400964604" lon="13.402514271534008"><ele>854.0</ele><time>2026-05-02T12:52:47.001Z</time></trkpt><trkpt lat="42.095737698849504" lon="13.402400396838857"><ele>853.6666666666667</ele><time>2026-05-02T12:52:48.001Z</time></trkpt><trkpt lat="42.09592824527854" lon="13.402279710609086"><ele>853.3333333333333</ele><time>2026-05-02T12:52:49.001Z</time></trkpt><trkpt lat="42.09611845388998" lon="13.402150799661154"><ele>853.0</ele><time>2026-05-02T12:52:50.001Z</time></trkpt><trkpt lat="42.09630431726403" lon="13.402009278085023"><ele>852.3333333333333</ele><time>2026-05-02T12:52:51.001Z</time></trkpt><trkpt lat="42.096486329930315" lon="13.401862300025089"><ele>851.6666666666667</ele><time>2026-05-02T12:52:52.001Z</time></trkpt><trkpt lat="42.09666954016748" lon="13.40170975582502"><ele>851.0</ele><time>2026-05-02T12:52:53.001Z</time></trkpt><trkpt lat="42.096856046299706" lon="13.401556271176299"><ele>850.0</ele><time>2026-05-02T12:52:54.001Z</time></trkpt><trkpt lat="42.09703746626675" lon="13.40140003901723"><ele>849.0</ele><time>2026-05-02T12:52:55.001Z</time></trkpt><trkpt lat="42.09721776326855" lon="13.401232697714454"><ele>848.0</ele><time>2026-05-02T12:52:56.001Z</time></trkpt><trkpt lat="42.09739716514332" lon="13.401059092049675"><ele>847.0</ele><time>2026-05-02T12:52:57.001Z</time></trkpt><trkpt lat="42.09757450091086" lon="13.40088172350545"><ele>846.0</ele><time>2026-05-02T12:52:58.001Z</time></trkpt><trkpt lat="42.097749143786324" lon="13.400699632621139"><ele>845.0</ele><time>2026-05-02T12:52:59.001Z</time></trkpt><trkpt lat="42.09792429456881" lon="13.400517354216033"><ele>844.6666666666667</ele><time>2026-05-02T12:53:00.001Z</time></trkpt><trkpt lat="42.09810249289613" lon="13.400337974499973"><ele>844.3333333333333</ele><time>2026-05-02T12:53:01.001Z</time></trkpt><trkpt lat="42.09827667568307" lon="13.40015958278294"><ele>844.0</ele><time>2026-05-02T12:53:02.001Z</time></trkpt><trkpt lat="42.09845417162987" lon="13.399978918004146"><ele>843.6666666666666</ele><time>2026-05-02T12:53:03.001Z</time></trkpt><trkpt lat="42.09862883057826" lon="13.399799561989042"><ele>843.3333333333333</ele><time>2026-05-02T12:53:04.001Z</time></trkpt><trkpt lat="42.09879647221446" lon="13.399612199478874"><ele>843.0</ele><time>2026-05-02T12:53:05.001Z</time></trkpt><trkpt lat="42.098957678405284" lon="13.399414650393805"><ele>842.0</ele><time>2026-05-02T12:53:06.001Z</time></trkpt><trkpt lat="42.09911256447152" lon="13.399199187622381"><ele>841.0</ele><time>2026-05-02T12:53:07.001Z</time></trkpt><trkpt lat="42.099263084901445" lon="13.398977724085489"><ele>840.0</ele><time>2026-05-02T12:53:08.001Z</time></trkpt><trkpt lat="42.099415644821406" lon="13.398758039703358"><ele>839.0</ele><time>2026-05-02T12:53:09.001Z</time></trkpt><trkpt lat="42.09957046278026" lon="13.39854161870651"><ele>838.0</ele><time>2026-05-02T12:53:10.001Z</time></trkpt><trkpt lat="42.099728854792986" lon="13.398328449860482"><ele>837.0</ele><time>2026-05-02T12:53:11.001Z</time></trkpt><trkpt lat="42.09988750134552" lon="13.398118313468299"><ele>834.5</ele><time>2026-05-02T12:53:12.001Z</time></trkpt><trkpt lat="42.10005845057387" lon="13.397923054497864"><ele>832.0</ele><time>2026-05-02T12:53:13.001Z</time></trkpt><trkpt lat="42.100235201799016" lon="13.39773379114519"><ele>832.0</ele><time>2026-05-02T12:53:14.001Z</time></trkpt><trkpt lat="42.10041721903042" lon="13.39755042630904"><ele>832.0</ele><time>2026-05-02T12:53:15.001Z</time></trkpt><trkpt lat="42.10060098797112" lon="13.397367373900579"><ele>832.5</ele><time>2026-05-02T12:53:16.001Z</time></trkpt><trkpt lat="42.10078320468618" lon="13.397180162699076"><ele>833.0</ele><time>2026-05-02T12:53:17.001Z</time></trkpt><trkpt lat="42.1009638396921" lon="13.396993377088092"><ele>831.0</ele><time>2026-05-02T12:53:18.001Z</time></trkpt><trkpt lat="42.1011474614907" lon="13.39681037234526"><ele>829.0</ele><time>2026-05-02T12:53:19.001Z</time></trkpt><trkpt lat="42.10133082610771" lon="13.396625560479889"><ele>829.0</ele><time>2026-05-02T12:53:20.001Z</time></trkpt><trkpt lat="42.10151490520296" lon="13.396441976164992"><ele>829.0</ele><time>2026-05-02T12:53:21.001Z</time></trkpt><trkpt lat="42.1016931825708" lon="13.396259226411923"><ele>827.6666666666666</ele><time>2026-05-02T12:53:22.001Z</time></trkpt><trkpt lat="42.10186230102713" lon="13.396085776613734"><ele>826.3333333333333</ele><time>2026-05-02T12:53:23.001Z</time></trkpt><trkpt lat="42.102014256307896" lon="13.395936940109838"><ele>825.0</ele><time>2026-05-02T12:53:24.001Z</time></trkpt><trkpt lat="42.10215771923876" lon="13.39579438589646"><ele>825.0</ele><time>2026-05-02T12:53:25.001Z</time></trkpt><trkpt lat="42.10229961779746" lon="13.395669321113246"><ele>825.0</ele><time>2026-05-02T12:53:26.001Z</time></trkpt><trkpt lat="42.10244247949266" lon="13.395560313132986"><ele>825.0</ele><time>2026-05-02T12:53:27.001Z</time></trkpt><trkpt lat="42.10258672945302" lon="13.395473690656605"><ele>823.75</ele><time>2026-05-02T12:53:28.001Z</time></trkpt><trkpt lat="42.10272730712175" lon="13.395418453281408"><ele>822.5</ele><time>2026-05-02T12:53:29.001Z</time></trkpt><trkpt lat="42.10285298801309" lon="13.395367741854223"><ele>821.25</ele><time>2026-05-02T12:53:30.001Z</time></trkpt><trkpt lat="42.10297673268891" lon="13.39533770393161"><ele>820.0</ele><time>2026-05-02T12:53:31Z</time></trkpt><trkpt lat="42.103072773609846" lon="13.395301935061099"><ele>820.0</ele><time>2026-05-02T12:53:32Z</time></trkpt><trkpt lat="42.10314223486946" lon="13.395243212031009"><ele>820.0</ele><time>2026-05-02T12:53:33Z</time></trkpt><trkpt lat="42.10316468857753" lon="13.395112047047409"><ele>820.0</ele><time>2026-05-02T12:53:35Z</time></trkpt><trkpt lat="42.10303837556784" lon="13.394998752443373"><ele>820.0</ele><time>2026-05-02T12:53:37Z</time></trkpt><trkpt lat="42.102941902098046" lon="13.394956962691646"><ele>820.0</ele><time>2026-05-02T12:53:38Z</time></trkpt><trkpt lat="42.10282813431823" lon="13.39486941430545"><ele>820.0</ele><time>2026-05-02T12:53:39Z</time></trkpt><trkpt lat="42.102712846357164" lon="13.394763272119587"><ele>820.0</ele><time>2026-05-02T12:53:40Z</time></trkpt><trkpt lat="42.102575960505085" lon="13.394633013409354"><ele>820.0</ele><time>2026-05-02T12:53:41Z</time></trkpt><trkpt lat="42.10243951245653" lon="13.394487644312383"><ele>819.3333333333333</ele><time>2026-05-02T12:53:42Z</time></trkpt><trkpt lat="42.10230372667226" lon="13.394348468664873"><ele>818.6666666666667</ele><time>2026-05-02T12:53:43Z</time></trkpt><trkpt lat="42.102167083593685" lon="13.394200090003569"><ele>818.0</ele><time>2026-05-02T12:53:44Z</time></trkpt><trkpt lat="42.10202175033436" lon="13.394046818617777"><ele>818.0</ele><time>2026-05-02T12:53:45Z</time></trkpt><trkpt lat="42.101871806200364" lon="13.393888228598723"><ele>818.0</ele><time>2026-05-02T12:53:46Z</time></trkpt><trkpt lat="42.10172048344754" lon="13.393727939062751"><ele>818.0</ele><time>2026-05-02T12:53:47Z</time></trkpt><trkpt lat="42.101571312004644" lon="13.393567877293137"><ele>817.6666666666667</ele><time>2026-05-02T12:53:48Z</time></trkpt><trkpt lat="42.10142285420637" lon="13.393413271233467"><ele>817.3333333333333</ele><time>2026-05-02T12:53:49Z</time></trkpt><trkpt lat="42.10126864016501" lon="13.393259410002301"><ele>817.0</ele><time>2026-05-02T12:53:50Z</time></trkpt><trkpt lat="42.1011207677581" lon="13.393105852990168"><ele>816.0</ele><time>2026-05-02T12:53:51Z</time></trkpt><trkpt lat="42.100973743844605" lon="13.392949685189551"><ele>815.0</ele><time>2026-05-02T12:53:52Z</time></trkpt><trkpt lat="42.100825703881945" lon="13.3927919225204"><ele>814.0</ele><time>2026-05-02T12:53:53Z</time></trkpt><trkpt lat="42.10067926849023" lon="13.392633580552042"><ele>814.0</ele><time>2026-05-02T12:53:54Z</time></trkpt><trkpt lat="42.100538807021046" lon="13.39248760021713"><ele>814.0</ele><time>2026-05-02T12:53:55Z</time></trkpt><trkpt lat="42.10040852898385" lon="13.392353707047874"><ele>814.0</ele><time>2026-05-02T12:53:56Z</time></trkpt><trkpt lat="42.100303155683115" lon="13.392241335722527"><ele>813.8000000000001</ele><time>2026-05-02T12:53:57Z</time></trkpt><trkpt lat="42.100229246060856" lon="13.392162706094664"><ele>813.6</ele><time>2026-05-02T12:53:58Z</time></trkpt><trkpt lat="42.10017310484542" lon="13.392106179924548"><ele>813.4</ele><time>2026-05-02T12:53:59Z</time></trkpt><trkpt lat="42.10012018630232" lon="13.392052820088814"><ele>813.2</ele><time>2026-05-02T12:54:02Z</time></trkpt><trkpt lat="42.100007292366605" lon="13.391963716826448"><ele>813.0</ele><time>2026-05-02T12:54:04Z</time></trkpt><trkpt lat="42.09993009888146" lon="13.391889624255585"><ele>813.25</ele><time>2026-05-02T12:54:05Z</time></trkpt><trkpt lat="42.09985310274375" lon="13.391785554958421"><ele>813.5</ele><time>2026-05-02T12:54:06Z</time></trkpt><trkpt lat="42.099746234198896" lon="13.391665185821008"><ele>813.75</ele><time>2026-05-02T12:54:07Z</time></trkpt><trkpt lat="42.09963749185683" lon="13.39155132356153"><ele>814.0</ele><time>2026-05-02T12:54:08Z</time></trkpt><trkpt lat="42.099515668239526" lon="13.391426617154682"><ele>812.6666666666666</ele><time>2026-05-02T12:54:09Z</time></trkpt><trkpt lat="42.09939153906752" lon="13.391298684165182"><ele>811.3333333333333</ele><time>2026-05-02T12:54:10Z</time></trkpt><trkpt lat="42.09926675280474" lon="13.391164257505167"><ele>810.0</ele><time>2026-05-02T12:54:11Z</time></trkpt><trkpt lat="42.0991356258639" lon="13.391023054613807"><ele>810.3333333333333</ele><time>2026-05-02T12:54:12Z</time></trkpt><trkpt lat="42.09900109894204" lon="13.390880076552001"><ele>810.6666666666666</ele><time>2026-05-02T12:54:13Z</time></trkpt><trkpt lat="42.09886239589245" lon="13.390735650076877"><ele>811.0</ele><time>2026-05-02T12:54:14Z</time></trkpt><trkpt lat="42.098719012739174" lon="13.390591825492526"><ele>810.3333333333333</ele><time>2026-05-02T12:54:15Z</time></trkpt><trkpt lat="42.098580869964294" lon="13.390448480437666"><ele>809.6666666666667</ele><time>2026-05-02T12:54:16Z</time></trkpt><trkpt lat="42.09844015981138" lon="13.39030403366113"><ele>809.0</ele><time>2026-05-02T12:54:17Z</time></trkpt><trkpt lat="42.09829763054956" lon="13.390155555047924"><ele>809.0</ele><time>2026-05-02T12:54:18Z</time></trkpt><trkpt lat="42.09814953236369" lon="13.390008548576839"><ele>809.0</ele><time>2026-05-02T12:54:19Z</time></trkpt><trkpt lat="42.09799361153584" lon="13.389861275968764"><ele>809.0</ele><time>2026-05-02T12:54:20Z</time></trkpt><trkpt lat="42.09784525493105" lon="13.38969012607928"><ele>807.6666666666667</ele><time>2026-05-02T12:54:21Z</time></trkpt><trkpt lat="42.09769274797349" lon="13.389531294809958"><ele>806.3333333333333</ele><time>2026-05-02T12:54:22Z</time></trkpt><trkpt lat="42.09754820061259" lon="13.389379971696432"><ele>805.0</ele><time>2026-05-02T12:54:23Z</time></trkpt><trkpt lat="42.09741163465726" lon="13.389232345130447"><ele>804.6666666666666</ele><time>2026-05-02T12:54:24Z</time></trkpt><trkpt lat="42.097286337613" lon="13.389074158342597"><ele>804.3333333333333</ele><time>2026-05-02T12:54:25Z</time></trkpt><trkpt lat="42.09717101469189" lon="13.388889516436668"><ele>804.0</ele><time>2026-05-02T12:54:26Z</time></trkpt><trkpt lat="42.09708622553492" lon="13.388677542720497"><ele>803.6666666666667</ele><time>2026-05-02T12:54:27Z</time></trkpt><trkpt lat="42.09702924043444" lon="13.388444168266082"><ele>803.3333333333334</ele><time>2026-05-02T12:54:28Z</time></trkpt><trkpt lat="42.09699786902755" lon="13.388193101990549"><ele>803.0</ele><time>2026-05-02T12:54:29Z</time></trkpt><trkpt lat="42.09695956244796" lon="13.387930759327286"><ele>802.0</ele><time>2026-05-02T12:54:30Z</time></trkpt><trkpt lat="42.096918234776254" lon="13.387670171092845"><ele>801.0</ele><time>2026-05-02T12:54:31Z</time></trkpt><trkpt lat="42.09688074006421" lon="13.387405571422201"><ele>800.0</ele><time>2026-05-02T12:54:32Z</time></trkpt><trkpt lat="42.096840646252936" lon="13.387141876398806"><ele>797.3333333333334</ele><time>2026-05-02T12:54:33Z</time></trkpt><trkpt lat="42.09680092717355" lon="13.386880269236325"><ele>794.6666666666667</ele><time>2026-05-02T12:54:34Z</time></trkpt><trkpt lat="42.09677456006815" lon="13.386617827604853"><ele>792.0</ele><time>2026-05-02T12:54:35Z</time></trkpt><trkpt lat="42.096768592577796" lon="13.386345186163283"><ele>791.0</ele><time>2026-05-02T12:54:36Z</time></trkpt><trkpt lat="42.09678776813986" lon="13.386070874663904"><ele>790.0</ele><time>2026-05-02T12:54:37Z</time></trkpt><trkpt lat="42.09681350453428" lon="13.385797866462102"><ele>789.0</ele><time>2026-05-02T12:54:38Z</time></trkpt><trkpt lat="42.096838823675434" lon="13.385530083891814"><ele>788.0</ele><time>2026-05-02T12:54:39Z</time></trkpt><trkpt lat="42.096860916239784" lon="13.385272545437077"><ele>787.0</ele><time>2026-05-02T12:54:40Z</time></trkpt><trkpt lat="42.09687561435144" lon="13.385022125073968"><ele>786.0</ele><time>2026-05-02T12:54:41Z</time></trkpt><trkpt lat="42.09687665577856" lon="13.38476286568376"><ele>785.6666666666667</ele><time>2026-05-02T12:54:42Z</time></trkpt><trkpt lat="42.096847426321695" lon="13.384500107857772"><ele>785.3333333333334</ele><time>2026-05-02T12:54:43Z</time></trkpt><trkpt lat="42.0967819294006" lon="13.384235736796825"><ele>785.0</ele><time>2026-05-02T12:54:44Z</time></trkpt><trkpt lat="42.09670711823294" lon="13.383975759056884"><ele>785.3333333333334</ele><time>2026-05-02T12:54:45Z</time></trkpt><trkpt lat="42.09662826123919" lon="13.383709435332333"><ele>785.6666666666667</ele><time>2026-05-02T12:54:46Z</time></trkpt><trkpt lat="42.09655300894152" lon="13.383440555233474"><ele>786.0</ele><time>2026-05-02T12:54:47Z</time></trkpt><trkpt lat="42.096473435913275" lon="13.383169509588352"><ele>783.6666666666667</ele><time>2026-05-02T12:54:48Z</time></trkpt><trkpt lat="42.09639554752326" lon="13.382906997528105"><ele>781.3333333333334</ele><time>2026-05-02T12:54:49Z</time></trkpt><trkpt lat="42.096315401373445" lon="13.382638363877152"><ele>779.0</ele><time>2026-05-02T12:54:50.001Z</time></trkpt><trkpt lat="42.096236366101195" lon="13.38236711160652"><ele>778.3333333333334</ele><time>2026-05-02T12:54:51.001Z</time></trkpt><trkpt lat="42.09616178277418" lon="13.38209308324624"><ele>777.6666666666667</ele><time>2026-05-02T12:54:52.001Z</time></trkpt><trkpt lat="42.09609063448583" lon="13.381814578722413"><ele>777.0</ele><time>2026-05-02T12:54:53.001Z</time></trkpt><trkpt lat="42.09602534801338" lon="13.381535244934339"><ele>776.3333333333333</ele><time>2026-05-02T12:54:54.001Z</time></trkpt><trkpt lat="42.09596447582172" lon="13.381251679528825"><ele>775.6666666666666</ele><time>2026-05-02T12:54:55.001Z</time></trkpt><trkpt lat="42.09590560859913" lon="13.380969059864519"><ele>775.0</ele><time>2026-05-02T12:54:56.001Z</time></trkpt><trkpt lat="42.0958455924608" lon="13.380686433552187"><ele>773.6666666666666</ele><time>2026-05-02T12:54:57.001Z</time></trkpt><trkpt lat="42.09578129151894" lon="13.380396958242219"><ele>772.3333333333333</ele><time>2026-05-02T12:54:58.001Z</time></trkpt><trkpt lat="42.095720771602814" lon="13.380107707188964"><ele>771.0</ele><time>2026-05-02T12:54:59.001Z</time></trkpt><trkpt lat="42.09565864769118" lon="13.37981871714617"><ele>767.6666666666666</ele><time>2026-05-02T12:55:00.001Z</time></trkpt><trkpt lat="42.095595112439646" lon="13.37952992944889"><ele>764.3333333333333</ele><time>2026-05-02T12:55:01.001Z</time></trkpt><trkpt lat="42.09553713333747" lon="13.379241583880576"><ele>761.0</ele><time>2026-05-02T12:55:02.001Z</time></trkpt><trkpt lat="42.0954779262887" lon="13.378952628900612"><ele>761.6666666666666</ele><time>2026-05-02T12:55:03.001Z</time></trkpt><trkpt lat="42.095417246286374" lon="13.378665328170845"><ele>762.3333333333334</ele><time>2026-05-02T12:55:04.001Z</time></trkpt><trkpt lat="42.095355906110896" lon="13.378379144816646"><ele>763.0</ele><time>2026-05-02T12:55:05.001Z</time></trkpt><trkpt lat="42.09529205552295" lon="13.378092985742247"><ele>763.6666666666667</ele><time>2026-05-02T12:55:06.001Z</time></trkpt><trkpt lat="42.09522961017087" lon="13.37780915229502"><ele>764.3333333333334</ele><time>2026-05-02T12:55:07.001Z</time></trkpt><trkpt lat="42.095169142193015" lon="13.377529168429954"><ele>765.0</ele><time>2026-05-02T12:55:08.001Z</time></trkpt><trkpt lat="42.095107294472925" lon="13.377262442868922"><ele>765.3333333333334</ele><time>2026-05-02T12:55:09.001Z</time></trkpt><trkpt lat="42.09505422046612" lon="13.377011109558724"><ele>765.6666666666667</ele><time>2026-05-02T12:55:10.001Z</time></trkpt><trkpt lat="42.09500479810583" lon="13.37676745852894"><ele>766.0</ele><time>2026-05-02T12:55:11.001Z</time></trkpt><trkpt lat="42.0949634157599" lon="13.376544021195045"><ele>766.0</ele><time>2026-05-02T12:55:12.001Z</time></trkpt><trkpt lat="42.09492605847232" lon="13.376360738236906"><ele>766.0</ele><time>2026-05-02T12:55:13.001Z</time></trkpt><trkpt lat="42.09488826524021" lon="13.376200221116934"><ele>766.0</ele><time>2026-05-02T12:55:14.001Z</time></trkpt><trkpt lat="42.09485410014574" lon="13.376064314400933"><ele>766.0</ele><time>2026-05-02T12:55:15.001Z</time></trkpt><trkpt lat="42.09482265471453" lon="13.375952016936731"><ele>764.75</ele><time>2026-05-02T12:55:16.001Z</time></trkpt><trkpt lat="42.094804085008725" lon="13.37585610777343"><ele>763.5</ele><time>2026-05-02T12:55:17.001Z</time></trkpt><trkpt lat="42.09463891022759" lon="13.3758451862141"><ele>762.25</ele><time>2026-05-02T12:55:19.001Z</time></trkpt><trkpt lat="42.09452770192157" lon="13.375867707371338"><ele>761.0</ele><time>2026-05-02T12:55:20.001Z</time></trkpt><trkpt lat="42.094397961354936" lon="13.375918199910679"><ele>761.0</ele><time>2026-05-02T12:55:21.001Z</time></trkpt><trkpt lat="42.09421849652199" lon="13.37594557217027"><ele>761.0</ele><time>2026-05-02T12:55:22.001Z</time></trkpt><trkpt lat="42.09404817987668" lon="13.375986007676348"><ele>761.0</ele><time>2026-05-02T12:55:23.001Z</time></trkpt><trkpt lat="42.09386458041932" lon="13.376014269449644"><ele>759.0</ele><time>2026-05-02T12:55:24.001Z</time></trkpt><trkpt lat="42.093672222679174" lon="13.376045751867668"><ele>757.0</ele><time>2026-05-02T12:55:25.001Z</time></trkpt><trkpt lat="42.09348428630743" lon="13.376068842796883"><ele>755.0</ele><time>2026-05-02T12:55:26.001Z</time></trkpt><trkpt lat="42.09328868789883" lon="13.376094342364828"><ele>754.0</ele><time>2026-05-02T12:55:27.001Z</time></trkpt><trkpt lat="42.0930897897661" lon="13.37612802589736"><ele>753.0</ele><time>2026-05-02T12:55:28.001Z</time></trkpt><trkpt lat="42.09288717450503" lon="13.376162749317634"><ele>752.0</ele><time>2026-05-02T12:55:29.001Z</time></trkpt><trkpt lat="42.092683385052375" lon="13.376195909750223"><ele>752.0</ele><time>2026-05-02T12:55:30.001Z</time></trkpt><trkpt lat="42.09248470305292" lon="13.376230795858442"><ele>752.0</ele><time>2026-05-02T12:55:31.001Z</time></trkpt><trkpt lat="42.09228319754654" lon="13.37624650278305"><ele>752.0</ele><time>2026-05-02T12:55:32.001Z</time></trkpt><trkpt lat="42.09208523207752" lon="13.37630267036532"><ele>752.0</ele><time>2026-05-02T12:55:33.001Z</time></trkpt><trkpt lat="42.091884335376726" lon="13.376384104893031"><ele>752.0</ele><time>2026-05-02T12:55:34.001Z</time></trkpt><trkpt lat="42.09169168583306" lon="13.376484379778075"><ele>752.0</ele><time>2026-05-02T12:55:35.001Z</time></trkpt><trkpt lat="42.0914999175112" lon="13.37659490719285"><ele>752.3333333333333</ele><time>2026-05-02T12:55:36.001Z</time></trkpt><trkpt lat="42.09131334577736" lon="13.376716003070863"><ele>752.6666666666666</ele><time>2026-05-02T12:55:37Z</time></trkpt><trkpt lat="42.09112915423249" lon="13.376839167077708"><ele>753.0</ele><time>2026-05-02T12:55:38Z</time></trkpt><trkpt lat="42.09093110726424" lon="13.37690453970765"><ele>751.3333333333334</ele><time>2026-05-02T12:55:39Z</time></trkpt><trkpt lat="42.090725815962564" lon="13.37693310635055"><ele>749.6666666666667</ele><time>2026-05-02T12:55:40Z</time></trkpt><trkpt lat="42.09051722126595" lon="13.376931640515723"><ele>748.0</ele><time>2026-05-02T12:55:41Z</time></trkpt><trkpt lat="42.09031206827441" lon="13.37689651607699"><ele>748.0</ele><time>2026-05-02T12:55:42Z</time></trkpt><trkpt lat="42.090116337703364" lon="13.376805716524396"><ele>748.0</ele><time>2026-05-02T12:55:43Z</time></trkpt><trkpt lat="42.08992531685623" lon="13.376671697981509"><ele>748.0</ele><time>2026-05-02T12:55:44Z</time></trkpt><trkpt lat="42.089735402266406" lon="13.376514709406546"><ele>746.3333333333334</ele><time>2026-05-02T12:55:45Z</time></trkpt><trkpt lat="42.08954983507524" lon="13.376358905049885"><ele>744.6666666666666</ele><time>2026-05-02T12:55:46Z</time></trkpt><trkpt lat="42.0893766553188" lon="13.376173138764983"><ele>743.0</ele><time>2026-05-02T12:55:47Z</time></trkpt><trkpt lat="42.089210246434924" lon="13.375978308417967"><ele>741.6666666666666</ele><time>2026-05-02T12:55:48Z</time></trkpt><trkpt lat="42.089049261373326" lon="13.37577493576524"><ele>740.3333333333334</ele><time>2026-05-02T12:55:49Z</time></trkpt><trkpt lat="42.088890268076526" lon="13.375581518630254"><ele>739.0</ele><time>2026-05-02T12:55:50Z</time></trkpt><trkpt lat="42.08873749482593" lon="13.375398333449015"><ele>739.0</ele><time>2026-05-02T12:55:51Z</time></trkpt><trkpt lat="42.08859624847425" lon="13.37522863584543"><ele>739.0</ele><time>2026-05-02T12:55:52Z</time></trkpt><trkpt lat="42.08846793864256" lon="13.375083280811149"><ele>739.0</ele><time>2026-05-02T12:55:53Z</time></trkpt><trkpt lat="42.08834747907623" lon="13.37495630523436"><ele>739.0</ele><time>2026-05-02T12:55:54Z</time></trkpt><trkpt lat="42.08823676239049" lon="13.374878467473673"><ele>739.0</ele><time>2026-05-02T12:55:55Z</time></trkpt><trkpt lat="42.08814786845323" lon="13.374810696834784"><ele>739.0</ele><time>2026-05-02T12:55:56Z</time></trkpt><trkpt lat="42.08807251004201" lon="13.374754806353545"><ele>739.0</ele><time>2026-05-02T12:55:57Z</time></trkpt><trkpt lat="42.08800301613539" lon="13.374708972990376"><ele>739.0</ele><time>2026-05-02T12:55:58Z</time></trkpt><trkpt lat="42.08793810286174" lon="13.37465861983647"><ele>739.0</ele><time>2026-05-02T12:55:59Z</time></trkpt><trkpt lat="42.087864986138214" lon="13.37467429068772"><ele>739.0</ele><time>2026-05-02T12:56:00Z</time></trkpt><trkpt lat="42.08780066245677" lon="13.374716556945463"><ele>739.0</ele><time>2026-05-02T12:56:01Z</time></trkpt><trkpt lat="42.08772112442884" lon="13.374795782846643"><ele>739.0</ele><time>2026-05-02T12:56:02Z</time></trkpt><trkpt lat="42.08762231020461" lon="13.37487310335267"><ele>739.0</ele><time>2026-05-02T12:56:03Z</time></trkpt><trkpt lat="42.08750684843556" lon="13.374955111069907"><ele>738.75</ele><time>2026-05-02T12:56:04Z</time></trkpt><trkpt lat="42.08738719276893" lon="13.375046442775613"><ele>738.5</ele><time>2026-05-02T12:56:05Z</time></trkpt><trkpt lat="42.0872586100232" lon="13.375150906329269"><ele>738.25</ele><time>2026-05-02T12:56:06Z</time></trkpt><trkpt lat="42.08712534345172" lon="13.375267157537838"><ele>738.0</ele><time>2026-05-02T12:56:07Z</time></trkpt><trkpt lat="42.08699163591583" lon="13.37539253336279"><ele>738.0</ele><time>2026-05-02T12:56:08Z</time></trkpt><trkpt lat="42.086856194646934" lon="13.375510308326255"><ele>738.0</ele><time>2026-05-02T12:56:09Z</time></trkpt><trkpt lat="42.086718451973766" lon="13.375628555135497"><ele>738.0</ele><time>2026-05-02T12:56:10Z</time></trkpt><trkpt lat="42.08657962766037" lon="13.37575124889661"><ele>737.6666666666666</ele><time>2026-05-02T12:56:11Z</time></trkpt><trkpt lat="42.086429176804856" lon="13.375853308250859"><ele>737.3333333333333</ele><time>2026-05-02T12:56:12Z</time></trkpt><trkpt lat="42.08627829362276" lon="13.375959396488778"><ele>737.0</ele><time>2026-05-02T12:56:13Z</time></trkpt><trkpt lat="42.08612037881755" lon="13.376054566003557"><ele>737.0</ele><time>2026-05-02T12:56:14Z</time></trkpt><trkpt lat="42.08594849503285" lon="13.376086058729463"><ele>737.0</ele><time>2026-05-02T12:56:15Z</time></trkpt><trkpt lat="42.085773702504646" lon="13.376086508462215"><ele>737.0</ele><time>2026-05-02T12:56:16Z</time></trkpt><trkpt lat="42.08561811001393" lon="13.376056675914269"><ele>736.0</ele><time>2026-05-02T12:56:17Z</time></trkpt><trkpt lat="42.08547724925285" lon="13.375989866656264"><ele>735.0</ele><time>2026-05-02T12:56:18Z</time></trkpt><trkpt lat="42.08535017527751" lon="13.375865060372943"><ele>734.0</ele><time>2026-05-02T12:56:19Z</time></trkpt><trkpt lat="42.08523806470742" lon="13.375702123257453"><ele>734.0</ele><time>2026-05-02T12:56:20Z</time></trkpt><trkpt lat="42.08514656832261" lon="13.375503330983959"><ele>734.0</ele><time>2026-05-02T12:56:21Z</time></trkpt><trkpt lat="42.0850526508558" lon="13.375299424734578"><ele>734.0</ele><time>2026-05-02T12:56:22Z</time></trkpt><trkpt lat="42.084943825666926" lon="13.37509636322284"><ele>733.0</ele><time>2026-05-02T12:56:23Z</time></trkpt><trkpt lat="42.084814585921016" lon="13.374906235688766"><ele>732.0</ele><time>2026-05-02T12:56:24Z</time></trkpt><trkpt lat="42.08466931832744" lon="13.374729126513907"><ele>731.0</ele><time>2026-05-02T12:56:25Z</time></trkpt><trkpt lat="42.08451606778403" lon="13.374562743348605"><ele>730.0</ele><time>2026-05-02T12:56:26Z</time></trkpt><trkpt lat="42.08435259368462" lon="13.37441418181212"><ele>729.0</ele><time>2026-05-02T12:56:27Z</time></trkpt><trkpt lat="42.08418866275856" lon="13.374260884608187"><ele>728.0</ele><time>2026-05-02T12:56:28Z</time></trkpt><trkpt lat="42.08403238867039" lon="13.374090380637254"><ele>727.0</ele><time>2026-05-02T12:56:29Z</time></trkpt><trkpt lat="42.0838800492629" lon="13.373918900089278"><ele>726.0</ele><time>2026-05-02T12:56:30Z</time></trkpt><trkpt lat="42.08372674653687" lon="13.373746890932455"><ele>725.0</ele><time>2026-05-02T12:56:31Z</time></trkpt><trkpt lat="42.08357655802684" lon="13.373564127369054"><ele>724.6666666666666</ele><time>2026-05-02T12:56:32Z</time></trkpt><trkpt lat="42.083428301594346" lon="13.373375280340733"><ele>724.3333333333334</ele><time>2026-05-02T12:56:33Z</time></trkpt><trkpt lat="42.08327531561569" lon="13.373190326667759"><ele>724.0</ele><time>2026-05-02T12:56:34Z</time></trkpt><trkpt lat="42.08312103595346" lon="13.373001352412963"><ele>722.6666666666667</ele><time>2026-05-02T12:56:35Z</time></trkpt><trkpt lat="42.082963790346746" lon="13.372813285091778"><ele>721.3333333333334</ele><time>2026-05-02T12:56:36Z</time></trkpt><trkpt lat="42.08281336118651" lon="13.372626375970428"><ele>720.0</ele><time>2026-05-02T12:56:37Z</time></trkpt><trkpt lat="42.08267789918549" lon="13.372454770892084"><ele>720.0</ele><time>2026-05-02T12:56:38Z</time></trkpt><trkpt lat="42.08254876332388" lon="13.372301227731455"><ele>720.0</ele><time>2026-05-02T12:56:39Z</time></trkpt><trkpt lat="42.08243491486997" lon="13.37216839332572"><ele>720.0</ele><time>2026-05-02T12:56:40Z</time></trkpt><trkpt lat="42.08233828054829" lon="13.372050107963057"><ele>719.6</ele><time>2026-05-02T12:56:41Z</time></trkpt><trkpt lat="42.08225445848557" lon="13.37194279380595"><ele>719.2</ele><time>2026-05-02T12:56:42Z</time></trkpt><trkpt lat="42.08218831088772" lon="13.371856728538095"><ele>718.8</ele><time>2026-05-02T12:56:43Z</time></trkpt><trkpt lat="42.08212592941801" lon="13.371791186859836"><ele>718.4</ele><time>2026-05-02T12:56:44Z</time></trkpt><trkpt lat="42.08213226329033" lon="13.371635524480402"><ele>718.0</ele><time>2026-05-02T12:56:45Z</time></trkpt><trkpt lat="42.08216055660836" lon="13.371517199977333"><ele>718.0</ele><time>2026-05-02T12:56:46Z</time></trkpt><trkpt lat="42.08223537278185" lon="13.371422260140738"><ele>718.0</ele><time>2026-05-02T12:56:47Z</time></trkpt><trkpt lat="42.082322008415474" lon="13.37131129604531"><ele>718.0</ele><time>2026-05-02T12:56:48Z</time></trkpt><trkpt lat="42.082468595512246" lon="13.37125359108152"><ele>718.0</ele><time>2026-05-02T12:56:49Z</time></trkpt><trkpt lat="42.082616932994085" lon="13.37115514554688"><ele>718.6666666666667</ele><time>2026-05-02T12:56:50Z</time></trkpt><trkpt lat="42.082778654449314" lon="13.37104390122921"><ele>719.3333333333334</ele><time>2026-05-02T12:56:51Z</time></trkpt><trkpt lat="42.082949525558476" lon="13.370930656193977"><ele>720.0</ele><time>2026-05-02T12:56:52Z</time></trkpt><trkpt lat="42.083127872799665" lon="13.370816327248951"><ele>719.6666666666666</ele><time>2026-05-02T12:56:53Z</time></trkpt><trkpt lat="42.083313436784096" lon="13.370694026404308"><ele>719.3333333333333</ele><time>2026-05-02T12:56:54Z</time></trkpt><trkpt lat="42.08350003612993" lon="13.370571046970603"><ele>719.0</ele><time>2026-05-02T12:56:55Z</time></trkpt><trkpt lat="42.083688123902185" lon="13.370447197562752"><ele>719.0</ele><time>2026-05-02T12:56:56Z</time></trkpt><trkpt lat="42.08387665454681" lon="13.370324269130808"><ele>719.0</ele><time>2026-05-02T12:56:57Z</time></trkpt><trkpt lat="42.08406563237946" lon="13.370203741439324"><ele>719.0</ele><time>2026-05-02T12:56:58Z</time></trkpt><trkpt lat="42.08425346047864" lon="13.370083421680762"><ele>719.6666666666666</ele><time>2026-05-02T12:56:59.001Z</time></trkpt><trkpt lat="42.084439412113106" lon="13.369958694715365"><ele>720.3333333333334</ele><time>2026-05-02T12:57:00.001Z</time></trkpt><trkpt lat="42.08462524820826" lon="13.369833278156506"><ele>721.0</ele><time>2026-05-02T12:57:01.001Z</time></trkpt><trkpt lat="42.08481724467111" lon="13.369712367519803"><ele>721.3333333333334</ele><time>2026-05-02T12:57:02.001Z</time></trkpt><trkpt lat="42.08500306831155" lon="13.369589534433528"><ele>721.6666666666666</ele><time>2026-05-02T12:57:03.001Z</time></trkpt><trkpt lat="42.08518117642838" lon="13.369472117474732"><ele>722.0</ele><time>2026-05-02T12:57:04.001Z</time></trkpt><trkpt lat="42.08535995701481" lon="13.369355841486184"><ele>722.0</ele><time>2026-05-02T12:57:05.001Z</time></trkpt><trkpt lat="42.08554007229868" lon="13.369240509579955"><ele>722.0</ele><time>2026-05-02T12:57:06.001Z</time></trkpt><trkpt lat="42.085713257610436" lon="13.369128036617779"><ele>722.0</ele><time>2026-05-02T12:57:07.001Z</time></trkpt><trkpt lat="42.085878683012396" lon="13.369018368854345"><ele>722.6666666666666</ele><time>2026-05-02T12:57:08.001Z</time></trkpt><trkpt lat="42.08603244910478" lon="13.368916611620444"><ele>723.3333333333334</ele><time>2026-05-02T12:57:09.001Z</time></trkpt><trkpt lat="42.08617562534067" lon="13.368823123317638"><ele>724.0</ele><time>2026-05-02T12:57:10.001Z</time></trkpt><trkpt lat="42.08630771346525" lon="13.36873725033464"><ele>724.0</ele><time>2026-05-02T12:57:11.001Z</time></trkpt><trkpt lat="42.08642867579329" lon="13.36866113287168"><ele>724.0</ele><time>2026-05-02T12:57:12.001Z</time></trkpt><trkpt lat="42.08653760199107" lon="13.368592043522169"><ele>724.0</ele><time>2026-05-02T12:57:13.001Z</time></trkpt><trkpt lat="42.086638246298016" lon="13.368525291099047"><ele>724.0</ele><time>2026-05-02T12:57:14.001Z</time></trkpt><trkpt lat="42.08673029803941" lon="13.368464267727814"><ele>724.2</ele><time>2026-05-02T12:57:15.001Z</time></trkpt><trkpt lat="42.08680018107141" lon="13.36841871658506"><ele>724.4000000000001</ele><time>2026-05-02T12:57:16.001Z</time></trkpt><trkpt lat="42.08691009470088" lon="13.368334035229843"><ele>724.6</ele><time>2026-05-02T12:57:18.001Z</time></trkpt><trkpt lat="42.0869912233986" lon="13.368283458327078"><ele>724.8</ele><time>2026-05-02T12:57:19.001Z</time></trkpt><trkpt lat="42.08708473807668" lon="13.368230768515717"><ele>725.0</ele><time>2026-05-02T12:57:20.001Z</time></trkpt><trkpt lat="42.08718651639016" lon="13.36816597746916"><ele>725.0</ele><time>2026-05-02T12:57:21.001Z</time></trkpt><trkpt lat="42.087297305599506" lon="13.3680928513102"><ele>725.0</ele><time>2026-05-02T12:57:22.001Z</time></trkpt><trkpt lat="42.08741648212624" lon="13.36801568165549"><ele>725.0</ele><time>2026-05-02T12:57:23.001Z</time></trkpt><trkpt lat="42.087532882088865" lon="13.367938004621964"><ele>725.0</ele><time>2026-05-02T12:57:24.001Z</time></trkpt><trkpt lat="42.08763736857479" lon="13.367868713340535"><ele>724.5</ele><time>2026-05-02T12:57:25.001Z</time></trkpt><trkpt lat="42.087745186465355" lon="13.36779797410272"><ele>724.0</ele><time>2026-05-02T12:57:26.001Z</time></trkpt><trkpt lat="42.0878610029345" lon="13.367722942793097"><ele>723.5</ele><time>2026-05-02T12:57:27.001Z</time></trkpt><trkpt lat="42.087974331928216" lon="13.367646699286519"><ele>723.0</ele><time>2026-05-02T12:57:28.001Z</time></trkpt><trkpt lat="42.088086466888214" lon="13.367571532131919"><ele>723.0</ele><time>2026-05-02T12:57:29.001Z</time></trkpt><trkpt lat="42.088200582935414" lon="13.367495073970932"><ele>723.0</ele><time>2026-05-02T12:57:30.001Z</time></trkpt><trkpt lat="42.08831607391217" lon="13.367418363571947"><ele>723.0</ele><time>2026-05-02T12:57:31.001Z</time></trkpt><trkpt lat="42.08843385027693" lon="13.367343858583286"><ele>723.0</ele><time>2026-05-02T12:57:32.001Z</time></trkpt><trkpt lat="42.08854612753444" lon="13.367269022908028"><ele>724.0</ele><time>2026-05-02T12:57:33.001Z</time></trkpt><trkpt lat="42.088663560508394" lon="13.367189663519056"><ele>725.0</ele><time>2026-05-02T12:57:34.001Z</time></trkpt><trkpt lat="42.08878679635109" lon="13.36711024142604"><ele>726.0</ele><time>2026-05-02T12:57:35.001Z</time></trkpt><trkpt lat="42.08890934159084" lon="13.367036092252023"><ele>727.0</ele><time>2026-05-02T12:57:36.001Z</time></trkpt><trkpt lat="42.089026140574845" lon="13.366965404328024"><ele>727.0</ele><time>2026-05-02T12:57:37.001Z</time></trkpt><trkpt lat="42.089133853088214" lon="13.366891477052377"><ele>727.0</ele><time>2026-05-02T12:57:38.001Z</time></trkpt><trkpt lat="42.08922982274801" lon="13.366818758727135"><ele>727.0</ele><time>2026-05-02T12:57:39.001Z</time></trkpt><trkpt lat="42.0893199710319" lon="13.366766548728686"><ele>727.0</ele><time>2026-05-02T12:57:40.001Z</time></trkpt><trkpt lat="42.08941192405805" lon="13.366711154762783"><ele>727.0</ele><time>2026-05-02T12:57:41.001Z</time></trkpt><trkpt lat="42.08950716330864" lon="13.36665149505923"><ele>727.0</ele><time>2026-05-02T12:57:42.001Z</time></trkpt><trkpt lat="42.08959628868241" lon="13.36659063905147"><ele>727.0</ele><time>2026-05-02T12:57:43.001Z</time></trkpt><trkpt lat="42.08966763401248" lon="13.366552460981225"><ele>727.0</ele><time>2026-05-02T12:57:44.001Z</time></trkpt><trkpt lat="42.089787423554945" lon="13.366454114065839"><ele>727.0</ele><time>2026-05-02T12:57:45.001Z</time></trkpt><trkpt lat="42.089897748907354" lon="13.366389725107544"><ele>727.0</ele><time>2026-05-02T12:57:46.001Z</time></trkpt><trkpt lat="42.089996592533986" lon="13.366325645075005"><ele>727.2</ele><time>2026-05-02T12:57:47.001Z</time></trkpt><trkpt lat="42.090097246583746" lon="13.366264318426502"><ele>727.4000000000001</ele><time>2026-05-02T12:57:48.001Z</time></trkpt><trkpt lat="42.090183918416834" lon="13.366201727148749"><ele>727.5999999999999</ele><time>2026-05-02T12:57:49.001Z</time></trkpt><trkpt lat="42.09027504495318" lon="13.36616405503334"><ele>727.8</ele><time>2026-05-02T12:57:50.001Z</time></trkpt><trkpt lat="42.09035826726863" lon="13.366110772322417"><ele>728.0</ele><time>2026-05-02T12:57:51.001Z</time></trkpt><trkpt lat="42.09042675733446" lon="13.366066921856708"><ele>728.0</ele><time>2026-05-02T12:57:52.001Z</time></trkpt><trkpt lat="42.090500143167105" lon="13.36601847051657"><ele>728.0</ele><time>2026-05-02T12:57:53Z</time></trkpt><trkpt lat="42.090574216621924" lon="13.365969360530709"><ele>728.0</ele><time>2026-05-02T12:57:54Z</time></trkpt><trkpt lat="42.09065459878319" lon="13.365916067941715"><ele>728.0</ele><time>2026-05-02T12:57:55Z</time></trkpt><trkpt lat="42.09074623841622" lon="13.365854890887992"><ele>728.0</ele><time>2026-05-02T12:57:56Z</time></trkpt><trkpt lat="42.09083279331482" lon="13.365796950828777"><ele>728.1666666666666</ele><time>2026-05-02T12:57:57Z</time></trkpt><trkpt lat="42.09091497139161" lon="13.365737292149623"><ele>728.3333333333333</ele><time>2026-05-02T12:57:58Z</time></trkpt><trkpt lat="42.0909917492278" lon="13.365683034784903"><ele>728.5</ele><time>2026-05-02T12:57:59Z</time></trkpt><trkpt lat="42.091075635248025" lon="13.365622943508686"><ele>728.6666666666666</ele><time>2026-05-02T12:58:00Z</time></trkpt><trkpt lat="42.09115256574273" lon="13.365567921285107"><ele>728.8333333333334</ele><time>2026-05-02T12:58:01Z</time></trkpt><trkpt lat="42.09122218332941" lon="13.365526152669432"><ele>729.0</ele><time>2026-05-02T12:58:02Z</time></trkpt><trkpt lat="42.09128503062704" lon="13.365478634879555"><ele>729.0</ele><time>2026-05-02T12:58:03Z</time></trkpt><trkpt lat="42.09136168646782" lon="13.365436143536305"><ele>729.0</ele><time>2026-05-02T12:58:05Z</time></trkpt><trkpt lat="42.09145233621447" lon="13.36538905598899"><ele>729.0</ele><time>2026-05-02T12:58:08Z</time></trkpt><trkpt lat="42.09156930841694" lon="13.36531219386868"><ele>729.0</ele><time>2026-05-02T12:58:10Z</time></trkpt><trkpt lat="42.09163807361645" lon="13.365264993128058"><ele>729.0</ele><time>2026-05-02T12:58:11Z</time></trkpt><trkpt lat="42.091756596649034" lon="13.365160760720245"><ele>729.0</ele><time>2026-05-02T12:58:13Z</time></trkpt><trkpt lat="42.091818750545166" lon="13.365081233256621"><ele>729.0</ele><time>2026-05-02T12:58:14Z</time></trkpt><trkpt lat="42.091865844046986" lon="13.364968164410273"><ele>729.0</ele><time>2026-05-02T12:58:15Z</time></trkpt><trkpt lat="42.09190508473092" lon="13.364838103922924"><ele>729.0</ele><time>2026-05-02T12:58:16Z</time></trkpt><trkpt lat="42.09193355620335" lon="13.364698257815139"><ele>729.0</ele><time>2026-05-02T12:58:17Z</time></trkpt><trkpt lat="42.09193276477428" lon="13.364546815847557"><ele>728.25</ele><time>2026-05-02T12:58:18Z</time></trkpt><trkpt lat="42.09194241564084" lon="13.364388624708463"><ele>727.5</ele><time>2026-05-02T12:58:19Z</time></trkpt><trkpt lat="42.09197255941694" lon="13.364220328743528"><ele>726.75</ele><time>2026-05-02T12:58:20Z</time></trkpt><trkpt lat="42.091982850317756" lon="13.364049648378847"><ele>726.0</ele><time>2026-05-02T12:58:21Z</time></trkpt><trkpt lat="42.09199152821964" lon="13.363873366413141"><ele>725.75</ele><time>2026-05-02T12:58:22Z</time></trkpt><trkpt lat="42.09202294205902" lon="13.36369710136023"><ele>725.5</ele><time>2026-05-02T12:58:23Z</time></trkpt><trkpt lat="42.092038710606666" lon="13.36351253267753"><ele>725.25</ele><time>2026-05-02T12:58:24Z</time></trkpt><trkpt lat="42.09205370856339" lon="13.363333343077285"><ele>725.0</ele><time>2026-05-02T12:58:25Z</time></trkpt><trkpt lat="42.09207008257857" lon="13.36313452990883"><ele>724.4</ele><time>2026-05-02T12:58:26Z</time></trkpt><trkpt lat="42.09208498449354" lon="13.36295424116876"><ele>723.8</ele><time>2026-05-02T12:58:27Z</time></trkpt><trkpt lat="42.09209800537234" lon="13.362797543855752"><ele>723.2</ele><time>2026-05-02T12:58:28Z</time></trkpt><trkpt lat="42.09209660512243" lon="13.362658744789949"><ele>722.6</ele><time>2026-05-02T12:58:29Z</time></trkpt><trkpt lat="42.09210666564458" lon="13.362545292974062"><ele>722.0</ele><time>2026-05-02T12:58:30Z</time></trkpt><trkpt lat="42.092110624740236" lon="13.36244997486538"><ele>722.0</ele><time>2026-05-02T12:58:31Z</time></trkpt><trkpt lat="42.092120794457436" lon="13.362332722999797"><ele>722.0</ele><time>2026-05-02T12:58:33Z</time></trkpt><trkpt lat="42.09212618205807" lon="13.362164006673108"><ele>722.0</ele><time>2026-05-02T12:58:35Z</time></trkpt><trkpt lat="42.09213246954437" lon="13.362048465678262"><ele>722.0</ele><time>2026-05-02T12:58:36Z</time></trkpt><trkpt lat="42.0921459789701" lon="13.361919662042641"><ele>722.0</ele><time>2026-05-02T12:58:37Z</time></trkpt><trkpt lat="42.092190448029584" lon="13.361790617196535"><ele>721.25</ele><time>2026-05-02T12:58:38Z</time></trkpt><trkpt lat="42.092231875040824" lon="13.361647417880368"><ele>720.5</ele><time>2026-05-02T12:58:39Z</time></trkpt><trkpt lat="42.092277266284874" lon="13.361492424283028"><ele>719.75</ele><time>2026-05-02T12:58:40Z</time></trkpt><trkpt lat="42.0923252165172" lon="13.361328692707692"><ele>719.0</ele><time>2026-05-02T12:58:41Z</time></trkpt><trkpt lat="42.09237502360893" lon="13.361158620685547"><ele>718.75</ele><time>2026-05-02T12:58:42Z</time></trkpt><trkpt lat="42.09242540617087" lon="13.360986583671497"><ele>718.5</ele><time>2026-05-02T12:58:43Z</time></trkpt><trkpt lat="42.09246574870524" lon="13.360810350641568"><ele>718.25</ele><time>2026-05-02T12:58:44Z</time></trkpt><trkpt lat="42.092517065513405" lon="13.360629402945444"><ele>718.0</ele><time>2026-05-02T12:58:45Z</time></trkpt><trkpt lat="42.09257242265639" lon="13.360444060907916"><ele>717.0</ele><time>2026-05-02T12:58:46Z</time></trkpt><trkpt lat="42.092627565333395" lon="13.360255772415265"><ele>716.0</ele><time>2026-05-02T12:58:47Z</time></trkpt><trkpt lat="42.092678105210425" lon="13.36005629887865"><ele>715.0</ele><time>2026-05-02T12:58:48Z</time></trkpt><trkpt lat="42.09274780998349" lon="13.359875758664321"><ele>714.0</ele><time>2026-05-02T12:58:49Z</time></trkpt><trkpt lat="42.092788729964816" lon="13.359675160898256"><ele>713.0</ele><time>2026-05-02T12:58:50Z</time></trkpt><trkpt lat="42.09285009694904" lon="13.359485114971163"><ele>712.0</ele><time>2026-05-02T12:58:51Z</time></trkpt><trkpt lat="42.09291320853429" lon="13.359297274918609"><ele>712.0</ele><time>2026-05-02T12:58:52Z</time></trkpt><trkpt lat="42.092979847627866" lon="13.35910598348557"><ele>712.0</ele><time>2026-05-02T12:58:53Z</time></trkpt><trkpt lat="42.09305437515115" lon="13.358908052370813"><ele>712.0</ele><time>2026-05-02T12:58:54Z</time></trkpt><trkpt lat="42.09314916575208" lon="13.35871794270615"><ele>711.3333333333334</ele><time>2026-05-02T12:58:55Z</time></trkpt><trkpt lat="42.09324775549191" lon="13.358535223434792"><ele>710.6666666666666</ele><time>2026-05-02T12:58:56Z</time></trkpt><trkpt lat="42.09334570505494" lon="13.358352382511521"><ele>710.0</ele><time>2026-05-02T12:58:57Z</time></trkpt><trkpt lat="42.09344978651886" lon="13.358174164052071"><ele>709.0</ele><time>2026-05-02T12:58:58Z</time></trkpt><trkpt lat="42.09354951323846" lon="13.357995026287739"><ele>708.0</ele><time>2026-05-02T12:58:59Z</time></trkpt><trkpt lat="42.09364906808455" lon="13.35781760623745"><ele>707.0</ele><time>2026-05-02T12:59:00Z</time></trkpt><trkpt lat="42.093745637474704" lon="13.357639676610933"><ele>707.0</ele><time>2026-05-02T12:59:01Z</time></trkpt><trkpt lat="42.09386332960234" lon="13.357481971632648"><ele>707.0</ele><time>2026-05-02T12:59:02Z</time></trkpt><trkpt lat="42.09394983169946" lon="13.35728887761287"><ele>707.0</ele><time>2026-05-02T12:59:03Z</time></trkpt><trkpt lat="42.09404981902829" lon="13.357107076761638"><ele>706.0</ele><time>2026-05-02T12:59:04Z</time></trkpt><trkpt lat="42.09414474148198" lon="13.356918577889203"><ele>705.0</ele><time>2026-05-02T12:59:05Z</time></trkpt><trkpt lat="42.09424579146563" lon="13.356734885033969"><ele>704.0</ele><time>2026-05-02T12:59:06Z</time></trkpt><trkpt lat="42.094314618029514" lon="13.356523410943637"><ele>704.0</ele><time>2026-05-02T12:59:07Z</time></trkpt><trkpt lat="42.09439420380783" lon="13.356315529301012"><ele>704.0</ele><time>2026-05-02T12:59:08Z</time></trkpt><trkpt lat="42.094469890328774" lon="13.356106761486947"><ele>704.0</ele><time>2026-05-02T12:59:09Z</time></trkpt><trkpt lat="42.09454797334116" lon="13.355894983013004"><ele>704.0</ele><time>2026-05-02T12:59:10Z</time></trkpt><trkpt lat="42.09462836755169" lon="13.355680107580099"><ele>704.0</ele><time>2026-05-02T12:59:11Z</time></trkpt><trkpt lat="42.094706477917846" lon="13.355461682429413"><ele>704.0</ele><time>2026-05-02T12:59:12Z</time></trkpt><trkpt lat="42.094784352377204" lon="13.355240778938922"><ele>703.6666666666666</ele><time>2026-05-02T12:59:13.001Z</time></trkpt><trkpt lat="42.09486734469119" lon="13.3550172648351"><ele>703.3333333333334</ele><time>2026-05-02T12:59:14.001Z</time></trkpt><trkpt lat="42.094951628381665" lon="13.354790278442923"><ele>703.0</ele><time>2026-05-02T12:59:15.001Z</time></trkpt><trkpt lat="42.09503798226602" lon="13.354559782652634"><ele>702.3333333333334</ele><time>2026-05-02T12:59:16.001Z</time></trkpt><trkpt lat="42.095124291512384" lon="13.354327837649105"><ele>701.6666666666666</ele><time>2026-05-02T12:59:17.001Z</time></trkpt><trkpt lat="42.09521130307778" lon="13.35409236387655"><ele>701.0</ele><time>2026-05-02T12:59:18.001Z</time></trkpt><trkpt lat="42.09529837282283" lon="13.353852539359243"><ele>700.6666666666666</ele><time>2026-05-02T12:59:19.001Z</time></trkpt><trkpt lat="42.09538726683312" lon="13.353613062972975"><ele>700.3333333333334</ele><time>2026-05-02T12:59:20.001Z</time></trkpt><trkpt lat="42.09546977081212" lon="13.35337132925041"><ele>700.0</ele><time>2026-05-02T12:59:21.001Z</time></trkpt><trkpt lat="42.09555614541363" lon="13.353131024316477"><ele>700.0</ele><time>2026-05-02T12:59:22.001Z</time></trkpt><trkpt lat="42.095641879964326" lon="13.352887926320475"><ele>700.0</ele><time>2026-05-02T12:59:23.001Z</time></trkpt><trkpt lat="42.095730328747536" lon="13.352643564498235"><ele>700.0</ele><time>2026-05-02T12:59:24.001Z</time></trkpt><trkpt lat="42.09582132855988" lon="13.352397297988183"><ele>699.6666666666667</ele><time>2026-05-02T12:59:25.001Z</time></trkpt><trkpt lat="42.09591325356329" lon="13.352148825478958"><ele>699.3333333333334</ele><time>2026-05-02T12:59:26.001Z</time></trkpt><trkpt lat="42.09600695571905" lon="13.351900646840281"><ele>699.0</ele><time>2026-05-02T12:59:27.001Z</time></trkpt><trkpt lat="42.096097450339876" lon="13.35165050092001"><ele>699.0</ele><time>2026-05-02T12:59:28.001Z</time></trkpt><trkpt lat="42.09618418877563" lon="13.351394942901704"><ele>699.0</ele><time>2026-05-02T12:59:29.001Z</time></trkpt><trkpt lat="42.096271260149635" lon="13.351141480536812"><ele>699.0</ele><time>2026-05-02T12:59:30.001Z</time></trkpt><trkpt lat="42.09636427514442" lon="13.350885049188474"><ele>699.0</ele><time>2026-05-02T12:59:31.001Z</time></trkpt><trkpt lat="42.096457977299835" lon="13.350629734332434"><ele>699.0</ele><time>2026-05-02T12:59:32.001Z</time></trkpt><trkpt lat="42.096551286807994" lon="13.350371272060759"><ele>699.0</ele><time>2026-05-02T12:59:33.001Z</time></trkpt><trkpt lat="42.096646137544944" lon="13.350110595206857"><ele>699.3333333333334</ele><time>2026-05-02T12:59:34.001Z</time></trkpt><trkpt lat="42.096741711561094" lon="13.349852819511584"><ele>699.6666666666667</ele><time>2026-05-02T12:59:35.001Z</time></trkpt><trkpt lat="42.09683779852322" lon="13.349591938203062"><ele>700.0</ele><time>2026-05-02T12:59:36.001Z</time></trkpt><trkpt lat="42.09693179994395" lon="13.349327071911125"><ele>700.3333333333334</ele><time>2026-05-02T12:59:37.001Z</time></trkpt><trkpt lat="42.09702677962223" lon="13.349062866759624"><ele>700.6666666666666</ele><time>2026-05-02T12:59:38.001Z</time></trkpt><trkpt lat="42.09712322990849" lon="13.348799677950302"><ele>701.0</ele><time>2026-05-02T12:59:39.001Z</time></trkpt><trkpt lat="42.097219239531455" lon="13.348535138217704"><ele>701.0</ele><time>2026-05-02T12:59:40.001Z</time></trkpt><trkpt lat="42.09731602146655" lon="13.348270779318478"><ele>701.0</ele><time>2026-05-02T12:59:41.001Z</time></trkpt><trkpt lat="42.09741054499961" lon="13.348001832064803"><ele>701.0</ele><time>2026-05-02T12:59:42.001Z</time></trkpt><trkpt lat="42.09750314561117" lon="13.347732753053457"><ele>702.0</ele><time>2026-05-02T12:59:43.001Z</time></trkpt><trkpt lat="42.09759544983619" lon="13.347461406055697"><ele>703.0</ele><time>2026-05-02T12:59:44.001Z</time></trkpt><trkpt lat="42.0976942494887" lon="13.347192210904472"><ele>704.0</ele><time>2026-05-02T12:59:45.001Z</time></trkpt><trkpt lat="42.09779480914996" lon="13.346924830201651"><ele>704.0</ele><time>2026-05-02T12:59:46.001Z</time></trkpt><trkpt lat="42.09789207736532" lon="13.346657274201386"><ele>704.0</ele><time>2026-05-02T12:59:47.001Z</time></trkpt><trkpt lat="42.097987342148244" lon="13.346389778799818"><ele>704.0</ele><time>2026-05-02T12:59:48.001Z</time></trkpt><trkpt lat="42.09808194675857" lon="13.346123665215112"><ele>704.0</ele><time>2026-05-02T12:59:49Z</time></trkpt><trkpt lat="42.09817887300896" lon="13.345858238394847"><ele>704.0</ele><time>2026-05-02T12:59:50Z</time></trkpt><trkpt lat="42.09827505845517" lon="13.345592263830468"><ele>704.0</ele><time>2026-05-02T12:59:51Z</time></trkpt><trkpt lat="42.09836838931839" lon="13.34532402696008"><ele>704.3333333333333</ele><time>2026-05-02T12:59:52Z</time></trkpt><trkpt lat="42.09845992623399" lon="13.3450570001543"><ele>704.6666666666666</ele><time>2026-05-02T12:59:53Z</time></trkpt><trkpt lat="42.09855482727993" lon="13.344792789519474"><ele>705.0</ele><time>2026-05-02T12:59:54Z</time></trkpt><trkpt lat="42.098653531904446" lon="13.344531588393307"><ele>703.6666666666666</ele><time>2026-05-02T12:59:55Z</time></trkpt><trkpt lat="42.09875198727225" lon="13.344271461875746"><ele>702.3333333333333</ele><time>2026-05-02T12:59:56Z</time></trkpt><trkpt lat="42.09884354969154" lon="13.344008126193403"><ele>701.0</ele><time>2026-05-02T12:59:57Z</time></trkpt><trkpt lat="42.09892174305831" lon="13.343743303766393"><ele>701.3333333333333</ele><time>2026-05-02T12:59:58Z</time></trkpt><trkpt lat="42.098972891500374" lon="13.343455953957527"><ele>701.6666666666666</ele><time>2026-05-02T12:59:59Z</time></trkpt><trkpt lat="42.09898959046107" lon="13.34317496978863"><ele>702.0</ele><time>2026-05-02T13:00:00Z</time></trkpt><trkpt lat="42.09900725244293" lon="13.342889351125711"><ele>702.0</ele><time>2026-05-02T13:00:01Z</time></trkpt><trkpt lat="42.09902030790223" lon="13.342605476850993"><ele>702.0</ele><time>2026-05-02T13:00:02Z</time></trkpt><trkpt lat="42.09903207507212" lon="13.342321365030815"><ele>702.0</ele><time>2026-05-02T13:00:03Z</time></trkpt><trkpt lat="42.099051691471" lon="13.342039017865504"><ele>702.0</ele><time>2026-05-02T13:00:04Z</time></trkpt><trkpt lat="42.09908359208216" lon="13.341756915036665"><ele>702.0</ele><time>2026-05-02T13:00:05Z</time></trkpt><trkpt lat="42.09912723550316" lon="13.341476828501827"><ele>702.0</ele><time>2026-05-02T13:00:06Z</time></trkpt><trkpt lat="42.09918524518082" lon="13.341202096670722"><ele>701.6666666666666</ele><time>2026-05-02T13:00:07Z</time></trkpt><trkpt lat="42.09926297243432" lon="13.340935938076617"><ele>701.3333333333333</ele><time>2026-05-02T13:00:08Z</time></trkpt><trkpt lat="42.09935613151351" lon="13.340679366015191"><ele>701.0</ele><time>2026-05-02T13:00:09Z</time></trkpt><trkpt lat="42.099458140826705" lon="13.3404268524099"><ele>701.0</ele><time>2026-05-02T13:00:10Z</time></trkpt><trkpt lat="42.09955975148274" lon="13.340173236533786"><ele>701.0</ele><time>2026-05-02T13:00:11Z</time></trkpt><trkpt lat="42.09966187995344" lon="13.339919216358451"><ele>701.0</ele><time>2026-05-02T13:00:12Z</time></trkpt><trkpt lat="42.099770138191936" lon="13.339668328042258"><ele>699.0</ele><time>2026-05-02T13:00:13Z</time></trkpt><trkpt lat="42.09987684919227" lon="13.339415114941229"><ele>697.0</ele><time>2026-05-02T13:00:14Z</time></trkpt><trkpt lat="42.09998839185233" lon="13.339164334349633"><ele>695.0</ele><time>2026-05-02T13:00:15Z</time></trkpt><trkpt lat="42.10010162320896" lon="13.338916200887635"><ele>696.3333333333333</ele><time>2026-05-02T13:00:16Z</time></trkpt><trkpt lat="42.100212439998785" lon="13.33867078321786"><ele>697.6666666666666</ele><time>2026-05-02T13:00:17Z</time></trkpt><trkpt lat="42.100322253104984" lon="13.338427346764613"><ele>699.0</ele><time>2026-05-02T13:00:18Z</time></trkpt><trkpt lat="42.100432431099044" lon="13.338195713249496"><ele>698.6666666666666</ele><time>2026-05-02T13:00:19Z</time></trkpt><trkpt lat="42.100548981620975" lon="13.337979810545589"><ele>698.3333333333333</ele><time>2026-05-02T13:00:20Z</time></trkpt><trkpt lat="42.100680759360465" lon="13.337782589486672"><ele>698.0</ele><time>2026-05-02T13:00:21Z</time></trkpt><trkpt lat="42.100832226122755" lon="13.33760646907176"><ele>697.3333333333333</ele><time>2026-05-02T13:00:22Z</time></trkpt><trkpt lat="42.100986562859966" lon="13.337408349122864"><ele>696.6666666666666</ele><time>2026-05-02T13:00:23Z</time></trkpt><trkpt lat="42.10114449195385" lon="13.337204989079948"><ele>696.0</ele><time>2026-05-02T13:00:24Z</time></trkpt><trkpt lat="42.101306467829154" lon="13.336996418134465"><ele>696.0</ele><time>2026-05-02T13:00:25Z</time></trkpt><trkpt lat="42.10146301122974" lon="13.336769606090463"><ele>696.0</ele><time>2026-05-02T13:00:26Z</time></trkpt><trkpt lat="42.10164018554212" lon="13.336563248643118"><ele>697.5</ele><time>2026-05-02T13:00:27Z</time></trkpt><trkpt lat="42.10182013282235" lon="13.33635095091798"><ele>699.0</ele><time>2026-05-02T13:00:28Z</time></trkpt><trkpt lat="42.10199993440316" lon="13.336132815077926"><ele>699.0</ele><time>2026-05-02T13:00:29Z</time></trkpt><trkpt lat="42.10217830009154" lon="13.3359138215825"><ele>699.0</ele><time>2026-05-02T13:00:30Z</time></trkpt><trkpt lat="42.10235822409916" lon="13.335693670249453"><ele>697.5</ele><time>2026-05-02T13:00:31Z</time></trkpt><trkpt lat="42.102539899391736" lon="13.335476465216837"><ele>696.0</ele><time>2026-05-02T13:00:32Z</time></trkpt><trkpt lat="42.102720846247294" lon="13.335259144397089"><ele>696.0</ele><time>2026-05-02T13:00:33Z</time></trkpt><trkpt lat="42.102901663200726" lon="13.335038500486982"><ele>696.0</ele><time>2026-05-02T13:00:34Z</time></trkpt><trkpt lat="42.10308501183039" lon="13.33481874861654"><ele>698.0</ele><time>2026-05-02T13:00:35Z</time></trkpt><trkpt lat="42.103267162493964" lon="13.33459566466584"><ele>700.0</ele><time>2026-05-02T13:00:36Z</time></trkpt><trkpt lat="42.10344894816955" lon="13.334375958313434"><ele>700.0</ele><time>2026-05-02T13:00:37Z</time></trkpt><trkpt lat="42.103632553668746" lon="13.334162657399435"><ele>700.0</ele><time>2026-05-02T13:00:38Z</time></trkpt><trkpt lat="42.10381496285386" lon="13.333947091732837"><ele>699.5</ele><time>2026-05-02T13:00:39Z</time></trkpt><trkpt lat="42.103991944799944" lon="13.333730023393036"><ele>699.0</ele><time>2026-05-02T13:00:40Z</time></trkpt><trkpt lat="42.10416518777376" lon="13.333511864465594"><ele>698.5</ele><time>2026-05-02T13:00:41Z</time></trkpt><trkpt lat="42.104327491720085" lon="13.33327961950169"><ele>698.0</ele><time>2026-05-02T13:00:42Z</time></trkpt><trkpt lat="42.10447509238094" lon="13.333024910547508"><ele>697.0</ele><time>2026-05-02T13:00:43Z</time></trkpt><trkpt lat="42.104607843594664" lon="13.332771420784649"><ele>696.0</ele><time>2026-05-02T13:00:44Z</time></trkpt><trkpt lat="42.10471789003527" lon="13.33249725236242"><ele>695.5</ele><time>2026-05-02T13:00:45Z</time></trkpt><trkpt lat="42.10480259847815" lon="13.332214836026942"><ele>695.0</ele><time>2026-05-02T13:00:46Z</time></trkpt><trkpt lat="42.10486570115141" lon="13.331910158635765"><ele>698.0</ele><time>2026-05-02T13:00:47Z</time></trkpt><trkpt lat="42.10493820040192" lon="13.331619142407492"><ele>701.0</ele><time>2026-05-02T13:00:48Z</time></trkpt><trkpt lat="42.105029196870234" lon="13.331340095020485"><ele>701.0</ele><time>2026-05-02T13:00:49Z</time></trkpt><trkpt lat="42.10513302973109" lon="13.331067811045058"><ele>701.0</ele><time>2026-05-02T13:00:50Z</time></trkpt><trkpt lat="42.10525614056221" lon="13.3308123671263"><ele>701.0</ele><time>2026-05-02T13:00:51Z</time></trkpt><trkpt lat="42.10539371585961" lon="13.330573868729992"><ele>701.0</ele><time>2026-05-02T13:00:52Z</time></trkpt><trkpt lat="42.1055482182474" lon="13.330349709941762"><ele>700.5</ele><time>2026-05-02T13:00:53Z</time></trkpt><trkpt lat="42.10570997508494" lon="13.330136121739006"><ele>700.0</ele><time>2026-05-02T13:00:54Z</time></trkpt><trkpt lat="42.105880456601746" lon="13.329934554378017"><ele>700.0</ele><time>2026-05-02T13:00:55Z</time></trkpt><trkpt lat="42.10605483281806" lon="13.329736403820561"><ele>700.0</ele><time>2026-05-02T13:00:56Z</time></trkpt><trkpt lat="42.10623471271659" lon="13.329556409436131"><ele>698.6666666666667</ele><time>2026-05-02T13:00:57Z</time></trkpt><trkpt lat="42.10639827689171" lon="13.329394886567254"><ele>697.3333333333334</ele><time>2026-05-02T13:00:58Z</time></trkpt><trkpt lat="42.106540360021604" lon="13.329226785806819"><ele>696.0</ele><time>2026-05-02T13:00:59Z</time></trkpt><trkpt lat="42.10665095819971" lon="13.329021689521143"><ele>697.6666666666666</ele><time>2026-05-02T13:01:00Z</time></trkpt><trkpt lat="42.1067440116651" lon="13.328774326279754"><ele>699.3333333333333</ele><time>2026-05-02T13:01:01Z</time></trkpt><trkpt lat="42.106813230841205" lon="13.32849558419283"><ele>701.0</ele><time>2026-05-02T13:01:02Z</time></trkpt><trkpt lat="42.10688593806009" lon="13.328214875300048"><ele>700.0</ele><time>2026-05-02T13:01:03Z</time></trkpt><trkpt lat="42.106965266301096" lon="13.327937904257809"><ele>699.0</ele><time>2026-05-02T13:01:04Z</time></trkpt><trkpt lat="42.10704747603032" lon="13.32766093831143"><ele>698.0</ele><time>2026-05-02T13:01:05Z</time></trkpt><trkpt lat="42.10713583323553" lon="13.327388233695418"><ele>697.3333333333333</ele><time>2026-05-02T13:01:06Z</time></trkpt><trkpt lat="42.10723820735815" lon="13.327122169178491"><ele>696.6666666666666</ele><time>2026-05-02T13:01:07Z</time></trkpt><trkpt lat="42.10736303500981" lon="13.326877469260106"><ele>696.0</ele><time>2026-05-02T13:01:08Z</time></trkpt><trkpt lat="42.1074664670304" lon="13.326621237209846"><ele>697.0</ele><time>2026-05-02T13:01:09Z</time></trkpt><trkpt lat="42.107537971583355" lon="13.32634392758983"><ele>698.0</ele><time>2026-05-02T13:01:10Z</time></trkpt><trkpt lat="42.10755834128483" lon="13.326041945826551"><ele>699.0</ele><time>2026-05-02T13:01:11Z</time></trkpt><trkpt lat="42.10756132264113" lon="13.325733902587672"><ele>699.5</ele><time>2026-05-02T13:01:12Z</time></trkpt><trkpt lat="42.10757199277217" lon="13.32542700997637"><ele>700.0</ele><time>2026-05-02T13:01:13Z</time></trkpt><trkpt lat="42.107586682972915" lon="13.325117127592772"><ele>700.0</ele><time>2026-05-02T13:01:14Z</time></trkpt><trkpt lat="42.10761170267106" lon="13.324806536820208"><ele>700.0</ele><time>2026-05-02T13:01:15Z</time></trkpt><trkpt lat="42.10765533142579" lon="13.324496246092043"><ele>699.5</ele><time>2026-05-02T13:01:16Z</time></trkpt><trkpt lat="42.10770075523147" lon="13.324186121059732"><ele>699.0</ele><time>2026-05-02T13:01:17Z</time></trkpt><trkpt lat="42.107747946814236" lon="13.323874689354636"><ele>698.5</ele><time>2026-05-02T13:01:18Z</time></trkpt><trkpt lat="42.10779181463091" lon="13.323565210338378"><ele>698.0</ele><time>2026-05-02T13:01:19Z</time></trkpt><trkpt lat="42.10783496108586" lon="13.323256944348762"><ele>697.6666666666666</ele><time>2026-05-02T13:01:20Z</time></trkpt><trkpt lat="42.107875942126256" lon="13.322956662726178"><ele>697.3333333333334</ele><time>2026-05-02T13:01:21Z</time></trkpt><trkpt lat="42.10791591856863" lon="13.32266516191786"><ele>697.0</ele><time>2026-05-02T13:01:22Z</time></trkpt><trkpt lat="42.10796183906102" lon="13.322375314760993"><ele>697.0</ele><time>2026-05-02T13:01:23Z</time></trkpt><trkpt lat="42.10802425445147" lon="13.322086019218679"><ele>697.0</ele><time>2026-05-02T13:01:24Z</time></trkpt><trkpt lat="42.108106513370956" lon="13.32180134245973"><ele>697.0</ele><time>2026-05-02T13:01:25Z</time></trkpt><trkpt lat="42.10820500637435" lon="13.321521430631815"><ele>697.0</ele><time>2026-05-02T13:01:26Z</time></trkpt><trkpt lat="42.10830779446309" lon="13.321240856927828"><ele>697.5</ele><time>2026-05-02T13:01:27Z</time></trkpt><trkpt lat="42.10840869953547" lon="13.320953240908288"><ele>698.0</ele><time>2026-05-02T13:01:28Z</time></trkpt><trkpt lat="42.10850767771519" lon="13.320662840585555"><ele>698.0</ele><time>2026-05-02T13:01:29Z</time></trkpt><trkpt lat="42.10860201631554" lon="13.320371884366953"><ele>698.0</ele><time>2026-05-02T13:01:30Z</time></trkpt><trkpt lat="42.108689539994735" lon="13.320074264778373"><ele>698.0</ele><time>2026-05-02T13:01:31Z</time></trkpt><trkpt lat="42.10876288537423" lon="13.319771715631157"><ele>698.0</ele><time>2026-05-02T13:01:32Z</time></trkpt><trkpt lat="42.10881869315652" lon="13.319463402331944"><ele>698.0</ele><time>2026-05-02T13:01:33Z</time></trkpt><trkpt lat="42.108853897774004" lon="13.319150776102282"><ele>698.0</ele><time>2026-05-02T13:01:34Z</time></trkpt><trkpt lat="42.1088790436344" lon="13.318838407941135"><ele>697.0</ele><time>2026-05-02T13:01:35Z</time></trkpt><trkpt lat="42.10890551231282" lon="13.318526346295915"><ele>696.0</ele><time>2026-05-02T13:01:36Z</time></trkpt><trkpt lat="42.108932947553896" lon="13.31821387229182"><ele>695.0</ele><time>2026-05-02T13:01:37Z</time></trkpt><trkpt lat="42.10895993879966" lon="13.31790258813708"><ele>694.0</ele><time>2026-05-02T13:01:38Z</time></trkpt><trkpt lat="42.10898639767974" lon="13.317587670187471"><ele>694.0</ele><time>2026-05-02T13:01:39Z</time></trkpt><trkpt lat="42.10901327283188" lon="13.317280361404373"><ele>694.0</ele><time>2026-05-02T13:01:40Z</time></trkpt><trkpt lat="42.109043842411104" lon="13.31697803755789"><ele>696.0</ele><time>2026-05-02T13:01:41Z</time></trkpt><trkpt lat="42.10908991203266" lon="13.316685064758667"><ele>698.0</ele><time>2026-05-02T13:01:42Z</time></trkpt><trkpt lat="42.109161120342215" lon="13.316394399067843"><ele>700.0</ele><time>2026-05-02T13:01:43Z</time></trkpt><trkpt lat="42.109256378353685" lon="13.316112690768598"><ele>700.0</ele><time>2026-05-02T13:01:44Z</time></trkpt><trkpt lat="42.109358869321085" lon="13.315831084715246"><ele>700.0</ele><time>2026-05-02T13:01:45Z</time></trkpt><trkpt lat="42.10946781668572" lon="13.315548847446612"><ele>698.5</ele><time>2026-05-02T13:01:46Z</time></trkpt><trkpt lat="42.10957739018704" lon="13.315263226881807"><ele>697.0</ele><time>2026-05-02T13:01:47Z</time></trkpt><trkpt lat="42.10969368947318" lon="13.314979093640943"><ele>695.5</ele><time>2026-05-02T13:01:48Z</time></trkpt><trkpt lat="42.10981119346098" lon="13.314697465135405"><ele>694.0</ele><time>2026-05-02T13:01:49Z</time></trkpt><trkpt lat="42.109928194242755" lon="13.314414827583034"><ele>695.5</ele><time>2026-05-02T13:01:50Z</time></trkpt><trkpt lat="42.11003997585677" lon="13.314129379693325"><ele>697.0</ele><time>2026-05-02T13:01:51Z</time></trkpt><trkpt lat="42.11015610621501" lon="13.313848914956663"><ele>697.0</ele><time>2026-05-02T13:01:52Z</time></trkpt><trkpt lat="42.11027213846064" lon="13.313571623994346"><ele>697.0</ele><time>2026-05-02T13:01:53Z</time></trkpt><trkpt lat="42.11038415707549" lon="13.313297582418338"><ele>696.5</ele><time>2026-05-02T13:01:54.001Z</time></trkpt><trkpt lat="42.11049322892582" lon="13.313027534741055"><ele>696.0</ele><time>2026-05-02T13:01:55Z</time></trkpt><trkpt lat="42.110626550956674" lon="13.312778620453818"><ele>699.5</ele><time>2026-05-02T13:01:56Z</time></trkpt><trkpt lat="42.1107640796037" lon="13.312533639885938"><ele>703.0</ele><time>2026-05-02T13:01:57Z</time></trkpt><trkpt lat="42.11091129933507" lon="13.312299922815955"><ele>700.5</ele><time>2026-05-02T13:01:58Z</time></trkpt><trkpt lat="42.11104886430106" lon="13.31205319590689"><ele>698.0</ele><time>2026-05-02T13:01:59Z</time></trkpt><trkpt lat="42.11119949326929" lon="13.311823922439716"><ele>698.0</ele><time>2026-05-02T13:02:00Z</time></trkpt><trkpt lat="42.111348021911816" lon="13.311593426628713"><ele>698.0</ele><time>2026-05-02T13:02:01Z</time></trkpt><trkpt lat="42.11149570262927" lon="13.311369306657966"><ele>698.0</ele><time>2026-05-02T13:02:02Z</time></trkpt><trkpt lat="42.111638405223154" lon="13.311150882138246"><ele>697.6666666666666</ele><time>2026-05-02T13:02:03Z</time></trkpt><trkpt lat="42.11177222479984" lon="13.310946353457018"><ele>697.3333333333334</ele><time>2026-05-02T13:02:04Z</time></trkpt><trkpt lat="42.111902305997845" lon="13.310749994346887"><ele>697.0</ele><time>2026-05-02T13:02:05Z</time></trkpt><trkpt lat="42.11204247685576" lon="13.31056507471709"><ele>697.0</ele><time>2026-05-02T13:02:06Z</time></trkpt><trkpt lat="42.112205150871695" lon="13.310404963492854"><ele>697.0</ele><time>2026-05-02T13:02:07Z</time></trkpt><trkpt lat="42.11238778497086" lon="13.310269275544366"><ele>697.0</ele><time>2026-05-02T13:02:08Z</time></trkpt><trkpt lat="42.11257864152686" lon="13.31013739767736"><ele>696.6666666666667</ele><time>2026-05-02T13:02:09Z</time></trkpt><trkpt lat="42.112780341640146" lon="13.310019857367939"><ele>696.3333333333334</ele><time>2026-05-02T13:02:10Z</time></trkpt><trkpt lat="42.112978583280565" lon="13.309882575606347"><ele>696.0</ele><time>2026-05-02T13:02:11Z</time></trkpt><trkpt lat="42.113103555948015" lon="13.309566482157221"><ele>699.5</ele><time>2026-05-02T13:02:12Z</time></trkpt><trkpt lat="42.11326442782297" lon="13.309327048970115"><ele>703.0</ele><time>2026-05-02T13:02:13Z</time></trkpt><trkpt lat="42.11342373599662" lon="13.30907433957097"><ele>699.5</ele><time>2026-05-02T13:02:14Z</time></trkpt><trkpt lat="42.11358180440067" lon="13.308822656400647"><ele>696.0</ele><time>2026-05-02T13:02:15Z</time></trkpt><trkpt lat="42.113738110969074" lon="13.308569221738301"><ele>696.0</ele><time>2026-05-02T13:02:16Z</time></trkpt><trkpt lat="42.11390347815112" lon="13.3083304422331"><ele>696.0</ele><time>2026-05-02T13:02:17Z</time></trkpt><trkpt lat="42.11405856772233" lon="13.308077545295925"><ele>697.5</ele><time>2026-05-02T13:02:18Z</time></trkpt><trkpt lat="42.114222703389636" lon="13.307837436362476"><ele>699.0</ele><time>2026-05-02T13:02:19Z</time></trkpt><trkpt lat="42.114382109952146" lon="13.307592333899679"><ele>699.0</ele><time>2026-05-02T13:02:20Z</time></trkpt><trkpt lat="42.11454322010058" lon="13.307346157851738"><ele>699.0</ele><time>2026-05-02T13:02:21Z</time></trkpt><trkpt lat="42.11470068702663" lon="13.30709985301237"><ele>697.5</ele><time>2026-05-02T13:02:22Z</time></trkpt><trkpt lat="42.11486170556584" lon="13.306856678079232"><ele>696.0</ele><time>2026-05-02T13:02:23Z</time></trkpt><trkpt lat="42.11501952864047" lon="13.306609105482448"><ele>697.0</ele><time>2026-05-02T13:02:24Z</time></trkpt><trkpt lat="42.11517440008208" lon="13.306358006757035"><ele>698.0</ele><time>2026-05-02T13:02:25Z</time></trkpt><trkpt lat="42.11532211143273" lon="13.306099479996595"><ele>698.0</ele><time>2026-05-02T13:02:26Z</time></trkpt><trkpt lat="42.1154625242084" lon="13.305831980621726"><ele>698.0</ele><time>2026-05-02T13:02:27Z</time></trkpt><trkpt lat="42.11560063733955" lon="13.305562666633186"><ele>696.5</ele><time>2026-05-02T13:02:28Z</time></trkpt><trkpt lat="42.11573295151631" lon="13.30529719834176"><ele>695.0</ele><time>2026-05-02T13:02:29Z</time></trkpt><trkpt lat="42.11585784785409" lon="13.305045544900942"><ele>696.6666666666666</ele><time>2026-05-02T13:02:30Z</time></trkpt><trkpt lat="42.115972195680556" lon="13.304783684002643"><ele>698.3333333333334</ele><time>2026-05-02T13:02:31Z</time></trkpt><trkpt lat="42.11605016440933" lon="13.304508183088032"><ele>700.0</ele><time>2026-05-02T13:02:32Z</time></trkpt><trkpt lat="42.116084726370964" lon="13.30421428923246"><ele>700.0</ele><time>2026-05-02T13:02:33Z</time></trkpt><trkpt lat="42.116099748631285" lon="13.303925423972283"><ele>700.0</ele><time>2026-05-02T13:02:34Z</time></trkpt><trkpt lat="42.11611157028184" lon="13.303641189995165"><ele>700.0</ele><time>2026-05-02T13:02:35Z</time></trkpt><trkpt lat="42.11613769967892" lon="13.303364668572712"><ele>700.0</ele><time>2026-05-02T13:02:36Z</time></trkpt><trkpt lat="42.11618714253086" lon="13.303098666650936"><ele>700.0</ele><time>2026-05-02T13:02:37Z</time></trkpt><trkpt lat="42.116245435465494" lon="13.302851970295865"><ele>700.0</ele><time>2026-05-02T13:02:38Z</time></trkpt><trkpt lat="42.11631128498384" lon="13.302625577006612"><ele>700.0</ele><time>2026-05-02T13:02:39Z</time></trkpt><trkpt lat="42.116396723221285" lon="13.302422546925229"><ele>700.0</ele><time>2026-05-02T13:02:40Z</time></trkpt><trkpt lat="42.11651179169984" lon="13.302240997791714"><ele>700.0</ele><time>2026-05-02T13:02:41Z</time></trkpt><trkpt lat="42.11663115317746" lon="13.302075547286588"><ele>700.6666666666667</ele><time>2026-05-02T13:02:42Z</time></trkpt><trkpt lat="42.116755872457865" lon="13.301919328074982"><ele>701.3333333333334</ele><time>2026-05-02T13:02:43Z</time></trkpt><trkpt lat="42.11689387049351" lon="13.301785942441253"><ele>702.0</ele><time>2026-05-02T13:02:44Z</time></trkpt><trkpt lat="42.117037824637926" lon="13.301663667930423"><ele>702.0</ele><time>2026-05-02T13:02:45Z</time></trkpt><trkpt lat="42.11718056775564" lon="13.301550264724117"><ele>702.0</ele><time>2026-05-02T13:02:46Z</time></trkpt><trkpt lat="42.117320387189324" lon="13.301446010859424"><ele>702.0</ele><time>2026-05-02T13:02:47Z</time></trkpt><trkpt lat="42.11745737455917" lon="13.301340544782924"><ele>701.3333333333334</ele><time>2026-05-02T13:02:48Z</time></trkpt><trkpt lat="42.117606467874886" lon="13.301248596772261"><ele>700.6666666666667</ele><time>2026-05-02T13:02:49Z</time></trkpt><trkpt lat="42.11776282556271" lon="13.301183707339751"><ele>700.0</ele><time>2026-05-02T13:02:50Z</time></trkpt><trkpt lat="42.117929422238134" lon="13.301159859857757"><ele>700.0</ele><time>2026-05-02T13:02:51Z</time></trkpt><trkpt lat="42.118097872077875" lon="13.30116348111114"><ele>700.0</ele><time>2026-05-02T13:02:52Z</time></trkpt><trkpt lat="42.11826631103014" lon="13.301177017093538"><ele>700.0</ele><time>2026-05-02T13:02:53Z</time></trkpt><trkpt lat="42.11843894365663" lon="13.301189823598317"><ele>700.6666666666667</ele><time>2026-05-02T13:02:54Z</time></trkpt><trkpt lat="42.11861150954075" lon="13.301206259989286"><ele>701.3333333333334</ele><time>2026-05-02T13:02:55Z</time></trkpt><trkpt lat="42.118783380688384" lon="13.301223416345895"><ele>702.0</ele><time>2026-05-02T13:02:56Z</time></trkpt><trkpt lat="42.118952186290805" lon="13.30124740307927"><ele>701.6666666666666</ele><time>2026-05-02T13:02:57Z</time></trkpt><trkpt lat="42.11911791052902" lon="13.301297984784137"><ele>701.3333333333333</ele><time>2026-05-02T13:02:58Z</time></trkpt><trkpt lat="42.11927088994884" lon="13.30138103592672"><ele>701.0</ele><time>2026-05-02T13:02:59Z</time></trkpt><trkpt lat="42.11941847157322" lon="13.301462938884917"><ele>704.3333333333333</ele><time>2026-05-02T13:03:00Z</time></trkpt><trkpt lat="42.11956825768833" lon="13.301538646504063"><ele>707.6666666666666</ele><time>2026-05-02T13:03:01Z</time></trkpt><trkpt lat="42.119724983502145" lon="13.30158875726378"><ele>711.0</ele><time>2026-05-02T13:03:02Z</time></trkpt><trkpt lat="42.119887532328214" lon="13.30159667227985"><ele>711.3333333333334</ele><time>2026-05-02T13:03:03Z</time></trkpt><trkpt lat="42.12004901096687" lon="13.30154821629617"><ele>711.6666666666667</ele><time>2026-05-02T13:03:04Z</time></trkpt><trkpt lat="42.12020717251412" lon="13.301459885814682"><ele>712.0</ele><time>2026-05-02T13:03:05Z</time></trkpt><trkpt lat="42.120358356259565" lon="13.301364976884454"><ele>709.3333333333334</ele><time>2026-05-02T13:03:06Z</time></trkpt><trkpt lat="42.12050781635575" lon="13.301274317092172"><ele>706.6666666666666</ele><time>2026-05-02T13:03:07Z</time></trkpt><trkpt lat="42.12065925294429" lon="13.301182858347078"><ele>704.0</ele><time>2026-05-02T13:03:08Z</time></trkpt><trkpt lat="42.12081289060867" lon="13.301086903254674"><ele>704.0</ele><time>2026-05-02T13:03:09Z</time></trkpt><trkpt lat="42.12096647126602" lon="13.300973747970326"><ele>704.0</ele><time>2026-05-02T13:03:10Z</time></trkpt><trkpt lat="42.12111462656597" lon="13.300836188832408"><ele>704.0</ele><time>2026-05-02T13:03:11Z</time></trkpt><trkpt lat="42.12125550821054" lon="13.30067203105724"><ele>704.0</ele><time>2026-05-02T13:03:12Z</time></trkpt><trkpt lat="42.12139275305286" lon="13.300499116568764"><ele>704.0</ele><time>2026-05-02T13:03:13Z</time></trkpt><trkpt lat="42.12152841062498" lon="13.300326978431048"><ele>704.0</ele><time>2026-05-02T13:03:14Z</time></trkpt><trkpt lat="42.12166217774841" lon="13.300154439773378"><ele>704.0</ele><time>2026-05-02T13:03:15Z</time></trkpt><trkpt lat="42.12179859623313" lon="13.299980989305224"><ele>704.0</ele><time>2026-05-02T13:03:16Z</time></trkpt><trkpt lat="42.12193804422797" lon="13.299808370115633"><ele>704.0</ele><time>2026-05-02T13:03:17Z</time></trkpt><trkpt lat="42.122079509442464" lon="13.299633420017612"><ele>703.3333333333333</ele><time>2026-05-02T13:03:18Z</time></trkpt><trkpt lat="42.122227802794214" lon="13.299452978485848"><ele>702.6666666666666</ele><time>2026-05-02T13:03:19Z</time></trkpt><trkpt lat="42.12237627648266" lon="13.299264130841008"><ele>702.0</ele><time>2026-05-02T13:03:20Z</time></trkpt><trkpt lat="42.12252871251438" lon="13.29906857477347"><ele>700.3333333333334</ele><time>2026-05-02T13:03:21Z</time></trkpt><trkpt lat="42.122686442174114" lon="13.298871147966977"><ele>698.6666666666667</ele><time>2026-05-02T13:03:22Z</time></trkpt><trkpt lat="42.122849990826246" lon="13.29865723270723"><ele>697.0</ele><time>2026-05-02T13:03:23Z</time></trkpt><trkpt lat="42.12303824369491" lon="13.298448699121977"><ele>697.0</ele><time>2026-05-02T13:03:24Z</time></trkpt><trkpt lat="42.12322634310956" lon="13.298213498332517"><ele>697.0</ele><time>2026-05-02T13:03:25Z</time></trkpt><trkpt lat="42.12342282903389" lon="13.297967810600092"><ele>697.5</ele><time>2026-05-02T13:03:26Z</time></trkpt><trkpt lat="42.12362403267932" lon="13.297716223457007"><ele>698.0</ele><time>2026-05-02T13:03:27Z</time></trkpt><trkpt lat="42.123813236311236" lon="13.297456306604785"><ele>698.0</ele><time>2026-05-02T13:03:28Z</time></trkpt><trkpt lat="42.12401655791483" lon="13.297217018837097"><ele>698.0</ele><time>2026-05-02T13:03:29Z</time></trkpt><trkpt lat="42.12420775681966" lon="13.296963958700363"><ele>698.0</ele><time>2026-05-02T13:03:30Z</time></trkpt><trkpt lat="42.124411894518076" lon="13.29673422912155"><ele>698.0</ele><time>2026-05-02T13:03:31Z</time></trkpt><trkpt lat="42.124606379067785" lon="13.296492180441419"><ele>698.5</ele><time>2026-05-02T13:03:32Z</time></trkpt><trkpt lat="42.12479786776876" lon="13.296253861113737"><ele>699.0</ele><time>2026-05-02T13:03:33Z</time></trkpt><trkpt lat="42.12499119720007" lon="13.296012536988826"><ele>699.0</ele><time>2026-05-02T13:03:34Z</time></trkpt><trkpt lat="42.12516986496806" lon="13.295766153586547"><ele>699.0</ele><time>2026-05-02T13:03:35Z</time></trkpt><trkpt lat="42.12535575216688" lon="13.29553292520264"><ele>696.5</ele><time>2026-05-02T13:03:36Z</time></trkpt><trkpt lat="42.12555071830757" lon="13.295315028566566"><ele>694.0</ele><time>2026-05-02T13:03:37Z</time></trkpt><trkpt lat="42.12572571893188" lon="13.295071291104316"><ele>696.0</ele><time>2026-05-02T13:03:38Z</time></trkpt><trkpt lat="42.125912380476954" lon="13.2948434038103"><ele>698.0</ele><time>2026-05-02T13:03:39Z</time></trkpt><trkpt lat="42.126098090950016" lon="13.29461475139937"><ele>698.0</ele><time>2026-05-02T13:03:40Z</time></trkpt><trkpt lat="42.12628011245238" lon="13.29438523003979"><ele>698.0</ele><time>2026-05-02T13:03:41Z</time></trkpt><trkpt lat="42.126466923821056" lon="13.294159772208749"><ele>698.0</ele><time>2026-05-02T13:03:42Z</time></trkpt><trkpt lat="42.12664800249186" lon="13.293931605104103"><ele>698.0</ele><time>2026-05-02T13:03:43Z</time></trkpt><trkpt lat="42.12682291660702" lon="13.293700248772385"><ele>698.0</ele><time>2026-05-02T13:03:44Z</time></trkpt><trkpt lat="42.12699807306207" lon="13.293470268841604"><ele>698.0</ele><time>2026-05-02T13:03:45Z</time></trkpt><trkpt lat="42.127165526906545" lon="13.293231994134006"><ele>697.0</ele><time>2026-05-02T13:03:46Z</time></trkpt><trkpt lat="42.12731993250716" lon="13.2929776795142"><ele>696.0</ele><time>2026-05-02T13:03:47Z</time></trkpt><trkpt lat="42.12745052070778" lon="13.292708340821346"><ele>697.5</ele><time>2026-05-02T13:03:48Z</time></trkpt><trkpt lat="42.127571048483375" lon="13.29243859879923"><ele>699.0</ele><time>2026-05-02T13:03:49Z</time></trkpt><trkpt lat="42.127676780824345" lon="13.29217000089158"><ele>699.0</ele><time>2026-05-02T13:03:50Z</time></trkpt><trkpt lat="42.12775155962281" lon="13.291882679275547"><ele>699.0</ele><time>2026-05-02T13:03:51Z</time></trkpt><trkpt lat="42.12778671324518" lon="13.291572295227287"><ele>699.0</ele><time>2026-05-02T13:03:52Z</time></trkpt><trkpt lat="42.12780195892531" lon="13.29125601505889"><ele>699.0</ele><time>2026-05-02T13:03:53Z</time></trkpt><trkpt lat="42.12781784973625" lon="13.29094173315772"><ele>699.0</ele><time>2026-05-02T13:03:54Z</time></trkpt><trkpt lat="42.12783271163426" lon="13.290631550788987"><ele>699.0</ele><time>2026-05-02T13:03:55Z</time></trkpt><trkpt lat="42.12785248960967" lon="13.290321317988655"><ele>699.0</ele><time>2026-05-02T13:03:56Z</time></trkpt><trkpt lat="42.12787218191023" lon="13.290011567525447"><ele>699.0</ele><time>2026-05-02T13:03:57Z</time></trkpt><trkpt lat="42.127893050654215" lon="13.289707737571172"><ele>698.3333333333334</ele><time>2026-05-02T13:03:58Z</time></trkpt><trkpt lat="42.12792013250621" lon="13.289406918383786"><ele>697.6666666666667</ele><time>2026-05-02T13:03:59Z</time></trkpt><trkpt lat="42.12796047210115" lon="13.289112079080429"><ele>697.0</ele><time>2026-05-02T13:04:00Z</time></trkpt><trkpt lat="42.128024243894686" lon="13.288821385075302"><ele>696.5</ele><time>2026-05-02T13:04:01Z</time></trkpt><trkpt lat="42.12811496048577" lon="13.288541386262025"><ele>696.0</ele><time>2026-05-02T13:04:02Z</time></trkpt><trkpt lat="42.12823432084269" lon="13.288282773544605"><ele>696.5</ele><time>2026-05-02T13:04:03Z</time></trkpt><trkpt lat="42.12836166685592" lon="13.288023478370176"><ele>697.0</ele><time>2026-05-02T13:04:04Z</time></trkpt><trkpt lat="42.12848617041373" lon="13.287760078256289"><ele>697.0</ele><time>2026-05-02T13:04:05Z</time></trkpt><trkpt lat="42.12861269985274" lon="13.287501819611448"><ele>697.0</ele><time>2026-05-02T13:04:06Z</time></trkpt><trkpt lat="42.128739391775206" lon="13.287241743603564"><ele>696.5</ele><time>2026-05-02T13:04:07Z</time></trkpt><trkpt lat="42.12886499587142" lon="13.286977762341744"><ele>696.0</ele><time>2026-05-02T13:04:08Z</time></trkpt><trkpt lat="42.128989322819" lon="13.2867136593329"><ele>695.5</ele><time>2026-05-02T13:04:09Z</time></trkpt><trkpt lat="42.12911100872728" lon="13.286450046211149"><ele>695.0</ele><time>2026-05-02T13:04:10Z</time></trkpt><trkpt lat="42.129236381139016" lon="13.286194631644955"><ele>695.0</ele><time>2026-05-02T13:04:11Z</time></trkpt><trkpt lat="42.12935752315702" lon="13.285939655992502"><ele>695.0</ele><time>2026-05-02T13:04:12Z</time></trkpt><trkpt lat="42.129485920945385" lon="13.28568770625373"><ele>694.3333333333333</ele><time>2026-05-02T13:04:13Z</time></trkpt><trkpt lat="42.12960782951115" lon="13.285433893831325"><ele>693.6666666666666</ele><time>2026-05-02T13:04:14Z</time></trkpt><trkpt lat="42.12972725083617" lon="13.285180662798352"><ele>693.0</ele><time>2026-05-02T13:04:15Z</time></trkpt><trkpt lat="42.12984539434266" lon="13.284939662752103"><ele>693.6666666666666</ele><time>2026-05-02T13:04:16Z</time></trkpt><trkpt lat="42.12995839044684" lon="13.284710560577269"><ele>694.3333333333333</ele><time>2026-05-02T13:04:17Z</time></trkpt><trkpt lat="42.130067625872584" lon="13.284492140055049"><ele>695.0</ele><time>2026-05-02T13:04:18Z</time></trkpt><trkpt lat="42.130173075406766" lon="13.284281851273375"><ele>695.0</ele><time>2026-05-02T13:04:19Z</time></trkpt><trkpt lat="42.130273458455456" lon="13.284072126339472"><ele>695.0</ele><time>2026-05-02T13:04:20Z</time></trkpt><trkpt lat="42.130373580354366" lon="13.283862736788405"><ele>695.0</ele><time>2026-05-02T13:04:21Z</time></trkpt><trkpt lat="42.13047974040983" lon="13.283651379036131"><ele>694.6666666666666</ele><time>2026-05-02T13:04:22Z</time></trkpt><trkpt lat="42.13057957207445" lon="13.283438118390174"><ele>694.3333333333334</ele><time>2026-05-02T13:04:23Z</time></trkpt><trkpt lat="42.130684555073806" lon="13.283229182818657"><ele>694.0</ele><time>2026-05-02T13:04:24Z</time></trkpt><trkpt lat="42.130788239959145" lon="13.283017022025877"><ele>694.0</ele><time>2026-05-02T13:04:25Z</time></trkpt><trkpt lat="42.13089159003875" lon="13.282807221919366"><ele>694.0</ele><time>2026-05-02T13:04:26Z</time></trkpt><trkpt lat="42.130993684258506" lon="13.28261131920128"><ele>694.0</ele><time>2026-05-02T13:04:27Z</time></trkpt><trkpt lat="42.131097647615384" lon="13.282417380121052"><ele>693.3333333333334</ele><time>2026-05-02T13:04:28Z</time></trkpt><trkpt lat="42.131200722865145" lon="13.282230283992266"><ele>692.6666666666666</ele><time>2026-05-02T13:04:29Z</time></trkpt><trkpt lat="42.13130691977493" lon="13.282061763081519"><ele>692.0</ele><time>2026-05-02T13:04:30Z</time></trkpt><trkpt lat="42.13142910351698" lon="13.281898959768561"><ele>691.6666666666666</ele><time>2026-05-02T13:04:31Z</time></trkpt><trkpt lat="42.1315614482354" lon="13.281734527461625"><ele>691.3333333333334</ele><time>2026-05-02T13:04:32Z</time></trkpt><trkpt lat="42.13169760745878" lon="13.281564811511089"><ele>691.0</ele><time>2026-05-02T13:04:33Z</time></trkpt><trkpt lat="42.13184537303748" lon="13.281415699133056"><ele>691.0</ele><time>2026-05-02T13:04:34Z</time></trkpt><trkpt lat="42.13199843092401" lon="13.281262139273961"><ele>691.0</ele><time>2026-05-02T13:04:35Z</time></trkpt><trkpt lat="42.13216115639825" lon="13.281113847350545"><ele>691.0</ele><time>2026-05-02T13:04:36Z</time></trkpt><trkpt lat="42.132335368294726" lon="13.280977728768478"><ele>693.6666666666667</ele><time>2026-05-02T13:04:37Z</time></trkpt><trkpt lat="42.13251682534344" lon="13.280845885143686"><ele>696.3333333333334</ele><time>2026-05-02T13:04:38Z</time></trkpt><trkpt lat="42.13270734166192" lon="13.280722893059659"><ele>699.0</ele><time>2026-05-02T13:04:39Z</time></trkpt><trkpt lat="42.13290468190479" lon="13.280612946727066"><ele>696.6666666666666</ele><time>2026-05-02T13:04:40Z</time></trkpt><trkpt lat="42.133112996888" lon="13.28051331417247"><ele>694.3333333333333</ele><time>2026-05-02T13:04:41Z</time></trkpt><trkpt lat="42.13332244359545" lon="13.280408430521321"><ele>692.0</ele><time>2026-05-02T13:04:42Z</time></trkpt><trkpt lat="42.13353386238152" lon="13.280304023344083"><ele>692.0</ele><time>2026-05-02T13:04:43Z</time></trkpt><trkpt lat="42.13374515553185" lon="13.280205860623013"><ele>692.0</ele><time>2026-05-02T13:04:44Z</time></trkpt><trkpt lat="42.13395638186254" lon="13.280103371794382"><ele>692.0</ele><time>2026-05-02T13:04:45Z</time></trkpt><trkpt lat="42.134170829148275" lon="13.279994785979992"><ele>695.5</ele><time>2026-05-02T13:04:46Z</time></trkpt><trkpt lat="42.13438841330452" lon="13.279886299871947"><ele>699.0</ele><time>2026-05-02T13:04:47Z</time></trkpt><trkpt lat="42.13460900971084" lon="13.27977922863759"><ele>697.0</ele><time>2026-05-02T13:04:48Z</time></trkpt><trkpt lat="42.134833288320266" lon="13.279665570522452"><ele>695.0</ele><time>2026-05-02T13:04:49Z</time></trkpt><trkpt lat="42.13505743099302" lon="13.279549361019827"><ele>695.0</ele><time>2026-05-02T13:04:50Z</time></trkpt><trkpt lat="42.135285027857385" lon="13.279437393957378"><ele>695.0</ele><time>2026-05-02T13:04:51Z</time></trkpt><trkpt lat="42.13551383664693" lon="13.279325104378445"><ele>696.0</ele><time>2026-05-02T13:04:52Z</time></trkpt><trkpt lat="42.135740870589814" lon="13.279212272034533"><ele>697.0</ele><time>2026-05-02T13:04:53Z</time></trkpt><trkpt lat="42.13596578713217" lon="13.27910237363835"><ele>697.0</ele><time>2026-05-02T13:04:54Z</time></trkpt><trkpt lat="42.136190475256434" lon="13.278994368333096"><ele>697.0</ele><time>2026-05-02T13:04:55Z</time></trkpt><trkpt lat="42.13641362877996" lon="13.278884245060558"><ele>697.0</ele><time>2026-05-02T13:04:56Z</time></trkpt><trkpt lat="42.13663194234739" lon="13.27877296180579"><ele>697.0</ele><time>2026-05-02T13:04:57Z</time></trkpt><trkpt lat="42.13684595939653" lon="13.278663400397303"><ele>697.0</ele><time>2026-05-02T13:04:58Z</time></trkpt><trkpt lat="42.1370544410973" lon="13.27854829197204"><ele>697.0</ele><time>2026-05-02T13:04:59Z</time></trkpt><trkpt lat="42.137254302688085" lon="13.278416835979366"><ele>697.0</ele><time>2026-05-02T13:05:00Z</time></trkpt><trkpt lat="42.13744342368256" lon="13.278253298614047"><ele>697.0</ele><time>2026-05-02T13:05:01Z</time></trkpt><trkpt lat="42.13762413693046" lon="13.27806774725869"><ele>697.0</ele><time>2026-05-02T13:05:02Z</time></trkpt><trkpt lat="42.13780597456606" lon="13.277887654742292"><ele>697.0</ele><time>2026-05-02T13:05:03Z</time></trkpt><trkpt lat="42.13798865752282" lon="13.277712891803105"><ele>697.0</ele><time>2026-05-02T13:05:04Z</time></trkpt><trkpt lat="42.13816505208687" lon="13.277542885516018"><ele>697.0</ele><time>2026-05-02T13:05:05Z</time></trkpt><trkpt lat="42.13834564161323" lon="13.277365734546123"><ele>697.3333333333334</ele><time>2026-05-02T13:05:06Z</time></trkpt><trkpt lat="42.13852404568528" lon="13.27718365218734"><ele>697.6666666666666</ele><time>2026-05-02T13:05:07Z</time></trkpt><trkpt lat="42.138704454171474" lon="13.277008231852959"><ele>698.0</ele><time>2026-05-02T13:05:08Z</time></trkpt><trkpt lat="42.13888416429286" lon="13.276834152400248"><ele>697.6666666666666</ele><time>2026-05-02T13:05:09Z</time></trkpt><trkpt lat="42.139064182601615" lon="13.27666188053689"><ele>697.3333333333334</ele><time>2026-05-02T13:05:10Z</time></trkpt><trkpt lat="42.13925416590537" lon="13.276508722737985"><ele>697.0</ele><time>2026-05-02T13:05:11Z</time></trkpt><trkpt lat="42.13945712237672" lon="13.276381228127903"><ele>697.0</ele><time>2026-05-02T13:05:12Z</time></trkpt><trkpt lat="42.139669996616874" lon="13.276284490154653"><ele>697.0</ele><time>2026-05-02T13:05:13Z</time></trkpt><trkpt lat="42.13988670028094" lon="13.276201989340766"><ele>699.0</ele><time>2026-05-02T13:05:14Z</time></trkpt><trkpt lat="42.140112553778536" lon="13.276106133779349"><ele>701.0</ele><time>2026-05-02T13:05:15Z</time></trkpt><trkpt lat="42.140334854496174" lon="13.276020953816008"><ele>701.0</ele><time>2026-05-02T13:05:16Z</time></trkpt><trkpt lat="42.14056023200527" lon="13.27592842252167"><ele>701.0</ele><time>2026-05-02T13:05:17Z</time></trkpt><trkpt lat="42.140785980462184" lon="13.275836442484552"><ele>703.5</ele><time>2026-05-02T13:05:18Z</time></trkpt><trkpt lat="42.141010988688045" lon="13.2757448386991"><ele>706.0</ele><time>2026-05-02T13:05:19Z</time></trkpt><trkpt lat="42.1412379871646" lon="13.275653397513365"><ele>704.0</ele><time>2026-05-02T13:05:20Z</time></trkpt><trkpt lat="42.141465978540246" lon="13.275564699431454"><ele>702.0</ele><time>2026-05-02T13:05:21Z</time></trkpt><trkpt lat="42.14169286822269" lon="13.275478540266406"><ele>702.0</ele><time>2026-05-02T13:05:22Z</time></trkpt><trkpt lat="42.14191937300781" lon="13.275389898729612"><ele>702.0</ele><time>2026-05-02T13:05:23Z</time></trkpt><trkpt lat="42.14214228996653" lon="13.275298000805085"><ele>702.0</ele><time>2026-05-02T13:05:24Z</time></trkpt><trkpt lat="42.14236487782886" lon="13.275210580593154"><ele>702.0</ele><time>2026-05-02T13:05:25Z</time></trkpt><trkpt lat="42.14258798519102" lon="13.275123422259279"><ele>705.0</ele><time>2026-05-02T13:05:26Z</time></trkpt><trkpt lat="42.14281029368513" lon="13.275032894783603"><ele>708.0</ele><time>2026-05-02T13:05:27Z</time></trkpt><trkpt lat="42.14303224804973" lon="13.274943020112655"><ele>706.5</ele><time>2026-05-02T13:05:28Z</time></trkpt><trkpt lat="42.14325367440779" lon="13.27485379533685"><ele>705.0</ele><time>2026-05-02T13:05:29Z</time></trkpt><trkpt lat="42.14347506951753" lon="13.274765645206125"><ele>705.0</ele><time>2026-05-02T13:05:30Z</time></trkpt><trkpt lat="42.143696740167464" lon="13.274672858018944"><ele>705.0</ele><time>2026-05-02T13:05:31Z</time></trkpt><trkpt lat="42.14391833479851" lon="13.27458413462517"><ele>706.5</ele><time>2026-05-02T13:05:32Z</time></trkpt><trkpt lat="42.1441396592969" lon="13.274510417083711"><ele>708.0</ele><time>2026-05-02T13:05:33Z</time></trkpt><trkpt lat="42.14437058820488" lon="13.274459036184378"><ele>708.0</ele><time>2026-05-02T13:05:34Z</time></trkpt><trkpt lat="42.144583668225444" lon="13.274443197807766"><ele>708.0</ele><time>2026-05-02T13:05:35Z</time></trkpt><trkpt lat="42.144778330529924" lon="13.274437329205599"><ele>708.0</ele><time>2026-05-02T13:05:36Z</time></trkpt><trkpt lat="42.1449470163604" lon="13.27444974353207"><ele>710.0</ele><time>2026-05-02T13:05:37Z</time></trkpt><trkpt lat="42.145108155211446" lon="13.274504132231437"><ele>712.0</ele><time>2026-05-02T13:05:38Z</time></trkpt><trkpt lat="42.14527339082494" lon="13.274627121764343"><ele>714.0</ele><time>2026-05-02T13:05:39Z</time></trkpt><trkpt lat="42.14544411805883" lon="13.27477070902246"><ele>714.0</ele><time>2026-05-02T13:05:40Z</time></trkpt><trkpt lat="42.145628652955864" lon="13.274917754793147"><ele>714.0</ele><time>2026-05-02T13:05:41Z</time></trkpt><trkpt lat="42.14581997608048" lon="13.275066567807015"><ele>714.0</ele><time>2026-05-02T13:05:42Z</time></trkpt><trkpt lat="42.14601582129374" lon="13.275216724748233"><ele>714.0</ele><time>2026-05-02T13:05:43Z</time></trkpt><trkpt lat="42.14621287728462" lon="13.275368970272565"><ele>714.0</ele><time>2026-05-02T13:05:44Z</time></trkpt><trkpt lat="42.14641330015981" lon="13.27552059933548"><ele>715.3333333333334</ele><time>2026-05-02T13:05:45Z</time></trkpt><trkpt lat="42.146605859676626" lon="13.275672341739996"><ele>716.6666666666667</ele><time>2026-05-02T13:05:46Z</time></trkpt><trkpt lat="42.14678725632052" lon="13.275809347745799"><ele>718.0</ele><time>2026-05-02T13:05:47Z</time></trkpt><trkpt lat="42.14696711436561" lon="13.275925390920037"><ele>718.0</ele><time>2026-05-02T13:05:48Z</time></trkpt><trkpt lat="42.14716769969576" lon="13.276005589696272"><ele>718.0</ele><time>2026-05-02T13:05:49Z</time></trkpt><trkpt lat="42.14738991467967" lon="13.276031856633546"><ele>718.0</ele><time>2026-05-02T13:05:50Z</time></trkpt><trkpt lat="42.14762135569927" lon="13.276024072360052"><ele>719.0</ele><time>2026-05-02T13:05:51Z</time></trkpt><trkpt lat="42.14785398237504" lon="13.275998566483786"><ele>720.0</ele><time>2026-05-02T13:05:52Z</time></trkpt><trkpt lat="42.14809168971113" lon="13.275966695278425"><ele>721.5</ele><time>2026-05-02T13:05:53Z</time></trkpt><trkpt lat="42.148332323834246" lon="13.275942948562376"><ele>723.0</ele><time>2026-05-02T13:05:54Z</time></trkpt><trkpt lat="42.148570539902956" lon="13.27592578712849"><ele>723.0</ele><time>2026-05-02T13:05:55Z</time></trkpt><trkpt lat="42.14879363334436" lon="13.275903224335252"><ele>723.0</ele><time>2026-05-02T13:05:56Z</time></trkpt><trkpt lat="42.14902320787256" lon="13.275875377716455"><ele>723.3333333333334</ele><time>2026-05-02T13:05:57Z</time></trkpt><trkpt lat="42.149247239847774" lon="13.275849231814457"><ele>723.6666666666667</ele><time>2026-05-02T13:05:58Z</time></trkpt><trkpt lat="42.14946657699606" lon="13.275830772927387"><ele>724.0</ele><time>2026-05-02T13:05:59Z</time></trkpt><trkpt lat="42.14968205357253" lon="13.275804246836543"><ele>725.0</ele><time>2026-05-02T13:06:00Z</time></trkpt><trkpt lat="42.14989578580178" lon="13.275783789286717"><ele>726.0</ele><time>2026-05-02T13:06:01Z</time></trkpt><trkpt lat="42.150096675721564" lon="13.275767343236241"><ele>727.0</ele><time>2026-05-02T13:06:02Z</time></trkpt><trkpt lat="42.15030617028512" lon="13.275731622075154"><ele>727.0</ele><time>2026-05-02T13:06:03Z</time></trkpt><trkpt lat="42.15051182638234" lon="13.275678653716671"><ele>727.0</ele><time>2026-05-02T13:06:04Z</time></trkpt><trkpt lat="42.1507147375048" lon="13.275598178896237"><ele>727.0</ele><time>2026-05-02T13:06:05Z</time></trkpt><trkpt lat="42.1509211767037" lon="13.275504911249795"><ele>727.3333333333334</ele><time>2026-05-02T13:06:06Z</time></trkpt><trkpt lat="42.151125224425954" lon="13.275407396808557"><ele>727.6666666666666</ele><time>2026-05-02T13:06:07Z</time></trkpt><trkpt lat="42.151331384018064" lon="13.27530509413929"><ele>728.0</ele><time>2026-05-02T13:06:08Z</time></trkpt><trkpt lat="42.151539874663065" lon="13.275200291537688"><ele>728.0</ele><time>2026-05-02T13:06:09Z</time></trkpt><trkpt lat="42.151751574173375" lon="13.275095562637018"><ele>728.0</ele><time>2026-05-02T13:06:10Z</time></trkpt><trkpt lat="42.151964260220545" lon="13.274995296466845"><ele>728.0</ele><time>2026-05-02T13:06:11Z</time></trkpt><trkpt lat="42.15217983455652" lon="13.274891299261391"><ele>728.0</ele><time>2026-05-02T13:06:12Z</time></trkpt><trkpt lat="42.152395292415655" lon="13.274789257613877"><ele>729.0</ele><time>2026-05-02T13:06:13Z</time></trkpt><trkpt lat="42.15261115503298" lon="13.274683319792567"><ele>730.0</ele><time>2026-05-02T13:06:14Z</time></trkpt><trkpt lat="42.152829380303274" lon="13.27457527657844"><ele>730.0</ele><time>2026-05-02T13:06:15Z</time></trkpt><trkpt lat="42.153050325388875" lon="13.274467986245114"><ele>730.0</ele><time>2026-05-02T13:06:16Z</time></trkpt><trkpt lat="42.1532740528569" lon="13.274359454958516"><ele>728.5</ele><time>2026-05-02T13:06:17Z</time></trkpt><trkpt lat="42.15349852034965" lon="13.274247530112296"><ele>727.0</ele><time>2026-05-02T13:06:18Z</time></trkpt><trkpt lat="42.15372373377093" lon="13.2741383893319"><ele>727.0</ele><time>2026-05-02T13:06:19Z</time></trkpt><trkpt lat="42.153956290436824" lon="13.274046981390628"><ele>727.0</ele><time>2026-05-02T13:06:20Z</time></trkpt><trkpt lat="42.15418728792754" lon="13.273935613820017"><ele>724.0</ele><time>2026-05-02T13:06:21Z</time></trkpt><trkpt lat="42.154411316149435" lon="13.2738275260558"><ele>721.0</ele><time>2026-05-02T13:06:22Z</time></trkpt><trkpt lat="42.15464002654278" lon="13.27371717916596"><ele>721.0</ele><time>2026-05-02T13:06:23Z</time></trkpt><trkpt lat="42.154870583030586" lon="13.27360594165823"><ele>721.0</ele><time>2026-05-02T13:06:24Z</time></trkpt><trkpt lat="42.15509717232085" lon="13.273473099274932"><ele>724.5</ele><time>2026-05-02T13:06:25Z</time></trkpt><trkpt lat="42.15533211695321" lon="13.27338326846393"><ele>728.0</ele><time>2026-05-02T13:06:26Z</time></trkpt><trkpt lat="42.155555611168666" lon="13.273275443207709"><ele>729.0</ele><time>2026-05-02T13:06:27Z</time></trkpt><trkpt lat="42.15575569977352" lon="13.273156254807184"><ele>730.0</ele><time>2026-05-02T13:06:28Z</time></trkpt><trkpt lat="42.155949487252634" lon="13.273038553834578"><ele>731.0</ele><time>2026-05-02T13:06:29Z</time></trkpt><trkpt lat="42.1561427648647" lon="13.272951710731835"><ele>731.6666666666666</ele><time>2026-05-02T13:06:30Z</time></trkpt><trkpt lat="42.15633965568628" lon="13.27286825075133"><ele>732.3333333333334</ele><time>2026-05-02T13:06:31Z</time></trkpt><trkpt lat="42.15653836914454" lon="13.272786759441388"><ele>733.0</ele><time>2026-05-02T13:06:32Z</time></trkpt><trkpt lat="42.15673561714262" lon="13.27269722412528"><ele>733.6666666666667</ele><time>2026-05-02T13:06:33Z</time></trkpt><trkpt lat="42.15692199688936" lon="13.272608941217255"><ele>734.3333333333334</ele><time>2026-05-02T13:06:34Z</time></trkpt><trkpt lat="42.15711491102769" lon="13.27251479411543"><ele>735.0</ele><time>2026-05-02T13:06:35Z</time></trkpt><trkpt lat="42.157310320343846" lon="13.272418575609736"><ele>737.0</ele><time>2026-05-02T13:06:36Z</time></trkpt><trkpt lat="42.15750444961007" lon="13.272320830322672"><ele>739.0</ele><time>2026-05-02T13:06:37Z</time></trkpt><trkpt lat="42.157696637021566" lon="13.2722275080731"><ele>741.0</ele><time>2026-05-02T13:06:38Z</time></trkpt><trkpt lat="42.15788916010812" lon="13.272137306892589"><ele>741.6666666666666</ele><time>2026-05-02T13:06:39Z</time></trkpt><trkpt lat="42.158064502228534" lon="13.272043515304885"><ele>742.3333333333333</ele><time>2026-05-02T13:06:40Z</time></trkpt><trkpt lat="42.15822884308837" lon="13.271917046779791"><ele>743.0</ele><time>2026-05-02T13:06:41Z</time></trkpt><trkpt lat="42.15838538111346" lon="13.271753750451467"><ele>743.0</ele><time>2026-05-02T13:06:42Z</time></trkpt><trkpt lat="42.15851978083289" lon="13.271542925583272"><ele>743.0</ele><time>2026-05-02T13:06:43Z</time></trkpt><trkpt lat="42.158649985683724" lon="13.271327255671451"><ele>743.0</ele><time>2026-05-02T13:06:44Z</time></trkpt><trkpt lat="42.158781894762285" lon="13.271123000687037"><ele>744.6666666666666</ele><time>2026-05-02T13:06:45Z</time></trkpt><trkpt lat="42.15890904019287" lon="13.270922436092098"><ele>746.3333333333334</ele><time>2026-05-02T13:06:46Z</time></trkpt><trkpt lat="42.15902379914321" lon="13.270720343184284"><ele>748.0</ele><time>2026-05-02T13:06:47Z</time></trkpt><trkpt lat="42.159123184947745" lon="13.27050407745144"><ele>748.0</ele><time>2026-05-02T13:06:48Z</time></trkpt><trkpt lat="42.15919976054357" lon="13.27027556588343"><ele>748.0</ele><time>2026-05-02T13:06:49Z</time></trkpt><trkpt lat="42.15927285497649" lon="13.2700498107727"><ele>748.0</ele><time>2026-05-02T13:06:50Z</time></trkpt><trkpt lat="42.15938392079467" lon="13.269859924390957"><ele>748.3333333333334</ele><time>2026-05-02T13:06:51Z</time></trkpt><trkpt lat="42.15953057792541" lon="13.269699495992224"><ele>748.6666666666666</ele><time>2026-05-02T13:06:52Z</time></trkpt><trkpt lat="42.15969288896296" lon="13.269561502354234"><ele>749.0</ele><time>2026-05-02T13:06:53Z</time></trkpt><trkpt lat="42.159862242424325" lon="13.269447737149644"><ele>749.6666666666666</ele><time>2026-05-02T13:06:54Z</time></trkpt><trkpt lat="42.16003978987928" lon="13.269383671808715"><ele>750.3333333333334</ele><time>2026-05-02T13:06:55Z</time></trkpt><trkpt lat="42.16022162655478" lon="13.269355631201371"><ele>751.0</ele><time>2026-05-02T13:06:56Z</time></trkpt><trkpt lat="42.160402264753245" lon="13.269349123334706"><ele>751.0</ele><time>2026-05-02T13:06:57Z</time></trkpt><trkpt lat="42.16057971803544" lon="13.26937168537714"><ele>751.0</ele><time>2026-05-02T13:06:58Z</time></trkpt><trkpt lat="42.16075256427893" lon="13.269442089460716"><ele>751.0</ele><time>2026-05-02T13:06:59Z</time></trkpt><trkpt lat="42.160921234954856" lon="13.269541736675942"><ele>751.6666666666667</ele><time>2026-05-02T13:07:00Z</time></trkpt><trkpt lat="42.161076735549784" lon="13.26963068503582"><ele>752.3333333333334</ele><time>2026-05-02T13:07:01Z</time></trkpt><trkpt lat="42.161220104805075" lon="13.269709016969252"><ele>753.0</ele><time>2026-05-02T13:07:02Z</time></trkpt><trkpt lat="42.16136526406463" lon="13.269793182125742"><ele>753.6666666666666</ele><time>2026-05-02T13:07:03Z</time></trkpt><trkpt lat="42.16151316857728" lon="13.269875737112075"><ele>754.3333333333333</ele><time>2026-05-02T13:07:04Z</time></trkpt><trkpt lat="42.161666051651615" lon="13.269956534318668"><ele>755.0</ele><time>2026-05-02T13:07:05Z</time></trkpt><trkpt lat="42.161821470221014" lon="13.270040719808787"><ele>755.6666666666666</ele><time>2026-05-02T13:07:06Z</time></trkpt><trkpt lat="42.16197796875951" lon="13.270127531762919"><ele>756.3333333333334</ele><time>2026-05-02T13:07:07Z</time></trkpt><trkpt lat="42.16213980137005" lon="13.270215096361838"><ele>757.0</ele><time>2026-05-02T13:07:08Z</time></trkpt><trkpt lat="42.16230364245021" lon="13.270302348217495"><ele>758.3333333333334</ele><time>2026-05-02T13:07:09Z</time></trkpt><trkpt lat="42.162471813303895" lon="13.270390772936356"><ele>759.6666666666666</ele><time>2026-05-02T13:07:10Z</time></trkpt><trkpt lat="42.16263788469164" lon="13.270481393852787"><ele>761.0</ele><time>2026-05-02T13:07:11Z</time></trkpt><trkpt lat="42.16280507983367" lon="13.270574067911838"><ele>761.6666666666666</ele><time>2026-05-02T13:07:12Z</time></trkpt><trkpt lat="42.162971132230524" lon="13.270667726829597"><ele>762.3333333333334</ele><time>2026-05-02T13:07:13Z</time></trkpt><trkpt lat="42.16313827726146" lon="13.270755469401186"><ele>763.0</ele><time>2026-05-02T13:07:14Z</time></trkpt><trkpt lat="42.16330537141019" lon="13.270845031319778"><ele>764.3333333333334</ele><time>2026-05-02T13:07:15Z</time></trkpt><trkpt lat="42.16347496556515" lon="13.27093496290515"><ele>765.6666666666666</ele><time>2026-05-02T13:07:16Z</time></trkpt><trkpt lat="42.163643228785354" lon="13.271025806853647"><ele>767.0</ele><time>2026-05-02T13:07:17Z</time></trkpt><trkpt lat="42.163809862432714" lon="13.271119809605974"><ele>767.0</ele><time>2026-05-02T13:07:18Z</time></trkpt><trkpt lat="42.163977764450884" lon="13.27121399751002"><ele>767.0</ele><time>2026-05-02T13:07:19Z</time></trkpt><trkpt lat="42.164145364959346" lon="13.27130540334517"><ele>767.0</ele><time>2026-05-02T13:07:20Z</time></trkpt><trkpt lat="42.16431339419237" lon="13.271396435300838"><ele>767.6666666666666</ele><time>2026-05-02T13:07:21Z</time></trkpt><trkpt lat="42.16447983217664" lon="13.271487771146171"><ele>768.3333333333333</ele><time>2026-05-02T13:07:22Z</time></trkpt><trkpt lat="42.16464347269684" lon="13.271580261882045"><ele>769.0</ele><time>2026-05-02T13:07:23Z</time></trkpt><trkpt lat="42.16480975120988" lon="13.27166907134956"><ele>769.6666666666666</ele><time>2026-05-02T13:07:24Z</time></trkpt><trkpt lat="42.164975878466116" lon="13.27175553823119"><ele>770.3333333333333</ele><time>2026-05-02T13:07:25Z</time></trkpt><trkpt lat="42.16514074688412" lon="13.271843290547361"><ele>771.0</ele><time>2026-05-02T13:07:26Z</time></trkpt><trkpt lat="42.165304155199316" lon="13.271934067705748"><ele>771.0</ele><time>2026-05-02T13:07:27Z</time></trkpt><trkpt lat="42.16546793116983" lon="13.27202596562878"><ele>771.0</ele><time>2026-05-02T13:07:28Z</time></trkpt><trkpt lat="42.16563327815627" lon="13.272113855854476"><ele>771.0</ele><time>2026-05-02T13:07:29Z</time></trkpt><trkpt lat="42.16579886330106" lon="13.272203205346257"><ele>771.6666666666667</ele><time>2026-05-02T13:07:30Z</time></trkpt><trkpt lat="42.165963484398006" lon="13.272294877963137"><ele>772.3333333333334</ele><time>2026-05-02T13:07:31Z</time></trkpt><trkpt lat="42.16613172733048" lon="13.272384753362532"><ele>773.0</ele><time>2026-05-02T13:07:32Z</time></trkpt><trkpt lat="42.16629817880358" lon="13.27247779592448"><ele>773.0</ele><time>2026-05-02T13:07:33Z</time></trkpt><trkpt lat="42.166465159118054" lon="13.272570894871539"><ele>773.0</ele><time>2026-05-02T13:07:34Z</time></trkpt><trkpt lat="42.1666348442253" lon="13.272662103864388"><ele>773.0</ele><time>2026-05-02T13:07:35Z</time></trkpt><trkpt lat="42.1668073240436" lon="13.272753851589535"><ele>775.0</ele><time>2026-05-02T13:07:36Z</time></trkpt><trkpt lat="42.16697849089596" lon="13.272848500419029"><ele>777.0</ele><time>2026-05-02T13:07:37Z</time></trkpt><trkpt lat="42.16715129966879" lon="13.272940583988932"><ele>779.0</ele><time>2026-05-02T13:07:38Z</time></trkpt><trkpt lat="42.16732569420367" lon="13.27303302572604"><ele>780.3333333333334</ele><time>2026-05-02T13:07:39Z</time></trkpt><trkpt lat="42.16750005982917" lon="13.273128728026238"><ele>781.6666666666667</ele><time>2026-05-02T13:07:40Z</time></trkpt><trkpt lat="42.167670954150076" lon="13.273223645996005"><ele>783.0</ele><time>2026-05-02T13:07:41Z</time></trkpt><trkpt lat="42.16783882350469" lon="13.273315505270782"><ele>783.0</ele><time>2026-05-02T13:07:42Z</time></trkpt><trkpt lat="42.168003519256736" lon="13.27340421203817"><ele>783.0</ele><time>2026-05-02T13:07:43Z</time></trkpt><trkpt lat="42.16816531686451" lon="13.273495242802769"><ele>783.0</ele><time>2026-05-02T13:07:44Z</time></trkpt><trkpt lat="42.168326075947164" lon="13.273583762487418"><ele>784.0</ele><time>2026-05-02T13:07:45Z</time></trkpt><trkpt lat="42.168486256195266" lon="13.27366641089402"><ele>785.0</ele><time>2026-05-02T13:07:46Z</time></trkpt><trkpt lat="42.168644957073" lon="13.273751161688647"><ele>786.0</ele><time>2026-05-02T13:07:47Z</time></trkpt><trkpt lat="42.16880826764818" lon="13.273838936993828"><ele>786.0</ele><time>2026-05-02T13:07:48Z</time></trkpt><trkpt lat="42.16896638231996" lon="13.27392932630849"><ele>786.0</ele><time>2026-05-02T13:07:49Z</time></trkpt><trkpt lat="42.16912655168382" lon="13.274014338793446"><ele>786.0</ele><time>2026-05-02T13:07:50Z</time></trkpt><trkpt lat="42.16928642376101" lon="13.274101185583909"><ele>786.6666666666667</ele><time>2026-05-02T13:07:51Z</time></trkpt><trkpt lat="42.1694470812199" lon="13.274189365122627"><ele>787.3333333333334</ele><time>2026-05-02T13:07:52Z</time></trkpt><trkpt lat="42.16960452262942" lon="13.274279204658983"><ele>788.0</ele><time>2026-05-02T13:07:53Z</time></trkpt><trkpt lat="42.169762492031914" lon="13.274363573646209"><ele>789.0</ele><time>2026-05-02T13:07:54Z</time></trkpt><trkpt lat="42.16991863656496" lon="13.274450722107552"><ele>790.0</ele><time>2026-05-02T13:07:55Z</time></trkpt><trkpt lat="42.17007516675254" lon="13.274537103531733"><ele>791.0</ele><time>2026-05-02T13:07:56Z</time></trkpt><trkpt lat="42.170222167623" lon="13.274651789811173"><ele>791.6666666666667</ele><time>2026-05-02T13:07:57Z</time></trkpt><trkpt lat="42.17032747108816" lon="13.274834226068476"><ele>792.3333333333333</ele><time>2026-05-02T13:07:58Z</time></trkpt><trkpt lat="42.17044421478486" lon="13.275028487873103"><ele>793.0</ele><time>2026-05-02T13:07:59Z</time></trkpt><trkpt lat="42.17057922276034" lon="13.275222149634402"><ele>794.3333333333333</ele><time>2026-05-02T13:08:00Z</time></trkpt><trkpt lat="42.170700026373886" lon="13.27542660716421"><ele>795.6666666666667</ele><time>2026-05-02T13:08:01Z</time></trkpt><trkpt lat="42.17080929013401" lon="13.275619051684732"><ele>797.0</ele><time>2026-05-02T13:08:02Z</time></trkpt><trkpt lat="42.17092500703873" lon="13.275807180565144"><ele>798.0</ele><time>2026-05-02T13:08:03Z</time></trkpt><trkpt lat="42.171038719600205" lon="13.276001852652962"><ele>799.0</ele><time>2026-05-02T13:08:04Z</time></trkpt><trkpt lat="42.17114165675848" lon="13.276201791078059"><ele>800.0</ele><time>2026-05-02T13:08:05Z</time></trkpt><trkpt lat="42.17125268650417" lon="13.276387850313082"><ele>800.0</ele><time>2026-05-02T13:08:06Z</time></trkpt><trkpt lat="42.17137256618607" lon="13.276553115862333"><ele>800.0</ele><time>2026-05-02T13:08:07Z</time></trkpt><trkpt lat="42.17147712271028" lon="13.276737437519346"><ele>800.0</ele><time>2026-05-02T13:08:08Z</time></trkpt><trkpt lat="42.171581412381464" lon="13.276920130242997"><ele>801.0</ele><time>2026-05-02T13:08:09Z</time></trkpt><trkpt lat="42.17168830382905" lon="13.277094418862808"><ele>802.0</ele><time>2026-05-02T13:08:10Z</time></trkpt><trkpt lat="42.17179401766935" lon="13.277270831546879"><ele>803.0</ele><time>2026-05-02T13:08:11Z</time></trkpt><trkpt lat="42.17189637376328" lon="13.277444593561487"><ele>803.3333333333334</ele><time>2026-05-02T13:08:12Z</time></trkpt><trkpt lat="42.17199511909953" lon="13.277610780161854"><ele>803.6666666666667</ele><time>2026-05-02T13:08:13Z</time></trkpt><trkpt lat="42.17208696889387" lon="13.277768510064975"><ele>804.0</ele><time>2026-05-02T13:08:14Z</time></trkpt><trkpt lat="42.172176661198655" lon="13.27792311023582"><ele>804.0</ele><time>2026-05-02T13:08:15Z</time></trkpt><trkpt lat="42.17226140917957" lon="13.278067507635793"><ele>804.0</ele><time>2026-05-02T13:08:16Z</time></trkpt><trkpt lat="42.172341379234155" lon="13.278192093467409"><ele>804.0</ele><time>2026-05-02T13:08:17Z</time></trkpt><trkpt lat="42.172431959162324" lon="13.278289354756879"><ele>804.0</ele><time>2026-05-02T13:08:18Z</time></trkpt><trkpt lat="42.17253644204473" lon="13.278352572667929"><ele>805.25</ele><time>2026-05-02T13:08:19Z</time></trkpt><trkpt lat="42.172654445746076" lon="13.278356659744063"><ele>806.5</ele><time>2026-05-02T13:08:20Z</time></trkpt><trkpt lat="42.17275568568089" lon="13.27830172104167"><ele>807.75</ele><time>2026-05-02T13:08:21Z</time></trkpt><trkpt lat="42.172841360797925" lon="13.278202050207966"><ele>809.0</ele><time>2026-05-02T13:08:22Z</time></trkpt><trkpt lat="42.17290905829654" lon="13.278056158751243"><ele>809.0</ele><time>2026-05-02T13:08:23Z</time></trkpt><trkpt lat="42.17295347136108" lon="13.2779043955468"><ele>809.0</ele><time>2026-05-02T13:08:24Z</time></trkpt><trkpt lat="42.17299702303103" lon="13.277772443798032"><ele>809.0</ele><time>2026-05-02T13:08:25Z</time></trkpt><trkpt lat="42.173035281208804" lon="13.27765399151626"><ele>809.0</ele><time>2026-05-02T13:08:26Z</time></trkpt><trkpt lat="42.17307890313971" lon="13.277534617616507"><ele>809.0</ele><time>2026-05-02T13:08:27Z</time></trkpt><trkpt lat="42.17312429141205" lon="13.277407735446603"><ele>809.0</ele><time>2026-05-02T13:08:28Z</time></trkpt><trkpt lat="42.173170528033346" lon="13.277276041868177"><ele>809.0</ele><time>2026-05-02T13:08:29Z</time></trkpt><trkpt lat="42.17322140227524" lon="13.277137803574314"><ele>809.0</ele><time>2026-05-02T13:08:30Z</time></trkpt><trkpt lat="42.17327584239825" lon="13.27699127511205"><ele>809.0</ele><time>2026-05-02T13:08:31Z</time></trkpt><trkpt lat="42.173335375637215" lon="13.276844960597064"><ele>809.75</ele><time>2026-05-02T13:08:32Z</time></trkpt><trkpt lat="42.17340281190377" lon="13.276699918913643"><ele>810.5</ele><time>2026-05-02T13:08:33Z</time></trkpt><trkpt lat="42.1734819053651" lon="13.276558647757135"><ele>811.25</ele><time>2026-05-02T13:08:34Z</time></trkpt><trkpt lat="42.173577930817196" lon="13.276429519598102"><ele>812.0</ele><time>2026-05-02T13:08:35Z</time></trkpt><trkpt lat="42.1736900068392" lon="13.27632228008252"><ele>812.0</ele><time>2026-05-02T13:08:36Z</time></trkpt><trkpt lat="42.17381118911562" lon="13.276254028169685"><ele>812.0</ele><time>2026-05-02T13:08:37Z</time></trkpt><trkpt lat="42.173932129400626" lon="13.276211244462576"><ele>812.0</ele><time>2026-05-02T13:08:38Z</time></trkpt><trkpt lat="42.17404766653847" lon="13.27619098561021"><ele>812.0</ele><time>2026-05-02T13:08:39Z</time></trkpt><trkpt lat="42.17416582332353" lon="13.276200720565315"><ele>814.75</ele><time>2026-05-02T13:08:40Z</time></trkpt><trkpt lat="42.17427594915556" lon="13.276286227687631"><ele>817.5</ele><time>2026-05-02T13:08:41Z</time></trkpt><trkpt lat="42.17438578143924" lon="13.276384307703083"><ele>820.25</ele><time>2026-05-02T13:08:42Z</time></trkpt><trkpt lat="42.17449834720243" lon="13.276465534333521"><ele>823.0</ele><time>2026-05-02T13:08:43Z</time></trkpt><trkpt lat="42.174600554523195" lon="13.276541531171967"><ele>823.5</ele><time>2026-05-02T13:08:44Z</time></trkpt><trkpt lat="42.174706734230874" lon="13.276600883158928"><ele>824.0</ele><time>2026-05-02T13:08:45Z</time></trkpt><trkpt lat="42.174825805029464" lon="13.276625761965628"><ele>824.5</ele><time>2026-05-02T13:08:46Z</time></trkpt><trkpt lat="42.174954211156155" lon="13.27659727838132"><ele>825.0</ele><time>2026-05-02T13:08:47Z</time></trkpt><trkpt lat="42.175074507422615" lon="13.27652741740382"><ele>826.25</ele><time>2026-05-02T13:08:48Z</time></trkpt><trkpt lat="42.175174412228415" lon="13.276423528281324"><ele>827.5</ele><time>2026-05-02T13:08:49Z</time></trkpt><trkpt lat="42.175254833808495" lon="13.27628699139321"><ele>828.75</ele><time>2026-05-02T13:08:50Z</time></trkpt><trkpt lat="42.17532014960141" lon="13.27613856381619"><ele>830.0</ele><time>2026-05-02T13:08:51Z</time></trkpt><trkpt lat="42.17539163160375" lon="13.27598885335722"><ele>830.0</ele><time>2026-05-02T13:08:52Z</time></trkpt><trkpt lat="42.175463985632234" lon="13.275839244170504"><ele>830.0</ele><time>2026-05-02T13:08:53Z</time></trkpt><trkpt lat="42.17552505746213" lon="13.275705805471533"><ele>830.0</ele><time>2026-05-02T13:08:54Z</time></trkpt><trkpt lat="42.17557627591494" lon="13.275591535195012"><ele>830.0</ele><time>2026-05-02T13:08:55Z</time></trkpt><trkpt lat="42.17564081610201" lon="13.275488490039482"><ele>830.0</ele><time>2026-05-02T13:08:56Z</time></trkpt><trkpt lat="42.175733763330605" lon="13.275411001019613"><ele>830.0</ele><time>2026-05-02T13:08:57Z</time></trkpt><trkpt lat="42.175847657071834" lon="13.275357274510606"><ele>830.0</ele><time>2026-05-02T13:08:58Z</time></trkpt><trkpt lat="42.17598261331182" lon="13.27532559822194"><ele>830.0</ele><time>2026-05-02T13:08:59Z</time></trkpt><trkpt lat="42.17612370587226" lon="13.275286264602135"><ele>830.0</ele><time>2026-05-02T13:09:00Z</time></trkpt><trkpt lat="42.17626580321775" lon="13.275244824750642"><ele>830.0</ele><time>2026-05-02T13:09:01Z</time></trkpt><trkpt lat="42.176401344001434" lon="13.275208758902165"><ele>830.0</ele><time>2026-05-02T13:09:02Z</time></trkpt><trkpt lat="42.17653781443843" lon="13.275189683664765"><ele>830.0</ele><time>2026-05-02T13:09:03Z</time></trkpt><trkpt lat="42.1766669750742" lon="13.275156717491924"><ele>830.0</ele><time>2026-05-02T13:09:04Z</time></trkpt><trkpt lat="42.17678471328357" lon="13.275118219989137"><ele>828.4</ele><time>2026-05-02T13:09:05Z</time></trkpt><trkpt lat="42.176887059871035" lon="13.275055514023839"><ele>826.8</ele><time>2026-05-02T13:09:06Z</time></trkpt><trkpt lat="42.17697810124161" lon="13.275022153772621"><ele>825.2</ele><time>2026-05-02T13:09:07Z</time></trkpt><trkpt lat="42.17706556778289" lon="13.274993388688264"><ele>823.6</ele><time>2026-05-02T13:09:08Z</time></trkpt><trkpt lat="42.17715652018237" lon="13.274982950260096"><ele>822.0</ele><time>2026-05-02T13:09:09Z</time></trkpt><trkpt lat="42.17724103165571" lon="13.274999221486913"><ele>822.0</ele><time>2026-05-02T13:09:10Z</time></trkpt><trkpt lat="42.177320623982745" lon="13.275034887412344"><ele>822.0</ele><time>2026-05-02T13:09:11Z</time></trkpt><trkpt lat="42.17739678059612" lon="13.275028737112569"><ele>822.0</ele><time>2026-05-02T13:09:12Z</time></trkpt><trkpt lat="42.17746376793029" lon="13.274961002607363"><ele>822.0</ele><time>2026-05-02T13:09:13Z</time></trkpt><trkpt lat="42.1775192753957" lon="13.274896784324609"><ele>822.0</ele><time>2026-05-02T13:09:14Z</time></trkpt><trkpt lat="42.17753475337851" lon="13.274807936430117"><ele>822.0</ele><time>2026-05-02T13:09:15Z</time></trkpt><trkpt lat="42.1775151780676" lon="13.274703844304115"><ele>821.0</ele><time>2026-05-02T13:09:16Z</time></trkpt><trkpt lat="42.17747293994895" lon="13.274611613275798"><ele>820.0</ele><time>2026-05-02T13:09:17Z</time></trkpt><trkpt lat="42.17742084784349" lon="13.274503861501172"><ele>819.0</ele><time>2026-05-02T13:09:18Z</time></trkpt><trkpt lat="42.17740829017242" lon="13.274349031416046"><ele>818.0</ele><time>2026-05-02T13:09:19Z</time></trkpt><trkpt lat="42.17742351913841" lon="13.274170698995352"><ele>817.0</ele><time>2026-05-02T13:09:20Z</time></trkpt><trkpt lat="42.17746903195464" lon="13.273992602781563"><ele>816.6666666666666</ele><time>2026-05-02T13:09:21Z</time></trkpt><trkpt lat="42.17751706730465" lon="13.273778620735676"><ele>816.3333333333333</ele><time>2026-05-02T13:09:22Z</time></trkpt><trkpt lat="42.17758330250348" lon="13.273527178309552"><ele>816.0</ele><time>2026-05-02T13:09:23Z</time></trkpt><trkpt lat="42.177666323317155" lon="13.27326182304747"><ele>818.0</ele><time>2026-05-02T13:09:24Z</time></trkpt><trkpt lat="42.177771771573745" lon="13.272989921554329"><ele>820.0</ele><time>2026-05-02T13:09:25Z</time></trkpt><trkpt lat="42.17789128300105" lon="13.27272842345782"><ele>820.0</ele><time>2026-05-02T13:09:26Z</time></trkpt><trkpt lat="42.17801687764908" lon="13.272472098325238"><ele>820.0</ele><time>2026-05-02T13:09:27Z</time></trkpt><trkpt lat="42.17816403531343" lon="13.27223410281446"><ele>820.0</ele><time>2026-05-02T13:09:28Z</time></trkpt><trkpt lat="42.17833062742237" lon="13.272012165771827"><ele>820.0</ele><time>2026-05-02T13:09:29Z</time></trkpt><trkpt lat="42.178502000797394" lon="13.271807737925908"><ele>820.0</ele><time>2026-05-02T13:09:30Z</time></trkpt><trkpt lat="42.17869021224796" lon="13.271621274401166"><ele>820.0</ele><time>2026-05-02T13:09:31Z</time></trkpt><trkpt lat="42.17888554753312" lon="13.27144039793053"><ele>813.5</ele><time>2026-05-02T13:09:32Z</time></trkpt><trkpt lat="42.179082857732716" lon="13.271258685913931"><ele>807.0</ele><time>2026-05-02T13:09:33Z</time></trkpt><trkpt lat="42.17928580451868" lon="13.271076399877444"><ele>807.0</ele><time>2026-05-02T13:09:34Z</time></trkpt><trkpt lat="42.17949715564319" lon="13.27089895189724"><ele>807.0</ele><time>2026-05-02T13:09:35Z</time></trkpt><trkpt lat="42.17970464028295" lon="13.270712003456758"><ele>806.5</ele><time>2026-05-02T13:09:36Z</time></trkpt><trkpt lat="42.17991099914271" lon="13.27052589345497"><ele>806.0</ele><time>2026-05-02T13:09:37Z</time></trkpt><trkpt lat="42.18011989630398" lon="13.270336777456919"><ele>806.0</ele><time>2026-05-02T13:09:38Z</time></trkpt><trkpt lat="42.18033329286928" lon="13.27015319096385"><ele>806.0</ele><time>2026-05-02T13:09:39Z</time></trkpt><trkpt lat="42.18054828328112" lon="13.269962774288059"><ele>806.5</ele><time>2026-05-02T13:09:40Z</time></trkpt><trkpt lat="42.18076435083782" lon="13.269773683117048"><ele>807.0</ele><time>2026-05-02T13:09:41Z</time></trkpt><trkpt lat="42.18098027253924" lon="13.269584066389063"><ele>807.0</ele><time>2026-05-02T13:09:42Z</time></trkpt><trkpt lat="42.18119974279856" lon="13.269392510539511"><ele>807.0</ele><time>2026-05-02T13:09:43Z</time></trkpt><trkpt lat="42.18142105431785" lon="13.269201781814413"><ele>805.5</ele><time>2026-05-02T13:09:44Z</time></trkpt><trkpt lat="42.181636929795104" lon="13.269015815353125"><ele>804.0</ele><time>2026-05-02T13:09:45Z</time></trkpt><trkpt lat="42.181851195632284" lon="13.268825419758684"><ele>807.5</ele><time>2026-05-02T13:09:46Z</time></trkpt><trkpt lat="42.18206370722714" lon="13.268631860816932"><ele>811.0</ele><time>2026-05-02T13:09:47Z</time></trkpt><trkpt lat="42.18227642275795" lon="13.268451296406395"><ele>809.0</ele><time>2026-05-02T13:09:48Z</time></trkpt><trkpt lat="42.182501614636315" lon="13.2682543808794"><ele>807.0</ele><time>2026-05-02T13:09:49Z</time></trkpt><trkpt lat="42.182714068673825" lon="13.26806063400371"><ele>807.0</ele><time>2026-05-02T13:09:50Z</time></trkpt><trkpt lat="42.182938145252415" lon="13.267856398781706"><ele>807.0</ele><time>2026-05-02T13:09:51Z</time></trkpt><trkpt lat="42.18314477641885" lon="13.267669890346328"><ele>803.5</ele><time>2026-05-02T13:09:52Z</time></trkpt><trkpt lat="42.183357158561364" lon="13.267488740155082"><ele>800.0</ele><time>2026-05-02T13:09:53Z</time></trkpt><trkpt lat="42.18356869094452" lon="13.267300209654895"><ele>803.0</ele><time>2026-05-02T13:09:54Z</time></trkpt><trkpt lat="42.183780407659576" lon="13.26711460315493"><ele>806.0</ele><time>2026-05-02T13:09:55Z</time></trkpt><trkpt lat="42.18398867882965" lon="13.266936316675098"><ele>805.0</ele><time>2026-05-02T13:09:56Z</time></trkpt><trkpt lat="42.184197194396575" lon="13.26675965090899"><ele>804.0</ele><time>2026-05-02T13:09:57Z</time></trkpt><trkpt lat="42.18440585411707" lon="13.266581179635375"><ele>807.0</ele><time>2026-05-02T13:09:58Z</time></trkpt><trkpt lat="42.18461467085438" lon="13.266401131069875"><ele>810.0</ele><time>2026-05-02T13:09:59Z</time></trkpt><trkpt lat="42.18482475519599" lon="13.26621671362606"><ele>808.0</ele><time>2026-05-02T13:10:00Z</time></trkpt><trkpt lat="42.18503390756126" lon="13.26603924689469"><ele>806.0</ele><time>2026-05-02T13:10:01Z</time></trkpt><trkpt lat="42.1852418941886" lon="13.265859112864927"><ele>806.0</ele><time>2026-05-02T13:10:02Z</time></trkpt><trkpt lat="42.18545242645092" lon="13.265677757117565"><ele>806.0</ele><time>2026-05-02T13:10:03Z</time></trkpt><trkpt lat="42.18566283725438" lon="13.265483740008383"><ele>802.5</ele><time>2026-05-02T13:10:04Z</time></trkpt><trkpt lat="42.185871828162774" lon="13.265290696061879"><ele>799.0</ele><time>2026-05-02T13:10:05Z</time></trkpt><trkpt lat="42.18607734255536" lon="13.265091197183102"><ele>799.0</ele><time>2026-05-02T13:10:06Z</time></trkpt><trkpt lat="42.186281408366945" lon="13.264885897376576"><ele>799.0</ele><time>2026-05-02T13:10:07Z</time></trkpt><trkpt lat="42.186485225805946" lon="13.264683004622315"><ele>799.5</ele><time>2026-05-02T13:10:08Z</time></trkpt><trkpt lat="42.18669094884721" lon="13.264472347889466"><ele>800.0</ele><time>2026-05-02T13:10:09Z</time></trkpt><trkpt lat="42.186896724232284" lon="13.264257644728017"><ele>800.0</ele><time>2026-05-02T13:10:10Z</time></trkpt><trkpt lat="42.18709757457594" lon="13.264036449456713"><ele>800.0</ele><time>2026-05-02T13:10:11Z</time></trkpt><trkpt lat="42.18729488587203" lon="13.263812622215074"><ele>798.5</ele><time>2026-05-02T13:10:12Z</time></trkpt><trkpt lat="42.187493784217224" lon="13.263577902322806"><ele>797.0</ele><time>2026-05-02T13:10:13Z</time></trkpt><trkpt lat="42.18768518052209" lon="13.263344914117015"><ele>797.0</ele><time>2026-05-02T13:10:14Z</time></trkpt><trkpt lat="42.18788664169552" lon="13.263128922270946"><ele>797.0</ele><time>2026-05-02T13:10:15Z</time></trkpt><trkpt lat="42.18807922770689" lon="13.262897851196746"><ele>797.5</ele><time>2026-05-02T13:10:16Z</time></trkpt><trkpt lat="42.18827462024815" lon="13.26266022020378"><ele>798.0</ele><time>2026-05-02T13:10:17Z</time></trkpt><trkpt lat="42.18843689549897" lon="13.262380107143862"><ele>798.0</ele><time>2026-05-02T13:10:18Z</time></trkpt><trkpt lat="42.18861954205092" lon="13.262130381119594"><ele>798.0</ele><time>2026-05-02T13:10:19Z</time></trkpt><trkpt lat="42.188800747927075" lon="13.261875942372269"><ele>798.0</ele><time>2026-05-02T13:10:20Z</time></trkpt><trkpt lat="42.188974784906655" lon="13.261629441897162"><ele>798.0</ele><time>2026-05-02T13:10:21Z</time></trkpt><trkpt lat="42.18914721753472" lon="13.261382479382554"><ele>797.5</ele><time>2026-05-02T13:10:22Z</time></trkpt><trkpt lat="42.18931666293567" lon="13.261132662060716"><ele>797.0</ele><time>2026-05-02T13:10:23Z</time></trkpt><trkpt lat="42.189479821672485" lon="13.26087665261215"><ele>796.0</ele><time>2026-05-02T13:10:24Z</time></trkpt><trkpt lat="42.18964092260703" lon="13.260608257787439"><ele>795.0</ele><time>2026-05-02T13:10:25Z</time></trkpt><trkpt lat="42.18980489860877" lon="13.260328151944949"><ele>796.0</ele><time>2026-05-02T13:10:26Z</time></trkpt><trkpt lat="42.189959926195684" lon="13.260060201212825"><ele>797.0</ele><time>2026-05-02T13:10:27Z</time></trkpt><trkpt lat="42.19011549842093" lon="13.25978979804536"><ele>796.5</ele><time>2026-05-02T13:10:28Z</time></trkpt><trkpt lat="42.19026749784055" lon="13.259522282628993"><ele>796.0</ele><time>2026-05-02T13:10:29Z</time></trkpt><trkpt lat="42.1904195688196" lon="13.259258450371737"><ele>796.0</ele><time>2026-05-02T13:10:30Z</time></trkpt><trkpt lat="42.190569986588" lon="13.25899437979139"><ele>796.0</ele><time>2026-05-02T13:10:31Z</time></trkpt><trkpt lat="42.190719618025895" lon="13.258731865363536"><ele>798.5</ele><time>2026-05-02T13:10:32Z</time></trkpt><trkpt lat="42.19086903054003" lon="13.258470257899319"><ele>801.0</ele><time>2026-05-02T13:10:33Z</time></trkpt><trkpt lat="42.191016282496534" lon="13.258206870172597"><ele>800.0</ele><time>2026-05-02T13:10:34Z</time></trkpt><trkpt lat="42.19116286041536" lon="13.25795325049383"><ele>799.0</ele><time>2026-05-02T13:10:35Z</time></trkpt><trkpt lat="42.1913102955609" lon="13.257694233473252"><ele>799.0</ele><time>2026-05-02T13:10:36Z</time></trkpt><trkpt lat="42.191454954189595" lon="13.257439961477061"><ele>799.0</ele><time>2026-05-02T13:10:37Z</time></trkpt><trkpt lat="42.19159886173713" lon="13.257190263424437"><ele>798.5</ele><time>2026-05-02T13:10:38Z</time></trkpt><trkpt lat="42.19174551333137" lon="13.256945630965014"><ele>798.0</ele><time>2026-05-02T13:10:39Z</time></trkpt><trkpt lat="42.19189092515825" lon="13.256693890140525"><ele>797.5</ele><time>2026-05-02T13:10:40Z</time></trkpt><trkpt lat="42.192033467661" lon="13.25643980288188"><ele>797.0</ele><time>2026-05-02T13:10:41Z</time></trkpt><trkpt lat="42.19217410581424" lon="13.256182752629098"><ele>797.0</ele><time>2026-05-02T13:10:42Z</time></trkpt><trkpt lat="42.19231295483157" lon="13.255915519119691"><ele>797.0</ele><time>2026-05-02T13:10:43Z</time></trkpt><trkpt lat="42.192447749288746" lon="13.255643868036131"><ele>797.5</ele><time>2026-05-02T13:10:44Z</time></trkpt><trkpt lat="42.19257921663637" lon="13.255372217128068"><ele>798.0</ele><time>2026-05-02T13:10:45Z</time></trkpt><trkpt lat="42.19271203286108" lon="13.255100816165495"><ele>798.0</ele><time>2026-05-02T13:10:46Z</time></trkpt><trkpt lat="42.19284488113473" lon="13.254822286647574"><ele>798.0</ele><time>2026-05-02T13:10:47Z</time></trkpt><trkpt lat="42.192974930726564" lon="13.254546010269392"><ele>798.0</ele><time>2026-05-02T13:10:48Z</time></trkpt><trkpt lat="42.19310125392302" lon="13.254269105571188"><ele>798.0</ele><time>2026-05-02T13:10:49Z</time></trkpt><trkpt lat="42.193223848968785" lon="13.253986667294823"><ele>796.5</ele><time>2026-05-02T13:10:50Z</time></trkpt><trkpt lat="42.19334179803003" lon="13.253691951281354"><ele>795.0</ele><time>2026-05-02T13:10:51Z</time></trkpt><trkpt lat="42.19346008063634" lon="13.25340544371661"><ele>794.5</ele><time>2026-05-02T13:10:52Z</time></trkpt><trkpt lat="42.19357453416077" lon="13.2531146609106"><ele>794.0</ele><time>2026-05-02T13:10:53Z</time></trkpt><trkpt lat="42.193687569143" lon="13.252823568670605"><ele>794.0</ele><time>2026-05-02T13:10:54Z</time></trkpt><trkpt lat="42.193799883353584" lon="13.252524332121089"><ele>794.0</ele><time>2026-05-02T13:10:55Z</time></trkpt><trkpt lat="42.19390517966161" lon="13.252224885469312"><ele>797.0</ele><time>2026-05-02T13:10:56Z</time></trkpt><trkpt lat="42.194010115400474" lon="13.251924958614241"><ele>800.0</ele><time>2026-05-02T13:10:57Z</time></trkpt><trkpt lat="42.194114869357335" lon="13.251624519441918"><ele>799.0</ele><time>2026-05-02T13:10:58Z</time></trkpt><trkpt lat="42.19421462381199" lon="13.251319468419714"><ele>798.0</ele><time>2026-05-02T13:10:59Z</time></trkpt><trkpt lat="42.19431781771472" lon="13.25100186771565"><ele>798.0</ele><time>2026-05-02T13:11:00Z</time></trkpt><trkpt lat="42.194416967129165" lon="13.250701098442331"><ele>798.0</ele><time>2026-05-02T13:11:01Z</time></trkpt><trkpt lat="42.19451889901465" lon="13.25040019516215"><ele>797.5</ele><time>2026-05-02T13:11:02Z</time></trkpt><trkpt lat="42.19461760154682" lon="13.250102138254853"><ele>797.0</ele><time>2026-05-02T13:11:03Z</time></trkpt><trkpt lat="42.19471295662378" lon="13.24980090031638"><ele>796.0</ele><time>2026-05-02T13:11:04Z</time></trkpt><trkpt lat="42.19480923580187" lon="13.249497189445545"><ele>795.0</ele><time>2026-05-02T13:11:05Z</time></trkpt><trkpt lat="42.194907348735455" lon="13.249188745451848"><ele>799.5</ele><time>2026-05-02T13:11:06Z</time></trkpt><trkpt lat="42.19500141311476" lon="13.248883813273801"><ele>804.0</ele><time>2026-05-02T13:11:07Z</time></trkpt><trkpt lat="42.195099515465124" lon="13.248580178091212"><ele>804.0</ele><time>2026-05-02T13:11:08Z</time></trkpt><trkpt lat="42.195203089628535" lon="13.248277704453985"><ele>804.0</ele><time>2026-05-02T13:11:09Z</time></trkpt><trkpt lat="42.195301776993844" lon="13.247970814818562"><ele>807.5</ele><time>2026-05-02T13:11:10Z</time></trkpt><trkpt lat="42.195401908946835" lon="13.247666396912377"><ele>811.0</ele><time>2026-05-02T13:11:11Z</time></trkpt><trkpt lat="42.19550057958916" lon="13.247357468818786"><ele>806.0</ele><time>2026-05-02T13:11:12Z</time></trkpt><trkpt lat="42.19559880987621" lon="13.247048813625439"><ele>801.0</ele><time>2026-05-02T13:11:13Z</time></trkpt><trkpt lat="42.19569787600222" lon="13.246738538619976"><ele>802.5</ele><time>2026-05-02T13:11:14Z</time></trkpt><trkpt lat="42.19579413041864" lon="13.24642495215739"><ele>804.0</ele><time>2026-05-02T13:11:15Z</time></trkpt><trkpt lat="42.195885541850195" lon="13.246109414824293"><ele>804.0</ele><time>2026-05-02T13:11:16Z</time></trkpt><trkpt lat="42.19596866512088" lon="13.245787767684"><ele>804.0</ele><time>2026-05-02T13:11:17Z</time></trkpt><trkpt lat="42.196040639013795" lon="13.245461078329482"><ele>807.0</ele><time>2026-05-02T13:11:18Z</time></trkpt><trkpt lat="42.19609548386026" lon="13.245133340650995"><ele>810.0</ele><time>2026-05-02T13:11:19Z</time></trkpt><trkpt lat="42.196126956836565" lon="13.24479246625712"><ele>810.0</ele><time>2026-05-02T13:11:20Z</time></trkpt><trkpt lat="42.19614400850186" lon="13.244444415032099"><ele>810.0</ele><time>2026-05-02T13:11:21Z</time></trkpt><trkpt lat="42.19615104102084" lon="13.244097412029983"><ele>807.5</ele><time>2026-05-02T13:11:22Z</time></trkpt><trkpt lat="42.19614554778395" lon="13.243754012014616"><ele>805.0</ele><time>2026-05-02T13:11:23Z</time></trkpt><trkpt lat="42.19612759965871" lon="13.243420677042607"><ele>802.0</ele><time>2026-05-02T13:11:24Z</time></trkpt><trkpt lat="42.196096458967006" lon="13.243092245880081"><ele>799.0</ele><time>2026-05-02T13:11:25Z</time></trkpt><trkpt lat="42.19605280471087" lon="13.242769024807865"><ele>799.0</ele><time>2026-05-02T13:11:26Z</time></trkpt><trkpt lat="42.19599769961508" lon="13.242447400713816"><ele>799.0</ele><time>2026-05-02T13:11:27Z</time></trkpt><trkpt lat="42.19592279704599" lon="13.242124522519973"><ele>793.0</ele><time>2026-05-02T13:11:28Z</time></trkpt><trkpt lat="42.19583823514776" lon="13.241823558477837"><ele>787.0</ele><time>2026-05-02T13:11:29Z</time></trkpt><trkpt lat="42.19574125342329" lon="13.241529564524779"><ele>790.5</ele><time>2026-05-02T13:11:30Z</time></trkpt><trkpt lat="42.19563355059109" lon="13.241243580820177"><ele>794.0</ele><time>2026-05-02T13:11:31Z</time></trkpt><trkpt lat="42.195519244746" lon="13.240968451449179"><ele>794.0</ele><time>2026-05-02T13:11:32Z</time></trkpt><trkpt lat="42.195395053054455" lon="13.240706664412379"><ele>794.0</ele><time>2026-05-02T13:11:33Z</time></trkpt><trkpt lat="42.19526697378406" lon="13.240443388057285"><ele>786.5</ele><time>2026-05-02T13:11:34Z</time></trkpt><trkpt lat="42.19513862853263" lon="13.240190927980562"><ele>779.0</ele><time>2026-05-02T13:11:35Z</time></trkpt><trkpt lat="42.19501199818221" lon="13.239924624667898"><ele>782.3333333333334</ele><time>2026-05-02T13:11:36Z</time></trkpt><trkpt lat="42.19490657956791" lon="13.239673702111107"><ele>785.6666666666667</ele><time>2026-05-02T13:11:37Z</time></trkpt><trkpt lat="42.19480274171161" lon="13.239402504995605"><ele>789.0</ele><time>2026-05-02T13:11:38Z</time></trkpt><trkpt lat="42.19470783673963" lon="13.239117819954107"><ele>777.0</ele><time>2026-05-02T13:11:39Z</time></trkpt><trkpt lat="42.19460770621366" lon="13.238835508455763"><ele>765.0</ele><time>2026-05-02T13:11:40Z</time></trkpt><trkpt lat="42.19455087977533" lon="13.238527125486609"><ele>765.0</ele><time>2026-05-02T13:11:41Z</time></trkpt><trkpt lat="42.19449619132199" lon="13.238210157550574"><ele>765.0</ele><time>2026-05-02T13:11:42Z</time></trkpt><trkpt lat="42.19445823773927" lon="13.237894746026717"><ele>768.5</ele><time>2026-05-02T13:11:43Z</time></trkpt><trkpt lat="42.19443828467983" lon="13.237569124657336"><ele>772.0</ele><time>2026-05-02T13:11:44Z</time></trkpt><trkpt lat="42.194434839538296" lon="13.237236144803225"><ele>772.5</ele><time>2026-05-02T13:11:45Z</time></trkpt><trkpt lat="42.19444167006539" lon="13.236904361747943"><ele>773.0</ele><time>2026-05-02T13:11:46Z</time></trkpt><trkpt lat="42.19446371154656" lon="13.236573212798904"><ele>770.0</ele><time>2026-05-02T13:11:47Z</time></trkpt><trkpt lat="42.19450963658897" lon="13.236248695724152"><ele>767.0</ele><time>2026-05-02T13:11:48Z</time></trkpt><trkpt lat="42.19457096811113" lon="13.235926696380787"><ele>763.0</ele><time>2026-05-02T13:11:49Z</time></trkpt><trkpt lat="42.19463753130424" lon="13.23561132641119"><ele>759.0</ele><time>2026-05-02T13:11:50Z</time></trkpt><trkpt lat="42.194710297276345" lon="13.235292572229298"><ele>759.0</ele><time>2026-05-02T13:11:51Z</time></trkpt><trkpt lat="42.19478488007877" lon="13.234970603148172"><ele>759.0</ele><time>2026-05-02T13:11:52Z</time></trkpt><trkpt lat="42.19485785500917" lon="13.234647576263894"><ele>777.5</ele><time>2026-05-02T13:11:53Z</time></trkpt><trkpt lat="42.19492438102652" lon="13.234321497685222"><ele>796.0</ele><time>2026-05-02T13:11:54Z</time></trkpt><trkpt lat="42.19500443443433" lon="13.234007827585142"><ele>789.5</ele><time>2026-05-02T13:11:55Z</time></trkpt><trkpt lat="42.19507514097757" lon="13.233677344986267"><ele>783.0</ele><time>2026-05-02T13:11:56Z</time></trkpt><trkpt lat="42.19515327110659" lon="13.233357088108711"><ele>776.5</ele><time>2026-05-02T13:11:57Z</time></trkpt><trkpt lat="42.1952443931127" lon="13.233058004192051"><ele>770.0</ele><time>2026-05-02T13:11:58Z</time></trkpt><trkpt lat="42.195343794148684" lon="13.232762331037426"><ele>770.0</ele><time>2026-05-02T13:11:59Z</time></trkpt><trkpt lat="42.19545977441533" lon="13.232462642317259"><ele>770.0</ele><time>2026-05-02T13:12:00Z</time></trkpt><trkpt lat="42.19558650691542" lon="13.23216564902317"><ele>781.5</ele><time>2026-05-02T13:12:01Z</time></trkpt><trkpt lat="42.195713807777196" lon="13.231871319345816"><ele>793.0</ele><time>2026-05-02T13:12:02Z</time></trkpt><trkpt lat="42.19584187689867" lon="13.231573721977176"><ele>781.0</ele><time>2026-05-02T13:12:03Z</time></trkpt><trkpt lat="42.195971593162014" lon="13.231264599553432"><ele>769.0</ele><time>2026-05-02T13:12:04Z</time></trkpt><trkpt lat="42.19610072225357" lon="13.230925522389287"><ele>758.5</ele><time>2026-05-02T13:12:05Z</time></trkpt><trkpt lat="42.1962447265768" lon="13.230578282186661"><ele>748.0</ele><time>2026-05-02T13:12:06Z</time></trkpt><trkpt lat="42.19637205895049" lon="13.23019321100643"><ele>742.0</ele><time>2026-05-02T13:12:07Z</time></trkpt><trkpt lat="42.196500467816854" lon="13.229791165023292"><ele>736.0</ele><time>2026-05-02T13:12:08Z</time></trkpt><trkpt lat="42.196634676414476" lon="13.22937883517021"><ele>746.5</ele><time>2026-05-02T13:12:09Z</time></trkpt><trkpt lat="42.19675794866153" lon="13.22899908864185"><ele>757.0</ele><time>2026-05-02T13:12:10Z</time></trkpt><trkpt lat="42.196889141282576" lon="13.228646329336387"><ele>757.0</ele><time>2026-05-02T13:12:11Z</time></trkpt><trkpt lat="42.19703617935986" lon="13.22829750459144"><ele>757.0</ele><time>2026-05-02T13:12:12Z</time></trkpt><trkpt lat="42.197189337547" lon="13.227965459144903"><ele>767.0</ele><time>2026-05-02T13:12:13Z</time></trkpt><trkpt lat="42.1973469115449" lon="13.227648306863847"><ele>777.0</ele><time>2026-05-02T13:12:14Z</time></trkpt><trkpt lat="42.197506330973276" lon="13.22733500155883"><ele>763.5</ele><time>2026-05-02T13:12:15Z</time></trkpt><trkpt lat="42.19767173132282" lon="13.227026085897576"><ele>750.0</ele><time>2026-05-02T13:12:16Z</time></trkpt><trkpt lat="42.19784361055177" lon="13.226722339523468"><ele>755.5</ele><time>2026-05-02T13:12:17Z</time></trkpt><trkpt lat="42.198015115561624" lon="13.226417171955482"><ele>761.0</ele><time>2026-05-02T13:12:18Z</time></trkpt><trkpt lat="42.19818727837897" lon="13.226111153018751"><ele>761.0</ele><time>2026-05-02T13:12:19Z</time></trkpt><trkpt lat="42.19835718080747" lon="13.225799461738573"><ele>761.0</ele><time>2026-05-02T13:12:20Z</time></trkpt><trkpt lat="42.1985245508354" lon="13.225483588001932"><ele>749.5</ele><time>2026-05-02T13:12:21Z</time></trkpt><trkpt lat="42.19869071897389" lon="13.225163455649756"><ele>738.0</ele><time>2026-05-02T13:12:22Z</time></trkpt><trkpt lat="42.19885115817569" lon="13.224836383207276"><ele>749.0</ele><time>2026-05-02T13:12:23Z</time></trkpt><trkpt lat="42.19900153700164" lon="13.224506371054995"><ele>760.0</ele><time>2026-05-02T13:12:24Z</time></trkpt><trkpt lat="42.199150931583134" lon="13.224176961504103"><ele>753.5</ele><time>2026-05-02T13:12:25Z</time></trkpt><trkpt lat="42.19930004123059" lon="13.223852753468915"><ele>747.0</ele><time>2026-05-02T13:12:26Z</time></trkpt><trkpt lat="42.19944399645735" lon="13.223521303510811"><ele>747.0</ele><time>2026-05-02T13:12:27Z</time></trkpt><trkpt lat="42.199586416250305" lon="13.223185657979853"><ele>747.0</ele><time>2026-05-02T13:12:28Z</time></trkpt><trkpt lat="42.1997254155778" lon="13.222850873510192"><ele>748.5</ele><time>2026-05-02T13:12:29Z</time></trkpt><trkpt lat="42.19986716705345" lon="13.222517350372886"><ele>750.0</ele><time>2026-05-02T13:12:30Z</time></trkpt><trkpt lat="42.200009930655725" lon="13.222184278901702"><ele>750.0</ele><time>2026-05-02T13:12:31Z</time></trkpt><trkpt lat="42.200157930888686" lon="13.221849134949048"><ele>750.0</ele><time>2026-05-02T13:12:32Z</time></trkpt><trkpt lat="42.2003066918307" lon="13.22151254223698"><ele>740.5</ele><time>2026-05-02T13:12:33Z</time></trkpt><trkpt lat="42.20045658453558" lon="13.221179915563903"><ele>731.0</ele><time>2026-05-02T13:12:34Z</time></trkpt><trkpt lat="42.20061100580631" lon="13.220850296542416"><ele>739.5</ele><time>2026-05-02T13:12:35Z</time></trkpt><trkpt lat="42.200772001513336" lon="13.22052480415188"><ele>748.0</ele><time>2026-05-02T13:12:36Z</time></trkpt><trkpt lat="42.20093749020318" lon="13.220202849397785"><ele>748.0</ele><time>2026-05-02T13:12:37Z</time></trkpt><trkpt lat="42.20110972924964" lon="13.219886047075233"><ele>748.0</ele><time>2026-05-02T13:12:38Z</time></trkpt><trkpt lat="42.20128249680275" lon="13.219575012386196"><ele>741.0</ele><time>2026-05-02T13:12:39Z</time></trkpt><trkpt lat="42.20145576604105" lon="13.219269417711361"><ele>734.0</ele><time>2026-05-02T13:12:40Z</time></trkpt><trkpt lat="42.2016377107511" lon="13.218959973609705"><ele>734.0</ele><time>2026-05-02T13:12:41Z</time></trkpt><trkpt lat="42.201821902469696" lon="13.218652066834133"><ele>734.0</ele><time>2026-05-02T13:12:42Z</time></trkpt><trkpt lat="42.20200916161721" lon="13.218338677181166"><ele>739.0</ele><time>2026-05-02T13:12:43Z</time></trkpt><trkpt lat="42.202202938707906" lon="13.218036882865931"><ele>744.0</ele><time>2026-05-02T13:12:44Z</time></trkpt><trkpt lat="42.202398410165834" lon="13.217738557534384"><ele>744.0</ele><time>2026-05-02T13:12:45Z</time></trkpt><trkpt lat="42.20259773580919" lon="13.217446226768503"><ele>744.0</ele><time>2026-05-02T13:12:46Z</time></trkpt><trkpt lat="42.20279988139477" lon="13.217161970230604"><ele>747.5</ele><time>2026-05-02T13:12:47Z</time></trkpt><trkpt lat="42.203005596607525" lon="13.216887221515908"><ele>751.0</ele><time>2026-05-02T13:12:48Z</time></trkpt><trkpt lat="42.203211042055926" lon="13.216612859395585"><ele>742.0</ele><time>2026-05-02T13:12:49Z</time></trkpt><trkpt lat="42.20342090987541" lon="13.21633524291205"><ele>733.0</ele><time>2026-05-02T13:12:50Z</time></trkpt><trkpt lat="42.20362885156085" lon="13.216057317978368"><ele>733.0</ele><time>2026-05-02T13:12:51Z</time></trkpt><trkpt lat="42.20383653201656" lon="13.215781716665157"><ele>733.0</ele><time>2026-05-02T13:12:52Z</time></trkpt><trkpt lat="42.20404241668365" lon="13.215501565837712"><ele>739.5</ele><time>2026-05-02T13:12:53Z</time></trkpt><trkpt lat="42.20424802539958" lon="13.215221844158956"><ele>746.0</ele><time>2026-05-02T13:12:54Z</time></trkpt><trkpt lat="42.20444954651213" lon="13.214935540042854"><ele>737.0</ele><time>2026-05-02T13:12:55Z</time></trkpt><trkpt lat="42.20465028585952" lon="13.214639337757752"><ele>728.0</ele><time>2026-05-02T13:12:56Z</time></trkpt><trkpt lat="42.20484682581354" lon="13.214333078799887"><ele>727.5</ele><time>2026-05-02T13:12:57Z</time></trkpt><trkpt lat="42.205035616536776" lon="13.214015986451649"><ele>727.0</ele><time>2026-05-02T13:12:58Z</time></trkpt><trkpt lat="42.205217016870755" lon="13.213693871759695"><ele>714.0</ele><time>2026-05-02T13:12:59Z</time></trkpt><trkpt lat="42.205392465501966" lon="13.21336512275485"><ele>701.0</ele><time>2026-05-02T13:13:00Z</time></trkpt><trkpt lat="42.205558837667674" lon="13.21302662145169"><ele>709.0</ele><time>2026-05-02T13:13:01Z</time></trkpt><trkpt lat="42.20571836390591" lon="13.21267918527459"><ele>717.0</ele><time>2026-05-02T13:13:02Z</time></trkpt><trkpt lat="42.205868799803454" lon="13.212325684047926"><ele>721.0</ele><time>2026-05-02T13:13:03Z</time></trkpt><trkpt lat="42.20601441941156" lon="13.211969573313906"><ele>725.0</ele><time>2026-05-02T13:13:04Z</time></trkpt><trkpt lat="42.2061374134086" lon="13.211597587288415"><ele>724.5</ele><time>2026-05-02T13:13:05Z</time></trkpt><trkpt lat="42.20625646180558" lon="13.211227744510474"><ele>724.0</ele><time>2026-05-02T13:13:06Z</time></trkpt><trkpt lat="42.20636828639871" lon="13.210859953559062"><ele>722.0</ele><time>2026-05-02T13:13:07Z</time></trkpt><trkpt lat="42.206475452785185" lon="13.210492620833277"><ele>720.0</ele><time>2026-05-02T13:13:08Z</time></trkpt><trkpt lat="42.20657646816168" lon="13.210123128244392"><ele>732.0</ele><time>2026-05-02T13:13:09Z</time></trkpt><trkpt lat="42.20667522339809" lon="13.209752634815045"><ele>744.0</ele><time>2026-05-02T13:13:10Z</time></trkpt><trkpt lat="42.2067746525601" lon="13.209380439793089"><ele>744.0</ele><time>2026-05-02T13:13:11Z</time></trkpt><trkpt lat="42.206874443820375" lon="13.20900890177103"><ele>744.0</ele><time>2026-05-02T13:13:12Z</time></trkpt><trkpt lat="42.20696867846025" lon="13.208638053133875"><ele>740.0</ele><time>2026-05-02T13:13:13Z</time></trkpt><trkpt lat="42.207058849754006" lon="13.20827903453184"><ele>736.0</ele><time>2026-05-02T13:13:14Z</time></trkpt><trkpt lat="42.20714962967813" lon="13.207930578365001"><ele>732.0</ele><time>2026-05-02T13:13:15Z</time></trkpt><trkpt lat="42.20724212540297" lon="13.207583182503484"><ele>728.0</ele><time>2026-05-02T13:13:16Z</time></trkpt><trkpt lat="42.20733622701914" lon="13.207242053954092"><ele>737.0</ele><time>2026-05-02T13:13:17Z</time></trkpt><trkpt lat="42.207431824791925" lon="13.206910231301057"><ele>746.0</ele><time>2026-05-02T13:13:18Z</time></trkpt><trkpt lat="42.20752225150945" lon="13.20657639274722"><ele>740.5</ele><time>2026-05-02T13:13:19Z</time></trkpt><trkpt lat="42.20761507010554" lon="13.206250614835325"><ele>735.0</ele><time>2026-05-02T13:13:20Z</time></trkpt><trkpt lat="42.20771553724062" lon="13.205937374908318"><ele>730.5</ele><time>2026-05-02T13:13:21Z</time></trkpt><trkpt lat="42.20782605585962" lon="13.205637587819448"><ele>726.0</ele><time>2026-05-02T13:13:22Z</time></trkpt><trkpt lat="42.20795279981704" lon="13.205351403571253"><ele>726.0</ele><time>2026-05-02T13:13:23Z</time></trkpt><trkpt lat="42.208089739872364" lon="13.205071159307005"><ele>726.0</ele><time>2026-05-02T13:13:24Z</time></trkpt><trkpt lat="42.20823651223209" lon="13.20480410498406"><ele>734.5</ele><time>2026-05-02T13:13:25Z</time></trkpt><trkpt lat="42.20839035482409" lon="13.204537857818861"><ele>743.0</ele><time>2026-05-02T13:13:26Z</time></trkpt><trkpt lat="42.20855286578894" lon="13.20428698680899"><ele>743.0</ele><time>2026-05-02T13:13:27Z</time></trkpt><trkpt lat="42.208720702511975" lon="13.204047653450473"><ele>743.0</ele><time>2026-05-02T13:13:28Z</time></trkpt><trkpt lat="42.20889974431736" lon="13.203825314630775"><ele>744.0</ele><time>2026-05-02T13:13:29Z</time></trkpt><trkpt lat="42.20908841332427" lon="13.203611543375922"><ele>745.0</ele><time>2026-05-02T13:13:30Z</time></trkpt><trkpt lat="42.20927897720492" lon="13.203404148298167"><ele>745.0</ele><time>2026-05-02T13:13:31Z</time></trkpt><trkpt lat="42.20946190640297" lon="13.203180314930771"><ele>745.0</ele><time>2026-05-02T13:13:32Z</time></trkpt><trkpt lat="42.20963621147947" lon="13.202959594278783"><ele>745.5</ele><time>2026-05-02T13:13:33Z</time></trkpt><trkpt lat="42.20980124497034" lon="13.202732141971426"><ele>746.0</ele><time>2026-05-02T13:13:34Z</time></trkpt><trkpt lat="42.209954655044506" lon="13.202476462778163"><ele>740.5</ele><time>2026-05-02T13:13:35Z</time></trkpt><trkpt lat="42.2101012130773" lon="13.202222297940157"><ele>735.0</ele><time>2026-05-02T13:13:36Z</time></trkpt><trkpt lat="42.210240933665304" lon="13.201958014105482"><ele>735.0</ele><time>2026-05-02T13:13:37Z</time></trkpt><trkpt lat="42.21036998363464" lon="13.201684105585057"><ele>735.0</ele><time>2026-05-02T13:13:38Z</time></trkpt><trkpt lat="42.210490091987744" lon="13.201408659879354"><ele>732.5</ele><time>2026-05-02T13:13:39Z</time></trkpt><trkpt lat="42.210605887822545" lon="13.201142216914763"><ele>730.0</ele><time>2026-05-02T13:13:40Z</time></trkpt><trkpt lat="42.21072299702366" lon="13.200881317778709"><ele>733.5</ele><time>2026-05-02T13:13:41Z</time></trkpt><trkpt lat="42.21085009386443" lon="13.200627826475333"><ele>737.0</ele><time>2026-05-02T13:13:42Z</time></trkpt><trkpt lat="42.21098751502343" lon="13.200383136637916"><ele>737.0</ele><time>2026-05-02T13:13:43Z</time></trkpt><trkpt lat="42.21113591110921" lon="13.200153961260225"><ele>737.0</ele><time>2026-05-02T13:13:44Z</time></trkpt><trkpt lat="42.211291754178006" lon="13.199934800099815"><ele>735.3333333333333</ele><time>2026-05-02T13:13:45Z</time></trkpt><trkpt lat="42.21145642181191" lon="13.19973013027048"><ele>733.6666666666666</ele><time>2026-05-02T13:13:46Z</time></trkpt><trkpt lat="42.211629599426956" lon="13.199538078974722"><ele>732.0</ele><time>2026-05-02T13:13:47Z</time></trkpt><trkpt lat="42.21181169332787" lon="13.199353146429626"><ele>737.5</ele><time>2026-05-02T13:13:48Z</time></trkpt><trkpt lat="42.21200289206186" lon="13.19918477963352"><ele>743.0</ele><time>2026-05-02T13:13:49Z</time></trkpt><trkpt lat="42.21220087739039" lon="13.199028686226342"><ele>742.0</ele><time>2026-05-02T13:13:50Z</time></trkpt><trkpt lat="42.21241602207213" lon="13.198922502752845"><ele>741.0</ele><time>2026-05-02T13:13:51Z</time></trkpt><trkpt lat="42.21263122857581" lon="13.19880954552285"><ele>741.0</ele><time>2026-05-02T13:13:52Z</time></trkpt><trkpt lat="42.212849334674665" lon="13.198711246767033"><ele>741.0</ele><time>2026-05-02T13:13:53Z</time></trkpt><trkpt lat="42.213072919060906" lon="13.198631627708094"><ele>743.5</ele><time>2026-05-02T13:13:54Z</time></trkpt><trkpt lat="42.21329855317403" lon="13.198558659704341"><ele>746.0</ele><time>2026-05-02T13:13:55Z</time></trkpt><trkpt lat="42.21353414131294" lon="13.198528582188718"><ele>746.0</ele><time>2026-05-02T13:13:56Z</time></trkpt><trkpt lat="42.21376778063826" lon="13.198514599315343"><ele>746.0</ele><time>2026-05-02T13:13:57Z</time></trkpt><trkpt lat="42.213997023625964" lon="13.198516564018911"><ele>745.0</ele><time>2026-05-02T13:13:58Z</time></trkpt><trkpt lat="42.21422781927798" lon="13.198531652529674"><ele>744.0</ele><time>2026-05-02T13:13:59Z</time></trkpt><trkpt lat="42.214456309480994" lon="13.198549570575995"><ele>744.0</ele><time>2026-05-02T13:14:00Z</time></trkpt><trkpt lat="42.2146859277563" lon="13.19856935146487"><ele>744.0</ele><time>2026-05-02T13:14:01Z</time></trkpt><trkpt lat="42.21491397369881" lon="13.198576454472931"><ele>742.0</ele><time>2026-05-02T13:14:02Z</time></trkpt><trkpt lat="42.21514257781439" lon="13.198580885581139"><ele>740.0</ele><time>2026-05-02T13:14:03Z</time></trkpt><trkpt lat="42.215371025991516" lon="13.198571246459435"><ele>740.0</ele><time>2026-05-02T13:14:04Z</time></trkpt><trkpt lat="42.21559816634912" lon="13.19858102442608"><ele>740.0</ele><time>2026-05-02T13:14:05Z</time></trkpt><trkpt lat="42.215825283771274" lon="13.198574401630136"><ele>741.0</ele><time>2026-05-02T13:14:06Z</time></trkpt><trkpt lat="42.21604838549636" lon="13.198453348198829"><ele>742.0</ele><time>2026-05-02T13:14:07Z</time></trkpt><trkpt lat="42.21627119523531" lon="13.198378980192102"><ele>745.0</ele><time>2026-05-02T13:14:08Z</time></trkpt><trkpt lat="42.21649153331398" lon="13.198292587167545"><ele>748.0</ele><time>2026-05-02T13:14:09Z</time></trkpt><trkpt lat="42.21670934586747" lon="13.19819380738673"><ele>760.0</ele><time>2026-05-02T13:14:10Z</time></trkpt><trkpt lat="42.21692581323857" lon="13.198091418648689"><ele>772.0</ele><time>2026-05-02T13:14:11Z</time></trkpt><trkpt lat="42.21714230933341" lon="13.197987213734978"><ele>772.5</ele><time>2026-05-02T13:14:12Z</time></trkpt><trkpt lat="42.21736126730684" lon="13.197883910381414"><ele>773.0</ele><time>2026-05-02T13:14:13Z</time></trkpt><trkpt lat="42.21758198938478" lon="13.197779972777449"><ele>773.0</ele><time>2026-05-02T13:14:14Z</time></trkpt><trkpt lat="42.21780442443262" lon="13.197677884474935"><ele>773.0</ele><time>2026-05-02T13:14:15Z</time></trkpt><trkpt lat="42.21802852403003" lon="13.197577889386777"><ele>772.5</ele><time>2026-05-02T13:14:16Z</time></trkpt><trkpt lat="42.21825271513965" lon="13.197472801313173"><ele>772.0</ele><time>2026-05-02T13:14:17Z</time></trkpt><trkpt lat="42.218477443853935" lon="13.197364503906144"><ele>778.5</ele><time>2026-05-02T13:14:18Z</time></trkpt><trkpt lat="42.21870420823629" lon="13.197255332101884"><ele>785.0</ele><time>2026-05-02T13:14:19Z</time></trkpt><trkpt lat="42.218933582745265" lon="13.197151469424826"><ele>781.0</ele><time>2026-05-02T13:14:20Z</time></trkpt><trkpt lat="42.21917092751142" lon="13.197066301004382"><ele>777.0</ele><time>2026-05-02T13:14:21Z</time></trkpt><trkpt lat="42.21940873742538" lon="13.196990134977684"><ele>777.0</ele><time>2026-05-02T13:14:22Z</time></trkpt><trkpt lat="42.21964649136664" lon="13.196928866429783"><ele>777.0</ele><time>2026-05-02T13:14:23Z</time></trkpt><trkpt lat="42.21988731970235" lon="13.196877783934603"><ele>778.0</ele><time>2026-05-02T13:14:24Z</time></trkpt><trkpt lat="42.22012681818384" lon="13.196833513262751"><ele>779.0</ele><time>2026-05-02T13:14:25Z</time></trkpt><trkpt lat="42.2203709112972" lon="13.196795141841495"><ele>779.0</ele><time>2026-05-02T13:14:26Z</time></trkpt><trkpt lat="42.22061644308667" lon="13.196754709904448"><ele>779.0</ele><time>2026-05-02T13:14:27Z</time></trkpt><trkpt lat="42.2208613809227" lon="13.196716716492023"><ele>780.0</ele><time>2026-05-02T13:14:28Z</time></trkpt><trkpt lat="42.22110958530191" lon="13.196685569585812"><ele>781.0</ele><time>2026-05-02T13:14:29Z</time></trkpt><trkpt lat="42.2213613176958" lon="13.196650195359084"><ele>784.0</ele><time>2026-05-02T13:14:30Z</time></trkpt><trkpt lat="42.221622163338644" lon="13.196602973975693"><ele>787.0</ele><time>2026-05-02T13:14:31Z</time></trkpt><trkpt lat="42.22187195650456" lon="13.196560833647307"><ele>787.0</ele><time>2026-05-02T13:14:32Z</time></trkpt><trkpt lat="42.22212521748008" lon="13.196524806863577"><ele>787.0</ele><time>2026-05-02T13:14:33Z</time></trkpt><trkpt lat="42.22237661660213" lon="13.196490144143407"><ele>797.0</ele><time>2026-05-02T13:14:34Z</time></trkpt><trkpt lat="42.22263064118062" lon="13.196456401835684"><ele>807.0</ele><time>2026-05-02T13:14:35Z</time></trkpt><trkpt lat="42.222884610996495" lon="13.196422851340454"><ele>807.0</ele><time>2026-05-02T13:14:36Z</time></trkpt><trkpt lat="42.22313744074963" lon="13.19638620164007"><ele>807.0</ele><time>2026-05-02T13:14:37Z</time></trkpt><trkpt lat="42.22339117082814" lon="13.196350857693844"><ele>807.0</ele><time>2026-05-02T13:14:38Z</time></trkpt><trkpt lat="42.22363644370946" lon="13.196314072430361"><ele>807.0</ele><time>2026-05-02T13:14:39Z</time></trkpt><trkpt lat="42.223891133896004" lon="13.196275872715637"><ele>803.5</ele><time>2026-05-02T13:14:40Z</time></trkpt><trkpt lat="42.22414104083345" lon="13.196237293089073"><ele>800.0</ele><time>2026-05-02T13:14:41Z</time></trkpt><trkpt lat="42.22440889329981" lon="13.196191059595499"><ele>800.0</ele><time>2026-05-02T13:14:42Z</time></trkpt><trkpt lat="42.224671376094285" lon="13.196158460750704"><ele>800.0</ele><time>2026-05-02T13:14:43Z</time></trkpt><trkpt lat="42.224925761669404" lon="13.196120923149946"><ele>799.0</ele><time>2026-05-02T13:14:44Z</time></trkpt><trkpt lat="42.225184277996874" lon="13.196084535077725"><ele>798.0</ele><time>2026-05-02T13:14:45Z</time></trkpt><trkpt lat="42.22543391798407" lon="13.19604435602764"><ele>796.0</ele><time>2026-05-02T13:14:46Z</time></trkpt><trkpt lat="42.22568505559839" lon="13.195999813105256"><ele>794.0</ele><time>2026-05-02T13:14:47Z</time></trkpt><trkpt lat="42.22592806819338" lon="13.19594767583448"><ele>794.0</ele><time>2026-05-02T13:14:48Z</time></trkpt><trkpt lat="42.22617535606503" lon="13.195898652507895"><ele>794.0</ele><time>2026-05-02T13:14:49Z</time></trkpt><trkpt lat="42.226420683934556" lon="13.19583461595619"><ele>794.0</ele><time>2026-05-02T13:14:50Z</time></trkpt><trkpt lat="42.22666578032419" lon="13.195756294144605"><ele>794.0</ele><time>2026-05-02T13:14:51Z</time></trkpt><trkpt lat="42.22690921901479" lon="13.195670208466536"><ele>794.0</ele><time>2026-05-02T13:14:52Z</time></trkpt><trkpt lat="42.22715106763392" lon="13.19557081574521"><ele>794.0</ele><time>2026-05-02T13:14:53Z</time></trkpt><trkpt lat="42.22739035182408" lon="13.195452630783093"><ele>794.0</ele><time>2026-05-02T13:14:54Z</time></trkpt><trkpt lat="42.2276253710458" lon="13.19531086378611"><ele>794.0</ele><time>2026-05-02T13:14:55Z</time></trkpt><trkpt lat="42.227852505917376" lon="13.195155143734878"><ele>794.0</ele><time>2026-05-02T13:14:56Z</time></trkpt><trkpt lat="42.22807888006253" lon="13.194991359351189"><ele>794.0</ele><time>2026-05-02T13:14:57Z</time></trkpt><trkpt lat="42.22830035129262" lon="13.19480483325609"><ele>791.5</ele><time>2026-05-02T13:14:58Z</time></trkpt><trkpt lat="42.228512725658646" lon="13.194605540643307"><ele>789.0</ele><time>2026-05-02T13:14:59Z</time></trkpt><trkpt lat="42.22871953232261" lon="13.194385723243293"><ele>789.0</ele><time>2026-05-02T13:15:00Z</time></trkpt><trkpt lat="42.22891325898569" lon="13.194146747709379"><ele>789.0</ele><time>2026-05-02T13:15:01Z</time></trkpt><trkpt lat="42.22909610528154" lon="13.193892628605267"><ele>788.5</ele><time>2026-05-02T13:15:02Z</time></trkpt><trkpt lat="42.22926955848036" lon="13.193625302852057"><ele>788.0</ele><time>2026-05-02T13:15:03Z</time></trkpt><trkpt lat="42.22943351784066" lon="13.193355366928108"><ele>789.0</ele><time>2026-05-02T13:15:04Z</time></trkpt><trkpt lat="42.22959666994765" lon="13.193077281986938"><ele>790.0</ele><time>2026-05-02T13:15:05Z</time></trkpt><trkpt lat="42.2297274061333" lon="13.192790271645691"><ele>789.5</ele><time>2026-05-02T13:15:06Z</time></trkpt><trkpt lat="42.22985738829765" lon="13.192499528595821"><ele>789.0</ele><time>2026-05-02T13:15:07Z</time></trkpt><trkpt lat="42.22997098350112" lon="13.19219441041629"><ele>789.0</ele><time>2026-05-02T13:15:08Z</time></trkpt><trkpt lat="42.230081036705506" lon="13.19188207280833"><ele>789.0</ele><time>2026-05-02T13:15:09Z</time></trkpt><trkpt lat="42.23018484117629" lon="13.191570255235318"><ele>790.0</ele><time>2026-05-02T13:15:10Z</time></trkpt><trkpt lat="42.23028794420976" lon="13.191257192460244"><ele>791.0</ele><time>2026-05-02T13:15:11Z</time></trkpt><trkpt lat="42.23037671195946" lon="13.190937905837268"><ele>793.5</ele><time>2026-05-02T13:15:12Z</time></trkpt><trkpt lat="42.23045355098792" lon="13.190604351390142"><ele>796.0</ele><time>2026-05-02T13:15:13Z</time></trkpt><trkpt lat="42.23052686471174" lon="13.190267948026237"><ele>796.0</ele><time>2026-05-02T13:15:14Z</time></trkpt><trkpt lat="42.230600652776076" lon="13.189928220957094"><ele>796.0</ele><time>2026-05-02T13:15:15Z</time></trkpt><trkpt lat="42.23067078797433" lon="13.189581147667923"><ele>791.5</ele><time>2026-05-02T13:15:16Z</time></trkpt><trkpt lat="42.230749553132426" lon="13.189243637304267"><ele>787.0</ele><time>2026-05-02T13:15:17Z</time></trkpt><trkpt lat="42.230830417981814" lon="13.188898932710337"><ele>787.0</ele><time>2026-05-02T13:15:18Z</time></trkpt><trkpt lat="42.23091709969049" lon="13.188565809727113"><ele>787.0</ele><time>2026-05-02T13:15:19Z</time></trkpt><trkpt lat="42.23101133445156" lon="13.188232080362887"><ele>792.0</ele><time>2026-05-02T13:15:20Z</time></trkpt><trkpt lat="42.23110905935837" lon="13.187896631246701"><ele>797.0</ele><time>2026-05-02T13:15:21Z</time></trkpt><trkpt lat="42.2312111177491" lon="13.187562251098624"><ele>800.0</ele><time>2026-05-02T13:15:22Z</time></trkpt><trkpt lat="42.231318999404046" lon="13.187233016876942"><ele>803.0</ele><time>2026-05-02T13:15:23Z</time></trkpt><trkpt lat="42.231434458087" lon="13.186904701243545"><ele>795.0</ele><time>2026-05-02T13:15:24Z</time></trkpt><trkpt lat="42.231563368816644" lon="13.18658836777918"><ele>787.0</ele><time>2026-05-02T13:15:25Z</time></trkpt><trkpt lat="42.23169016055826" lon="13.186266124805876"><ele>782.0</ele><time>2026-05-02T13:15:26Z</time></trkpt><trkpt lat="42.231828530610684" lon="13.185949248644595"><ele>777.0</ele><time>2026-05-02T13:15:27Z</time></trkpt><trkpt lat="42.23198031123889" lon="13.185640397442882"><ele>771.5</ele><time>2026-05-02T13:15:28Z</time></trkpt><trkpt lat="42.232134982201394" lon="13.185329444215482"><ele>766.0</ele><time>2026-05-02T13:15:29Z</time></trkpt><trkpt lat="42.232292520486745" lon="13.185026118515696"><ele>763.5</ele><time>2026-05-02T13:15:30Z</time></trkpt><trkpt lat="42.23247218794651" lon="13.184745163442157"><ele>761.0</ele><time>2026-05-02T13:15:31Z</time></trkpt><trkpt lat="42.232643286085576" lon="13.184456607360092"><ele>761.0</ele><time>2026-05-02T13:15:32Z</time></trkpt><trkpt lat="42.23281678547236" lon="13.184172127903238"><ele>761.0</ele><time>2026-05-02T13:15:33Z</time></trkpt><trkpt lat="42.232993989857746" lon="13.183893355595886"><ele>756.5</ele><time>2026-05-02T13:15:34Z</time></trkpt><trkpt lat="42.23316876666162" lon="13.183622541201515"><ele>752.0</ele><time>2026-05-02T13:15:35Z</time></trkpt><trkpt lat="42.2333456703784" lon="13.183345528193435"><ele>746.0</ele><time>2026-05-02T13:15:36Z</time></trkpt><trkpt lat="42.23351144956119" lon="13.18305655490074"><ele>740.0</ele><time>2026-05-02T13:15:37Z</time></trkpt><trkpt lat="42.23368990373591" lon="13.18277646344742"><ele>740.0</ele><time>2026-05-02T13:15:38Z</time></trkpt><trkpt lat="42.23386472799077" lon="13.182498858719162"><ele>740.0</ele><time>2026-05-02T13:15:39Z</time></trkpt><trkpt lat="42.23403971503146" lon="13.18222533192021"><ele>739.0</ele><time>2026-05-02T13:15:40Z</time></trkpt><trkpt lat="42.234213850913605" lon="13.18196027904133"><ele>738.0</ele><time>2026-05-02T13:15:41Z</time></trkpt><trkpt lat="42.23438671633369" lon="13.181691190439592"><ele>737.5</ele><time>2026-05-02T13:15:42Z</time></trkpt><trkpt lat="42.23456436321922" lon="13.181424583611248"><ele>737.0</ele><time>2026-05-02T13:15:43Z</time></trkpt><trkpt lat="42.234742260897626" lon="13.181154248191403"><ele>742.5</ele><time>2026-05-02T13:15:44Z</time></trkpt><trkpt lat="42.23491736361528" lon="13.180883409146622"><ele>748.0</ele><time>2026-05-02T13:15:45Z</time></trkpt><trkpt lat="42.235090505302935" lon="13.180611542787181"><ele>748.0</ele><time>2026-05-02T13:15:46Z</time></trkpt><trkpt lat="42.23526021311171" lon="13.180343005067202"><ele>748.0</ele><time>2026-05-02T13:15:47Z</time></trkpt><trkpt lat="42.23542833227331" lon="13.180078393604004"><ele>747.5</ele><time>2026-05-02T13:15:48Z</time></trkpt><trkpt lat="42.235584921492986" lon="13.179820525245614"><ele>747.0</ele><time>2026-05-02T13:15:49Z</time></trkpt><trkpt lat="42.23574477550527" lon="13.179576392985595"><ele>749.0</ele><time>2026-05-02T13:15:50Z</time></trkpt><trkpt lat="42.235905887486695" lon="13.179326847267536"><ele>751.0</ele><time>2026-05-02T13:15:51Z</time></trkpt><trkpt lat="42.23606376794491" lon="13.179081196749989"><ele>754.0</ele><time>2026-05-02T13:15:52Z</time></trkpt><trkpt lat="42.23622094719968" lon="13.178832887167308"><ele>757.0</ele><time>2026-05-02T13:15:53Z</time></trkpt><trkpt lat="42.23637818714879" lon="13.178582623998235"><ele>759.5</ele><time>2026-05-02T13:15:54Z</time></trkpt><trkpt lat="42.236534654589946" lon="13.178326946225585"><ele>762.0</ele><time>2026-05-02T13:15:55Z</time></trkpt><trkpt lat="42.23670728988305" lon="13.178088322327515"><ele>765.5</ele><time>2026-05-02T13:15:56Z</time></trkpt><trkpt lat="42.23686837063277" lon="13.177837871538317"><ele>769.0</ele><time>2026-05-02T13:15:57Z</time></trkpt><trkpt lat="42.23702735612663" lon="13.177590678484085"><ele>774.5</ele><time>2026-05-02T13:15:58Z</time></trkpt><trkpt lat="42.23718774961821" lon="13.177341296251543"><ele>780.0</ele><time>2026-05-02T13:15:59.02Z</time></trkpt><trkpt lat="42.23734639436226" lon="13.177094632993509"><ele>781.0</ele><time>2026-05-02T13:16:00.019Z</time></trkpt><trkpt lat="42.237506078826534" lon="13.176846301659774"><ele>782.0</ele><time>2026-05-02T13:16:01.019Z</time></trkpt><trkpt lat="42.23766545700809" lon="13.176598320300377"><ele>739.0</ele><time>2026-05-02T13:16:02.013Z</time></trkpt><trkpt lat="42.24124585282266" lon="13.171832263481964"><ele>739.0</ele><time>2026-05-02T13:16:23Z</time></trkpt><trkpt lat="42.24143344787449" lon="13.17165445723707"><ele>739.0</ele><time>2026-05-02T13:16:24Z</time></trkpt><trkpt lat="42.24160609090196" lon="13.171495250003412"><ele>739.0</ele><time>2026-05-02T13:16:25Z</time></trkpt><trkpt lat="42.241789430514835" lon="13.171327059529155"><ele>732.0</ele><time>2026-05-02T13:16:26Z</time></trkpt><trkpt lat="42.24199688610821" lon="13.171133571076554"><ele>725.0</ele><time>2026-05-02T13:16:27Z</time></trkpt><trkpt lat="42.24220872620162" lon="13.17095238093544"><ele>716.0</ele><time>2026-05-02T13:16:28Z</time></trkpt><trkpt lat="42.24242302770692" lon="13.170767623211763"><ele>707.0</ele><time>2026-05-02T13:16:29Z</time></trkpt><trkpt lat="42.24263542870985" lon="13.170576879598455"><ele>697.5</ele><time>2026-05-02T13:16:30Z</time></trkpt><trkpt lat="42.242846867500475" lon="13.17039362337809"><ele>688.0</ele><time>2026-05-02T13:16:31Z</time></trkpt><trkpt lat="42.24305805956154" lon="13.170208787533685"><ele>684.5</ele><time>2026-05-02T13:16:32Z</time></trkpt><trkpt lat="42.243270618281784" lon="13.17002848750209"><ele>681.0</ele><time>2026-05-02T13:16:33Z</time></trkpt><trkpt lat="42.24348434897162" lon="13.16984728920306"><ele>660.5</ele><time>2026-05-02T13:16:34Z</time></trkpt><trkpt lat="42.24363885179201" lon="13.169618946176605"><ele>640.0</ele><time>2026-05-02T13:16:35Z</time></trkpt><trkpt lat="42.24385569525298" lon="13.169441273331076"><ele>646.5</ele><time>2026-05-02T13:16:36Z</time></trkpt><trkpt lat="42.244069378381305" lon="13.169266234870888"><ele>653.0</ele><time>2026-05-02T13:16:37Z</time></trkpt><trkpt lat="42.24428083689187" lon="13.169089255128164"><ele>648.0</ele><time>2026-05-02T13:16:38Z</time></trkpt><trkpt lat="42.24449090948598" lon="13.168913251315299"><ele>643.0</ele><time>2026-05-02T13:16:39Z</time></trkpt><trkpt lat="42.24470057581356" lon="13.16873727770963"><ele>652.0</ele><time>2026-05-02T13:16:40Z</time></trkpt><trkpt lat="42.24490960616645" lon="13.168562837520122"><ele>661.0</ele><time>2026-05-02T13:16:41Z</time></trkpt><trkpt lat="42.24511746819309" lon="13.168389754468066"><ele>661.0</ele><time>2026-05-02T13:16:42Z</time></trkpt><trkpt lat="42.24532244866326" lon="13.16821696853532"><ele>661.0</ele><time>2026-05-02T13:16:43Z</time></trkpt><trkpt lat="42.24552400743273" lon="13.168043260673784"><ele>681.5</ele><time>2026-05-02T13:16:44Z</time></trkpt><trkpt lat="42.245725026405914" lon="13.167871318279571"><ele>702.0</ele><time>2026-05-02T13:16:45Z</time></trkpt><trkpt lat="42.24592471393384" lon="13.167695697357889"><ele>702.0</ele><time>2026-05-02T13:16:46Z</time></trkpt><trkpt lat="42.24612085210838" lon="13.167525745196123"><ele>702.0</ele><time>2026-05-02T13:16:47Z</time></trkpt><trkpt lat="42.24631191859683" lon="13.16735014293773"><ele>724.0</ele><time>2026-05-02T13:16:48Z</time></trkpt><trkpt lat="42.24650256144229" lon="13.16717258600818"><ele>746.0</ele><time>2026-05-02T13:16:49Z</time></trkpt><trkpt lat="42.246696619102984" lon="13.166990706643334"><ele>746.0</ele><time>2026-05-02T13:16:50.018Z</time></trkpt><trkpt lat="42.24688776482097" lon="13.166814321056371"><ele>746.0</ele><time>2026-05-02T13:16:51.014Z</time></trkpt><trkpt lat="42.247081730073056" lon="13.166636968527254"><ele>747.5</ele><time>2026-05-02T13:16:52.022Z</time></trkpt><trkpt lat="42.24727380745644" lon="13.16646229333325"><ele>749.0</ele><time>2026-05-02T13:16:53.017Z</time></trkpt><trkpt lat="42.24771387413353" lon="13.16623315216337"><ele>739.0</ele><time>2026-05-02T13:16:55Z</time></trkpt><trkpt lat="42.247910378401926" lon="13.166063387766396"><ele>729.0</ele><time>2026-05-02T13:16:56Z</time></trkpt><trkpt lat="42.24811460344972" lon="13.165890720027168"><ele>724.3333333333334</ele><time>2026-05-02T13:16:57Z</time></trkpt><trkpt lat="42.24829209171015" lon="13.165724574045564"><ele>719.6666666666667</ele><time>2026-05-02T13:16:58Z</time></trkpt><trkpt lat="42.248480430627" lon="13.165554948913384"><ele>715.0</ele><time>2026-05-02T13:16:59Z</time></trkpt><trkpt lat="42.24866932620831" lon="13.165396494093539"><ele>715.0</ele><time>2026-05-02T13:17:00Z</time></trkpt><trkpt lat="42.24886315620749" lon="13.165213280278435"><ele>715.0</ele><time>2026-05-02T13:17:01Z</time></trkpt><trkpt lat="42.24905221269172" lon="13.16504669997468"><ele>714.0</ele><time>2026-05-02T13:17:02Z</time></trkpt><trkpt lat="42.24924684092202" lon="13.164873381283108"><ele>713.0</ele><time>2026-05-02T13:17:03Z</time></trkpt><trkpt lat="42.24944270610942" lon="13.164707537520977"><ele>718.0</ele><time>2026-05-02T13:17:04Z</time></trkpt><trkpt lat="42.24963760722927" lon="13.164550655744328"><ele>723.0</ele><time>2026-05-02T13:17:05Z</time></trkpt><trkpt lat="42.24984013919888" lon="13.164312033305016"><ele>723.0</ele><time>2026-05-02T13:17:06Z</time></trkpt><trkpt lat="42.25003811878371" lon="13.164143504920315"><ele>723.0</ele><time>2026-05-02T13:17:07Z</time></trkpt><trkpt lat="42.25023493888946" lon="13.163979581269277"><ele>736.0</ele><time>2026-05-02T13:17:08Z</time></trkpt><trkpt lat="42.250429355462586" lon="13.163819888571387"><ele>749.0</ele><time>2026-05-02T13:17:09Z</time></trkpt><trkpt lat="42.25061815564448" lon="13.163651428389276"><ele>742.0</ele><time>2026-05-02T13:17:10Z</time></trkpt><trkpt lat="42.25080879192116" lon="13.163479496576215"><ele>735.0</ele><time>2026-05-02T13:17:11Z</time></trkpt><trkpt lat="42.250990698845385" lon="13.163301295945958"><ele>744.0</ele><time>2026-05-02T13:17:12Z</time></trkpt><trkpt lat="42.25117461004927" lon="13.163123231309342"><ele>753.0</ele><time>2026-05-02T13:17:13Z</time></trkpt><trkpt lat="42.25134606781086" lon="13.162928603763685"><ele>743.0</ele><time>2026-05-02T13:17:14Z</time></trkpt><trkpt lat="42.25154240480017" lon="13.162765592596052"><ele>733.0</ele><time>2026-05-02T13:17:15Z</time></trkpt><trkpt lat="42.25171079137805" lon="13.162550534836956"><ele>745.5</ele><time>2026-05-02T13:17:16Z</time></trkpt><trkpt lat="42.251877816116895" lon="13.162319866197926"><ele>758.0</ele><time>2026-05-02T13:17:17Z</time></trkpt><trkpt lat="42.25203539341676" lon="13.162076089905014"><ele>758.0</ele><time>2026-05-02T13:17:18Z</time></trkpt><trkpt lat="42.252186408096605" lon="13.16181994949238"><ele>758.0</ele><time>2026-05-02T13:17:19Z</time></trkpt><trkpt lat="42.25232903161198" lon="13.16155356267102"><ele>747.5</ele><time>2026-05-02T13:17:20Z</time></trkpt><trkpt lat="42.252462690044126" lon="13.161262572185665"><ele>737.0</ele><time>2026-05-02T13:17:21.02Z</time></trkpt><trkpt lat="42.25258033692873" lon="13.160968737410634"><ele>734.5</ele><time>2026-05-02T13:17:22.02Z</time></trkpt><trkpt lat="42.25268672125623" lon="13.160669910524652"><ele>732.0</ele><time>2026-05-02T13:17:23.022Z</time></trkpt><trkpt lat="42.25276999318481" lon="13.160369035548477"><ele>732.0</ele><time>2026-05-02T13:17:24Z</time></trkpt><trkpt lat="42.25287751654662" lon="13.160050219150637"><ele>732.0</ele><time>2026-05-02T13:17:25Z</time></trkpt><trkpt lat="42.25295340157458" lon="13.159716306779226"><ele>729.5</ele><time>2026-05-02T13:17:26Z</time></trkpt><trkpt lat="42.25301429923935" lon="13.159397559338945"><ele>727.0</ele><time>2026-05-02T13:17:27Z</time></trkpt><trkpt lat="42.25302308014418" lon="13.159070014984005"><ele>720.5</ele><time>2026-05-02T13:17:28Z</time></trkpt><trkpt lat="42.25306047332842" lon="13.158763108410321"><ele>714.0</ele><time>2026-05-02T13:17:29Z</time></trkpt><trkpt lat="42.25311187504157" lon="13.158455006201292"><ele>716.0</ele><time>2026-05-02T13:17:30Z</time></trkpt><trkpt lat="42.25312995816041" lon="13.158137425006643"><ele>718.0</ele><time>2026-05-02T13:17:31Z</time></trkpt><trkpt lat="42.25316317847662" lon="13.157823195485891"><ele>718.0</ele><time>2026-05-02T13:17:32Z</time></trkpt><trkpt lat="42.253203519956884" lon="13.15750240572449"><ele>718.0</ele><time>2026-05-02T13:17:33Z</time></trkpt><trkpt lat="42.25322761136692" lon="13.157197696320871"><ele>724.5</ele><time>2026-05-02T13:17:34Z</time></trkpt><trkpt lat="42.253257062472436" lon="13.156881918745254"><ele>731.0</ele><time>2026-05-02T13:17:35Z</time></trkpt><trkpt lat="42.25328590879285" lon="13.156565956918811"><ele>742.0</ele><time>2026-05-02T13:17:36Z</time></trkpt><trkpt lat="42.253307800817964" lon="13.156246448623861"><ele>753.0</ele><time>2026-05-02T13:17:37Z</time></trkpt><trkpt lat="42.25333308261835" lon="13.155922094277926"><ele>768.5</ele><time>2026-05-02T13:17:38Z</time></trkpt><trkpt lat="42.25336249759887" lon="13.155589390048544"><ele>784.0</ele><time>2026-05-02T13:17:39Z</time></trkpt><trkpt lat="42.253390769025934" lon="13.155251605249928"><ele>784.0</ele><time>2026-05-02T13:17:40Z</time></trkpt><trkpt lat="42.25342066130428" lon="13.154905010258485"><ele>784.0</ele><time>2026-05-02T13:17:41.016Z</time></trkpt><trkpt lat="42.25345209916658" lon="13.154563108110096"><ele>790.0</ele><time>2026-05-02T13:17:42.014Z</time></trkpt><trkpt lat="42.25348515983479" lon="13.154218796855425"><ele>796.0</ele><time>2026-05-02T13:17:43.018Z</time></trkpt><trkpt lat="42.2535179483564" lon="13.15387606025019"><ele>763.0</ele><time>2026-05-02T13:17:44.017Z</time></trkpt><trkpt lat="42.2537944" lon="13.1506348"><ele>764.0</ele><time>2026-05-02T13:17:48.553Z</time></trkpt><trkpt lat="42.25390085023106" lon="13.149637402978865"><ele>764.0</ele><time>2026-05-02T13:17:57Z</time></trkpt><trkpt lat="42.253927340828554" lon="13.149315857274923"><ele>764.0</ele><time>2026-05-02T13:17:58Z</time></trkpt><trkpt lat="42.253967548485534" lon="13.148993641159759"><ele>748.0</ele><time>2026-05-02T13:17:59Z</time></trkpt><trkpt lat="42.2540236642201" lon="13.148683233556644"><ele>732.0</ele><time>2026-05-02T13:18:00Z</time></trkpt><trkpt lat="42.254051968538114" lon="13.148363070956032"><ele>731.0</ele><time>2026-05-02T13:18:01Z</time></trkpt><trkpt lat="42.25408411875129" lon="13.148045525183427"><ele>730.0</ele><time>2026-05-02T13:18:02Z</time></trkpt><trkpt lat="42.25411132212028" lon="13.147733528108741"><ele>730.0</ele><time>2026-05-02T13:18:03Z</time></trkpt><trkpt lat="42.25415306716567" lon="13.147405019280626"><ele>730.0</ele><time>2026-05-02T13:18:04Z</time></trkpt><trkpt lat="42.25417152903858" lon="13.147083522361186"><ele>730.0</ele><time>2026-05-02T13:18:05Z</time></trkpt><trkpt lat="42.25419055786073" lon="13.146753315273548"><ele>730.0</ele><time>2026-05-02T13:18:06Z</time></trkpt><trkpt lat="42.25420280076532" lon="13.146422917603756"><ele>732.0</ele><time>2026-05-02T13:18:07Z</time></trkpt><trkpt lat="42.25422384588771" lon="13.146087805208227"><ele>734.0</ele><time>2026-05-02T13:18:08Z</time></trkpt><trkpt lat="42.25425135868416" lon="13.145752204362404"><ele>732.5</ele><time>2026-05-02T13:18:09Z</time></trkpt><trkpt lat="42.25427894756934" lon="13.145412491287814"><ele>731.0</ele><time>2026-05-02T13:18:10Z</time></trkpt><trkpt lat="42.25430672364928" lon="13.145070504926123"><ele>727.0</ele><time>2026-05-02T13:18:11Z</time></trkpt><trkpt lat="42.25433674310374" lon="13.144722827014231"><ele>723.0</ele><time>2026-05-02T13:18:12Z</time></trkpt><trkpt lat="42.254366777057285" lon="13.144374589554692"><ele>715.5</ele><time>2026-05-02T13:18:13Z</time></trkpt><trkpt lat="42.254398927427026" lon="13.144019752266683"><ele>708.0</ele><time>2026-05-02T13:18:14Z</time></trkpt><trkpt lat="42.25442654581551" lon="13.143665296888496"><ele>708.0</ele><time>2026-05-02T13:18:15Z</time></trkpt><trkpt lat="42.25445370809175" lon="13.143305930129507"><ele>708.0</ele><time>2026-05-02T13:18:16Z</time></trkpt><trkpt lat="42.25448569465552" lon="13.142947118205981"><ele>698.0</ele><time>2026-05-02T13:18:17Z</time></trkpt><trkpt lat="42.25451774243983" lon="13.142584936542715"><ele>688.0</ele><time>2026-05-02T13:18:18Z</time></trkpt><trkpt lat="42.254548994986116" lon="13.142224332367036"><ele>678.0</ele><time>2026-05-02T13:18:19Z</time></trkpt><trkpt lat="42.254580530046425" lon="13.141860667607544"><ele>668.0</ele><time>2026-05-02T13:18:20Z</time></trkpt><trkpt lat="42.254613606572626" lon="13.141499521627635"><ele>666.0</ele><time>2026-05-02T13:18:21Z</time></trkpt><trkpt lat="42.2546477393984" lon="13.141139000183646"><ele>664.0</ele><time>2026-05-02T13:18:22Z</time></trkpt><trkpt lat="42.25467767796552" lon="13.140776892415916"><ele>669.0</ele><time>2026-05-02T13:18:23Z</time></trkpt><trkpt lat="42.254711537259425" lon="13.140417473919042"><ele>674.0</ele><time>2026-05-02T13:18:24Z</time></trkpt><trkpt lat="42.254752156525484" lon="13.140060270625534"><ele>697.5</ele><time>2026-05-02T13:18:25Z</time></trkpt><trkpt lat="42.25480100005161" lon="13.139705488349174"><ele>721.0</ele><time>2026-05-02T13:18:26Z</time></trkpt><trkpt lat="42.25485978812669" lon="13.139358963162334"><ele>725.0</ele><time>2026-05-02T13:18:27Z</time></trkpt><trkpt lat="42.25492360862663" lon="13.139012666632798"><ele>729.0</ele><time>2026-05-02T13:18:28Z</time></trkpt><trkpt lat="42.2549999251619" lon="13.13867710457916"><ele>729.0</ele><time>2026-05-02T13:18:29Z</time></trkpt><trkpt lat="42.25509080030714" lon="13.138347946593175"><ele>729.0</ele><time>2026-05-02T13:18:30Z</time></trkpt><trkpt lat="42.25519292109404" lon="13.138024867330586"><ele>727.5</ele><time>2026-05-02T13:18:31Z</time></trkpt><trkpt lat="42.25530932367794" lon="13.13771460607657"><ele>726.0</ele><time>2026-05-02T13:18:32Z</time></trkpt><trkpt lat="42.25543399209253" lon="13.137411089313128"><ele>720.5</ele><time>2026-05-02T13:18:33Z</time></trkpt><trkpt lat="42.2555720135565" lon="13.137116612982172"><ele>715.0</ele><time>2026-05-02T13:18:34Z</time></trkpt><trkpt lat="42.255717209128" lon="13.136828511235821"><ele>716.0</ele><time>2026-05-02T13:18:35Z</time></trkpt><trkpt lat="42.25586253280218" lon="13.136538997313401"><ele>717.0</ele><time>2026-05-02T13:18:36Z</time></trkpt><trkpt lat="42.256014482117074" lon="13.136256239439813"><ele>717.0</ele><time>2026-05-02T13:18:37Z</time></trkpt><trkpt lat="42.256170668010675" lon="13.135977557922638"><ele>717.0</ele><time>2026-05-02T13:18:38Z</time></trkpt><trkpt lat="42.2563240827782" lon="13.135694795007463"><ele>698.5</ele><time>2026-05-02T13:18:39Z</time></trkpt><trkpt lat="42.256473186238445" lon="13.135405023132991"><ele>680.0</ele><time>2026-05-02T13:18:40Z</time></trkpt><trkpt lat="42.256615064702856" lon="13.135105374306166"><ele>680.5</ele><time>2026-05-02T13:18:41Z</time></trkpt><trkpt lat="42.25674681430741" lon="13.134795831350218"><ele>681.0</ele><time>2026-05-02T13:18:42Z</time></trkpt><trkpt lat="42.256866796259416" lon="13.134478942511404"><ele>681.0</ele><time>2026-05-02T13:18:43Z</time></trkpt><trkpt lat="42.256975046851935" lon="13.134156086638031"><ele>681.0</ele><time>2026-05-02T13:18:44Z</time></trkpt><trkpt lat="42.257064672469035" lon="13.133818939128176"><ele>688.0</ele><time>2026-05-02T13:18:45Z</time></trkpt><trkpt lat="42.25713619682376" lon="13.133472902327128"><ele>695.0</ele><time>2026-05-02T13:18:46Z</time></trkpt><trkpt lat="42.257187936073905" lon="13.133125755648038"><ele>703.0</ele><time>2026-05-02T13:18:47Z</time></trkpt><trkpt lat="42.25722377624126" lon="13.132775325859116"><ele>711.0</ele><time>2026-05-02T13:18:48Z</time></trkpt><trkpt lat="42.257248149424136" lon="13.132419435808478"><ele>718.5</ele><time>2026-05-02T13:18:49Z</time></trkpt><trkpt lat="42.25725556077005" lon="13.132059024398666"><ele>726.0</ele><time>2026-05-02T13:18:50Z</time></trkpt><trkpt lat="42.25724615303838" lon="13.131705497323088"><ele>735.5</ele><time>2026-05-02T13:18:51Z</time></trkpt><trkpt lat="42.25721911648834" lon="13.131352851538896"><ele>745.0</ele><time>2026-05-02T13:18:52Z</time></trkpt><trkpt lat="42.25717857455407" lon="13.13099733937455"><ele>745.5</ele><time>2026-05-02T13:18:53Z</time></trkpt><trkpt lat="42.25712848844048" lon="13.13064384590268"><ele>746.0</ele><time>2026-05-02T13:18:54Z</time></trkpt><trkpt lat="42.257081320407615" lon="13.130294396710145"><ele>746.0</ele><time>2026-05-02T13:18:55Z</time></trkpt><trkpt lat="42.25702905056429" lon="13.129946568988936"><ele>746.0</ele><time>2026-05-02T13:18:56Z</time></trkpt><trkpt lat="42.256983732085374" lon="13.129603802202626"><ele>735.5</ele><time>2026-05-02T13:18:57Z</time></trkpt><trkpt lat="42.25694790585493" lon="13.129269219789123"><ele>725.0</ele><time>2026-05-02T13:18:58Z</time></trkpt><trkpt lat="42.2569160750883" lon="13.12895778154638"><ele>717.0</ele><time>2026-05-02T13:18:59Z</time></trkpt><trkpt lat="42.25687964310188" lon="13.128642977275218"><ele>709.0</ele><time>2026-05-02T13:19:00Z</time></trkpt><trkpt lat="42.2568581825234" lon="13.128345452903474"><ele>712.0</ele><time>2026-05-02T13:19:01Z</time></trkpt><trkpt lat="42.25684772819176" lon="13.128059803999603"><ele>715.0</ele><time>2026-05-02T13:19:02Z</time></trkpt><trkpt lat="42.256843849529076" lon="13.127786384639966"><ele>718.0</ele><time>2026-05-02T13:19:03Z</time></trkpt><trkpt lat="42.256845063322906" lon="13.127524977067681"><ele>721.6666666666667</ele><time>2026-05-02T13:19:04Z</time></trkpt><trkpt lat="42.25685590550229" lon="13.127271852447613"><ele>725.3333333333334</ele><time>2026-05-02T13:19:05Z</time></trkpt><trkpt lat="42.25686928569527" lon="13.127025725563978"><ele>729.0</ele><time>2026-05-02T13:19:06Z</time></trkpt><trkpt lat="42.25688635744849" lon="13.126790914599853"><ele>729.0</ele><time>2026-05-02T13:19:07Z</time></trkpt><trkpt lat="42.25690918283728" lon="13.126558164998132"><ele>729.0</ele><time>2026-05-02T13:19:08Z</time></trkpt><trkpt lat="42.256936069595184" lon="13.126304937175103"><ele>729.0</ele><time>2026-05-02T13:19:09Z</time></trkpt><trkpt lat="42.25699078021464" lon="13.126038550166397"><ele>729.0</ele><time>2026-05-02T13:19:10Z</time></trkpt><trkpt lat="42.257039393478216" lon="13.125758677408463"><ele>729.0</ele><time>2026-05-02T13:19:11Z</time></trkpt><trkpt lat="42.25708799796159" lon="13.125463777121334"><ele>729.0</ele><time>2026-05-02T13:19:12Z</time></trkpt><trkpt lat="42.257172339986475" lon="13.125162182578741"><ele>730.5</ele><time>2026-05-02T13:19:13Z</time></trkpt><trkpt lat="42.25725453468147" lon="13.12485182631982"><ele>732.0</ele><time>2026-05-02T13:19:14Z</time></trkpt><trkpt lat="42.257331628007" lon="13.124530713518928"><ele>732.0</ele><time>2026-05-02T13:19:15Z</time></trkpt><trkpt lat="42.25740776702416" lon="13.124203528453084"><ele>732.0</ele><time>2026-05-02T13:19:16Z</time></trkpt><trkpt lat="42.25748020915545" lon="13.123865876691411"><ele>734.5</ele><time>2026-05-02T13:19:17Z</time></trkpt><trkpt lat="42.25754593070133" lon="13.123511764805075"><ele>737.0</ele><time>2026-05-02T13:19:18Z</time></trkpt><trkpt lat="42.25760687255933" lon="13.123140216811459"><ele>737.5</ele><time>2026-05-02T13:19:19Z</time></trkpt><trkpt lat="42.257689134876735" lon="13.122755707332232"><ele>738.0</ele><time>2026-05-02T13:19:20Z</time></trkpt><trkpt lat="42.25776456709213" lon="13.122363169941694"><ele>734.5</ele><time>2026-05-02T13:19:21Z</time></trkpt><trkpt lat="42.25783262384524" lon="13.121966426901778"><ele>731.0</ele><time>2026-05-02T13:19:22Z</time></trkpt><trkpt lat="42.25791690215542" lon="13.121576488743937"><ele>729.0</ele><time>2026-05-02T13:19:23Z</time></trkpt><trkpt lat="42.258004835714814" lon="13.121190581293726"><ele>727.0</ele><time>2026-05-02T13:19:24Z</time></trkpt><trkpt lat="42.258088756196734" lon="13.120807351956891"><ele>732.5</ele><time>2026-05-02T13:19:25Z</time></trkpt><trkpt lat="42.25817187007041" lon="13.120426816782137"><ele>738.0</ele><time>2026-05-02T13:19:26Z</time></trkpt><trkpt lat="42.25825654366273" lon="13.120054008788262"><ele>734.5</ele><time>2026-05-02T13:19:27Z</time></trkpt><trkpt lat="42.258337896250666" lon="13.119690152827866"><ele>731.0</ele><time>2026-05-02T13:19:28Z</time></trkpt><trkpt lat="42.258418274473385" lon="13.11933664716904"><ele>722.5</ele><time>2026-05-02T13:19:29Z</time></trkpt><trkpt lat="42.258496923314176" lon="13.118988919915479"><ele>714.0</ele><time>2026-05-02T13:19:30Z</time></trkpt><trkpt lat="42.258576325171646" lon="13.11867122226708"><ele>714.0</ele><time>2026-05-02T13:19:31Z</time></trkpt><trkpt lat="42.25863790947929" lon="13.118337583103145"><ele>714.0</ele><time>2026-05-02T13:19:32Z</time></trkpt><trkpt lat="42.258711327877144" lon="13.11803011829032"><ele>708.5</ele><time>2026-05-02T13:19:33Z</time></trkpt><trkpt lat="42.25878830995581" lon="13.11771901110796"><ele>703.0</ele><time>2026-05-02T13:19:34Z</time></trkpt><trkpt lat="42.25887232035604" lon="13.117413448506147"><ele>705.5</ele><time>2026-05-02T13:19:35Z</time></trkpt><trkpt lat="42.258958629642244" lon="13.117102132156358"><ele>708.0</ele><time>2026-05-02T13:19:36Z</time></trkpt><trkpt lat="42.259052633844135" lon="13.11679644594794"><ele>709.0</ele><time>2026-05-02T13:19:37Z</time></trkpt><trkpt lat="42.25915894396256" lon="13.116499951104469"><ele>710.0</ele><time>2026-05-02T13:19:38Z</time></trkpt><trkpt lat="42.25926973259561" lon="13.116205030383503"><ele>710.0</ele><time>2026-05-02T13:19:39Z</time></trkpt><trkpt lat="42.259384233938874" lon="13.115907010689252"><ele>710.0</ele><time>2026-05-02T13:19:40Z</time></trkpt><trkpt lat="42.25950441508937" lon="13.115614501005123"><ele>716.0</ele><time>2026-05-02T13:19:41Z</time></trkpt><trkpt lat="42.259631001770124" lon="13.115322672621385"><ele>722.0</ele><time>2026-05-02T13:19:42Z</time></trkpt><trkpt lat="42.259765510800385" lon="13.115032904687206"><ele>724.5</ele><time>2026-05-02T13:19:43Z</time></trkpt><trkpt lat="42.25990788119241" lon="13.114748688001264"><ele>727.0</ele><time>2026-05-02T13:19:44Z</time></trkpt><trkpt lat="42.26005504524637" lon="13.114474904972278"><ele>727.0</ele><time>2026-05-02T13:19:45Z</time></trkpt><trkpt lat="42.260205168171424" lon="13.114199030990175"><ele>727.0</ele><time>2026-05-02T13:19:46Z</time></trkpt><trkpt lat="42.26035369961777" lon="13.113927140310453"><ele>730.0</ele><time>2026-05-02T13:19:47Z</time></trkpt><trkpt lat="42.26050349035723" lon="13.113654669420054"><ele>733.0</ele><time>2026-05-02T13:19:48Z</time></trkpt><trkpt lat="42.260652108966994" lon="13.113381500862191"><ele>750.5</ele><time>2026-05-02T13:19:49Z</time></trkpt><trkpt lat="42.26080031426224" lon="13.113111859592053"><ele>768.0</ele><time>2026-05-02T13:19:50Z</time></trkpt><trkpt lat="42.260960649788885" lon="13.112853822246718"><ele>768.0</ele><time>2026-05-02T13:19:51Z</time></trkpt><trkpt lat="42.26111207566101" lon="13.112588592108118"><ele>768.0</ele><time>2026-05-02T13:19:52Z</time></trkpt><trkpt lat="42.26126565221841" lon="13.112318994174707"><ele>765.5</ele><time>2026-05-02T13:19:53.021Z</time></trkpt><trkpt lat="42.26141456341131" lon="13.112054119942393"><ele>763.0</ele><time>2026-05-02T13:19:54.02Z</time></trkpt><trkpt lat="42.26156375972999" lon="13.111788712461792"><ele>746.5</ele><time>2026-05-02T13:19:55.019Z</time></trkpt><trkpt lat="42.261714366592464" lon="13.11152028559513"><ele>730.0</ele><time>2026-05-02T13:19:56.022Z</time></trkpt><trkpt lat="42.26187028083853" lon="13.111241928099753"><ele>730.0</ele><time>2026-05-02T13:19:57Z</time></trkpt><trkpt lat="42.26198476716845" lon="13.111040357396138"><ele>730.0</ele><time>2026-05-02T13:19:58Z</time></trkpt><trkpt lat="42.2621156225251" lon="13.110794049703085"><ele>730.0</ele><time>2026-05-02T13:19:59Z</time></trkpt><trkpt lat="42.26226754252258" lon="13.1105403367923"><ele>729.5</ele><time>2026-05-02T13:20:00Z</time></trkpt><trkpt lat="42.26241529159707" lon="13.110282530048686"><ele>729.0</ele><time>2026-05-02T13:20:01Z</time></trkpt><trkpt lat="42.26255953290165" lon="13.110022778124627"><ele>729.0</ele><time>2026-05-02T13:20:02Z</time></trkpt><trkpt lat="42.262708415329286" lon="13.109761510361439"><ele>729.0</ele><time>2026-05-02T13:20:03Z</time></trkpt><trkpt lat="42.262860278687796" lon="13.109505696052699"><ele>729.0</ele><time>2026-05-02T13:20:04Z</time></trkpt><trkpt lat="42.26300924068543" lon="13.109245148923035"><ele>729.0</ele><time>2026-05-02T13:20:05Z</time></trkpt><trkpt lat="42.263157746939754" lon="13.108982832793744"><ele>723.0</ele><time>2026-05-02T13:20:06Z</time></trkpt><trkpt lat="42.26330142646277" lon="13.108714690501776"><ele>717.0</ele><time>2026-05-02T13:20:07Z</time></trkpt><trkpt lat="42.26343614528317" lon="13.108437362341924"><ele>716.5</ele><time>2026-05-02T13:20:08Z</time></trkpt><trkpt lat="42.263564236516764" lon="13.108154166006411"><ele>716.0</ele><time>2026-05-02T13:20:09Z</time></trkpt><trkpt lat="42.26368423943436" lon="13.107872215685722"><ele>716.0</ele><time>2026-05-02T13:20:10Z</time></trkpt><trkpt lat="42.26378609502426" lon="13.107579630604812"><ele>716.0</ele><time>2026-05-02T13:20:11Z</time></trkpt><trkpt lat="42.26387907186779" lon="13.107280326518563"><ele>724.5</ele><time>2026-05-02T13:20:12Z</time></trkpt><trkpt lat="42.26396324414858" lon="13.106974799196816"><ele>733.0</ele><time>2026-05-02T13:20:13Z</time></trkpt><trkpt lat="42.26403802109086" lon="13.10666563981225"><ele>732.5</ele><time>2026-05-02T13:20:14Z</time></trkpt><trkpt lat="42.26409860198804" lon="13.106349292116825"><ele>732.0</ele><time>2026-05-02T13:20:15Z</time></trkpt><trkpt lat="42.264136324268726" lon="13.106022310405182"><ele>736.0</ele><time>2026-05-02T13:20:16Z</time></trkpt><trkpt lat="42.264169607871466" lon="13.105694652073495"><ele>740.0</ele><time>2026-05-02T13:20:17Z</time></trkpt><trkpt lat="42.2641818131977" lon="13.105360720947909"><ele>740.0</ele><time>2026-05-02T13:20:18Z</time></trkpt><trkpt lat="42.26418224489327" lon="13.105027236028715"><ele>740.0</ele><time>2026-05-02T13:20:19Z</time></trkpt><trkpt lat="42.26417865701852" lon="13.10468817966921"><ele>739.0</ele><time>2026-05-02T13:20:20Z</time></trkpt><trkpt lat="42.26415518313492" lon="13.104358954890795"><ele>738.0</ele><time>2026-05-02T13:20:21Z</time></trkpt><trkpt lat="42.26412484012859" lon="13.104025053806408"><ele>735.5</ele><time>2026-05-02T13:20:22Z</time></trkpt><trkpt lat="42.26407185172901" lon="13.103695035260856"><ele>733.0</ele><time>2026-05-02T13:20:23Z</time></trkpt><trkpt lat="42.2640067979104" lon="13.103371499129493"><ele>716.5</ele><time>2026-05-02T13:20:24Z</time></trkpt><trkpt lat="42.263930712100695" lon="13.103047677610665"><ele>700.0</ele><time>2026-05-02T13:20:25Z</time></trkpt><trkpt lat="42.2638393500629" lon="13.102728842786544"><ele>706.0</ele><time>2026-05-02T13:20:26Z</time></trkpt><trkpt lat="42.26373485447597" lon="13.102413016558922"><ele>712.0</ele><time>2026-05-02T13:20:27Z</time></trkpt><trkpt lat="42.26361654841905" lon="13.102106707694077"><ele>712.0</ele><time>2026-05-02T13:20:28Z</time></trkpt><trkpt lat="42.263483851479734" lon="13.101811359781067"><ele>712.0</ele><time>2026-05-02T13:20:29Z</time></trkpt><trkpt lat="42.26333797717074" lon="13.101528752956506"><ele>721.0</ele><time>2026-05-02T13:20:30Z</time></trkpt><trkpt lat="42.26317593721868" lon="13.101266221017408"><ele>730.0</ele><time>2026-05-02T13:20:31Z</time></trkpt><trkpt lat="42.26300782626879" lon="13.101008970513433"><ele>730.0</ele><time>2026-05-02T13:20:32Z</time></trkpt><trkpt lat="42.26283536644607" lon="13.10075939611419"><ele>730.0</ele><time>2026-05-02T13:20:33Z</time></trkpt><trkpt lat="42.262657707517235" lon="13.100516669057253"><ele>734.0</ele><time>2026-05-02T13:20:34Z</time></trkpt><trkpt lat="42.26247826432509" lon="13.100286180297699"><ele>738.0</ele><time>2026-05-02T13:20:35Z</time></trkpt><trkpt lat="42.26230249756218" lon="13.100050506557992"><ele>729.0</ele><time>2026-05-02T13:20:36Z</time></trkpt><trkpt lat="42.2621328147255" lon="13.099802693627357"><ele>720.0</ele><time>2026-05-02T13:20:37Z</time></trkpt><trkpt lat="42.2619673393605" lon="13.099552610381245"><ele>720.0</ele><time>2026-05-02T13:20:38Z</time></trkpt><trkpt lat="42.26180756779764" lon="13.099302317173152"><ele>720.0</ele><time>2026-05-02T13:20:39Z</time></trkpt><trkpt lat="42.26165591937484" lon="13.099035198002353"><ele>729.5</ele><time>2026-05-02T13:20:40Z</time></trkpt><trkpt lat="42.26152278314646" lon="13.098755323328644"><ele>739.0</ele><time>2026-05-02T13:20:41Z</time></trkpt><trkpt lat="42.26140832066285" lon="13.098460979953982"><ele>737.0</ele><time>2026-05-02T13:20:42Z</time></trkpt><trkpt lat="42.26130624719556" lon="13.098156436511225"><ele>735.0</ele><time>2026-05-02T13:20:43Z</time></trkpt><trkpt lat="42.261221391240404" lon="13.09784147862024"><ele>735.0</ele><time>2026-05-02T13:20:44Z</time></trkpt><trkpt lat="42.26115307748922" lon="13.097514453806856"><ele>735.0</ele><time>2026-05-02T13:20:45Z</time></trkpt><trkpt lat="42.26110006318342" lon="13.097182266456631"><ele>734.0</ele><time>2026-05-02T13:20:46Z</time></trkpt><trkpt lat="42.26106387223524" lon="13.096847740398779"><ele>733.0</ele><time>2026-05-02T13:20:47Z</time></trkpt><trkpt lat="42.26104833065634" lon="13.096508724930013"><ele>729.5</ele><time>2026-05-02T13:20:48Z</time></trkpt><trkpt lat="42.26105032269344" lon="13.096164434866317"><ele>726.0</ele><time>2026-05-02T13:20:49Z</time></trkpt><trkpt lat="42.26106857314779" lon="13.095816841435902"><ele>720.0</ele><time>2026-05-02T13:20:50Z</time></trkpt><trkpt lat="42.26109931515927" lon="13.095467092270628"><ele>714.0</ele><time>2026-05-02T13:20:51Z</time></trkpt><trkpt lat="42.26114478799692" lon="13.095118237386108"><ele>710.5</ele><time>2026-05-02T13:20:52Z</time></trkpt><trkpt lat="42.261199150649325" lon="13.094768858965368"><ele>707.0</ele><time>2026-05-02T13:20:53Z</time></trkpt><trkpt lat="42.2612485312117" lon="13.09441870653413"><ele>710.0</ele><time>2026-05-02T13:20:54Z</time></trkpt><trkpt lat="42.261301742964534" lon="13.094076818763295"><ele>713.0</ele><time>2026-05-02T13:20:55Z</time></trkpt><trkpt lat="42.26135577150152" lon="13.093731995103498"><ele>713.0</ele><time>2026-05-02T13:20:56Z</time></trkpt><trkpt lat="42.26141018567835" lon="13.093391808853873"><ele>713.0</ele><time>2026-05-02T13:20:57Z</time></trkpt><trkpt lat="42.261458823509905" lon="13.093070287356033"><ele>721.0</ele><time>2026-05-02T13:20:58Z</time></trkpt><trkpt lat="42.26150854696775" lon="13.092756649644825"><ele>729.0</ele><time>2026-05-02T13:20:59Z</time></trkpt><trkpt lat="42.26155137600758" lon="13.092450015608149"><ele>724.3333333333334</ele><time>2026-05-02T13:21:00Z</time></trkpt><trkpt lat="42.26160623988115" lon="13.092166804237689"><ele>719.6666666666667</ele><time>2026-05-02T13:21:01Z</time></trkpt><trkpt lat="42.26165292569322" lon="13.091910801349975"><ele>715.0</ele><time>2026-05-02T13:21:02Z</time></trkpt><trkpt lat="42.26168897629619" lon="13.091670455684831"><ele>712.0</ele><time>2026-05-02T13:21:03Z</time></trkpt><trkpt lat="42.26172026164406" lon="13.091434840980565"><ele>709.0</ele><time>2026-05-02T13:21:04Z</time></trkpt><trkpt lat="42.261756809852145" lon="13.09119463561412"><ele>706.0</ele><time>2026-05-02T13:21:05Z</time></trkpt><trkpt lat="42.261796212868006" lon="13.090940081587979"><ele>707.6666666666667</ele><time>2026-05-02T13:21:06Z</time></trkpt><trkpt lat="42.261837624310395" lon="13.090676152089781"><ele>709.3333333333334</ele><time>2026-05-02T13:21:07Z</time></trkpt><trkpt lat="42.2618768174242" lon="13.090402218936337"><ele>711.0</ele><time>2026-05-02T13:21:08Z</time></trkpt><trkpt lat="42.26191846766742" lon="13.090109527349947"><ele>712.5</ele><time>2026-05-02T13:21:09Z</time></trkpt><trkpt lat="42.26195619278314" lon="13.089811186465788"><ele>714.0</ele><time>2026-05-02T13:21:10Z</time></trkpt><trkpt lat="42.262000913492486" lon="13.089497906271259"><ele>714.0</ele><time>2026-05-02T13:21:11Z</time></trkpt><trkpt lat="42.26204965952359" lon="13.089175084024438"><ele>714.0</ele><time>2026-05-02T13:21:12Z</time></trkpt><trkpt lat="42.262099633843675" lon="13.088854795586094"><ele>710.0</ele><time>2026-05-02T13:21:13Z</time></trkpt><trkpt lat="42.262176356871755" lon="13.088538593334631"><ele>706.0</ele><time>2026-05-02T13:21:14Z</time></trkpt><trkpt lat="42.26222089475183" lon="13.088217603260032"><ele>701.0</ele><time>2026-05-02T13:21:15Z</time></trkpt><trkpt lat="42.26227911482447" lon="13.087899420583593"><ele>696.0</ele><time>2026-05-02T13:21:16Z</time></trkpt><trkpt lat="42.26232868321214" lon="13.087582271347372"><ele>688.0</ele><time>2026-05-02T13:21:17Z</time></trkpt><trkpt lat="42.262370976105345" lon="13.08726523799202"><ele>680.0</ele><time>2026-05-02T13:21:18Z</time></trkpt><trkpt lat="42.26241933465822" lon="13.086949516213792"><ele>680.0</ele><time>2026-05-02T13:21:19Z</time></trkpt><trkpt lat="42.26247109924337" lon="13.086632128457895"><ele>680.0</ele><time>2026-05-02T13:21:20Z</time></trkpt><trkpt lat="42.26252627616507" lon="13.08631425037661"><ele>680.5</ele><time>2026-05-02T13:21:21Z</time></trkpt><trkpt lat="42.262584048899605" lon="13.085993441263861"><ele>681.0</ele><time>2026-05-02T13:21:22Z</time></trkpt><trkpt lat="42.26264746456698" lon="13.085673538331424"><ele>692.5</ele><time>2026-05-02T13:21:23Z</time></trkpt><trkpt lat="42.26271502880196" lon="13.085352102296499"><ele>704.0</ele><time>2026-05-02T13:21:24Z</time></trkpt><trkpt lat="42.26278703531848" lon="13.085032389587694"><ele>706.5</ele><time>2026-05-02T13:21:25Z</time></trkpt><trkpt lat="42.26286024135548" lon="13.084723668065545"><ele>709.0</ele><time>2026-05-02T13:21:26Z</time></trkpt><trkpt lat="42.26294515849523" lon="13.084421604122783"><ele>709.0</ele><time>2026-05-02T13:21:27Z</time></trkpt><trkpt lat="42.26303082813212" lon="13.084116867448977"><ele>709.0</ele><time>2026-05-02T13:21:28Z</time></trkpt><trkpt lat="42.26312327705512" lon="13.083809584558942"><ele>708.5</ele><time>2026-05-02T13:21:29Z</time></trkpt><trkpt lat="42.26322281082489" lon="13.083504662886572"><ele>708.0</ele><time>2026-05-02T13:21:30Z</time></trkpt><trkpt lat="42.263333208374775" lon="13.083204043966138"><ele>708.0</ele><time>2026-05-02T13:21:31Z</time></trkpt><trkpt lat="42.26344660292601" lon="13.082907207803997"><ele>708.0</ele><time>2026-05-02T13:21:32Z</time></trkpt><trkpt lat="42.26356846374771" lon="13.082615204895202"><ele>704.5</ele><time>2026-05-02T13:21:33Z</time></trkpt><trkpt lat="42.26369410362387" lon="13.082323719364068"><ele>701.0</ele><time>2026-05-02T13:21:34Z</time></trkpt><trkpt lat="42.26383256539107" lon="13.082039448885018"><ele>699.0</ele><time>2026-05-02T13:21:35Z</time></trkpt><trkpt lat="42.26397549785696" lon="13.081758523956678"><ele>697.0</ele><time>2026-05-02T13:21:36Z</time></trkpt><trkpt lat="42.26411817964261" lon="13.081476500094997"><ele>697.0</ele><time>2026-05-02T13:21:37Z</time></trkpt><trkpt lat="42.26428062970352" lon="13.081216710702947"><ele>697.0</ele><time>2026-05-02T13:21:38Z</time></trkpt><trkpt lat="42.26443788733519" lon="13.080951739581419"><ele>691.5</ele><time>2026-05-02T13:21:39Z</time></trkpt><trkpt lat="42.26459082099547" lon="13.08067676448534"><ele>686.0</ele><time>2026-05-02T13:21:40Z</time></trkpt><trkpt lat="42.26477361005552" lon="13.080433385452547"><ele>688.5</ele><time>2026-05-02T13:21:41Z</time></trkpt><trkpt lat="42.264947383209" lon="13.08018741281398"><ele>691.0</ele><time>2026-05-02T13:21:42Z</time></trkpt><trkpt lat="42.265120281446045" lon="13.079951256361767"><ele>683.5</ele><time>2026-05-02T13:21:43Z</time></trkpt><trkpt lat="42.26529975487353" lon="13.079721787415655"><ele>676.0</ele><time>2026-05-02T13:21:44Z</time></trkpt><trkpt lat="42.26548748972572" lon="13.07949614391117"><ele>678.5</ele><time>2026-05-02T13:21:45Z</time></trkpt><trkpt lat="42.26567949497459" lon="13.079273065533465"><ele>681.0</ele><time>2026-05-02T13:21:46Z</time></trkpt><trkpt lat="42.26587148789045" lon="13.079056287465"><ele>681.0</ele><time>2026-05-02T13:21:47Z</time></trkpt><trkpt lat="42.266063339557995" lon="13.078843192130025"><ele>681.0</ele><time>2026-05-02T13:21:48Z</time></trkpt><trkpt lat="42.26625229860119" lon="13.078632535872808"><ele>681.0</ele><time>2026-05-02T13:21:49Z</time></trkpt><trkpt lat="42.26643059505558" lon="13.07840286449757"><ele>681.0</ele><time>2026-05-02T13:21:50Z</time></trkpt><trkpt lat="42.26661699704908" lon="13.07818788855947"><ele>680.0</ele><time>2026-05-02T13:21:51Z</time></trkpt><trkpt lat="42.26680035493897" lon="13.07796727603444"><ele>679.0</ele><time>2026-05-02T13:21:52Z</time></trkpt><trkpt lat="42.26699255290658" lon="13.077755868161976"><ele>679.0</ele><time>2026-05-02T13:21:53Z</time></trkpt><trkpt lat="42.2671592441629" lon="13.077510952124705"><ele>679.0</ele><time>2026-05-02T13:21:54Z</time></trkpt><trkpt lat="42.26732911613522" lon="13.077271359458827"><ele>680.5</ele><time>2026-05-02T13:21:55Z</time></trkpt><trkpt lat="42.26748919121362" lon="13.077018634989514"><ele>682.0</ele><time>2026-05-02T13:21:56Z</time></trkpt><trkpt lat="42.26764560582422" lon="13.076764431330988"><ele>675.0</ele><time>2026-05-02T13:21:57Z</time></trkpt><trkpt lat="42.26779955161357" lon="13.076506109893243"><ele>668.0</ele><time>2026-05-02T13:21:58Z</time></trkpt><trkpt lat="42.267954115161245" lon="13.076255841634795"><ele>668.0</ele><time>2026-05-02T13:21:59Z</time></trkpt><trkpt lat="42.268104981304894" lon="13.075998454764976"><ele>668.0</ele><time>2026-05-02T13:22:00Z</time></trkpt><trkpt lat="42.26826165329973" lon="13.075750021276308"><ele>674.0</ele><time>2026-05-02T13:22:01Z</time></trkpt><trkpt lat="42.26842967560116" lon="13.075504789917913"><ele>680.0</ele><time>2026-05-02T13:22:02Z</time></trkpt><trkpt lat="42.26860410897924" lon="13.07527280010747"><ele>680.0</ele><time>2026-05-02T13:22:03Z</time></trkpt><trkpt lat="42.26879566522926" lon="13.075050969930672"><ele>680.0</ele><time>2026-05-02T13:22:04Z</time></trkpt><trkpt lat="42.268984254877026" lon="13.07484304359781"><ele>671.5</ele><time>2026-05-02T13:22:05Z</time></trkpt><trkpt lat="42.269182201351526" lon="13.074647893518577"><ele>663.0</ele><time>2026-05-02T13:22:06Z</time></trkpt><trkpt lat="42.26941036823515" lon="13.07451710298914"><ele>663.0</ele><time>2026-05-02T13:22:07Z</time></trkpt><trkpt lat="42.26963497730741" lon="13.074380971617702"><ele>663.0</ele><time>2026-05-02T13:22:08Z</time></trkpt><trkpt lat="42.2698636025936" lon="13.074261785040358"><ele>665.5</ele><time>2026-05-02T13:22:09Z</time></trkpt><trkpt lat="42.27009803769095" lon="13.074165747396766"><ele>668.0</ele><time>2026-05-02T13:22:10Z</time></trkpt><trkpt lat="42.27033395052043" lon="13.074089004206156"><ele>665.0</ele><time>2026-05-02T13:22:11Z</time></trkpt><trkpt lat="42.270572139427145" lon="13.074034585567015"><ele>662.0</ele><time>2026-05-02T13:22:12Z</time></trkpt><trkpt lat="42.27081459736057" lon="13.074001544188533"><ele>662.0</ele><time>2026-05-02T13:22:13Z</time></trkpt><trkpt lat="42.2710578202834" lon="13.073985098128768"><ele>662.0</ele><time>2026-05-02T13:22:14Z</time></trkpt><trkpt lat="42.27129789003062" lon="13.073981476070305"><ele>658.5</ele><time>2026-05-02T13:22:15Z</time></trkpt><trkpt lat="42.27153923474768" lon="13.073997509444586"><ele>655.0</ele><time>2026-05-02T13:22:16Z</time></trkpt><trkpt lat="42.271775802011284" lon="13.074043391182622"><ele>667.0</ele><time>2026-05-02T13:22:17Z</time></trkpt><trkpt lat="42.27201424322459" lon="13.074107747724138"><ele>679.0</ele><time>2026-05-02T13:22:18Z</time></trkpt><trkpt lat="42.27224876645526" lon="13.074173701612835"><ele>672.0</ele><time>2026-05-02T13:22:19Z</time></trkpt><trkpt lat="42.272480718108575" lon="13.07424236710264"><ele>665.0</ele><time>2026-05-02T13:22:20Z</time></trkpt><trkpt lat="42.27271281626367" lon="13.074306348108276"><ele>665.0</ele><time>2026-05-02T13:22:21Z</time></trkpt><trkpt lat="42.2729444920213" lon="13.074364794325398"><ele>665.0</ele><time>2026-05-02T13:22:22Z</time></trkpt><trkpt lat="42.273177334077545" lon="13.07441075183004"><ele>667.5</ele><time>2026-05-02T13:22:23Z</time></trkpt><trkpt lat="42.27340968174853" lon="13.074435373567118"><ele>670.0</ele><time>2026-05-02T13:22:24Z</time></trkpt><trkpt lat="42.27364253427348" lon="13.074439067252284"><ele>670.0</ele><time>2026-05-02T13:22:25Z</time></trkpt><trkpt lat="42.273870526537095" lon="13.074432860998135"><ele>670.0</ele><time>2026-05-02T13:22:26Z</time></trkpt><trkpt lat="42.27409022407299" lon="13.074453254713276"><ele>670.0</ele><time>2026-05-02T13:22:27Z</time></trkpt><trkpt lat="42.27431347048527" lon="13.07442780084608"><ele>671.6666666666667</ele><time>2026-05-02T13:22:28Z</time></trkpt><trkpt lat="42.274531595226506" lon="13.074386416131533"><ele>673.3333333333334</ele><time>2026-05-02T13:22:29Z</time></trkpt><trkpt lat="42.274749565646" lon="13.074322735680063"><ele>675.0</ele><time>2026-05-02T13:22:30Z</time></trkpt><trkpt lat="42.274961699346875" lon="13.074246331901552"><ele>677.0</ele><time>2026-05-02T13:22:31Z</time></trkpt><trkpt lat="42.275185703950626" lon="13.074159571583948"><ele>679.0</ele><time>2026-05-02T13:22:32Z</time></trkpt><trkpt lat="42.27539114098781" lon="13.074069060650606"><ele>681.0</ele><time>2026-05-02T13:22:33Z</time></trkpt><trkpt lat="42.275596253431914" lon="13.073940501261548"><ele>674.0</ele><time>2026-05-02T13:22:34Z</time></trkpt><trkpt lat="42.27580321505033" lon="13.073808351386424"><ele>667.0</ele><time>2026-05-02T13:22:35Z</time></trkpt><trkpt lat="42.27600128367" lon="13.07366992816226"><ele>667.0</ele><time>2026-05-02T13:22:36Z</time></trkpt><trkpt lat="42.27619641722491" lon="13.073505683253543"><ele>667.0</ele><time>2026-05-02T13:22:37Z</time></trkpt><trkpt lat="42.27639395889104" lon="13.073326856598152"><ele>669.5</ele><time>2026-05-02T13:22:38Z</time></trkpt><trkpt lat="42.27659027931594" lon="13.073142066735654"><ele>672.0</ele><time>2026-05-02T13:22:39Z</time></trkpt><trkpt lat="42.276782922916745" lon="13.072954189241809"><ele>672.0</ele><time>2026-05-02T13:22:40Z</time></trkpt><trkpt lat="42.27697057434167" lon="13.072763548445693"><ele>672.0</ele><time>2026-05-02T13:22:41Z</time></trkpt><trkpt lat="42.27715663133256" lon="13.072570331695163"><ele>673.5</ele><time>2026-05-02T13:22:42Z</time></trkpt><trkpt lat="42.27734755134003" lon="13.072380002877956"><ele>675.0</ele><time>2026-05-02T13:22:43Z</time></trkpt><trkpt lat="42.27753212364616" lon="13.072184162601712"><ele>675.0</ele><time>2026-05-02T13:22:44Z</time></trkpt><trkpt lat="42.277720902721995" lon="13.071989897230324"><ele>675.0</ele><time>2026-05-02T13:22:45Z</time></trkpt><trkpt lat="42.277912159723876" lon="13.071802541186523"><ele>676.0</ele><time>2026-05-02T13:22:46Z</time></trkpt><trkpt lat="42.27810343903526" lon="13.071615495559659"><ele>677.0</ele><time>2026-05-02T13:22:47Z</time></trkpt><trkpt lat="42.27830245066143" lon="13.071440098042055"><ele>677.0</ele><time>2026-05-02T13:22:48Z</time></trkpt><trkpt lat="42.278501563767534" lon="13.071273791330748"><ele>677.0</ele><time>2026-05-02T13:22:49Z</time></trkpt><trkpt lat="42.27870566477894" lon="13.07111636352562"><ele>677.0</ele><time>2026-05-02T13:22:50Z</time></trkpt><trkpt lat="42.278909943401764" lon="13.070963992697658"><ele>677.0</ele><time>2026-05-02T13:22:51Z</time></trkpt><trkpt lat="42.27911709331434" lon="13.070822664000442"><ele>666.0</ele><time>2026-05-02T13:22:52Z</time></trkpt><trkpt lat="42.27932679282699" lon="13.070687679671028"><ele>655.0</ele><time>2026-05-02T13:22:53Z</time></trkpt><trkpt lat="42.27953710829834" lon="13.070547555471046"><ele>655.0</ele><time>2026-05-02T13:22:54Z</time></trkpt><trkpt lat="42.27975108366748" lon="13.070411751362032"><ele>655.0</ele><time>2026-05-02T13:22:55Z</time></trkpt><trkpt lat="42.27996830858739" lon="13.070279045054349"><ele>649.0</ele><time>2026-05-02T13:22:56Z</time></trkpt><trkpt lat="42.280183699771584" lon="13.07014368903491"><ele>643.0</ele><time>2026-05-02T13:22:57Z</time></trkpt><trkpt lat="42.280399168845676" lon="13.070012048783957"><ele>638.5</ele><time>2026-05-02T13:22:58Z</time></trkpt><trkpt lat="42.280612626192216" lon="13.069884860033318"><ele>634.0</ele><time>2026-05-02T13:22:59Z</time></trkpt><trkpt lat="42.280825699620856" lon="13.06976059353463"><ele>634.0</ele><time>2026-05-02T13:23:00Z</time></trkpt><trkpt lat="42.281037838894626" lon="13.069631509167506"><ele>634.0</ele><time>2026-05-02T13:23:01Z</time></trkpt><trkpt lat="42.281246583560495" lon="13.069498602197992"><ele>655.0</ele><time>2026-05-02T13:23:02Z</time></trkpt><trkpt lat="42.281457933390556" lon="13.069371794501427"><ele>676.0</ele><time>2026-05-02T13:23:03Z</time></trkpt><trkpt lat="42.281668081969855" lon="13.069243744208954"><ele>676.0</ele><time>2026-05-02T13:23:04Z</time></trkpt><trkpt lat="42.28187917978038" lon="13.069117418555228"><ele>676.0</ele><time>2026-05-02T13:23:05Z</time></trkpt><trkpt lat="42.282087154652444" lon="13.068993445036238"><ele>678.0</ele><time>2026-05-02T13:23:06Z</time></trkpt><trkpt lat="42.2822941683185" lon="13.06887097886145"><ele>680.0</ele><time>2026-05-02T13:23:07Z</time></trkpt><trkpt lat="42.28250136618656" lon="13.068748500002258"><ele>680.0</ele><time>2026-05-02T13:23:08Z</time></trkpt><trkpt lat="42.28270909898832" lon="13.068625892423443"><ele>680.0</ele><time>2026-05-02T13:23:09Z</time></trkpt><trkpt lat="42.28291607758882" lon="13.068494546007011"><ele>678.5</ele><time>2026-05-02T13:23:10Z</time></trkpt><trkpt lat="42.28311968255669" lon="13.068360504816235"><ele>677.0</ele><time>2026-05-02T13:23:11Z</time></trkpt><trkpt lat="42.28332105443413" lon="13.068226033976945"><ele>666.5</ele><time>2026-05-02T13:23:12Z</time></trkpt><trkpt lat="42.283539149069995" lon="13.06812237889164"><ele>656.0</ele><time>2026-05-02T13:23:13Z</time></trkpt><trkpt lat="42.2837435179848" lon="13.067998820390937"><ele>662.5</ele><time>2026-05-02T13:23:14Z</time></trkpt><trkpt lat="42.28395611424345" lon="13.06787028781992"><ele>669.0</ele><time>2026-05-02T13:23:15Z</time></trkpt><trkpt lat="42.284166595934245" lon="13.067743033684032"><ele>669.0</ele><time>2026-05-02T13:23:16Z</time></trkpt><trkpt lat="42.28437738513374" lon="13.067615397972386"><ele>669.0</ele><time>2026-05-02T13:23:17Z</time></trkpt><trkpt lat="42.28458531469504" lon="13.067488931461298"><ele>660.5</ele><time>2026-05-02T13:23:18Z</time></trkpt><trkpt lat="42.284797294957635" lon="13.067360001201472"><ele>652.0</ele><time>2026-05-02T13:23:19Z</time></trkpt><trkpt lat="42.28501242787984" lon="13.06722915048958"><ele>652.0</ele><time>2026-05-02T13:23:20Z</time></trkpt><trkpt lat="42.285226483128426" lon="13.067098953122727"><ele>652.0</ele><time>2026-05-02T13:23:21Z</time></trkpt><trkpt lat="42.285435917374" lon="13.066949579899639"><ele>652.0</ele><time>2026-05-02T13:23:22Z</time></trkpt><trkpt lat="42.28564948060067" lon="13.066818049194497"><ele>652.0</ele><time>2026-05-02T13:23:23Z</time></trkpt><trkpt lat="42.2858695011005" lon="13.066706731412411"><ele>650.0</ele><time>2026-05-02T13:23:24Z</time></trkpt><trkpt lat="42.2860821635693" lon="13.06657728228927"><ele>648.0</ele><time>2026-05-02T13:23:25Z</time></trkpt><trkpt lat="42.286292116074094" lon="13.066449815542255"><ele>649.0</ele><time>2026-05-02T13:23:26Z</time></trkpt><trkpt lat="42.28650334399266" lon="13.066321574534111"><ele>650.0</ele><time>2026-05-02T13:23:27Z</time></trkpt><trkpt lat="42.28671922492879" lon="13.066190508497723"><ele>650.0</ele><time>2026-05-02T13:23:28Z</time></trkpt><trkpt lat="42.286939604868735" lon="13.066056711033783"><ele>650.0</ele><time>2026-05-02T13:23:29Z</time></trkpt><trkpt lat="42.287164611157515" lon="13.065920104848475"><ele>651.5</ele><time>2026-05-02T13:23:30Z</time></trkpt><trkpt lat="42.28739865005369" lon="13.06577801490365"><ele>653.0</ele><time>2026-05-02T13:23:31Z</time></trkpt><trkpt lat="42.28764265663658" lon="13.065629874638619"><ele>653.0</ele><time>2026-05-02T13:23:32Z</time></trkpt><trkpt lat="42.28788844929619" lon="13.065481432926388"><ele>653.0</ele><time>2026-05-02T13:23:33Z</time></trkpt><trkpt lat="42.288139906006236" lon="13.065329291049837"><ele>658.0</ele><time>2026-05-02T13:23:34Z</time></trkpt><trkpt lat="42.28839734027419" lon="13.065171767743045"><ele>663.0</ele><time>2026-05-02T13:23:35Z</time></trkpt><trkpt lat="42.288660959745506" lon="13.065010459728807"><ele>668.0</ele><time>2026-05-02T13:23:36Z</time></trkpt><trkpt lat="42.288938370012104" lon="13.064840713164273"><ele>673.0</ele><time>2026-05-02T13:23:37Z</time></trkpt><trkpt lat="42.289223045035804" lon="13.06466704962209"><ele>673.0</ele><time>2026-05-02T13:23:38Z</time></trkpt><trkpt lat="42.289506328997675" lon="13.064495554634918"><ele>673.0</ele><time>2026-05-02T13:23:39Z</time></trkpt><trkpt lat="42.2897843234355" lon="13.06432701368276"><ele>678.5</ele><time>2026-05-02T13:23:40Z</time></trkpt><trkpt lat="42.2900463352725" lon="13.064148350083455"><ele>684.0</ele><time>2026-05-02T13:23:41Z</time></trkpt><trkpt lat="42.29031112612977" lon="13.063982816773876"><ele>684.0</ele><time>2026-05-02T13:23:42Z</time></trkpt><trkpt lat="42.29058154826655" lon="13.063817529161287"><ele>684.0</ele><time>2026-05-02T13:23:43.014Z</time></trkpt><trkpt lat="42.290856264144885" lon="13.063675654460631"><ele>688.0</ele><time>2026-05-02T13:23:44.019Z</time></trkpt><trkpt lat="42.29112229207418" lon="13.063514731882401"><ele>692.0</ele><time>2026-05-02T13:23:45.015Z</time></trkpt><trkpt lat="42.291384932801385" lon="13.06335448358861"><ele>674.0</ele><time>2026-05-02T13:23:46Z</time></trkpt><trkpt lat="42.291639126910816" lon="13.063175372299812"><ele>656.0</ele><time>2026-05-02T13:23:47Z</time></trkpt><trkpt lat="42.29189778996548" lon="13.063019876092024"><ele>656.0</ele><time>2026-05-02T13:23:48Z</time></trkpt><trkpt lat="42.29216087999575" lon="13.062857422953579"><ele>656.0</ele><time>2026-05-02T13:23:49Z</time></trkpt><trkpt lat="42.29242097101032" lon="13.062707078118267"><ele>654.5</ele><time>2026-05-02T13:23:50Z</time></trkpt><trkpt lat="42.29268460946507" lon="13.062553371296396"><ele>653.0</ele><time>2026-05-02T13:23:51Z</time></trkpt><trkpt lat="42.29293906218419" lon="13.062399746182914"><ele>651.0</ele><time>2026-05-02T13:23:52Z</time></trkpt><trkpt lat="42.29318737482538" lon="13.06226719428309"><ele>649.0</ele><time>2026-05-02T13:23:53Z</time></trkpt><trkpt lat="42.29343810422438" lon="13.06210437192839"><ele>649.0</ele><time>2026-05-02T13:23:54Z</time></trkpt><trkpt lat="42.29368743965096" lon="13.061954209948144"><ele>649.0</ele><time>2026-05-02T13:23:55Z</time></trkpt><trkpt lat="42.29393721427844" lon="13.061802206056427"><ele>649.5</ele><time>2026-05-02T13:23:56Z</time></trkpt><trkpt lat="42.29418506293911" lon="13.061648500792595"><ele>650.0</ele><time>2026-05-02T13:23:57Z</time></trkpt><trkpt lat="42.294428636835455" lon="13.061483722032026"><ele>646.5</ele><time>2026-05-02T13:23:58Z</time></trkpt><trkpt lat="42.29467401109215" lon="13.061317317968316"><ele>643.0</ele><time>2026-05-02T13:23:59Z</time></trkpt><trkpt lat="42.29491751845162" lon="13.061142873830791"><ele>643.0</ele><time>2026-05-02T13:24:00Z</time></trkpt><trkpt lat="42.29515747321395" lon="13.06095604645897"><ele>643.0</ele><time>2026-05-02T13:24:01Z</time></trkpt><trkpt lat="42.29539522389807" lon="13.060759441934625"><ele>644.0</ele><time>2026-05-02T13:24:02Z</time></trkpt><trkpt lat="42.29562858188236" lon="13.060550983699475"><ele>645.0</ele><time>2026-05-02T13:24:03Z</time></trkpt><trkpt lat="42.29585770560934" lon="13.060332996591193"><ele>645.0</ele><time>2026-05-02T13:24:04Z</time></trkpt><trkpt lat="42.29608219580303" lon="13.060111262668801"><ele>645.0</ele><time>2026-05-02T13:24:05Z</time></trkpt><trkpt lat="42.29629839506216" lon="13.05988114962323"><ele>652.5</ele><time>2026-05-02T13:24:06Z</time></trkpt><trkpt lat="42.29650598624461" lon="13.059637560475004"><ele>660.0</ele><time>2026-05-02T13:24:07Z</time></trkpt><trkpt lat="42.29671433040504" lon="13.059395263316995"><ele>660.0</ele><time>2026-05-02T13:24:08Z</time></trkpt><trkpt lat="42.2969139202852" lon="13.059140079528646"><ele>660.0</ele><time>2026-05-02T13:24:09Z</time></trkpt><trkpt lat="42.297110548821564" lon="13.058875110137084"><ele>668.0</ele><time>2026-05-02T13:24:10Z</time></trkpt><trkpt lat="42.29730002086339" lon="13.058602597006576"><ele>676.0</ele><time>2026-05-02T13:24:11Z</time></trkpt><trkpt lat="42.297481669787686" lon="13.058316297339891"><ele>675.0</ele><time>2026-05-02T13:24:12Z</time></trkpt><trkpt lat="42.29765617587048" lon="13.058025026210602"><ele>674.0</ele><time>2026-05-02T13:24:13Z</time></trkpt><trkpt lat="42.297829197174984" lon="13.057736279875238"><ele>678.0</ele><time>2026-05-02T13:24:14Z</time></trkpt><trkpt lat="42.297995092096315" lon="13.057439068962637"><ele>682.0</ele><time>2026-05-02T13:24:15Z</time></trkpt><trkpt lat="42.29815357263659" lon="13.05713165411202"><ele>691.5</ele><time>2026-05-02T13:24:16Z</time></trkpt><trkpt lat="42.29829864065139" lon="13.05682400709835"><ele>701.0</ele><time>2026-05-02T13:24:17Z</time></trkpt><trkpt lat="42.29843885113854" lon="13.056514542104257"><ele>709.0</ele><time>2026-05-02T13:24:18Z</time></trkpt><trkpt lat="42.29858587599805" lon="13.056200775118713"><ele>717.0</ele><time>2026-05-02T13:24:19.019Z</time></trkpt><trkpt lat="42.29873342091331" lon="13.055891802078218"><ele>722.5</ele><time>2026-05-02T13:24:20.02Z</time></trkpt><trkpt lat="42.2988811334384" lon="13.055584001171926"><ele>728.0</ele><time>2026-05-02T13:24:21.019Z</time></trkpt><trkpt lat="42.29902615331115" lon="13.055273185478532"><ele>728.0</ele><time>2026-05-02T13:24:22.019Z</time></trkpt><trkpt lat="42.29916604990541" lon="13.05495874695126"><ele>728.0</ele><time>2026-05-02T13:24:23.015Z</time></trkpt><trkpt lat="42.29930947393659" lon="13.054646124205657"><ele>721.5</ele><time>2026-05-02T13:24:24.019Z</time></trkpt><trkpt lat="42.299453438726374" lon="13.05433667301144"><ele>715.0</ele><time>2026-05-02T13:24:25.015Z</time></trkpt><trkpt lat="42.300111162515634" lon="13.052634559583899"><ele>691.0</ele><time>2026-05-02T13:24:30Z</time></trkpt><trkpt lat="42.300241728680604" lon="13.052305508055916"><ele>667.0</ele><time>2026-05-02T13:24:31Z</time></trkpt><trkpt lat="42.30037526265526" lon="13.051993674401533"><ele>667.0</ele><time>2026-05-02T13:24:32Z</time></trkpt><trkpt lat="42.30051727080177" lon="13.051679298741485"><ele>667.0</ele><time>2026-05-02T13:24:33Z</time></trkpt><trkpt lat="42.300643201282526" lon="13.051380463901758"><ele>663.0</ele><time>2026-05-02T13:24:34Z</time></trkpt><trkpt lat="42.30077691376528" lon="13.051081736847676"><ele>659.0</ele><time>2026-05-02T13:24:35Z</time></trkpt><trkpt lat="42.300898493336334" lon="13.050777532029148"><ele>659.0</ele><time>2026-05-02T13:24:36Z</time></trkpt><trkpt lat="42.30101372966113" lon="13.050465653711715"><ele>659.0</ele><time>2026-05-02T13:24:37Z</time></trkpt><trkpt lat="42.30114787753352" lon="13.050163305112209"><ele>662.0</ele><time>2026-05-02T13:24:38Z</time></trkpt><trkpt lat="42.301257726678756" lon="13.04985697315406"><ele>665.0</ele><time>2026-05-02T13:24:39Z</time></trkpt><trkpt lat="42.30139190335872" lon="13.04954952864968"><ele>672.0</ele><time>2026-05-02T13:24:40Z</time></trkpt><trkpt lat="42.301524880719874" lon="13.049249008891566"><ele>679.0</ele><time>2026-05-02T13:24:41Z</time></trkpt><trkpt lat="42.30165055011355" lon="13.048946269061094"><ele>689.5</ele><time>2026-05-02T13:24:42Z</time></trkpt><trkpt lat="42.301776295522316" lon="13.048644427154047"><ele>700.0</ele><time>2026-05-02T13:24:43Z</time></trkpt><trkpt lat="42.301894918461315" lon="13.048341307334764"><ele>707.0</ele><time>2026-05-02T13:24:44Z</time></trkpt><trkpt lat="42.3020120606433" lon="13.048039152720806"><ele>714.0</ele><time>2026-05-02T13:24:45Z</time></trkpt><trkpt lat="42.30212987829363" lon="13.04773688068819"><ele>734.0</ele><time>2026-05-02T13:24:46.014Z</time></trkpt><trkpt lat="42.30224961368982" lon="13.047430616884172"><ele>754.0</ele><time>2026-05-02T13:24:47.018Z</time></trkpt><trkpt lat="42.302369135639466" lon="13.047130513835858"><ele>754.0</ele><time>2026-05-02T13:24:48.019Z</time></trkpt><trkpt lat="42.30249055319423" lon="13.046828812124865"><ele>754.0</ele><time>2026-05-02T13:24:49.017Z</time></trkpt><trkpt lat="42.30261122150335" lon="13.04652416140847"><ele>753.0</ele><time>2026-05-02T13:24:50.014Z</time></trkpt><trkpt lat="42.3027313797686" lon="13.046220044170935"><ele>752.0</ele><time>2026-05-02T13:24:51.019Z</time></trkpt><trkpt lat="42.30284883867577" lon="13.045913708196792"><ele>747.0</ele><time>2026-05-02T13:24:52.016Z</time></trkpt><trkpt lat="42.302966842311605" lon="13.045608633491918"><ele>742.0</ele><time>2026-05-02T13:24:53.02Z</time></trkpt><trkpt lat="42.303997138554514" lon="13.04344690406047"><ele>713.0</ele><time>2026-05-02T13:25:00Z</time></trkpt><trkpt lat="42.304127153252225" lon="13.04314209794642"><ele>684.0</ele><time>2026-05-02T13:25:01Z</time></trkpt><trkpt lat="42.304225117436474" lon="13.042806035882549"><ele>684.0</ele><time>2026-05-02T13:25:02Z</time></trkpt><trkpt lat="42.304368729358195" lon="13.042493271373742"><ele>684.0</ele><time>2026-05-02T13:25:03Z</time></trkpt><trkpt lat="42.30452451912893" lon="13.042219134406569"><ele>682.0</ele><time>2026-05-02T13:25:04Z</time></trkpt><trkpt lat="42.304651068609125" lon="13.041923774726941"><ele>680.0</ele><time>2026-05-02T13:25:05Z</time></trkpt><trkpt lat="42.304780184460654" lon="13.041618661229045"><ele>677.5</ele><time>2026-05-02T13:25:06Z</time></trkpt><trkpt lat="42.30490296852147" lon="13.041298273365813"><ele>675.0</ele><time>2026-05-02T13:25:07Z</time></trkpt><trkpt lat="42.305033902321554" lon="13.0409951854316"><ele>667.5</ele><time>2026-05-02T13:25:08Z</time></trkpt><trkpt lat="42.30516277382138" lon="13.040693159032433"><ele>660.0</ele><time>2026-05-02T13:25:09Z</time></trkpt><trkpt lat="42.30529518935611" lon="13.040394077066153"><ele>660.0</ele><time>2026-05-02T13:25:10Z</time></trkpt><trkpt lat="42.305423142872684" lon="13.040093563462923"><ele>660.0</ele><time>2026-05-02T13:25:11Z</time></trkpt><trkpt lat="42.305552060038316" lon="13.03978829859334"><ele>664.0</ele><time>2026-05-02T13:25:12Z</time></trkpt><trkpt lat="42.30569388335752" lon="13.039496921381605"><ele>668.0</ele><time>2026-05-02T13:25:13Z</time></trkpt><trkpt lat="42.305839677166965" lon="13.039210455808247"><ele>671.0</ele><time>2026-05-02T13:25:14Z</time></trkpt><trkpt lat="42.3059878455339" lon="13.038924546625736"><ele>674.0</ele><time>2026-05-02T13:25:15Z</time></trkpt><trkpt lat="42.30614613972778" lon="13.038645024768067"><ele>674.0</ele><time>2026-05-02T13:25:16Z</time></trkpt><trkpt lat="42.30630745847359" lon="13.038370437451817"><ele>674.0</ele><time>2026-05-02T13:25:17Z</time></trkpt><trkpt lat="42.306478096361715" lon="13.038102422290516"><ele>674.0</ele><time>2026-05-02T13:25:18Z</time></trkpt><trkpt lat="42.306654284683205" lon="13.037843810297453"><ele>674.0</ele><time>2026-05-02T13:25:19Z</time></trkpt><trkpt lat="42.306836380581125" lon="13.037588533061525"><ele>670.0</ele><time>2026-05-02T13:25:20Z</time></trkpt><trkpt lat="42.30702604365764" lon="13.037334288497428"><ele>666.0</ele><time>2026-05-02T13:25:21Z</time></trkpt><trkpt lat="42.30721845867347" lon="13.037090929637156"><ele>667.0</ele><time>2026-05-02T13:25:22Z</time></trkpt><trkpt lat="42.30741924622337" lon="13.036852158013376"><ele>668.0</ele><time>2026-05-02T13:25:23Z</time></trkpt><trkpt lat="42.30762593084176" lon="13.03662163402584"><ele>672.5</ele><time>2026-05-02T13:25:24Z</time></trkpt><trkpt lat="42.30784175122388" lon="13.036402354717898"><ele>677.0</ele><time>2026-05-02T13:25:25Z</time></trkpt><trkpt lat="42.30806367335738" lon="13.03618321058112"><ele>677.0</ele><time>2026-05-02T13:25:26Z</time></trkpt><trkpt lat="42.30829021352785" lon="13.03597333518568"><ele>677.0</ele><time>2026-05-02T13:25:27Z</time></trkpt><trkpt lat="42.30851663761029" lon="13.035763473051654"><ele>684.5</ele><time>2026-05-02T13:25:28Z</time></trkpt><trkpt lat="42.30874999615105" lon="13.035564392877964"><ele>692.0</ele><time>2026-05-02T13:25:29Z</time></trkpt><trkpt lat="42.308984608406945" lon="13.035366574890354"><ele>692.0</ele><time>2026-05-02T13:25:30Z</time></trkpt><trkpt lat="42.30921441564723" lon="13.035173992900312"><ele>692.0</ele><time>2026-05-02T13:25:31Z</time></trkpt><trkpt lat="42.30944575165221" lon="13.034982346605743"><ele>690.5</ele><time>2026-05-02T13:25:32Z</time></trkpt><trkpt lat="42.30968092652007" lon="13.034791596306142"><ele>689.0</ele><time>2026-05-02T13:25:33.018Z</time></trkpt><trkpt lat="42.30991091416596" lon="13.034606140883234"><ele>689.0</ele><time>2026-05-02T13:25:34.018Z</time></trkpt><trkpt lat="42.310139481242004" lon="13.034423444086658"><ele>689.0</ele><time>2026-05-02T13:25:35.018Z</time></trkpt><trkpt lat="42.31036700012263" lon="13.034246446910437"><ele>678.5</ele><time>2026-05-02T13:25:36.014Z</time></trkpt><trkpt lat="42.31059355760554" lon="13.034076957010772"><ele>668.0</ele><time>2026-05-02T13:25:37Z</time></trkpt><trkpt lat="42.31083230167551" lon="13.033891532089394"><ele>668.0</ele><time>2026-05-02T13:25:38Z</time></trkpt><trkpt lat="42.31107216580067" lon="13.03370496817687"><ele>668.0</ele><time>2026-05-02T13:25:39Z</time></trkpt><trkpt lat="42.31130067155093" lon="13.033524648144022"><ele>665.5</ele><time>2026-05-02T13:25:40Z</time></trkpt><trkpt lat="42.31153825181234" lon="13.033363599105042"><ele>663.0</ele><time>2026-05-02T13:25:41Z</time></trkpt><trkpt lat="42.31177652724682" lon="13.033193626107202"><ele>659.5</ele><time>2026-05-02T13:25:42Z</time></trkpt><trkpt lat="42.31201880643385" lon="13.03303415966617"><ele>656.0</ele><time>2026-05-02T13:25:43Z</time></trkpt><trkpt lat="42.31226333302668" lon="13.032877914556458"><ele>655.0</ele><time>2026-05-02T13:25:44Z</time></trkpt><trkpt lat="42.312510639999786" lon="13.032727762720347"><ele>654.0</ele><time>2026-05-02T13:25:45Z</time></trkpt><trkpt lat="42.31277005952864" lon="13.032590300154322"><ele>659.0</ele><time>2026-05-02T13:25:46Z</time></trkpt><trkpt lat="42.313015114344644" lon="13.032430805503244"><ele>664.0</ele><time>2026-05-02T13:25:47Z</time></trkpt><trkpt lat="42.313266265573446" lon="13.032282210081384"><ele>664.0</ele><time>2026-05-02T13:25:48Z</time></trkpt><trkpt lat="42.31352029467334" lon="13.03213055208803"><ele>664.0</ele><time>2026-05-02T13:25:49Z</time></trkpt><trkpt lat="42.31377161932678" lon="13.031987036666417"><ele>655.0</ele><time>2026-05-02T13:25:50Z</time></trkpt><trkpt lat="42.3140234713882" lon="13.031840165530646"><ele>646.0</ele><time>2026-05-02T13:25:51Z</time></trkpt><trkpt lat="42.31427696584723" lon="13.031695668955907"><ele>646.5</ele><time>2026-05-02T13:25:52Z</time></trkpt><trkpt lat="42.31452432560728" lon="13.031552530967092"><ele>647.0</ele><time>2026-05-02T13:25:53Z</time></trkpt><trkpt lat="42.31476676661482" lon="13.031376697127357"><ele>641.5</ele><time>2026-05-02T13:25:54Z</time></trkpt><trkpt lat="42.31500023038575" lon="13.031186369604562"><ele>636.0</ele><time>2026-05-02T13:25:55Z</time></trkpt><trkpt lat="42.31522074236303" lon="13.030982109205782"><ele>632.5</ele><time>2026-05-02T13:25:56Z</time></trkpt><trkpt lat="42.31544318429804" lon="13.030768188182217"><ele>629.0</ele><time>2026-05-02T13:25:57Z</time></trkpt><trkpt lat="42.31565600603581" lon="13.030541116675295"><ele>629.0</ele><time>2026-05-02T13:25:58Z</time></trkpt><trkpt lat="42.31586218502278" lon="13.030302580255887"><ele>629.0</ele><time>2026-05-02T13:25:59Z</time></trkpt><trkpt lat="42.316055469033124" lon="13.030048045214492"><ele>631.0</ele><time>2026-05-02T13:26:00Z</time></trkpt><trkpt lat="42.316240597472664" lon="13.029785296743478"><ele>633.0</ele><time>2026-05-02T13:26:01Z</time></trkpt><trkpt lat="42.31641577871891" lon="13.029507745362643"><ele>633.0</ele><time>2026-05-02T13:26:02Z</time></trkpt><trkpt lat="42.316584884724975" lon="13.029222723283654"><ele>633.0</ele><time>2026-05-02T13:26:03Z</time></trkpt><trkpt lat="42.316741217265516" lon="13.028923471871924"><ele>623.0</ele><time>2026-05-02T13:26:04Z</time></trkpt><trkpt lat="42.31687914435114" lon="13.028604919640719"><ele>613.0</ele><time>2026-05-02T13:26:05Z</time></trkpt><trkpt lat="42.31700880366331" lon="13.028279474230112"><ele>613.0</ele><time>2026-05-02T13:26:06Z</time></trkpt><trkpt lat="42.317127488862965" lon="13.027946034291672"><ele>613.0</ele><time>2026-05-02T13:26:07Z</time></trkpt><trkpt lat="42.3172371038362" lon="13.027603369048725"><ele>609.5</ele><time>2026-05-02T13:26:08Z</time></trkpt><trkpt lat="42.317347265559576" lon="13.027265696194172"><ele>606.0</ele><time>2026-05-02T13:26:09Z</time></trkpt><trkpt lat="42.31746072268172" lon="13.026930748724777"><ele>608.0</ele><time>2026-05-02T13:26:10Z</time></trkpt><trkpt lat="42.317574823994086" lon="13.026594343788675"><ele>610.0</ele><time>2026-05-02T13:26:11Z</time></trkpt><trkpt lat="42.31768806586097" lon="13.026260937339284"><ele>610.0</ele><time>2026-05-02T13:26:12Z</time></trkpt><trkpt lat="42.317812136765156" lon="13.025932731668354"><ele>610.0</ele><time>2026-05-02T13:26:13Z</time></trkpt><trkpt lat="42.317948712761726" lon="13.02561445368751"><ele>613.0</ele><time>2026-05-02T13:26:14Z</time></trkpt><trkpt lat="42.31810335717383" lon="13.025310098788282"><ele>616.0</ele><time>2026-05-02T13:26:15Z</time></trkpt><trkpt lat="42.31827110336524" lon="13.02502064020499"><ele>613.5</ele><time>2026-05-02T13:26:16Z</time></trkpt><trkpt lat="42.318455224041365" lon="13.024747995344486"><ele>611.0</ele><time>2026-05-02T13:26:17Z</time></trkpt><trkpt lat="42.31865278729396" lon="13.02449595844058"><ele>611.0</ele><time>2026-05-02T13:26:18Z</time></trkpt><trkpt lat="42.318868635617896" lon="13.024261893713716"><ele>611.0</ele><time>2026-05-02T13:26:19Z</time></trkpt><trkpt lat="42.319100158915404" lon="13.02405500356625"><ele>613.0</ele><time>2026-05-02T13:26:20Z</time></trkpt><trkpt lat="42.31934151620429" lon="13.023872119471065"><ele>615.0</ele><time>2026-05-02T13:26:21Z</time></trkpt><trkpt lat="42.31959654184559" lon="13.023712339127613"><ele>610.0</ele><time>2026-05-02T13:26:22Z</time></trkpt><trkpt lat="42.31985619732587" lon="13.023578726191838"><ele>605.0</ele><time>2026-05-02T13:26:23Z</time></trkpt><trkpt lat="42.32012224119671" lon="13.023463775219208"><ele>605.0</ele><time>2026-05-02T13:26:24Z</time></trkpt><trkpt lat="42.32038742318111" lon="13.023350150484085"><ele>605.0</ele><time>2026-05-02T13:26:25Z</time></trkpt><trkpt lat="42.32065328910947" lon="13.02322683068268"><ele>603.0</ele><time>2026-05-02T13:26:26Z</time></trkpt><trkpt lat="42.320914067459114" lon="13.02309550910416"><ele>601.0</ele><time>2026-05-02T13:26:27Z</time></trkpt><trkpt lat="42.321172312821986" lon="13.022946979154803"><ele>595.5</ele><time>2026-05-02T13:26:28Z</time></trkpt><trkpt lat="42.32143952010208" lon="13.022795670782893"><ele>590.0</ele><time>2026-05-02T13:26:29Z</time></trkpt><trkpt lat="42.32168051720092" lon="13.022617827747382"><ele>597.0</ele><time>2026-05-02T13:26:30Z</time></trkpt><trkpt lat="42.321909274798244" lon="13.022406327560923"><ele>604.0</ele><time>2026-05-02T13:26:31Z</time></trkpt><trkpt lat="42.3221326796146" lon="13.022185458784998"><ele>595.0</ele><time>2026-05-02T13:26:32Z</time></trkpt><trkpt lat="42.32235313802649" lon="13.021963305446915"><ele>586.0</ele><time>2026-05-02T13:26:33Z</time></trkpt><trkpt lat="42.322571427787494" lon="13.02174019394557"><ele>595.5</ele><time>2026-05-02T13:26:34Z</time></trkpt><trkpt lat="42.32278755194348" lon="13.02151098400292"><ele>605.0</ele><time>2026-05-02T13:26:35Z</time></trkpt><trkpt lat="42.3230031512472" lon="13.021286179658173"><ele>587.0</ele><time>2026-05-02T13:26:36Z</time></trkpt><trkpt lat="42.32321585653398" lon="13.021062915215909"><ele>569.0</ele><time>2026-05-02T13:26:37Z</time></trkpt><trkpt lat="42.32342719535349" lon="13.020847552986675"><ele>583.5</ele><time>2026-05-02T13:26:38Z</time></trkpt><trkpt lat="42.323641328856624" lon="13.020632054894932"><ele>598.0</ele><time>2026-05-02T13:26:39Z</time></trkpt><trkpt lat="42.32386134623308" lon="13.020426446063746"><ele>587.5</ele><time>2026-05-02T13:26:40Z</time></trkpt><trkpt lat="42.3240827614753" lon="13.020226445590948"><ele>577.0</ele><time>2026-05-02T13:26:41Z</time></trkpt><trkpt lat="42.32430745689376" lon="13.020037209710058"><ele>572.5</ele><time>2026-05-02T13:26:42Z</time></trkpt><trkpt lat="42.3245364999274" lon="13.01985654014526"><ele>568.0</ele><time>2026-05-02T13:26:43Z</time></trkpt><trkpt lat="42.324771575744016" lon="13.019685110825073"><ele>568.0</ele><time>2026-05-02T13:26:44Z</time></trkpt><trkpt lat="42.32501096307085" lon="13.019522071471409"><ele>568.0</ele><time>2026-05-02T13:26:45Z</time></trkpt><trkpt lat="42.32525186111471" lon="13.019371286101103"><ele>568.0</ele><time>2026-05-02T13:26:46Z</time></trkpt><trkpt lat="42.32549454502097" lon="13.01922477191467"><ele>568.0</ele><time>2026-05-02T13:26:47Z</time></trkpt><trkpt lat="42.325739088105934" lon="13.01908229453617"><ele>575.5</ele><time>2026-05-02T13:26:48Z</time></trkpt><trkpt lat="42.32598628835979" lon="13.018946381163794"><ele>583.0</ele><time>2026-05-02T13:26:49Z</time></trkpt><trkpt lat="42.32623539301504" lon="13.018815045795995"><ele>573.5</ele><time>2026-05-02T13:26:50Z</time></trkpt><trkpt lat="42.32648600964438" lon="13.018677742692915"><ele>564.0</ele><time>2026-05-02T13:26:51Z</time></trkpt><trkpt lat="42.32673627162544" lon="13.01853174971329"><ele>564.0</ele><time>2026-05-02T13:26:52Z</time></trkpt><trkpt lat="42.32698386093093" lon="13.018382555162322"><ele>564.0</ele><time>2026-05-02T13:26:53Z</time></trkpt><trkpt lat="42.32722736854611" lon="13.018224284870525"><ele>562.0</ele><time>2026-05-02T13:26:54Z</time></trkpt><trkpt lat="42.32746296199293" lon="13.0180487491999"><ele>560.0</ele><time>2026-05-02T13:26:55Z</time></trkpt><trkpt lat="42.32768817354571" lon="13.017856859476302"><ele>560.0</ele><time>2026-05-02T13:26:56Z</time></trkpt><trkpt lat="42.327904663882215" lon="13.01764637261409"><ele>560.0</ele><time>2026-05-02T13:26:57Z</time></trkpt><trkpt lat="42.328111929880585" lon="13.017422885833842"><ele>560.5</ele><time>2026-05-02T13:26:58Z</time></trkpt><trkpt lat="42.328309736825474" lon="13.017182839383798"><ele>561.0</ele><time>2026-05-02T13:26:59Z</time></trkpt><trkpt lat="42.32850080057003" lon="13.016931641125836"><ele>561.0</ele><time>2026-05-02T13:27:00Z</time></trkpt><trkpt lat="42.32868949200178" lon="13.016677834000637"><ele>561.0</ele><time>2026-05-02T13:27:01Z</time></trkpt><trkpt lat="42.32887209091939" lon="13.016413850074812"><ele>554.0</ele><time>2026-05-02T13:27:02Z</time></trkpt><trkpt lat="42.32904950183068" lon="13.016127258259562"><ele>547.0</ele><time>2026-05-02T13:27:03Z</time></trkpt><trkpt lat="42.32922588362047" lon="13.015847481186766"><ele>552.0</ele><time>2026-05-02T13:27:04Z</time></trkpt><trkpt lat="42.32940090126495" lon="13.015559266807585"><ele>557.0</ele><time>2026-05-02T13:27:05Z</time></trkpt><trkpt lat="42.32957828610357" lon="13.015264894249968"><ele>533.0</ele><time>2026-05-02T13:27:06Z</time></trkpt><trkpt lat="42.329749926789084" lon="13.014961635346287"><ele>509.0</ele><time>2026-05-02T13:27:07Z</time></trkpt><trkpt lat="42.32993304326246" lon="13.014669469541253"><ele>509.0</ele><time>2026-05-02T13:27:08Z</time></trkpt><trkpt lat="42.33012623435244" lon="13.014390975015301"><ele>509.0</ele><time>2026-05-02T13:27:09Z</time></trkpt><trkpt lat="42.33031856290972" lon="13.014103228118133"><ele>509.0</ele><time>2026-05-02T13:27:10Z</time></trkpt><trkpt lat="42.330515059156205" lon="13.013816690608373"><ele>509.0</ele><time>2026-05-02T13:27:11Z</time></trkpt><trkpt lat="42.330707252460236" lon="13.013529354197216"><ele>503.5</ele><time>2026-05-02T13:27:12Z</time></trkpt><trkpt lat="42.330894064195064" lon="13.013234888238632"><ele>498.0</ele><time>2026-05-02T13:27:13Z</time></trkpt><trkpt lat="42.33107960610871" lon="13.012939438028997"><ele>498.0</ele><time>2026-05-02T13:27:14Z</time></trkpt><trkpt lat="42.33126658158456" lon="13.012648352867304"><ele>498.0</ele><time>2026-05-02T13:27:15Z</time></trkpt><trkpt lat="42.33144865265555" lon="13.012355494445886"><ele>507.0</ele><time>2026-05-02T13:27:16Z</time></trkpt><trkpt lat="42.33162633068657" lon="13.0120572981351"><ele>516.0</ele><time>2026-05-02T13:27:17Z</time></trkpt><trkpt lat="42.331795787052215" lon="13.011753157514134"><ele>509.0</ele><time>2026-05-02T13:27:18Z</time></trkpt><trkpt lat="42.331956487272386" lon="13.011444211474878"><ele>502.0</ele><time>2026-05-02T13:27:19Z</time></trkpt><trkpt lat="42.33211476697461" lon="13.01112994586577"><ele>507.5</ele><time>2026-05-02T13:27:20Z</time></trkpt><trkpt lat="42.33226364335604" lon="13.010802498734346"><ele>513.0</ele><time>2026-05-02T13:27:21Z</time></trkpt><trkpt lat="42.33241051929645" lon="13.010474853230077"><ele>513.0</ele><time>2026-05-02T13:27:22Z</time></trkpt><trkpt lat="42.33255213021352" lon="13.010142636098038"><ele>513.0</ele><time>2026-05-02T13:27:23Z</time></trkpt><trkpt lat="42.332691358809086" lon="13.009809486243832"><ele>505.5</ele><time>2026-05-02T13:27:24Z</time></trkpt><trkpt lat="42.332826106558855" lon="13.009473976989145"><ele>498.0</ele><time>2026-05-02T13:27:25Z</time></trkpt><trkpt lat="42.332961172717525" lon="13.009135767872843"><ele>507.5</ele><time>2026-05-02T13:27:26Z</time></trkpt><trkpt lat="42.333097376537424" lon="13.0087999441279"><ele>517.0</ele><time>2026-05-02T13:27:27Z</time></trkpt><trkpt lat="42.33324365565293" lon="13.008466000645978"><ele>508.5</ele><time>2026-05-02T13:27:28Z</time></trkpt><trkpt lat="42.333370450062304" lon="13.008122165691447"><ele>500.0</ele><time>2026-05-02T13:27:29Z</time></trkpt><trkpt lat="42.333503625537126" lon="13.007783770605057"><ele>492.5</ele><time>2026-05-02T13:27:30Z</time></trkpt><trkpt lat="42.333638698144185" lon="13.007443843765378"><ele>485.0</ele><time>2026-05-02T13:27:31Z</time></trkpt><trkpt lat="42.33376173688284" lon="13.007101405753817"><ele>493.0</ele><time>2026-05-02T13:27:32Z</time></trkpt><trkpt lat="42.33389684168302" lon="13.00677121896677"><ele>501.0</ele><time>2026-05-02T13:27:33Z</time></trkpt><trkpt lat="42.33402335334218" lon="13.006439072443227"><ele>501.0</ele><time>2026-05-02T13:27:34Z</time></trkpt><trkpt lat="42.33415580006868" lon="13.006112088460565"><ele>501.0</ele><time>2026-05-02T13:27:35Z</time></trkpt><trkpt lat="42.33428565872156" lon="13.00578349459933"><ele>491.5</ele><time>2026-05-02T13:27:36Z</time></trkpt><trkpt lat="42.33441145205737" lon="13.005456207495754"><ele>482.0</ele><time>2026-05-02T13:27:37Z</time></trkpt><trkpt lat="42.334539540994186" lon="13.00512579853133"><ele>477.5</ele><time>2026-05-02T13:27:38Z</time></trkpt><trkpt lat="42.33466952371146" lon="13.004803912787501"><ele>473.0</ele><time>2026-05-02T13:27:39Z</time></trkpt><trkpt lat="42.33480965738372" lon="13.004478212494483"><ele>470.0</ele><time>2026-05-02T13:27:40Z</time></trkpt><trkpt lat="42.334936324963756" lon="13.004157588885922"><ele>467.0</ele><time>2026-05-02T13:27:41Z</time></trkpt><trkpt lat="42.335056582327155" lon="13.003828604020134"><ele>467.0</ele><time>2026-05-02T13:27:42Z</time></trkpt><trkpt lat="42.33517558618051" lon="13.003501178029294"><ele>467.0</ele><time>2026-05-02T13:27:43Z</time></trkpt><trkpt lat="42.33528703401535" lon="13.003165025563632"><ele>467.5</ele><time>2026-05-02T13:27:44Z</time></trkpt><trkpt lat="42.33539277938715" lon="13.002830978163"><ele>468.0</ele><time>2026-05-02T13:27:45Z</time></trkpt><trkpt lat="42.33547853121554" lon="13.00248317546629"><ele>485.5</ele><time>2026-05-02T13:27:46Z</time></trkpt><trkpt lat="42.335558961811536" lon="13.00212730431547"><ele>503.0</ele><time>2026-05-02T13:27:47Z</time></trkpt><trkpt lat="42.33562247841751" lon="13.001771400439168"><ele>503.0</ele><time>2026-05-02T13:27:48Z</time></trkpt><trkpt lat="42.33566822755111" lon="13.001412423545464"><ele>503.0</ele><time>2026-05-02T13:27:49Z</time></trkpt><trkpt lat="42.335702298115365" lon="13.001049313597484"><ele>501.0</ele><time>2026-05-02T13:27:50Z</time></trkpt><trkpt lat="42.33572662610309" lon="13.00068390053975"><ele>499.0</ele><time>2026-05-02T13:27:51Z</time></trkpt><trkpt lat="42.335734399047425" lon="13.000313238883836"><ele>499.0</ele><time>2026-05-02T13:27:52Z</time></trkpt><trkpt lat="42.33572583405336" lon="12.999951386329155"><ele>499.0</ele><time>2026-05-02T13:27:53Z</time></trkpt><trkpt lat="42.33570610704032" lon="12.99958631547546"><ele>499.0</ele><time>2026-05-02T13:27:54Z</time></trkpt><trkpt lat="42.33566563349729" lon="12.999224583343485"><ele>499.0</ele><time>2026-05-02T13:27:55Z</time></trkpt><trkpt lat="42.33561008557766" lon="12.998869771684998"><ele>480.0</ele><time>2026-05-02T13:27:56Z</time></trkpt><trkpt lat="42.335545462875494" lon="12.998526265951398"><ele>461.0</ele><time>2026-05-02T13:27:57Z</time></trkpt><trkpt lat="42.335465070237824" lon="12.998190470460955"><ele>457.5</ele><time>2026-05-02T13:27:58Z</time></trkpt><trkpt lat="42.33536932283313" lon="12.997856963503374"><ele>454.0</ele><time>2026-05-02T13:27:59Z</time></trkpt><trkpt lat="42.335262251453585" lon="12.997530838596372"><ele>457.0</ele><time>2026-05-02T13:28:00Z</time></trkpt><trkpt lat="42.33514179987066" lon="12.997208943743662"><ele>460.0</ele><time>2026-05-02T13:28:01Z</time></trkpt><trkpt lat="42.335010485048265" lon="12.996896322741305"><ele>455.0</ele><time>2026-05-02T13:28:02Z</time></trkpt><trkpt lat="42.33486588264096" lon="12.996595161802098"><ele>450.0</ele><time>2026-05-02T13:28:03Z</time></trkpt><trkpt lat="42.334707459861974" lon="12.996302760934363"><ele>450.0</ele><time>2026-05-02T13:28:04Z</time></trkpt><trkpt lat="42.33454164957005" lon="12.996021621293497"><ele>450.0</ele><time>2026-05-02T13:28:05Z</time></trkpt><trkpt lat="42.33437072965089" lon="12.995747260198979"><ele>460.0</ele><time>2026-05-02T13:28:06Z</time></trkpt><trkpt lat="42.33419142569141" lon="12.995483078905844"><ele>470.0</ele><time>2026-05-02T13:28:07Z</time></trkpt><trkpt lat="42.33400580439569" lon="12.995221914874582"><ele>463.0</ele><time>2026-05-02T13:28:08Z</time></trkpt><trkpt lat="42.33382697824401" lon="12.99494346995024"><ele>456.0</ele><time>2026-05-02T13:28:09Z</time></trkpt><trkpt lat="42.33364701965762" lon="12.994664691728913"><ele>456.0</ele><time>2026-05-02T13:28:10Z</time></trkpt><trkpt lat="42.33346667756136" lon="12.994394492749251"><ele>456.0</ele><time>2026-05-02T13:28:11Z</time></trkpt><trkpt lat="42.33328679529432" lon="12.994129227799089"><ele>452.0</ele><time>2026-05-02T13:28:12Z</time></trkpt><trkpt lat="42.33310353334235" lon="12.993866389833961"><ele>448.0</ele><time>2026-05-02T13:28:13Z</time></trkpt><trkpt lat="42.33292258622948" lon="12.993601823219567"><ele>456.5</ele><time>2026-05-02T13:28:14Z</time></trkpt><trkpt lat="42.332743974852924" lon="12.993338173429896"><ele>465.0</ele><time>2026-05-02T13:28:15Z</time></trkpt><trkpt lat="42.33256720007684" lon="12.993069415821523"><ele>465.0</ele><time>2026-05-02T13:28:16Z</time></trkpt><trkpt lat="42.33239572815221" lon="12.99279369038886"><ele>465.0</ele><time>2026-05-02T13:28:17Z</time></trkpt><trkpt lat="42.33223762194952" lon="12.992509924775186"><ele>459.0</ele><time>2026-05-02T13:28:18Z</time></trkpt><trkpt lat="42.33209545336488" lon="12.992211251669891"><ele>453.0</ele><time>2026-05-02T13:28:19Z</time></trkpt><trkpt lat="42.33196746457319" lon="12.991893066605515"><ele>457.0</ele><time>2026-05-02T13:28:20Z</time></trkpt><trkpt lat="42.33185596069318" lon="12.991567465314914"><ele>461.0</ele><time>2026-05-02T13:28:21Z</time></trkpt><trkpt lat="42.33175924361957" lon="12.991235615881845"><ele>461.0</ele><time>2026-05-02T13:28:22Z</time></trkpt><trkpt lat="42.33168353570408" lon="12.99089391943533"><ele>461.0</ele><time>2026-05-02T13:28:23Z</time></trkpt><trkpt lat="42.33162856870255" lon="12.990541482237456"><ele>466.5</ele><time>2026-05-02T13:28:24Z</time></trkpt><trkpt lat="42.331595266653004" lon="12.990178125752042"><ele>472.0</ele><time>2026-05-02T13:28:25Z</time></trkpt><trkpt lat="42.33157341310012" lon="12.98981485125209"><ele>473.0</ele><time>2026-05-02T13:28:26Z</time></trkpt><trkpt lat="42.33157340520407" lon="12.989449470506042"><ele>474.0</ele><time>2026-05-02T13:28:27Z</time></trkpt><trkpt lat="42.33159859491079" lon="12.98908556780146"><ele>472.0</ele><time>2026-05-02T13:28:28Z</time></trkpt><trkpt lat="42.33164361480536" lon="12.988725099689217"><ele>470.0</ele><time>2026-05-02T13:28:29Z</time></trkpt><trkpt lat="42.33168714636812" lon="12.988357213768438"><ele>465.0</ele><time>2026-05-02T13:28:30Z</time></trkpt><trkpt lat="42.331729725496295" lon="12.987990074577572"><ele>460.0</ele><time>2026-05-02T13:28:31Z</time></trkpt><trkpt lat="42.33176960892675" lon="12.987619717894429"><ele>455.0</ele><time>2026-05-02T13:28:32Z</time></trkpt><trkpt lat="42.33180748729867" lon="12.987250847099984"><ele>450.0</ele><time>2026-05-02T13:28:33Z</time></trkpt><trkpt lat="42.33184023475367" lon="12.98688401494468"><ele>446.5</ele><time>2026-05-02T13:28:34Z</time></trkpt><trkpt lat="42.3318599883136" lon="12.986512049669019"><ele>443.0</ele><time>2026-05-02T13:28:35Z</time></trkpt><trkpt lat="42.33186404454955" lon="12.986142431252222"><ele>442.5</ele><time>2026-05-02T13:28:36Z</time></trkpt><trkpt lat="42.331848755537756" lon="12.985770526673916"><ele>442.0</ele><time>2026-05-02T13:28:37Z</time></trkpt><trkpt lat="42.33182886408546" lon="12.985401767820024"><ele>442.0</ele><time>2026-05-02T13:28:38Z</time></trkpt><trkpt lat="42.331811162388895" lon="12.985034148957833"><ele>442.0</ele><time>2026-05-02T13:28:39Z</time></trkpt><trkpt lat="42.331794969045404" lon="12.98466633697925"><ele>439.5</ele><time>2026-05-02T13:28:40Z</time></trkpt><trkpt lat="42.33177982201109" lon="12.984295903974733"><ele>437.0</ele><time>2026-05-02T13:28:41Z</time></trkpt><trkpt lat="42.331772033579455" lon="12.983923323107454"><ele>436.0</ele><time>2026-05-02T13:28:42Z</time></trkpt><trkpt lat="42.331775275261585" lon="12.983547525607253"><ele>435.0</ele><time>2026-05-02T13:28:43Z</time></trkpt><trkpt lat="42.3317903971233" lon="12.983176322157373"><ele>435.0</ele><time>2026-05-02T13:28:44Z</time></trkpt><trkpt lat="42.33181932580392" lon="12.982804825118551"><ele>435.0</ele><time>2026-05-02T13:28:45Z</time></trkpt><trkpt lat="42.331862609346445" lon="12.982436305123576"><ele>433.5</ele><time>2026-05-02T13:28:46Z</time></trkpt><trkpt lat="42.33192101470354" lon="12.982076220128146"><ele>432.0</ele><time>2026-05-02T13:28:47Z</time></trkpt><trkpt lat="42.331993750816004" lon="12.981723612190113"><ele>429.5</ele><time>2026-05-02T13:28:48Z</time></trkpt><trkpt lat="42.332077530836706" lon="12.981374696023813"><ele>427.0</ele><time>2026-05-02T13:28:49Z</time></trkpt><trkpt lat="42.33218125310474" lon="12.981038637503985"><ele>428.5</ele><time>2026-05-02T13:28:50Z</time></trkpt><trkpt lat="42.33229754330387" lon="12.980716027782144"><ele>430.0</ele><time>2026-05-02T13:28:51Z</time></trkpt><trkpt lat="42.33242848543402" lon="12.980404402790809"><ele>430.0</ele><time>2026-05-02T13:28:52Z</time></trkpt><trkpt lat="42.3325683959235" lon="12.980099494340761"><ele>430.0</ele><time>2026-05-02T13:28:53Z</time></trkpt><trkpt lat="42.33271309546689" lon="12.979803863272933"><ele>428.0</ele><time>2026-05-02T13:28:54Z</time></trkpt><trkpt lat="42.332860482386955" lon="12.979513109722102"><ele>426.0</ele><time>2026-05-02T13:28:55Z</time></trkpt><trkpt lat="42.33300740033398" lon="12.979227112770905"><ele>425.5</ele><time>2026-05-02T13:28:56Z</time></trkpt><trkpt lat="42.33315291602227" lon="12.97894276937757"><ele>425.0</ele><time>2026-05-02T13:28:57Z</time></trkpt><trkpt lat="42.33329664786946" lon="12.978659036999668"><ele>425.0</ele><time>2026-05-02T13:28:58Z</time></trkpt><trkpt lat="42.333443883148675" lon="12.978381758913516"><ele>425.0</ele><time>2026-05-02T13:28:59Z</time></trkpt><trkpt lat="42.33359027655252" lon="12.978106664862079"><ele>424.5</ele><time>2026-05-02T13:29:00Z</time></trkpt><trkpt lat="42.333735410900005" lon="12.977834906800016"><ele>424.0</ele><time>2026-05-02T13:29:01Z</time></trkpt><trkpt lat="42.333877998489356" lon="12.977565218091184"><ele>422.0</ele><time>2026-05-02T13:29:02Z</time></trkpt><trkpt lat="42.3340181972918" lon="12.977300023994154"><ele>420.0</ele><time>2026-05-02T13:29:03Z</time></trkpt><trkpt lat="42.33415959099845" lon="12.977038204402898"><ele>420.0</ele><time>2026-05-02T13:29:04Z</time></trkpt><trkpt lat="42.33430115724544" lon="12.976779494275743"><ele>420.0</ele><time>2026-05-02T13:29:05Z</time></trkpt><trkpt lat="42.334439435431264" lon="12.976518343216767"><ele>419.5</ele><time>2026-05-02T13:29:06Z</time></trkpt><trkpt lat="42.33457881855567" lon="12.97625445595009"><ele>419.0</ele><time>2026-05-02T13:29:07Z</time></trkpt><trkpt lat="42.33471654412222" lon="12.975991188226244"><ele>420.0</ele><time>2026-05-02T13:29:08Z</time></trkpt><trkpt lat="42.33485430555282" lon="12.975728789989178"><ele>421.0</ele><time>2026-05-02T13:29:09Z</time></trkpt><trkpt lat="42.334994659999005" lon="12.975464547274083"><ele>421.0</ele><time>2026-05-02T13:29:10Z</time></trkpt><trkpt lat="42.33513321980435" lon="12.975193644961896"><ele>421.0</ele><time>2026-05-02T13:29:11Z</time></trkpt><trkpt lat="42.33527889492406" lon="12.974931432300071"><ele>420.0</ele><time>2026-05-02T13:29:12Z</time></trkpt><trkpt lat="42.335434474475704" lon="12.97468194259419"><ele>419.0</ele><time>2026-05-02T13:29:13Z</time></trkpt><trkpt lat="42.33560110204202" lon="12.974449687379026"><ele>420.5</ele><time>2026-05-02T13:29:14Z</time></trkpt><trkpt lat="42.33578120790339" lon="12.97422386191691"><ele>422.0</ele><time>2026-05-02T13:29:15Z</time></trkpt><trkpt lat="42.335973143130836" lon="12.974020973910209"><ele>422.0</ele><time>2026-05-02T13:29:16Z</time></trkpt><trkpt lat="42.33617446321979" lon="12.973829145423265"><ele>422.0</ele><time>2026-05-02T13:29:17Z</time></trkpt><trkpt lat="42.33638864301218" lon="12.973667159510795"><ele>421.5</ele><time>2026-05-02T13:29:18Z</time></trkpt><trkpt lat="42.33661057064554" lon="12.973523055750233"><ele>421.0</ele><time>2026-05-02T13:29:19Z</time></trkpt><trkpt lat="42.33683699692962" lon="12.973388868043743"><ele>421.5</ele><time>2026-05-02T13:29:20Z</time></trkpt><trkpt lat="42.33706680297666" lon="12.973260595132952"><ele>422.0</ele><time>2026-05-02T13:29:21Z</time></trkpt><trkpt lat="42.33729611396382" lon="12.973131874820492"><ele>422.0</ele><time>2026-05-02T13:29:22Z</time></trkpt><trkpt lat="42.33752503858333" lon="12.97299978794296"><ele>422.0</ele><time>2026-05-02T13:29:23Z</time></trkpt><trkpt lat="42.337753298110705" lon="12.972868860954517"><ele>422.0</ele><time>2026-05-02T13:29:24Z</time></trkpt><trkpt lat="42.3379813376337" lon="12.972743985669025"><ele>422.0</ele><time>2026-05-02T13:29:25Z</time></trkpt><trkpt lat="42.3382092399973" lon="12.972618493294805"><ele>420.5</ele><time>2026-05-02T13:29:26Z</time></trkpt><trkpt lat="42.338436394510744" lon="12.97248591303993"><ele>419.0</ele><time>2026-05-02T13:29:27Z</time></trkpt><trkpt lat="42.338663437433745" lon="12.97235622656596"><ele>423.5</ele><time>2026-05-02T13:29:28Z</time></trkpt><trkpt lat="42.33889083072177" lon="12.972229998107705"><ele>428.0</ele><time>2026-05-02T13:29:29Z</time></trkpt><trkpt lat="42.33911798092919" lon="12.972104529297575"><ele>428.0</ele><time>2026-05-02T13:29:30Z</time></trkpt><trkpt lat="42.33934628260697" lon="12.971978279662244"><ele>428.0</ele><time>2026-05-02T13:29:31Z</time></trkpt><trkpt lat="42.33957368208269" lon="12.971849777405419"><ele>425.0</ele><time>2026-05-02T13:29:32Z</time></trkpt><trkpt lat="42.33980117456932" lon="12.971720867516682"><ele>422.0</ele><time>2026-05-02T13:29:33Z</time></trkpt><trkpt lat="42.340026165230185" lon="12.971594988939765"><ele>422.0</ele><time>2026-05-02T13:29:34Z</time></trkpt><trkpt lat="42.34025098232622" lon="12.971473592241232"><ele>422.0</ele><time>2026-05-02T13:29:35Z</time></trkpt><trkpt lat="42.34047795945415" lon="12.971351291018106"><ele>428.0</ele><time>2026-05-02T13:29:36Z</time></trkpt><trkpt lat="42.340703805227314" lon="12.971227206711788"><ele>434.0</ele><time>2026-05-02T13:29:37Z</time></trkpt><trkpt lat="42.34092745842184" lon="12.971099990528188"><ele>434.0</ele><time>2026-05-02T13:29:38Z</time></trkpt><trkpt lat="42.341152146672115" lon="12.970975569071156"><ele>434.0</ele><time>2026-05-02T13:29:39Z</time></trkpt><trkpt lat="42.341375427291396" lon="12.97084836760203"><ele>428.5</ele><time>2026-05-02T13:29:40Z</time></trkpt><trkpt lat="42.34159669064815" lon="12.970716121452627"><ele>423.0</ele><time>2026-05-02T13:29:41Z</time></trkpt><trkpt lat="42.341818942084174" lon="12.970587527781356"><ele>423.0</ele><time>2026-05-02T13:29:42Z</time></trkpt><trkpt lat="42.34203538439143" lon="12.970451993599331"><ele>423.0</ele><time>2026-05-02T13:29:43Z</time></trkpt><trkpt lat="42.342246406847345" lon="12.970293912540416"><ele>421.0</ele><time>2026-05-02T13:29:44Z</time></trkpt><trkpt lat="42.342451144105596" lon="12.970121293474458"><ele>419.0</ele><time>2026-05-02T13:29:45Z</time></trkpt><trkpt lat="42.34266351296179" lon="12.969967652255422"><ele>419.0</ele><time>2026-05-02T13:29:46Z</time></trkpt><trkpt lat="42.34286455722631" lon="12.969803039592747"><ele>419.0</ele><time>2026-05-02T13:29:47Z</time></trkpt><trkpt lat="42.343000943681815" lon="12.969502566196095"><ele>419.5</ele><time>2026-05-02T13:29:48Z</time></trkpt><trkpt lat="42.34316654750057" lon="12.969274583789744"><ele>420.0</ele><time>2026-05-02T13:29:49Z</time></trkpt><trkpt lat="42.343326582525016" lon="12.969038913603377"><ele>420.0</ele><time>2026-05-02T13:29:50Z</time></trkpt><trkpt lat="42.34348165515428" lon="12.96880390167748"><ele>420.0</ele><time>2026-05-02T13:29:51Z</time></trkpt><trkpt lat="42.3436360445759" lon="12.968567790901924"><ele>419.0</ele><time>2026-05-02T13:29:52Z</time></trkpt><trkpt lat="42.34379294799817" lon="12.968335140431408"><ele>418.0</ele><time>2026-05-02T13:29:53Z</time></trkpt><trkpt lat="42.34395458950523" lon="12.968106943792796"><ele>425.0</ele><time>2026-05-02T13:29:54Z</time></trkpt><trkpt lat="42.34412431551586" lon="12.967894279922874"><ele>432.0</ele><time>2026-05-02T13:29:55Z</time></trkpt><trkpt lat="42.34430333987375" lon="12.967689835720128"><ele>424.5</ele><time>2026-05-02T13:29:56Z</time></trkpt><trkpt lat="42.34448987954037" lon="12.967496472565216"><ele>417.0</ele><time>2026-05-02T13:29:57Z</time></trkpt><trkpt lat="42.3446804508994" lon="12.967308361699159"><ele>424.0</ele><time>2026-05-02T13:29:58Z</time></trkpt><trkpt lat="42.3448709693226" lon="12.967120436467145"><ele>431.0</ele><time>2026-05-02T13:29:59Z</time></trkpt><trkpt lat="42.34506080522731" lon="12.966933108661962"><ele>431.0</ele><time>2026-05-02T13:30:00Z</time></trkpt><trkpt lat="42.3452442446288" lon="12.966752012855792"><ele>431.0</ele><time>2026-05-02T13:30:01Z</time></trkpt><trkpt lat="42.345426004529976" lon="12.966572096221574"><ele>427.0</ele><time>2026-05-02T13:30:02Z</time></trkpt><trkpt lat="42.34560336712575" lon="12.966394379901558"><ele>423.0</ele><time>2026-05-02T13:30:03Z</time></trkpt><trkpt lat="42.34577871647196" lon="12.966217132932654"><ele>419.0</ele><time>2026-05-02T13:30:04Z</time></trkpt><trkpt lat="42.345955554972306" lon="12.966041117173061"><ele>419.0</ele><time>2026-05-02T13:30:05Z</time></trkpt><trkpt lat="42.34613476702114" lon="12.965870881484467"><ele>419.0</ele><time>2026-05-02T13:30:06Z</time></trkpt><trkpt lat="42.3463143380285" lon="12.965697552518899"><ele>419.0</ele><time>2026-05-02T13:30:07Z</time></trkpt><trkpt lat="42.34649582204449" lon="12.965518745214547"><ele>416.5</ele><time>2026-05-02T13:30:08Z</time></trkpt><trkpt lat="42.34667813883945" lon="12.965338560416516"><ele>414.0</ele><time>2026-05-02T13:30:09Z</time></trkpt><trkpt lat="42.34686225161427" lon="12.96515621060992"><ele>413.5</ele><time>2026-05-02T13:30:10Z</time></trkpt><trkpt lat="42.347049520026694" lon="12.964959300307589"><ele>413.0</ele><time>2026-05-02T13:30:11Z</time></trkpt><trkpt lat="42.347241917441636" lon="12.964756720834396"><ele>413.0</ele><time>2026-05-02T13:30:12Z</time></trkpt><trkpt lat="42.347443452133184" lon="12.964556286080926"><ele>413.0</ele><time>2026-05-02T13:30:13Z</time></trkpt><trkpt lat="42.347651594048905" lon="12.964360273224742"><ele>412.5</ele><time>2026-05-02T13:30:14Z</time></trkpt><trkpt lat="42.34786206438596" lon="12.964165096639075"><ele>412.0</ele><time>2026-05-02T13:30:15Z</time></trkpt><trkpt lat="42.34807654244231" lon="12.963965380883632"><ele>412.0</ele><time>2026-05-02T13:30:16Z</time></trkpt><trkpt lat="42.34828771002523" lon="12.963763020190608"><ele>412.0</ele><time>2026-05-02T13:30:17Z</time></trkpt><trkpt lat="42.3485010171652" lon="12.96356086300604"><ele>412.0</ele><time>2026-05-02T13:30:18Z</time></trkpt><trkpt lat="42.34871234671408" lon="12.963350835485528"><ele>412.0</ele><time>2026-05-02T13:30:19Z</time></trkpt><trkpt lat="42.34892447350532" lon="12.963146106649365"><ele>412.0</ele><time>2026-05-02T13:30:20Z</time></trkpt><trkpt lat="42.3491337238803" lon="12.962940509452528"><ele>412.0</ele><time>2026-05-02T13:30:21Z</time></trkpt><trkpt lat="42.34934422284778" lon="12.962736202666244"><ele>412.0</ele><time>2026-05-02T13:30:22Z</time></trkpt><trkpt lat="42.349554370241" lon="12.96253414899065"><ele>412.0</ele><time>2026-05-02T13:30:23Z</time></trkpt><trkpt lat="42.349761650742785" lon="12.962331429917548"><ele>412.0</ele><time>2026-05-02T13:30:24Z</time></trkpt><trkpt lat="42.349961843027685" lon="12.962125458731034"><ele>412.0</ele><time>2026-05-02T13:30:25Z</time></trkpt><trkpt lat="42.35015615770178" lon="12.961913167310655"><ele>417.5</ele><time>2026-05-02T13:30:26Z</time></trkpt><trkpt lat="42.35033712525298" lon="12.961678522377"><ele>423.0</ele><time>2026-05-02T13:30:27Z</time></trkpt><trkpt lat="42.35051084859223" lon="12.961431224680782"><ele>417.5</ele><time>2026-05-02T13:30:28Z</time></trkpt><trkpt lat="42.35066822785435" lon="12.96116682464187"><ele>412.0</ele><time>2026-05-02T13:30:29Z</time></trkpt><trkpt lat="42.35081364860328" lon="12.96088721937398"><ele>417.5</ele><time>2026-05-02T13:30:30Z</time></trkpt><trkpt lat="42.35094106553796" lon="12.960593232204246"><ele>423.0</ele><time>2026-05-02T13:30:31Z</time></trkpt><trkpt lat="42.35105378086376" lon="12.960286573791386"><ele>432.5</ele><time>2026-05-02T13:30:32Z</time></trkpt><trkpt lat="42.35115210107315" lon="12.959969725122594"><ele>442.0</ele><time>2026-05-02T13:30:33Z</time></trkpt><trkpt lat="42.35124190338456" lon="12.959648250119821"><ele>442.0</ele><time>2026-05-02T13:30:34Z</time></trkpt><trkpt lat="42.35132845825724" lon="12.959324453359098"><ele>442.0</ele><time>2026-05-02T13:30:35Z</time></trkpt><trkpt lat="42.35141771801904" lon="12.958999020554606"><ele>433.0</ele><time>2026-05-02T13:30:36Z</time></trkpt><trkpt lat="42.35150528454481" lon="12.958672095278672"><ele>424.0</ele><time>2026-05-02T13:30:37Z</time></trkpt><trkpt lat="42.351591346041054" lon="12.95834600824509"><ele>424.0</ele><time>2026-05-02T13:30:38Z</time></trkpt><trkpt lat="42.35167503524247" lon="12.958017162558907"><ele>424.0</ele><time>2026-05-02T13:30:39Z</time></trkpt><trkpt lat="42.351761469245815" lon="12.957692523306047"><ele>433.0</ele><time>2026-05-02T13:30:40Z</time></trkpt><trkpt lat="42.35184495669621" lon="12.957365087386092"><ele>442.0</ele><time>2026-05-02T13:30:41Z</time></trkpt><trkpt lat="42.351926677581574" lon="12.957036844503795"><ele>442.0</ele><time>2026-05-02T13:30:42Z</time></trkpt><trkpt lat="42.35200628029672" lon="12.956709886227737"><ele>442.0</ele><time>2026-05-02T13:30:43Z</time></trkpt><trkpt lat="42.3520836910027" lon="12.956386514357751"><ele>450.0</ele><time>2026-05-02T13:30:44Z</time></trkpt><trkpt lat="42.35215780036806" lon="12.956061015853408"><ele>458.0</ele><time>2026-05-02T13:30:45Z</time></trkpt><trkpt lat="42.352228465399826" lon="12.955736382145583"><ele>436.0</ele><time>2026-05-02T13:30:46Z</time></trkpt><trkpt lat="42.352291753913114" lon="12.955403220360253"><ele>414.0</ele><time>2026-05-02T13:30:47Z</time></trkpt><trkpt lat="42.35234927926105" lon="12.95506987864348"><ele>414.5</ele><time>2026-05-02T13:30:48Z</time></trkpt><trkpt lat="42.352402046166375" lon="12.954735145204035"><ele>415.0</ele><time>2026-05-02T13:30:49Z</time></trkpt><trkpt lat="42.3524495390815" lon="12.95439566860304"><ele>416.5</ele><time>2026-05-02T13:30:50Z</time></trkpt><trkpt lat="42.35249312799133" lon="12.954054236825314"><ele>418.0</ele><time>2026-05-02T13:30:51Z</time></trkpt><trkpt lat="42.3525316218728" lon="12.953713701802943"><ele>419.0</ele><time>2026-05-02T13:30:52Z</time></trkpt><trkpt lat="42.352558632054304" lon="12.953368460932396"><ele>420.0</ele><time>2026-05-02T13:30:53Z</time></trkpt><trkpt lat="42.35258408668007" lon="12.953023179675718"><ele>420.0</ele><time>2026-05-02T13:30:54Z</time></trkpt><trkpt lat="42.35260591225188" lon="12.952676675356699"><ele>420.0</ele><time>2026-05-02T13:30:55Z</time></trkpt><trkpt lat="42.352624456375224" lon="12.95232844582501"><ele>423.0</ele><time>2026-05-02T13:30:56Z</time></trkpt><trkpt lat="42.35264330953088" lon="12.951981847927323"><ele>426.0</ele><time>2026-05-02T13:30:57Z</time></trkpt><trkpt lat="42.35266346666459" lon="12.951636994790963"><ele>428.0</ele><time>2026-05-02T13:30:58Z</time></trkpt><trkpt lat="42.35268008744077" lon="12.951287049099669"><ele>430.0</ele><time>2026-05-02T13:30:59Z</time></trkpt><trkpt lat="42.35270347328011" lon="12.950944587308587"><ele>428.5</ele><time>2026-05-02T13:31:00Z</time></trkpt><trkpt lat="42.35272657973277" lon="12.950603997735797"><ele>427.0</ele><time>2026-05-02T13:31:01Z</time></trkpt><trkpt lat="42.35275097952835" lon="12.95026297665334"><ele>426.5</ele><time>2026-05-02T13:31:02Z</time></trkpt><trkpt lat="42.352772834554614" lon="12.949921032420844"><ele>426.0</ele><time>2026-05-02T13:31:03Z</time></trkpt><trkpt lat="42.35280123780572" lon="12.949583358723554"><ele>426.0</ele><time>2026-05-02T13:31:04Z</time></trkpt><trkpt lat="42.35283558809078" lon="12.949249518141047"><ele>426.0</ele><time>2026-05-02T13:31:05Z</time></trkpt><trkpt lat="42.35287127462883" lon="12.948917115075474"><ele>426.0</ele><time>2026-05-02T13:31:06Z</time></trkpt><trkpt lat="42.35291647814521" lon="12.94859304443242"><ele>426.0</ele><time>2026-05-02T13:31:07Z</time></trkpt><trkpt lat="42.352965684062184" lon="12.94827129783573"><ele>427.0</ele><time>2026-05-02T13:31:08Z</time></trkpt><trkpt lat="42.35302021678001" lon="12.9479488982801"><ele>428.0</ele><time>2026-05-02T13:31:09.016Z</time></trkpt><trkpt lat="42.35308034026812" lon="12.947637234704999"><ele>420.5</ele><time>2026-05-02T13:31:10.017Z</time></trkpt><trkpt lat="42.35314730595976" lon="12.94733120801459"><ele>413.0</ele><time>2026-05-02T13:31:11Z</time></trkpt><trkpt lat="42.3531869868131" lon="12.946956730800533"><ele>413.5</ele><time>2026-05-02T13:31:12Z</time></trkpt><trkpt lat="42.3532451722057" lon="12.946623820233022"><ele>414.0</ele><time>2026-05-02T13:31:13Z</time></trkpt><trkpt lat="42.35330636819173" lon="12.946302150556072"><ele>414.0</ele><time>2026-05-02T13:31:14Z</time></trkpt><trkpt lat="42.353371733392564" lon="12.945987249299812"><ele>414.0</ele><time>2026-05-02T13:31:15Z</time></trkpt><trkpt lat="42.353436011728505" lon="12.94566770055239"><ele>413.0</ele><time>2026-05-02T13:31:16Z</time></trkpt><trkpt lat="42.35350218104761" lon="12.945353445166035"><ele>412.0</ele><time>2026-05-02T13:31:17Z</time></trkpt><trkpt lat="42.353566855708316" lon="12.945037959389625"><ele>415.5</ele><time>2026-05-02T13:31:18Z</time></trkpt><trkpt lat="42.353629713994124" lon="12.944724992223005"><ele>419.0</ele><time>2026-05-02T13:31:19Z</time></trkpt><trkpt lat="42.35368829098012" lon="12.944404867702334"><ele>427.0</ele><time>2026-05-02T13:31:20Z</time></trkpt><trkpt lat="42.3537443913074" lon="12.944074497347177"><ele>435.0</ele><time>2026-05-02T13:31:21Z</time></trkpt><trkpt lat="42.353793733678195" lon="12.943744724301862"><ele>435.0</ele><time>2026-05-02T13:31:22Z</time></trkpt><trkpt lat="42.35383125440166" lon="12.943405924520047"><ele>435.0</ele><time>2026-05-02T13:31:23Z</time></trkpt><trkpt lat="42.35386153062472" lon="12.943067779154006"><ele>421.5</ele><time>2026-05-02T13:31:24Z</time></trkpt><trkpt lat="42.35388375371513" lon="12.942726237747767"><ele>408.0</ele><time>2026-05-02T13:31:25Z</time></trkpt><trkpt lat="42.35389942037776" lon="12.942386767760262"><ele>408.0</ele><time>2026-05-02T13:31:26Z</time></trkpt><trkpt lat="42.353920811354065" lon="12.942051461790673"><ele>408.0</ele><time>2026-05-02T13:31:27Z</time></trkpt><trkpt lat="42.35393778994521" lon="12.941715454207031"><ele>408.5</ele><time>2026-05-02T13:31:28Z</time></trkpt><trkpt lat="42.3539623726719" lon="12.941379794848595"><ele>409.0</ele><time>2026-05-02T13:31:29Z</time></trkpt><trkpt lat="42.35400217732756" lon="12.941046022428443"><ele>408.5</ele><time>2026-05-02T13:31:30Z</time></trkpt><trkpt lat="42.35405386417282" lon="12.940711261700663"><ele>408.0</ele><time>2026-05-02T13:31:31Z</time></trkpt><trkpt lat="42.354121427101084" lon="12.940384427966649"><ele>408.0</ele><time>2026-05-02T13:31:32Z</time></trkpt><trkpt lat="42.35420397915281" lon="12.940063216449548"><ele>408.0</ele><time>2026-05-02T13:31:33Z</time></trkpt><trkpt lat="42.3542992149472" lon="12.93975156033053"><ele>408.5</ele><time>2026-05-02T13:31:34Z</time></trkpt><trkpt lat="42.354406253666106" lon="12.939449187393116"><ele>409.0</ele><time>2026-05-02T13:31:35Z</time></trkpt><trkpt lat="42.354532395302044" lon="12.939162452715088"><ele>407.0</ele><time>2026-05-02T13:31:36Z</time></trkpt><trkpt lat="42.35466998549947" lon="12.938890042541388"><ele>405.0</ele><time>2026-05-02T13:31:37Z</time></trkpt><trkpt lat="42.35481852816926" lon="12.938628269471797"><ele>406.0</ele><time>2026-05-02T13:31:38Z</time></trkpt><trkpt lat="42.35497675029293" lon="12.938380636165004"><ele>407.0</ele><time>2026-05-02T13:31:39Z</time></trkpt><trkpt lat="42.35514376005109" lon="12.938147687473872"><ele>407.0</ele><time>2026-05-02T13:31:40Z</time></trkpt><trkpt lat="42.3553252113185" lon="12.937934137471657"><ele>407.0</ele><time>2026-05-02T13:31:41Z</time></trkpt><trkpt lat="42.35551237965204" lon="12.9377306876708"><ele>405.0</ele><time>2026-05-02T13:31:42Z</time></trkpt><trkpt lat="42.35570822292934" lon="12.937546115111877"><ele>403.0</ele><time>2026-05-02T13:31:43Z</time></trkpt><trkpt lat="42.35590633140495" lon="12.937364445767747"><ele>403.0</ele><time>2026-05-02T13:31:44Z</time></trkpt><trkpt lat="42.356104088686365" lon="12.937180314984264"><ele>403.0</ele><time>2026-05-02T13:31:45Z</time></trkpt><trkpt lat="42.35629932462116" lon="12.936989509289255"><ele>402.5</ele><time>2026-05-02T13:31:46Z</time></trkpt><trkpt lat="42.356495040236815" lon="12.93680015493903"><ele>402.0</ele><time>2026-05-02T13:31:47Z</time></trkpt><trkpt lat="42.3566885206231" lon="12.936604057839364"><ele>402.0</ele><time>2026-05-02T13:31:48Z</time></trkpt><trkpt lat="42.356872384629106" lon="12.936383158211479"><ele>402.0</ele><time>2026-05-02T13:31:49Z</time></trkpt><trkpt lat="42.35706796862594" lon="12.936184140376458"><ele>404.5</ele><time>2026-05-02T13:31:50Z</time></trkpt><trkpt lat="42.357254731097605" lon="12.935969730365395"><ele>407.0</ele><time>2026-05-02T13:31:51Z</time></trkpt><trkpt lat="42.3573720763408" lon="12.935644714441331"><ele>407.0</ele><time>2026-05-02T13:31:52Z</time></trkpt><trkpt lat="42.35752292534882" lon="12.935375707303999"><ele>407.0</ele><time>2026-05-02T13:31:53Z</time></trkpt><trkpt lat="42.35766331739169" lon="12.935095891118493"><ele>404.0</ele><time>2026-05-02T13:31:54Z</time></trkpt><trkpt lat="42.35779397132982" lon="12.934809931187408"><ele>401.0</ele><time>2026-05-02T13:31:55Z</time></trkpt><trkpt lat="42.357910467480124" lon="12.93450706745382"><ele>403.0</ele><time>2026-05-02T13:31:56Z</time></trkpt><trkpt lat="42.358016775202636" lon="12.93419867417355"><ele>405.0</ele><time>2026-05-02T13:31:57Z</time></trkpt><trkpt lat="42.35811040937693" lon="12.933879507829857"><ele>409.5</ele><time>2026-05-02T13:31:58Z</time></trkpt><trkpt lat="42.35819191232835" lon="12.93355232147498"><ele>414.0</ele><time>2026-05-02T13:31:59Z</time></trkpt><trkpt lat="42.35826441215065" lon="12.933221873503157"><ele>414.0</ele><time>2026-05-02T13:32:00Z</time></trkpt><trkpt lat="42.358330347793476" lon="12.932890904576864"><ele>414.0</ele><time>2026-05-02T13:32:01Z</time></trkpt><trkpt lat="42.35838814972506" lon="12.932558025179842"><ele>407.5</ele><time>2026-05-02T13:32:02Z</time></trkpt><trkpt lat="42.35844215363492" lon="12.932223177343637"><ele>401.0</ele><time>2026-05-02T13:32:03Z</time></trkpt><trkpt lat="42.358497137653956" lon="12.931888269049384"><ele>401.5</ele><time>2026-05-02T13:32:04Z</time></trkpt><trkpt lat="42.358556773106834" lon="12.931556342653556"><ele>402.0</ele><time>2026-05-02T13:32:05Z</time></trkpt><trkpt lat="42.35862902935214" lon="12.931229884255952"><ele>402.0</ele><time>2026-05-02T13:32:06Z</time></trkpt><trkpt lat="42.35871427133793" lon="12.930908111208039"><ele>402.0</ele><time>2026-05-02T13:32:07Z</time></trkpt><trkpt lat="42.35881399903677" lon="12.930594370294616"><ele>404.5</ele><time>2026-05-02T13:32:08Z</time></trkpt><trkpt lat="42.358934377794846" lon="12.930292005504322"><ele>407.0</ele><time>2026-05-02T13:32:09Z</time></trkpt><trkpt lat="42.35908285024692" lon="12.930005224631838"><ele>407.0</ele><time>2026-05-02T13:32:10Z</time></trkpt><trkpt lat="42.3592497851526" lon="12.929737369267775"><ele>407.0</ele><time>2026-05-02T13:32:11Z</time></trkpt><trkpt lat="42.35943117988368" lon="12.92948381303118"><ele>407.0</ele><time>2026-05-02T13:32:12Z</time></trkpt><trkpt lat="42.359629566928646" lon="12.929249778098098"><ele>407.0</ele><time>2026-05-02T13:32:13Z</time></trkpt><trkpt lat="42.359838578875255" lon="12.929030577421134"><ele>407.0</ele><time>2026-05-02T13:32:14Z</time></trkpt><trkpt lat="42.360066189155916" lon="12.928845560102827"><ele>407.0</ele><time>2026-05-02T13:32:15Z</time></trkpt><trkpt lat="42.360304945296576" lon="12.92868971292661"><ele>415.5</ele><time>2026-05-02T13:32:16Z</time></trkpt><trkpt lat="42.36055632479638" lon="12.92856361884233"><ele>424.0</ele><time>2026-05-02T13:32:17Z</time></trkpt><trkpt lat="42.360810824998275" lon="12.928462512749366"><ele>415.0</ele><time>2026-05-02T13:32:18Z</time></trkpt><trkpt lat="42.361065089966765" lon="12.928384496225194"><ele>406.0</ele><time>2026-05-02T13:32:19Z</time></trkpt><trkpt lat="42.36132608161698" lon="12.928319444102689"><ele>405.5</ele><time>2026-05-02T13:32:20Z</time></trkpt><trkpt lat="42.36159016434536" lon="12.92826820186074"><ele>405.0</ele><time>2026-05-02T13:32:21Z</time></trkpt><trkpt lat="42.36185482981224" lon="12.92821980560606"><ele>405.0</ele><time>2026-05-02T13:32:22Z</time></trkpt><trkpt lat="42.36211900713022" lon="12.9281618452249"><ele>405.0</ele><time>2026-05-02T13:32:23Z</time></trkpt><trkpt lat="42.36238044636675" lon="12.928076426577071"><ele>405.5</ele><time>2026-05-02T13:32:24Z</time></trkpt><trkpt lat="42.36263816897799" lon="12.927971971300867"><ele>406.0</ele><time>2026-05-02T13:32:25Z</time></trkpt><trkpt lat="42.36289049306101" lon="12.927835269760825"><ele>404.5</ele><time>2026-05-02T13:32:26Z</time></trkpt><trkpt lat="42.36313552672508" lon="12.927672682600061"><ele>403.0</ele><time>2026-05-02T13:32:27Z</time></trkpt><trkpt lat="42.36336795416896" lon="12.92747730015712"><ele>403.0</ele><time>2026-05-02T13:32:28Z</time></trkpt><trkpt lat="42.36359059015959" lon="12.927260673966718"><ele>403.0</ele><time>2026-05-02T13:32:29Z</time></trkpt><trkpt lat="42.36380955860076" lon="12.927039316975891"><ele>403.0</ele><time>2026-05-02T13:32:30Z</time></trkpt><trkpt lat="42.36403447442574" lon="12.926832661272144"><ele>403.0</ele><time>2026-05-02T13:32:31Z</time></trkpt><trkpt lat="42.36426131002303" lon="12.926623915081086"><ele>403.0</ele><time>2026-05-02T13:32:32Z</time></trkpt><trkpt lat="42.36449361267912" lon="12.926422044795785"><ele>403.0</ele><time>2026-05-02T13:32:33Z</time></trkpt><trkpt lat="42.36474108218503" lon="12.926243489863898"><ele>410.0</ele><time>2026-05-02T13:32:34Z</time></trkpt><trkpt lat="42.36500302669622" lon="12.926099575227596"><ele>417.0</ele><time>2026-05-02T13:32:35Z</time></trkpt><trkpt lat="42.36527834166794" lon="12.925995578098272"><ele>423.5</ele><time>2026-05-02T13:32:36Z</time></trkpt><trkpt lat="42.3655418378335" lon="12.925931466805736"><ele>430.0</ele><time>2026-05-02T13:32:37Z</time></trkpt><trkpt lat="42.365776811471164" lon="12.925909224180842"><ele>430.0</ele><time>2026-05-02T13:32:38Z</time></trkpt><trkpt lat="42.366022192827536" lon="12.92594207854921"><ele>430.0</ele><time>2026-05-02T13:32:39Z</time></trkpt><trkpt lat="42.366277841874634" lon="12.926026720665483"><ele>433.0</ele><time>2026-05-02T13:32:40Z</time></trkpt><trkpt lat="42.36653657622181" lon="12.926106321923525"><ele>436.0</ele><time>2026-05-02T13:32:41Z</time></trkpt><trkpt lat="42.366794778200465" lon="12.926128009824245"><ele>436.0</ele><time>2026-05-02T13:32:42Z</time></trkpt><trkpt lat="42.367054574721166" lon="12.926130378376179"><ele>436.0</ele><time>2026-05-02T13:32:43Z</time></trkpt><trkpt lat="42.36731697883179" lon="12.926090363048493"><ele>450.5</ele><time>2026-05-02T13:32:44Z</time></trkpt><trkpt lat="42.36757510401613" lon="12.926018971951398"><ele>465.0</ele><time>2026-05-02T13:32:45Z</time></trkpt><trkpt lat="42.367807138712976" lon="12.925950643677307"><ele>450.0</ele><time>2026-05-02T13:32:46Z</time></trkpt><trkpt lat="42.36801895823373" lon="12.925889964028222"><ele>435.0</ele><time>2026-05-02T13:32:47Z</time></trkpt><trkpt lat="42.36822479420773" lon="12.925815403121145"><ele>420.0</ele><time>2026-05-02T13:32:48Z</time></trkpt><trkpt lat="42.36843192017073" lon="12.925712151531359"><ele>420.0</ele><time>2026-05-02T13:32:49Z</time></trkpt><trkpt lat="42.36863133631411" lon="12.925571165283737"><ele>420.0</ele><time>2026-05-02T13:32:50Z</time></trkpt><trkpt lat="42.368832892088996" lon="12.92540002469461"><ele>414.5</ele><time>2026-05-02T13:32:51Z</time></trkpt><trkpt lat="42.36903600064456" lon="12.925219204242095"><ele>409.0</ele><time>2026-05-02T13:32:52Z</time></trkpt><trkpt lat="42.36924096285837" lon="12.925044944483492"><ele>409.0</ele><time>2026-05-02T13:32:53Z</time></trkpt><trkpt lat="42.36944524390183" lon="12.9248751683909"><ele>409.0</ele><time>2026-05-02T13:32:54Z</time></trkpt><trkpt lat="42.36965013618397" lon="12.924708429957553"><ele>428.5</ele><time>2026-05-02T13:32:55Z</time></trkpt><trkpt lat="42.36985098326815" lon="12.924530783323155"><ele>448.0</ele><time>2026-05-02T13:32:56Z</time></trkpt><trkpt lat="42.37004736260852" lon="12.924351958943495"><ele>427.0</ele><time>2026-05-02T13:32:57Z</time></trkpt><trkpt lat="42.37024418409674" lon="12.924185422720049"><ele>406.0</ele><time>2026-05-02T13:32:58Z</time></trkpt><trkpt lat="42.370436187069316" lon="12.924018691906658"><ele>415.6666666666667</ele><time>2026-05-02T13:32:59Z</time></trkpt><trkpt lat="42.37061453601839" lon="12.923848731977614"><ele>425.33333333333337</ele><time>2026-05-02T13:33:00Z</time></trkpt><trkpt lat="42.37078700166037" lon="12.92370540125917"><ele>435.0</ele><time>2026-05-02T13:33:01Z</time></trkpt><trkpt lat="42.37095127539206" lon="12.923565565334176"><ele>435.0</ele><time>2026-05-02T13:33:02Z</time></trkpt><trkpt lat="42.37110333459967" lon="12.923428185660013"><ele>435.0</ele><time>2026-05-02T13:33:03Z</time></trkpt><trkpt lat="42.37125047203789" lon="12.923304047031243"><ele>435.0</ele><time>2026-05-02T13:33:04Z</time></trkpt><trkpt lat="42.37139358799087" lon="12.92318850857817"><ele>432.33333333333337</ele><time>2026-05-02T13:33:05Z</time></trkpt><trkpt lat="42.371537634375414" lon="12.923085949897711"><ele>429.6666666666667</ele><time>2026-05-02T13:33:06Z</time></trkpt><trkpt lat="42.3716824060494" lon="12.922982536393022"><ele>427.0</ele><time>2026-05-02T13:33:07Z</time></trkpt><trkpt lat="42.37183022249826" lon="12.922884405878408"><ele>427.0</ele><time>2026-05-02T13:33:08Z</time></trkpt><trkpt lat="42.37197652111038" lon="12.922786398023291"><ele>427.0</ele><time>2026-05-02T13:33:09Z</time></trkpt><trkpt lat="42.37212876929697" lon="12.92270404638512"><ele>427.0</ele><time>2026-05-02T13:33:10Z</time></trkpt><trkpt lat="42.37227001721648" lon="12.922619222242858"><ele>422.25</ele><time>2026-05-02T13:33:11Z</time></trkpt><trkpt lat="42.37239675157702" lon="12.922526433823926"><ele>417.5</ele><time>2026-05-02T13:33:12Z</time></trkpt><trkpt lat="42.37251066003783" lon="12.922446507827875"><ele>412.75</ele><time>2026-05-02T13:33:13Z</time></trkpt><trkpt lat="42.37261587480028" lon="12.922377602756594"><ele>408.0</ele><time>2026-05-02T13:33:14Z</time></trkpt><trkpt lat="42.372718419802275" lon="12.922295201187062"><ele>408.0</ele><time>2026-05-02T13:33:15Z</time></trkpt><trkpt lat="42.372824748833025" lon="12.92220696273757"><ele>408.0</ele><time>2026-05-02T13:33:16Z</time></trkpt><trkpt lat="42.37292282754295" lon="12.922092278712427"><ele>408.0</ele><time>2026-05-02T13:33:17Z</time></trkpt><trkpt lat="42.37300587042093" lon="12.921951901360657"><ele>408.0</ele><time>2026-05-02T13:33:18Z</time></trkpt><trkpt lat="42.37307598880462" lon="12.921788746348058"><ele>405.0</ele><time>2026-05-02T13:33:19Z</time></trkpt><trkpt lat="42.373127935801975" lon="12.921601756467059"><ele>402.0</ele><time>2026-05-02T13:33:20Z</time></trkpt><trkpt lat="42.37316097315431" lon="12.92139867280568"><ele>399.0</ele><time>2026-05-02T13:33:21Z</time></trkpt><trkpt lat="42.373192561869004" lon="12.921193797662566"><ele>399.0</ele><time>2026-05-02T13:33:22Z</time></trkpt><trkpt lat="42.37321734184743" lon="12.92097495793191"><ele>399.0</ele><time>2026-05-02T13:33:23Z</time></trkpt><trkpt lat="42.373244630660615" lon="12.92075400001256"><ele>399.0</ele><time>2026-05-02T13:33:24Z</time></trkpt><trkpt lat="42.373272495563405" lon="12.920540848036094"><ele>399.0</ele><time>2026-05-02T13:33:25Z</time></trkpt><trkpt lat="42.37330014748074" lon="12.920324661007964"><ele>399.0</ele><time>2026-05-02T13:33:26Z</time></trkpt><trkpt lat="42.37332942610594" lon="12.920107138703177"><ele>399.0</ele><time>2026-05-02T13:33:27Z</time></trkpt><trkpt lat="42.37335869160194" lon="12.919887699485185"><ele>400.0</ele><time>2026-05-02T13:33:28Z</time></trkpt><trkpt lat="42.3733883708948" lon="12.91966837746762"><ele>401.0</ele><time>2026-05-02T13:33:29Z</time></trkpt><trkpt lat="42.37341888521805" lon="12.919449925833337"><ele>402.0</ele><time>2026-05-02T13:33:30Z</time></trkpt><trkpt lat="42.373447559050284" lon="12.919239417173877"><ele>403.75</ele><time>2026-05-02T13:33:31Z</time></trkpt><trkpt lat="42.37347624473458" lon="12.919050715272943"><ele>405.5</ele><time>2026-05-02T13:33:32Z</time></trkpt><trkpt lat="42.37352453107393" lon="12.918877335344975"><ele>407.25</ele><time>2026-05-02T13:33:33Z</time></trkpt><trkpt lat="42.37360864712725" lon="12.918722231004024"><ele>409.0</ele><time>2026-05-02T13:33:34Z</time></trkpt><trkpt lat="42.37372868065162" lon="12.91860069950455"><ele>409.75</ele><time>2026-05-02T13:33:35Z</time></trkpt><trkpt lat="42.3738626073848" lon="12.918514289852851"><ele>410.5</ele><time>2026-05-02T13:33:36Z</time></trkpt><trkpt lat="42.374000581938056" lon="12.918443692834131"><ele>411.25</ele><time>2026-05-02T13:33:37Z</time></trkpt><trkpt lat="42.374125882126414" lon="12.918371263305856"><ele>412.0</ele><time>2026-05-02T13:33:38Z</time></trkpt><trkpt lat="42.37424429673056" lon="12.91829682083475"><ele>412.0</ele><time>2026-05-02T13:33:39Z</time></trkpt><trkpt lat="42.374364202383425" lon="12.918221945427383"><ele>412.0</ele><time>2026-05-02T13:33:40Z</time></trkpt><trkpt lat="42.37448760587693" lon="12.918148005417796"><ele>412.0</ele><time>2026-05-02T13:33:41Z</time></trkpt><trkpt lat="42.37461615270868" lon="12.918071124347284"><ele>412.0</ele><time>2026-05-02T13:33:42Z</time></trkpt><trkpt lat="42.37474272740224" lon="12.917986786704269"><ele>412.0</ele><time>2026-05-02T13:33:43Z</time></trkpt><trkpt lat="42.37486981565782" lon="12.917886804733142"><ele>412.0</ele><time>2026-05-02T13:33:44Z</time></trkpt><trkpt lat="42.37499040128001" lon="12.917773321968092"><ele>412.0</ele><time>2026-05-02T13:33:45Z</time></trkpt><trkpt lat="42.375105430058674" lon="12.917644079485061"><ele>412.0</ele><time>2026-05-02T13:33:46Z</time></trkpt><trkpt lat="42.375208190213804" lon="12.917499518770285"><ele>412.0</ele><time>2026-05-02T13:33:47Z</time></trkpt><trkpt lat="42.37530134796459" lon="12.917338347343241"><ele>412.0</ele><time>2026-05-02T13:33:48Z</time></trkpt><trkpt lat="42.37538690815622" lon="12.91717384216773"><ele>412.0</ele><time>2026-05-02T13:33:49Z</time></trkpt><trkpt lat="42.375464063499834" lon="12.916996272066912"><ele>408.33333333333337</ele><time>2026-05-02T13:33:50Z</time></trkpt><trkpt lat="42.37554659099732" lon="12.916811509841903"><ele>404.66666666666663</ele><time>2026-05-02T13:33:51Z</time></trkpt><trkpt lat="42.375607910747476" lon="12.916628258827226"><ele>401.0</ele><time>2026-05-02T13:33:52Z</time></trkpt><trkpt lat="42.37567972948176" lon="12.916433764891538"><ele>401.0</ele><time>2026-05-02T13:33:53Z</time></trkpt><trkpt lat="42.37575599872968" lon="12.91623672135802"><ele>401.0</ele><time>2026-05-02T13:33:54Z</time></trkpt><trkpt lat="42.37583124009784" lon="12.916035735844515"><ele>401.0</ele><time>2026-05-02T13:33:55Z</time></trkpt><trkpt lat="42.37590140547994" lon="12.915832948062842"><ele>403.3333333333333</ele><time>2026-05-02T13:33:56Z</time></trkpt><trkpt lat="42.375974664771014" lon="12.915626886495064"><ele>405.66666666666663</ele><time>2026-05-02T13:33:57Z</time></trkpt><trkpt lat="42.37605112103875" lon="12.915422975457552"><ele>408.0</ele><time>2026-05-02T13:33:58Z</time></trkpt><trkpt lat="42.37611790912824" lon="12.915219449907251"><ele>407.33333333333337</ele><time>2026-05-02T13:33:59Z</time></trkpt><trkpt lat="42.37618724097092" lon="12.915023381031311"><ele>406.6666666666667</ele><time>2026-05-02T13:34:00Z</time></trkpt><trkpt lat="42.37624886131374" lon="12.914831533703955"><ele>406.0</ele><time>2026-05-02T13:34:01Z</time></trkpt><trkpt lat="42.37630907901899" lon="12.914639572202882"><ele>403.6666666666667</ele><time>2026-05-02T13:34:02Z</time></trkpt><trkpt lat="42.376378411322285" lon="12.914448611899447"><ele>401.33333333333337</ele><time>2026-05-02T13:34:03Z</time></trkpt><trkpt lat="42.37644709902124" lon="12.914260433032139"><ele>399.0</ele><time>2026-05-02T13:34:04Z</time></trkpt><trkpt lat="42.37651934921767" lon="12.914076834993903"><ele>399.0</ele><time>2026-05-02T13:34:05Z</time></trkpt><trkpt lat="42.37659724606616" lon="12.913893333809764"><ele>399.0</ele><time>2026-05-02T13:34:06Z</time></trkpt><trkpt lat="42.376676564554465" lon="12.913711830276776"><ele>399.0</ele><time>2026-05-02T13:34:07Z</time></trkpt><trkpt lat="42.37676877676095" lon="12.913544667355378"><ele>403.0</ele><time>2026-05-02T13:34:08Z</time></trkpt><trkpt lat="42.37687579270516" lon="12.913395384248817"><ele>407.0</ele><time>2026-05-02T13:34:09Z</time></trkpt><trkpt lat="42.376988203242966" lon="12.913256311049656"><ele>411.0</ele><time>2026-05-02T13:34:10Z</time></trkpt><trkpt lat="42.37711004532194" lon="12.91313120315987"><ele>406.66666666666663</ele><time>2026-05-02T13:34:11Z</time></trkpt><trkpt lat="42.377241730949" lon="12.91300376611305"><ele>402.3333333333333</ele><time>2026-05-02T13:34:12Z</time></trkpt><trkpt lat="42.377375477266284" lon="12.912875010948547"><ele>398.0</ele><time>2026-05-02T13:34:13Z</time></trkpt><trkpt lat="42.37751578819526" lon="12.912751738882312"><ele>398.0</ele><time>2026-05-02T13:34:14Z</time></trkpt><trkpt lat="42.37765977264841" lon="12.912618357657783"><ele>398.0</ele><time>2026-05-02T13:34:15Z</time></trkpt><trkpt lat="42.377805134569286" lon="12.912490785363682"><ele>398.0</ele><time>2026-05-02T13:34:16Z</time></trkpt><trkpt lat="42.37795152393026" lon="12.912362293045419"><ele>397.66666666666663</ele><time>2026-05-02T13:34:17Z</time></trkpt><trkpt lat="42.37809304888869" lon="12.912228203806084"><ele>397.33333333333337</ele><time>2026-05-02T13:34:18Z</time></trkpt><trkpt lat="42.37823140076916" lon="12.912098988804017"><ele>397.0</ele><time>2026-05-02T13:34:19Z</time></trkpt><trkpt lat="42.37837117970573" lon="12.91196856410693"><ele>397.0</ele><time>2026-05-02T13:34:20Z</time></trkpt><trkpt lat="42.3785062484456" lon="12.911839626732128"><ele>397.0</ele><time>2026-05-02T13:34:21Z</time></trkpt><trkpt lat="42.37864249502066" lon="12.911716491658614"><ele>397.0</ele><time>2026-05-02T13:34:22Z</time></trkpt><trkpt lat="42.3787773236205" lon="12.911591497951214"><ele>397.0</ele><time>2026-05-02T13:34:23Z</time></trkpt><trkpt lat="42.378922149804794" lon="12.911487473947979"><ele>397.0</ele><time>2026-05-02T13:34:24Z</time></trkpt><trkpt lat="42.37905757850322" lon="12.911365795737368"><ele>397.0</ele><time>2026-05-02T13:34:25Z</time></trkpt><trkpt lat="42.379184604520596" lon="12.91125116626755"><ele>397.0</ele><time>2026-05-02T13:34:26Z</time></trkpt><trkpt lat="42.37930189423892" lon="12.911145322780387"><ele>397.0</ele><time>2026-05-02T13:34:27Z</time></trkpt><trkpt lat="42.37941065588829" lon="12.911047175169482"><ele>397.0</ele><time>2026-05-02T13:34:28Z</time></trkpt><trkpt lat="42.379510856991935" lon="12.910955517761876"><ele>397.0</ele><time>2026-05-02T13:34:29Z</time></trkpt><trkpt lat="42.3796040797185" lon="12.910870083002376"><ele>397.20000000000005</ele><time>2026-05-02T13:34:30Z</time></trkpt><trkpt lat="42.37969315761391" lon="12.910790285712194"><ele>397.4</ele><time>2026-05-02T13:34:31Z</time></trkpt><trkpt lat="42.37977690241073" lon="12.910715265683933"><ele>397.6</ele><time>2026-05-02T13:34:32Z</time></trkpt><trkpt lat="42.37985661579269" lon="12.910643341801615"><ele>397.79999999999995</ele><time>2026-05-02T13:34:33Z</time></trkpt><trkpt lat="42.3799289716822" lon="12.91057503118925"><ele>398.0</ele><time>2026-05-02T13:34:34Z</time></trkpt><trkpt lat="42.37999044845864" lon="12.910514528545852"><ele>398.0</ele><time>2026-05-02T13:34:35Z</time></trkpt><trkpt lat="42.380084510830066" lon="12.910416649657229"><ele>398.0</ele><time>2026-05-02T13:34:37Z</time></trkpt><trkpt lat="42.38013335888389" lon="12.91036150274808"><ele>398.0</ele><time>2026-05-02T13:34:38Z</time></trkpt><trkpt lat="42.38019779177085" lon="12.910278245680484"><ele>398.0</ele><time>2026-05-02T13:34:39Z</time></trkpt><trkpt lat="42.380297893739105" lon="12.910120901419617"><ele>398.0</ele><time>2026-05-02T13:34:40Z</time></trkpt><trkpt lat="42.38040487148732" lon="12.909921453201205"><ele>398.0</ele><time>2026-05-02T13:34:41Z</time></trkpt><trkpt lat="42.38050539821919" lon="12.909683803677517"><ele>398.0</ele><time>2026-05-02T13:34:42Z</time></trkpt><trkpt lat="42.38059894245134" lon="12.909461900579467"><ele>398.0</ele><time>2026-05-02T13:34:43Z</time></trkpt><trkpt lat="42.380683702284465" lon="12.90925971056166"><ele>398.0</ele><time>2026-05-02T13:34:44Z</time></trkpt><trkpt lat="42.38077898963451" lon="12.90907750840582"><ele>398.0</ele><time>2026-05-02T13:34:45Z</time></trkpt><trkpt lat="42.380894029508624" lon="12.908919338054192"><ele>398.0</ele><time>2026-05-02T13:34:46Z</time></trkpt><trkpt lat="42.38101721132005" lon="12.90879208032533"><ele>398.0</ele><time>2026-05-02T13:34:47Z</time></trkpt><trkpt lat="42.381145407118034" lon="12.908684495791244"><ele>398.0</ele><time>2026-05-02T13:34:48Z</time></trkpt><trkpt lat="42.381266380651965" lon="12.908565773087918"><ele>398.0</ele><time>2026-05-02T13:34:49Z</time></trkpt><trkpt lat="42.38138504616464" lon="12.908449316205232"><ele>398.0</ele><time>2026-05-02T13:34:50Z</time></trkpt><trkpt lat="42.381501358393216" lon="12.908332370446852"><ele>398.25</ele><time>2026-05-02T13:34:51Z</time></trkpt><trkpt lat="42.381613233675154" lon="12.908219885791409"><ele>398.5</ele><time>2026-05-02T13:34:52Z</time></trkpt><trkpt lat="42.38172599985447" lon="12.908107614082981"><ele>398.75</ele><time>2026-05-02T13:34:53Z</time></trkpt><trkpt lat="42.381840143033706" lon="12.907997232564474"><ele>399.0</ele><time>2026-05-02T13:34:54Z</time></trkpt><trkpt lat="42.381944117093056" lon="12.90787055408815"><ele>399.0</ele><time>2026-05-02T13:34:55Z</time></trkpt><trkpt lat="42.38205767279281" lon="12.907762772865725"><ele>399.0</ele><time>2026-05-02T13:34:56Z</time></trkpt><trkpt lat="42.38217562001111" lon="12.907663090498506"><ele>399.0</ele><time>2026-05-02T13:34:57Z</time></trkpt><trkpt lat="42.38228919323386" lon="12.907555937369782"><ele>399.0</ele><time>2026-05-02T13:34:58Z</time></trkpt><trkpt lat="42.382388696368935" lon="12.907432967975705"><ele>399.75</ele><time>2026-05-02T13:34:59Z</time></trkpt><trkpt lat="42.38248616442888" lon="12.907313143501852"><ele>400.5</ele><time>2026-05-02T13:35:00Z</time></trkpt><trkpt lat="42.382575848739435" lon="12.90719566996098"><ele>401.25</ele><time>2026-05-02T13:35:01Z</time></trkpt><trkpt lat="42.38265540738999" lon="12.90707523782834"><ele>402.0</ele><time>2026-05-02T13:35:02Z</time></trkpt><trkpt lat="42.382730599881285" lon="12.906963429407883"><ele>402.0</ele><time>2026-05-02T13:35:03Z</time></trkpt><trkpt lat="42.38280294710796" lon="12.906855802976388"><ele>402.0</ele><time>2026-05-02T13:35:04Z</time></trkpt><trkpt lat="42.382874414225796" lon="12.906742697868628"><ele>402.0</ele><time>2026-05-02T13:35:05Z</time></trkpt><trkpt lat="42.38295037279122" lon="12.90662583622142"><ele>402.0</ele><time>2026-05-02T13:35:06Z</time></trkpt><trkpt lat="42.38303518833031" lon="12.906515343484468"><ele>401.5</ele><time>2026-05-02T13:35:07Z</time></trkpt><trkpt lat="42.383120026984955" lon="12.906398605180284"><ele>401.0</ele><time>2026-05-02T13:35:08Z</time></trkpt><trkpt lat="42.38322044391739" lon="12.90630838692889"><ele>400.5</ele><time>2026-05-02T13:35:09Z</time></trkpt><trkpt lat="42.38330795227487" lon="12.906210104009249"><ele>400.0</ele><time>2026-05-02T13:35:10Z</time></trkpt><trkpt lat="42.3833888729928" lon="12.906119427575511"><ele>400.0</ele><time>2026-05-02T13:35:11Z</time></trkpt><trkpt lat="42.38346762131169" lon="12.906031766568585"><ele>400.0</ele><time>2026-05-02T13:35:12Z</time></trkpt><trkpt lat="42.38354583693183" lon="12.905945124877897"><ele>400.0</ele><time>2026-05-02T13:35:13Z</time></trkpt><trkpt lat="42.383627798533816" lon="12.905854334885895"><ele>400.0</ele><time>2026-05-02T13:35:14Z</time></trkpt><trkpt lat="42.38371572362675" lon="12.905757863800915"><ele>400.0</ele><time>2026-05-02T13:35:15Z</time></trkpt><trkpt lat="42.38380641449169" lon="12.905658368393105"><ele>399.25</ele><time>2026-05-02T13:35:16Z</time></trkpt><trkpt lat="42.38389962334013" lon="12.905555975065017"><ele>398.5</ele><time>2026-05-02T13:35:17Z</time></trkpt><trkpt lat="42.38399364944347" lon="12.905452614622874"><ele>397.75</ele><time>2026-05-02T13:35:18Z</time></trkpt><trkpt lat="42.3840906240101" lon="12.905346183401416"><ele>397.0</ele><time>2026-05-02T13:35:19Z</time></trkpt><trkpt lat="42.384192301234606" lon="12.905234644531843"><ele>397.0</ele><time>2026-05-02T13:35:20Z</time></trkpt><trkpt lat="42.38429793761596" lon="12.905122474377208"><ele>397.0</ele><time>2026-05-02T13:35:21Z</time></trkpt><trkpt lat="42.384404182249945" lon="12.905007100354723"><ele>397.0</ele><time>2026-05-02T13:35:22Z</time></trkpt><trkpt lat="42.384510842832654" lon="12.904889631721613"><ele>397.0</ele><time>2026-05-02T13:35:23Z</time></trkpt><trkpt lat="42.384613292939065" lon="12.9047743012125"><ele>396.75</ele><time>2026-05-02T13:35:24Z</time></trkpt><trkpt lat="42.38471329813441" lon="12.904661723058155"><ele>396.5</ele><time>2026-05-02T13:35:25Z</time></trkpt><trkpt lat="42.38481392918694" lon="12.904551649838325"><ele>396.25</ele><time>2026-05-02T13:35:26Z</time></trkpt><trkpt lat="42.38491691458996" lon="12.904439372932412"><ele>396.0</ele><time>2026-05-02T13:35:27Z</time></trkpt><trkpt lat="42.385025302010575" lon="12.904339286677422"><ele>398.25</ele><time>2026-05-02T13:35:28Z</time></trkpt><trkpt lat="42.38513998507991" lon="12.904244302503942"><ele>400.5</ele><time>2026-05-02T13:35:29Z</time></trkpt><trkpt lat="42.38525815691922" lon="12.90416149015544"><ele>402.75</ele><time>2026-05-02T13:35:30Z</time></trkpt><trkpt lat="42.38538272390861" lon="12.904103161829592"><ele>405.0</ele><time>2026-05-02T13:35:31Z</time></trkpt><trkpt lat="42.385511562685046" lon="12.904044186935817"><ele>403.0</ele><time>2026-05-02T13:35:32Z</time></trkpt><trkpt lat="42.385639784433934" lon="12.903982064830457"><ele>401.0</ele><time>2026-05-02T13:35:33Z</time></trkpt><trkpt lat="42.3857682015509" lon="12.903911035656206"><ele>399.0</ele><time>2026-05-02T13:35:34Z</time></trkpt><trkpt lat="42.38589653485061" lon="12.903820415894916"><ele>397.0</ele><time>2026-05-02T13:35:35Z</time></trkpt><trkpt lat="42.386016635098834" lon="12.903698657738378"><ele>397.0</ele><time>2026-05-02T13:35:36Z</time></trkpt><trkpt lat="42.38612225082167" lon="12.90354358564752"><ele>397.0</ele><time>2026-05-02T13:35:37Z</time></trkpt><trkpt lat="42.386213223910524" lon="12.903362864860295"><ele>397.0</ele><time>2026-05-02T13:35:38Z</time></trkpt><trkpt lat="42.386294238616344" lon="12.903155926268608"><ele>396.6666666666667</ele><time>2026-05-02T13:35:39Z</time></trkpt><trkpt lat="42.3863698819269" lon="12.902936864642808"><ele>396.33333333333337</ele><time>2026-05-02T13:35:40Z</time></trkpt><trkpt lat="42.38644339840957" lon="12.902725019997131"><ele>396.0</ele><time>2026-05-02T13:35:41Z</time></trkpt><trkpt lat="42.38650440772995" lon="12.90249996733547"><ele>396.0</ele><time>2026-05-02T13:35:42Z</time></trkpt><trkpt lat="42.38659500046483" lon="12.902296245180485"><ele>396.0</ele><time>2026-05-02T13:35:43Z</time></trkpt><trkpt lat="42.38665762378016" lon="12.902072017162347"><ele>396.0</ele><time>2026-05-02T13:35:44Z</time></trkpt><trkpt lat="42.38673195494279" lon="12.901855327565038"><ele>399.33333333333337</ele><time>2026-05-02T13:35:45Z</time></trkpt><trkpt lat="42.386808986542675" lon="12.901636437936249"><ele>402.6666666666667</ele><time>2026-05-02T13:35:46Z</time></trkpt><trkpt lat="42.38689003126075" lon="12.901413874589588"><ele>406.0</ele><time>2026-05-02T13:35:47Z</time></trkpt><trkpt lat="42.38697252679092" lon="12.901183881580476"><ele>406.0</ele><time>2026-05-02T13:35:48Z</time></trkpt><trkpt lat="42.387051920416745" lon="12.900950472504725"><ele>406.0</ele><time>2026-05-02T13:35:49Z</time></trkpt><trkpt lat="42.38712978150645" lon="12.900711198031184"><ele>406.0</ele><time>2026-05-02T13:35:50Z</time></trkpt><trkpt lat="42.38720736374769" lon="12.900465864158942"><ele>403.0</ele><time>2026-05-02T13:35:51Z</time></trkpt><trkpt lat="42.387286668789145" lon="12.900213750214501"><ele>400.0</ele><time>2026-05-02T13:35:52Z</time></trkpt><trkpt lat="42.38736698794062" lon="12.899959993954974"><ele>397.0</ele><time>2026-05-02T13:35:53Z</time></trkpt><trkpt lat="42.38744727356485" lon="12.89970620540191"><ele>397.0</ele><time>2026-05-02T13:35:54Z</time></trkpt><trkpt lat="42.38752549538656" lon="12.8994548007986"><ele>397.0</ele><time>2026-05-02T13:35:55Z</time></trkpt><trkpt lat="42.38761551482306" lon="12.899209174615521"><ele>397.0</ele><time>2026-05-02T13:35:56Z</time></trkpt><trkpt lat="42.38769445865918" lon="12.898958260182942"><ele>401.0</ele><time>2026-05-02T13:35:57Z</time></trkpt><trkpt lat="42.387772577357396" lon="12.898714998576784"><ele>405.0</ele><time>2026-05-02T13:35:58Z</time></trkpt><trkpt lat="42.38785615360473" lon="12.898464874761535"><ele>409.0</ele><time>2026-05-02T13:35:59Z</time></trkpt><trkpt lat="42.387937231830776" lon="12.898203227584178"><ele>405.6666666666667</ele><time>2026-05-02T13:36:00Z</time></trkpt><trkpt lat="42.38801001498858" lon="12.897938537763109"><ele>402.33333333333337</ele><time>2026-05-02T13:36:01Z</time></trkpt><trkpt lat="42.38808725427196" lon="12.897676010865696"><ele>399.0</ele><time>2026-05-02T13:36:02Z</time></trkpt><trkpt lat="42.38816940364514" lon="12.897414543876188"><ele>399.0</ele><time>2026-05-02T13:36:03Z</time></trkpt><trkpt lat="42.388246461138685" lon="12.897159221218516"><ele>399.0</ele><time>2026-05-02T13:36:04Z</time></trkpt><trkpt lat="42.388354622142536" lon="12.896908400999365"><ele>399.0</ele><time>2026-05-02T13:36:05Z</time></trkpt><trkpt lat="42.388493977817696" lon="12.896672516510113"><ele>397.66666666666663</ele><time>2026-05-02T13:36:06Z</time></trkpt><trkpt lat="42.388653759672884" lon="12.896457032702527"><ele>396.3333333333333</ele><time>2026-05-02T13:36:07Z</time></trkpt><trkpt lat="42.38880464687805" lon="12.896246306113916"><ele>395.0</ele><time>2026-05-02T13:36:08Z</time></trkpt><trkpt lat="42.38894826016553" lon="12.896036393742477"><ele>396.3333333333333</ele><time>2026-05-02T13:36:09Z</time></trkpt><trkpt lat="42.389079532399705" lon="12.895837984424261"><ele>397.66666666666663</ele><time>2026-05-02T13:36:10Z</time></trkpt><trkpt lat="42.389181505330846" lon="12.895657404125375"><ele>399.0</ele><time>2026-05-02T13:36:11Z</time></trkpt><trkpt lat="42.38925406395274" lon="12.895450172228962"><ele>399.0</ele><time>2026-05-02T13:36:12Z</time></trkpt><trkpt lat="42.389281713985966" lon="12.89520827379374"><ele>399.0</ele><time>2026-05-02T13:36:13Z</time></trkpt><trkpt lat="42.389272661752194" lon="12.894950912444743"><ele>399.0</ele><time>2026-05-02T13:36:14Z</time></trkpt><trkpt lat="42.38926615660053" lon="12.89468204232601"><ele>402.33333333333337</ele><time>2026-05-02T13:36:15Z</time></trkpt><trkpt lat="42.38928154329915" lon="12.894418757761567"><ele>405.6666666666667</ele><time>2026-05-02T13:36:16Z</time></trkpt><trkpt lat="42.3893047330864" lon="12.894150772793"><ele>409.0</ele><time>2026-05-02T13:36:17Z</time></trkpt><trkpt lat="42.389332241106004" lon="12.893887661317326"><ele>412.33333333333337</ele><time>2026-05-02T13:36:18Z</time></trkpt><trkpt lat="42.38936730897459" lon="12.893620457443259"><ele>415.66666666666663</ele><time>2026-05-02T13:36:19Z</time></trkpt><trkpt lat="42.389404926519305" lon="12.8933538165017"><ele>419.0</ele><time>2026-05-02T13:36:20Z</time></trkpt><trkpt lat="42.389426148671554" lon="12.893079287771707"><ele>422.0</ele><time>2026-05-02T13:36:21Z</time></trkpt><trkpt lat="42.38944242878635" lon="12.892802334102909"><ele>425.0</ele><time>2026-05-02T13:36:22Z</time></trkpt><trkpt lat="42.38945558512731" lon="12.892524428393843"><ele>428.0</ele><time>2026-05-02T13:36:23Z</time></trkpt><trkpt lat="42.38948619174837" lon="12.892252842687796"><ele>428.66666666666663</ele><time>2026-05-02T13:36:24Z</time></trkpt><trkpt lat="42.38952476299562" lon="12.891985708004709"><ele>429.33333333333337</ele><time>2026-05-02T13:36:25Z</time></trkpt><trkpt lat="42.38956563402356" lon="12.891713045974262"><ele>430.0</ele><time>2026-05-02T13:36:26Z</time></trkpt><trkpt lat="42.389621772171985" lon="12.891450063312433"><ele>421.33333333333337</ele><time>2026-05-02T13:36:27Z</time></trkpt><trkpt lat="42.38968087724029" lon="12.89118957852537"><ele>412.66666666666663</ele><time>2026-05-02T13:36:28Z</time></trkpt><trkpt lat="42.389751965809545" lon="12.890928047555542"><ele>404.0</ele><time>2026-05-02T13:36:29Z</time></trkpt><trkpt lat="42.38984418533205" lon="12.890675662287872"><ele>404.0</ele><time>2026-05-02T13:36:30Z</time></trkpt><trkpt lat="42.389966079865765" lon="12.890447533062815"><ele>404.0</ele><time>2026-05-02T13:36:31Z</time></trkpt><trkpt lat="42.390096455994694" lon="12.890239147834045"><ele>404.0</ele><time>2026-05-02T13:36:32Z</time></trkpt><trkpt lat="42.39021315205829" lon="12.890047532266358"><ele>409.0</ele><time>2026-05-02T13:36:33Z</time></trkpt><trkpt lat="42.390318919469756" lon="12.889861121537065"><ele>414.0</ele><time>2026-05-02T13:36:34Z</time></trkpt><trkpt lat="42.390400715586004" lon="12.88965674015823"><ele>419.0</ele><time>2026-05-02T13:36:35Z</time></trkpt><trkpt lat="42.39047274112426" lon="12.889453978619901"><ele>412.25</ele><time>2026-05-02T13:36:36Z</time></trkpt><trkpt lat="42.39054291004479" lon="12.889267968138975"><ele>405.5</ele><time>2026-05-02T13:36:37Z</time></trkpt><trkpt lat="42.390606653375215" lon="12.889095066720825"><ele>398.75</ele><time>2026-05-02T13:36:38Z</time></trkpt><trkpt lat="42.39066181615334" lon="12.88893769848875"><ele>392.0</ele><time>2026-05-02T13:36:39Z</time></trkpt><trkpt lat="42.39070956239513" lon="12.88879471570328"><ele>391.8</ele><time>2026-05-02T13:36:40Z</time></trkpt><trkpt lat="42.39075671479232" lon="12.88867032173418"><ele>391.6</ele><time>2026-05-02T13:36:41Z</time></trkpt><trkpt lat="42.39080160260593" lon="12.888552090653647"><ele>391.40000000000003</ele><time>2026-05-02T13:36:42Z</time></trkpt><trkpt lat="42.390857265502405" lon="12.888430021403586"><ele>391.20000000000005</ele><time>2026-05-02T13:36:43Z</time></trkpt><trkpt lat="42.390932954283926" lon="12.8883151033487"><ele>391.0</ele><time>2026-05-02T13:36:44Z</time></trkpt><trkpt lat="42.391031695214586" lon="12.888217663327051"><ele>392.0</ele><time>2026-05-02T13:36:45Z</time></trkpt><trkpt lat="42.391144992056894" lon="12.888134269239563"><ele>393.0</ele><time>2026-05-02T13:36:46Z</time></trkpt><trkpt lat="42.39126145074791" lon="12.88804828397909"><ele>394.0</ele><time>2026-05-02T13:36:47Z</time></trkpt><trkpt lat="42.39137482998923" lon="12.88794327728873"><ele>395.0</ele><time>2026-05-02T13:36:48Z</time></trkpt><trkpt lat="42.39148260028948" lon="12.887825310382379"><ele>395.0</ele><time>2026-05-02T13:36:49Z</time></trkpt><trkpt lat="42.39159031210892" lon="12.887692953365962"><ele>395.0</ele><time>2026-05-02T13:36:50Z</time></trkpt><trkpt lat="42.391697330102005" lon="12.887561126201462"><ele>395.0</ele><time>2026-05-02T13:36:51Z</time></trkpt><trkpt lat="42.3918024547209" lon="12.887426174817652"><ele>395.0</ele><time>2026-05-02T13:36:52Z</time></trkpt><trkpt lat="42.39189687436127" lon="12.887288742646865"><ele>396.5</ele><time>2026-05-02T13:36:53Z</time></trkpt><trkpt lat="42.391967294941125" lon="12.887129399637098"><ele>398.0</ele><time>2026-05-02T13:36:54Z</time></trkpt><trkpt lat="42.39201774448742" lon="12.886962434840596"><ele>399.5</ele><time>2026-05-02T13:36:55Z</time></trkpt><trkpt lat="42.392064475144416" lon="12.886789693400369"><ele>401.0</ele><time>2026-05-02T13:36:56Z</time></trkpt><trkpt lat="42.3921039450367" lon="12.886614419144793"><ele>399.25</ele><time>2026-05-02T13:36:57Z</time></trkpt><trkpt lat="42.39214643932003" lon="12.886441104292512"><ele>397.5</ele><time>2026-05-02T13:36:58Z</time></trkpt><trkpt lat="42.39218838206511" lon="12.886272039028094"><ele>395.75</ele><time>2026-05-02T13:36:59Z</time></trkpt><trkpt lat="42.392218759213854" lon="12.886098198846858"><ele>394.0</ele><time>2026-05-02T13:37:00Z</time></trkpt><trkpt lat="42.39224458629412" lon="12.885918715980162"><ele>394.0</ele><time>2026-05-02T13:37:01Z</time></trkpt><trkpt lat="42.39225804793173" lon="12.885720530783187"><ele>394.0</ele><time>2026-05-02T13:37:02Z</time></trkpt><trkpt lat="42.39227111778809" lon="12.8855195164475"><ele>394.0</ele><time>2026-05-02T13:37:03Z</time></trkpt><trkpt lat="42.392281345741175" lon="12.88532325267637"><ele>394.0</ele><time>2026-05-02T13:37:04Z</time></trkpt><trkpt lat="42.39229518235814" lon="12.885142464323335"><ele>394.6</ele><time>2026-05-02T13:37:05Z</time></trkpt><trkpt lat="42.39231228946821" lon="12.884984139257622"><ele>395.2</ele><time>2026-05-02T13:37:06Z</time></trkpt><trkpt lat="42.39232890261345" lon="12.88483828569748"><ele>395.8</ele><time>2026-05-02T13:37:07Z</time></trkpt><trkpt lat="42.392337505907" lon="12.884693696561184"><ele>396.40000000000003</ele><time>2026-05-02T13:37:08Z</time></trkpt><trkpt lat="42.39235019236963" lon="12.884555475201447"><ele>397.0</ele><time>2026-05-02T13:37:09Z</time></trkpt><trkpt lat="42.39236425004048" lon="12.884407971503878"><ele>397.0</ele><time>2026-05-02T13:37:10Z</time></trkpt><trkpt lat="42.392375504832444" lon="12.884254000186026"><ele>397.0</ele><time>2026-05-02T13:37:11Z</time></trkpt><trkpt lat="42.39238307107164" lon="12.884086558831838"><ele>397.0</ele><time>2026-05-02T13:37:12Z</time></trkpt><trkpt lat="42.39240025814906" lon="12.883909038859809"><ele>397.0</ele><time>2026-05-02T13:37:13Z</time></trkpt><trkpt lat="42.39241797411857" lon="12.883724238747106"><ele>397.0</ele><time>2026-05-02T13:37:14Z</time></trkpt><trkpt lat="42.3924508055074" lon="12.883541469175366"><ele>397.0</ele><time>2026-05-02T13:37:15Z</time></trkpt><trkpt lat="42.39249555123547" lon="12.883352153170469"><ele>397.0</ele><time>2026-05-02T13:37:16Z</time></trkpt><trkpt lat="42.39255417895782" lon="12.883161774410095"><ele>397.0</ele><time>2026-05-02T13:37:17Z</time></trkpt><trkpt lat="42.392612935382964" lon="12.88297794011433"><ele>397.5</ele><time>2026-05-02T13:37:18Z</time></trkpt><trkpt lat="42.392665712883115" lon="12.882811953213139"><ele>398.0</ele><time>2026-05-02T13:37:19Z</time></trkpt><trkpt lat="42.39271599530091" lon="12.882660146953263"><ele>398.5</ele><time>2026-05-02T13:37:20Z</time></trkpt><trkpt lat="42.39277329563014" lon="12.88250195283274"><ele>399.0</ele><time>2026-05-02T13:37:21Z</time></trkpt><trkpt lat="42.392832710704496" lon="12.882335048160913"><ele>397.5</ele><time>2026-05-02T13:37:22Z</time></trkpt><trkpt lat="42.392893607707414" lon="12.88217099424361"><ele>396.0</ele><time>2026-05-02T13:37:23Z</time></trkpt><trkpt lat="42.39294944829815" lon="12.882002669821734"><ele>394.5</ele><time>2026-05-02T13:37:24Z</time></trkpt><trkpt lat="42.3930018020413" lon="12.881848164765291"><ele>393.0</ele><time>2026-05-02T13:37:25Z</time></trkpt><trkpt lat="42.393053733217144" lon="12.881696852742095"><ele>393.0</ele><time>2026-05-02T13:37:26Z</time></trkpt><trkpt lat="42.39311190550857" lon="12.881540893913442"><ele>393.0</ele><time>2026-05-02T13:37:27Z</time></trkpt><trkpt lat="42.393182811649844" lon="12.881392812336225"><ele>393.0</ele><time>2026-05-02T13:37:28Z</time></trkpt><trkpt lat="42.39326310035458" lon="12.88125174540489"><ele>393.0</ele><time>2026-05-02T13:37:29Z</time></trkpt><trkpt lat="42.39335697046614" lon="12.881121073065449"><ele>393.0</ele><time>2026-05-02T13:37:30Z</time></trkpt><trkpt lat="42.3934521311247" lon="12.880994525879622"><ele>393.0</ele><time>2026-05-02T13:37:31Z</time></trkpt><trkpt lat="42.393549255878334" lon="12.880866132881104"><ele>393.0</ele><time>2026-05-02T13:37:32Z</time></trkpt><trkpt lat="42.39363929401294" lon="12.880719255104871"><ele>393.0</ele><time>2026-05-02T13:37:33Z</time></trkpt><trkpt lat="42.39372198304885" lon="12.880569910522441"><ele>393.0</ele><time>2026-05-02T13:37:34Z</time></trkpt><trkpt lat="42.39379186635599" lon="12.880402409349399"><ele>393.0</ele><time>2026-05-02T13:37:35Z</time></trkpt><trkpt lat="42.39385665917386" lon="12.880234276381183"><ele>393.0</ele><time>2026-05-02T13:37:36Z</time></trkpt><trkpt lat="42.39391712090437" lon="12.880060329214336"><ele>393.0</ele><time>2026-05-02T13:37:37Z</time></trkpt><trkpt lat="42.39397440042393" lon="12.879895545669308"><ele>393.0</ele><time>2026-05-02T13:37:38Z</time></trkpt><trkpt lat="42.39402329546181" lon="12.879718009100419"><ele>393.0</ele><time>2026-05-02T13:37:39Z</time></trkpt><trkpt lat="42.39407403100536" lon="12.879547994690528"><ele>393.0</ele><time>2026-05-02T13:37:40Z</time></trkpt><trkpt lat="42.3941150596286" lon="12.879381613891928"><ele>393.0</ele><time>2026-05-02T13:37:41Z</time></trkpt><trkpt lat="42.39415621762616" lon="12.879214621815525"><ele>393.5</ele><time>2026-05-02T13:37:42Z</time></trkpt><trkpt lat="42.39421148044589" lon="12.87904880039657"><ele>394.0</ele><time>2026-05-02T13:37:43Z</time></trkpt><trkpt lat="42.394277328803405" lon="12.878886260263403"><ele>394.5</ele><time>2026-05-02T13:37:44Z</time></trkpt><trkpt lat="42.39434561185775" lon="12.878724116598788"><ele>395.0</ele><time>2026-05-02T13:37:45Z</time></trkpt><trkpt lat="42.394414998663656" lon="12.87855832273932"><ele>398.25</ele><time>2026-05-02T13:37:46Z</time></trkpt><trkpt lat="42.39448101463205" lon="12.87838397182283"><ele>401.5</ele><time>2026-05-02T13:37:47Z</time></trkpt><trkpt lat="42.394545066988194" lon="12.878206050051613"><ele>404.75</ele><time>2026-05-02T13:37:48Z</time></trkpt><trkpt lat="42.39459943035421" lon="12.878021726323196"><ele>408.0</ele><time>2026-05-02T13:37:49Z</time></trkpt><trkpt lat="42.39464501948957" lon="12.877826933507308"><ele>402.0</ele><time>2026-05-02T13:37:50Z</time></trkpt><trkpt lat="42.39468651298947" lon="12.877620708589543"><ele>396.0</ele><time>2026-05-02T13:37:51Z</time></trkpt><trkpt lat="42.394735155090814" lon="12.877402143683943"><ele>390.0</ele><time>2026-05-02T13:37:52Z</time></trkpt><trkpt lat="42.3947830960468" lon="12.877182546646058"><ele>390.0</ele><time>2026-05-02T13:37:53Z</time></trkpt><trkpt lat="42.394830305764366" lon="12.876962935622975"><ele>390.0</ele><time>2026-05-02T13:37:54Z</time></trkpt><trkpt lat="42.39488113238589" lon="12.876741797197075"><ele>390.0</ele><time>2026-05-02T13:37:55Z</time></trkpt><trkpt lat="42.3949327337654" lon="12.876522988068208"><ele>391.66666666666663</ele><time>2026-05-02T13:37:56Z</time></trkpt><trkpt lat="42.39498077218607" lon="12.87630151892567"><ele>393.3333333333333</ele><time>2026-05-02T13:37:57Z</time></trkpt><trkpt lat="42.39503096544197" lon="12.876082695404026"><ele>395.0</ele><time>2026-05-02T13:37:58Z</time></trkpt><trkpt lat="42.39508229717227" lon="12.875866484968254"><ele>397.0</ele><time>2026-05-02T13:37:59Z</time></trkpt><trkpt lat="42.39513301032191" lon="12.875655077880433"><ele>399.0</ele><time>2026-05-02T13:38:00Z</time></trkpt><trkpt lat="42.39518473179214" lon="12.875449272526575"><ele>401.0</ele><time>2026-05-02T13:38:01Z</time></trkpt><trkpt lat="42.39523426113254" lon="12.875263470418327"><ele>403.0</ele><time>2026-05-02T13:38:02Z</time></trkpt><trkpt lat="42.395277880223745" lon="12.875095981933665"><ele>405.0</ele><time>2026-05-02T13:38:03Z</time></trkpt><trkpt lat="42.39532092942694" lon="12.874940350098296"><ele>407.0</ele><time>2026-05-02T13:38:04Z</time></trkpt><trkpt lat="42.39536044846394" lon="12.874799560690475"><ele>409.0</ele><time>2026-05-02T13:38:05Z</time></trkpt><trkpt lat="42.39539908661089" lon="12.874665019211498"><ele>409.0</ele><time>2026-05-02T13:38:06Z</time></trkpt><trkpt lat="42.39543879667374" lon="12.874536374968503"><ele>409.0</ele><time>2026-05-02T13:38:07Z</time></trkpt><trkpt lat="42.39547346862695" lon="12.874418577573726"><ele>409.0</ele><time>2026-05-02T13:38:08Z</time></trkpt><trkpt lat="42.39551185735826" lon="12.874301272398885"><ele>409.0</ele><time>2026-05-02T13:38:09Z</time></trkpt><trkpt lat="42.39556083000834" lon="12.874181213847205"><ele>409.0</ele><time>2026-05-02T13:38:10Z</time></trkpt><trkpt lat="42.395612489563256" lon="12.874057596430992"><ele>406.6</ele><time>2026-05-02T13:38:11Z</time></trkpt><trkpt lat="42.39566488816199" lon="12.873934703649057"><ele>404.2</ele><time>2026-05-02T13:38:12Z</time></trkpt><trkpt lat="42.395716405333154" lon="12.873813012076605"><ele>401.8</ele><time>2026-05-02T13:38:13Z</time></trkpt><trkpt lat="42.39577964280213" lon="12.873704662389475"><ele>399.40000000000003</ele><time>2026-05-02T13:38:14Z</time></trkpt><trkpt lat="42.39584682568765" lon="12.873602715499606"><ele>397.0</ele><time>2026-05-02T13:38:15Z</time></trkpt><trkpt lat="42.39592914291176" lon="12.87350248518047"><ele>399.0</ele><time>2026-05-02T13:38:16Z</time></trkpt><trkpt lat="42.39601134480314" lon="12.87340002444267"><ele>401.0</ele><time>2026-05-02T13:38:17Z</time></trkpt><trkpt lat="42.396081252439" lon="12.873315636307998"><ele>403.0</ele><time>2026-05-02T13:38:18Z</time></trkpt><trkpt lat="42.3961427554828" lon="12.873240594668978"><ele>405.0</ele><time>2026-05-02T13:38:19Z</time></trkpt><trkpt lat="42.39620123101575" lon="12.873186411215146"><ele>407.0</ele><time>2026-05-02T13:38:20Z</time></trkpt><trkpt lat="42.39632903877745" lon="12.873115860178482"><ele>405.3333333333333</ele><time>2026-05-02T13:38:22Z</time></trkpt><trkpt lat="42.39639458091186" lon="12.873105943401603"><ele>403.66666666666663</ele><time>2026-05-02T13:38:23Z</time></trkpt><trkpt lat="42.396467689771335" lon="12.87312623880096"><ele>402.0</ele><time>2026-05-02T13:38:24Z</time></trkpt><trkpt lat="42.396537188312045" lon="12.873204830276695"><ele>400.33333333333337</ele><time>2026-05-02T13:38:25Z</time></trkpt><trkpt lat="42.3965883030289" lon="12.873297445218107"><ele>398.6666666666667</ele><time>2026-05-02T13:38:26Z</time></trkpt><trkpt lat="42.396616588832096" lon="12.873421484184977"><ele>397.0</ele><time>2026-05-02T13:38:27Z</time></trkpt><trkpt lat="42.396638321164936" lon="12.873564489401335"><ele>396.20000000000005</ele><time>2026-05-02T13:38:28Z</time></trkpt><trkpt lat="42.396655241135846" lon="12.873694531018094"><ele>395.4</ele><time>2026-05-02T13:38:29Z</time></trkpt><trkpt lat="42.39667927177124" lon="12.87382205645836"><ele>394.6</ele><time>2026-05-02T13:38:30Z</time></trkpt><trkpt lat="42.396678780289015" lon="12.87394772619648"><ele>393.79999999999995</ele><time>2026-05-02T13:38:31Z</time></trkpt><trkpt lat="42.39669047226549" lon="12.874062581487056"><ele>393.0</ele><time>2026-05-02T13:38:32Z</time></trkpt><trkpt lat="42.396693646509114" lon="12.874170729278147"><ele>393.0</ele><time>2026-05-02T13:38:33Z</time></trkpt><trkpt lat="42.39669112992009" lon="12.874280709497755"><ele>393.0</ele><time>2026-05-02T13:38:34Z</time></trkpt><trkpt lat="42.3966528472146" lon="12.87437940755623"><ele>393.0</ele><time>2026-05-02T13:38:35Z</time></trkpt><trkpt lat="42.396591525041075" lon="12.874462156027759"><ele>393.0</ele><time>2026-05-02T13:38:36Z</time></trkpt><trkpt lat="42.39652974886754" lon="12.874515364998196"><ele>393.0</ele><time>2026-05-02T13:38:37Z</time></trkpt><trkpt lat="42.396466005914014" lon="12.874542765741925"><ele>393.0</ele><time>2026-05-02T13:38:38Z</time></trkpt><trkpt lat="42.39639296818915" lon="12.874550755395582"><ele>393.59999999999997</ele><time>2026-05-02T13:38:39Z</time></trkpt><trkpt lat="42.39632340782941" lon="12.874527200616567"><ele>394.2</ele><time>2026-05-02T13:38:40Z</time></trkpt><trkpt lat="42.39624345033354" lon="12.8744593410301"><ele>394.8</ele><time>2026-05-02T13:38:42Z</time></trkpt><trkpt lat="42.39618799949976" lon="12.874377289584181"><ele>395.4</ele><time>2026-05-02T13:38:46Z</time></trkpt><trkpt lat="42.39613407241494" lon="12.87423470113442"><ele>396.0</ele><time>2026-05-02T13:38:48Z</time></trkpt><trkpt lat="42.396106181463615" lon="12.874109243114503"><ele>396.33333333333337</ele><time>2026-05-02T13:38:49Z</time></trkpt><trkpt lat="42.39607634865051" lon="12.873956567718393"><ele>396.6666666666667</ele><time>2026-05-02T13:38:50Z</time></trkpt><trkpt lat="42.39603414324919" lon="12.873728375390339"><ele>397.0</ele><time>2026-05-02T13:38:51Z</time></trkpt><trkpt lat="42.39599845643213" lon="12.873451595813387"><ele>402.0</ele><time>2026-05-02T13:38:52Z</time></trkpt><trkpt lat="42.39595776169968" lon="12.873146108344956"><ele>407.0</ele><time>2026-05-02T13:38:53Z</time></trkpt><trkpt lat="42.395909158722624" lon="12.872799451963612"><ele>423.5</ele><time>2026-05-02T13:38:54Z</time></trkpt><trkpt lat="42.395855879834244" lon="12.872425104940337"><ele>440.0</ele><time>2026-05-02T13:38:55Z</time></trkpt><trkpt lat="42.39579716752967" lon="12.872010135772486"><ele>458.5</ele><time>2026-05-02T13:38:56Z</time></trkpt><trkpt lat="42.39573725575102" lon="12.871578807054705"><ele>477.0</ele><time>2026-05-02T13:38:57.015Z</time></trkpt><trkpt lat="42.3956726660725" lon="12.871143306161766"><ele>489.0</ele><time>2026-05-02T13:38:58.021Z</time></trkpt><trkpt lat="42.395605772536534" lon="12.87071407181973"><ele>501.0</ele><time>2026-05-02T13:38:59.018Z</time></trkpt><trkpt lat="42.39553791792849" lon="12.870283457557587"><ele>407.0</ele><time>2026-05-02T13:39:00.019Z</time></trkpt><trkpt lat="42.394779184872654" lon="12.864761156973303"><ele>407.0</ele><time>2026-05-02T13:39:15Z</time></trkpt><trkpt lat="42.394730310245556" lon="12.864429672356032"><ele>407.0</ele><time>2026-05-02T13:39:16Z</time></trkpt><trkpt lat="42.39463467808699" lon="12.864009207212145"><ele>402.0</ele><time>2026-05-02T13:39:17Z</time></trkpt><trkpt lat="42.39458279799045" lon="12.86373797364414"><ele>397.0</ele><time>2026-05-02T13:39:18Z</time></trkpt><trkpt lat="42.394507389937594" lon="12.863460090706578"><ele>392.0</ele><time>2026-05-02T13:39:19Z</time></trkpt><trkpt lat="42.394424289999165" lon="12.863171747071053"><ele>392.0</ele><time>2026-05-02T13:39:20Z</time></trkpt><trkpt lat="42.394334504228844" lon="12.862893472628949"><ele>392.0</ele><time>2026-05-02T13:39:21Z</time></trkpt><trkpt lat="42.394240676229714" lon="12.862638477280356"><ele>392.0</ele><time>2026-05-02T13:39:22Z</time></trkpt><trkpt lat="42.394142144724256" lon="12.862394412307275"><ele>392.0</ele><time>2026-05-02T13:39:23Z</time></trkpt><trkpt lat="42.394046976738984" lon="12.862157620676802"><ele>392.0</ele><time>2026-05-02T13:39:24Z</time></trkpt><trkpt lat="42.39395282530942" lon="12.861925925282476"><ele>392.0</ele><time>2026-05-02T13:39:25Z</time></trkpt><trkpt lat="42.393865205827304" lon="12.86170006317486"><ele>390.66666666666663</ele><time>2026-05-02T13:39:26Z</time></trkpt><trkpt lat="42.39378482682658" lon="12.861477109641765"><ele>389.33333333333337</ele><time>2026-05-02T13:39:27Z</time></trkpt><trkpt lat="42.39370598816259" lon="12.861247744829786"><ele>388.0</ele><time>2026-05-02T13:39:28Z</time></trkpt><trkpt lat="42.393632424052775" lon="12.861010777021482"><ele>388.33333333333337</ele><time>2026-05-02T13:39:29Z</time></trkpt><trkpt lat="42.39355947634761" lon="12.860767210912847"><ele>388.66666666666663</ele><time>2026-05-02T13:39:30Z</time></trkpt><trkpt lat="42.39349844020409" lon="12.860514065312477"><ele>389.0</ele><time>2026-05-02T13:39:31Z</time></trkpt><trkpt lat="42.393447903183706" lon="12.860255633050095"><ele>388.66666666666663</ele><time>2026-05-02T13:39:32Z</time></trkpt><trkpt lat="42.39339804128205" lon="12.859992100571423"><ele>388.33333333333337</ele><time>2026-05-02T13:39:33Z</time></trkpt><trkpt lat="42.39335643892089" lon="12.859704077238794"><ele>388.0</ele><time>2026-05-02T13:39:34Z</time></trkpt><trkpt lat="42.393312758213504" lon="12.85939766166293"><ele>389.0</ele><time>2026-05-02T13:39:35Z</time></trkpt><trkpt lat="42.39328412923976" lon="12.859071311512398"><ele>390.0</ele><time>2026-05-02T13:39:36Z</time></trkpt><trkpt lat="42.39328878478916" lon="12.858725942855077"><ele>389.0</ele><time>2026-05-02T13:39:37Z</time></trkpt><trkpt lat="42.393309499214126" lon="12.85837975542814"><ele>388.0</ele><time>2026-05-02T13:39:38Z</time></trkpt><trkpt lat="42.39332748484384" lon="12.85802787318874"><ele>388.0</ele><time>2026-05-02T13:39:39Z</time></trkpt><trkpt lat="42.39333774485138" lon="12.857677647290402"><ele>388.0</ele><time>2026-05-02T13:39:40Z</time></trkpt><trkpt lat="42.39334375818993" lon="12.857325922365746"><ele>387.5</ele><time>2026-05-02T13:39:41Z</time></trkpt><trkpt lat="42.39335793233847" lon="12.856981679233641"><ele>387.0</ele><time>2026-05-02T13:39:42Z</time></trkpt><trkpt lat="42.39337037737364" lon="12.8566415979033"><ele>387.0</ele><time>2026-05-02T13:39:43Z</time></trkpt><trkpt lat="42.39338447231689" lon="12.856303082332552"><ele>387.0</ele><time>2026-05-02T13:39:44Z</time></trkpt><trkpt lat="42.39339628157718" lon="12.855964687769365"><ele>388.0</ele><time>2026-05-02T13:39:45Z</time></trkpt><trkpt lat="42.393405601978536" lon="12.85562499312031"><ele>389.0</ele><time>2026-05-02T13:39:46Z</time></trkpt><trkpt lat="42.393413518607936" lon="12.855284925349773"><ele>388.5</ele><time>2026-05-02T13:39:47Z</time></trkpt><trkpt lat="42.393421973292014" lon="12.854935994527835"><ele>388.0</ele><time>2026-05-02T13:39:48Z</time></trkpt><trkpt lat="42.39343060240692" lon="12.854586783814879"><ele>387.0</ele><time>2026-05-02T13:39:49Z</time></trkpt><trkpt lat="42.39343711900863" lon="12.854239343564595"><ele>386.0</ele><time>2026-05-02T13:39:50Z</time></trkpt><trkpt lat="42.39343317619878" lon="12.853897908102336"><ele>386.0</ele><time>2026-05-02T13:39:51Z</time></trkpt><trkpt lat="42.39341879265989" lon="12.853595563832132"><ele>386.0</ele><time>2026-05-02T13:39:52Z</time></trkpt><trkpt lat="42.39340499133831" lon="12.853313415255524"><ele>386.0</ele><time>2026-05-02T13:39:53Z</time></trkpt><trkpt lat="42.39338237573026" lon="12.853051691574883"><ele>386.0</ele><time>2026-05-02T13:39:54Z</time></trkpt><trkpt lat="42.393352369224374" lon="12.852797344981436"><ele>386.0</ele><time>2026-05-02T13:39:55Z</time></trkpt><trkpt lat="42.393315857790306" lon="12.852537632480628"><ele>386.0</ele><time>2026-05-02T13:39:56Z</time></trkpt><trkpt lat="42.39327300646396" lon="12.852276565124901"><ele>386.0</ele><time>2026-05-02T13:39:57Z</time></trkpt><trkpt lat="42.393220181340276" lon="12.85201957229317"><ele>386.0</ele><time>2026-05-02T13:39:58Z</time></trkpt><trkpt lat="42.39314836707446" lon="12.851758714685397"><ele>386.0</ele><time>2026-05-02T13:39:59Z</time></trkpt><trkpt lat="42.39306786210328" lon="12.851494469450483"><ele>386.0</ele><time>2026-05-02T13:40:00Z</time></trkpt><trkpt lat="42.39297929868074" lon="12.851223837605477"><ele>386.0</ele><time>2026-05-02T13:40:01Z</time></trkpt><trkpt lat="42.392887912258075" lon="12.850952434585142"><ele>386.0</ele><time>2026-05-02T13:40:02Z</time></trkpt><trkpt lat="42.39278704830094" lon="12.850682429919733"><ele>385.5</ele><time>2026-05-02T13:40:03Z</time></trkpt><trkpt lat="42.39267787753471" lon="12.850414177132306"><ele>385.0</ele><time>2026-05-02T13:40:04Z</time></trkpt><trkpt lat="42.39255994300967" lon="12.850147211044419"><ele>386.0</ele><time>2026-05-02T13:40:05Z</time></trkpt><trkpt lat="42.39243313801974" lon="12.849883218887872"><ele>387.0</ele><time>2026-05-02T13:40:06Z</time></trkpt><trkpt lat="42.39231085694622" lon="12.849614511264067"><ele>387.0</ele><time>2026-05-02T13:40:07Z</time></trkpt><trkpt lat="42.3921906168822" lon="12.849347214147233"><ele>387.0</ele><time>2026-05-02T13:40:08Z</time></trkpt><trkpt lat="42.39206560631435" lon="12.849080856890591"><ele>387.0</ele><time>2026-05-02T13:40:09Z</time></trkpt><trkpt lat="42.39193996877022" lon="12.848816615739471"><ele>387.0</ele><time>2026-05-02T13:40:10Z</time></trkpt><trkpt lat="42.39181852420729" lon="12.848556992883239"><ele>387.0</ele><time>2026-05-02T13:40:11Z</time></trkpt><trkpt lat="42.39169685848546" lon="12.848300797782183"><ele>387.0</ele><time>2026-05-02T13:40:12Z</time></trkpt><trkpt lat="42.39158147818202" lon="12.848050629393759"><ele>387.0</ele><time>2026-05-02T13:40:13Z</time></trkpt><trkpt lat="42.39147359702209" lon="12.847807538276307"><ele>386.66666666666663</ele><time>2026-05-02T13:40:14Z</time></trkpt><trkpt lat="42.391370493030806" lon="12.847558304991681"><ele>386.3333333333333</ele><time>2026-05-02T13:40:15Z</time></trkpt><trkpt lat="42.39127731986553" lon="12.847304203600864"><ele>386.0</ele><time>2026-05-02T13:40:16Z</time></trkpt><trkpt lat="42.3911920758409" lon="12.847055146066042"><ele>386.0</ele><time>2026-05-02T13:40:17Z</time></trkpt><trkpt lat="42.391109932757516" lon="12.846805524104031"><ele>386.0</ele><time>2026-05-02T13:40:18Z</time></trkpt><trkpt lat="42.39104231806575" lon="12.84656362328394"><ele>386.0</ele><time>2026-05-02T13:40:19Z</time></trkpt><trkpt lat="42.39098382630915" lon="12.846327661221219"><ele>386.0</ele><time>2026-05-02T13:40:20Z</time></trkpt><trkpt lat="42.39092730863941" lon="12.846088961782879"><ele>386.0</ele><time>2026-05-02T13:40:21Z</time></trkpt><trkpt lat="42.390873748788636" lon="12.845846747502678"><ele>386.0</ele><time>2026-05-02T13:40:22Z</time></trkpt><trkpt lat="42.39082454381579" lon="12.84560219977673"><ele>385.66666666666663</ele><time>2026-05-02T13:40:23Z</time></trkpt><trkpt lat="42.390782421852656" lon="12.845355695963812"><ele>385.33333333333337</ele><time>2026-05-02T13:40:24Z</time></trkpt><trkpt lat="42.39074643213234" lon="12.8451082202664"><ele>385.0</ele><time>2026-05-02T13:40:25Z</time></trkpt><trkpt lat="42.39071553728413" lon="12.844860608961088"><ele>385.0</ele><time>2026-05-02T13:40:26Z</time></trkpt><trkpt lat="42.390689694795135" lon="12.844608204852102"><ele>385.0</ele><time>2026-05-02T13:40:27Z</time></trkpt><trkpt lat="42.39066784660881" lon="12.844353417011355"><ele>385.0</ele><time>2026-05-02T13:40:28Z</time></trkpt><trkpt lat="42.39064848865619" lon="12.844085206685051"><ele>385.33333333333337</ele><time>2026-05-02T13:40:29Z</time></trkpt><trkpt lat="42.390633979123734" lon="12.84379850518753"><ele>385.66666666666663</ele><time>2026-05-02T13:40:30Z</time></trkpt><trkpt lat="42.39061708123424" lon="12.843498057805089"><ele>386.0</ele><time>2026-05-02T13:40:31Z</time></trkpt><trkpt lat="42.39059524811957" lon="12.843184934618419"><ele>386.5</ele><time>2026-05-02T13:40:32Z</time></trkpt><trkpt lat="42.390576884772344" lon="12.842858656696585"><ele>387.0</ele><time>2026-05-02T13:40:33Z</time></trkpt><trkpt lat="42.39056472842801" lon="12.842531365305367"><ele>387.0</ele><time>2026-05-02T13:40:34Z</time></trkpt><trkpt lat="42.39055637263798" lon="12.84220391631849"><ele>387.0</ele><time>2026-05-02T13:40:35Z</time></trkpt><trkpt lat="42.39054322021107" lon="12.841878859562257"><ele>387.5</ele><time>2026-05-02T13:40:36Z</time></trkpt><trkpt lat="42.39052642583011" lon="12.8415573855119"><ele>388.0</ele><time>2026-05-02T13:40:37Z</time></trkpt><trkpt lat="42.3905176099097" lon="12.841241665886564"><ele>387.5</ele><time>2026-05-02T13:40:38Z</time></trkpt><trkpt lat="42.39052161862762" lon="12.84092666314691"><ele>387.0</ele><time>2026-05-02T13:40:39Z</time></trkpt><trkpt lat="42.39052707220392" lon="12.840607996474745"><ele>387.0</ele><time>2026-05-02T13:40:40Z</time></trkpt><trkpt lat="42.3905370530757" lon="12.840287188270985"><ele>387.0</ele><time>2026-05-02T13:40:41Z</time></trkpt><trkpt lat="42.390565917973625" lon="12.839974023190775"><ele>386.5</ele><time>2026-05-02T13:40:42Z</time></trkpt><trkpt lat="42.390608647355236" lon="12.839665390704596"><ele>386.0</ele><time>2026-05-02T13:40:43Z</time></trkpt><trkpt lat="42.390663547061735" lon="12.839360852996691"><ele>386.0</ele><time>2026-05-02T13:40:44Z</time></trkpt><trkpt lat="42.39072895635929" lon="12.83905960214422"><ele>386.0</ele><time>2026-05-02T13:40:45Z</time></trkpt><trkpt lat="42.39080891734326" lon="12.8387629996781"><ele>386.0</ele><time>2026-05-02T13:40:46Z</time></trkpt><trkpt lat="42.39090266099293" lon="12.838469636804636"><ele>386.0</ele><time>2026-05-02T13:40:47Z</time></trkpt><trkpt lat="42.39100908803427" lon="12.838182305127171"><ele>386.5</ele><time>2026-05-02T13:40:48Z</time></trkpt><trkpt lat="42.39112787539348" lon="12.83790600998124"><ele>387.0</ele><time>2026-05-02T13:40:49Z</time></trkpt><trkpt lat="42.39124784886059" lon="12.83763691243399"><ele>386.5</ele><time>2026-05-02T13:40:50Z</time></trkpt><trkpt lat="42.3913636323699" lon="12.83736494131702"><ele>386.0</ele><time>2026-05-02T13:40:51Z</time></trkpt><trkpt lat="42.391478903101046" lon="12.837095466546828"><ele>386.0</ele><time>2026-05-02T13:40:52Z</time></trkpt><trkpt lat="42.391589078751366" lon="12.83682226389674"><ele>386.0</ele><time>2026-05-02T13:40:53Z</time></trkpt><trkpt lat="42.391693215922565" lon="12.836552687974503"><ele>386.0</ele><time>2026-05-02T13:40:54Z</time></trkpt><trkpt lat="42.3917831474009" lon="12.836275831771472"><ele>386.0</ele><time>2026-05-02T13:40:55Z</time></trkpt><trkpt lat="42.39186744685914" lon="12.835996480300505"><ele>386.0</ele><time>2026-05-02T13:40:56Z</time></trkpt><trkpt lat="42.391945497898476" lon="12.835716265544269"><ele>386.0</ele><time>2026-05-02T13:40:57Z</time></trkpt><trkpt lat="42.39201162679446" lon="12.835448592431415"><ele>386.0</ele><time>2026-05-02T13:40:58Z</time></trkpt><trkpt lat="42.39205991866502" lon="12.835188849302392"><ele>386.0</ele><time>2026-05-02T13:40:59Z</time></trkpt><trkpt lat="42.39210078359016" lon="12.83494110927541"><ele>385.66666666666663</ele><time>2026-05-02T13:41:00Z</time></trkpt><trkpt lat="42.39213473259434" lon="12.834699548049214"><ele>385.33333333333337</ele><time>2026-05-02T13:41:01Z</time></trkpt><trkpt lat="42.39215846889358" lon="12.834469139009427"><ele>385.0</ele><time>2026-05-02T13:41:02Z</time></trkpt><trkpt lat="42.39217858175444" lon="12.83424753840406"><ele>384.6666666666667</ele><time>2026-05-02T13:41:03Z</time></trkpt><trkpt lat="42.39219237045076" lon="12.834040044136506"><ele>384.33333333333337</ele><time>2026-05-02T13:41:04Z</time></trkpt><trkpt lat="42.39219412397925" lon="12.833809496836565"><ele>384.0</ele><time>2026-05-02T13:41:05Z</time></trkpt><trkpt lat="42.392192973593886" lon="12.833582057816427"><ele>384.0</ele><time>2026-05-02T13:41:06Z</time></trkpt><trkpt lat="42.392185127351674" lon="12.833354266180333"><ele>384.0</ele><time>2026-05-02T13:41:07Z</time></trkpt><trkpt lat="42.3921683769864" lon="12.83312536088747"><ele>384.0</ele><time>2026-05-02T13:41:08Z</time></trkpt><trkpt lat="42.39214942771756" lon="12.832895600775203"><ele>384.0</ele><time>2026-05-02T13:41:09Z</time></trkpt><trkpt lat="42.392124908189494" lon="12.832664405061124"><ele>384.0</ele><time>2026-05-02T13:41:10Z</time></trkpt><trkpt lat="42.39209964311646" lon="12.832431428179742"><ele>384.0</ele><time>2026-05-02T13:41:11Z</time></trkpt><trkpt lat="42.3920722516555" lon="12.832195034937701"><ele>384.66666666666663</ele><time>2026-05-02T13:41:12Z</time></trkpt><trkpt lat="42.392046280493574" lon="12.83196146097997"><ele>385.3333333333333</ele><time>2026-05-02T13:41:13Z</time></trkpt><trkpt lat="42.39201763487348" lon="12.831725276179831"><ele>386.0</ele><time>2026-05-02T13:41:14Z</time></trkpt><trkpt lat="42.39198757330831" lon="12.831484346526748"><ele>386.0</ele><time>2026-05-02T13:41:15Z</time></trkpt><trkpt lat="42.39195821746662" lon="12.831239336498697"><ele>386.0</ele><time>2026-05-02T13:41:16Z</time></trkpt><trkpt lat="42.39192694604394" lon="12.830984245594871"><ele>386.0</ele><time>2026-05-02T13:41:17Z</time></trkpt><trkpt lat="42.391898265819" lon="12.830729045211045"><ele>385.66666666666663</ele><time>2026-05-02T13:41:18Z</time></trkpt><trkpt lat="42.39187497639239" lon="12.830470599975804"><ele>385.33333333333337</ele><time>2026-05-02T13:41:19Z</time></trkpt><trkpt lat="42.391853855584436" lon="12.830206649158345"><ele>385.0</ele><time>2026-05-02T13:41:20Z</time></trkpt><trkpt lat="42.391839120369305" lon="12.829928553242347"><ele>384.6666666666667</ele><time>2026-05-02T13:41:21Z</time></trkpt><trkpt lat="42.391827683746214" lon="12.829644165168162"><ele>384.33333333333337</ele><time>2026-05-02T13:41:22Z</time></trkpt><trkpt lat="42.391825522478435" lon="12.82935377529933"><ele>384.0</ele><time>2026-05-02T13:41:23Z</time></trkpt><trkpt lat="42.391818207120835" lon="12.829049124461939"><ele>383.5</ele><time>2026-05-02T13:41:24Z</time></trkpt><trkpt lat="42.39181538062018" lon="12.828744163825808"><ele>383.0</ele><time>2026-05-02T13:41:25Z</time></trkpt><trkpt lat="42.39181886369595" lon="12.828433254486793"><ele>383.0</ele><time>2026-05-02T13:41:26Z</time></trkpt><trkpt lat="42.391822972396916" lon="12.828133289995563"><ele>383.0</ele><time>2026-05-02T13:41:27Z</time></trkpt><trkpt lat="42.3918261101815" lon="12.82782338240755"><ele>382.5</ele><time>2026-05-02T13:41:28Z</time></trkpt><trkpt lat="42.39182643219151" lon="12.827513001914847"><ele>382.0</ele><time>2026-05-02T13:41:29Z</time></trkpt><trkpt lat="42.39182669430219" lon="12.827208611761915"><ele>382.0</ele><time>2026-05-02T13:41:30Z</time></trkpt><trkpt lat="42.39182638429039" lon="12.826903951349584"><ele>382.0</ele><time>2026-05-02T13:41:31Z</time></trkpt><trkpt lat="42.39182280903691" lon="12.82659495082046"><ele>382.5</ele><time>2026-05-02T13:41:32Z</time></trkpt><trkpt lat="42.39181697178244" lon="12.826283056116004"><ele>383.0</ele><time>2026-05-02T13:41:33Z</time></trkpt><trkpt lat="42.39181521305323" lon="12.825972417429535"><ele>383.5</ele><time>2026-05-02T13:41:34Z</time></trkpt><trkpt lat="42.39181457203708" lon="12.825661193185294"><ele>384.0</ele><time>2026-05-02T13:41:35Z</time></trkpt><trkpt lat="42.39181354412895" lon="12.825349001962872"><ele>383.5</ele><time>2026-05-02T13:41:36Z</time></trkpt><trkpt lat="42.39181152897206" lon="12.8250357743432"><ele>383.0</ele><time>2026-05-02T13:41:37Z</time></trkpt><trkpt lat="42.391811374055735" lon="12.824719443453475"><ele>383.0</ele><time>2026-05-02T13:41:38Z</time></trkpt><trkpt lat="42.39180881926247" lon="12.824401059155964"><ele>383.0</ele><time>2026-05-02T13:41:39Z</time></trkpt><trkpt lat="42.39180634350578" lon="12.824080091448481"><ele>383.0</ele><time>2026-05-02T13:41:40Z</time></trkpt><trkpt lat="42.3918017881929" lon="12.823756852854705"><ele>383.0</ele><time>2026-05-02T13:41:41Z</time></trkpt><trkpt lat="42.391798981788845" lon="12.823431464857835"><ele>383.0</ele><time>2026-05-02T13:41:42Z</time></trkpt><trkpt lat="42.39179436561397" lon="12.823104551099913"><ele>383.0</ele><time>2026-05-02T13:41:43Z</time></trkpt><trkpt lat="42.39178839920807" lon="12.82277463322063"><ele>383.0</ele><time>2026-05-02T13:41:44Z</time></trkpt><trkpt lat="42.39178354781681" lon="12.822443092246816"><ele>383.0</ele><time>2026-05-02T13:41:45Z</time></trkpt><trkpt lat="42.391778488242636" lon="12.822114804540858"><ele>382.5</ele><time>2026-05-02T13:41:46Z</time></trkpt><trkpt lat="42.39177889764484" lon="12.821784976909337"><ele>382.0</ele><time>2026-05-02T13:41:47Z</time></trkpt><trkpt lat="42.391778545036814" lon="12.821459152044149"><ele>382.0</ele><time>2026-05-02T13:41:48Z</time></trkpt><trkpt lat="42.39177770656258" lon="12.821128583539808"><ele>382.0</ele><time>2026-05-02T13:41:49Z</time></trkpt><trkpt lat="42.391776002251284" lon="12.820792434536683"><ele>382.0</ele><time>2026-05-02T13:41:50Z</time></trkpt><trkpt lat="42.39177649185064" lon="12.820452377968271"><ele>382.0</ele><time>2026-05-02T13:41:51Z</time></trkpt><trkpt lat="42.391773527608215" lon="12.820119249287393"><ele>382.0</ele><time>2026-05-02T13:41:52Z</time></trkpt><trkpt lat="42.3917664948594" lon="12.819792837123003"><ele>382.0</ele><time>2026-05-02T13:41:53Z</time></trkpt><trkpt lat="42.391764856224896" lon="12.819470536638038"><ele>382.5</ele><time>2026-05-02T13:41:54Z</time></trkpt><trkpt lat="42.391760376662276" lon="12.81914155916686"><ele>383.0</ele><time>2026-05-02T13:41:55Z</time></trkpt><trkpt lat="42.39175364731942" lon="12.818816261365514"><ele>383.0</ele><time>2026-05-02T13:41:56Z</time></trkpt><trkpt lat="42.3917489088274" lon="12.818491035877555"><ele>383.0</ele><time>2026-05-02T13:41:57Z</time></trkpt><trkpt lat="42.391747492266155" lon="12.818162046087124"><ele>383.0</ele><time>2026-05-02T13:41:58Z</time></trkpt><trkpt lat="42.391741705944604" lon="12.817843180979331"><ele>383.0</ele><time>2026-05-02T13:41:59Z</time></trkpt><trkpt lat="42.39175148157224" lon="12.817515321140572"><ele>383.0</ele><time>2026-05-02T13:42:00Z</time></trkpt><trkpt lat="42.39175339070962" lon="12.81719220516123"><ele>383.0</ele><time>2026-05-02T13:42:01Z</time></trkpt><trkpt lat="42.391744031578796" lon="12.81686276266409"><ele>383.0</ele><time>2026-05-02T13:42:02Z</time></trkpt><trkpt lat="42.39176091045172" lon="12.816535046798721"><ele>383.0</ele><time>2026-05-02T13:42:03Z</time></trkpt><trkpt lat="42.391782849097595" lon="12.816203144955843"><ele>383.0</ele><time>2026-05-02T13:42:04Z</time></trkpt><trkpt lat="42.391804302041606" lon="12.815872167446924"><ele>383.0</ele><time>2026-05-02T13:42:05Z</time></trkpt><trkpt lat="42.39182750843715" lon="12.815543115779944"><ele>383.0</ele><time>2026-05-02T13:42:06Z</time></trkpt><trkpt lat="42.39185562369964" lon="12.81521081042323"><ele>383.0</ele><time>2026-05-02T13:42:07Z</time></trkpt><trkpt lat="42.391889368238026" lon="12.814880356432383"><ele>383.0</ele><time>2026-05-02T13:42:08Z</time></trkpt><trkpt lat="42.39192839164341" lon="12.814551339321858"><ele>383.0</ele><time>2026-05-02T13:42:09Z</time></trkpt><trkpt lat="42.39197122939682" lon="12.81422363558135"><ele>383.0</ele><time>2026-05-02T13:42:10Z</time></trkpt><trkpt lat="42.392019401273345" lon="12.813897686471059"><ele>383.0</ele><time>2026-05-02T13:42:11Z</time></trkpt><trkpt lat="42.39207139091625" lon="12.813571345526737"><ele>383.0</ele><time>2026-05-02T13:42:12Z</time></trkpt><trkpt lat="42.39212657863764" lon="12.81324697674487"><ele>383.0</ele><time>2026-05-02T13:42:13Z</time></trkpt><trkpt lat="42.39218197158848" lon="12.81292371622307"><ele>383.0</ele><time>2026-05-02T13:42:14Z</time></trkpt><trkpt lat="42.392240475011604" lon="12.812605665844027"><ele>383.0</ele><time>2026-05-02T13:42:15Z</time></trkpt><trkpt lat="42.39230681363002" lon="12.812292387877172"><ele>383.0</ele><time>2026-05-02T13:42:16Z</time></trkpt><trkpt lat="42.39238171959823" lon="12.81198492587072"><ele>383.0</ele><time>2026-05-02T13:42:17Z</time></trkpt><trkpt lat="42.39245739424577" lon="12.811681511829907"><ele>382.5</ele><time>2026-05-02T13:42:18Z</time></trkpt><trkpt lat="42.39253359926241" lon="12.811378429123904"><ele>382.0</ele><time>2026-05-02T13:42:19Z</time></trkpt><trkpt lat="42.39261333988659" lon="12.81108057892258"><ele>381.0</ele><time>2026-05-02T13:42:20Z</time></trkpt><trkpt lat="42.392696316723956" lon="12.810785365855782"><ele>380.0</ele><time>2026-05-02T13:42:21Z</time></trkpt><trkpt lat="42.39278235251425" lon="12.810494600825187"><ele>380.0</ele><time>2026-05-02T13:42:22Z</time></trkpt><trkpt lat="42.39287478376012" lon="12.81020694410023"><ele>380.0</ele><time>2026-05-02T13:42:23Z</time></trkpt><trkpt lat="42.392966981871126" lon="12.809919798498049"><ele>381.0</ele><time>2026-05-02T13:42:24Z</time></trkpt><trkpt lat="42.393059634713396" lon="12.809637816407047"><ele>382.0</ele><time>2026-05-02T13:42:25Z</time></trkpt><trkpt lat="42.393162951129895" lon="12.80935568965821"><ele>383.0</ele><time>2026-05-02T13:42:26Z</time></trkpt><trkpt lat="42.393272414784214" lon="12.80907956055185"><ele>384.0</ele><time>2026-05-02T13:42:27Z</time></trkpt><trkpt lat="42.39338093697874" lon="12.808804752227353"><ele>384.0</ele><time>2026-05-02T13:42:28Z</time></trkpt><trkpt lat="42.39349029076892" lon="12.808529588110106"><ele>384.0</ele><time>2026-05-02T13:42:29Z</time></trkpt><trkpt lat="42.393604563066496" lon="12.808256489889217"><ele>383.0</ele><time>2026-05-02T13:42:30Z</time></trkpt><trkpt lat="42.393726094161316" lon="12.807988926316279"><ele>382.0</ele><time>2026-05-02T13:42:31Z</time></trkpt><trkpt lat="42.393849197617094" lon="12.807723036152726"><ele>381.5</ele><time>2026-05-02T13:42:32Z</time></trkpt><trkpt lat="42.39397210375341" lon="12.807458704323741"><ele>381.0</ele><time>2026-05-02T13:42:33Z</time></trkpt><trkpt lat="42.394097519423944" lon="12.807198894853954"><ele>381.0</ele><time>2026-05-02T13:42:34Z</time></trkpt><trkpt lat="42.39422052923725" lon="12.806934403147626"><ele>381.0</ele><time>2026-05-02T13:42:35Z</time></trkpt><trkpt lat="42.39434538068346" lon="12.80667332998682"><ele>381.0</ele><time>2026-05-02T13:42:36Z</time></trkpt><trkpt lat="42.39447058773797" lon="12.80641528303839"><ele>381.0</ele><time>2026-05-02T13:42:37Z</time></trkpt><trkpt lat="42.39459503505179" lon="12.806155254587214"><ele>380.5</ele><time>2026-05-02T13:42:38Z</time></trkpt><trkpt lat="42.394719928499384" lon="12.805896350342968"><ele>380.0</ele><time>2026-05-02T13:42:39Z</time></trkpt><trkpt lat="42.39484241274738" lon="12.80564168013851"><ele>380.0</ele><time>2026-05-02T13:42:40Z</time></trkpt><trkpt lat="42.394964517119426" lon="12.805388608732843"><ele>380.0</ele><time>2026-05-02T13:42:41Z</time></trkpt><trkpt lat="42.39508695511378" lon="12.80513839615851"><ele>380.0</ele><time>2026-05-02T13:42:42Z</time></trkpt><trkpt lat="42.39520799620146" lon="12.804888998346563"><ele>380.0</ele><time>2026-05-02T13:42:43Z</time></trkpt><trkpt lat="42.395328072549916" lon="12.80464118525998"><ele>380.0</ele><time>2026-05-02T13:42:44Z</time></trkpt><trkpt lat="42.39544865892405" lon="12.804395536376129"><ele>380.0</ele><time>2026-05-02T13:42:45Z</time></trkpt><trkpt lat="42.3955679759181" lon="12.804152350100027"><ele>380.33333333333337</ele><time>2026-05-02T13:42:46Z</time></trkpt><trkpt lat="42.395684912944084" lon="12.803907309836186"><ele>380.6666666666667</ele><time>2026-05-02T13:42:47Z</time></trkpt><trkpt lat="42.39580021104578" lon="12.80366079369964"><ele>381.0</ele><time>2026-05-02T13:42:48Z</time></trkpt><trkpt lat="42.39591698742884" lon="12.803411419198362"><ele>381.3333333333333</ele><time>2026-05-02T13:42:49Z</time></trkpt><trkpt lat="42.39603420505554" lon="12.80316629153214"><ele>381.66666666666663</ele><time>2026-05-02T13:42:50Z</time></trkpt><trkpt lat="42.396153938922794" lon="12.802923905532378"><ele>382.0</ele><time>2026-05-02T13:42:51Z</time></trkpt><trkpt lat="42.39627243730968" lon="12.802682656622963"><ele>382.0</ele><time>2026-05-02T13:42:52Z</time></trkpt><trkpt lat="42.39638696480726" lon="12.802439175870965"><ele>382.0</ele><time>2026-05-02T13:42:53Z</time></trkpt><trkpt lat="42.39650113003416" lon="12.802195928410665"><ele>382.0</ele><time>2026-05-02T13:42:54Z</time></trkpt><trkpt lat="42.396616540404" lon="12.801955837430654"><ele>382.0</ele><time>2026-05-02T13:42:55Z</time></trkpt><trkpt lat="42.3967302663441" lon="12.80171722096625"><ele>382.0</ele><time>2026-05-02T13:42:56Z</time></trkpt><trkpt lat="42.396841892115965" lon="12.801474232681048"><ele>382.0</ele><time>2026-05-02T13:42:57Z</time></trkpt><trkpt lat="42.39695491252451" lon="12.801238115250623"><ele>382.0</ele><time>2026-05-02T13:42:58Z</time></trkpt><trkpt lat="42.39706803950708" lon="12.801003909425294"><ele>382.0</ele><time>2026-05-02T13:42:59Z</time></trkpt><trkpt lat="42.397181050866024" lon="12.800770067082524"><ele>382.0</ele><time>2026-05-02T13:43:00Z</time></trkpt><trkpt lat="42.397292833668196" lon="12.800533527695162"><ele>381.66666666666663</ele><time>2026-05-02T13:43:01Z</time></trkpt><trkpt lat="42.39740604430302" lon="12.800295420729935"><ele>381.3333333333333</ele><time>2026-05-02T13:43:02Z</time></trkpt><trkpt lat="42.39751967075152" lon="12.800058692193964"><ele>381.0</ele><time>2026-05-02T13:43:03Z</time></trkpt><trkpt lat="42.39763608332941" lon="12.799821414099206"><ele>381.0</ele><time>2026-05-02T13:43:04Z</time></trkpt><trkpt lat="42.39774992161354" lon="12.799586460867456"><ele>381.0</ele><time>2026-05-02T13:43:05Z</time></trkpt><trkpt lat="42.397865581198296" lon="12.799352459525648"><ele>381.0</ele><time>2026-05-02T13:43:06Z</time></trkpt><trkpt lat="42.39798089071207" lon="12.799118035407194"><ele>381.0</ele><time>2026-05-02T13:43:07Z</time></trkpt><trkpt lat="42.39809668799766" lon="12.79887941131763"><ele>381.0</ele><time>2026-05-02T13:43:08Z</time></trkpt><trkpt lat="42.39821189761904" lon="12.798638114277407"><ele>381.0</ele><time>2026-05-02T13:43:09Z</time></trkpt><trkpt lat="42.39832625081874" lon="12.798393151425913"><ele>381.0</ele><time>2026-05-02T13:43:10Z</time></trkpt><trkpt lat="42.39844266226481" lon="12.7981544309038"><ele>381.0</ele><time>2026-05-02T13:43:11Z</time></trkpt><trkpt lat="42.398558231364376" lon="12.79790824192142"><ele>381.0</ele><time>2026-05-02T13:43:12Z</time></trkpt><trkpt lat="42.39867293775951" lon="12.797663086951632"><ele>381.3333333333333</ele><time>2026-05-02T13:43:13Z</time></trkpt><trkpt lat="42.39878768048827" lon="12.797421004801391"><ele>381.66666666666663</ele><time>2026-05-02T13:43:14Z</time></trkpt><trkpt lat="42.398902923237806" lon="12.797181093373226"><ele>382.0</ele><time>2026-05-02T13:43:15Z</time></trkpt><trkpt lat="42.399016998760715" lon="12.796947028346544"><ele>382.3333333333333</ele><time>2026-05-02T13:43:16Z</time></trkpt><trkpt lat="42.39913005366908" lon="12.796715159367334"><ele>382.6666666666667</ele><time>2026-05-02T13:43:17Z</time></trkpt><trkpt lat="42.39924012148883" lon="12.796484611387545"><ele>383.0</ele><time>2026-05-02T13:43:18Z</time></trkpt><trkpt lat="42.39935181209463" lon="12.796265139295981"><ele>383.0</ele><time>2026-05-02T13:43:19Z</time></trkpt><trkpt lat="42.399457724004634" lon="12.796052570042724"><ele>383.0</ele><time>2026-05-02T13:43:20Z</time></trkpt><trkpt lat="42.39955864544212" lon="12.79583960675786"><ele>383.0</ele><time>2026-05-02T13:43:21Z</time></trkpt><trkpt lat="42.399655434146304" lon="12.795633477717985"><ele>383.0</ele><time>2026-05-02T13:43:22Z</time></trkpt><trkpt lat="42.399748382565576" lon="12.795436502322207"><ele>383.0</ele><time>2026-05-02T13:43:23Z</time></trkpt><trkpt lat="42.399838420656856" lon="12.795243250960759"><ele>383.0</ele><time>2026-05-02T13:43:24Z</time></trkpt><trkpt lat="42.39992595984051" lon="12.795054768873255"><ele>383.0</ele><time>2026-05-02T13:43:25Z</time></trkpt><trkpt lat="42.400014853135495" lon="12.794872422744758"><ele>383.0</ele><time>2026-05-02T13:43:26Z</time></trkpt><trkpt lat="42.40010498585746" lon="12.794686477490366"><ele>383.0</ele><time>2026-05-02T13:43:27Z</time></trkpt><trkpt lat="42.40019263533683" lon="12.794533413177552"><ele>383.0</ele><time>2026-05-02T13:43:28Z</time></trkpt><trkpt lat="42.40029097112014" lon="12.794346670589343"><ele>383.0</ele><time>2026-05-02T13:43:29Z</time></trkpt><trkpt lat="42.40038535889907" lon="12.794172505411964"><ele>383.0</ele><time>2026-05-02T13:43:30Z</time></trkpt><trkpt lat="42.40048073889791" lon="12.7939988526559"><ele>383.33333333333337</ele><time>2026-05-02T13:43:31Z</time></trkpt><trkpt lat="42.4005784914387" lon="12.793817773349003"><ele>383.6666666666667</ele><time>2026-05-02T13:43:32Z</time></trkpt><trkpt lat="42.40067267162626" lon="12.793653057074891"><ele>384.0</ele><time>2026-05-02T13:43:33Z</time></trkpt><trkpt lat="42.40076517856522" lon="12.793489992473983"><ele>385.0</ele><time>2026-05-02T13:43:34Z</time></trkpt><trkpt lat="42.40085684236479" lon="12.793323244454298"><ele>386.0</ele><time>2026-05-02T13:43:35Z</time></trkpt><trkpt lat="42.400951459726805" lon="12.793160731433543"><ele>387.0</ele><time>2026-05-02T13:43:36Z</time></trkpt><trkpt lat="42.40104880236731" lon="12.792999564291181"><ele>387.0</ele><time>2026-05-02T13:43:37Z</time></trkpt><trkpt lat="42.40114816990692" lon="12.792840623585326"><ele>387.0</ele><time>2026-05-02T13:43:38Z</time></trkpt><trkpt lat="42.40125058591233" lon="12.79268228660648"><ele>387.0</ele><time>2026-05-02T13:43:39Z</time></trkpt><trkpt lat="42.40135406344035" lon="12.7925215177622"><ele>387.0</ele><time>2026-05-02T13:43:40Z</time></trkpt><trkpt lat="42.40145734900396" lon="12.792366138613055"><ele>387.0</ele><time>2026-05-02T13:43:41Z</time></trkpt><trkpt lat="42.40155940806947" lon="12.792211869556331"><ele>387.0</ele><time>2026-05-02T13:43:42Z</time></trkpt><trkpt lat="42.40166244273951" lon="12.792062526490392"><ele>387.0</ele><time>2026-05-02T13:43:43Z</time></trkpt><trkpt lat="42.401764175476885" lon="12.791909842984152"><ele>387.0</ele><time>2026-05-02T13:43:44Z</time></trkpt><trkpt lat="42.40186960352935" lon="12.791758875272087"><ele>387.0</ele><time>2026-05-02T13:43:45Z</time></trkpt><trkpt lat="42.40198081981841" lon="12.791617419432233"><ele>387.0</ele><time>2026-05-02T13:43:46Z</time></trkpt><trkpt lat="42.40209036566536" lon="12.791467314672328"><ele>387.0</ele><time>2026-05-02T13:43:47Z</time></trkpt><trkpt lat="42.40220755547805" lon="12.791308917975256"><ele>387.0</ele><time>2026-05-02T13:43:48Z</time></trkpt><trkpt lat="42.40233272737822" lon="12.791140318585835"><ele>387.0</ele><time>2026-05-02T13:43:49Z</time></trkpt><trkpt lat="42.40247128607746" lon="12.79095966292608"><ele>387.0</ele><time>2026-05-02T13:43:50Z</time></trkpt><trkpt lat="42.40262118402778" lon="12.79077437671117"><ele>387.0</ele><time>2026-05-02T13:43:51Z</time></trkpt><trkpt lat="42.40278092958911" lon="12.790585895254125"><ele>387.0</ele><time>2026-05-02T13:43:52Z</time></trkpt><trkpt lat="42.40294734823637" lon="12.790395003668705"><ele>387.0</ele><time>2026-05-02T13:43:53Z</time></trkpt><trkpt lat="42.40311899453523" lon="12.790199109366503"><ele>387.0</ele><time>2026-05-02T13:43:54Z</time></trkpt><trkpt lat="42.403297144636376" lon="12.790005935412212"><ele>386.5</ele><time>2026-05-02T13:43:55Z</time></trkpt><trkpt lat="42.40347767415837" lon="12.789812082629197"><ele>386.0</ele><time>2026-05-02T13:43:56Z</time></trkpt><trkpt lat="42.40366141166517" lon="12.789618889778929"><ele>385.5</ele><time>2026-05-02T13:43:57Z</time></trkpt><trkpt lat="42.40384358585415" lon="12.789437798221353"><ele>385.0</ele><time>2026-05-02T13:43:58Z</time></trkpt><trkpt lat="42.40402968746099" lon="12.78925176388683"><ele>386.0</ele><time>2026-05-02T13:43:59Z</time></trkpt><trkpt lat="42.40421776258194" lon="12.789070789788443"><ele>387.0</ele><time>2026-05-02T13:44:00Z</time></trkpt><trkpt lat="42.40440718800267" lon="12.78889328232386"><ele>387.0</ele><time>2026-05-02T13:44:01Z</time></trkpt><trkpt lat="42.4045986043285" lon="12.788720959754071"><ele>387.0</ele><time>2026-05-02T13:44:02Z</time></trkpt><trkpt lat="42.40479203211352" lon="12.788555121112998"><ele>386.0</ele><time>2026-05-02T13:44:03Z</time></trkpt><trkpt lat="42.404988879471034" lon="12.788389259489714"><ele>385.0</ele><time>2026-05-02T13:44:04Z</time></trkpt><trkpt lat="42.405189170430674" lon="12.788223610296729"><ele>385.0</ele><time>2026-05-02T13:44:05Z</time></trkpt><trkpt lat="42.40539478758012" lon="12.788058348994882"><ele>385.0</ele><time>2026-05-02T13:44:06Z</time></trkpt><trkpt lat="42.4056052020106" lon="12.7878918486715"><ele>384.5</ele><time>2026-05-02T13:44:07Z</time></trkpt><trkpt lat="42.4058270593189" lon="12.787749957806884"><ele>384.0</ele><time>2026-05-02T13:44:08Z</time></trkpt><trkpt lat="42.406039130037605" lon="12.787596950704485"><ele>384.0</ele><time>2026-05-02T13:44:09Z</time></trkpt><trkpt lat="42.40624839939846" lon="12.787425893570585"><ele>384.0</ele><time>2026-05-02T13:44:10Z</time></trkpt><trkpt lat="42.406468563846225" lon="12.787279947830323"><ele>384.0</ele><time>2026-05-02T13:44:11Z</time></trkpt><trkpt lat="42.40669327423626" lon="12.78713858441652"><ele>384.0</ele><time>2026-05-02T13:44:12Z</time></trkpt><trkpt lat="42.40692069072966" lon="12.787003882282068"><ele>384.0</ele><time>2026-05-02T13:44:13Z</time></trkpt><trkpt lat="42.407151452191755" lon="12.786872264207249"><ele>384.0</ele><time>2026-05-02T13:44:14Z</time></trkpt><trkpt lat="42.40738473856738" lon="12.786743795615394"><ele>383.5</ele><time>2026-05-02T13:44:15Z</time></trkpt><trkpt lat="42.40762030481769" lon="12.786622771830503"><ele>383.0</ele><time>2026-05-02T13:44:16Z</time></trkpt><trkpt lat="42.40785550684767" lon="12.786503643783513"><ele>383.5</ele><time>2026-05-02T13:44:17Z</time></trkpt><trkpt lat="42.408093487880215" lon="12.78638957490912"><ele>384.0</ele><time>2026-05-02T13:44:18Z</time></trkpt><trkpt lat="42.40833200667318" lon="12.786277785988888"><ele>384.0</ele><time>2026-05-02T13:44:19Z</time></trkpt><trkpt lat="42.40857101279274" lon="12.786171784402736"><ele>384.0</ele><time>2026-05-02T13:44:20Z</time></trkpt><trkpt lat="42.40881205153019" lon="12.786067532021198"><ele>383.5</ele><time>2026-05-02T13:44:21Z</time></trkpt><trkpt lat="42.40905186717783" lon="12.785975661889655"><ele>383.0</ele><time>2026-05-02T13:44:22Z</time></trkpt><trkpt lat="42.40929134608554" lon="12.785887515073249"><ele>383.0</ele><time>2026-05-02T13:44:23Z</time></trkpt><trkpt lat="42.40952755557627" lon="12.785802292395662"><ele>383.0</ele><time>2026-05-02T13:44:24Z</time></trkpt><trkpt lat="42.40976102103815" lon="12.78572004408978"><ele>383.0</ele><time>2026-05-02T13:44:25Z</time></trkpt><trkpt lat="42.40999041652218" lon="12.785640321288035"><ele>383.0</ele><time>2026-05-02T13:44:26Z</time></trkpt><trkpt lat="42.41021832567932" lon="12.78556671922083"><ele>383.0</ele><time>2026-05-02T13:44:27Z</time></trkpt><trkpt lat="42.410446621896426" lon="12.785485456738888"><ele>383.0</ele><time>2026-05-02T13:44:28Z</time></trkpt><trkpt lat="42.410672890755976" lon="12.785403731532949"><ele>382.5</ele><time>2026-05-02T13:44:29Z</time></trkpt><trkpt lat="42.41089847839743" lon="12.785324425457867"><ele>382.0</ele><time>2026-05-02T13:44:30Z</time></trkpt><trkpt lat="42.411124889415575" lon="12.785243366635807"><ele>382.5</ele><time>2026-05-02T13:44:31Z</time></trkpt><trkpt lat="42.411351382624986" lon="12.78517468794335"><ele>383.0</ele><time>2026-05-02T13:44:32Z</time></trkpt><trkpt lat="42.41157739491525" lon="12.785098458876432"><ele>383.0</ele><time>2026-05-02T13:44:33Z</time></trkpt><trkpt lat="42.41180510254121" lon="12.78501037655108"><ele>383.0</ele><time>2026-05-02T13:44:34Z</time></trkpt><trkpt lat="42.41203003518765" lon="12.7849274545555"><ele>382.5</ele><time>2026-05-02T13:44:35Z</time></trkpt><trkpt lat="42.412257104029706" lon="12.784842725512071"><ele>382.0</ele><time>2026-05-02T13:44:36Z</time></trkpt><trkpt lat="42.4124848023983" lon="12.784764290699167"><ele>382.0</ele><time>2026-05-02T13:44:37Z</time></trkpt><trkpt lat="42.41271136541356" lon="12.784685883953678"><ele>382.0</ele><time>2026-05-02T13:44:38Z</time></trkpt><trkpt lat="42.41293745816762" lon="12.784602603080184"><ele>381.0</ele><time>2026-05-02T13:44:39Z</time></trkpt><trkpt lat="42.41316349934831" lon="12.784523325659078"><ele>380.0</ele><time>2026-05-02T13:44:40Z</time></trkpt><trkpt lat="42.413390222767106" lon="12.784445126935559"><ele>380.0</ele><time>2026-05-02T13:44:41Z</time></trkpt><trkpt lat="42.41361576697823" lon="12.78436689926991"><ele>380.0</ele><time>2026-05-02T13:44:42Z</time></trkpt><trkpt lat="42.413842992775756" lon="12.78428701110328"><ele>380.5</ele><time>2026-05-02T13:44:43Z</time></trkpt><trkpt lat="42.41406684183673" lon="12.784210793062794"><ele>381.0</ele><time>2026-05-02T13:44:44Z</time></trkpt><trkpt lat="42.4142933607274" lon="12.784130286330146"><ele>381.0</ele><time>2026-05-02T13:44:45Z</time></trkpt><trkpt lat="42.41451825298754" lon="12.784052406205273"><ele>381.0</ele><time>2026-05-02T13:44:46Z</time></trkpt><trkpt lat="42.41474384559466" lon="12.783973222019544"><ele>381.0</ele><time>2026-05-02T13:44:47Z</time></trkpt><trkpt lat="42.41496965893851" lon="12.783893415304247"><ele>381.0</ele><time>2026-05-02T13:44:48Z</time></trkpt><trkpt lat="42.41519497674944" lon="12.783812255165646"><ele>381.0</ele><time>2026-05-02T13:44:49Z</time></trkpt><trkpt lat="42.41541998948998" lon="12.783727996522188"><ele>381.0</ele><time>2026-05-02T13:44:50Z</time></trkpt><trkpt lat="42.415648152534985" lon="12.783647978317143"><ele>381.0</ele><time>2026-05-02T13:44:51Z</time></trkpt><trkpt lat="42.41587463023323" lon="12.783572995320513"><ele>381.0</ele><time>2026-05-02T13:44:52Z</time></trkpt><trkpt lat="42.416100588055514" lon="12.783493922727546"><ele>382.0</ele><time>2026-05-02T13:44:53Z</time></trkpt><trkpt lat="42.41632674025214" lon="12.783413226138084"><ele>383.0</ele><time>2026-05-02T13:44:54Z</time></trkpt><trkpt lat="42.41655483191899" lon="12.783331957117857"><ele>383.0</ele><time>2026-05-02T13:44:55Z</time></trkpt><trkpt lat="42.41678418751507" lon="12.783253190590703"><ele>383.0</ele><time>2026-05-02T13:44:56Z</time></trkpt><trkpt lat="42.41701212541878" lon="12.783171620814278"><ele>383.0</ele><time>2026-05-02T13:44:57Z</time></trkpt><trkpt lat="42.417239542585456" lon="12.783086455305279"><ele>383.0</ele><time>2026-05-02T13:44:58Z</time></trkpt><trkpt lat="42.417466540984506" lon="12.78300334511843"><ele>383.0</ele><time>2026-05-02T13:44:59Z</time></trkpt><trkpt lat="42.417691663404234" lon="12.782921947655888"><ele>383.0</ele><time>2026-05-02T13:45:00Z</time></trkpt><trkpt lat="42.41791655746919" lon="12.782841424983006"><ele>382.5</ele><time>2026-05-02T13:45:01Z</time></trkpt><trkpt lat="42.418141921217405" lon="12.782759259057437"><ele>382.0</ele><time>2026-05-02T13:45:02Z</time></trkpt><trkpt lat="42.41836244790704" lon="12.782682634192756"><ele>382.3333333333333</ele><time>2026-05-02T13:45:03Z</time></trkpt><trkpt lat="42.41858455756213" lon="12.782606602526347"><ele>382.6666666666667</ele><time>2026-05-02T13:45:04Z</time></trkpt><trkpt lat="42.418792056971974" lon="12.782534864607474"><ele>383.0</ele><time>2026-05-02T13:45:05Z</time></trkpt><trkpt lat="42.41898785226372" lon="12.78246202035114"><ele>383.0</ele><time>2026-05-02T13:45:06Z</time></trkpt><trkpt lat="42.41916694401266" lon="12.782396637264805"><ele>383.0</ele><time>2026-05-02T13:45:07Z</time></trkpt><trkpt lat="42.4193409197472" lon="12.782328553143653"><ele>383.0</ele><time>2026-05-02T13:45:08Z</time></trkpt><trkpt lat="42.419515112291734" lon="12.782261881366946"><ele>382.33333333333337</ele><time>2026-05-02T13:45:09Z</time></trkpt><trkpt lat="42.41970210894721" lon="12.78219238325532"><ele>381.6666666666667</ele><time>2026-05-02T13:45:10Z</time></trkpt><trkpt lat="42.41989403708942" lon="12.782115412442312"><ele>381.0</ele><time>2026-05-02T13:45:11Z</time></trkpt><trkpt lat="42.42009667669673" lon="12.782042617680315"><ele>381.0</ele><time>2026-05-02T13:45:12Z</time></trkpt><trkpt lat="42.42030759926933" lon="12.781974102211887"><ele>381.0</ele><time>2026-05-02T13:45:13Z</time></trkpt><trkpt lat="42.420522667766654" lon="12.78190307656437"><ele>381.0</ele><time>2026-05-02T13:45:14Z</time></trkpt><trkpt lat="42.420743628582166" lon="12.78182952352044"><ele>381.5</ele><time>2026-05-02T13:45:15Z</time></trkpt><trkpt lat="42.42096749851107" lon="12.781755841347609"><ele>382.0</ele><time>2026-05-02T13:45:16Z</time></trkpt><trkpt lat="42.42119584689292" lon="12.781679760390265"><ele>380.5</ele><time>2026-05-02T13:45:17Z</time></trkpt><trkpt lat="42.421425944144474" lon="12.781603242945907"><ele>379.0</ele><time>2026-05-02T13:45:18Z</time></trkpt><trkpt lat="42.42165765469765" lon="12.781523661324645"><ele>379.0</ele><time>2026-05-02T13:45:19Z</time></trkpt><trkpt lat="42.42189050505566" lon="12.781444307165744"><ele>379.0</ele><time>2026-05-02T13:45:20Z</time></trkpt><trkpt lat="42.422126112292396" lon="12.781364080039452"><ele>378.5</ele><time>2026-05-02T13:45:21Z</time></trkpt><trkpt lat="42.422361704043595" lon="12.7812866681126"><ele>378.0</ele><time>2026-05-02T13:45:22Z</time></trkpt><trkpt lat="42.422602385679255" lon="12.781233805313617"><ele>378.0</ele><time>2026-05-02T13:45:23Z</time></trkpt><trkpt lat="42.422842708902884" lon="12.781197125266532"><ele>378.0</ele><time>2026-05-02T13:45:24Z</time></trkpt><trkpt lat="42.42308402501001" lon="12.781173427034503"><ele>378.0</ele><time>2026-05-02T13:45:25Z</time></trkpt><trkpt lat="42.42332645971412" lon="12.78116451418692"><ele>378.0</ele><time>2026-05-02T13:45:26Z</time></trkpt><trkpt lat="42.42356685947927" lon="12.781166757913367"><ele>378.0</ele><time>2026-05-02T13:45:27Z</time></trkpt><trkpt lat="42.42380613140237" lon="12.781185857952147"><ele>378.0</ele><time>2026-05-02T13:45:28Z</time></trkpt><trkpt lat="42.42404813361299" lon="12.781220206742807"><ele>377.5</ele><time>2026-05-02T13:45:29Z</time></trkpt><trkpt lat="42.42429044543299" lon="12.781268415682153"><ele>377.0</ele><time>2026-05-02T13:45:30Z</time></trkpt><trkpt lat="42.42453281635061" lon="12.781328093123088"><ele>377.5</ele><time>2026-05-02T13:45:31Z</time></trkpt><trkpt lat="42.42477281576066" lon="12.78140396292682"><ele>378.0</ele><time>2026-05-02T13:45:32Z</time></trkpt><trkpt lat="42.425010596865505" lon="12.78149304215289"><ele>378.0</ele><time>2026-05-02T13:45:33Z</time></trkpt><trkpt lat="42.4252422549702" lon="12.781595761766734"><ele>378.0</ele><time>2026-05-02T13:45:34Z</time></trkpt><trkpt lat="42.42547267595129" lon="12.781715431071294"><ele>378.0</ele><time>2026-05-02T13:45:35Z</time></trkpt><trkpt lat="42.4256987782887" lon="12.781847347092077"><ele>378.0</ele><time>2026-05-02T13:45:36Z</time></trkpt><trkpt lat="42.42592170070701" lon="12.782015215811969"><ele>377.0</ele><time>2026-05-02T13:45:37Z</time></trkpt><trkpt lat="42.42613721428797" lon="12.782188110986661"><ele>376.0</ele><time>2026-05-02T13:45:38Z</time></trkpt><trkpt lat="42.42635623228849" lon="12.782372285026279"><ele>377.5</ele><time>2026-05-02T13:45:39Z</time></trkpt><trkpt lat="42.42656794482455" lon="12.782571970504014"><ele>379.0</ele><time>2026-05-02T13:45:40Z</time></trkpt><trkpt lat="42.426770500463604" lon="12.7827864225576"><ele>379.0</ele><time>2026-05-02T13:45:41Z</time></trkpt><trkpt lat="42.42696926681475" lon="12.7830114730025"><ele>379.0</ele><time>2026-05-02T13:45:42Z</time></trkpt><trkpt lat="42.427156768811585" lon="12.783248911647064"><ele>379.0</ele><time>2026-05-02T13:45:43Z</time></trkpt><trkpt lat="42.42733601190887" lon="12.783497385535236"><ele>379.0</ele><time>2026-05-02T13:45:44Z</time></trkpt><trkpt lat="42.427510166798925" lon="12.783753981947468"><ele>379.5</ele><time>2026-05-02T13:45:45Z</time></trkpt><trkpt lat="42.427679622651915" lon="12.784013437313048"><ele>380.0</ele><time>2026-05-02T13:45:46Z</time></trkpt><trkpt lat="42.42784574742512" lon="12.784270619442275"><ele>378.5</ele><time>2026-05-02T13:45:47Z</time></trkpt><trkpt lat="42.428012955388716" lon="12.784523598278838"><ele>377.0</ele><time>2026-05-02T13:45:48Z</time></trkpt><trkpt lat="42.428185954750504" lon="12.784763842703745"><ele>377.0</ele><time>2026-05-02T13:45:49Z</time></trkpt><trkpt lat="42.42836980719852" lon="12.784981462845868"><ele>377.0</ele><time>2026-05-02T13:45:50Z</time></trkpt><trkpt lat="42.428552890502914" lon="12.785179652195186"><ele>376.6666666666667</ele><time>2026-05-02T13:45:51Z</time></trkpt><trkpt lat="42.42873591977987" lon="12.785358336327528"><ele>376.3333333333333</ele><time>2026-05-02T13:45:52Z</time></trkpt><trkpt lat="42.42891376502073" lon="12.785514350405547"><ele>376.0</ele><time>2026-05-02T13:45:53Z</time></trkpt><trkpt lat="42.42909189342226" lon="12.785652301638812"><ele>377.0</ele><time>2026-05-02T13:45:54Z</time></trkpt><trkpt lat="42.42927929372671" lon="12.785764345084463"><ele>378.0</ele><time>2026-05-02T13:45:55Z</time></trkpt><trkpt lat="42.429474686520166" lon="12.785865751674264"><ele>379.0</ele><time>2026-05-02T13:45:56Z</time></trkpt><trkpt lat="42.429670579532825" lon="12.785958022192421"><ele>378.3333333333333</ele><time>2026-05-02T13:45:57Z</time></trkpt><trkpt lat="42.42987149895408" lon="12.786037872579907"><ele>377.6666666666667</ele><time>2026-05-02T13:45:58Z</time></trkpt><trkpt lat="42.43006882789478" lon="12.786098197617822"><ele>377.0</ele><time>2026-05-02T13:45:59Z</time></trkpt><trkpt lat="42.43027224624563" lon="12.78614323413078"><ele>377.33333333333337</ele><time>2026-05-02T13:46:00Z</time></trkpt><trkpt lat="42.43047990953108" lon="12.786170582844933"><ele>377.6666666666667</ele><time>2026-05-02T13:46:01Z</time></trkpt><trkpt lat="42.43069071616399" lon="12.78618218055369"><ele>378.0</ele><time>2026-05-02T13:46:02Z</time></trkpt><trkpt lat="42.43090289418316" lon="12.786166351000334"><ele>378.0</ele><time>2026-05-02T13:46:03Z</time></trkpt><trkpt lat="42.43111880760871" lon="12.786146387848655"><ele>378.0</ele><time>2026-05-02T13:46:04Z</time></trkpt><trkpt lat="42.431344843969" lon="12.7861031760096"><ele>378.0</ele><time>2026-05-02T13:46:05Z</time></trkpt><trkpt lat="42.43159555499519" lon="12.786054266981893"><ele>378.5</ele><time>2026-05-02T13:46:06Z</time></trkpt><trkpt lat="42.431851927273755" lon="12.785971339503405"><ele>379.0</ele><time>2026-05-02T13:46:07Z</time></trkpt><trkpt lat="42.43210348660894" lon="12.785882604666913"><ele>379.0</ele><time>2026-05-02T13:46:08Z</time></trkpt><trkpt lat="42.43234885672675" lon="12.785778660350783"><ele>379.0</ele><time>2026-05-02T13:46:09Z</time></trkpt><trkpt lat="42.43260606773656" lon="12.785690738579685"><ele>379.0</ele><time>2026-05-02T13:46:10Z</time></trkpt><trkpt lat="42.43285422866052" lon="12.785598645119611"><ele>379.0</ele><time>2026-05-02T13:46:11Z</time></trkpt><trkpt lat="42.433100779381405" lon="12.785508785127988"><ele>380.5</ele><time>2026-05-02T13:46:12Z</time></trkpt><trkpt lat="42.43335773423513" lon="12.78541603182985"><ele>382.0</ele><time>2026-05-02T13:46:13Z</time></trkpt><trkpt lat="42.433607619544254" lon="12.785328187485453"><ele>382.5</ele><time>2026-05-02T13:46:14Z</time></trkpt><trkpt lat="42.433856693797935" lon="12.78524095546791"><ele>383.0</ele><time>2026-05-02T13:46:15Z</time></trkpt><trkpt lat="42.434105499025236" lon="12.785154845410117"><ele>383.0</ele><time>2026-05-02T13:46:16Z</time></trkpt><trkpt lat="42.43435794717265" lon="12.785072899240479"><ele>383.0</ele><time>2026-05-02T13:46:17.019Z</time></trkpt><trkpt lat="42.43460632896295" lon="12.785001975265708"><ele>385.0</ele><time>2026-05-02T13:46:18.021Z</time></trkpt><trkpt lat="42.434854014534444" lon="12.784946712029132"><ele>387.0</ele><time>2026-05-02T13:46:19.019Z</time></trkpt><trkpt lat="42.43510300489929" lon="12.784898515969292"><ele>381.0</ele><time>2026-05-02T13:46:20.019Z</time></trkpt><trkpt lat="42.436277736017885" lon="12.784844739374504"><ele>379.0</ele><time>2026-05-02T13:46:25Z</time></trkpt><trkpt lat="42.43652314059998" lon="12.784836606439953"><ele>377.0</ele><time>2026-05-02T13:46:26Z</time></trkpt><trkpt lat="42.436796874075014" lon="12.784928946852768"><ele>377.0</ele><time>2026-05-02T13:46:27Z</time></trkpt><trkpt lat="42.43704675120365" lon="12.784996942646254"><ele>377.0</ele><time>2026-05-02T13:46:28Z</time></trkpt><trkpt lat="42.437295031461026" lon="12.785060562798629"><ele>377.0</ele><time>2026-05-02T13:46:29Z</time></trkpt><trkpt lat="42.437553012373556" lon="12.78514699227553"><ele>377.0</ele><time>2026-05-02T13:46:30Z</time></trkpt><trkpt lat="42.437827714483944" lon="12.7852344965541"><ele>377.0</ele><time>2026-05-02T13:46:31Z</time></trkpt><trkpt lat="42.438067380257536" lon="12.785352020933297"><ele>377.0</ele><time>2026-05-02T13:46:32Z</time></trkpt><trkpt lat="42.43830428129443" lon="12.785481781830574"><ele>377.0</ele><time>2026-05-02T13:46:33Z</time></trkpt><trkpt lat="42.43853849658801" lon="12.78562062087737"><ele>377.0</ele><time>2026-05-02T13:46:34Z</time></trkpt><trkpt lat="42.43876602946123" lon="12.785772466995624"><ele>377.5</ele><time>2026-05-02T13:46:35Z</time></trkpt><trkpt lat="42.438986910983594" lon="12.785938183778512"><ele>378.0</ele><time>2026-05-02T13:46:36Z</time></trkpt><trkpt lat="42.43920726304939" lon="12.786104713989616"><ele>378.0</ele><time>2026-05-02T13:46:37Z</time></trkpt><trkpt lat="42.43942980981849" lon="12.786265533112852"><ele>378.0</ele><time>2026-05-02T13:46:38Z</time></trkpt><trkpt lat="42.43965605772959" lon="12.786429056989867"><ele>378.0</ele><time>2026-05-02T13:46:39Z</time></trkpt><trkpt lat="42.439880770451275" lon="12.786594691794319"><ele>378.0</ele><time>2026-05-02T13:46:40Z</time></trkpt><trkpt lat="42.440093004808915" lon="12.78676383167468"><ele>378.0</ele><time>2026-05-02T13:46:41Z</time></trkpt><trkpt lat="42.44030601851576" lon="12.786927974610798"><ele>378.0</ele><time>2026-05-02T13:46:42Z</time></trkpt><trkpt lat="42.44051964943504" lon="12.78708957212829"><ele>378.0</ele><time>2026-05-02T13:46:43Z</time></trkpt><trkpt lat="42.44073178132627" lon="12.78725433723199"><ele>378.0</ele><time>2026-05-02T13:46:44Z</time></trkpt><trkpt lat="42.440942227935146" lon="12.787413306429997"><ele>378.0</ele><time>2026-05-02T13:46:45Z</time></trkpt><trkpt lat="42.441153934742985" lon="12.787563858804273"><ele>378.0</ele><time>2026-05-02T13:46:46Z</time></trkpt><trkpt lat="42.44136624949419" lon="12.78771018742317"><ele>377.5</ele><time>2026-05-02T13:46:47Z</time></trkpt><trkpt lat="42.44158098492745" lon="12.787855472708491"><ele>377.0</ele><time>2026-05-02T13:46:48Z</time></trkpt><trkpt lat="42.441805105174936" lon="12.787988726548809"><ele>377.0</ele><time>2026-05-02T13:46:49Z</time></trkpt><trkpt lat="42.44203137527816" lon="12.788117848758752"><ele>377.0</ele><time>2026-05-02T13:46:50Z</time></trkpt><trkpt lat="42.44226454256769" lon="12.7882370158632"><ele>377.0</ele><time>2026-05-02T13:46:51Z</time></trkpt><trkpt lat="42.442502204687464" lon="12.788348471613327"><ele>377.0</ele><time>2026-05-02T13:46:52Z</time></trkpt><trkpt lat="42.442744173286634" lon="12.788448629256079"><ele>377.0</ele><time>2026-05-02T13:46:53Z</time></trkpt><trkpt lat="42.442990472902224" lon="12.78854079083997"><ele>377.0</ele><time>2026-05-02T13:46:54Z</time></trkpt><trkpt lat="42.44323683642005" lon="12.788625139563868"><ele>377.0</ele><time>2026-05-02T13:46:55Z</time></trkpt><trkpt lat="42.44348667632868" lon="12.788698889901932"><ele>377.0</ele><time>2026-05-02T13:46:56Z</time></trkpt><trkpt lat="42.44373864314667" lon="12.78876280269496"><ele>377.0</ele><time>2026-05-02T13:46:57Z</time></trkpt><trkpt lat="42.44399424431142" lon="12.788812483195144"><ele>377.0</ele><time>2026-05-02T13:46:58Z</time></trkpt><trkpt lat="42.444249429449705" lon="12.788852089339928"><ele>377.0</ele><time>2026-05-02T13:46:59Z</time></trkpt><trkpt lat="42.44450773459945" lon="12.788879975060485"><ele>377.0</ele><time>2026-05-02T13:47:00Z</time></trkpt><trkpt lat="42.44476503321791" lon="12.788898073662583"><ele>377.0</ele><time>2026-05-02T13:47:01Z</time></trkpt><trkpt lat="42.44502408401772" lon="12.788908381076123"><ele>377.0</ele><time>2026-05-02T13:47:02Z</time></trkpt><trkpt lat="42.445283185297285" lon="12.788903557271153"><ele>376.0</ele><time>2026-05-02T13:47:03Z</time></trkpt><trkpt lat="42.445540506460496" lon="12.788885397729857"><ele>375.0</ele><time>2026-05-02T13:47:04Z</time></trkpt><trkpt lat="42.445796480207925" lon="12.788856390156301"><ele>375.0</ele><time>2026-05-02T13:47:05Z</time></trkpt><trkpt lat="42.44605138716377" lon="12.788817596080271"><ele>375.0</ele><time>2026-05-02T13:47:06Z</time></trkpt><trkpt lat="42.44630437666574" lon="12.78877335297606"><ele>374.5</ele><time>2026-05-02T13:47:07Z</time></trkpt><trkpt lat="42.44655678800643" lon="12.788718855563495"><ele>374.0</ele><time>2026-05-02T13:47:08Z</time></trkpt><trkpt lat="42.446806547983755" lon="12.788657405001748"><ele>374.0</ele><time>2026-05-02T13:47:09Z</time></trkpt><trkpt lat="42.447054803670675" lon="12.788592086200524"><ele>374.0</ele><time>2026-05-02T13:47:10Z</time></trkpt><trkpt lat="42.44730300387343" lon="12.788528270701335"><ele>375.5</ele><time>2026-05-02T13:47:11Z</time></trkpt><trkpt lat="42.447549398866585" lon="12.788465387239546"><ele>377.0</ele><time>2026-05-02T13:47:12Z</time></trkpt><trkpt lat="42.44779562662249" lon="12.78840058350426"><ele>377.0</ele><time>2026-05-02T13:47:13Z</time></trkpt><trkpt lat="42.448041221989804" lon="12.788331090781336"><ele>377.0</ele><time>2026-05-02T13:47:14Z</time></trkpt><trkpt lat="42.448286729338996" lon="12.788265259426849"><ele>377.0</ele><time>2026-05-02T13:47:15Z</time></trkpt><trkpt lat="42.44853210199883" lon="12.78819694122275"><ele>377.0</ele><time>2026-05-02T13:47:16Z</time></trkpt><trkpt lat="42.44877631582966" lon="12.788130682659"><ele>377.0</ele><time>2026-05-02T13:47:17Z</time></trkpt><trkpt lat="42.44902157841665" lon="12.78806899962505"><ele>377.0</ele><time>2026-05-02T13:47:18Z</time></trkpt><trkpt lat="42.44926986193268" lon="12.788001820549855"><ele>377.0</ele><time>2026-05-02T13:47:19Z</time></trkpt><trkpt lat="42.44951785742744" lon="12.787934363471406"><ele>377.0</ele><time>2026-05-02T13:47:20Z</time></trkpt><trkpt lat="42.44977025298561" lon="12.787864240338939"><ele>376.5</ele><time>2026-05-02T13:47:21Z</time></trkpt><trkpt lat="42.45002432063336" lon="12.787797815215303"><ele>376.0</ele><time>2026-05-02T13:47:22Z</time></trkpt><trkpt lat="42.450274570589066" lon="12.787728796454815"><ele>376.0</ele><time>2026-05-02T13:47:23Z</time></trkpt><trkpt lat="42.450524292174826" lon="12.787660471793629"><ele>376.0</ele><time>2026-05-02T13:47:24Z</time></trkpt><trkpt lat="42.450775352652336" lon="12.78759387288478"><ele>376.0</ele><time>2026-05-02T13:47:25Z</time></trkpt><trkpt lat="42.451030137682444" lon="12.787529016136673"><ele>376.0</ele><time>2026-05-02T13:47:26Z</time></trkpt><trkpt lat="42.451287232815716" lon="12.78746337106101"><ele>375.5</ele><time>2026-05-02T13:47:27Z</time></trkpt><trkpt lat="42.451549459969144" lon="12.787390796897903"><ele>375.0</ele><time>2026-05-02T13:47:28Z</time></trkpt><trkpt lat="42.45181437178246" lon="12.787315025978018"><ele>375.0</ele><time>2026-05-02T13:47:29Z</time></trkpt><trkpt lat="42.45208056910607" lon="12.787237576682795"><ele>375.0</ele><time>2026-05-02T13:47:30Z</time></trkpt><trkpt lat="42.4523499190177" lon="12.787155442864567"><ele>376.0</ele><time>2026-05-02T13:47:31Z</time></trkpt><trkpt lat="42.452622208197255" lon="12.787065933717349"><ele>377.0</ele><time>2026-05-02T13:47:32Z</time></trkpt><trkpt lat="42.4528945534766" lon="12.7869790481501"><ele>377.0</ele><time>2026-05-02T13:47:33Z</time></trkpt><trkpt lat="42.45316398358934" lon="12.786877104796329"><ele>377.0</ele><time>2026-05-02T13:47:34Z</time></trkpt><trkpt lat="42.45343632038302" lon="12.786769754810589"><ele>377.0</ele><time>2026-05-02T13:47:35Z</time></trkpt><trkpt lat="42.4537116538595" lon="12.78666767027249"><ele>377.0</ele><time>2026-05-02T13:47:36Z</time></trkpt><trkpt lat="42.45398540845073" lon="12.786572657861601"><ele>377.0</ele><time>2026-05-02T13:47:37Z</time></trkpt><trkpt lat="42.45425751518481" lon="12.786477620368691"><ele>377.0</ele><time>2026-05-02T13:47:38Z</time></trkpt><trkpt lat="42.45453146810815" lon="12.786378236682669"><ele>376.0</ele><time>2026-05-02T13:47:39Z</time></trkpt><trkpt lat="42.45480515048522" lon="12.786272422966954"><ele>375.0</ele><time>2026-05-02T13:47:40Z</time></trkpt><trkpt lat="42.455078449883786" lon="12.786168165973251"><ele>375.0</ele><time>2026-05-02T13:47:41Z</time></trkpt><trkpt lat="42.45535130407636" lon="12.786063796892119"><ele>375.0</ele><time>2026-05-02T13:47:42Z</time></trkpt><trkpt lat="42.45562144914602" lon="12.785957575797593"><ele>376.0</ele><time>2026-05-02T13:47:43Z</time></trkpt><trkpt lat="42.45588908464388" lon="12.785851737454896"><ele>377.0</ele><time>2026-05-02T13:47:44Z</time></trkpt><trkpt lat="42.456150406320134" lon="12.785745723950058"><ele>376.5</ele><time>2026-05-02T13:47:45Z</time></trkpt><trkpt lat="42.45640884619868" lon="12.785632671891369"><ele>376.0</ele><time>2026-05-02T13:47:46Z</time></trkpt><trkpt lat="42.456663022615096" lon="12.78551551418253"><ele>376.0</ele><time>2026-05-02T13:47:47Z</time></trkpt><trkpt lat="42.45691841214955" lon="12.78539788317829"><ele>376.0</ele><time>2026-05-02T13:47:48Z</time></trkpt><trkpt lat="42.45717219136813" lon="12.78528130595352"><ele>376.0</ele><time>2026-05-02T13:47:49Z</time></trkpt><trkpt lat="42.45742479508971" lon="12.785160738397481"><ele>376.0</ele><time>2026-05-02T13:47:50Z</time></trkpt><trkpt lat="42.45767628886992" lon="12.785042251083363"><ele>376.0</ele><time>2026-05-02T13:47:51Z</time></trkpt><trkpt lat="42.4579256917689" lon="12.784921524636925"><ele>376.0</ele><time>2026-05-02T13:47:52Z</time></trkpt><trkpt lat="42.45817505114732" lon="12.784796433904939"><ele>375.5</ele><time>2026-05-02T13:47:53Z</time></trkpt><trkpt lat="42.45842371346153" lon="12.784668753222833"><ele>375.0</ele><time>2026-05-02T13:47:54Z</time></trkpt><trkpt lat="42.45867041549725" lon="12.784542348350394"><ele>374.5</ele><time>2026-05-02T13:47:55Z</time></trkpt><trkpt lat="42.45891585628306" lon="12.784414498539986"><ele>374.0</ele><time>2026-05-02T13:47:56Z</time></trkpt><trkpt lat="42.459160655414784" lon="12.78428027390413"><ele>374.0</ele><time>2026-05-02T13:47:57Z</time></trkpt><trkpt lat="42.45940377835511" lon="12.784144313898311"><ele>374.0</ele><time>2026-05-02T13:47:58Z</time></trkpt><trkpt lat="42.4596471341567" lon="12.784010402979975"><ele>375.0</ele><time>2026-05-02T13:47:59Z</time></trkpt><trkpt lat="42.45988943669866" lon="12.783878770459705"><ele>376.0</ele><time>2026-05-02T13:48:00Z</time></trkpt><trkpt lat="42.46013329912574" lon="12.783741120468177"><ele>376.0</ele><time>2026-05-02T13:48:01Z</time></trkpt><trkpt lat="42.460371004024104" lon="12.783601299039741"><ele>376.0</ele><time>2026-05-02T13:48:02Z</time></trkpt><trkpt lat="42.4606088205768" lon="12.783461668654278"><ele>375.0</ele><time>2026-05-02T13:48:03Z</time></trkpt><trkpt lat="42.46084399361121" lon="12.783322468080051"><ele>374.0</ele><time>2026-05-02T13:48:04Z</time></trkpt><trkpt lat="42.46107949275166" lon="12.78317199604909"><ele>375.0</ele><time>2026-05-02T13:48:05Z</time></trkpt><trkpt lat="42.4613122421744" lon="12.783021951941228"><ele>376.0</ele><time>2026-05-02T13:48:06Z</time></trkpt><trkpt lat="42.461543706044345" lon="12.782876445652034"><ele>376.0</ele><time>2026-05-02T13:48:07Z</time></trkpt><trkpt lat="42.46177357010866" lon="12.782726092470575"><ele>376.0</ele><time>2026-05-02T13:48:08Z</time></trkpt><trkpt lat="42.4620040167024" lon="12.782584450480723"><ele>375.5</ele><time>2026-05-02T13:48:09Z</time></trkpt><trkpt lat="42.46223132109673" lon="12.782438111880793"><ele>375.0</ele><time>2026-05-02T13:48:10Z</time></trkpt><trkpt lat="42.46245825211956" lon="12.782290454851823"><ele>375.0</ele><time>2026-05-02T13:48:11Z</time></trkpt><trkpt lat="42.46268772824711" lon="12.782136106055127"><ele>375.0</ele><time>2026-05-02T13:48:12Z</time></trkpt><trkpt lat="42.46291616302403" lon="12.781985511928022"><ele>374.0</ele><time>2026-05-02T13:48:13Z</time></trkpt><trkpt lat="42.46314309246383" lon="12.78184532302471"><ele>373.0</ele><time>2026-05-02T13:48:14Z</time></trkpt><trkpt lat="42.463375220861" lon="12.781700855588095"><ele>373.0</ele><time>2026-05-02T13:48:15Z</time></trkpt><trkpt lat="42.463604709258846" lon="12.781550790161205"><ele>373.0</ele><time>2026-05-02T13:48:16Z</time></trkpt><trkpt lat="42.46383540930675" lon="12.781402761857738"><ele>374.0</ele><time>2026-05-02T13:48:17Z</time></trkpt><trkpt lat="42.46406639734254" lon="12.7812513767964"><ele>375.0</ele><time>2026-05-02T13:48:18Z</time></trkpt><trkpt lat="42.464296711767105" lon="12.781103456959853"><ele>375.5</ele><time>2026-05-02T13:48:19Z</time></trkpt><trkpt lat="42.46452705280236" lon="12.780950062014726"><ele>376.0</ele><time>2026-05-02T13:48:20Z</time></trkpt><trkpt lat="42.46475782788467" lon="12.780802572355675"><ele>376.5</ele><time>2026-05-02T13:48:21Z</time></trkpt><trkpt lat="42.46499676504387" lon="12.780680425282114"><ele>377.0</ele><time>2026-05-02T13:48:22Z</time></trkpt><trkpt lat="42.46522608317913" lon="12.780534188464193"><ele>376.0</ele><time>2026-05-02T13:48:23Z</time></trkpt><trkpt lat="42.46545422526515" lon="12.780388984939012"><ele>375.0</ele><time>2026-05-02T13:48:24Z</time></trkpt><trkpt lat="42.46568155400757" lon="12.780244802880386"><ele>376.0</ele><time>2026-05-02T13:48:25Z</time></trkpt><trkpt lat="42.46590770088117" lon="12.78010094502028"><ele>377.0</ele><time>2026-05-02T13:48:26Z</time></trkpt><trkpt lat="42.46613393590134" lon="12.77995637773442"><ele>377.0</ele><time>2026-05-02T13:48:27Z</time></trkpt><trkpt lat="42.46635643403649" lon="12.779814198369113"><ele>377.0</ele><time>2026-05-02T13:48:28Z</time></trkpt><trkpt lat="42.466579223536286" lon="12.77967183281692"><ele>377.0</ele><time>2026-05-02T13:48:29Z</time></trkpt><trkpt lat="42.4668013790008" lon="12.779528982449403"><ele>377.0</ele><time>2026-05-02T13:48:30Z</time></trkpt><trkpt lat="42.46702271012821" lon="12.779387401523142"><ele>376.5</ele><time>2026-05-02T13:48:31Z</time></trkpt><trkpt lat="42.467243904006175" lon="12.779246116687231"><ele>376.0</ele><time>2026-05-02T13:48:32Z</time></trkpt><trkpt lat="42.46746651038084" lon="12.779103929638874"><ele>376.0</ele><time>2026-05-02T13:48:33Z</time></trkpt><trkpt lat="42.467690466988266" lon="12.77896088015035"><ele>376.0</ele><time>2026-05-02T13:48:34Z</time></trkpt><trkpt lat="42.4679156258365" lon="12.778817011271409"><ele>376.0</ele><time>2026-05-02T13:48:35Z</time></trkpt><trkpt lat="42.468142016666995" lon="12.77867183286046"><ele>376.0</ele><time>2026-05-02T13:48:36Z</time></trkpt><trkpt lat="42.46837281228898" lon="12.778523829772368"><ele>375.5</ele><time>2026-05-02T13:48:37Z</time></trkpt><trkpt lat="42.46860427170287" lon="12.778375401305086"><ele>375.0</ele><time>2026-05-02T13:48:38Z</time></trkpt><trkpt lat="42.46883585230546" lon="12.77822662491626"><ele>375.0</ele><time>2026-05-02T13:48:39Z</time></trkpt><trkpt lat="42.469061452801036" lon="12.778063907963935"><ele>375.0</ele><time>2026-05-02T13:48:40Z</time></trkpt><trkpt lat="42.46929506257591" lon="12.77791840338079"><ele>375.0</ele><time>2026-05-02T13:48:41Z</time></trkpt><trkpt lat="42.46952746843909" lon="12.777769940121173"><ele>375.0</ele><time>2026-05-02T13:48:42Z</time></trkpt><trkpt lat="42.4697615242187" lon="12.777624812146135"><ele>374.5</ele><time>2026-05-02T13:48:43Z</time></trkpt><trkpt lat="42.46999283949201" lon="12.777480556227024"><ele>374.0</ele><time>2026-05-02T13:48:44Z</time></trkpt><trkpt lat="42.47022275573634" lon="12.777333075999579"><ele>373.5</ele><time>2026-05-02T13:48:45Z</time></trkpt><trkpt lat="42.47045657984271" lon="12.777188559163774"><ele>373.0</ele><time>2026-05-02T13:48:46Z</time></trkpt><trkpt lat="42.47069081682917" lon="12.77704688697574"><ele>373.0</ele><time>2026-05-02T13:48:47Z</time></trkpt><trkpt lat="42.470924991525735" lon="12.776893531442393"><ele>373.0</ele><time>2026-05-02T13:48:48Z</time></trkpt><trkpt lat="42.47115891173487" lon="12.776732090182865"><ele>373.5</ele><time>2026-05-02T13:48:49Z</time></trkpt><trkpt lat="42.471393469935215" lon="12.776577683700058"><ele>374.0</ele><time>2026-05-02T13:48:50Z</time></trkpt><trkpt lat="42.471629397310295" lon="12.776420743113414"><ele>374.0</ele><time>2026-05-02T13:48:51Z</time></trkpt><trkpt lat="42.47186947163028" lon="12.776291688649167"><ele>374.0</ele><time>2026-05-02T13:48:52Z</time></trkpt><trkpt lat="42.4721017878136" lon="12.776143557730157"><ele>374.0</ele><time>2026-05-02T13:48:53Z</time></trkpt><trkpt lat="42.472327318614546" lon="12.775999126821318"><ele>374.0</ele><time>2026-05-02T13:48:54Z</time></trkpt><trkpt lat="42.47255601383802" lon="12.775852662992461"><ele>374.0</ele><time>2026-05-02T13:48:55Z</time></trkpt><trkpt lat="42.472786800630765" lon="12.775704859869572"><ele>374.0</ele><time>2026-05-02T13:48:56Z</time></trkpt><trkpt lat="42.47301946063837" lon="12.775555856678197"><ele>373.0</ele><time>2026-05-02T13:48:57Z</time></trkpt><trkpt lat="42.47325459019007" lon="12.775405272252566"><ele>372.0</ele><time>2026-05-02T13:48:58Z</time></trkpt><trkpt lat="42.47349040042774" lon="12.775254253373882"><ele>372.0</ele><time>2026-05-02T13:48:59Z</time></trkpt><trkpt lat="42.473726236626035" lon="12.775103216259646"><ele>372.0</ele><time>2026-05-02T13:49:00Z</time></trkpt><trkpt lat="42.47396324672771" lon="12.77495142738059"><ele>372.0</ele><time>2026-05-02T13:49:01Z</time></trkpt><trkpt lat="42.47419977907605" lon="12.774799944441757"><ele>372.0</ele><time>2026-05-02T13:49:02Z</time></trkpt><trkpt lat="42.474439693915784" lon="12.774646295277604"><ele>372.5</ele><time>2026-05-02T13:49:03Z</time></trkpt><trkpt lat="42.47467837977677" lon="12.774493283081604"><ele>373.0</ele><time>2026-05-02T13:49:04Z</time></trkpt><trkpt lat="42.474908899708666" lon="12.774322034168481"><ele>373.0</ele><time>2026-05-02T13:49:05Z</time></trkpt><trkpt lat="42.47514369542705" lon="12.774169899515744"><ele>373.0</ele><time>2026-05-02T13:49:06Z</time></trkpt><trkpt lat="42.47538177144431" lon="12.774041783829718"><ele>372.5</ele><time>2026-05-02T13:49:07Z</time></trkpt><trkpt lat="42.47561362982868" lon="12.773892956516192"><ele>372.0</ele><time>2026-05-02T13:49:08Z</time></trkpt><trkpt lat="42.4758321601448" lon="12.773730572286901"><ele>372.0</ele><time>2026-05-02T13:49:09Z</time></trkpt><trkpt lat="42.47605994591397" lon="12.77359389082513"><ele>372.0</ele><time>2026-05-02T13:49:10Z</time></trkpt><trkpt lat="42.47628323602303" lon="12.773451139098903"><ele>373.0</ele><time>2026-05-02T13:49:11Z</time></trkpt><trkpt lat="42.47650548100616" lon="12.773308464749967"><ele>374.0</ele><time>2026-05-02T13:49:12Z</time></trkpt><trkpt lat="42.47672808640948" lon="12.773169400736974"><ele>374.0</ele><time>2026-05-02T13:49:13Z</time></trkpt><trkpt lat="42.47694733797105" lon="12.773026527592911"><ele>374.0</ele><time>2026-05-02T13:49:14Z</time></trkpt><trkpt lat="42.4771674564093" lon="12.772881605227855"><ele>374.0</ele><time>2026-05-02T13:49:15Z</time></trkpt><trkpt lat="42.47738712231191" lon="12.772742900653627"><ele>374.0</ele><time>2026-05-02T13:49:16Z</time></trkpt><trkpt lat="42.47760652624453" lon="12.772598707195508"><ele>374.0</ele><time>2026-05-02T13:49:17Z</time></trkpt><trkpt lat="42.47783452425345" lon="12.772475475207658"><ele>374.0</ele><time>2026-05-02T13:49:18Z</time></trkpt><trkpt lat="42.4780604876593" lon="12.772331042810288"><ele>373.5</ele><time>2026-05-02T13:49:19Z</time></trkpt><trkpt lat="42.47828792778206" lon="12.772185625499363"><ele>373.0</ele><time>2026-05-02T13:49:20Z</time></trkpt><trkpt lat="42.47851551910846" lon="12.772039994163249"><ele>373.0</ele><time>2026-05-02T13:49:21Z</time></trkpt><trkpt lat="42.47874165561174" lon="12.771895292162013"><ele>373.0</ele><time>2026-05-02T13:49:22Z</time></trkpt><trkpt lat="42.478966813146485" lon="12.771751216572248"><ele>373.5</ele><time>2026-05-02T13:49:23Z</time></trkpt><trkpt lat="42.47918285537513" lon="12.77158926071436"><ele>374.0</ele><time>2026-05-02T13:49:24Z</time></trkpt><trkpt lat="42.47940513153796" lon="12.7714566514833"><ele>373.5</ele><time>2026-05-02T13:49:25Z</time></trkpt><trkpt lat="42.47962556405558" lon="12.771319163366083"><ele>373.0</ele><time>2026-05-02T13:49:26Z</time></trkpt><trkpt lat="42.479843142794955" lon="12.771178982327132"><ele>373.0</ele><time>2026-05-02T13:49:27Z</time></trkpt><trkpt lat="42.480060960335166" lon="12.77103947850455"><ele>373.0</ele><time>2026-05-02T13:49:28Z</time></trkpt><trkpt lat="42.48027774506348" lon="12.770898113606389"><ele>372.5</ele><time>2026-05-02T13:49:29Z</time></trkpt><trkpt lat="42.480495978743754" lon="12.770759558878506"><ele>372.0</ele><time>2026-05-02T13:49:30Z</time></trkpt><trkpt lat="42.48071351071808" lon="12.77062670784956"><ele>372.0</ele><time>2026-05-02T13:49:31Z</time></trkpt><trkpt lat="42.48093098965451" lon="12.770490545427394"><ele>372.0</ele><time>2026-05-02T13:49:32Z</time></trkpt><trkpt lat="42.48114859322972" lon="12.770350189732286"><ele>372.0</ele><time>2026-05-02T13:49:33Z</time></trkpt><trkpt lat="42.481368587454426" lon="12.770212166444555"><ele>372.0</ele><time>2026-05-02T13:49:34Z</time></trkpt><trkpt lat="42.481581367800246" lon="12.770067427159727"><ele>372.5</ele><time>2026-05-02T13:49:35Z</time></trkpt><trkpt lat="42.481798717175685" lon="12.769932524152312"><ele>373.0</ele><time>2026-05-02T13:49:36Z</time></trkpt><trkpt lat="42.48201504019059" lon="12.769794416565858"><ele>373.0</ele><time>2026-05-02T13:49:37Z</time></trkpt><trkpt lat="42.48222992593903" lon="12.76965126914178"><ele>373.0</ele><time>2026-05-02T13:49:38Z</time></trkpt><trkpt lat="42.48244939443" lon="12.769499867859805"><ele>374.0</ele><time>2026-05-02T13:49:39Z</time></trkpt><trkpt lat="42.48267602515042" lon="12.76934560002548"><ele>375.0</ele><time>2026-05-02T13:49:40Z</time></trkpt><trkpt lat="42.48291295383465" lon="12.769202112160537"><ele>373.0</ele><time>2026-05-02T13:49:41Z</time></trkpt><trkpt lat="42.483148583289804" lon="12.769043882649614"><ele>371.0</ele><time>2026-05-02T13:49:42Z</time></trkpt><trkpt lat="42.4833871777599" lon="12.768891748334704"><ele>371.0</ele><time>2026-05-02T13:49:43Z</time></trkpt><trkpt lat="42.48363003236547" lon="12.768737937405133"><ele>371.0</ele><time>2026-05-02T13:49:44Z</time></trkpt><trkpt lat="42.483877895463124" lon="12.768588924335397"><ele>372.0</ele><time>2026-05-02T13:49:45Z</time></trkpt><trkpt lat="42.484125598406244" lon="12.768435683341723"><ele>373.0</ele><time>2026-05-02T13:49:46Z</time></trkpt><trkpt lat="42.484374547545414" lon="12.768284309740638"><ele>373.5</ele><time>2026-05-02T13:49:47Z</time></trkpt><trkpt lat="42.48461812637409" lon="12.76812754572543"><ele>374.0</ele><time>2026-05-02T13:49:48Z</time></trkpt><trkpt lat="42.48486073121017" lon="12.767972595662417"><ele>374.0</ele><time>2026-05-02T13:49:49Z</time></trkpt><trkpt lat="42.485100871359634" lon="12.76781368853138"><ele>374.0</ele><time>2026-05-02T13:49:50Z</time></trkpt><trkpt lat="42.485342872460144" lon="12.767662726440431"><ele>374.0</ele><time>2026-05-02T13:49:51Z</time></trkpt><trkpt lat="42.485581860841144" lon="12.76750887640779"><ele>374.0</ele><time>2026-05-02T13:49:52Z</time></trkpt><trkpt lat="42.48582767280762" lon="12.76735879852554"><ele>374.0</ele><time>2026-05-02T13:49:53Z</time></trkpt><trkpt lat="42.48606893791987" lon="12.767203259485678"><ele>374.0</ele><time>2026-05-02T13:49:54Z</time></trkpt><trkpt lat="42.486304549869175" lon="12.767050058024658"><ele>373.5</ele><time>2026-05-02T13:49:55Z</time></trkpt><trkpt lat="42.48654176693438" lon="12.766895163716393"><ele>373.0</ele><time>2026-05-02T13:49:56Z</time></trkpt><trkpt lat="42.48678027392544" lon="12.76674128015665"><ele>373.0</ele><time>2026-05-02T13:49:57Z</time></trkpt><trkpt lat="42.487015764797476" lon="12.766586029055789"><ele>373.0</ele><time>2026-05-02T13:49:58Z</time></trkpt><trkpt lat="42.487250770132405" lon="12.76642901614062"><ele>372.5</ele><time>2026-05-02T13:49:59Z</time></trkpt><trkpt lat="42.48748559337195" lon="12.7662743074219"><ele>372.0</ele><time>2026-05-02T13:50:00Z</time></trkpt><trkpt lat="42.48772276883683" lon="12.766123256152397"><ele>372.5</ele><time>2026-05-02T13:50:01Z</time></trkpt><trkpt lat="42.48795677018945" lon="12.765975085520747"><ele>373.0</ele><time>2026-05-02T13:50:02Z</time></trkpt><trkpt lat="42.48819049654398" lon="12.765826561974956"><ele>373.0</ele><time>2026-05-02T13:50:03Z</time></trkpt><trkpt lat="42.488429222840075" lon="12.765676845198323"><ele>373.0</ele><time>2026-05-02T13:50:04Z</time></trkpt><trkpt lat="42.48866637637863" lon="12.765529813361102"><ele>374.0</ele><time>2026-05-02T13:50:05Z</time></trkpt><trkpt lat="42.488901781304016" lon="12.765384531102859"><ele>375.0</ele><time>2026-05-02T13:50:06Z</time></trkpt><trkpt lat="42.489133663965404" lon="12.765237932766755"><ele>374.5</ele><time>2026-05-02T13:50:07Z</time></trkpt><trkpt lat="42.489362621335474" lon="12.765087965983207"><ele>374.0</ele><time>2026-05-02T13:50:08Z</time></trkpt><trkpt lat="42.4895933322109" lon="12.764939501869613"><ele>378.0</ele><time>2026-05-02T13:50:09Z</time></trkpt><trkpt lat="42.489824452920224" lon="12.764790330577082"><ele>382.0</ele><time>2026-05-02T13:50:10Z</time></trkpt><trkpt lat="42.490059095913324" lon="12.764638552689174"><ele>382.0</ele><time>2026-05-02T13:50:11Z</time></trkpt><trkpt lat="42.490297579359115" lon="12.764486923030637"><ele>382.0</ele><time>2026-05-02T13:50:12Z</time></trkpt><trkpt lat="42.490538754930604" lon="12.76433941264492"><ele>398.0</ele><time>2026-05-02T13:50:13Z</time></trkpt><trkpt lat="42.490779328695226" lon="12.764191494134819"><ele>414.0</ele><time>2026-05-02T13:50:14Z</time></trkpt><trkpt lat="42.491020260037985" lon="12.764042827544664"><ele>430.0</ele><time>2026-05-02T13:50:15.015Z</time></trkpt><trkpt lat="42.4912599973536" lon="12.763903771884992"><ele>446.0</ele><time>2026-05-02T13:50:16.021Z</time></trkpt><trkpt lat="42.49149747055004" lon="12.76377263453177"><ele>446.0</ele><time>2026-05-02T13:50:17.022Z</time></trkpt><trkpt lat="42.49173298864896" lon="12.763642383288056"><ele>446.0</ele><time>2026-05-02T13:50:18.018Z</time></trkpt><trkpt lat="42.50343203548575" lon="12.746948814031432"><ele>422.66666666666663</ele><time>2026-05-02T13:51:28Z</time></trkpt><trkpt lat="42.503617913276415" lon="12.746875964975597"><ele>399.3333333333333</ele><time>2026-05-02T13:51:29Z</time></trkpt><trkpt lat="42.50382822784924" lon="12.746822992890472"><ele>376.0</ele><time>2026-05-02T13:51:30Z</time></trkpt><trkpt lat="42.50404348755409" lon="12.746741317348873"><ele>376.66666666666663</ele><time>2026-05-02T13:51:31Z</time></trkpt><trkpt lat="42.504261131912465" lon="12.74669136047753"><ele>377.3333333333333</ele><time>2026-05-02T13:51:32Z</time></trkpt><trkpt lat="42.50448416543661" lon="12.746657150314444"><ele>378.0</ele><time>2026-05-02T13:51:33Z</time></trkpt><trkpt lat="42.50471141286333" lon="12.746630531003184"><ele>378.0</ele><time>2026-05-02T13:51:34Z</time></trkpt><trkpt lat="42.50493956143388" lon="12.746618008419812"><ele>378.0</ele><time>2026-05-02T13:51:35Z</time></trkpt><trkpt lat="42.50516494623442" lon="12.746614058802333"><ele>378.0</ele><time>2026-05-02T13:51:36Z</time></trkpt><trkpt lat="42.505391778353605" lon="12.746620964761126"><ele>378.0</ele><time>2026-05-02T13:51:37Z</time></trkpt><trkpt lat="42.5056177115863" lon="12.746633679392971"><ele>380.0</ele><time>2026-05-02T13:51:38Z</time></trkpt><trkpt lat="42.50584321816901" lon="12.74666004133954"><ele>382.0</ele><time>2026-05-02T13:51:39Z</time></trkpt><trkpt lat="42.50606699730492" lon="12.746699034778043"><ele>379.3333333333333</ele><time>2026-05-02T13:51:40Z</time></trkpt><trkpt lat="42.506289529624944" lon="12.746743756241349"><ele>376.6666666666667</ele><time>2026-05-02T13:51:41Z</time></trkpt><trkpt lat="42.506510146973234" lon="12.746792298341251"><ele>374.0</ele><time>2026-05-02T13:51:42Z</time></trkpt><trkpt lat="42.506729880816984" lon="12.746821954761513"><ele>374.0</ele><time>2026-05-02T13:51:43Z</time></trkpt><trkpt lat="42.506957289999164" lon="12.746864731951032"><ele>374.0</ele><time>2026-05-02T13:51:44Z</time></trkpt><trkpt lat="42.50718187341412" lon="12.74690507840943"><ele>372.5</ele><time>2026-05-02T13:51:45Z</time></trkpt><trkpt lat="42.507406908961585" lon="12.746940729666127"><ele>371.0</ele><time>2026-05-02T13:51:46Z</time></trkpt><trkpt lat="42.507631188292976" lon="12.746971055854209"><ele>371.0</ele><time>2026-05-02T13:51:47Z</time></trkpt><trkpt lat="42.5078576899908" lon="12.746993571354624"><ele>371.0</ele><time>2026-05-02T13:51:48Z</time></trkpt><trkpt lat="42.50808418550056" lon="12.747040039079803"><ele>371.0</ele><time>2026-05-02T13:51:49Z</time></trkpt><trkpt lat="42.50830823092735" lon="12.747048648484503"><ele>371.0</ele><time>2026-05-02T13:51:50Z</time></trkpt><trkpt lat="42.508532730494984" lon="12.747053445564354"><ele>371.0</ele><time>2026-05-02T13:51:51Z</time></trkpt><trkpt lat="42.50875285535056" lon="12.74701960565214"><ele>370.6666666666667</ele><time>2026-05-02T13:51:52Z</time></trkpt><trkpt lat="42.50897249521854" lon="12.747004541132775"><ele>370.3333333333333</ele><time>2026-05-02T13:51:53Z</time></trkpt><trkpt lat="42.509195526526206" lon="12.746987321269419"><ele>370.0</ele><time>2026-05-02T13:51:54Z</time></trkpt><trkpt lat="42.50941510021719" lon="12.74695983580756"><ele>371.3333333333333</ele><time>2026-05-02T13:51:55Z</time></trkpt><trkpt lat="42.509631708010076" lon="12.746921823555835"><ele>372.6666666666667</ele><time>2026-05-02T13:51:56Z</time></trkpt><trkpt lat="42.50984440551508" lon="12.746878915798632"><ele>374.0</ele><time>2026-05-02T13:51:57Z</time></trkpt><trkpt lat="42.51005186466481" lon="12.746832585645036"><ele>374.0</ele><time>2026-05-02T13:51:58Z</time></trkpt><trkpt lat="42.510258560553865" lon="12.746774424675634"><ele>374.0</ele><time>2026-05-02T13:51:59Z</time></trkpt><trkpt lat="42.510464868518916" lon="12.746730613063686"><ele>374.0</ele><time>2026-05-02T13:52:00Z</time></trkpt><trkpt lat="42.5106708528339" lon="12.746670511509416"><ele>376.0</ele><time>2026-05-02T13:52:01Z</time></trkpt><trkpt lat="42.51087469497541" lon="12.74660338757696"><ele>378.0</ele><time>2026-05-02T13:52:02Z</time></trkpt><trkpt lat="42.51108021018588" lon="12.746521757284372"><ele>380.0</ele><time>2026-05-02T13:52:03Z</time></trkpt><trkpt lat="42.511285658895275" lon="12.746426389974172"><ele>382.33333333333337</ele><time>2026-05-02T13:52:04Z</time></trkpt><trkpt lat="42.51148576734719" lon="12.746319633175782"><ele>384.6666666666667</ele><time>2026-05-02T13:52:05Z</time></trkpt><trkpt lat="42.51168100410102" lon="12.746192869972562"><ele>387.0</ele><time>2026-05-02T13:52:06Z</time></trkpt><trkpt lat="42.51188509591451" lon="12.746079828204602"><ele>382.5</ele><time>2026-05-02T13:52:07Z</time></trkpt><trkpt lat="42.51209252920313" lon="12.745962952498331"><ele>378.0</ele><time>2026-05-02T13:52:08Z</time></trkpt><trkpt lat="42.51230253196342" lon="12.745846051040562"><ele>378.0</ele><time>2026-05-02T13:52:09Z</time></trkpt><trkpt lat="42.51251525309994" lon="12.74572475723406"><ele>378.0</ele><time>2026-05-02T13:52:10Z</time></trkpt><trkpt lat="42.51272880676221" lon="12.745601825774484"><ele>384.5</ele><time>2026-05-02T13:52:11Z</time></trkpt><trkpt lat="42.51294551796307" lon="12.745478657074443"><ele>391.0</ele><time>2026-05-02T13:52:12Z</time></trkpt><trkpt lat="42.5131621369288" lon="12.745353705473441"><ele>391.0</ele><time>2026-05-02T13:52:13Z</time></trkpt><trkpt lat="42.51338015810887" lon="12.745227963296728"><ele>391.0</ele><time>2026-05-02T13:52:14Z</time></trkpt><trkpt lat="42.51360123950818" lon="12.745100973317793"><ele>383.0</ele><time>2026-05-02T13:52:15Z</time></trkpt><trkpt lat="42.51382045512725" lon="12.744975093229858"><ele>375.0</ele><time>2026-05-02T13:52:16Z</time></trkpt><trkpt lat="42.51404016843113" lon="12.744849880907436"><ele>375.0</ele><time>2026-05-02T13:52:17Z</time></trkpt><trkpt lat="42.51426073482752" lon="12.744724334179255"><ele>375.0</ele><time>2026-05-02T13:52:18Z</time></trkpt><trkpt lat="42.51448036327234" lon="12.744599598460375"><ele>373.5</ele><time>2026-05-02T13:52:19Z</time></trkpt><trkpt lat="42.51469973587955" lon="12.744475181906894"><ele>372.0</ele><time>2026-05-02T13:52:20Z</time></trkpt><trkpt lat="42.5149156409529" lon="12.744354302391455"><ele>372.0</ele><time>2026-05-02T13:52:21Z</time></trkpt><trkpt lat="42.51513232987259" lon="12.744230901615266"><ele>372.0</ele><time>2026-05-02T13:52:22Z</time></trkpt><trkpt lat="42.51534781949271" lon="12.744101200697763"><ele>376.5</ele><time>2026-05-02T13:52:23Z</time></trkpt><trkpt lat="42.51556222305953" lon="12.743972808873366"><ele>381.0</ele><time>2026-05-02T13:52:24Z</time></trkpt><trkpt lat="42.515776634218206" lon="12.743838931041163"><ele>381.0</ele><time>2026-05-02T13:52:25Z</time></trkpt><trkpt lat="42.51598826565577" lon="12.74369270639363"><ele>381.0</ele><time>2026-05-02T13:52:26Z</time></trkpt><trkpt lat="42.51619567931911" lon="12.743537554469828"><ele>376.5</ele><time>2026-05-02T13:52:27Z</time></trkpt><trkpt lat="42.51640259320814" lon="12.743371152519096"><ele>372.0</ele><time>2026-05-02T13:52:28Z</time></trkpt><trkpt lat="42.516606836471766" lon="12.74320149389278"><ele>372.0</ele><time>2026-05-02T13:52:29Z</time></trkpt><trkpt lat="42.51680676934803" lon="12.743017578553548"><ele>372.0</ele><time>2026-05-02T13:52:30Z</time></trkpt><trkpt lat="42.51699754848324" lon="12.74282469022917"><ele>376.5</ele><time>2026-05-02T13:52:31Z</time></trkpt><trkpt lat="42.51718421397112" lon="12.742628598384739"><ele>381.0</ele><time>2026-05-02T13:52:32Z</time></trkpt><trkpt lat="42.51736636316578" lon="12.742423978329267"><ele>381.0</ele><time>2026-05-02T13:52:33Z</time></trkpt><trkpt lat="42.51754089423604" lon="12.742210784365186"><ele>381.0</ele><time>2026-05-02T13:52:34Z</time></trkpt><trkpt lat="42.517711467533154" lon="12.741993696994356"><ele>383.5</ele><time>2026-05-02T13:52:35Z</time></trkpt><trkpt lat="42.51787848375303" lon="12.74177602689018"><ele>386.0</ele><time>2026-05-02T13:52:36Z</time></trkpt><trkpt lat="42.51804632789351" lon="12.741558420600821"><ele>386.0</ele><time>2026-05-02T13:52:37Z</time></trkpt><trkpt lat="42.51821923478847" lon="12.741335589985892"><ele>386.0</ele><time>2026-05-02T13:52:38Z</time></trkpt><trkpt lat="42.51839275284737" lon="12.741116746248592"><ele>383.0</ele><time>2026-05-02T13:52:39Z</time></trkpt><trkpt lat="42.51856963635059" lon="12.740905217539776"><ele>380.0</ele><time>2026-05-02T13:52:40Z</time></trkpt><trkpt lat="42.51875016076739" lon="12.740708208935574"><ele>380.0</ele><time>2026-05-02T13:52:41Z</time></trkpt><trkpt lat="42.51894728074178" lon="12.740514925709425"><ele>380.0</ele><time>2026-05-02T13:52:42Z</time></trkpt><trkpt lat="42.519148267818004" lon="12.740325600464399"><ele>376.0</ele><time>2026-05-02T13:52:43Z</time></trkpt><trkpt lat="42.519355434755354" lon="12.740142801363564"><ele>372.0</ele><time>2026-05-02T13:52:44Z</time></trkpt><trkpt lat="42.51956585898371" lon="12.739965054616418"><ele>378.0</ele><time>2026-05-02T13:52:45Z</time></trkpt><trkpt lat="42.519781812547016" lon="12.739798722638879"><ele>384.0</ele><time>2026-05-02T13:52:46Z</time></trkpt><trkpt lat="42.52000310288852" lon="12.739648143752603"><ele>384.0</ele><time>2026-05-02T13:52:47Z</time></trkpt><trkpt lat="42.52022523167328" lon="12.739508114417887"><ele>384.0</ele><time>2026-05-02T13:52:48Z</time></trkpt><trkpt lat="42.52045023186822" lon="12.739371707650815"><ele>378.5</ele><time>2026-05-02T13:52:49Z</time></trkpt><trkpt lat="42.52067533553441" lon="12.73924879682137"><ele>373.0</ele><time>2026-05-02T13:52:50Z</time></trkpt><trkpt lat="42.520900183295865" lon="12.739120708288619"><ele>373.0</ele><time>2026-05-02T13:52:51Z</time></trkpt><trkpt lat="42.521121414030745" lon="12.738992842414673"><ele>373.0</ele><time>2026-05-02T13:52:52Z</time></trkpt><trkpt lat="42.52134081683894" lon="12.73886060131835"><ele>372.5</ele><time>2026-05-02T13:52:53Z</time></trkpt><trkpt lat="42.52155622946972" lon="12.738722164332689"><ele>372.0</ele><time>2026-05-02T13:52:54Z</time></trkpt><trkpt lat="42.52176560757894" lon="12.738569867083724"><ele>371.5</ele><time>2026-05-02T13:52:55Z</time></trkpt><trkpt lat="42.52197147432308" lon="12.738410370374643"><ele>371.0</ele><time>2026-05-02T13:52:56Z</time></trkpt><trkpt lat="42.52217325819875" lon="12.738244158852087"><ele>371.0</ele><time>2026-05-02T13:52:57Z</time></trkpt><trkpt lat="42.52236896383768" lon="12.738066586527724"><ele>371.0</ele><time>2026-05-02T13:52:58Z</time></trkpt><trkpt lat="42.52255721885254" lon="12.737880246445867"><ele>370.0</ele><time>2026-05-02T13:52:59Z</time></trkpt><trkpt lat="42.52274217064968" lon="12.737687623508336"><ele>369.0</ele><time>2026-05-02T13:53:00Z</time></trkpt><trkpt lat="42.522922582795196" lon="12.737484648887348"><ele>369.0</ele><time>2026-05-02T13:53:01Z</time></trkpt><trkpt lat="42.52309778261895" lon="12.737266980431801"><ele>369.0</ele><time>2026-05-02T13:53:02Z</time></trkpt><trkpt lat="42.52326700449656" lon="12.737034927778792"><ele>369.0</ele><time>2026-05-02T13:53:03Z</time></trkpt><trkpt lat="42.52343081076414" lon="12.736796348668003"><ele>369.0</ele><time>2026-05-02T13:53:04Z</time></trkpt><trkpt lat="42.523587599825866" lon="12.736549061926027"><ele>368.5</ele><time>2026-05-02T13:53:05Z</time></trkpt><trkpt lat="42.523741823354065" lon="12.736291496165542"><ele>368.0</ele><time>2026-05-02T13:53:06Z</time></trkpt><trkpt lat="42.523890992437295" lon="12.736028370730967"><ele>369.0</ele><time>2026-05-02T13:53:07Z</time></trkpt><trkpt lat="42.524037463073164" lon="12.735759234453555"><ele>370.0</ele><time>2026-05-02T13:53:08Z</time></trkpt><trkpt lat="42.52418221912954" lon="12.735485459897726"><ele>371.5</ele><time>2026-05-02T13:53:09Z</time></trkpt><trkpt lat="42.524322569461354" lon="12.735207187706992"><ele>373.0</ele><time>2026-05-02T13:53:10Z</time></trkpt><trkpt lat="42.52446049552372" lon="12.734928543483267"><ele>372.5</ele><time>2026-05-02T13:53:11Z</time></trkpt><trkpt lat="42.524597114289335" lon="12.73464449173433"><ele>372.0</ele><time>2026-05-02T13:53:12Z</time></trkpt><trkpt lat="42.52474119854776" lon="12.734377243738868"><ele>373.5</ele><time>2026-05-02T13:53:13Z</time></trkpt><trkpt lat="42.52488566191504" lon="12.734107117334183"><ele>375.0</ele><time>2026-05-02T13:53:14Z</time></trkpt><trkpt lat="42.52503131981819" lon="12.733837169893288"><ele>375.0</ele><time>2026-05-02T13:53:15Z</time></trkpt><trkpt lat="42.52517594053914" lon="12.733567914173276"><ele>375.0</ele><time>2026-05-02T13:53:16Z</time></trkpt><trkpt lat="42.52532194220148" lon="12.733304255832483"><ele>375.5</ele><time>2026-05-02T13:53:17Z</time></trkpt><trkpt lat="42.52547277155958" lon="12.733046259160275"><ele>376.0</ele><time>2026-05-02T13:53:18Z</time></trkpt><trkpt lat="42.52562942859944" lon="12.73279684372873"><ele>383.0</ele><time>2026-05-02T13:53:19Z</time></trkpt><trkpt lat="42.525791937207465" lon="12.732555234345446"><ele>390.0</ele><time>2026-05-02T13:53:20Z</time></trkpt><trkpt lat="42.52595778618272" lon="12.732316059427648"><ele>390.0</ele><time>2026-05-02T13:53:21Z</time></trkpt><trkpt lat="42.52612703624162" lon="12.732079592589733"><ele>390.0</ele><time>2026-05-02T13:53:22Z</time></trkpt><trkpt lat="42.52629849318229" lon="12.731855134673513"><ele>385.0</ele><time>2026-05-02T13:53:23Z</time></trkpt><trkpt lat="42.52647544435679" lon="12.731640868303785"><ele>380.0</ele><time>2026-05-02T13:53:24Z</time></trkpt><trkpt lat="42.526659428682535" lon="12.731430079064587"><ele>380.0</ele><time>2026-05-02T13:53:25Z</time></trkpt><trkpt lat="42.526862028901824" lon="12.731266606595563"><ele>380.0</ele><time>2026-05-02T13:53:26Z</time></trkpt><trkpt lat="42.52706306751463" lon="12.731094363546623"><ele>378.0</ele><time>2026-05-02T13:53:27Z</time></trkpt><trkpt lat="42.52726198681121" lon="12.730929862409727"><ele>376.0</ele><time>2026-05-02T13:53:28Z</time></trkpt><trkpt lat="42.52746799467217" lon="12.730767651792453"><ele>376.0</ele><time>2026-05-02T13:53:29Z</time></trkpt><trkpt lat="42.52767964097651" lon="12.730619419429106"><ele>376.0</ele><time>2026-05-02T13:53:30Z</time></trkpt><trkpt lat="42.52789827201358" lon="12.730485095887868"><ele>373.5</ele><time>2026-05-02T13:53:31Z</time></trkpt><trkpt lat="42.5281224045981" lon="12.730360318042775"><ele>371.0</ele><time>2026-05-02T13:53:32Z</time></trkpt><trkpt lat="42.528348705428236" lon="12.730250283979808"><ele>376.0</ele><time>2026-05-02T13:53:33Z</time></trkpt><trkpt lat="42.52858379703381" lon="12.730145196289143"><ele>381.0</ele><time>2026-05-02T13:53:34.019Z</time></trkpt><trkpt lat="42.52881613183457" lon="12.730052536201882"><ele>383.0</ele><time>2026-05-02T13:53:35.02Z</time></trkpt><trkpt lat="42.52905346266921" lon="12.72997762236855"><ele>385.0</ele><time>2026-05-02T13:53:36.019Z</time></trkpt><trkpt lat="42.52929164123849" lon="12.729913675259299"><ele>385.0</ele><time>2026-05-02T13:53:37.017Z</time></trkpt><trkpt lat="42.52952655104779" lon="12.729838014037266"><ele>385.0</ele><time>2026-05-02T13:53:38.019Z</time></trkpt><trkpt lat="42.52976305264055" lon="12.729790036862012"><ele>393.0</ele><time>2026-05-02T13:53:39.017Z</time></trkpt><trkpt lat="42.53177045333254" lon="12.729312229802453"><ele>403.5</ele><time>2026-05-02T13:53:43.556Z</time></trkpt><trkpt lat="42.53219683032215" lon="12.72912619562312"><ele>414.0</ele><time>2026-05-02T13:53:44.551Z</time></trkpt><trkpt lat="42.5326178401653" lon="12.728904086839421"><ele>442.0</ele><time>2026-05-02T13:53:45.556Z</time></trkpt><trkpt lat="42.53302746928897" lon="12.728652027474936"><ele>469.0</ele><time>2026-05-02T13:53:46.556Z</time></trkpt><trkpt lat="42.53342337918705" lon="12.728362833416146"><ele>477.5</ele><time>2026-05-02T13:53:47.556Z</time></trkpt><trkpt lat="42.533802754176286" lon="12.728037639725013"><ele>486.0</ele><time>2026-05-02T13:53:48.554Z</time></trkpt><trkpt lat="42.53417069468077" lon="12.72768540896224"><ele>497.0</ele><time>2026-05-02T13:53:49.556Z</time></trkpt><trkpt lat="42.53451797265773" lon="12.727298433448356"><ele>508.0</ele><time>2026-05-02T13:53:50.556Z</time></trkpt><trkpt lat="42.53484881713754" lon="12.726885825478776"><ele>526.5</ele><time>2026-05-02T13:53:51.556Z</time></trkpt><trkpt lat="42.53515919598285" lon="12.726449118475577"><ele>545.0</ele><time>2026-05-02T13:53:52.551Z</time></trkpt><trkpt lat="42.53544829864488" lon="12.725979206591099"><ele>552.0</ele><time>2026-05-02T13:53:53.556Z</time></trkpt><trkpt lat="42.535719861251515" lon="12.725493847360555"><ele>559.0</ele><time>2026-05-02T13:53:54.556Z</time></trkpt><trkpt lat="42.53597802001337" lon="12.724995305158956"><ele>548.5</ele><time>2026-05-02T13:53:55.556Z</time></trkpt><trkpt lat="42.53623528644155" lon="12.724495900930371"><ele>538.0</ele><time>2026-05-02T13:53:56.556Z</time></trkpt><trkpt lat="42.536491237821814" lon="12.723995302940835"><ele>535.5</ele><time>2026-05-02T13:53:57.556Z</time></trkpt><trkpt lat="42.53674684366707" lon="12.723494363370861"><ele>533.0</ele><time>2026-05-02T13:53:58.556Z</time></trkpt><trkpt lat="42.536892" lon="12.7232115"><ele>223.0</ele><time>2026-05-02T13:53:59.553Z</time></trkpt><trkpt lat="42.552316761615266" lon="12.701456118386892"><ele>223.0</ele><time>2026-05-02T13:56:01.001Z</time></trkpt><trkpt lat="42.552454067753374" lon="12.701221137982401"><ele>223.0</ele><time>2026-05-02T13:56:02.001Z</time></trkpt><trkpt lat="42.55280344288774" lon="12.700924781644165"><ele>211.33333333333331</ele><time>2026-05-02T13:56:03.001Z</time></trkpt><trkpt lat="42.552981364390774" lon="12.70074176664705"><ele>199.66666666666666</ele><time>2026-05-02T13:56:04.001Z</time></trkpt><trkpt lat="42.55312523504487" lon="12.700509167137149"><ele>188.0</ele><time>2026-05-02T13:56:05.001Z</time></trkpt><trkpt lat="42.55326564713121" lon="12.700282208502147"><ele>188.33333333333331</ele><time>2026-05-02T13:56:06.001Z</time></trkpt><trkpt lat="42.55340139144704" lon="12.700067183941135"><ele>188.66666666666666</ele><time>2026-05-02T13:56:07.001Z</time></trkpt><trkpt lat="42.55353220373474" lon="12.69986159823504"><ele>189.0</ele><time>2026-05-02T13:56:08.001Z</time></trkpt><trkpt lat="42.55366323751294" lon="12.699653079016288"><ele>205.33333333333331</ele><time>2026-05-02T13:56:09.001Z</time></trkpt><trkpt lat="42.55379901000358" lon="12.699444121533489"><ele>221.66666666666666</ele><time>2026-05-02T13:56:10Z</time></trkpt><trkpt lat="42.55392191063772" lon="12.69924530257866"><ele>238.0</ele><time>2026-05-02T13:56:11Z</time></trkpt><trkpt lat="42.554040159895045" lon="12.699051218539308"><ele>238.0</ele><time>2026-05-02T13:56:12Z</time></trkpt><trkpt lat="42.55415826738023" lon="12.698856426497477"><ele>238.0</ele><time>2026-05-02T13:56:13Z</time></trkpt><trkpt lat="42.55427807933326" lon="12.698656900299778"><ele>238.0</ele><time>2026-05-02T13:56:14Z</time></trkpt><trkpt lat="42.554395917079006" lon="12.698457400233874"><ele>234.0</ele><time>2026-05-02T13:56:15Z</time></trkpt><trkpt lat="42.55451200590748" lon="12.698257096880814"><ele>230.0</ele><time>2026-05-02T13:56:16Z</time></trkpt><trkpt lat="42.55462946401175" lon="12.69805461637833"><ele>226.0</ele><time>2026-05-02T13:56:17Z</time></trkpt><trkpt lat="42.55475097052238" lon="12.697837397236093"><ele>233.66666666666666</ele><time>2026-05-02T13:56:18Z</time></trkpt><trkpt lat="42.554872735157076" lon="12.697603923852515"><ele>241.33333333333331</ele><time>2026-05-02T13:56:19Z</time></trkpt><trkpt lat="42.554988682652876" lon="12.697357490508612"><ele>249.0</ele><time>2026-05-02T13:56:20Z</time></trkpt><trkpt lat="42.55510228629543" lon="12.697108166816182"><ele>251.0</ele><time>2026-05-02T13:56:21Z</time></trkpt><trkpt lat="42.55519029417005" lon="12.696915017650769"><ele>253.0</ele><time>2026-05-02T13:56:22Z</time></trkpt><trkpt lat="42.55528933878458" lon="12.69668781908003"><ele>255.0</ele><time>2026-05-02T13:56:23Z</time></trkpt><trkpt lat="42.55538840783472" lon="12.696445275944209"><ele>255.0</ele><time>2026-05-02T13:56:24Z</time></trkpt><trkpt lat="42.55548909604694" lon="12.696167191907904"><ele>255.0</ele><time>2026-05-02T13:56:25Z</time></trkpt><trkpt lat="42.55559153157877" lon="12.695861459595474"><ele>249.0</ele><time>2026-05-02T13:56:26Z</time></trkpt><trkpt lat="42.55569557091291" lon="12.6955275283653"><ele>243.0</ele><time>2026-05-02T13:56:27Z</time></trkpt><trkpt lat="42.55580180584526" lon="12.69516636214685"><ele>239.5</ele><time>2026-05-02T13:56:28Z</time></trkpt><trkpt lat="42.55590695142623" lon="12.694785549261377"><ele>236.0</ele><time>2026-05-02T13:56:29Z</time></trkpt><trkpt lat="42.55601062245049" lon="12.694413517558194"><ele>234.5</ele><time>2026-05-02T13:56:30Z</time></trkpt><trkpt lat="42.55611636432982" lon="12.694054044261192"><ele>233.0</ele><time>2026-05-02T13:56:31Z</time></trkpt><trkpt lat="42.556220440658905" lon="12.693692750865376"><ele>236.5</ele><time>2026-05-02T13:56:32Z</time></trkpt><trkpt lat="42.556339991402545" lon="12.69336302577464"><ele>240.0</ele><time>2026-05-02T13:56:33Z</time></trkpt><trkpt lat="42.55646275446768" lon="12.693048548030335"><ele>235.5</ele><time>2026-05-02T13:56:34Z</time></trkpt><trkpt lat="42.556589037965274" lon="12.692743491515344"><ele>231.0</ele><time>2026-05-02T13:56:35Z</time></trkpt><trkpt lat="42.55673198494162" lon="12.692450796294642"><ele>231.0</ele><time>2026-05-02T13:56:36Z</time></trkpt><trkpt lat="42.55688584175703" lon="12.692168688056547"><ele>231.0</ele><time>2026-05-02T13:56:37Z</time></trkpt><trkpt lat="42.557053970690035" lon="12.691900777535528"><ele>230.0</ele><time>2026-05-02T13:56:38Z</time></trkpt><trkpt lat="42.557233872505385" lon="12.691652576009574"><ele>229.0</ele><time>2026-05-02T13:56:39Z</time></trkpt><trkpt lat="42.557418289369735" lon="12.69141490670742"><ele>229.0</ele><time>2026-05-02T13:56:40Z</time></trkpt><trkpt lat="42.55761277826828" lon="12.691186276225206"><ele>229.0</ele><time>2026-05-02T13:56:41Z</time></trkpt><trkpt lat="42.557819061291475" lon="12.69097668853157"><ele>227.0</ele><time>2026-05-02T13:56:42Z</time></trkpt><trkpt lat="42.558031526882395" lon="12.690781994494474"><ele>225.0</ele><time>2026-05-02T13:56:43Z</time></trkpt><trkpt lat="42.55824840639685" lon="12.690601091700263"><ele>225.0</ele><time>2026-05-02T13:56:44Z</time></trkpt><trkpt lat="42.558470323564165" lon="12.69043124521332"><ele>225.0</ele><time>2026-05-02T13:56:45Z</time></trkpt><trkpt lat="42.558689913130216" lon="12.69026506181759"><ele>223.5</ele><time>2026-05-02T13:56:46Z</time></trkpt><trkpt lat="42.55891095451901" lon="12.690108117501977"><ele>222.0</ele><time>2026-05-02T13:56:47Z</time></trkpt><trkpt lat="42.559133471860086" lon="12.6899573265349"><ele>222.0</ele><time>2026-05-02T13:56:48Z</time></trkpt><trkpt lat="42.55936060260503" lon="12.689823799855015"><ele>222.0</ele><time>2026-05-02T13:56:49Z</time></trkpt><trkpt lat="42.559587349491" lon="12.689687389086902"><ele>222.0</ele><time>2026-05-02T13:56:50Z</time></trkpt><trkpt lat="42.55981397217023" lon="12.689558743723737"><ele>222.0</ele><time>2026-05-02T13:56:51Z</time></trkpt><trkpt lat="42.56004361137546" lon="12.689444723860442"><ele>220.5</ele><time>2026-05-02T13:56:52Z</time></trkpt><trkpt lat="42.56027411617139" lon="12.68932935395574"><ele>219.0</ele><time>2026-05-02T13:56:53Z</time></trkpt><trkpt lat="42.5605090271138" lon="12.689225326086746"><ele>219.0</ele><time>2026-05-02T13:56:54Z</time></trkpt><trkpt lat="42.560743397632" lon="12.689131498183366"><ele>219.0</ele><time>2026-05-02T13:56:55Z</time></trkpt><trkpt lat="42.56098263743123" lon="12.689047253205771"><ele>218.0</ele><time>2026-05-02T13:56:56Z</time></trkpt><trkpt lat="42.56122362214799" lon="12.688973649354907"><ele>217.0</ele><time>2026-05-02T13:56:57Z</time></trkpt><trkpt lat="42.5614695719765" lon="12.688901113761187"><ele>217.0</ele><time>2026-05-02T13:56:58Z</time></trkpt><trkpt lat="42.56171706280791" lon="12.688833063556837"><ele>217.0</ele><time>2026-05-02T13:56:59Z</time></trkpt><trkpt lat="42.56197201341247" lon="12.688770244960853"><ele>218.0</ele><time>2026-05-02T13:57:00.021Z</time></trkpt><trkpt lat="42.562222572338456" lon="12.68871539935566"><ele>219.0</ele><time>2026-05-02T13:57:01.016Z</time></trkpt><trkpt lat="42.562477815133946" lon="12.688664945594338"><ele>219.0</ele><time>2026-05-02T13:57:02.021Z</time></trkpt><trkpt lat="42.56273205528346" lon="12.688616861701203"><ele>219.0</ele><time>2026-05-02T13:57:03.021Z</time></trkpt><trkpt lat="42.57416775454075" lon="12.685047034186017"><ele>202.66666666666666</ele><time>2026-05-02T13:57:58Z</time></trkpt><trkpt lat="42.57429921303595" lon="12.684853193963916"><ele>186.33333333333331</ele><time>2026-05-02T13:57:59Z</time></trkpt><trkpt lat="42.57452036439677" lon="12.684752573623674"><ele>170.0</ele><time>2026-05-02T13:58:00Z</time></trkpt><trkpt lat="42.574655846221845" lon="12.68458883920118"><ele>168.33333333333331</ele><time>2026-05-02T13:58:01Z</time></trkpt><trkpt lat="42.57477410049123" lon="12.684384564063022"><ele>166.66666666666666</ele><time>2026-05-02T13:58:02Z</time></trkpt><trkpt lat="42.57490119958747" lon="12.68419096663413"><ele>165.0</ele><time>2026-05-02T13:58:03Z</time></trkpt><trkpt lat="42.57502663488965" lon="12.683998936659297"><ele>165.0</ele><time>2026-05-02T13:58:04Z</time></trkpt><trkpt lat="42.57514221571908" lon="12.683825890945437"><ele>165.0</ele><time>2026-05-02T13:58:05Z</time></trkpt><trkpt lat="42.575273013085905" lon="12.683662797087532"><ele>165.0</ele><time>2026-05-02T13:58:06Z</time></trkpt><trkpt lat="42.57539783429663" lon="12.683479365006763"><ele>164.33333333333334</ele><time>2026-05-02T13:58:07Z</time></trkpt><trkpt lat="42.575526815031985" lon="12.683289130925552"><ele>163.66666666666669</ele><time>2026-05-02T13:58:08Z</time></trkpt><trkpt lat="42.57562286261927" lon="12.683144897414449"><ele>163.0</ele><time>2026-05-02T13:58:09Z</time></trkpt><trkpt lat="42.575728838579806" lon="12.682985770935723"><ele>163.0</ele><time>2026-05-02T13:58:10Z</time></trkpt><trkpt lat="42.57584380186025" lon="12.682813149701325"><ele>163.0</ele><time>2026-05-02T13:58:11Z</time></trkpt><trkpt lat="42.5759582751777" lon="12.68264373786964"><ele>163.0</ele><time>2026-05-02T13:58:12Z</time></trkpt><trkpt lat="42.576070992753635" lon="12.68247776313792"><ele>163.33333333333334</ele><time>2026-05-02T13:58:13Z</time></trkpt><trkpt lat="42.57618982106772" lon="12.682306605776896"><ele>163.66666666666666</ele><time>2026-05-02T13:58:14Z</time></trkpt><trkpt lat="42.57630652166715" lon="12.682137902335212"><ele>164.0</ele><time>2026-05-02T13:58:15Z</time></trkpt><trkpt lat="42.57640967089732" lon="12.681947555538242"><ele>163.66666666666666</ele><time>2026-05-02T13:58:16Z</time></trkpt><trkpt lat="42.57652768718806" lon="12.68178630350796"><ele>163.33333333333334</ele><time>2026-05-02T13:58:17Z</time></trkpt><trkpt lat="42.57665459074093" lon="12.681639404180377"><ele>163.0</ele><time>2026-05-02T13:58:18Z</time></trkpt><trkpt lat="42.576787217373294" lon="12.681498194058168"><ele>163.0</ele><time>2026-05-02T13:58:19Z</time></trkpt><trkpt lat="42.5769366358843" lon="12.681369153273096"><ele>163.0</ele><time>2026-05-02T13:58:20Z</time></trkpt><trkpt lat="42.57708282234068" lon="12.681250869903387"><ele>163.0</ele><time>2026-05-02T13:58:21Z</time></trkpt><trkpt lat="42.577237255050285" lon="12.68113643818617"><ele>163.0</ele><time>2026-05-02T13:58:22Z</time></trkpt><trkpt lat="42.57738571335645" lon="12.68099422685573"><ele>163.0</ele><time>2026-05-02T13:58:23Z</time></trkpt><trkpt lat="42.577552935733706" lon="12.680908134318393"><ele>163.0</ele><time>2026-05-02T13:58:24Z</time></trkpt><trkpt lat="42.57771723711068" lon="12.68084365613397"><ele>163.33333333333334</ele><time>2026-05-02T13:58:25Z</time></trkpt><trkpt lat="42.5778745152556" lon="12.680796401887653"><ele>163.66666666666666</ele><time>2026-05-02T13:58:26Z</time></trkpt><trkpt lat="42.57803102005183" lon="12.680741759205251"><ele>164.0</ele><time>2026-05-02T13:58:27Z</time></trkpt><trkpt lat="42.57819750750262" lon="12.68069477063864"><ele>164.0</ele><time>2026-05-02T13:58:28Z</time></trkpt><trkpt lat="42.578371051427204" lon="12.680667805208598"><ele>164.0</ele><time>2026-05-02T13:58:29Z</time></trkpt><trkpt lat="42.578541150725464" lon="12.68065306112919"><ele>164.0</ele><time>2026-05-02T13:58:30Z</time></trkpt><trkpt lat="42.578708778294725" lon="12.680651243929736"><ele>164.66666666666666</ele><time>2026-05-02T13:58:31Z</time></trkpt><trkpt lat="42.57887242109281" lon="12.680655300541583"><ele>165.33333333333334</ele><time>2026-05-02T13:58:32Z</time></trkpt><trkpt lat="42.57902620212561" lon="12.680667616292224"><ele>166.0</ele><time>2026-05-02T13:58:33Z</time></trkpt><trkpt lat="42.579187122460425" lon="12.68069574832889"><ele>166.0</ele><time>2026-05-02T13:58:34Z</time></trkpt><trkpt lat="42.57934494930739" lon="12.680774169234954"><ele>166.0</ele><time>2026-05-02T13:58:35Z</time></trkpt><trkpt lat="42.579505378540304" lon="12.680831843322634"><ele>166.0</ele><time>2026-05-02T13:58:36Z</time></trkpt><trkpt lat="42.579660195271956" lon="12.680895620801568"><ele>166.75</ele><time>2026-05-02T13:58:37Z</time></trkpt><trkpt lat="42.57980813990457" lon="12.680967831621354"><ele>167.5</ele><time>2026-05-02T13:58:38Z</time></trkpt><trkpt lat="42.579948471367274" lon="12.681045098585594"><ele>168.25</ele><time>2026-05-02T13:58:39Z</time></trkpt><trkpt lat="42.58006990590355" lon="12.68110782057166"><ele>169.0</ele><time>2026-05-02T13:58:40Z</time></trkpt><trkpt lat="42.580189897176474" lon="12.681253490636143"><ele>169.33333333333334</ele><time>2026-05-02T13:58:41Z</time></trkpt><trkpt lat="42.580339653252544" lon="12.681414003309728"><ele>169.66666666666666</ele><time>2026-05-02T13:58:42Z</time></trkpt><trkpt lat="42.58046570107634" lon="12.681615441250905"><ele>170.0</ele><time>2026-05-02T13:58:43Z</time></trkpt><trkpt lat="42.58057363150452" lon="12.68184578860404"><ele>173.33333333333331</ele><time>2026-05-02T13:58:44Z</time></trkpt><trkpt lat="42.58065466405474" lon="12.682094342153988"><ele>176.66666666666666</ele><time>2026-05-02T13:58:45Z</time></trkpt><trkpt lat="42.58070847675001" lon="12.682355444717192"><ele>180.0</ele><time>2026-05-02T13:58:46Z</time></trkpt><trkpt lat="42.58073972026746" lon="12.682631212533002"><ele>180.66666666666666</ele><time>2026-05-02T13:58:47Z</time></trkpt><trkpt lat="42.580750082050095" lon="12.682910466214162"><ele>181.33333333333331</ele><time>2026-05-02T13:58:48Z</time></trkpt><trkpt lat="42.58073228820154" lon="12.683165546639676"><ele>182.0</ele><time>2026-05-02T13:58:49Z</time></trkpt><trkpt lat="42.58068136650317" lon="12.683409626999726"><ele>184.0</ele><time>2026-05-02T13:58:50Z</time></trkpt><trkpt lat="42.58061127881087" lon="12.683655814609958"><ele>186.0</ele><time>2026-05-02T13:58:51Z</time></trkpt><trkpt lat="42.58053800905992" lon="12.68388948085561"><ele>188.0</ele><time>2026-05-02T13:58:52Z</time></trkpt><trkpt lat="42.5804586433257" lon="12.684127938371708"><ele>188.0</ele><time>2026-05-02T13:58:53Z</time></trkpt><trkpt lat="42.5803892271692" lon="12.684368238748352"><ele>188.0</ele><time>2026-05-02T13:58:54Z</time></trkpt><trkpt lat="42.5803327536185" lon="12.684600577844959"><ele>188.0</ele><time>2026-05-02T13:58:55Z</time></trkpt><trkpt lat="42.58028788678081" lon="12.68484297495134"><ele>188.66666666666666</ele><time>2026-05-02T13:58:56Z</time></trkpt><trkpt lat="42.58024586889787" lon="12.685075293874176"><ele>189.33333333333334</ele><time>2026-05-02T13:58:57Z</time></trkpt><trkpt lat="42.58020462767077" lon="12.685295381327657"><ele>190.0</ele><time>2026-05-02T13:58:58Z</time></trkpt><trkpt lat="42.58016540703228" lon="12.685516925949672"><ele>192.0</ele><time>2026-05-02T13:58:59Z</time></trkpt><trkpt lat="42.580128179467415" lon="12.685740184496327"><ele>194.0</ele><time>2026-05-02T13:59:00Z</time></trkpt><trkpt lat="42.58009576456247" lon="12.685971095302271"><ele>196.0</ele><time>2026-05-02T13:59:01Z</time></trkpt><trkpt lat="42.58006401864105" lon="12.68620861539262"><ele>196.0</ele><time>2026-05-02T13:59:02Z</time></trkpt><trkpt lat="42.58004629330969" lon="12.68646840177424"><ele>196.0</ele><time>2026-05-02T13:59:03Z</time></trkpt><trkpt lat="42.580010908014735" lon="12.686711749992348"><ele>196.0</ele><time>2026-05-02T13:59:04Z</time></trkpt><trkpt lat="42.57999527836123" lon="12.68697164853685"><ele>195.66666666666666</ele><time>2026-05-02T13:59:05Z</time></trkpt><trkpt lat="42.57998458868554" lon="12.68723123836055"><ele>195.33333333333331</ele><time>2026-05-02T13:59:06Z</time></trkpt><trkpt lat="42.57998015238142" lon="12.687496862332425"><ele>195.0</ele><time>2026-05-02T13:59:07Z</time></trkpt><trkpt lat="42.579978146514115" lon="12.687759824681569"><ele>194.66666666666669</ele><time>2026-05-02T13:59:08Z</time></trkpt><trkpt lat="42.57998165846708" lon="12.688019797997407"><ele>194.33333333333334</ele><time>2026-05-02T13:59:09Z</time></trkpt><trkpt lat="42.57999342271693" lon="12.688285690022486"><ele>194.0</ele><time>2026-05-02T13:59:10Z</time></trkpt><trkpt lat="42.580010402279115" lon="12.688545676741906"><ele>194.0</ele><time>2026-05-02T13:59:11Z</time></trkpt><trkpt lat="42.580033272810375" lon="12.688805215635167"><ele>194.0</ele><time>2026-05-02T13:59:12Z</time></trkpt><trkpt lat="42.58006226157944" lon="12.68907090872839"><ele>194.0</ele><time>2026-05-02T13:59:13Z</time></trkpt><trkpt lat="42.5800965818892" lon="12.689337649373435"><ele>193.33333333333334</ele><time>2026-05-02T13:59:14Z</time></trkpt><trkpt lat="42.580139025025254" lon="12.689608497003759"><ele>192.66666666666669</ele><time>2026-05-02T13:59:15Z</time></trkpt><trkpt lat="42.58018561298482" lon="12.689877360867163"><ele>192.0</ele><time>2026-05-02T13:59:16Z</time></trkpt><trkpt lat="42.58023671167439" lon="12.690151226188265"><ele>190.66666666666666</ele><time>2026-05-02T13:59:17Z</time></trkpt><trkpt lat="42.580300671193314" lon="12.69042369163654"><ele>189.33333333333331</ele><time>2026-05-02T13:59:18Z</time></trkpt><trkpt lat="42.58037009948288" lon="12.690694345906147"><ele>188.0</ele><time>2026-05-02T13:59:19Z</time></trkpt><trkpt lat="42.58044472601961" lon="12.690969033564064"><ele>190.66666666666666</ele><time>2026-05-02T13:59:20Z</time></trkpt><trkpt lat="42.580526483091944" lon="12.691240121883625"><ele>193.33333333333331</ele><time>2026-05-02T13:59:21Z</time></trkpt><trkpt lat="42.580615795583924" lon="12.691515010175321"><ele>196.0</ele><time>2026-05-02T13:59:22Z</time></trkpt><trkpt lat="42.580715625283226" lon="12.691785882108274"><ele>194.0</ele><time>2026-05-02T13:59:23Z</time></trkpt><trkpt lat="42.58082079628531" lon="12.692054880296476"><ele>192.0</ele><time>2026-05-02T13:59:24Z</time></trkpt><trkpt lat="42.58093341267307" lon="12.692320991643939"><ele>192.0</ele><time>2026-05-02T13:59:25Z</time></trkpt><trkpt lat="42.58104910091661" lon="12.692585535850867"><ele>192.0</ele><time>2026-05-02T13:59:26Z</time></trkpt><trkpt lat="42.58116727891831" lon="12.692853205593314"><ele>197.0</ele><time>2026-05-02T13:59:27Z</time></trkpt><trkpt lat="42.5812852174823" lon="12.693120257070449"><ele>202.0</ele><time>2026-05-02T13:59:28Z</time></trkpt><trkpt lat="42.58140014995086" lon="12.693381818725864"><ele>200.66666666666666</ele><time>2026-05-02T13:59:29Z</time></trkpt><trkpt lat="42.58151437227455" lon="12.693643956070959"><ele>199.33333333333331</ele><time>2026-05-02T13:59:30Z</time></trkpt><trkpt lat="42.58162685109809" lon="12.693902092140094"><ele>198.0</ele><time>2026-05-02T13:59:31Z</time></trkpt><trkpt lat="42.58173974393207" lon="12.69416117835462"><ele>198.0</ele><time>2026-05-02T13:59:32Z</time></trkpt><trkpt lat="42.58184985831391" lon="12.694412056415091"><ele>198.0</ele><time>2026-05-02T13:59:33Z</time></trkpt><trkpt lat="42.58195962098631" lon="12.694661835706015"><ele>198.0</ele><time>2026-05-02T13:59:34Z</time></trkpt><trkpt lat="42.582069950077184" lon="12.69491290395074"><ele>199.66666666666669</ele><time>2026-05-02T13:59:35Z</time></trkpt><trkpt lat="42.58217870379755" lon="12.695160387237872"><ele>201.33333333333334</ele><time>2026-05-02T13:59:36Z</time></trkpt><trkpt lat="42.58228675235938" lon="12.695406265847835"><ele>203.0</ele><time>2026-05-02T13:59:37Z</time></trkpt><trkpt lat="42.58239482212448" lon="12.69565049316693"><ele>203.0</ele><time>2026-05-02T13:59:38Z</time></trkpt><trkpt lat="42.582502229338914" lon="12.695892850155081"><ele>203.0</ele><time>2026-05-02T13:59:39Z</time></trkpt><trkpt lat="42.58261563561566" lon="12.696109953276968"><ele>203.0</ele><time>2026-05-02T13:59:40Z</time></trkpt><trkpt lat="42.58269588674452" lon="12.696329824760662"><ele>201.0</ele><time>2026-05-02T13:59:41Z</time></trkpt><trkpt lat="42.58278665236283" lon="12.696534631136347"><ele>199.0</ele><time>2026-05-02T13:59:42Z</time></trkpt><trkpt lat="42.58287191358965" lon="12.696727016981493"><ele>197.0</ele><time>2026-05-02T13:59:43Z</time></trkpt><trkpt lat="42.582956240223815" lon="12.696917293948875"><ele>200.33333333333334</ele><time>2026-05-02T13:59:44Z</time></trkpt><trkpt lat="42.583041694197405" lon="12.697110114673608"><ele>203.66666666666669</ele><time>2026-05-02T13:59:45Z</time></trkpt><trkpt lat="42.583148795791274" lon="12.697306140910776"><ele>207.0</ele><time>2026-05-02T13:59:46Z</time></trkpt><trkpt lat="42.58323837129502" lon="12.697521469314877"><ele>207.0</ele><time>2026-05-02T13:59:47Z</time></trkpt><trkpt lat="42.583329932243764" lon="12.697728427169633"><ele>207.0</ele><time>2026-05-02T13:59:48Z</time></trkpt><trkpt lat="42.58342125042871" lon="12.697927576109402"><ele>207.0</ele><time>2026-05-02T13:59:49Z</time></trkpt><trkpt lat="42.58351181687392" lon="12.698109025365097"><ele>208.25</ele><time>2026-05-02T13:59:50Z</time></trkpt><trkpt lat="42.583593424439705" lon="12.698280818584568"><ele>209.5</ele><time>2026-05-02T13:59:51Z</time></trkpt><trkpt lat="42.583675708887576" lon="12.698445966793727"><ele>210.75</ele><time>2026-05-02T13:59:52Z</time></trkpt><trkpt lat="42.58375797812914" lon="12.698608773219952"><ele>212.0</ele><time>2026-05-02T13:59:53Z</time></trkpt><trkpt lat="42.58383470678348" lon="12.698760673832954"><ele>212.0</ele><time>2026-05-02T13:59:54Z</time></trkpt><trkpt lat="42.58390330876211" lon="12.698910303461705"><ele>212.0</ele><time>2026-05-02T13:59:55Z</time></trkpt><trkpt lat="42.583955328242354" lon="12.699068141403883"><ele>212.0</ele><time>2026-05-02T13:59:56Z</time></trkpt><trkpt lat="42.58399372697888" lon="12.699231038789796"><ele>212.0</ele><time>2026-05-02T13:59:57Z</time></trkpt><trkpt lat="42.58401985132121" lon="12.699394881785542"><ele>210.8</ele><time>2026-05-02T13:59:58Z</time></trkpt><trkpt lat="42.58403737239096" lon="12.699556069979376"><ele>209.6</ele><time>2026-05-02T13:59:59Z</time></trkpt><trkpt lat="42.58404786125538" lon="12.699698737773954"><ele>208.4</ele><time>2026-05-02T14:00:00Z</time></trkpt><trkpt lat="42.58404090354555" lon="12.699819737895629"><ele>207.20000000000002</ele><time>2026-05-02T14:00:01Z</time></trkpt><trkpt lat="42.58401062486143" lon="12.699931647507606"><ele>206.0</ele><time>2026-05-02T14:00:02Z</time></trkpt><trkpt lat="42.58398849424881" lon="12.700035772770613"><ele>206.00000000000003</ele><time>2026-05-02T14:00:03Z</time></trkpt><trkpt lat="42.583999420943826" lon="12.700133317652012"><ele>206.0</ele><time>2026-05-02T14:00:04Z</time></trkpt><trkpt lat="42.58405122184088" lon="12.700216033972008"><ele>206.0</ele><time>2026-05-02T14:00:05Z</time></trkpt><trkpt lat="42.58411665168131" lon="12.700258658127309"><ele>206.0</ele><time>2026-05-02T14:00:06Z</time></trkpt><trkpt lat="42.584195860907485" lon="12.700249807849003"><ele>206.00000000000003</ele><time>2026-05-02T14:00:07Z</time></trkpt><trkpt lat="42.58426461727411" lon="12.700189213818993"><ele>206.0</ele><time>2026-05-02T14:00:08Z</time></trkpt><trkpt lat="42.58430769449539" lon="12.700091420205686"><ele>206.0</ele><time>2026-05-02T14:00:09Z</time></trkpt><trkpt lat="42.58430390550657" lon="12.699983460396835"><ele>206.0</ele><time>2026-05-02T14:00:10Z</time></trkpt><trkpt lat="42.58426628769941" lon="12.699879729206417"><ele>206.0</ele><time>2026-05-02T14:00:11Z</time></trkpt><trkpt lat="42.58419945454505" lon="12.69979399853501"><ele>206.0</ele><time>2026-05-02T14:00:12Z</time></trkpt><trkpt lat="42.584120477610675" lon="12.699698470751157"><ele>206.0</ele><time>2026-05-02T14:00:13Z</time></trkpt><trkpt lat="42.584068640641334" lon="12.69955605756365"><ele>207.20000000000002</ele><time>2026-05-02T14:00:14Z</time></trkpt><trkpt lat="42.584042723070965" lon="12.699410627353737"><ele>208.4</ele><time>2026-05-02T14:00:15Z</time></trkpt><trkpt lat="42.584027134004096" lon="12.699278361307833"><ele>209.6</ele><time>2026-05-02T14:00:16Z</time></trkpt><trkpt lat="42.58400910160178" lon="12.69915972309745"><ele>210.8</ele><time>2026-05-02T14:00:17Z</time></trkpt><trkpt lat="42.58398122566835" lon="12.69903591209047"><ele>212.0</ele><time>2026-05-02T14:00:18Z</time></trkpt><trkpt lat="42.58390251887774" lon="12.698873685683168"><ele>212.0</ele><time>2026-05-02T14:00:19Z</time></trkpt><trkpt lat="42.58381274405254" lon="12.698694184582108"><ele>212.0</ele><time>2026-05-02T14:00:20Z</time></trkpt><trkpt lat="42.58371840264945" lon="12.69849817664275"><ele>212.0</ele><time>2026-05-02T14:00:21Z</time></trkpt><trkpt lat="42.58362407273639" lon="12.698306737703264"><ele>210.75</ele><time>2026-05-02T14:00:22Z</time></trkpt><trkpt lat="42.58353947755963" lon="12.698127804421903"><ele>209.5</ele><time>2026-05-02T14:00:23Z</time></trkpt><trkpt lat="42.58346357997239" lon="12.697964592618046"><ele>208.25</ele><time>2026-05-02T14:00:24Z</time></trkpt><trkpt lat="42.583396249932356" lon="12.69780309554655"><ele>207.0</ele><time>2026-05-02T14:00:25Z</time></trkpt><trkpt lat="42.58332678364879" lon="12.6976345511653"><ele>207.0</ele><time>2026-05-02T14:00:26Z</time></trkpt><trkpt lat="42.583256135733286" lon="12.69747222384594"><ele>207.0</ele><time>2026-05-02T14:00:27Z</time></trkpt><trkpt lat="42.5831833216012" lon="12.69730870663513"><ele>207.0</ele><time>2026-05-02T14:00:28Z</time></trkpt><trkpt lat="42.583107684626405" lon="12.697139417231348"><ele>207.0</ele><time>2026-05-02T14:00:29Z</time></trkpt><trkpt lat="42.58303379488327" lon="12.696969828393614"><ele>208.5</ele><time>2026-05-02T14:00:30Z</time></trkpt><trkpt lat="42.58295833501276" lon="12.696799338359522"><ele>210.0</ele><time>2026-05-02T14:00:31Z</time></trkpt><trkpt lat="42.58288175825793" lon="12.696622334309138"><ele>211.5</ele><time>2026-05-02T14:00:32Z</time></trkpt><trkpt lat="42.58281005648218" lon="12.69644753878074"><ele>213.0</ele><time>2026-05-02T14:00:33Z</time></trkpt><trkpt lat="42.58272747762608" lon="12.696266940616939"><ele>209.66666666666669</ele><time>2026-05-02T14:00:34Z</time></trkpt><trkpt lat="42.58264683946596" lon="12.696085210126132"><ele>206.33333333333334</ele><time>2026-05-02T14:00:35Z</time></trkpt><trkpt lat="42.5825670796175" lon="12.695899002269595"><ele>203.0</ele><time>2026-05-02T14:00:36Z</time></trkpt><trkpt lat="42.582486837380564" lon="12.695712485593349"><ele>203.0</ele><time>2026-05-02T14:00:37Z</time></trkpt><trkpt lat="42.58240473143171" lon="12.69552318044844"><ele>203.0</ele><time>2026-05-02T14:00:38Z</time></trkpt><trkpt lat="42.58232067764216" lon="12.69533540032143"><ele>203.0</ele><time>2026-05-02T14:00:39Z</time></trkpt><trkpt lat="42.58223766224167" lon="12.695145869842117"><ele>203.66666666666669</ele><time>2026-05-02T14:00:40Z</time></trkpt><trkpt lat="42.58215492763574" lon="12.694957506706547"><ele>204.33333333333331</ele><time>2026-05-02T14:00:41Z</time></trkpt><trkpt lat="42.58206827697063" lon="12.694773124761454"><ele>205.0</ele><time>2026-05-02T14:00:42Z</time></trkpt><trkpt lat="42.58198340960863" lon="12.694580853213932"><ele>202.66666666666666</ele><time>2026-05-02T14:00:43Z</time></trkpt><trkpt lat="42.581898186981036" lon="12.694382266060872"><ele>200.33333333333331</ele><time>2026-05-02T14:00:44Z</time></trkpt><trkpt lat="42.581803486450966" lon="12.694172205896415"><ele>198.0</ele><time>2026-05-02T14:00:45Z</time></trkpt><trkpt lat="42.58171629059836" lon="12.693968962102215"><ele>198.0</ele><time>2026-05-02T14:00:46Z</time></trkpt><trkpt lat="42.58162441643781" lon="12.69376106810107"><ele>198.0</ele><time>2026-05-02T14:00:47Z</time></trkpt><trkpt lat="42.5815310341778" lon="12.693552793740398"><ele>198.0</ele><time>2026-05-02T14:00:48Z</time></trkpt><trkpt lat="42.58144160458953" lon="12.693343141230429"><ele>199.33333333333331</ele><time>2026-05-02T14:00:49Z</time></trkpt><trkpt lat="42.58133961411642" lon="12.69312754683117"><ele>200.66666666666666</ele><time>2026-05-02T14:00:50Z</time></trkpt><trkpt lat="42.581242037787675" lon="12.692913331763437"><ele>202.0</ele><time>2026-05-02T14:00:51Z</time></trkpt><trkpt lat="42.58114610193689" lon="12.69269726906807"><ele>198.66666666666666</ele><time>2026-05-02T14:00:52Z</time></trkpt><trkpt lat="42.58105463029628" lon="12.692489460009567"><ele>195.33333333333331</ele><time>2026-05-02T14:00:53Z</time></trkpt><trkpt lat="42.58096044447291" lon="12.692253178368619"><ele>192.0</ele><time>2026-05-02T14:00:54Z</time></trkpt><trkpt lat="42.58086568016196" lon="12.692032259544039"><ele>193.33333333333331</ele><time>2026-05-02T14:00:55Z</time></trkpt><trkpt lat="42.580773398484915" lon="12.691814489913114"><ele>194.66666666666666</ele><time>2026-05-02T14:00:56Z</time></trkpt><trkpt lat="42.58068804105602" lon="12.691590606413902"><ele>196.0</ele><time>2026-05-02T14:00:57Z</time></trkpt><trkpt lat="42.58060949448767" lon="12.691361327736665"><ele>196.0</ele><time>2026-05-02T14:00:58Z</time></trkpt><trkpt lat="42.58053701048112" lon="12.691133296169284"><ele>196.0</ele><time>2026-05-02T14:00:59Z</time></trkpt><trkpt lat="42.580473863887285" lon="12.690903040430186"><ele>196.0</ele><time>2026-05-02T14:01:00Z</time></trkpt><trkpt lat="42.580406546521615" lon="12.69067389565541"><ele>194.66666666666666</ele><time>2026-05-02T14:01:01Z</time></trkpt><trkpt lat="42.58034668437536" lon="12.690441687337092"><ele>193.33333333333331</ele><time>2026-05-02T14:01:02Z</time></trkpt><trkpt lat="42.580295121022715" lon="12.690204980123553"><ele>192.0</ele><time>2026-05-02T14:01:03Z</time></trkpt><trkpt lat="42.580243605836706" lon="12.689967829753314"><ele>192.0</ele><time>2026-05-02T14:01:04Z</time></trkpt><trkpt lat="42.58020032252862" lon="12.689728403001727"><ele>192.0</ele><time>2026-05-02T14:01:05Z</time></trkpt><trkpt lat="42.58016336643563" lon="12.68949404103152"><ele>192.0</ele><time>2026-05-02T14:01:06Z</time></trkpt><trkpt lat="42.58013069301715" lon="12.689274509526378"><ele>192.5</ele><time>2026-05-02T14:01:07Z</time></trkpt><trkpt lat="42.58009849652872" lon="12.689062742942749"><ele>193.0</ele><time>2026-05-02T14:01:08Z</time></trkpt><trkpt lat="42.5800772374392" lon="12.688865774120138"><ele>193.5</ele><time>2026-05-02T14:01:09Z</time></trkpt><trkpt lat="42.58006348802799" lon="12.688674383783793"><ele>194.0</ele><time>2026-05-02T14:01:10Z</time></trkpt><trkpt lat="42.58004685643448" lon="12.688480880257629"><ele>194.0</ele><time>2026-05-02T14:01:11Z</time></trkpt><trkpt lat="42.58003178680351" lon="12.688278583300562"><ele>194.0</ele><time>2026-05-02T14:01:12Z</time></trkpt><trkpt lat="42.580023006327124" lon="12.688072434782406"><ele>194.0</ele><time>2026-05-02T14:01:13Z</time></trkpt><trkpt lat="42.58001997084612" lon="12.687859899777733"><ele>194.25</ele><time>2026-05-02T14:01:14Z</time></trkpt><trkpt lat="42.580019363651914" lon="12.687651382191891"><ele>194.5</ele><time>2026-05-02T14:01:15Z</time></trkpt><trkpt lat="42.58002111776996" lon="12.687453077377349"><ele>194.75</ele><time>2026-05-02T14:01:16Z</time></trkpt><trkpt lat="42.58002518643253" lon="12.687266227203839"><ele>195.0</ele><time>2026-05-02T14:01:17Z</time></trkpt><trkpt lat="42.5800302052492" lon="12.687083285084004"><ele>195.25</ele><time>2026-05-02T14:01:18Z</time></trkpt><trkpt lat="42.580043184388344" lon="12.686899790268445"><ele>195.5</ele><time>2026-05-02T14:01:19Z</time></trkpt><trkpt lat="42.580051628701504" lon="12.686704818792037"><ele>195.75</ele><time>2026-05-02T14:01:20Z</time></trkpt><trkpt lat="42.58006977059024" lon="12.686499385876383"><ele>196.0</ele><time>2026-05-02T14:01:21Z</time></trkpt><trkpt lat="42.580087354357225" lon="12.686291350141593"><ele>196.0</ele><time>2026-05-02T14:01:22Z</time></trkpt><trkpt lat="42.58011381304264" lon="12.68608155544211"><ele>196.0</ele><time>2026-05-02T14:01:23Z</time></trkpt><trkpt lat="42.58014677540083" lon="12.685867242822695"><ele>196.0</ele><time>2026-05-02T14:01:24Z</time></trkpt><trkpt lat="42.58017884984275" lon="12.685652720412092"><ele>196.0</ele><time>2026-05-02T14:01:25Z</time></trkpt><trkpt lat="42.580212707817985" lon="12.685444075198381"><ele>196.0</ele><time>2026-05-02T14:01:26Z</time></trkpt><trkpt lat="42.580248995105926" lon="12.68524411189819"><ele>196.0</ele><time>2026-05-02T14:01:27Z</time></trkpt><trkpt lat="42.58028470861515" lon="12.685041219329218"><ele>196.66666666666666</ele><time>2026-05-02T14:01:28Z</time></trkpt><trkpt lat="42.580329387488284" lon="12.684836090986789"><ele>197.33333333333331</ele><time>2026-05-02T14:01:29Z</time></trkpt><trkpt lat="42.580377425859375" lon="12.68463165791844"><ele>198.0</ele><time>2026-05-02T14:01:30Z</time></trkpt><trkpt lat="42.58043112795501" lon="12.684428925608833"><ele>194.66666666666666</ele><time>2026-05-02T14:01:31Z</time></trkpt><trkpt lat="42.58048726065324" lon="12.684226630672747"><ele>191.33333333333331</ele><time>2026-05-02T14:01:32Z</time></trkpt><trkpt lat="42.58054695091794" lon="12.684017472869458"><ele>188.0</ele><time>2026-05-02T14:01:33Z</time></trkpt><trkpt lat="42.580612236938194" lon="12.683807052186529"><ele>188.0</ele><time>2026-05-02T14:01:34Z</time></trkpt><trkpt lat="42.580683821289355" lon="12.683599645513095"><ele>188.0</ele><time>2026-05-02T14:01:35Z</time></trkpt><trkpt lat="42.58076327450778" lon="12.683398200736926"><ele>188.0</ele><time>2026-05-02T14:01:36Z</time></trkpt><trkpt lat="42.58084401942712" lon="12.683202455651138"><ele>186.5</ele><time>2026-05-02T14:01:37Z</time></trkpt><trkpt lat="42.58092008869242" lon="12.683019479405301"><ele>185.0</ele><time>2026-05-02T14:01:38Z</time></trkpt><trkpt lat="42.58099129766505" lon="12.682840184363032"><ele>183.5</ele><time>2026-05-02T14:01:39Z</time></trkpt><trkpt lat="42.58106428342492" lon="12.682670565034936"><ele>182.0</ele><time>2026-05-02T14:01:40Z</time></trkpt><trkpt lat="42.58114035396395" lon="12.682511184526682"><ele>181.5</ele><time>2026-05-02T14:01:41Z</time></trkpt><trkpt lat="42.58121916839906" lon="12.682350869813545"><ele>181.0</ele><time>2026-05-02T14:01:42Z</time></trkpt><trkpt lat="42.581304039799306" lon="12.682184960833732"><ele>180.5</ele><time>2026-05-02T14:01:43Z</time></trkpt><trkpt lat="42.58139462935439" lon="12.682017174336087"><ele>180.0</ele><time>2026-05-02T14:01:44Z</time></trkpt><trkpt lat="42.581485505403315" lon="12.681847122250252"><ele>180.0</ele><time>2026-05-02T14:01:45Z</time></trkpt><trkpt lat="42.58157968734801" lon="12.681676613739134"><ele>180.0</ele><time>2026-05-02T14:01:46Z</time></trkpt><trkpt lat="42.58167207180888" lon="12.681503604655136"><ele>180.0</ele><time>2026-05-02T14:01:47Z</time></trkpt><trkpt lat="42.581767229433446" lon="12.681327848134899"><ele>180.0</ele><time>2026-05-02T14:01:48Z</time></trkpt><trkpt lat="42.581859871614895" lon="12.681146963574978"><ele>180.0</ele><time>2026-05-02T14:01:49Z</time></trkpt><trkpt lat="42.58195185725396" lon="12.680962914448804"><ele>180.0</ele><time>2026-05-02T14:01:50Z</time></trkpt><trkpt lat="42.582047372622036" lon="12.680782094628585"><ele>180.0</ele><time>2026-05-02T14:01:51Z</time></trkpt><trkpt lat="42.58214536767387" lon="12.680604264839015"><ele>180.0</ele><time>2026-05-02T14:01:52Z</time></trkpt><trkpt lat="42.5822441167572" lon="12.680425823016032"><ele>180.0</ele><time>2026-05-02T14:01:53Z</time></trkpt><trkpt lat="42.582339897982806" lon="12.680245184153465"><ele>179.66666666666666</ele><time>2026-05-02T14:01:54Z</time></trkpt><trkpt lat="42.582431068049736" lon="12.68006564342742"><ele>179.33333333333331</ele><time>2026-05-02T14:01:55Z</time></trkpt><trkpt lat="42.582519906410475" lon="12.679889020520177"><ele>179.0</ele><time>2026-05-02T14:01:56Z</time></trkpt><trkpt lat="42.58260385782651" lon="12.679712406122546"><ele>179.0</ele><time>2026-05-02T14:01:57Z</time></trkpt><trkpt lat="42.582679603713764" lon="12.67953045245372"><ele>179.0</ele><time>2026-05-02T14:01:58Z</time></trkpt><trkpt lat="42.58274724494641" lon="12.679344743182952"><ele>179.0</ele><time>2026-05-02T14:01:59Z</time></trkpt><trkpt lat="42.582807105138684" lon="12.679154118332733"><ele>178.33333333333331</ele><time>2026-05-02T14:02:00Z</time></trkpt><trkpt lat="42.58286882486389" lon="12.678962747350482"><ele>177.66666666666666</ele><time>2026-05-02T14:02:01Z</time></trkpt><trkpt lat="42.582927501244534" lon="12.678775554999762"><ele>177.0</ele><time>2026-05-02T14:02:02Z</time></trkpt><trkpt lat="42.582980694682355" lon="12.678580628424028"><ele>175.33333333333334</ele><time>2026-05-02T14:02:03Z</time></trkpt><trkpt lat="42.58303101059177" lon="12.678376775066422"><ele>173.66666666666669</ele><time>2026-05-02T14:02:04Z</time></trkpt><trkpt lat="42.58308112085272" lon="12.678178429396938"><ele>172.0</ele><time>2026-05-02T14:02:05Z</time></trkpt><trkpt lat="42.583134068947395" lon="12.677981314784411"><ele>172.0</ele><time>2026-05-02T14:02:06Z</time></trkpt><trkpt lat="42.58318736134111" lon="12.677781643964343"><ele>172.0</ele><time>2026-05-02T14:02:07Z</time></trkpt><trkpt lat="42.58324011772943" lon="12.67758007855638"><ele>172.0</ele><time>2026-05-02T14:02:08Z</time></trkpt><trkpt lat="42.583292670941255" lon="12.67737667203854"><ele>170.66666666666669</ele><time>2026-05-02T14:02:09Z</time></trkpt><trkpt lat="42.583346594680016" lon="12.677172036741993"><ele>169.33333333333334</ele><time>2026-05-02T14:02:10Z</time></trkpt><trkpt lat="42.583396687533885" lon="12.676961873556733"><ele>168.0</ele><time>2026-05-02T14:02:11Z</time></trkpt><trkpt lat="42.58345068419647" lon="12.676751729999134"><ele>167.0</ele><time>2026-05-02T14:02:12Z</time></trkpt><trkpt lat="42.583505008037974" lon="12.676538901444085"><ele>166.0</ele><time>2026-05-02T14:02:13Z</time></trkpt><trkpt lat="42.58355999853804" lon="12.67632845080346"><ele>165.0</ele><time>2026-05-02T14:02:14Z</time></trkpt><trkpt lat="42.58361307088874" lon="12.676124642096381"><ele>165.0</ele><time>2026-05-02T14:02:15Z</time></trkpt><trkpt lat="42.58366310966591" lon="12.6759251237904"><ele>165.0</ele><time>2026-05-02T14:02:16Z</time></trkpt><trkpt lat="42.58370944780484" lon="12.675738457995825"><ele>165.0</ele><time>2026-05-02T14:02:17Z</time></trkpt><trkpt lat="42.58375525088984" lon="12.675560988626259"><ele>165.0</ele><time>2026-05-02T14:02:18Z</time></trkpt><trkpt lat="42.5837982285751" lon="12.675390404577707"><ele>166.25</ele><time>2026-05-02T14:02:19Z</time></trkpt><trkpt lat="42.583853967195424" lon="12.675234407078111"><ele>167.5</ele><time>2026-05-02T14:02:20Z</time></trkpt><trkpt lat="42.5838794553805" lon="12.675068658067866"><ele>168.75</ele><time>2026-05-02T14:02:21Z</time></trkpt><trkpt lat="42.58392022019988" lon="12.67490992131172"><ele>170.0</ele><time>2026-05-02T14:02:22Z</time></trkpt><trkpt lat="42.58396099561113" lon="12.674750795326196"><ele>170.0</ele><time>2026-05-02T14:02:23Z</time></trkpt><trkpt lat="42.58401761411246" lon="12.674598126210563"><ele>170.0</ele><time>2026-05-02T14:02:24Z</time></trkpt><trkpt lat="42.58405906677403" lon="12.67443860751168"><ele>170.0</ele><time>2026-05-02T14:02:25Z</time></trkpt><trkpt lat="42.58410072693949" lon="12.674278441090982"><ele>170.0</ele><time>2026-05-02T14:02:26Z</time></trkpt><trkpt lat="42.584126746938146" lon="12.674111644226054"><ele>173.5</ele><time>2026-05-02T14:02:27Z</time></trkpt><trkpt lat="42.58418322029441" lon="12.673960838779012"><ele>177.0</ele><time>2026-05-02T14:02:28Z</time></trkpt><trkpt lat="42.58422435061487" lon="12.673802485611233"><ele>180.5</ele><time>2026-05-02T14:02:29Z</time></trkpt><trkpt lat="42.58426676136177" lon="12.673639202758707"><ele>184.0</ele><time>2026-05-02T14:02:30Z</time></trkpt><trkpt lat="42.58430978834452" lon="12.673473547375265"><ele>187.25</ele><time>2026-05-02T14:02:31Z</time></trkpt><trkpt lat="42.5843536525232" lon="12.673304668751495"><ele>190.5</ele><time>2026-05-02T14:02:32Z</time></trkpt><trkpt lat="42.58439776253275" lon="12.673130925894656"><ele>193.75</ele><time>2026-05-02T14:02:33Z</time></trkpt><trkpt lat="42.58444319594376" lon="12.672951944727254"><ele>197.0</ele><time>2026-05-02T14:02:34Z</time></trkpt><trkpt lat="42.584490433821536" lon="12.67276578890757"><ele>196.66666666666669</ele><time>2026-05-02T14:02:35Z</time></trkpt><trkpt lat="42.58453966160791" lon="12.672571736836451"><ele>196.33333333333331</ele><time>2026-05-02T14:02:36Z</time></trkpt><trkpt lat="42.584576943930536" lon="12.672364166073185"><ele>196.0</ele><time>2026-05-02T14:02:37Z</time></trkpt><trkpt lat="42.584635434907305" lon="12.672158349577227"><ele>196.0</ele><time>2026-05-02T14:02:38Z</time></trkpt><trkpt lat="42.58469709986502" lon="12.671945624269238"><ele>196.0</ele><time>2026-05-02T14:02:39Z</time></trkpt><trkpt lat="42.584761807822915" lon="12.671727576068141"><ele>196.0</ele><time>2026-05-02T14:02:40Z</time></trkpt><trkpt lat="42.58482879674575" lon="12.671500170177195"><ele>199.33333333333331</ele><time>2026-05-02T14:02:41Z</time></trkpt><trkpt lat="42.58489490023199" lon="12.671268782422349"><ele>202.66666666666669</ele><time>2026-05-02T14:02:42Z</time></trkpt><trkpt lat="42.58496332357532" lon="12.671034118068809"><ele>206.0</ele><time>2026-05-02T14:02:43Z</time></trkpt><trkpt lat="42.585033111941634" lon="12.670794580621452"><ele>208.0</ele><time>2026-05-02T14:02:44Z</time></trkpt><trkpt lat="42.58510200447834" lon="12.670549086743707"><ele>210.0</ele><time>2026-05-02T14:02:45Z</time></trkpt><trkpt lat="42.58516990526831" lon="12.670298969051226"><ele>212.0</ele><time>2026-05-02T14:02:46Z</time></trkpt><trkpt lat="42.58523464595138" lon="12.670054096303886"><ele>212.33333333333334</ele><time>2026-05-02T14:02:47Z</time></trkpt><trkpt lat="42.58530128871256" lon="12.66981048945998"><ele>212.66666666666669</ele><time>2026-05-02T14:02:48Z</time></trkpt><trkpt lat="42.585364382988224" lon="12.669562317468042"><ele>213.0</ele><time>2026-05-02T14:02:49Z</time></trkpt><trkpt lat="42.58542557308186" lon="12.66931079472883"><ele>217.0</ele><time>2026-05-02T14:02:50Z</time></trkpt><trkpt lat="42.58548214542503" lon="12.669053364235477"><ele>221.0</ele><time>2026-05-02T14:02:51Z</time></trkpt><trkpt lat="42.58553564036879" lon="12.668794644177735"><ele>225.0</ele><time>2026-05-02T14:02:52Z</time></trkpt><trkpt lat="42.58558673226601" lon="12.668535145981906"><ele>226.0</ele><time>2026-05-02T14:02:53Z</time></trkpt><trkpt lat="42.58563423625737" lon="12.668272008317787"><ele>227.0</ele><time>2026-05-02T14:02:54Z</time></trkpt><trkpt lat="42.58567832457054" lon="12.668010596580892"><ele>228.0</ele><time>2026-05-02T14:02:55Z</time></trkpt><trkpt lat="42.585721985201786" lon="12.667752377289586"><ele>228.0</ele><time>2026-05-02T14:02:56Z</time></trkpt><trkpt lat="42.58575584296836" lon="12.667491104926068"><ele>228.0</ele><time>2026-05-02T14:02:57Z</time></trkpt><trkpt lat="42.58579001622101" lon="12.667225482994272"><ele>228.0</ele><time>2026-05-02T14:02:58Z</time></trkpt><trkpt lat="42.585822677941366" lon="12.666958481170973"><ele>227.66666666666669</ele><time>2026-05-02T14:02:59Z</time></trkpt><trkpt lat="42.58585042904152" lon="12.666689388585501"><ele>227.33333333333334</ele><time>2026-05-02T14:03:00Z</time></trkpt><trkpt lat="42.58587434064037" lon="12.666421956374059"><ele>227.0</ele><time>2026-05-02T14:03:01Z</time></trkpt><trkpt lat="42.58588864028907" lon="12.66615636553817"><ele>227.66666666666669</ele><time>2026-05-02T14:03:02Z</time></trkpt><trkpt lat="42.58589761946865" lon="12.66588952499054"><ele>228.33333333333331</ele><time>2026-05-02T14:03:03Z</time></trkpt><trkpt lat="42.58590028261451" lon="12.665618860741873"><ele>229.0</ele><time>2026-05-02T14:03:04Z</time></trkpt><trkpt lat="42.58589613683333" lon="12.665339421060368"><ele>229.33333333333331</ele><time>2026-05-02T14:03:05Z</time></trkpt><trkpt lat="42.585887302069295" lon="12.665050844218324"><ele>229.66666666666669</ele><time>2026-05-02T14:03:06Z</time></trkpt><trkpt lat="42.585878196468315" lon="12.664756194334318"><ele>230.0</ele><time>2026-05-02T14:03:07Z</time></trkpt><trkpt lat="42.585871790547664" lon="12.664455744157488"><ele>232.0</ele><time>2026-05-02T14:03:08Z</time></trkpt><trkpt lat="42.585864333529464" lon="12.664156976939012"><ele>234.0</ele><time>2026-05-02T14:03:09Z</time></trkpt><trkpt lat="42.585844432799455" lon="12.663860794067453"><ele>236.0</ele><time>2026-05-02T14:03:10Z</time></trkpt><trkpt lat="42.585817191456606" lon="12.663559786557538"><ele>238.0</ele><time>2026-05-02T14:03:11Z</time></trkpt><trkpt lat="42.58578259549098" lon="12.66325933043145"><ele>240.0</ele><time>2026-05-02T14:03:12Z</time></trkpt><trkpt lat="42.58574455303005" lon="12.662961590220394"><ele>242.0</ele><time>2026-05-02T14:03:13Z</time></trkpt><trkpt lat="42.58570221586138" lon="12.662662108678143"><ele>246.0</ele><time>2026-05-02T14:03:14Z</time></trkpt><trkpt lat="42.58565849792974" lon="12.66236003487427"><ele>250.0</ele><time>2026-05-02T14:03:15Z</time></trkpt><trkpt lat="42.58561237318671" lon="12.662053830425055"><ele>252.5</ele><time>2026-05-02T14:03:16Z</time></trkpt><trkpt lat="42.58556963500128" lon="12.661743682373654"><ele>255.0</ele><time>2026-05-02T14:03:17Z</time></trkpt><trkpt lat="42.58552545149227" lon="12.661431758590668"><ele>255.5</ele><time>2026-05-02T14:03:18Z</time></trkpt><trkpt lat="42.58547395784957" lon="12.661113457063376"><ele>256.0</ele><time>2026-05-02T14:03:19Z</time></trkpt><trkpt lat="42.58542692043448" lon="12.660792147820718"><ele>256.0</ele><time>2026-05-02T14:03:20Z</time></trkpt><trkpt lat="42.58538244337404" lon="12.66046911389107"><ele>256.0</ele><time>2026-05-02T14:03:21Z</time></trkpt><trkpt lat="42.58533951740513" lon="12.660152667656192"><ele>253.5</ele><time>2026-05-02T14:03:22Z</time></trkpt><trkpt lat="42.58528243340639" lon="12.65983724328496"><ele>251.0</ele><time>2026-05-02T14:03:23Z</time></trkpt><trkpt lat="42.58523183695698" lon="12.659516586104372"><ele>250.0</ele><time>2026-05-02T14:03:24Z</time></trkpt><trkpt lat="42.58518480410007" lon="12.659201816299769"><ele>249.0</ele><time>2026-05-02T14:03:25Z</time></trkpt><trkpt lat="42.585139134589355" lon="12.658881681919292"><ele>249.0</ele><time>2026-05-02T14:03:26Z</time></trkpt><trkpt lat="42.58509212758089" lon="12.658565988355123"><ele>249.0</ele><time>2026-05-02T14:03:27Z</time></trkpt><trkpt lat="42.58504847971609" lon="12.658253270421824"><ele>249.0</ele><time>2026-05-02T14:03:28Z</time></trkpt><trkpt lat="42.5850080123347" lon="12.657941063007861"><ele>249.0</ele><time>2026-05-02T14:03:29Z</time></trkpt><trkpt lat="42.584967720293065" lon="12.657629448739845"><ele>247.5</ele><time>2026-05-02T14:03:30Z</time></trkpt><trkpt lat="42.58492743975555" lon="12.657312672977556"><ele>246.0</ele><time>2026-05-02T14:03:31Z</time></trkpt><trkpt lat="42.584894725526844" lon="12.656997275136018"><ele>245.0</ele><time>2026-05-02T14:03:32Z</time></trkpt><trkpt lat="42.584864334306424" lon="12.656679464113136"><ele>244.0</ele><time>2026-05-02T14:03:33Z</time></trkpt><trkpt lat="42.58484324986002" lon="12.656357169484515"><ele>242.5</ele><time>2026-05-02T14:03:34Z</time></trkpt><trkpt lat="42.58483928665024" lon="12.656037484639297"><ele>241.0</ele><time>2026-05-02T14:03:35Z</time></trkpt><trkpt lat="42.58482428608776" lon="12.655713742854863"><ele>241.0</ele><time>2026-05-02T14:03:36Z</time></trkpt><trkpt lat="42.584812152744774" lon="12.655394110384417"><ele>241.0</ele><time>2026-05-02T14:03:37Z</time></trkpt><trkpt lat="42.584798561063025" lon="12.655072340313115"><ele>240.0</ele><time>2026-05-02T14:03:38Z</time></trkpt><trkpt lat="42.58478231581646" lon="12.654753001231784"><ele>239.0</ele><time>2026-05-02T14:03:39Z</time></trkpt><trkpt lat="42.5847677729604" lon="12.65443673816702"><ele>238.5</ele><time>2026-05-02T14:03:40Z</time></trkpt><trkpt lat="42.58475411835603" lon="12.654121758318357"><ele>238.0</ele><time>2026-05-02T14:03:41Z</time></trkpt><trkpt lat="42.584740187289356" lon="12.653802961739796"><ele>237.5</ele><time>2026-05-02T14:03:42Z</time></trkpt><trkpt lat="42.58472907894313" lon="12.653490101945483"><ele>237.0</ele><time>2026-05-02T14:03:43Z</time></trkpt><trkpt lat="42.58471526075458" lon="12.65317451801451"><ele>237.0</ele><time>2026-05-02T14:03:44Z</time></trkpt><trkpt lat="42.584699948632036" lon="12.652861035402427"><ele>237.0</ele><time>2026-05-02T14:03:45Z</time></trkpt><trkpt lat="42.58468728317928" lon="12.652550120412728"><ele>237.0</ele><time>2026-05-02T14:03:46Z</time></trkpt><trkpt lat="42.584671193665876" lon="12.652240055557925"><ele>237.0</ele><time>2026-05-02T14:03:47Z</time></trkpt><trkpt lat="42.58465753800118" lon="12.651938279077747"><ele>237.5</ele><time>2026-05-02T14:03:48Z</time></trkpt><trkpt lat="42.58464252081256" lon="12.651634181175867"><ele>238.0</ele><time>2026-05-02T14:03:49Z</time></trkpt><trkpt lat="42.58462842541255" lon="12.651325954519399"><ele>237.0</ele><time>2026-05-02T14:03:50Z</time></trkpt><trkpt lat="42.58462026702856" lon="12.651023026301257"><ele>236.0</ele><time>2026-05-02T14:03:51Z</time></trkpt><trkpt lat="42.58460650253262" lon="12.650720342719898"><ele>235.0</ele><time>2026-05-02T14:03:52Z</time></trkpt><trkpt lat="42.58459128220499" lon="12.650423456148427"><ele>234.0</ele><time>2026-05-02T14:03:53Z</time></trkpt><trkpt lat="42.58458014319751" lon="12.650125855343333"><ele>233.0</ele><time>2026-05-02T14:03:54Z</time></trkpt><trkpt lat="42.58456610210816" lon="12.649826703452472"><ele>232.0</ele><time>2026-05-02T14:03:55Z</time></trkpt><trkpt lat="42.58455567058209" lon="12.649525152575912"><ele>230.33333333333331</ele><time>2026-05-02T14:03:56Z</time></trkpt><trkpt lat="42.58454153599237" lon="12.649223011281371"><ele>228.66666666666669</ele><time>2026-05-02T14:03:57Z</time></trkpt><trkpt lat="42.584531345124745" lon="12.648927576278941"><ele>227.0</ele><time>2026-05-02T14:03:58Z</time></trkpt><trkpt lat="42.58451266407736" lon="12.648624084004146"><ele>225.5</ele><time>2026-05-02T14:03:59Z</time></trkpt><trkpt lat="42.58449119885134" lon="12.648317679995184"><ele>224.0</ele><time>2026-05-02T14:04:00Z</time></trkpt><trkpt lat="42.58446009833442" lon="12.648008178903549"><ele>222.5</ele><time>2026-05-02T14:04:01Z</time></trkpt><trkpt lat="42.58443066610499" lon="12.647688080126143"><ele>221.0</ele><time>2026-05-02T14:04:02Z</time></trkpt><trkpt lat="42.58439201540346" lon="12.647375423235747"><ele>221.0</ele><time>2026-05-02T14:04:03Z</time></trkpt><trkpt lat="42.58435773421066" lon="12.647058361740786"><ele>221.0</ele><time>2026-05-02T14:04:04Z</time></trkpt><trkpt lat="42.58431674829579" lon="12.646741317273746"><ele>220.5</ele><time>2026-05-02T14:04:05Z</time></trkpt><trkpt lat="42.58426785776992" lon="12.646421206273114"><ele>220.0</ele><time>2026-05-02T14:04:06Z</time></trkpt><trkpt lat="42.584212524791454" lon="12.646102542248192"><ele>219.0</ele><time>2026-05-02T14:04:07Z</time></trkpt><trkpt lat="42.58415477235718" lon="12.645784975169393"><ele>218.0</ele><time>2026-05-02T14:04:08Z</time></trkpt><trkpt lat="42.58409295954912" lon="12.645475482386459"><ele>216.5</ele><time>2026-05-02T14:04:09Z</time></trkpt><trkpt lat="42.58402770297952" lon="12.645167849379883"><ele>215.0</ele><time>2026-05-02T14:04:10Z</time></trkpt><trkpt lat="42.58395927056525" lon="12.644868916159961"><ele>215.0</ele><time>2026-05-02T14:04:11Z</time></trkpt><trkpt lat="42.58389276120543" lon="12.644576357700137"><ele>215.0</ele><time>2026-05-02T14:04:12Z</time></trkpt><trkpt lat="42.58381836156018" lon="12.644287235239638"><ele>214.0</ele><time>2026-05-02T14:04:13Z</time></trkpt><trkpt lat="42.58373787821188" lon="12.644000492118236"><ele>213.0</ele><time>2026-05-02T14:04:14Z</time></trkpt><trkpt lat="42.58365348992072" lon="12.643712167308815"><ele>212.0</ele><time>2026-05-02T14:04:15Z</time></trkpt><trkpt lat="42.583568685217195" lon="12.64342579035274"><ele>211.0</ele><time>2026-05-02T14:04:16Z</time></trkpt><trkpt lat="42.583477474467124" lon="12.643138905554697"><ele>211.0</ele><time>2026-05-02T14:04:17Z</time></trkpt><trkpt lat="42.58338111750254" lon="12.642853090521724"><ele>211.0</ele><time>2026-05-02T14:04:18Z</time></trkpt><trkpt lat="42.58328670030257" lon="12.642575022670302"><ele>209.0</ele><time>2026-05-02T14:04:19Z</time></trkpt><trkpt lat="42.583183187735145" lon="12.642296625321613"><ele>207.0</ele><time>2026-05-02T14:04:20Z</time></trkpt><trkpt lat="42.583076333884286" lon="12.642025948187388"><ele>204.0</ele><time>2026-05-02T14:04:21Z</time></trkpt><trkpt lat="42.58296757701208" lon="12.641756889006517"><ele>201.0</ele><time>2026-05-02T14:04:22Z</time></trkpt><trkpt lat="42.58286084825426" lon="12.641485555528027"><ele>202.0</ele><time>2026-05-02T14:04:23Z</time></trkpt><trkpt lat="42.58274787468204" lon="12.64122884966612"><ele>203.0</ele><time>2026-05-02T14:04:24Z</time></trkpt><trkpt lat="42.58262945484403" lon="12.640977141905232"><ele>204.0</ele><time>2026-05-02T14:04:25Z</time></trkpt><trkpt lat="42.5825088262011" lon="12.640715530088055"><ele>204.0</ele><time>2026-05-02T14:04:26Z</time></trkpt><trkpt lat="42.58238326655076" lon="12.640462814518955"><ele>204.0</ele><time>2026-05-02T14:04:27Z</time></trkpt><trkpt lat="42.58224279852426" lon="12.640206817625451"><ele>203.0</ele><time>2026-05-02T14:04:28Z</time></trkpt><trkpt lat="42.58209457527319" lon="12.639945065427298"><ele>202.0</ele><time>2026-05-02T14:04:29Z</time></trkpt><trkpt lat="42.581937938657084" lon="12.639677747713707"><ele>199.0</ele><time>2026-05-02T14:04:30Z</time></trkpt><trkpt lat="42.581776384304995" lon="12.63940671092648"><ele>196.0</ele><time>2026-05-02T14:04:31Z</time></trkpt><trkpt lat="42.58161442682394" lon="12.639135906236323"><ele>196.0</ele><time>2026-05-02T14:04:32Z</time></trkpt><trkpt lat="42.581447661883175" lon="12.638861955300124"><ele>196.0</ele><time>2026-05-02T14:04:33Z</time></trkpt><trkpt lat="42.58127788335954" lon="12.638587376044066"><ele>194.0</ele><time>2026-05-02T14:04:34Z</time></trkpt><trkpt lat="42.581108503137706" lon="12.638312477923424"><ele>192.0</ele><time>2026-05-02T14:04:35Z</time></trkpt><trkpt lat="42.580932797270506" lon="12.638044724789014"><ele>188.5</ele><time>2026-05-02T14:04:36Z</time></trkpt><trkpt lat="42.5807531615968" lon="12.637777720211242"><ele>185.0</ele><time>2026-05-02T14:04:37Z</time></trkpt><trkpt lat="42.58056333779366" lon="12.637519315916196"><ele>185.0</ele><time>2026-05-02T14:04:38Z</time></trkpt><trkpt lat="42.58038078639512" lon="12.637255083252711"><ele>185.0</ele><time>2026-05-02T14:04:39Z</time></trkpt><trkpt lat="42.580196394307485" lon="12.636996217480851"><ele>182.0</ele><time>2026-05-02T14:04:40Z</time></trkpt><trkpt lat="42.58001960653093" lon="12.636735503033727"><ele>179.0</ele><time>2026-05-02T14:04:41Z</time></trkpt><trkpt lat="42.57982986805687" lon="12.636487608295948"><ele>179.0</ele><time>2026-05-02T14:04:42Z</time></trkpt><trkpt lat="42.57965776801231" lon="12.636224935179055"><ele>179.0</ele><time>2026-05-02T14:04:43Z</time></trkpt><trkpt lat="42.57948259218572" lon="12.635969911389534"><ele>176.5</ele><time>2026-05-02T14:04:44Z</time></trkpt><trkpt lat="42.579303043756745" lon="12.635719230254548"><ele>174.0</ele><time>2026-05-02T14:04:45Z</time></trkpt><trkpt lat="42.57912698162519" lon="12.635469114333088"><ele>172.0</ele><time>2026-05-02T14:04:46Z</time></trkpt><trkpt lat="42.57894894683509" lon="12.635226821782563"><ele>170.0</ele><time>2026-05-02T14:04:47Z</time></trkpt><trkpt lat="42.57877649674807" lon="12.634979065375216"><ele>168.0</ele><time>2026-05-02T14:04:48Z</time></trkpt><trkpt lat="42.578603433384565" lon="12.634732288770222"><ele>166.0</ele><time>2026-05-02T14:04:49Z</time></trkpt><trkpt lat="42.578435358949825" lon="12.63448363971502"><ele>167.0</ele><time>2026-05-02T14:04:50Z</time></trkpt><trkpt lat="42.57826107543449" lon="12.634237050706291"><ele>168.0</ele><time>2026-05-02T14:04:51Z</time></trkpt><trkpt lat="42.5780895133821" lon="12.633993001261043"><ele>168.0</ele><time>2026-05-02T14:04:52Z</time></trkpt><trkpt lat="42.57792188096835" lon="12.633742790185593"><ele>168.0</ele><time>2026-05-02T14:04:53Z</time></trkpt><trkpt lat="42.5777530659117" lon="12.633499493040633"><ele>164.0</ele><time>2026-05-02T14:04:54Z</time></trkpt><trkpt lat="42.57758033456894" lon="12.633259382670834"><ele>160.0</ele><time>2026-05-02T14:04:55Z</time></trkpt><trkpt lat="42.57741127580326" lon="12.633021395697444"><ele>158.5</ele><time>2026-05-02T14:04:56Z</time></trkpt><trkpt lat="42.57724332506249" lon="12.632781461102805"><ele>157.0</ele><time>2026-05-02T14:04:57Z</time></trkpt><trkpt lat="42.577078585707056" lon="12.632542251645912"><ele>155.5</ele><time>2026-05-02T14:04:58Z</time></trkpt><trkpt lat="42.57691284419721" lon="12.63230417562062"><ele>154.0</ele><time>2026-05-02T14:04:59Z</time></trkpt><trkpt lat="42.57674900463019" lon="12.632079722537279"><ele>153.5</ele><time>2026-05-02T14:05:00Z</time></trkpt><trkpt lat="42.57658906555656" lon="12.631855934768163"><ele>153.0</ele><time>2026-05-02T14:05:01Z</time></trkpt><trkpt lat="42.576428938487844" lon="12.63163180135354"><ele>153.0</ele><time>2026-05-02T14:05:02Z</time></trkpt><trkpt lat="42.57627089548172" lon="12.6314086653678"><ele>153.0</ele><time>2026-05-02T14:05:03Z</time></trkpt><trkpt lat="42.57611400178481" lon="12.631188491630503"><ele>152.0</ele><time>2026-05-02T14:05:04Z</time></trkpt><trkpt lat="42.575960227676234" lon="12.63096359888199"><ele>151.0</ele><time>2026-05-02T14:05:05Z</time></trkpt><trkpt lat="42.57580654694863" lon="12.630741950412121"><ele>151.0</ele><time>2026-05-02T14:05:06Z</time></trkpt><trkpt lat="42.57565213777231" lon="12.630522310096655"><ele>151.0</ele><time>2026-05-02T14:05:07Z</time></trkpt><trkpt lat="42.575498293845364" lon="12.630302258677895"><ele>151.0</ele><time>2026-05-02T14:05:08Z</time></trkpt><trkpt lat="42.57534669721683" lon="12.630087294166621"><ele>150.0</ele><time>2026-05-02T14:05:09Z</time></trkpt><trkpt lat="42.57519417431073" lon="12.629868619557445"><ele>149.0</ele><time>2026-05-02T14:05:10Z</time></trkpt><trkpt lat="42.57504482286392" lon="12.629647227967306"><ele>148.0</ele><time>2026-05-02T14:05:11Z</time></trkpt><trkpt lat="42.574889039096234" lon="12.62943401432936"><ele>147.33333333333334</ele><time>2026-05-02T14:05:12Z</time></trkpt><trkpt lat="42.57474118067865" lon="12.629213399671126"><ele>146.66666666666666</ele><time>2026-05-02T14:05:13Z</time></trkpt><trkpt lat="42.57459018222929" lon="12.62899281889557"><ele>146.0</ele><time>2026-05-02T14:05:14Z</time></trkpt><trkpt lat="42.57444146020907" lon="12.628785004990275"><ele>146.0</ele><time>2026-05-02T14:05:15Z</time></trkpt><trkpt lat="42.57428800572402" lon="12.628570307504075"><ele>146.0</ele><time>2026-05-02T14:05:16Z</time></trkpt><trkpt lat="42.574134566347055" lon="12.62835809825028"><ele>146.0</ele><time>2026-05-02T14:05:17Z</time></trkpt><trkpt lat="42.573986200606164" lon="12.628141586195898"><ele>146.0</ele><time>2026-05-02T14:05:18Z</time></trkpt><trkpt lat="42.57383579250596" lon="12.62792313209932"><ele>146.0</ele><time>2026-05-02T14:05:19Z</time></trkpt><trkpt lat="42.57368474678015" lon="12.627703628104646"><ele>146.0</ele><time>2026-05-02T14:05:20Z</time></trkpt><trkpt lat="42.573536738325885" lon="12.627476922336449"><ele>144.0</ele><time>2026-05-02T14:05:21Z</time></trkpt><trkpt lat="42.573391123083" lon="12.627248902707626"><ele>142.0</ele><time>2026-05-02T14:05:22Z</time></trkpt><trkpt lat="42.573247394045126" lon="12.627012315753595"><ele>140.0</ele><time>2026-05-02T14:05:23Z</time></trkpt><trkpt lat="42.57310402172976" lon="12.626773011345461"><ele>140.0</ele><time>2026-05-02T14:05:24Z</time></trkpt><trkpt lat="42.57296237123773" lon="12.626530254542024"><ele>140.0</ele><time>2026-05-02T14:05:25Z</time></trkpt><trkpt lat="42.57282431958335" lon="12.626282414327502"><ele>140.0</ele><time>2026-05-02T14:05:26Z</time></trkpt><trkpt lat="42.57268875997429" lon="12.62602620854954"><ele>140.0</ele><time>2026-05-02T14:05:27Z</time></trkpt><trkpt lat="42.57255760959131" lon="12.625770085107986"><ele>140.0</ele><time>2026-05-02T14:05:28Z</time></trkpt><trkpt lat="42.572428296403125" lon="12.625512609412953"><ele>140.0</ele><time>2026-05-02T14:05:29Z</time></trkpt><trkpt lat="42.572302740310974" lon="12.625246069537848"><ele>140.5</ele><time>2026-05-02T14:05:30Z</time></trkpt><trkpt lat="42.57218198868698" lon="12.624971951178892"><ele>141.0</ele><time>2026-05-02T14:05:31Z</time></trkpt><trkpt lat="42.5720604542558" lon="12.624697150200179"><ele>137.5</ele><time>2026-05-02T14:05:32Z</time></trkpt><trkpt lat="42.57194090086581" lon="12.624421098720406"><ele>134.0</ele><time>2026-05-02T14:05:33Z</time></trkpt><trkpt lat="42.57183127756934" lon="12.62413808240211"><ele>134.0</ele><time>2026-05-02T14:05:34Z</time></trkpt><trkpt lat="42.57172285656561" lon="12.623851688618378"><ele>134.0</ele><time>2026-05-02T14:05:35Z</time></trkpt><trkpt lat="42.57161430581312" lon="12.623566517051758"><ele>133.5</ele><time>2026-05-02T14:05:36Z</time></trkpt><trkpt lat="42.57151360343893" lon="12.623278482083998"><ele>133.0</ele><time>2026-05-02T14:05:37Z</time></trkpt><trkpt lat="42.571415386872786" lon="12.62298335857261"><ele>131.5</ele><time>2026-05-02T14:05:38Z</time></trkpt><trkpt lat="42.571323923110356" lon="12.622686018233535"><ele>130.0</ele><time>2026-05-02T14:05:39Z</time></trkpt><trkpt lat="42.57123827321805" lon="12.622389562066138"><ele>127.0</ele><time>2026-05-02T14:05:40Z</time></trkpt><trkpt lat="42.571156549963064" lon="12.622092711299619"><ele>124.0</ele><time>2026-05-02T14:05:41Z</time></trkpt><trkpt lat="42.57107968713658" lon="12.621792934972378"><ele>124.0</ele><time>2026-05-02T14:05:42Z</time></trkpt><trkpt lat="42.57100702897386" lon="12.621495210101914"><ele>124.0</ele><time>2026-05-02T14:05:43Z</time></trkpt><trkpt lat="42.5709416493124" lon="12.6211961169412"><ele>122.5</ele><time>2026-05-02T14:05:44Z</time></trkpt><trkpt lat="42.5708809701062" lon="12.620898571897285"><ele>121.0</ele><time>2026-05-02T14:05:45Z</time></trkpt><trkpt lat="42.57082438073818" lon="12.620600681685245"><ele>121.0</ele><time>2026-05-02T14:05:46Z</time></trkpt><trkpt lat="42.570769500600356" lon="12.620304851980944"><ele>121.0</ele><time>2026-05-02T14:05:47Z</time></trkpt><trkpt lat="42.57072269182402" lon="12.620008324259828"><ele>121.0</ele><time>2026-05-02T14:05:48Z</time></trkpt><trkpt lat="42.57067778212387" lon="12.619712104396053"><ele>120.33333333333334</ele><time>2026-05-02T14:05:49Z</time></trkpt><trkpt lat="42.57063780465489" lon="12.619413555258758"><ele>119.66666666666666</ele><time>2026-05-02T14:05:50Z</time></trkpt><trkpt lat="42.570603688334614" lon="12.619112349142393"><ele>119.0</ele><time>2026-05-02T14:05:51Z</time></trkpt><trkpt lat="42.57057201738897" lon="12.618811151807874"><ele>118.5</ele><time>2026-05-02T14:05:52Z</time></trkpt><trkpt lat="42.57054242169256" lon="12.618507032540474"><ele>118.0</ele><time>2026-05-02T14:05:53Z</time></trkpt><trkpt lat="42.570515792073614" lon="12.618200763058319"><ele>118.0</ele><time>2026-05-02T14:05:54Z</time></trkpt><trkpt lat="42.57049282656608" lon="12.61789298445429"><ele>118.0</ele><time>2026-05-02T14:05:55Z</time></trkpt><trkpt lat="42.57047608149859" lon="12.617586427952457"><ele>117.5</ele><time>2026-05-02T14:05:56Z</time></trkpt><trkpt lat="42.57046147868252" lon="12.617279969850395"><ele>117.0</ele><time>2026-05-02T14:05:57Z</time></trkpt><trkpt lat="42.57044667403674" lon="12.616974350422355"><ele>117.33333333333334</ele><time>2026-05-02T14:05:58Z</time></trkpt><trkpt lat="42.57043269682979" lon="12.616672247222088"><ele>117.66666666666667</ele><time>2026-05-02T14:05:59Z</time></trkpt><trkpt lat="42.57042165734956" lon="12.616372456778624"><ele>118.0</ele><time>2026-05-02T14:06:00Z</time></trkpt><trkpt lat="42.57041104003886" lon="12.616077054674845"><ele>118.0</ele><time>2026-05-02T14:06:01Z</time></trkpt><trkpt lat="42.57039970216832" lon="12.615783256613609"><ele>118.0</ele><time>2026-05-02T14:06:02Z</time></trkpt><trkpt lat="42.57039099948679" lon="12.615484684750406"><ele>118.0</ele><time>2026-05-02T14:06:03Z</time></trkpt><trkpt lat="42.570380532145684" lon="12.615185485243817"><ele>117.66666666666667</ele><time>2026-05-02T14:06:04Z</time></trkpt><trkpt lat="42.570367423810865" lon="12.614884687501295"><ele>117.33333333333334</ele><time>2026-05-02T14:06:05Z</time></trkpt><trkpt lat="42.57035638083872" lon="12.614586842089826"><ele>117.0</ele><time>2026-05-02T14:06:06Z</time></trkpt><trkpt lat="42.570344692733435" lon="12.614281480689078"><ele>115.0</ele><time>2026-05-02T14:06:07Z</time></trkpt><trkpt lat="42.57032940748664" lon="12.613971740453954"><ele>113.0</ele><time>2026-05-02T14:06:08Z</time></trkpt><trkpt lat="42.57031407335847" lon="12.613661475350638"><ele>112.5</ele><time>2026-05-02T14:06:09Z</time></trkpt><trkpt lat="42.570299784366995" lon="12.613348215933973"><ele>112.0</ele><time>2026-05-02T14:06:10Z</time></trkpt><trkpt lat="42.57028485654006" lon="12.613033819890513"><ele>112.0</ele><time>2026-05-02T14:06:11Z</time></trkpt><trkpt lat="42.570270295677986" lon="12.61271849980286"><ele>112.0</ele><time>2026-05-02T14:06:12Z</time></trkpt><trkpt lat="42.570258155847725" lon="12.61240606714396"><ele>112.0</ele><time>2026-05-02T14:06:13Z</time></trkpt><trkpt lat="42.570247612223866" lon="12.61209321526569"><ele>112.0</ele><time>2026-05-02T14:06:14Z</time></trkpt><trkpt lat="42.57023490729013" lon="12.611780731456253"><ele>112.0</ele><time>2026-05-02T14:06:15Z</time></trkpt><trkpt lat="42.57022474872913" lon="12.611469914774203"><ele>112.0</ele><time>2026-05-02T14:06:16Z</time></trkpt><trkpt lat="42.57021331928349" lon="12.61116043410127"><ele>112.0</ele><time>2026-05-02T14:06:17Z</time></trkpt><trkpt lat="42.57020097835271" lon="12.610848733389318"><ele>112.0</ele><time>2026-05-02T14:06:18Z</time></trkpt><trkpt lat="42.57018706094276" lon="12.610538472937542"><ele>111.0</ele><time>2026-05-02T14:06:19Z</time></trkpt><trkpt lat="42.5701731357409" lon="12.610228539801618"><ele>110.0</ele><time>2026-05-02T14:06:20Z</time></trkpt><trkpt lat="42.57015919181324" lon="12.609917597844715"><ele>110.0</ele><time>2026-05-02T14:06:21Z</time></trkpt><trkpt lat="42.570145900167624" lon="12.609606975049672"><ele>110.0</ele><time>2026-05-02T14:06:22Z</time></trkpt><trkpt lat="42.57013153131247" lon="12.60929593191801"><ele>111.5</ele><time>2026-05-02T14:06:23Z</time></trkpt><trkpt lat="42.57011507763044" lon="12.608987679527242"><ele>113.0</ele><time>2026-05-02T14:06:24Z</time></trkpt><trkpt lat="42.57010094509836" lon="12.60867915575085"><ele>111.5</ele><time>2026-05-02T14:06:25Z</time></trkpt><trkpt lat="42.57008880389514" lon="12.608371435916517"><ele>110.0</ele><time>2026-05-02T14:06:26Z</time></trkpt><trkpt lat="42.57007412442826" lon="12.608063677930517"><ele>109.5</ele><time>2026-05-02T14:06:27Z</time></trkpt><trkpt lat="42.570060293755105" lon="12.607752196916179"><ele>109.0</ele><time>2026-05-02T14:06:28Z</time></trkpt><trkpt lat="42.57004723569353" lon="12.607438373668963"><ele>109.0</ele><time>2026-05-02T14:06:29Z</time></trkpt><trkpt lat="42.57003637977479" lon="12.607127022054657"><ele>109.0</ele><time>2026-05-02T14:06:30Z</time></trkpt><trkpt lat="42.57002409691915" lon="12.606814942865384"><ele>109.5</ele><time>2026-05-02T14:06:31Z</time></trkpt><trkpt lat="42.5700131739356" lon="12.606501172562352"><ele>110.0</ele><time>2026-05-02T14:06:32Z</time></trkpt><trkpt lat="42.5700031536043" lon="12.606187566020388"><ele>109.5</ele><time>2026-05-02T14:06:33Z</time></trkpt><trkpt lat="42.56999126729869" lon="12.60587529792664"><ele>109.0</ele><time>2026-05-02T14:06:34Z</time></trkpt><trkpt lat="42.56997848862724" lon="12.60556244766384"><ele>108.5</ele><time>2026-05-02T14:06:35Z</time></trkpt><trkpt lat="42.56996507836515" lon="12.6052490359509"><ele>108.0</ele><time>2026-05-02T14:06:36Z</time></trkpt><trkpt lat="42.56995048389009" lon="12.604935349237039"><ele>108.0</ele><time>2026-05-02T14:06:37Z</time></trkpt><trkpt lat="42.5699375966409" lon="12.604621057805286"><ele>108.0</ele><time>2026-05-02T14:06:38Z</time></trkpt><trkpt lat="42.569927428358874" lon="12.604305357431302"><ele>108.0</ele><time>2026-05-02T14:06:39Z</time></trkpt><trkpt lat="42.56991729264814" lon="12.603987994430543"><ele>108.0</ele><time>2026-05-02T14:06:40Z</time></trkpt><trkpt lat="42.569908771565125" lon="12.603671579369973"><ele>108.0</ele><time>2026-05-02T14:06:41Z</time></trkpt><trkpt lat="42.56990230578447" lon="12.603354003702457"><ele>108.0</ele><time>2026-05-02T14:06:42Z</time></trkpt><trkpt lat="42.56989743729574" lon="12.603035087987056"><ele>107.0</ele><time>2026-05-02T14:06:43Z</time></trkpt><trkpt lat="42.56989189459378" lon="12.602718886302808"><ele>106.0</ele><time>2026-05-02T14:06:44Z</time></trkpt><trkpt lat="42.56988657361382" lon="12.602400063235738"><ele>106.0</ele><time>2026-05-02T14:06:45Z</time></trkpt><trkpt lat="42.56988056912129" lon="12.602082644906325"><ele>106.0</ele><time>2026-05-02T14:06:46Z</time></trkpt><trkpt lat="42.56987446613863" lon="12.601765675127023"><ele>106.0</ele><time>2026-05-02T14:06:47Z</time></trkpt><trkpt lat="42.56987043721934" lon="12.601448575117923"><ele>106.0</ele><time>2026-05-02T14:06:48Z</time></trkpt><trkpt lat="42.56986713678508" lon="12.60112952242997"><ele>106.0</ele><time>2026-05-02T14:06:49Z</time></trkpt><trkpt lat="42.56986222460243" lon="12.600810901881195"><ele>106.0</ele><time>2026-05-02T14:06:50Z</time></trkpt><trkpt lat="42.569856842856346" lon="12.600494022118433"><ele>106.0</ele><time>2026-05-02T14:06:51Z</time></trkpt><trkpt lat="42.56984693606416" lon="12.600171828648657"><ele>106.0</ele><time>2026-05-02T14:06:52Z</time></trkpt><trkpt lat="42.5698385037608" lon="12.599864912746785"><ele>106.0</ele><time>2026-05-02T14:06:53Z</time></trkpt><trkpt lat="42.569834329894015" lon="12.599548938306608"><ele>106.0</ele><time>2026-05-02T14:06:54Z</time></trkpt><trkpt lat="42.56982926218001" lon="12.599234037233433"><ele>106.0</ele><time>2026-05-02T14:06:55Z</time></trkpt><trkpt lat="42.56982346999455" lon="12.598918950755145"><ele>106.0</ele><time>2026-05-02T14:06:56Z</time></trkpt><trkpt lat="42.56981742844805" lon="12.598605495644435"><ele>107.5</ele><time>2026-05-02T14:06:57Z</time></trkpt><trkpt lat="42.56981158274216" lon="12.5982877437873"><ele>109.0</ele><time>2026-05-02T14:06:58Z</time></trkpt><trkpt lat="42.56980453457853" lon="12.597973445138747"><ele>110.5</ele><time>2026-05-02T14:06:59Z</time></trkpt><trkpt lat="42.56979470343225" lon="12.597651954542794"><ele>112.0</ele><time>2026-05-02T14:07:00Z</time></trkpt><trkpt lat="42.56978845506721" lon="12.59732817294252"><ele>110.5</ele><time>2026-05-02T14:07:01Z</time></trkpt><trkpt lat="42.569778445466795" lon="12.597001698100485"><ele>109.0</ele><time>2026-05-02T14:07:02Z</time></trkpt><trkpt lat="42.56977228193639" lon="12.596684717130126"><ele>109.0</ele><time>2026-05-02T14:07:03Z</time></trkpt><trkpt lat="42.56976517157916" lon="12.596366390002892"><ele>109.0</ele><time>2026-05-02T14:07:04Z</time></trkpt><trkpt lat="42.56975896576313" lon="12.5960448266985"><ele>109.0</ele><time>2026-05-02T14:07:05Z</time></trkpt><trkpt lat="42.56975080884862" lon="12.595725958770247"><ele>109.0</ele><time>2026-05-02T14:07:06Z</time></trkpt><trkpt lat="42.569742940928016" lon="12.59540292883723"><ele>108.5</ele><time>2026-05-02T14:07:07Z</time></trkpt><trkpt lat="42.56973617133508" lon="12.59507647068088"><ele>108.0</ele><time>2026-05-02T14:07:08Z</time></trkpt><trkpt lat="42.56972386918128" lon="12.594747716816562"><ele>109.0</ele><time>2026-05-02T14:07:09Z</time></trkpt><trkpt lat="42.56971529383908" lon="12.594421309730501"><ele>110.0</ele><time>2026-05-02T14:07:10Z</time></trkpt><trkpt lat="42.56970738615111" lon="12.594089562197087"><ele>110.0</ele><time>2026-05-02T14:07:11Z</time></trkpt><trkpt lat="42.56969582790649" lon="12.59375960231775"><ele>110.0</ele><time>2026-05-02T14:07:12Z</time></trkpt><trkpt lat="42.56968727693341" lon="12.593426601411032"><ele>109.5</ele><time>2026-05-02T14:07:13Z</time></trkpt><trkpt lat="42.569678827524235" lon="12.593086599173903"><ele>109.0</ele><time>2026-05-02T14:07:14Z</time></trkpt><trkpt lat="42.56966983934952" lon="12.592757386856382"><ele>109.0</ele><time>2026-05-02T14:07:15Z</time></trkpt><trkpt lat="42.56965730558726" lon="12.59242248788394"><ele>109.0</ele><time>2026-05-02T14:07:16Z</time></trkpt><trkpt lat="42.56965053917641" lon="12.592102246400197"><ele>108.0</ele><time>2026-05-02T14:07:17Z</time></trkpt><trkpt lat="42.56963636371717" lon="12.591769692950676"><ele>107.0</ele><time>2026-05-02T14:07:18Z</time></trkpt><trkpt lat="42.56962402431806" lon="12.59143849522583"><ele>107.0</ele><time>2026-05-02T14:07:19Z</time></trkpt><trkpt lat="42.56961302869651" lon="12.591112547738069"><ele>107.0</ele><time>2026-05-02T14:07:20Z</time></trkpt><trkpt lat="42.569603303362236" lon="12.590786142224012"><ele>107.0</ele><time>2026-05-02T14:07:21Z</time></trkpt><trkpt lat="42.569590235538705" lon="12.590452808311936"><ele>107.0</ele><time>2026-05-02T14:07:22Z</time></trkpt><trkpt lat="42.56957868730948" lon="12.590126335215674"><ele>106.5</ele><time>2026-05-02T14:07:23Z</time></trkpt><trkpt lat="42.56956801353856" lon="12.589798243400642"><ele>106.0</ele><time>2026-05-02T14:07:24Z</time></trkpt><trkpt lat="42.56955923290144" lon="12.589464919726582"><ele>105.0</ele><time>2026-05-02T14:07:25Z</time></trkpt><trkpt lat="42.56955101853233" lon="12.589129120258514"><ele>104.0</ele><time>2026-05-02T14:07:26Z</time></trkpt><trkpt lat="42.56953615505973" lon="12.588792998766998"><ele>104.0</ele><time>2026-05-02T14:07:27Z</time></trkpt><trkpt lat="42.5695237278657" lon="12.588461068845959"><ele>104.0</ele><time>2026-05-02T14:07:28Z</time></trkpt><trkpt lat="42.56950989063224" lon="12.588125069406287"><ele>105.0</ele><time>2026-05-02T14:07:29Z</time></trkpt><trkpt lat="42.56949625361579" lon="12.587791755431883"><ele>106.0</ele><time>2026-05-02T14:07:30Z</time></trkpt><trkpt lat="42.56947974468627" lon="12.587454510829573"><ele>106.0</ele><time>2026-05-02T14:07:31Z</time></trkpt><trkpt lat="42.5694648575288" lon="12.587119610033751"><ele>106.0</ele><time>2026-05-02T14:07:32Z</time></trkpt><trkpt lat="42.569448005975914" lon="12.586783447996181"><ele>106.0</ele><time>2026-05-02T14:07:33Z</time></trkpt><trkpt lat="42.56943329543385" lon="12.586447909541796"><ele>106.0</ele><time>2026-05-02T14:07:34Z</time></trkpt><trkpt lat="42.569421220861784" lon="12.586114224380598"><ele>105.5</ele><time>2026-05-02T14:07:35Z</time></trkpt><trkpt lat="42.56940921019776" lon="12.585781868363668"><ele>105.0</ele><time>2026-05-02T14:07:36Z</time></trkpt><trkpt lat="42.56939313572819" lon="12.585443991633024"><ele>105.5</ele><time>2026-05-02T14:07:37Z</time></trkpt><trkpt lat="42.56937784575213" lon="12.585106391644688"><ele>106.0</ele><time>2026-05-02T14:07:38Z</time></trkpt><trkpt lat="42.5693648962728" lon="12.58477019595009"><ele>105.5</ele><time>2026-05-02T14:07:39Z</time></trkpt><trkpt lat="42.56935113848344" lon="12.584435064979562"><ele>105.0</ele><time>2026-05-02T14:07:40Z</time></trkpt><trkpt lat="42.5693408637518" lon="12.58410618601301"><ele>105.0</ele><time>2026-05-02T14:07:41Z</time></trkpt><trkpt lat="42.56932817895816" lon="12.58377909230106"><ele>105.0</ele><time>2026-05-02T14:07:42Z</time></trkpt><trkpt lat="42.56931090675122" lon="12.583450152199848"><ele>106.5</ele><time>2026-05-02T14:07:43Z</time></trkpt><trkpt lat="42.56929753911881" lon="12.583124261398872"><ele>108.0</ele><time>2026-05-02T14:07:44Z</time></trkpt><trkpt lat="42.569286267102406" lon="12.582802845021163"><ele>108.5</ele><time>2026-05-02T14:07:45Z</time></trkpt><trkpt lat="42.569275720146365" lon="12.582480584337834"><ele>109.0</ele><time>2026-05-02T14:07:46Z</time></trkpt><trkpt lat="42.569264514485965" lon="12.58215919801314"><ele>109.5</ele><time>2026-05-02T14:07:47Z</time></trkpt><trkpt lat="42.56925329325145" lon="12.5818352494274"><ele>110.0</ele><time>2026-05-02T14:07:48Z</time></trkpt><trkpt lat="42.56924159578723" lon="12.5815208319322"><ele>110.0</ele><time>2026-05-02T14:07:49Z</time></trkpt><trkpt lat="42.56923066456543" lon="12.581224384210977"><ele>110.0</ele><time>2026-05-02T14:07:50Z</time></trkpt><trkpt lat="42.569220906153994" lon="12.580949190878329"><ele>110.0</ele><time>2026-05-02T14:07:51Z</time></trkpt><trkpt lat="42.56921736112011" lon="12.58068472559089"><ele>110.0</ele><time>2026-05-02T14:07:52Z</time></trkpt><trkpt lat="42.56921803842857" lon="12.580434366086735"><ele>110.0</ele><time>2026-05-02T14:07:53Z</time></trkpt><trkpt lat="42.56921397672455" lon="12.58019007889599"><ele>110.0</ele><time>2026-05-02T14:07:54Z</time></trkpt><trkpt lat="42.56920693820532" lon="12.579962063900787"><ele>110.66666666666666</ele><time>2026-05-02T14:07:55Z</time></trkpt><trkpt lat="42.5691996952241" lon="12.57974062760693"><ele>111.33333333333334</ele><time>2026-05-02T14:07:56Z</time></trkpt><trkpt lat="42.56919849637226" lon="12.579539151614144"><ele>112.0</ele><time>2026-05-02T14:07:57Z</time></trkpt><trkpt lat="42.56919788258969" lon="12.579336601525092"><ele>112.0</ele><time>2026-05-02T14:07:58Z</time></trkpt><trkpt lat="42.56920278957156" lon="12.579114273905427"><ele>112.0</ele><time>2026-05-02T14:07:59Z</time></trkpt><trkpt lat="42.569222267390046" lon="12.578879629110777"><ele>112.0</ele><time>2026-05-02T14:08:00Z</time></trkpt><trkpt lat="42.569279069642526" lon="12.578643209431819"><ele>112.0</ele><time>2026-05-02T14:08:01Z</time></trkpt><trkpt lat="42.56937646325133" lon="12.578424818002812"><ele>112.0</ele><time>2026-05-02T14:08:02Z</time></trkpt><trkpt lat="42.56950107105244" lon="12.578211778961037"><ele>112.0</ele><time>2026-05-02T14:08:03Z</time></trkpt><trkpt lat="42.56964589183526" lon="12.578010540461618"><ele>111.66666666666667</ele><time>2026-05-02T14:08:04Z</time></trkpt><trkpt lat="42.56980090580633" lon="12.57781311094911"><ele>111.33333333333334</ele><time>2026-05-02T14:08:05Z</time></trkpt><trkpt lat="42.56995774767929" lon="12.57760386365281"><ele>111.0</ele><time>2026-05-02T14:08:06Z</time></trkpt><trkpt lat="42.570113418276016" lon="12.577392974606076"><ele>111.0</ele><time>2026-05-02T14:08:07Z</time></trkpt><trkpt lat="42.570267038417775" lon="12.577176403768675"><ele>111.0</ele><time>2026-05-02T14:08:08Z</time></trkpt><trkpt lat="42.5704223378998" lon="12.57696003938275"><ele>111.0</ele><time>2026-05-02T14:08:09Z</time></trkpt><trkpt lat="42.57057981150802" lon="12.576748020855504"><ele>111.0</ele><time>2026-05-02T14:08:10Z</time></trkpt><trkpt lat="42.57073965091988" lon="12.576532555850564"><ele>111.0</ele><time>2026-05-02T14:08:11Z</time></trkpt><trkpt lat="42.57089973078295" lon="12.576321654913981"><ele>111.0</ele><time>2026-05-02T14:08:12Z</time></trkpt><trkpt lat="42.57105420919088" lon="12.576118967602467"><ele>111.33333333333334</ele><time>2026-05-02T14:08:13Z</time></trkpt><trkpt lat="42.57120249075967" lon="12.575947634457092"><ele>111.66666666666667</ele><time>2026-05-02T14:08:14Z</time></trkpt><trkpt lat="42.571364628622206" lon="12.575798877462052"><ele>112.0</ele><time>2026-05-02T14:08:15Z</time></trkpt><trkpt lat="42.57154480452152" lon="12.575688827608786"><ele>112.0</ele><time>2026-05-02T14:08:16Z</time></trkpt><trkpt lat="42.57173886980529" lon="12.575611135471252"><ele>112.0</ele><time>2026-05-02T14:08:17Z</time></trkpt><trkpt lat="42.57193761072049" lon="12.575555087123359"><ele>112.0</ele><time>2026-05-02T14:08:18Z</time></trkpt><trkpt lat="42.57213108836938" lon="12.575492725325532"><ele>112.33333333333334</ele><time>2026-05-02T14:08:19Z</time></trkpt><trkpt lat="42.572320707087336" lon="12.575428863802463"><ele>112.66666666666666</ele><time>2026-05-02T14:08:20Z</time></trkpt><trkpt lat="42.57250587091112" lon="12.575361625159616"><ele>113.0</ele><time>2026-05-02T14:08:21Z</time></trkpt><trkpt lat="42.57269282672484" lon="12.575292255788598"><ele>114.33333333333333</ele><time>2026-05-02T14:08:22Z</time></trkpt><trkpt lat="42.57287697135165" lon="12.575219971889325"><ele>115.66666666666666</ele><time>2026-05-02T14:08:23Z</time></trkpt><trkpt lat="42.57305996850359" lon="12.575152673001266"><ele>117.0</ele><time>2026-05-02T14:08:24Z</time></trkpt><trkpt lat="42.57324198776797" lon="12.575087765209139"><ele>117.0</ele><time>2026-05-02T14:08:25Z</time></trkpt><trkpt lat="42.57342617340154" lon="12.575022038233673"><ele>117.0</ele><time>2026-05-02T14:08:26Z</time></trkpt><trkpt lat="42.57360471445002" lon="12.574957616930764"><ele>117.0</ele><time>2026-05-02T14:08:27Z</time></trkpt><trkpt lat="42.57377771299211" lon="12.574892756965797"><ele>116.33333333333334</ele><time>2026-05-02T14:08:28Z</time></trkpt><trkpt lat="42.573970415614916" lon="12.57482129211193"><ele>115.66666666666667</ele><time>2026-05-02T14:08:29Z</time></trkpt><trkpt lat="42.57417622985279" lon="12.574745736155446"><ele>115.0</ele><time>2026-05-02T14:08:30Z</time></trkpt><trkpt lat="42.57438958718953" lon="12.574670662194013"><ele>117.0</ele><time>2026-05-02T14:08:31Z</time></trkpt><trkpt lat="42.57461137540739" lon="12.574595582550902"><ele>119.0</ele><time>2026-05-02T14:08:32Z</time></trkpt><trkpt lat="42.57484035564267" lon="12.574531384180775"><ele>118.5</ele><time>2026-05-02T14:08:33Z</time></trkpt><trkpt lat="42.57507560805415" lon="12.574467512105832"><ele>118.0</ele><time>2026-05-02T14:08:34Z</time></trkpt><trkpt lat="42.575316151997605" lon="12.574398432642495"><ele>119.0</ele><time>2026-05-02T14:08:35Z</time></trkpt><trkpt lat="42.575562594336105" lon="12.57432677300076"><ele>120.0</ele><time>2026-05-02T14:08:36Z</time></trkpt><trkpt lat="42.57581388792322" lon="12.574260835201404"><ele>120.0</ele><time>2026-05-02T14:08:37Z</time></trkpt><trkpt lat="42.576067300016256" lon="12.574198824307233"><ele>120.0</ele><time>2026-05-02T14:08:38Z</time></trkpt><trkpt lat="42.57632198043803" lon="12.574134266724707"><ele>119.5</ele><time>2026-05-02T14:08:39Z</time></trkpt><trkpt lat="42.57657661412349" lon="12.574061200708698"><ele>119.0</ele><time>2026-05-02T14:08:40Z</time></trkpt><trkpt lat="42.576832308502226" lon="12.573988601280059"><ele>118.0</ele><time>2026-05-02T14:08:41Z</time></trkpt><trkpt lat="42.57708432561161" lon="12.573916626975763"><ele>117.0</ele><time>2026-05-02T14:08:42Z</time></trkpt><trkpt lat="42.577338521198854" lon="12.57384399064075"><ele>117.0</ele><time>2026-05-02T14:08:43Z</time></trkpt><trkpt lat="42.57759278222755" lon="12.57377418513978"><ele>117.0</ele><time>2026-05-02T14:08:44Z</time></trkpt><trkpt lat="42.57784603542624" lon="12.573702345694118"><ele>118.0</ele><time>2026-05-02T14:08:45Z</time></trkpt><trkpt lat="42.57809791831804" lon="12.57363189856786"><ele>119.0</ele><time>2026-05-02T14:08:46Z</time></trkpt><trkpt lat="42.57834622178042" lon="12.573564673749287"><ele>119.0</ele><time>2026-05-02T14:08:47Z</time></trkpt><trkpt lat="42.57859492421933" lon="12.573496241205072"><ele>119.0</ele><time>2026-05-02T14:08:48Z</time></trkpt><trkpt lat="42.578844425319524" lon="12.573423345131454"><ele>119.0</ele><time>2026-05-02T14:08:49Z</time></trkpt><trkpt lat="42.579093148941546" lon="12.573351781938658"><ele>119.0</ele><time>2026-05-02T14:08:50Z</time></trkpt><trkpt lat="42.579343448260815" lon="12.573278073962646"><ele>119.5</ele><time>2026-05-02T14:08:51Z</time></trkpt><trkpt lat="42.579592279969376" lon="12.573192268210942"><ele>120.0</ele><time>2026-05-02T14:08:52Z</time></trkpt><trkpt lat="42.579840149419866" lon="12.573103622100342"><ele>120.0</ele><time>2026-05-02T14:08:53Z</time></trkpt><trkpt lat="42.58008527128381" lon="12.573003111175169"><ele>120.0</ele><time>2026-05-02T14:08:54Z</time></trkpt><trkpt lat="42.58032705184063" lon="12.572909029219684"><ele>122.0</ele><time>2026-05-02T14:08:55Z</time></trkpt><trkpt lat="42.58057348866643" lon="12.572805377854149"><ele>124.0</ele><time>2026-05-02T14:08:56Z</time></trkpt><trkpt lat="42.58081696131908" lon="12.572691984253844"><ele>124.0</ele><time>2026-05-02T14:08:57Z</time></trkpt><trkpt lat="42.58105858234087" lon="12.572574578126488"><ele>124.0</ele><time>2026-05-02T14:08:58Z</time></trkpt><trkpt lat="42.581298850548876" lon="12.572460991320293"><ele>127.5</ele><time>2026-05-02T14:08:59Z</time></trkpt><trkpt lat="42.581534820928844" lon="12.572346153348269"><ele>131.0</ele><time>2026-05-02T14:09:00Z</time></trkpt><trkpt lat="42.58176862627828" lon="12.572225077793327"><ele>131.0</ele><time>2026-05-02T14:09:01Z</time></trkpt><trkpt lat="42.58200072751087" lon="12.572099725471045"><ele>131.0</ele><time>2026-05-02T14:09:02Z</time></trkpt><trkpt lat="42.58223127840382" lon="12.571964862932852"><ele>136.5</ele><time>2026-05-02T14:09:03Z</time></trkpt><trkpt lat="42.582462032825674" lon="12.571824543721789"><ele>142.0</ele><time>2026-05-02T14:09:04Z</time></trkpt><trkpt lat="42.582689773509195" lon="12.57167805467549"><ele>141.0</ele><time>2026-05-02T14:09:05Z</time></trkpt><trkpt lat="42.58292332832847" lon="12.571531093954667"><ele>140.0</ele><time>2026-05-02T14:09:06Z</time></trkpt><trkpt lat="42.5831447833769" lon="12.571381130804713"><ele>140.0</ele><time>2026-05-02T14:09:07Z</time></trkpt><trkpt lat="42.58336100690554" lon="12.571239366724411"><ele>140.0</ele><time>2026-05-02T14:09:08Z</time></trkpt><trkpt lat="42.583578824657465" lon="12.571084379914597"><ele>140.5</ele><time>2026-05-02T14:09:09Z</time></trkpt><trkpt lat="42.583794216970055" lon="12.570915507800581"><ele>141.0</ele><time>2026-05-02T14:09:10Z</time></trkpt><trkpt lat="42.58400724593903" lon="12.570744550283253"><ele>141.0</ele><time>2026-05-02T14:09:11Z</time></trkpt><trkpt lat="42.58421665584421" lon="12.570580898307316"><ele>141.0</ele><time>2026-05-02T14:09:12Z</time></trkpt><trkpt lat="42.5844218568182" lon="12.570414300158436"><ele>144.5</ele><time>2026-05-02T14:09:13Z</time></trkpt><trkpt lat="42.584627009930934" lon="12.57023862088514"><ele>148.0</ele><time>2026-05-02T14:09:14Z</time></trkpt><trkpt lat="42.584830027646426" lon="12.570065454012127"><ele>148.0</ele><time>2026-05-02T14:09:15Z</time></trkpt><trkpt lat="42.585036033449086" lon="12.569889234860023"><ele>148.0</ele><time>2026-05-02T14:09:16Z</time></trkpt><trkpt lat="42.58524656050261" lon="12.569719376014314"><ele>147.5</ele><time>2026-05-02T14:09:17Z</time></trkpt><trkpt lat="42.58545360000979" lon="12.569552385474225"><ele>147.0</ele><time>2026-05-02T14:09:18Z</time></trkpt><trkpt lat="42.58565965863587" lon="12.569376801619455"><ele>148.5</ele><time>2026-05-02T14:09:19Z</time></trkpt><trkpt lat="42.58586126281516" lon="12.569200544155297"><ele>150.0</ele><time>2026-05-02T14:09:20Z</time></trkpt><trkpt lat="42.586074310785285" lon="12.569043462303485"><ele>148.0</ele><time>2026-05-02T14:09:21Z</time></trkpt><trkpt lat="42.586277803764744" lon="12.568872115308787"><ele>146.0</ele><time>2026-05-02T14:09:22Z</time></trkpt><trkpt lat="42.58648699440263" lon="12.568707615795885"><ele>147.5</ele><time>2026-05-02T14:09:23Z</time></trkpt><trkpt lat="42.586696097355656" lon="12.568539500822247"><ele>149.0</ele><time>2026-05-02T14:09:24Z</time></trkpt><trkpt lat="42.58690305629803" lon="12.568371017989358"><ele>146.0</ele><time>2026-05-02T14:09:25Z</time></trkpt><trkpt lat="42.58710830542824" lon="12.568198336624128"><ele>143.0</ele><time>2026-05-02T14:09:26Z</time></trkpt><trkpt lat="42.58730955606902" lon="12.568028232020229"><ele>144.0</ele><time>2026-05-02T14:09:27Z</time></trkpt><trkpt lat="42.58751171695118" lon="12.567858133050363"><ele>145.0</ele><time>2026-05-02T14:09:28Z</time></trkpt><trkpt lat="42.58771556721595" lon="12.567688799334764"><ele>144.0</ele><time>2026-05-02T14:09:29Z</time></trkpt><trkpt lat="42.587924356932746" lon="12.567520741211384"><ele>143.0</ele><time>2026-05-02T14:09:30Z</time></trkpt><trkpt lat="42.58812886273158" lon="12.567352122536958"><ele>143.0</ele><time>2026-05-02T14:09:31Z</time></trkpt><trkpt lat="42.58833173361041" lon="12.567184301366348"><ele>143.0</ele><time>2026-05-02T14:09:32Z</time></trkpt><trkpt lat="42.588534802819225" lon="12.567019519417894"><ele>143.0</ele><time>2026-05-02T14:09:33Z</time></trkpt><trkpt lat="42.58873655941354" lon="12.566852870411083"><ele>143.0</ele><time>2026-05-02T14:09:34Z</time></trkpt><trkpt lat="42.58893520603275" lon="12.566683961559564"><ele>143.0</ele><time>2026-05-02T14:09:35Z</time></trkpt><trkpt lat="42.5891359678971" lon="12.56652164152603"><ele>143.0</ele><time>2026-05-02T14:09:36Z</time></trkpt><trkpt lat="42.58933413323015" lon="12.566355231248737"><ele>144.5</ele><time>2026-05-02T14:09:37Z</time></trkpt><trkpt lat="42.58953321532648" lon="12.566192586040446"><ele>146.0</ele><time>2026-05-02T14:09:38Z</time></trkpt><trkpt lat="42.589733524494875" lon="12.566030943883018"><ele>146.0</ele><time>2026-05-02T14:09:39Z</time></trkpt><trkpt lat="42.58993080909967" lon="12.565863638632928"><ele>146.0</ele><time>2026-05-02T14:09:40Z</time></trkpt><trkpt lat="42.59013105750575" lon="12.565694213642372"><ele>146.0</ele><time>2026-05-02T14:09:41Z</time></trkpt><trkpt lat="42.59033261893079" lon="12.565524401646531"><ele>146.0</ele><time>2026-05-02T14:09:42Z</time></trkpt><trkpt lat="42.59053288174382" lon="12.56535793114293"><ele>146.5</ele><time>2026-05-02T14:09:43Z</time></trkpt><trkpt lat="42.59073527054175" lon="12.565194732563004"><ele>147.0</ele><time>2026-05-02T14:09:44Z</time></trkpt><trkpt lat="42.590938642452" lon="12.565022147015064"><ele>147.0</ele><time>2026-05-02T14:09:45Z</time></trkpt><trkpt lat="42.59114141157912" lon="12.564858421710955"><ele>147.0</ele><time>2026-05-02T14:09:46Z</time></trkpt><trkpt lat="42.591346848678384" lon="12.564692410048764"><ele>148.0</ele><time>2026-05-02T14:09:47Z</time></trkpt><trkpt lat="42.591554790061785" lon="12.56454266923099"><ele>149.0</ele><time>2026-05-02T14:09:48Z</time></trkpt><trkpt lat="42.591768290582436" lon="12.564384016352465"><ele>149.0</ele><time>2026-05-02T14:09:49Z</time></trkpt><trkpt lat="42.59198483959134" lon="12.564238709974259"><ele>149.0</ele><time>2026-05-02T14:09:50Z</time></trkpt><trkpt lat="42.592204866939504" lon="12.564101886314095"><ele>149.5</ele><time>2026-05-02T14:09:51Z</time></trkpt><trkpt lat="42.59243011263414" lon="12.563979645248953"><ele>150.0</ele><time>2026-05-02T14:09:52Z</time></trkpt><trkpt lat="42.5926619435511" lon="12.563864045263694"><ele>151.5</ele><time>2026-05-02T14:09:53Z</time></trkpt><trkpt lat="42.592895853189184" lon="12.563762765476023"><ele>153.0</ele><time>2026-05-02T14:09:54Z</time></trkpt><trkpt lat="42.59313326810664" lon="12.563654283887338"><ele>153.5</ele><time>2026-05-02T14:09:55Z</time></trkpt><trkpt lat="42.5933733732444" lon="12.56355672442233"><ele>154.0</ele><time>2026-05-02T14:09:56Z</time></trkpt><trkpt lat="42.59361952524516" lon="12.563465534814423"><ele>156.0</ele><time>2026-05-02T14:09:57Z</time></trkpt><trkpt lat="42.59386669506066" lon="12.563391692767624"><ele>158.0</ele><time>2026-05-02T14:09:58Z</time></trkpt><trkpt lat="42.59411807067902" lon="12.563332125025816"><ele>158.0</ele><time>2026-05-02T14:09:59Z</time></trkpt><trkpt lat="42.59437250310352" lon="12.563283788933655"><ele>158.0</ele><time>2026-05-02T14:10:00Z</time></trkpt><trkpt lat="42.59462957183644" lon="12.563235831058956"><ele>159.5</ele><time>2026-05-02T14:10:01Z</time></trkpt><trkpt lat="42.594888655314236" lon="12.563195252098918"><ele>161.0</ele><time>2026-05-02T14:10:02Z</time></trkpt><trkpt lat="42.59516002836054" lon="12.563169534605363"><ele>162.5</ele><time>2026-05-02T14:10:03Z</time></trkpt><trkpt lat="42.59540682685704" lon="12.56315720543255"><ele>164.0</ele><time>2026-05-02T14:10:04Z</time></trkpt><trkpt lat="42.59566894641776" lon="12.563151007172735"><ele>164.0</ele><time>2026-05-02T14:10:05Z</time></trkpt><trkpt lat="42.59593029111874" lon="12.56316175239346"><ele>164.0</ele><time>2026-05-02T14:10:06Z</time></trkpt><trkpt lat="42.59619290757685" lon="12.563184073955549"><ele>163.0</ele><time>2026-05-02T14:10:07Z</time></trkpt><trkpt lat="42.59645356647299" lon="12.56320787930969"><ele>162.0</ele><time>2026-05-02T14:10:08Z</time></trkpt><trkpt lat="42.59671188865656" lon="12.56323142169919"><ele>162.0</ele><time>2026-05-02T14:10:09Z</time></trkpt><trkpt lat="42.59697472384435" lon="12.563249967930568"><ele>162.0</ele><time>2026-05-02T14:10:10Z</time></trkpt><trkpt lat="42.59723712540779" lon="12.563266773906015"><ele>165.0</ele><time>2026-05-02T14:10:11Z</time></trkpt><trkpt lat="42.59749855916225" lon="12.563289294431964"><ele>168.0</ele><time>2026-05-02T14:10:12Z</time></trkpt><trkpt lat="42.59775747717025" lon="12.563310763714215"><ele>170.0</ele><time>2026-05-02T14:10:13Z</time></trkpt><trkpt lat="42.59801231368572" lon="12.56333187582078"><ele>172.0</ele><time>2026-05-02T14:10:14Z</time></trkpt><trkpt lat="42.598265015737894" lon="12.563347751877906"><ele>172.0</ele><time>2026-05-02T14:10:15Z</time></trkpt><trkpt lat="42.5985175153859" lon="12.56336590342702"><ele>172.0</ele><time>2026-05-02T14:10:16Z</time></trkpt><trkpt lat="42.59877508098664" lon="12.563377573041839"><ele>176.0</ele><time>2026-05-02T14:10:17Z</time></trkpt><trkpt lat="42.599030363498734" lon="12.56338445462672"><ele>180.0</ele><time>2026-05-02T14:10:18Z</time></trkpt><trkpt lat="42.59928569245855" lon="12.563388408572372"><ele>181.0</ele><time>2026-05-02T14:10:19Z</time></trkpt><trkpt lat="42.59954156282094" lon="12.563384477378749"><ele>182.0</ele><time>2026-05-02T14:10:20Z</time></trkpt><trkpt lat="42.59979498619605" lon="12.563372493743515"><ele>182.0</ele><time>2026-05-02T14:10:21Z</time></trkpt><trkpt lat="42.60005124697135" lon="12.56335456185547"><ele>182.0</ele><time>2026-05-02T14:10:22Z</time></trkpt><trkpt lat="42.60030990036615" lon="12.56333960560723"><ele>183.0</ele><time>2026-05-02T14:10:23Z</time></trkpt><trkpt lat="42.60057074712919" lon="12.563335138754402"><ele>184.0</ele><time>2026-05-02T14:10:24Z</time></trkpt><trkpt lat="42.600831012047934" lon="12.563325041605017"><ele>184.0</ele><time>2026-05-02T14:10:25Z</time></trkpt><trkpt lat="42.601087803622846" lon="12.563307147259495"><ele>184.0</ele><time>2026-05-02T14:10:26Z</time></trkpt><trkpt lat="42.60134288762738" lon="12.563287821917834"><ele>184.5</ele><time>2026-05-02T14:10:27Z</time></trkpt><trkpt lat="42.60160096581697" lon="12.56325170686899"><ele>185.0</ele><time>2026-05-02T14:10:28Z</time></trkpt><trkpt lat="42.60185667553555" lon="12.563190609103254"><ele>184.5</ele><time>2026-05-02T14:10:29Z</time></trkpt><trkpt lat="42.60210729867041" lon="12.563104336583752"><ele>184.0</ele><time>2026-05-02T14:10:30Z</time></trkpt><trkpt lat="42.602357297683156" lon="12.5629934281624"><ele>184.0</ele><time>2026-05-02T14:10:31Z</time></trkpt><trkpt lat="42.60259712123397" lon="12.562867913979455"><ele>184.0</ele><time>2026-05-02T14:10:32Z</time></trkpt><trkpt lat="42.60283810118833" lon="12.56271817755922"><ele>187.0</ele><time>2026-05-02T14:10:33Z</time></trkpt><trkpt lat="42.60306706462708" lon="12.562551997653918"><ele>190.0</ele><time>2026-05-02T14:10:34Z</time></trkpt><trkpt lat="42.60329144450236" lon="12.562376910530189"><ele>190.0</ele><time>2026-05-02T14:10:35Z</time></trkpt><trkpt lat="42.60349784848895" lon="12.56216345915712"><ele>190.0</ele><time>2026-05-02T14:10:36Z</time></trkpt><trkpt lat="42.60370148815209" lon="12.561945774120447"><ele>190.0</ele><time>2026-05-02T14:10:37Z</time></trkpt><trkpt lat="42.60388979643023" lon="12.561704921675373"><ele>190.0</ele><time>2026-05-02T14:10:38Z</time></trkpt><trkpt lat="42.60406722326092" lon="12.561452056636897"><ele>195.5</ele><time>2026-05-02T14:10:39Z</time></trkpt><trkpt lat="42.604232762938565" lon="12.56118491135063"><ele>201.0</ele><time>2026-05-02T14:10:40Z</time></trkpt><trkpt lat="42.604390757907694" lon="12.560909320663578"><ele>195.0</ele><time>2026-05-02T14:10:41Z</time></trkpt><trkpt lat="42.604545381053946" lon="12.560642043060579"><ele>189.0</ele><time>2026-05-02T14:10:42Z</time></trkpt><trkpt lat="42.60469903148665" lon="12.560373581161768"><ele>192.5</ele><time>2026-05-02T14:10:43Z</time></trkpt><trkpt lat="42.60485199395848" lon="12.56011283167443"><ele>196.0</ele><time>2026-05-02T14:10:44Z</time></trkpt><trkpt lat="42.60500427238416" lon="12.559856161882376"><ele>196.0</ele><time>2026-05-02T14:10:45Z</time></trkpt><trkpt lat="42.60515339979034" lon="12.55960126856386"><ele>196.0</ele><time>2026-05-02T14:10:46Z</time></trkpt><trkpt lat="42.60530159451131" lon="12.559349502688999"><ele>196.0</ele><time>2026-05-02T14:10:47Z</time></trkpt><trkpt lat="42.60545125727527" lon="12.559104979103841"><ele>196.0</ele><time>2026-05-02T14:10:48Z</time></trkpt><trkpt lat="42.60560327308225" lon="12.558863262245126"><ele>201.0</ele><time>2026-05-02T14:10:49Z</time></trkpt><trkpt lat="42.605760156067596" lon="12.558626430132385"><ele>206.0</ele><time>2026-05-02T14:10:50Z</time></trkpt><trkpt lat="42.60592076799751" lon="12.55840109535121"><ele>206.0</ele><time>2026-05-02T14:10:51Z</time></trkpt><trkpt lat="42.60608744926507" lon="12.558178897312951"><ele>206.0</ele><time>2026-05-02T14:10:52Z</time></trkpt><trkpt lat="42.606255128727604" lon="12.557960625965125"><ele>208.5</ele><time>2026-05-02T14:10:53Z</time></trkpt><trkpt lat="42.60642847267654" lon="12.557747569278316"><ele>211.0</ele><time>2026-05-02T14:10:54Z</time></trkpt><trkpt lat="42.60660880623677" lon="12.557540495596696"><ele>211.0</ele><time>2026-05-02T14:10:55Z</time></trkpt><trkpt lat="42.60679379992579" lon="12.557342941351067"><ele>211.0</ele><time>2026-05-02T14:10:56Z</time></trkpt><trkpt lat="42.606981567202055" lon="12.55714917075181"><ele>210.5</ele><time>2026-05-02T14:10:57Z</time></trkpt><trkpt lat="42.60717325095856" lon="12.556964570477987"><ele>210.0</ele><time>2026-05-02T14:10:58Z</time></trkpt><trkpt lat="42.60737175656824" lon="12.55678866405949"><ele>210.0</ele><time>2026-05-02T14:10:59Z</time></trkpt><trkpt lat="42.60757580265654" lon="12.55662215558183"><ele>210.0</ele><time>2026-05-02T14:11:00Z</time></trkpt><trkpt lat="42.60778460232895" lon="12.556462255564675"><ele>210.5</ele><time>2026-05-02T14:11:01Z</time></trkpt><trkpt lat="42.60799586947634" lon="12.55630898925607"><ele>211.0</ele><time>2026-05-02T14:11:02Z</time></trkpt><trkpt lat="42.60821024020959" lon="12.556162132641157"><ele>213.5</ele><time>2026-05-02T14:11:03Z</time></trkpt><trkpt lat="42.608426125339086" lon="12.556025892847115"><ele>216.0</ele><time>2026-05-02T14:11:04Z</time></trkpt><trkpt lat="42.608645531838334" lon="12.55589916016948"><ele>220.0</ele><time>2026-05-02T14:11:05Z</time></trkpt><trkpt lat="42.608867213964444" lon="12.55578176751557"><ele>224.0</ele><time>2026-05-02T14:11:06Z</time></trkpt><trkpt lat="42.60908982854541" lon="12.555680258506575"><ele>224.0</ele><time>2026-05-02T14:11:07Z</time></trkpt><trkpt lat="42.609317006403096" lon="12.555591230707018"><ele>224.0</ele><time>2026-05-02T14:11:08Z</time></trkpt><trkpt lat="42.60953980837323" lon="12.55550225024324"><ele>224.0</ele><time>2026-05-02T14:11:09Z</time></trkpt><trkpt lat="42.60976558964107" lon="12.55542061228574"><ele>224.0</ele><time>2026-05-02T14:11:10Z</time></trkpt><trkpt lat="42.60999197745121" lon="12.555348827766979"><ele>230.5</ele><time>2026-05-02T14:11:11Z</time></trkpt><trkpt lat="42.61021680346318" lon="12.555283344123954"><ele>237.0</ele><time>2026-05-02T14:11:12Z</time></trkpt><trkpt lat="42.61044415389893" lon="12.55522845441543"><ele>237.0</ele><time>2026-05-02T14:11:13Z</time></trkpt><trkpt lat="42.61066060764666" lon="12.55518777939352"><ele>237.0</ele><time>2026-05-02T14:11:14Z</time></trkpt><trkpt lat="42.61087243336939" lon="12.555146302283996"><ele>237.0</ele><time>2026-05-02T14:11:15Z</time></trkpt><trkpt lat="42.6110798193414" lon="12.555102575593965"><ele>236.66666666666669</ele><time>2026-05-02T14:11:16Z</time></trkpt><trkpt lat="42.61128091808499" lon="12.555051600212638"><ele>236.33333333333334</ele><time>2026-05-02T14:11:17Z</time></trkpt><trkpt lat="42.61147040257058" lon="12.555003469508826"><ele>236.0</ele><time>2026-05-02T14:11:18Z</time></trkpt><trkpt lat="42.6116505027466" lon="12.554947923857409"><ele>236.0</ele><time>2026-05-02T14:11:19Z</time></trkpt><trkpt lat="42.611818210068854" lon="12.554884150718118"><ele>236.0</ele><time>2026-05-02T14:11:20Z</time></trkpt><trkpt lat="42.61199388139307" lon="12.55484127565629"><ele>236.0</ele><time>2026-05-02T14:11:21Z</time></trkpt><trkpt lat="42.612178127283656" lon="12.55481311136981"><ele>236.33333333333334</ele><time>2026-05-02T14:11:22Z</time></trkpt><trkpt lat="42.61236656008676" lon="12.554774041781494"><ele>236.66666666666669</ele><time>2026-05-02T14:11:23Z</time></trkpt><trkpt lat="42.61255654764131" lon="12.554734409887134"><ele>237.0</ele><time>2026-05-02T14:11:24Z</time></trkpt><trkpt lat="42.612746989510434" lon="12.55469715179662"><ele>236.66666666666669</ele><time>2026-05-02T14:11:25Z</time></trkpt><trkpt lat="42.61293966082622" lon="12.554663734044917"><ele>236.33333333333334</ele><time>2026-05-02T14:11:26Z</time></trkpt><trkpt lat="42.613133240955854" lon="12.554623313106676"><ele>236.0</ele><time>2026-05-02T14:11:27Z</time></trkpt><trkpt lat="42.61332312794595" lon="12.554588924118969"><ele>236.0</ele><time>2026-05-02T14:11:28Z</time></trkpt><trkpt lat="42.61351404489012" lon="12.554552122577665"><ele>236.0</ele><time>2026-05-02T14:11:29Z</time></trkpt><trkpt lat="42.613705137157865" lon="12.554515571922126"><ele>236.0</ele><time>2026-05-02T14:11:30Z</time></trkpt><trkpt lat="42.613897970034685" lon="12.55447714549918"><ele>236.33333333333334</ele><time>2026-05-02T14:11:31Z</time></trkpt><trkpt lat="42.61409104940769" lon="12.55443576712577"><ele>236.66666666666669</ele><time>2026-05-02T14:11:32Z</time></trkpt><trkpt lat="42.61428340924817" lon="12.554396751135185"><ele>237.0</ele><time>2026-05-02T14:11:33Z</time></trkpt><trkpt lat="42.61448061788099" lon="12.55435788553202"><ele>235.33333333333331</ele><time>2026-05-02T14:11:34Z</time></trkpt><trkpt lat="42.61467934585255" lon="12.55432515380074"><ele>233.66666666666666</ele><time>2026-05-02T14:11:35Z</time></trkpt><trkpt lat="42.61488151887029" lon="12.55429264294622"><ele>232.0</ele><time>2026-05-02T14:11:36Z</time></trkpt><trkpt lat="42.6150850488041" lon="12.554253582020268"><ele>232.0</ele><time>2026-05-02T14:11:37Z</time></trkpt><trkpt lat="42.61528970372067" lon="12.554212631039396"><ele>232.0</ele><time>2026-05-02T14:11:38Z</time></trkpt><trkpt lat="42.615494069977196" lon="12.554175875383836"><ele>232.0</ele><time>2026-05-02T14:11:39Z</time></trkpt><trkpt lat="42.61570193513433" lon="12.554134629595145"><ele>235.66666666666666</ele><time>2026-05-02T14:11:40Z</time></trkpt><trkpt lat="42.61590855774082" lon="12.554102585857333"><ele>239.33333333333331</ele><time>2026-05-02T14:11:41Z</time></trkpt><trkpt lat="42.61612295866065" lon="12.554062012218491"><ele>243.0</ele><time>2026-05-02T14:11:42Z</time></trkpt><trkpt lat="42.61633857150364" lon="12.55401956406207"><ele>247.33333333333331</ele><time>2026-05-02T14:11:43Z</time></trkpt><trkpt lat="42.616556168697606" lon="12.5539796380414"><ele>251.66666666666666</ele><time>2026-05-02T14:11:44Z</time></trkpt><trkpt lat="42.616774313576684" lon="12.553941206479319"><ele>256.0</ele><time>2026-05-02T14:11:45Z</time></trkpt><trkpt lat="42.61699637595976" lon="12.553900557216718"><ele>258.5</ele><time>2026-05-02T14:11:46Z</time></trkpt><trkpt lat="42.6172188082272" lon="12.55385724262935"><ele>261.0</ele><time>2026-05-02T14:11:47Z</time></trkpt><trkpt lat="42.617443857318705" lon="12.553811561440945"><ele>261.0</ele><time>2026-05-02T14:11:48Z</time></trkpt><trkpt lat="42.617668887003354" lon="12.553759123858251"><ele>261.0</ele><time>2026-05-02T14:11:49Z</time></trkpt><trkpt lat="42.61789512221713" lon="12.553723830432713"><ele>270.0</ele><time>2026-05-02T14:11:50Z</time></trkpt><trkpt lat="42.61811987275796" lon="12.553669993838339"><ele>279.0</ele><time>2026-05-02T14:11:51Z</time></trkpt><trkpt lat="42.61834509310598" lon="12.553611722173937"><ele>279.0</ele><time>2026-05-02T14:11:52Z</time></trkpt><trkpt lat="42.618567448501736" lon="12.55355284204819"><ele>279.0</ele><time>2026-05-02T14:11:53Z</time></trkpt><trkpt lat="42.61878623697738" lon="12.553483268056512"><ele>279.3333333333333</ele><time>2026-05-02T14:11:54Z</time></trkpt><trkpt lat="42.61900515962529" lon="12.553413752365142"><ele>279.66666666666663</ele><time>2026-05-02T14:11:55Z</time></trkpt><trkpt lat="42.619222359635486" lon="12.5533415370802"><ele>280.0</ele><time>2026-05-02T14:11:56Z</time></trkpt><trkpt lat="42.61943713857634" lon="12.553265270216027"><ele>280.3333333333333</ele><time>2026-05-02T14:11:57Z</time></trkpt><trkpt lat="42.61965050423796" lon="12.553185595200555"><ele>280.6666666666667</ele><time>2026-05-02T14:11:58Z</time></trkpt><trkpt lat="42.619859934704415" lon="12.553105188874367"><ele>281.0</ele><time>2026-05-02T14:11:59Z</time></trkpt><trkpt lat="42.62006657829132" lon="12.553020107042412"><ele>281.0</ele><time>2026-05-02T14:12:00Z</time></trkpt><trkpt lat="42.62025952012312" lon="12.552935542930843"><ele>281.0</ele><time>2026-05-02T14:12:01Z</time></trkpt><trkpt lat="42.62044089165833" lon="12.552854040792138"><ele>281.0</ele><time>2026-05-02T14:12:02Z</time></trkpt><trkpt lat="42.620601995899044" lon="12.552780186954225"><ele>284.0</ele><time>2026-05-02T14:12:03Z</time></trkpt><trkpt lat="42.62075064338518" lon="12.552711002666857"><ele>287.0</ele><time>2026-05-02T14:12:04Z</time></trkpt><trkpt lat="42.62089374408259" lon="12.552644400144551"><ele>290.0</ele><time>2026-05-02T14:12:05Z</time></trkpt><trkpt lat="42.62103098442117" lon="12.552580070269947"><ele>288.5</ele><time>2026-05-02T14:12:06Z</time></trkpt><trkpt lat="42.621153707981755" lon="12.55252251738194"><ele>287.0</ele><time>2026-05-02T14:12:07Z</time></trkpt><trkpt lat="42.621264868585456" lon="12.552470387158708"><ele>285.5</ele><time>2026-05-02T14:12:08Z</time></trkpt><trkpt lat="42.62136435768009" lon="12.552432424076864"><ele>284.0</ele><time>2026-05-02T14:12:09Z</time></trkpt><trkpt lat="42.621476385030206" lon="12.552447737587554"><ele>284.0</ele><time>2026-05-02T14:12:10Z</time></trkpt><trkpt lat="42.62158869881249" lon="12.55240441106783"><ele>284.0</ele><time>2026-05-02T14:12:11Z</time></trkpt><trkpt lat="42.621707553751044" lon="12.552305363209136"><ele>284.0</ele><time>2026-05-02T14:12:12Z</time></trkpt><trkpt lat="42.6218434794426" lon="12.55224520928281"><ele>284.0</ele><time>2026-05-02T14:12:13Z</time></trkpt><trkpt lat="42.62198100249103" lon="12.552190430679985"><ele>284.6666666666667</ele><time>2026-05-02T14:12:14Z</time></trkpt><trkpt lat="42.62212354132423" lon="12.552125632005408"><ele>285.3333333333333</ele><time>2026-05-02T14:12:15Z</time></trkpt><trkpt lat="42.62227273548827" lon="12.5520559406186"><ele>286.0</ele><time>2026-05-02T14:12:16Z</time></trkpt><trkpt lat="42.62243081522045" lon="12.55198019823291"><ele>286.0</ele><time>2026-05-02T14:12:17Z</time></trkpt><trkpt lat="42.62259936679545" lon="12.551899663998796"><ele>286.0</ele><time>2026-05-02T14:12:18Z</time></trkpt><trkpt lat="42.62276846593576" lon="12.5518203583824"><ele>286.0</ele><time>2026-05-02T14:12:19Z</time></trkpt><trkpt lat="42.622952546964086" lon="12.55173069510082"><ele>285.0</ele><time>2026-05-02T14:12:20Z</time></trkpt><trkpt lat="42.623148226898934" lon="12.551637768349645"><ele>284.0</ele><time>2026-05-02T14:12:21Z</time></trkpt><trkpt lat="42.62335514038684" lon="12.551540798004648"><ele>283.0</ele><time>2026-05-02T14:12:22Z</time></trkpt><trkpt lat="42.6235645822812" lon="12.551441375746117"><ele>287.66666666666663</ele><time>2026-05-02T14:12:23Z</time></trkpt><trkpt lat="42.62376818104629" lon="12.551345434751294"><ele>292.3333333333333</ele><time>2026-05-02T14:12:24Z</time></trkpt><trkpt lat="42.62397827626756" lon="12.551248720633332"><ele>297.0</ele><time>2026-05-02T14:12:25Z</time></trkpt><trkpt lat="42.62419310966303" lon="12.551147866185559"><ele>302.5</ele><time>2026-05-02T14:12:26Z</time></trkpt><trkpt lat="42.62440745226589" lon="12.551052869754376"><ele>308.0</ele><time>2026-05-02T14:12:27Z</time></trkpt><trkpt lat="42.62462280555857" lon="12.550953944510233"><ele>315.0</ele><time>2026-05-02T14:12:28Z</time></trkpt><trkpt lat="42.62483906066844" lon="12.550861403045317"><ele>322.0</ele><time>2026-05-02T14:12:29Z</time></trkpt><trkpt lat="42.62506226715536" lon="12.550765205085566"><ele>322.0</ele><time>2026-05-02T14:12:30Z</time></trkpt><trkpt lat="42.62530503929522" lon="12.550662415290244"><ele>322.0</ele><time>2026-05-02T14:12:31.02Z</time></trkpt><trkpt lat="42.62555480801919" lon="12.550563424540863"><ele>329.5</ele><time>2026-05-02T14:12:32.018Z</time></trkpt><trkpt lat="42.625816048271766" lon="12.550462629762018"><ele>337.0</ele><time>2026-05-02T14:12:33.02Z</time></trkpt><trkpt lat="42.62608662686404" lon="12.550359113088943"><ele>349.5</ele><time>2026-05-02T14:12:34.017Z</time></trkpt><trkpt lat="42.62635996202689" lon="12.550257475666468"><ele>362.0</ele><time>2026-05-02T14:12:35.019Z</time></trkpt><trkpt lat="42.62662138389109" lon="12.55012816854956"><ele>347.0</ele><time>2026-05-02T14:12:36.018Z</time></trkpt><trkpt lat="42.63514438182361" lon="12.545899311092258"><ele>347.0</ele><time>2026-05-02T14:13:10Z</time></trkpt><trkpt lat="42.63539606707075" lon="12.545765414609601"><ele>347.0</ele><time>2026-05-02T14:13:11Z</time></trkpt><trkpt lat="42.63561838822311" lon="12.545625641762175"><ele>347.0</ele><time>2026-05-02T14:13:12Z</time></trkpt><trkpt lat="42.635867465537146" lon="12.545491258551618"><ele>347.0</ele><time>2026-05-02T14:13:13Z</time></trkpt><trkpt lat="42.636115852753086" lon="12.545367925201276"><ele>346.5</ele><time>2026-05-02T14:13:14Z</time></trkpt><trkpt lat="42.6363599697755" lon="12.545229054170525"><ele>346.0</ele><time>2026-05-02T14:13:15Z</time></trkpt><trkpt lat="42.63660217814195" lon="12.545088965062261"><ele>346.0</ele><time>2026-05-02T14:13:16Z</time></trkpt><trkpt lat="42.636844755704026" lon="12.544945582245377"><ele>346.0</ele><time>2026-05-02T14:13:17Z</time></trkpt><trkpt lat="42.637078260533926" lon="12.544802293618396"><ele>345.5</ele><time>2026-05-02T14:13:18Z</time></trkpt><trkpt lat="42.637317023620795" lon="12.544646419935285"><ele>345.0</ele><time>2026-05-02T14:13:19Z</time></trkpt><trkpt lat="42.63755046110642" lon="12.544484031868176"><ele>345.0</ele><time>2026-05-02T14:13:20Z</time></trkpt><trkpt lat="42.63778253034835" lon="12.544319199520459"><ele>345.0</ele><time>2026-05-02T14:13:21Z</time></trkpt><trkpt lat="42.6380154491943" lon="12.544147184429999"><ele>345.5</ele><time>2026-05-02T14:13:22Z</time></trkpt><trkpt lat="42.638246699984286" lon="12.54397395651557"><ele>346.0</ele><time>2026-05-02T14:13:23Z</time></trkpt><trkpt lat="42.638479794334295" lon="12.543795523931957"><ele>344.5</ele><time>2026-05-02T14:13:24Z</time></trkpt><trkpt lat="42.63870999151729" lon="12.543614922079744"><ele>343.0</ele><time>2026-05-02T14:13:25Z</time></trkpt><trkpt lat="42.63893579128408" lon="12.543427077205859"><ele>343.0</ele><time>2026-05-02T14:13:26Z</time></trkpt><trkpt lat="42.639164852202825" lon="12.543235505388305"><ele>343.0</ele><time>2026-05-02T14:13:27Z</time></trkpt><trkpt lat="42.63939132942396" lon="12.543042597021927"><ele>342.0</ele><time>2026-05-02T14:13:28Z</time></trkpt><trkpt lat="42.63961901357568" lon="12.542847955958916"><ele>341.0</ele><time>2026-05-02T14:13:29Z</time></trkpt><trkpt lat="42.63984895451025" lon="12.542653074122848"><ele>341.0</ele><time>2026-05-02T14:13:30Z</time></trkpt><trkpt lat="42.640078685245776" lon="12.542462679997039"><ele>341.0</ele><time>2026-05-02T14:13:31Z</time></trkpt><trkpt lat="42.6403154566671" lon="12.542272673893898"><ele>340.5</ele><time>2026-05-02T14:13:32Z</time></trkpt><trkpt lat="42.64054739453713" lon="12.542080140135367"><ele>340.0</ele><time>2026-05-02T14:13:33Z</time></trkpt><trkpt lat="42.640778589138726" lon="12.541879763678644"><ele>340.0</ele><time>2026-05-02T14:13:34Z</time></trkpt><trkpt lat="42.64101248538762" lon="12.541681651597942"><ele>340.0</ele><time>2026-05-02T14:13:35Z</time></trkpt><trkpt lat="42.64124500644866" lon="12.541481583067986"><ele>340.5</ele><time>2026-05-02T14:13:36Z</time></trkpt><trkpt lat="42.6414820608469" lon="12.541285476354469"><ele>341.0</ele><time>2026-05-02T14:13:37Z</time></trkpt><trkpt lat="42.64171841442789" lon="12.541099480534644"><ele>341.0</ele><time>2026-05-02T14:13:38Z</time></trkpt><trkpt lat="42.64195959119606" lon="12.540916234977335"><ele>341.0</ele><time>2026-05-02T14:13:39Z</time></trkpt><trkpt lat="42.64220003804412" lon="12.540738108153015"><ele>342.5</ele><time>2026-05-02T14:13:40Z</time></trkpt><trkpt lat="42.642445408791374" lon="12.54056881634175"><ele>344.0</ele><time>2026-05-02T14:13:41Z</time></trkpt><trkpt lat="42.64268940846627" lon="12.540402439832182"><ele>343.0</ele><time>2026-05-02T14:13:42Z</time></trkpt><trkpt lat="42.642935196427516" lon="12.540239351232517"><ele>342.0</ele><time>2026-05-02T14:13:43Z</time></trkpt><trkpt lat="42.64318107487765" lon="12.54007865365172"><ele>342.0</ele><time>2026-05-02T14:13:44Z</time></trkpt><trkpt lat="42.64342931577652" lon="12.539920811091202"><ele>342.0</ele><time>2026-05-02T14:13:45Z</time></trkpt><trkpt lat="42.643678618382005" lon="12.539774645313848"><ele>340.5</ele><time>2026-05-02T14:13:46Z</time></trkpt><trkpt lat="42.64393363353324" lon="12.539632692115646"><ele>339.0</ele><time>2026-05-02T14:13:47Z</time></trkpt><trkpt lat="42.64418897913261" lon="12.53950021016634"><ele>339.0</ele><time>2026-05-02T14:13:48Z</time></trkpt><trkpt lat="42.644446256372774" lon="12.539373043484112"><ele>339.0</ele><time>2026-05-02T14:13:49Z</time></trkpt><trkpt lat="42.6447025376004" lon="12.539246678817701"><ele>340.0</ele><time>2026-05-02T14:13:50Z</time></trkpt><trkpt lat="42.6449616126531" lon="12.539127720753346"><ele>341.0</ele><time>2026-05-02T14:13:51Z</time></trkpt><trkpt lat="42.64522328152042" lon="12.539009113929259"><ele>341.0</ele><time>2026-05-02T14:13:52Z</time></trkpt><trkpt lat="42.645487575217054" lon="12.538898297892224"><ele>341.0</ele><time>2026-05-02T14:13:53Z</time></trkpt><trkpt lat="42.64574962517166" lon="12.53878585266462"><ele>339.0</ele><time>2026-05-02T14:13:54Z</time></trkpt><trkpt lat="42.64601085582798" lon="12.538674603420532"><ele>337.0</ele><time>2026-05-02T14:13:55Z</time></trkpt><trkpt lat="42.646275723347586" lon="12.538561965506835"><ele>337.0</ele><time>2026-05-02T14:13:56Z</time></trkpt><trkpt lat="42.64653690353593" lon="12.538451453522734"><ele>337.0</ele><time>2026-05-02T14:13:57Z</time></trkpt><trkpt lat="42.64679890317257" lon="12.538344049127282"><ele>337.5</ele><time>2026-05-02T14:13:58Z</time></trkpt><trkpt lat="42.64705811598687" lon="12.538233431296167"><ele>338.0</ele><time>2026-05-02T14:13:59Z</time></trkpt><trkpt lat="42.64731730351355" lon="12.53812299111899"><ele>338.0</ele><time>2026-05-02T14:14:00Z</time></trkpt><trkpt lat="42.647574321440366" lon="12.538011460435122"><ele>338.0</ele><time>2026-05-02T14:14:01Z</time></trkpt><trkpt lat="42.64783898109383" lon="12.53789654211689"><ele>336.5</ele><time>2026-05-02T14:14:02Z</time></trkpt><trkpt lat="42.648097110885274" lon="12.537795666898969"><ele>335.0</ele><time>2026-05-02T14:14:03Z</time></trkpt><trkpt lat="42.64835539232801" lon="12.537690753795076"><ele>335.0</ele><time>2026-05-02T14:14:04Z</time></trkpt><trkpt lat="42.64861509775769" lon="12.537578547883975"><ele>335.0</ele><time>2026-05-02T14:14:05Z</time></trkpt><trkpt lat="42.64887548068364" lon="12.53746557793265"><ele>337.5</ele><time>2026-05-02T14:14:06Z</time></trkpt><trkpt lat="42.64913676078548" lon="12.537353789691677"><ele>340.0</ele><time>2026-05-02T14:14:07Z</time></trkpt><trkpt lat="42.64939881673592" lon="12.537238692313194"><ele>338.0</ele><time>2026-05-02T14:14:08Z</time></trkpt><trkpt lat="42.64966022148906" lon="12.537130065131143"><ele>336.0</ele><time>2026-05-02T14:14:09Z</time></trkpt><trkpt lat="42.64991824358045" lon="12.537026737238488"><ele>336.0</ele><time>2026-05-02T14:14:10Z</time></trkpt><trkpt lat="42.65017897379672" lon="12.536929300384887"><ele>336.0</ele><time>2026-05-02T14:14:11Z</time></trkpt><trkpt lat="42.650446124807075" lon="12.53683422312164"><ele>338.0</ele><time>2026-05-02T14:14:12Z</time></trkpt><trkpt lat="42.65071470779897" lon="12.536746981193406"><ele>340.0</ele><time>2026-05-02T14:14:13Z</time></trkpt><trkpt lat="42.65098356950923" lon="12.536680961365663"><ele>341.0</ele><time>2026-05-02T14:14:14Z</time></trkpt><trkpt lat="42.651255123331914" lon="12.536626286234844"><ele>342.0</ele><time>2026-05-02T14:14:15Z</time></trkpt><trkpt lat="42.65152876217955" lon="12.53659222823682"><ele>342.0</ele><time>2026-05-02T14:14:16Z</time></trkpt><trkpt lat="42.651806125538236" lon="12.53656900011511"><ele>342.0</ele><time>2026-05-02T14:14:17Z</time></trkpt><trkpt lat="42.652084464187716" lon="12.536561397113342"><ele>342.5</ele><time>2026-05-02T14:14:18Z</time></trkpt><trkpt lat="42.652359792089" lon="12.53656859271535"><ele>343.0</ele><time>2026-05-02T14:14:19Z</time></trkpt><trkpt lat="42.65263387791334" lon="12.536583245466824"><ele>340.0</ele><time>2026-05-02T14:14:20Z</time></trkpt><trkpt lat="42.65290581553509" lon="12.536614520846424"><ele>337.0</ele><time>2026-05-02T14:14:21Z</time></trkpt><trkpt lat="42.65317626200088" lon="12.536668623188396"><ele>337.0</ele><time>2026-05-02T14:14:22Z</time></trkpt><trkpt lat="42.653450508139564" lon="12.53673463791553"><ele>337.0</ele><time>2026-05-02T14:14:23Z</time></trkpt><trkpt lat="42.65372049780252" lon="12.53681613945565"><ele>331.5</ele><time>2026-05-02T14:14:24Z</time></trkpt><trkpt lat="42.65398599851174" lon="12.536909703644442"><ele>326.0</ele><time>2026-05-02T14:14:25Z</time></trkpt><trkpt lat="42.65425448233736" lon="12.537007938336279"><ele>326.5</ele><time>2026-05-02T14:14:26Z</time></trkpt><trkpt lat="42.65452224473521" lon="12.537111153230441"><ele>327.0</ele><time>2026-05-02T14:14:27Z</time></trkpt><trkpt lat="42.65479161864585" lon="12.537211639205674"><ele>327.0</ele><time>2026-05-02T14:14:28Z</time></trkpt><trkpt lat="42.655056696918024" lon="12.53730880397537"><ele>327.0</ele><time>2026-05-02T14:14:29Z</time></trkpt><trkpt lat="42.65531213492025" lon="12.537408596806081"><ele>325.5</ele><time>2026-05-02T14:14:30Z</time></trkpt><trkpt lat="42.6555871701708" lon="12.53750369532279"><ele>324.0</ele><time>2026-05-02T14:14:31Z</time></trkpt><trkpt lat="42.65585362488761" lon="12.53759081945099"><ele>324.0</ele><time>2026-05-02T14:14:32Z</time></trkpt><trkpt lat="42.65611762043259" lon="12.537680525450533"><ele>324.0</ele><time>2026-05-02T14:14:33Z</time></trkpt><trkpt lat="42.656379673919744" lon="12.5377714802153"><ele>322.5</ele><time>2026-05-02T14:14:34Z</time></trkpt><trkpt lat="42.656642530736725" lon="12.537867742301552"><ele>321.0</ele><time>2026-05-02T14:14:35Z</time></trkpt><trkpt lat="42.65690345226025" lon="12.537966330772694"><ele>322.0</ele><time>2026-05-02T14:14:36Z</time></trkpt><trkpt lat="42.65716387887239" lon="12.53806329345073"><ele>323.0</ele><time>2026-05-02T14:14:37Z</time></trkpt><trkpt lat="42.657425265203024" lon="12.53815857333037"><ele>323.0</ele><time>2026-05-02T14:14:38Z</time></trkpt><trkpt lat="42.65768775252495" lon="12.53825157752635"><ele>323.0</ele><time>2026-05-02T14:14:39Z</time></trkpt><trkpt lat="42.65794928135121" lon="12.53834389313619"><ele>322.0</ele><time>2026-05-02T14:14:40Z</time></trkpt><trkpt lat="42.65821358587024" lon="12.538432098072075"><ele>321.0</ele><time>2026-05-02T14:14:41Z</time></trkpt><trkpt lat="42.65847522671908" lon="12.538524648512238"><ele>321.0</ele><time>2026-05-02T14:14:42Z</time></trkpt><trkpt lat="42.658735687945295" lon="12.538623766457334"><ele>321.0</ele><time>2026-05-02T14:14:43Z</time></trkpt><trkpt lat="42.65899526383075" lon="12.538731600646514"><ele>321.0</ele><time>2026-05-02T14:14:44Z</time></trkpt><trkpt lat="42.65924818478571" lon="12.538856888543078"><ele>321.0</ele><time>2026-05-02T14:14:45Z</time></trkpt><trkpt lat="42.65949430249614" lon="12.539003431540836"><ele>321.0</ele><time>2026-05-02T14:14:46Z</time></trkpt><trkpt lat="42.65973485787873" lon="12.539163740483858"><ele>321.0</ele><time>2026-05-02T14:14:47Z</time></trkpt><trkpt lat="42.65997177711081" lon="12.539337845691772"><ele>321.0</ele><time>2026-05-02T14:14:48Z</time></trkpt><trkpt lat="42.66019898697234" lon="12.539526003330167"><ele>321.0</ele><time>2026-05-02T14:14:49Z</time></trkpt><trkpt lat="42.660416913160766" lon="12.53973011330544"><ele>321.5</ele><time>2026-05-02T14:14:50Z</time></trkpt><trkpt lat="42.66062841487382" lon="12.539947675923127"><ele>322.0</ele><time>2026-05-02T14:14:51Z</time></trkpt><trkpt lat="42.66083043336353" lon="12.540178336168763"><ele>319.5</ele><time>2026-05-02T14:14:52Z</time></trkpt><trkpt lat="42.661024640035656" lon="12.54042322472841"><ele>317.0</ele><time>2026-05-02T14:14:53Z</time></trkpt><trkpt lat="42.66120759754371" lon="12.54068183481178"><ele>317.0</ele><time>2026-05-02T14:14:54Z</time></trkpt><trkpt lat="42.661380572072474" lon="12.540958417644575"><ele>317.0</ele><time>2026-05-02T14:14:55Z</time></trkpt><trkpt lat="42.6615426814683" lon="12.541247857555588"><ele>317.5</ele><time>2026-05-02T14:14:56Z</time></trkpt><trkpt lat="42.661701803831875" lon="12.541542426467547"><ele>318.0</ele><time>2026-05-02T14:14:57Z</time></trkpt><trkpt lat="42.66186185557301" lon="12.541838789624759"><ele>318.5</ele><time>2026-05-02T14:14:58Z</time></trkpt><trkpt lat="42.66202263351941" lon="12.542137652305492"><ele>319.0</ele><time>2026-05-02T14:14:59Z</time></trkpt><trkpt lat="42.6621838310083" lon="12.54243624633182"><ele>319.0</ele><time>2026-05-02T14:15:00Z</time></trkpt><trkpt lat="42.66234658591615" lon="12.54273855219739"><ele>319.0</ele><time>2026-05-02T14:15:01Z</time></trkpt><trkpt lat="42.66250635153665" lon="12.543039052943389"><ele>321.0</ele><time>2026-05-02T14:15:02Z</time></trkpt><trkpt lat="42.66267399099594" lon="12.543339411710074"><ele>323.0</ele><time>2026-05-02T14:15:03Z</time></trkpt><trkpt lat="42.66284196436157" lon="12.543637524936342"><ele>325.0</ele><time>2026-05-02T14:15:04Z</time></trkpt><trkpt lat="42.66300132723163" lon="12.543941867474686"><ele>327.0</ele><time>2026-05-02T14:15:05Z</time></trkpt><trkpt lat="42.66317527000815" lon="12.544245350727717"><ele>327.0</ele><time>2026-05-02T14:15:06Z</time></trkpt><trkpt lat="42.6633403489774" lon="12.544549265135144"><ele>327.0</ele><time>2026-05-02T14:15:07Z</time></trkpt><trkpt lat="42.66350141694198" lon="12.54485593750927"><ele>323.5</ele><time>2026-05-02T14:15:08Z</time></trkpt><trkpt lat="42.663670416481864" lon="12.545162606973486"><ele>320.0</ele><time>2026-05-02T14:15:09Z</time></trkpt><trkpt lat="42.66383237969131" lon="12.545463173046633"><ele>320.0</ele><time>2026-05-02T14:15:10Z</time></trkpt><trkpt lat="42.663996269772355" lon="12.545764207695054"><ele>320.0</ele><time>2026-05-02T14:15:11Z</time></trkpt><trkpt lat="42.664159396484344" lon="12.546064670815348"><ele>321.0</ele><time>2026-05-02T14:15:12Z</time></trkpt><trkpt lat="42.66432793008202" lon="12.546363283161178"><ele>322.0</ele><time>2026-05-02T14:15:13Z</time></trkpt><trkpt lat="42.66449501831222" lon="12.546666039402442"><ele>320.0</ele><time>2026-05-02T14:15:14Z</time></trkpt><trkpt lat="42.66465738761896" lon="12.546965190864237"><ele>318.0</ele><time>2026-05-02T14:15:15Z</time></trkpt><trkpt lat="42.664823538991804" lon="12.547263152050574"><ele>318.0</ele><time>2026-05-02T14:15:16Z</time></trkpt><trkpt lat="42.664990279156164" lon="12.547561529242408"><ele>318.0</ele><time>2026-05-02T14:15:17Z</time></trkpt><trkpt lat="42.665151375391375" lon="12.547860966295113"><ele>317.5</ele><time>2026-05-02T14:15:18Z</time></trkpt><trkpt lat="42.66531653532729" lon="12.548159838922604"><ele>317.0</ele><time>2026-05-02T14:15:19Z</time></trkpt><trkpt lat="42.665480680629116" lon="12.548457538237605"><ele>317.0</ele><time>2026-05-02T14:15:20Z</time></trkpt><trkpt lat="42.66563622783983" lon="12.548751662476153"><ele>317.0</ele><time>2026-05-02T14:15:21Z</time></trkpt><trkpt lat="42.665802416373225" lon="12.549044113563392"><ele>317.0</ele><time>2026-05-02T14:15:22Z</time></trkpt><trkpt lat="42.66596267981158" lon="12.54933390847489"><ele>317.0</ele><time>2026-05-02T14:15:23Z</time></trkpt><trkpt lat="42.66612239961558" lon="12.54962012014721"><ele>316.5</ele><time>2026-05-02T14:15:24Z</time></trkpt><trkpt lat="42.66627942262553" lon="12.549902489945971"><ele>316.0</ele><time>2026-05-02T14:15:25Z</time></trkpt><trkpt lat="42.66643794868077" lon="12.55018208007193"><ele>316.5</ele><time>2026-05-02T14:15:26Z</time></trkpt><trkpt lat="42.666593459662366" lon="12.550462727402309"><ele>317.0</ele><time>2026-05-02T14:15:27Z</time></trkpt><trkpt lat="42.666755985797764" lon="12.550740824664578"><ele>317.0</ele><time>2026-05-02T14:15:28Z</time></trkpt><trkpt lat="42.66692631598234" lon="12.551012808691613"><ele>317.0</ele><time>2026-05-02T14:15:29Z</time></trkpt><trkpt lat="42.667103411827775" lon="12.551271443769588"><ele>316.5</ele><time>2026-05-02T14:15:30Z</time></trkpt><trkpt lat="42.66729320403226" lon="12.55151369065592"><ele>316.0</ele><time>2026-05-02T14:15:31Z</time></trkpt><trkpt lat="42.66749289394019" lon="12.55174387031898"><ele>316.0</ele><time>2026-05-02T14:15:32Z</time></trkpt><trkpt lat="42.66770728824522" lon="12.551956087796068"><ele>316.0</ele><time>2026-05-02T14:15:33Z</time></trkpt><trkpt lat="42.66792661827411" lon="12.552156734636013"><ele>315.0</ele><time>2026-05-02T14:15:34Z</time></trkpt><trkpt lat="42.66815624349128" lon="12.552336205161877"><ele>314.0</ele><time>2026-05-02T14:15:35Z</time></trkpt><trkpt lat="42.66839539023391" lon="12.552496036736692"><ele>313.5</ele><time>2026-05-02T14:15:36Z</time></trkpt><trkpt lat="42.66863874712731" lon="12.552644039308756"><ele>313.0</ele><time>2026-05-02T14:15:37Z</time></trkpt><trkpt lat="42.66888798038349" lon="12.55277624135924"><ele>312.0</ele><time>2026-05-02T14:15:38Z</time></trkpt><trkpt lat="42.66914759389856" lon="12.552883180047603"><ele>311.0</ele><time>2026-05-02T14:15:39Z</time></trkpt><trkpt lat="42.66940929355021" lon="12.552966425682099"><ele>309.0</ele><time>2026-05-02T14:15:40Z</time></trkpt><trkpt lat="42.66967620750531" lon="12.553027793966372"><ele>307.0</ele><time>2026-05-02T14:15:41Z</time></trkpt><trkpt lat="42.669946779132175" lon="12.55306609744677"><ele>307.0</ele><time>2026-05-02T14:15:42Z</time></trkpt><trkpt lat="42.67021941173241" lon="12.553086232614438"><ele>307.0</ele><time>2026-05-02T14:15:43Z</time></trkpt><trkpt lat="42.670491575602306" lon="12.55311098967271"><ele>307.0</ele><time>2026-05-02T14:15:44Z</time></trkpt><trkpt lat="42.670763956947205" lon="12.553135470545476"><ele>307.0</ele><time>2026-05-02T14:15:45Z</time></trkpt><trkpt lat="42.671037595298955" lon="12.553166988201754"><ele>306.5</ele><time>2026-05-02T14:15:46Z</time></trkpt><trkpt lat="42.67130911221905" lon="12.553198643308953"><ele>306.0</ele><time>2026-05-02T14:15:47Z</time></trkpt><trkpt lat="42.671574093626084" lon="12.553232829906252"><ele>306.0</ele><time>2026-05-02T14:15:48Z</time></trkpt><trkpt lat="42.67184428389735" lon="12.553264070182223"><ele>306.0</ele><time>2026-05-02T14:15:49Z</time></trkpt><trkpt lat="42.67211232810458" lon="12.55329643812181"><ele>305.5</ele><time>2026-05-02T14:15:50Z</time></trkpt><trkpt lat="42.672381468856535" lon="12.553324709303615"><ele>305.0</ele><time>2026-05-02T14:15:51Z</time></trkpt><trkpt lat="42.672649886322276" lon="12.553351694905295"><ele>304.5</ele><time>2026-05-02T14:15:52Z</time></trkpt><trkpt lat="42.672918714618426" lon="12.553373530809601"><ele>304.0</ele><time>2026-05-02T14:15:53Z</time></trkpt><trkpt lat="42.67318691875687" lon="12.5534000605813"><ele>304.0</ele><time>2026-05-02T14:15:54Z</time></trkpt><trkpt lat="42.67345233588859" lon="12.553430035673273"><ele>304.0</ele><time>2026-05-02T14:15:55Z</time></trkpt><trkpt lat="42.67371875041788" lon="12.553459614960122"><ele>302.5</ele><time>2026-05-02T14:15:56Z</time></trkpt><trkpt lat="42.67398821892409" lon="12.553493857681866"><ele>301.0</ele><time>2026-05-02T14:15:57Z</time></trkpt><trkpt lat="42.67425051196146" lon="12.553525875985036"><ele>300.0</ele><time>2026-05-02T14:15:58Z</time></trkpt><trkpt lat="42.67451612488351" lon="12.55356111814231"><ele>299.0</ele><time>2026-05-02T14:15:59Z</time></trkpt><trkpt lat="42.67478058465299" lon="12.553604427196602"><ele>299.0</ele><time>2026-05-02T14:16:00Z</time></trkpt><trkpt lat="42.67504372473165" lon="12.55364142895174"><ele>299.0</ele><time>2026-05-02T14:16:01Z</time></trkpt><trkpt lat="42.67530552419187" lon="12.553671766922665"><ele>298.5</ele><time>2026-05-02T14:16:02Z</time></trkpt><trkpt lat="42.67556512043158" lon="12.553698795709703"><ele>298.0</ele><time>2026-05-02T14:16:03Z</time></trkpt><trkpt lat="42.6758252036668" lon="12.553726957771575"><ele>297.0</ele><time>2026-05-02T14:16:04Z</time></trkpt><trkpt lat="42.676085197449964" lon="12.553755379327278"><ele>296.0</ele><time>2026-05-02T14:16:05Z</time></trkpt><trkpt lat="42.67634268666905" lon="12.553783482768912"><ele>295.0</ele><time>2026-05-02T14:16:06Z</time></trkpt><trkpt lat="42.67659800056637" lon="12.553811664126668"><ele>294.0</ele><time>2026-05-02T14:16:07Z</time></trkpt><trkpt lat="42.67685401761557" lon="12.553840123505326"><ele>294.0</ele><time>2026-05-02T14:16:08Z</time></trkpt><trkpt lat="42.67711054515737" lon="12.553861878906323"><ele>294.0</ele><time>2026-05-02T14:16:09Z</time></trkpt><trkpt lat="42.67736630108102" lon="12.553878982549465"><ele>294.0</ele><time>2026-05-02T14:16:10Z</time></trkpt><trkpt lat="42.67762140177608" lon="12.553890408846229"><ele>294.0</ele><time>2026-05-02T14:16:11Z</time></trkpt><trkpt lat="42.67787413137349" lon="12.553900565580715"><ele>294.0</ele><time>2026-05-02T14:16:12Z</time></trkpt><trkpt lat="42.67812778053006" lon="12.553912516124287"><ele>294.0</ele><time>2026-05-02T14:16:13Z</time></trkpt><trkpt lat="42.67838075037103" lon="12.553919777954787"><ele>294.5</ele><time>2026-05-02T14:16:14Z</time></trkpt><trkpt lat="42.67863545855686" lon="12.553923963904229"><ele>295.0</ele><time>2026-05-02T14:16:15Z</time></trkpt><trkpt lat="42.6788917591962" lon="12.553922281354879"><ele>295.0</ele><time>2026-05-02T14:16:16Z</time></trkpt><trkpt lat="42.679146293663976" lon="12.553920159407058"><ele>295.0</ele><time>2026-05-02T14:16:17Z</time></trkpt><trkpt lat="42.67940198025591" lon="12.553917139365513"><ele>294.5</ele><time>2026-05-02T14:16:18Z</time></trkpt><trkpt lat="42.679658617457115" lon="12.553915109791213"><ele>294.0</ele><time>2026-05-02T14:16:19Z</time></trkpt><trkpt lat="42.67991244150986" lon="12.55391237069005"><ele>294.0</ele><time>2026-05-02T14:16:20Z</time></trkpt><trkpt lat="42.68016671652675" lon="12.553912400154356"><ele>294.0</ele><time>2026-05-02T14:16:21Z</time></trkpt><trkpt lat="42.6804163532919" lon="12.553910567133153"><ele>294.0</ele><time>2026-05-02T14:16:22Z</time></trkpt><trkpt lat="42.68066632736691" lon="12.553909953457504"><ele>294.0</ele><time>2026-05-02T14:16:23Z</time></trkpt><trkpt lat="42.68091765729488" lon="12.55391174103667"><ele>294.0</ele><time>2026-05-02T14:16:24Z</time></trkpt><trkpt lat="42.68116615843907" lon="12.553911244855977"><ele>294.0</ele><time>2026-05-02T14:16:25Z</time></trkpt><trkpt lat="42.68141546226849" lon="12.553911589912738"><ele>294.0</ele><time>2026-05-02T14:16:26Z</time></trkpt><trkpt lat="42.68166506415249" lon="12.55391284671647"><ele>294.0</ele><time>2026-05-02T14:16:27Z</time></trkpt><trkpt lat="42.681915577190125" lon="12.553913785749193"><ele>293.0</ele><time>2026-05-02T14:16:28Z</time></trkpt><trkpt lat="42.68216649594692" lon="12.553910099861108"><ele>292.0</ele><time>2026-05-02T14:16:29Z</time></trkpt><trkpt lat="42.682415459136436" lon="12.553902880231583"><ele>292.0</ele><time>2026-05-02T14:16:30Z</time></trkpt><trkpt lat="42.68266589711904" lon="12.553898426235925"><ele>292.0</ele><time>2026-05-02T14:16:31Z</time></trkpt><trkpt lat="42.68291945845258" lon="12.553894192575976"><ele>291.0</ele><time>2026-05-02T14:16:32Z</time></trkpt><trkpt lat="42.683167045903936" lon="12.553892221905476"><ele>290.0</ele><time>2026-05-02T14:16:33Z</time></trkpt><trkpt lat="42.683419914120066" lon="12.553888075395802"><ele>291.5</ele><time>2026-05-02T14:16:34Z</time></trkpt><trkpt lat="42.68367275813062" lon="12.553885039417208"><ele>293.0</ele><time>2026-05-02T14:16:35Z</time></trkpt><trkpt lat="42.68392531346464" lon="12.553885245614154"><ele>293.0</ele><time>2026-05-02T14:16:36Z</time></trkpt><trkpt lat="42.68417815142478" lon="12.553885691288208"><ele>293.0</ele><time>2026-05-02T14:16:37Z</time></trkpt><trkpt lat="42.68443157887333" lon="12.553884949504083"><ele>294.5</ele><time>2026-05-02T14:16:38Z</time></trkpt><trkpt lat="42.684686505727925" lon="12.55388418051227"><ele>296.0</ele><time>2026-05-02T14:16:39Z</time></trkpt><trkpt lat="42.68494023959309" lon="12.553880009197297"><ele>296.0</ele><time>2026-05-02T14:16:40Z</time></trkpt><trkpt lat="42.685193606910474" lon="12.553874223178404"><ele>296.0</ele><time>2026-05-02T14:16:41Z</time></trkpt><trkpt lat="42.68544137593306" lon="12.553873895460404"><ele>296.0</ele><time>2026-05-02T14:16:42Z</time></trkpt><trkpt lat="42.685688213296736" lon="12.553870975825312"><ele>296.0</ele><time>2026-05-02T14:16:43Z</time></trkpt><trkpt lat="42.68593800949083" lon="12.553871685470721"><ele>294.5</ele><time>2026-05-02T14:16:44Z</time></trkpt><trkpt lat="42.68618407563217" lon="12.553872221234831"><ele>293.0</ele><time>2026-05-02T14:16:45Z</time></trkpt><trkpt lat="42.68643231811774" lon="12.553862421674184"><ele>293.0</ele><time>2026-05-02T14:16:46Z</time></trkpt><trkpt lat="42.686681788484954" lon="12.55385682238664"><ele>293.0</ele><time>2026-05-02T14:16:47Z</time></trkpt><trkpt lat="42.68692688488779" lon="12.553858541324765"><ele>293.5</ele><time>2026-05-02T14:16:48Z</time></trkpt><trkpt lat="42.68717324515871" lon="12.553858355579981"><ele>294.0</ele><time>2026-05-02T14:16:49Z</time></trkpt><trkpt lat="42.68741819392861" lon="12.553853262872275"><ele>294.0</ele><time>2026-05-02T14:16:50Z</time></trkpt><trkpt lat="42.68766296347774" lon="12.553846129142737"><ele>294.0</ele><time>2026-05-02T14:16:51Z</time></trkpt><trkpt lat="42.687906663562345" lon="12.553837081388348"><ele>296.0</ele><time>2026-05-02T14:16:52Z</time></trkpt><trkpt lat="42.68815117835279" lon="12.55383085549323"><ele>298.0</ele><time>2026-05-02T14:16:53Z</time></trkpt><trkpt lat="42.6883935784409" lon="12.553827027233366"><ele>300.0</ele><time>2026-05-02T14:16:54Z</time></trkpt><trkpt lat="42.68863898771401" lon="12.553828609586434"><ele>302.0</ele><time>2026-05-02T14:16:55Z</time></trkpt><trkpt lat="42.68888137462927" lon="12.553819015103743"><ele>302.0</ele><time>2026-05-02T14:16:56Z</time></trkpt><trkpt lat="42.68912518580474" lon="12.55381064119523"><ele>302.0</ele><time>2026-05-02T14:16:57Z</time></trkpt><trkpt lat="42.68936707918359" lon="12.55380438637095"><ele>300.5</ele><time>2026-05-02T14:16:58Z</time></trkpt><trkpt lat="42.68960884224005" lon="12.553790727322484"><ele>299.0</ele><time>2026-05-02T14:16:59Z</time></trkpt><trkpt lat="42.689849552252504" lon="12.553779107943589"><ele>299.0</ele><time>2026-05-02T14:17:00Z</time></trkpt><trkpt lat="42.69009246592754" lon="12.553769126461683"><ele>299.0</ele><time>2026-05-02T14:17:01Z</time></trkpt><trkpt lat="42.690333043633494" lon="12.553758293898607"><ele>296.0</ele><time>2026-05-02T14:17:02Z</time></trkpt><trkpt lat="42.69057424454078" lon="12.553756552213635"><ele>293.0</ele><time>2026-05-02T14:17:03Z</time></trkpt><trkpt lat="42.69082322324475" lon="12.553750187690795"><ele>293.0</ele><time>2026-05-02T14:17:04Z</time></trkpt><trkpt lat="42.69107424681553" lon="12.553742840026514"><ele>293.0</ele><time>2026-05-02T14:17:05Z</time></trkpt><trkpt lat="42.6913199659607" lon="12.553737976393469"><ele>292.5</ele><time>2026-05-02T14:17:06Z</time></trkpt><trkpt lat="42.6915659149088" lon="12.55373173451017"><ele>292.0</ele><time>2026-05-02T14:17:07Z</time></trkpt><trkpt lat="42.69181462353572" lon="12.5537214558523"><ele>292.5</ele><time>2026-05-02T14:17:08Z</time></trkpt><trkpt lat="42.69206375661793" lon="12.553709711594127"><ele>293.0</ele><time>2026-05-02T14:17:09Z</time></trkpt><trkpt lat="42.69231254343059" lon="12.553700304997385"><ele>290.5</ele><time>2026-05-02T14:17:10Z</time></trkpt><trkpt lat="42.69256349648519" lon="12.553688519839888"><ele>288.0</ele><time>2026-05-02T14:17:11Z</time></trkpt><trkpt lat="42.692813636315556" lon="12.553678337461713"><ele>288.0</ele><time>2026-05-02T14:17:12Z</time></trkpt><trkpt lat="42.69306333985141" lon="12.553670708779899"><ele>288.0</ele><time>2026-05-02T14:17:13Z</time></trkpt><trkpt lat="42.693313110524066" lon="12.553664177658066"><ele>288.0</ele><time>2026-05-02T14:17:14Z</time></trkpt><trkpt lat="42.69356080495114" lon="12.553657625952253"><ele>288.0</ele><time>2026-05-02T14:17:15Z</time></trkpt><trkpt lat="42.69381059749439" lon="12.553648354712658"><ele>287.0</ele><time>2026-05-02T14:17:16Z</time></trkpt><trkpt lat="42.694058021415294" lon="12.553644565724232"><ele>286.0</ele><time>2026-05-02T14:17:17Z</time></trkpt><trkpt lat="42.694306328192155" lon="12.553639413183916"><ele>289.0</ele><time>2026-05-02T14:17:18Z</time></trkpt><trkpt lat="42.694554173592216" lon="12.553633478731408"><ele>292.0</ele><time>2026-05-02T14:17:19Z</time></trkpt><trkpt lat="42.69480237348593" lon="12.553623447642906"><ele>292.0</ele><time>2026-05-02T14:17:20Z</time></trkpt><trkpt lat="42.695054744155364" lon="12.553605579389428"><ele>292.0</ele><time>2026-05-02T14:17:21Z</time></trkpt><trkpt lat="42.69530489588788" lon="12.553590209782152"><ele>292.5</ele><time>2026-05-02T14:17:22Z</time></trkpt><trkpt lat="42.69555045559169" lon="12.553572836879045"><ele>293.0</ele><time>2026-05-02T14:17:23Z</time></trkpt><trkpt lat="42.695798605911556" lon="12.55355417778134"><ele>293.0</ele><time>2026-05-02T14:17:24Z</time></trkpt><trkpt lat="42.696045695027706" lon="12.553537688919366"><ele>293.0</ele><time>2026-05-02T14:17:25Z</time></trkpt><trkpt lat="42.69629335825452" lon="12.55352079871318"><ele>292.5</ele><time>2026-05-02T14:17:26Z</time></trkpt><trkpt lat="42.69653990529666" lon="12.553499492798416"><ele>292.0</ele><time>2026-05-02T14:17:27Z</time></trkpt><trkpt lat="42.696785598093506" lon="12.553472229326395"><ele>290.5</ele><time>2026-05-02T14:17:28Z</time></trkpt><trkpt lat="42.69702956052456" lon="12.553442285494036"><ele>289.0</ele><time>2026-05-02T14:17:29Z</time></trkpt><trkpt lat="42.697272134529356" lon="12.553410636334133"><ele>289.0</ele><time>2026-05-02T14:17:30Z</time></trkpt><trkpt lat="42.697513033400995" lon="12.553380403781835"><ele>289.0</ele><time>2026-05-02T14:17:31Z</time></trkpt><trkpt lat="42.69775444088791" lon="12.553353508657802"><ele>287.5</ele><time>2026-05-02T14:17:32Z</time></trkpt><trkpt lat="42.69799465491059" lon="12.553325115189962"><ele>286.0</ele><time>2026-05-02T14:17:33Z</time></trkpt><trkpt lat="42.69823531618166" lon="12.553295379235477"><ele>286.0</ele><time>2026-05-02T14:17:34Z</time></trkpt><trkpt lat="42.69847682213268" lon="12.5532638859512"><ele>286.0</ele><time>2026-05-02T14:17:35Z</time></trkpt><trkpt lat="42.69871940640273" lon="12.553228747689086"><ele>285.0</ele><time>2026-05-02T14:17:36Z</time></trkpt><trkpt lat="42.69896331253748" lon="12.553193101803227"><ele>284.0</ele><time>2026-05-02T14:17:37Z</time></trkpt><trkpt lat="42.69920714449676" lon="12.553161151314544"><ele>282.5</ele><time>2026-05-02T14:17:38Z</time></trkpt><trkpt lat="42.699453075253615" lon="12.553125343206014"><ele>281.0</ele><time>2026-05-02T14:17:39Z</time></trkpt><trkpt lat="42.699701128418496" lon="12.553092921401898"><ele>281.0</ele><time>2026-05-02T14:17:40Z</time></trkpt><trkpt lat="42.69995040311083" lon="12.553058635919143"><ele>281.0</ele><time>2026-05-02T14:17:41Z</time></trkpt><trkpt lat="42.70019576959796" lon="12.553028859243337"><ele>281.0</ele><time>2026-05-02T14:17:42Z</time></trkpt><trkpt lat="42.700436240024345" lon="12.552993711152327"><ele>281.0</ele><time>2026-05-02T14:17:43Z</time></trkpt><trkpt lat="42.700678521403965" lon="12.55295885785148"><ele>281.0</ele><time>2026-05-02T14:17:44Z</time></trkpt><trkpt lat="42.700924997077934" lon="12.552923398856052"><ele>281.0</ele><time>2026-05-02T14:17:45Z</time></trkpt><trkpt lat="42.70117423776893" lon="12.552887507972486"><ele>280.0</ele><time>2026-05-02T14:17:46Z</time></trkpt><trkpt lat="42.70142240335401" lon="12.552851186901691"><ele>279.0</ele><time>2026-05-02T14:17:47Z</time></trkpt><trkpt lat="42.701673638451666" lon="12.552819128751812"><ele>280.5</ele><time>2026-05-02T14:17:48Z</time></trkpt><trkpt lat="42.701926671597185" lon="12.55278305842385"><ele>282.0</ele><time>2026-05-02T14:17:49Z</time></trkpt><trkpt lat="42.702181327642805" lon="12.55274365092092"><ele>282.0</ele><time>2026-05-02T14:17:50Z</time></trkpt><trkpt lat="42.70243564787212" lon="12.552709000226413"><ele>282.0</ele><time>2026-05-02T14:17:51Z</time></trkpt><trkpt lat="42.70269217066723" lon="12.552670927510814"><ele>280.0</ele><time>2026-05-02T14:17:52Z</time></trkpt><trkpt lat="42.70294811180774" lon="12.552634531364987"><ele>278.0</ele><time>2026-05-02T14:17:53Z</time></trkpt><trkpt lat="42.70320488909286" lon="12.552599472127994"><ele>278.0</ele><time>2026-05-02T14:17:54Z</time></trkpt><trkpt lat="42.70346105266398" lon="12.552561785741396"><ele>278.0</ele><time>2026-05-02T14:17:55Z</time></trkpt><trkpt lat="42.70371587820366" lon="12.55253249185479"><ele>279.5</ele><time>2026-05-02T14:17:56Z</time></trkpt><trkpt lat="42.70396666148042" lon="12.552505909768835"><ele>281.0</ele><time>2026-05-02T14:17:57Z</time></trkpt><trkpt lat="42.704221461704805" lon="12.552477638847279"><ele>280.5</ele><time>2026-05-02T14:17:58Z</time></trkpt><trkpt lat="42.704470943954135" lon="12.552452201636441"><ele>280.0</ele><time>2026-05-02T14:17:59Z</time></trkpt><trkpt lat="42.70472169255081" lon="12.552423983121836"><ele>280.0</ele><time>2026-05-02T14:18:00Z</time></trkpt><trkpt lat="42.70497066748953" lon="12.552394594053478"><ele>280.0</ele><time>2026-05-02T14:18:01Z</time></trkpt><trkpt lat="42.705221005872666" lon="12.552371635439243"><ele>279.0</ele><time>2026-05-02T14:18:02Z</time></trkpt><trkpt lat="42.70546748038718" lon="12.552340435255374"><ele>278.0</ele><time>2026-05-02T14:18:03Z</time></trkpt><trkpt lat="42.70570545911768" lon="12.552306665067041"><ele>278.0</ele><time>2026-05-02T14:18:04Z</time></trkpt><trkpt lat="42.7059483569713" lon="12.552275372740166"><ele>278.0</ele><time>2026-05-02T14:18:05Z</time></trkpt><trkpt lat="42.70618463974243" lon="12.552238450218786"><ele>279.0</ele><time>2026-05-02T14:18:06Z</time></trkpt><trkpt lat="42.706429144988405" lon="12.552216261644958"><ele>280.0</ele><time>2026-05-02T14:18:07Z</time></trkpt><trkpt lat="42.70667181380081" lon="12.552189313323796"><ele>277.0</ele><time>2026-05-02T14:18:08Z</time></trkpt><trkpt lat="42.70691408239886" lon="12.552163034166316"><ele>274.0</ele><time>2026-05-02T14:18:09Z</time></trkpt><trkpt lat="42.70715755985058" lon="12.552135293951189"><ele>274.0</ele><time>2026-05-02T14:18:10Z</time></trkpt><trkpt lat="42.707402273305604" lon="12.55210824530989"><ele>274.0</ele><time>2026-05-02T14:18:11Z</time></trkpt><trkpt lat="42.70764298573268" lon="12.552083016901783"><ele>272.0</ele><time>2026-05-02T14:18:12Z</time></trkpt><trkpt lat="42.70788414853939" lon="12.552055342629364"><ele>270.0</ele><time>2026-05-02T14:18:13Z</time></trkpt><trkpt lat="42.708127244193825" lon="12.552027479406414"><ele>268.0</ele><time>2026-05-02T14:18:14Z</time></trkpt><trkpt lat="42.7083689481201" lon="12.551993772287188"><ele>266.0</ele><time>2026-05-02T14:18:15Z</time></trkpt><trkpt lat="42.70861033649746" lon="12.551960619345866"><ele>266.0</ele><time>2026-05-02T14:18:16Z</time></trkpt><trkpt lat="42.708851307886455" lon="12.551930059023006"><ele>266.0</ele><time>2026-05-02T14:18:17Z</time></trkpt><trkpt lat="42.70908367733049" lon="12.551909388410527"><ele>266.0</ele><time>2026-05-02T14:18:18Z</time></trkpt><trkpt lat="42.70931811283792" lon="12.551882813010415"><ele>266.0</ele><time>2026-05-02T14:18:19Z</time></trkpt><trkpt lat="42.709547854193765" lon="12.551853664122678"><ele>268.0</ele><time>2026-05-02T14:18:20Z</time></trkpt><trkpt lat="42.70977803572391" lon="12.55182495566103"><ele>270.0</ele><time>2026-05-02T14:18:21Z</time></trkpt><trkpt lat="42.71000837866992" lon="12.551794677755455"><ele>270.0</ele><time>2026-05-02T14:18:22Z</time></trkpt><trkpt lat="42.710240162650514" lon="12.551768188941855"><ele>270.0</ele><time>2026-05-02T14:18:23Z</time></trkpt><trkpt lat="42.710468855655755" lon="12.551746442944552"><ele>269.5</ele><time>2026-05-02T14:18:24Z</time></trkpt><trkpt lat="42.71069829861332" lon="12.551720587368116"><ele>269.0</ele><time>2026-05-02T14:18:25Z</time></trkpt><trkpt lat="42.710927654465216" lon="12.551701534435288"><ele>263.5</ele><time>2026-05-02T14:18:26Z</time></trkpt><trkpt lat="42.711157900478035" lon="12.551693222469357"><ele>258.0</ele><time>2026-05-02T14:18:27Z</time></trkpt><trkpt lat="42.71138724348906" lon="12.551689513725744"><ele>258.0</ele><time>2026-05-02T14:18:28Z</time></trkpt><trkpt lat="42.71161602898705" lon="12.551700357635104"><ele>258.0</ele><time>2026-05-02T14:18:29Z</time></trkpt><trkpt lat="42.71184652126275" lon="12.55171815709804"><ele>256.6666666666667</ele><time>2026-05-02T14:18:30Z</time></trkpt><trkpt lat="42.712073387253554" lon="12.551744788993544"><ele>255.33333333333334</ele><time>2026-05-02T14:18:31Z</time></trkpt><trkpt lat="42.712286291006485" lon="12.551780022402177"><ele>254.0</ele><time>2026-05-02T14:18:32Z</time></trkpt><trkpt lat="42.71250473006317" lon="12.551820648165842"><ele>254.0</ele><time>2026-05-02T14:18:33Z</time></trkpt><trkpt lat="42.71272263969833" lon="12.551861530967559"><ele>254.0</ele><time>2026-05-02T14:18:34Z</time></trkpt><trkpt lat="42.71294664813155" lon="12.551891469843355"><ele>254.0</ele><time>2026-05-02T14:18:35Z</time></trkpt><trkpt lat="42.71317544630942" lon="12.551921330207405"><ele>259.5</ele><time>2026-05-02T14:18:36Z</time></trkpt><trkpt lat="42.71340488700996" lon="12.551955535586877"><ele>265.0</ele><time>2026-05-02T14:18:37Z</time></trkpt><trkpt lat="42.71364284485469" lon="12.551991351543132"><ele>262.0</ele><time>2026-05-02T14:18:38Z</time></trkpt><trkpt lat="42.71388855142244" lon="12.552021150221428"><ele>259.0</ele><time>2026-05-02T14:18:39Z</time></trkpt><trkpt lat="42.71413400485392" lon="12.552055535911984"><ele>259.0</ele><time>2026-05-02T14:18:40Z</time></trkpt><trkpt lat="42.71438185295453" lon="12.552092744631242"><ele>259.0</ele><time>2026-05-02T14:18:41Z</time></trkpt><trkpt lat="42.714630928148125" lon="12.55212981810678"><ele>263.0</ele><time>2026-05-02T14:18:42Z</time></trkpt><trkpt lat="42.71488147945968" lon="12.55216724516826"><ele>267.0</ele><time>2026-05-02T14:18:43Z</time></trkpt><trkpt lat="42.71513301237885" lon="12.552207192036974"><ele>269.0</ele><time>2026-05-02T14:18:44Z</time></trkpt><trkpt lat="42.71538614221469" lon="12.552236221670565"><ele>271.0</ele><time>2026-05-02T14:18:45Z</time></trkpt><trkpt lat="42.71564112030209" lon="12.552258316290231"><ele>271.0</ele><time>2026-05-02T14:18:46Z</time></trkpt><trkpt lat="42.715898590679075" lon="12.552266758957856"><ele>271.0</ele><time>2026-05-02T14:18:47Z</time></trkpt><trkpt lat="42.716154708660426" lon="12.552258639768008"><ele>267.0</ele><time>2026-05-02T14:18:48Z</time></trkpt><trkpt lat="42.716406259573084" lon="12.552228300502419"><ele>263.0</ele><time>2026-05-02T14:18:49Z</time></trkpt><trkpt lat="42.71665746102159" lon="12.552173784228886"><ele>263.0</ele><time>2026-05-02T14:18:50Z</time></trkpt><trkpt lat="42.71690124868856" lon="12.552102070032786"><ele>263.0</ele><time>2026-05-02T14:18:51Z</time></trkpt><trkpt lat="42.71713933654196" lon="12.552021707247421"><ele>260.0</ele><time>2026-05-02T14:18:52Z</time></trkpt><trkpt lat="42.7173883766228" lon="12.551917445855237"><ele>257.0</ele><time>2026-05-02T14:18:53Z</time></trkpt><trkpt lat="42.71763322805857" lon="12.551796060032284"><ele>255.0</ele><time>2026-05-02T14:18:54Z</time></trkpt><trkpt lat="42.71786922427334" lon="12.551665964088576"><ele>253.0</ele><time>2026-05-02T14:18:55Z</time></trkpt><trkpt lat="42.718092952205296" lon="12.551509288493293"><ele>253.0</ele><time>2026-05-02T14:18:56Z</time></trkpt><trkpt lat="42.71831757561576" lon="12.551354998473652"><ele>253.0</ele><time>2026-05-02T14:18:57Z</time></trkpt><trkpt lat="42.71854161855184" lon="12.551177661090586"><ele>251.5</ele><time>2026-05-02T14:18:58Z</time></trkpt><trkpt lat="42.71875360657498" lon="12.550985441253282"><ele>250.0</ele><time>2026-05-02T14:18:59Z</time></trkpt><trkpt lat="42.71896412152634" lon="12.550785751761419"><ele>250.0</ele><time>2026-05-02T14:19:00Z</time></trkpt><trkpt lat="42.71917103403517" lon="12.550583329095476"><ele>250.0</ele><time>2026-05-02T14:19:01Z</time></trkpt><trkpt lat="42.719384699028424" lon="12.550398866919577"><ele>248.5</ele><time>2026-05-02T14:19:02Z</time></trkpt><trkpt lat="42.7195949467854" lon="12.550197580234537"><ele>247.0</ele><time>2026-05-02T14:19:03Z</time></trkpt><trkpt lat="42.719801402222245" lon="12.550011318935363"><ele>247.0</ele><time>2026-05-02T14:19:04Z</time></trkpt><trkpt lat="42.720002851526004" lon="12.549803046233357"><ele>247.0</ele><time>2026-05-02T14:19:05Z</time></trkpt><trkpt lat="42.72019409476933" lon="12.549581588897512"><ele>246.0</ele><time>2026-05-02T14:19:06Z</time></trkpt><trkpt lat="42.72037581492243" lon="12.549346508364234"><ele>245.0</ele><time>2026-05-02T14:19:07Z</time></trkpt><trkpt lat="42.720542534502755" lon="12.54909142031075"><ele>245.0</ele><time>2026-05-02T14:19:08Z</time></trkpt><trkpt lat="42.720703995851366" lon="12.548833739973345"><ele>245.0</ele><time>2026-05-02T14:19:09Z</time></trkpt><trkpt lat="42.72084841409769" lon="12.548555712288266"><ele>244.0</ele><time>2026-05-02T14:19:10Z</time></trkpt><trkpt lat="42.720965090934754" lon="12.548273815583634"><ele>243.0</ele><time>2026-05-02T14:19:11Z</time></trkpt><trkpt lat="42.72109592490752" lon="12.548001198347578"><ele>245.5</ele><time>2026-05-02T14:19:12Z</time></trkpt><trkpt lat="42.721195864909724" lon="12.547710277718263"><ele>248.0</ele><time>2026-05-02T14:19:13Z</time></trkpt><trkpt lat="42.7213223811896" lon="12.547372065556115"><ele>248.0</ele><time>2026-05-02T14:19:14Z</time></trkpt><trkpt lat="42.72142800280925" lon="12.54705644976784"><ele>248.0</ele><time>2026-05-02T14:19:15Z</time></trkpt><trkpt lat="42.721521692417355" lon="12.546737785160927"><ele>247.5</ele><time>2026-05-02T14:19:16Z</time></trkpt><trkpt lat="42.721617400959424" lon="12.546415302088265"><ele>247.0</ele><time>2026-05-02T14:19:17Z</time></trkpt><trkpt lat="42.721715847348555" lon="12.546090376061944"><ele>249.0</ele><time>2026-05-02T14:19:18Z</time></trkpt><trkpt lat="42.721809446385386" lon="12.545767522348921"><ele>251.0</ele><time>2026-05-02T14:19:19Z</time></trkpt><trkpt lat="42.72191042431015" lon="12.545446299351878"><ele>242.0</ele><time>2026-05-02T14:19:20Z</time></trkpt><trkpt lat="42.721999614718655" lon="12.545130115902522"><ele>233.0</ele><time>2026-05-02T14:19:21Z</time></trkpt><trkpt lat="42.72208732975124" lon="12.544798507928691"><ele>233.0</ele><time>2026-05-02T14:19:22Z</time></trkpt><trkpt lat="42.722186988129245" lon="12.544486217458234"><ele>233.0</ele><time>2026-05-02T14:19:23Z</time></trkpt><trkpt lat="42.722277845729664" lon="12.544173533381565"><ele>233.0</ele><time>2026-05-02T14:19:24Z</time></trkpt><trkpt lat="42.7223660141171" lon="12.543867385953314"><ele>233.0</ele><time>2026-05-02T14:19:25Z</time></trkpt><trkpt lat="42.72244488530463" lon="12.543559345051317"><ele>233.0</ele><time>2026-05-02T14:19:26Z</time></trkpt><trkpt lat="42.72253359540943" lon="12.543301230824394"><ele>233.0</ele><time>2026-05-02T14:19:27Z</time></trkpt><trkpt lat="42.72262364805413" lon="12.5429932855024"><ele>232.5</ele><time>2026-05-02T14:19:28Z</time></trkpt><trkpt lat="42.722717055760775" lon="12.54268855624064"><ele>232.0</ele><time>2026-05-02T14:19:29Z</time></trkpt><trkpt lat="42.72281972007566" lon="12.54239725255716"><ele>231.5</ele><time>2026-05-02T14:19:30Z</time></trkpt><trkpt lat="42.72292811824275" lon="12.542111258585434"><ele>231.0</ele><time>2026-05-02T14:19:31Z</time></trkpt><trkpt lat="42.72304718988616" lon="12.541830561927265"><ele>231.0</ele><time>2026-05-02T14:19:32Z</time></trkpt><trkpt lat="42.72316564538101" lon="12.541553234882274"><ele>231.0</ele><time>2026-05-02T14:19:33Z</time></trkpt><trkpt lat="42.72328669837663" lon="12.54127996954743"><ele>231.5</ele><time>2026-05-02T14:19:34Z</time></trkpt><trkpt lat="42.723409803009766" lon="12.541017662429935"><ele>232.0</ele><time>2026-05-02T14:19:35Z</time></trkpt><trkpt lat="42.72353834668384" lon="12.540759853073615"><ele>231.33333333333331</ele><time>2026-05-02T14:19:36Z</time></trkpt><trkpt lat="42.72367269654996" lon="12.54051109459841"><ele>230.66666666666669</ele><time>2026-05-02T14:19:37Z</time></trkpt><trkpt lat="42.72380648622323" lon="12.5402759673173"><ele>230.0</ele><time>2026-05-02T14:19:38Z</time></trkpt><trkpt lat="42.72393744110297" lon="12.540061948083137"><ele>230.0</ele><time>2026-05-02T14:19:39Z</time></trkpt><trkpt lat="42.72406978910101" lon="12.539865133210295"><ele>230.0</ele><time>2026-05-02T14:19:40Z</time></trkpt><trkpt lat="42.724208199217735" lon="12.539666145828804"><ele>230.0</ele><time>2026-05-02T14:19:41Z</time></trkpt><trkpt lat="42.72434634279274" lon="12.539466886975575"><ele>231.0</ele><time>2026-05-02T14:19:42Z</time></trkpt><trkpt lat="42.72448620276286" lon="12.539268917927025"><ele>232.0</ele><time>2026-05-02T14:19:43Z</time></trkpt><trkpt lat="42.7246254373324" lon="12.539065660142349"><ele>233.0</ele><time>2026-05-02T14:19:44Z</time></trkpt><trkpt lat="42.72476531027457" lon="12.53886423535305"><ele>231.66666666666669</ele><time>2026-05-02T14:19:45Z</time></trkpt><trkpt lat="42.72490695850376" lon="12.53865806322706"><ele>230.33333333333331</ele><time>2026-05-02T14:19:46Z</time></trkpt><trkpt lat="42.72504477808592" lon="12.538444047357887"><ele>229.0</ele><time>2026-05-02T14:19:47Z</time></trkpt><trkpt lat="42.725194994951124" lon="12.538228265302143"><ele>230.5</ele><time>2026-05-02T14:19:48Z</time></trkpt><trkpt lat="42.725347630613435" lon="12.538007724802014"><ele>232.0</ele><time>2026-05-02T14:19:49Z</time></trkpt><trkpt lat="42.72550381271881" lon="12.53777578967765"><ele>232.0</ele><time>2026-05-02T14:19:50Z</time></trkpt><trkpt lat="42.725661054941575" lon="12.537533680716201"><ele>232.0</ele><time>2026-05-02T14:19:51Z</time></trkpt><trkpt lat="42.72583009014" lon="12.537283194480175"><ele>232.0</ele><time>2026-05-02T14:19:52Z</time></trkpt><trkpt lat="42.72600385119448" lon="12.537026738870102"><ele>232.0</ele><time>2026-05-02T14:19:53Z</time></trkpt><trkpt lat="42.72618162528224" lon="12.536755331808713"><ele>231.0</ele><time>2026-05-02T14:19:54Z</time></trkpt><trkpt lat="42.72635863991679" lon="12.536481193314822"><ele>230.0</ele><time>2026-05-02T14:19:55Z</time></trkpt><trkpt lat="42.72653972221516" lon="12.536175988402302"><ele>229.0</ele><time>2026-05-02T14:19:56Z</time></trkpt><trkpt lat="42.72668909820305" lon="12.535853277432967"><ele>228.0</ele><time>2026-05-02T14:19:57Z</time></trkpt><trkpt lat="42.72683221064906" lon="12.535515061627821"><ele>231.5</ele><time>2026-05-02T14:19:58Z</time></trkpt><trkpt lat="42.7269522817055" lon="12.535158736508505"><ele>235.0</ele><time>2026-05-02T14:19:59Z</time></trkpt><trkpt lat="42.7270562662738" lon="12.534794827795139"><ele>233.0</ele><time>2026-05-02T14:20:00Z</time></trkpt><trkpt lat="42.72716550685229" lon="12.534454371862212"><ele>231.0</ele><time>2026-05-02T14:20:01Z</time></trkpt><trkpt lat="42.72723754363013" lon="12.534097103094066"><ele>231.0</ele><time>2026-05-02T14:20:02Z</time></trkpt><trkpt lat="42.72730257196601" lon="12.533740109501109"><ele>231.0</ele><time>2026-05-02T14:20:03Z</time></trkpt><trkpt lat="42.727354619723386" lon="12.533383708702132"><ele>230.0</ele><time>2026-05-02T14:20:04Z</time></trkpt><trkpt lat="42.727395394450085" lon="12.53302389181241"><ele>229.0</ele><time>2026-05-02T14:20:05Z</time></trkpt><trkpt lat="42.727421518687144" lon="12.532658007273048"><ele>229.0</ele><time>2026-05-02T14:20:06Z</time></trkpt><trkpt lat="42.72742758003391" lon="12.532294756294698"><ele>229.0</ele><time>2026-05-02T14:20:07Z</time></trkpt><trkpt lat="42.72742106998891" lon="12.531930689578555"><ele>229.5</ele><time>2026-05-02T14:20:08Z</time></trkpt><trkpt lat="42.727404775086164" lon="12.531564149264979"><ele>230.0</ele><time>2026-05-02T14:20:09Z</time></trkpt><trkpt lat="42.72735103107247" lon="12.531176691864658"><ele>230.0</ele><time>2026-05-02T14:20:10Z</time></trkpt><trkpt lat="42.727309520274346" lon="12.530808317039307"><ele>230.0</ele><time>2026-05-02T14:20:11Z</time></trkpt><trkpt lat="42.727259427161115" lon="12.530444868681132"><ele>230.5</ele><time>2026-05-02T14:20:12Z</time></trkpt><trkpt lat="42.72720075944446" lon="12.530084878104889"><ele>231.0</ele><time>2026-05-02T14:20:13Z</time></trkpt><trkpt lat="42.72713704955505" lon="12.529720768973172"><ele>231.0</ele><time>2026-05-02T14:20:14Z</time></trkpt><trkpt lat="42.72707623750778" lon="12.529361717301391"><ele>231.0</ele><time>2026-05-02T14:20:15Z</time></trkpt><trkpt lat="42.727019924842345" lon="12.529002416206053"><ele>230.5</ele><time>2026-05-02T14:20:16Z</time></trkpt><trkpt lat="42.726963064418136" lon="12.528647272495101"><ele>230.0</ele><time>2026-05-02T14:20:17Z</time></trkpt><trkpt lat="42.72689506323681" lon="12.528285223910716"><ele>226.5</ele><time>2026-05-02T14:20:18Z</time></trkpt><trkpt lat="42.726843075887764" lon="12.527934476974789"><ele>223.0</ele><time>2026-05-02T14:20:19Z</time></trkpt><trkpt lat="42.72678635351965" lon="12.52757176060397"><ele>223.0</ele><time>2026-05-02T14:20:20Z</time></trkpt><trkpt lat="42.72672405173314" lon="12.527213531511983"><ele>223.0</ele><time>2026-05-02T14:20:21Z</time></trkpt><trkpt lat="42.72665649224218" lon="12.52685800864801"><ele>223.5</ele><time>2026-05-02T14:20:22Z</time></trkpt><trkpt lat="42.72658808768559" lon="12.526509394068691"><ele>224.0</ele><time>2026-05-02T14:20:23Z</time></trkpt><trkpt lat="42.726528309288" lon="12.526146078894724"><ele>224.0</ele><time>2026-05-02T14:20:24Z</time></trkpt><trkpt lat="42.72646736303149" lon="12.52578449981613"><ele>224.0</ele><time>2026-05-02T14:20:25Z</time></trkpt><trkpt lat="42.72641110818412" lon="12.525421057250414"><ele>223.5</ele><time>2026-05-02T14:20:26Z</time></trkpt><trkpt lat="42.72635527133127" lon="12.52506620710471"><ele>223.0</ele><time>2026-05-02T14:20:27Z</time></trkpt><trkpt lat="42.726298781150824" lon="12.524705186033211"><ele>222.5</ele><time>2026-05-02T14:20:28Z</time></trkpt><trkpt lat="42.72623846329337" lon="12.524339302711686"><ele>222.0</ele><time>2026-05-02T14:20:29Z</time></trkpt><trkpt lat="42.72617698693086" lon="12.523974541285462"><ele>223.5</ele><time>2026-05-02T14:20:30Z</time></trkpt><trkpt lat="42.72612653653223" lon="12.523603234044609"><ele>225.0</ele><time>2026-05-02T14:20:31Z</time></trkpt><trkpt lat="42.726066081772856" lon="12.523248134303884"><ele>222.5</ele><time>2026-05-02T14:20:32Z</time></trkpt><trkpt lat="42.72600590320879" lon="12.522881964153544"><ele>220.0</ele><time>2026-05-02T14:20:33Z</time></trkpt><trkpt lat="42.72594775181634" lon="12.522516516896317"><ele>220.0</ele><time>2026-05-02T14:20:34Z</time></trkpt><trkpt lat="42.72588970965179" lon="12.522153284004473"><ele>220.0</ele><time>2026-05-02T14:20:35Z</time></trkpt><trkpt lat="42.72583004616847" lon="12.521792058806028"><ele>220.0</ele><time>2026-05-02T14:20:36Z</time></trkpt><trkpt lat="42.72577129849314" lon="12.521432579670133"><ele>220.0</ele><time>2026-05-02T14:20:37Z</time></trkpt><trkpt lat="42.725711638694534" lon="12.521070220102471"><ele>219.5</ele><time>2026-05-02T14:20:38Z</time></trkpt><trkpt lat="42.72565530765056" lon="12.5207132103648"><ele>219.0</ele><time>2026-05-02T14:20:39Z</time></trkpt><trkpt lat="42.725592576659096" lon="12.520350117525215"><ele>218.5</ele><time>2026-05-02T14:20:40Z</time></trkpt><trkpt lat="42.725526389491755" lon="12.519988188609847"><ele>218.0</ele><time>2026-05-02T14:20:41Z</time></trkpt><trkpt lat="42.72545580163005" lon="12.519623739843098"><ele>220.0</ele><time>2026-05-02T14:20:42Z</time></trkpt><trkpt lat="42.72538079767281" lon="12.51926524068635"><ele>222.0</ele><time>2026-05-02T14:20:43Z</time></trkpt><trkpt lat="42.725301308876375" lon="12.518902072932994"><ele>218.0</ele><time>2026-05-02T14:20:44Z</time></trkpt><trkpt lat="42.725214866219886" lon="12.518539643702162"><ele>214.0</ele><time>2026-05-02T14:20:45Z</time></trkpt><trkpt lat="42.72511813016234" lon="12.518184329785221"><ele>215.0</ele><time>2026-05-02T14:20:46Z</time></trkpt><trkpt lat="42.72501517172684" lon="12.517836248925505"><ele>216.0</ele><time>2026-05-02T14:20:47Z</time></trkpt><trkpt lat="42.7248941714064" lon="12.517491572724355"><ele>216.0</ele><time>2026-05-02T14:20:48Z</time></trkpt><trkpt lat="42.72477433348679" lon="12.517156229194228"><ele>216.0</ele><time>2026-05-02T14:20:49Z</time></trkpt><trkpt lat="42.72465081662519" lon="12.516823967341447"><ele>218.0</ele><time>2026-05-02T14:20:50Z</time></trkpt><trkpt lat="42.72452008464176" lon="12.516491542905591"><ele>220.0</ele><time>2026-05-02T14:20:51Z</time></trkpt><trkpt lat="42.72439434916487" lon="12.516163462829333"><ele>216.0</ele><time>2026-05-02T14:20:52Z</time></trkpt><trkpt lat="42.72427205368355" lon="12.515835018837528"><ele>212.0</ele><time>2026-05-02T14:20:53Z</time></trkpt><trkpt lat="42.724147704549644" lon="12.51550696067112"><ele>213.0</ele><time>2026-05-02T14:20:54Z</time></trkpt><trkpt lat="42.724023679111134" lon="12.515181226857875"><ele>214.0</ele><time>2026-05-02T14:20:55Z</time></trkpt><trkpt lat="42.72390031957387" lon="12.514853414920921"><ele>214.5</ele><time>2026-05-02T14:20:56Z</time></trkpt><trkpt lat="42.72377681932722" lon="12.514528376026215"><ele>215.0</ele><time>2026-05-02T14:20:57Z</time></trkpt><trkpt lat="42.72365537168185" lon="12.514203666554854"><ele>212.5</ele><time>2026-05-02T14:20:58Z</time></trkpt><trkpt lat="42.72353172652228" lon="12.513881792876903"><ele>210.0</ele><time>2026-05-02T14:20:59Z</time></trkpt><trkpt lat="42.723414295921934" lon="12.513556054014918"><ele>210.0</ele><time>2026-05-02T14:21:00Z</time></trkpt><trkpt lat="42.72330888287447" lon="12.513224000761117"><ele>210.0</ele><time>2026-05-02T14:21:01Z</time></trkpt><trkpt lat="42.723212996400186" lon="12.512883890812033"><ele>210.0</ele><time>2026-05-02T14:21:02Z</time></trkpt><trkpt lat="42.72312216379932" lon="12.512542354978349"><ele>210.0</ele><time>2026-05-02T14:21:03Z</time></trkpt><trkpt lat="42.72303897953149" lon="12.512196183554865"><ele>210.0</ele><time>2026-05-02T14:21:04Z</time></trkpt><trkpt lat="42.72296381003141" lon="12.511849926838783"><ele>210.0</ele><time>2026-05-02T14:21:05Z</time></trkpt><trkpt lat="42.72288935891048" lon="12.51149962458067"><ele>210.0</ele><time>2026-05-02T14:21:06Z</time></trkpt><trkpt lat="42.722816086051104" lon="12.511145474140875"><ele>210.0</ele><time>2026-05-02T14:21:07Z</time></trkpt><trkpt lat="42.72274222512873" lon="12.510800535102803"><ele>209.5</ele><time>2026-05-02T14:21:08Z</time></trkpt><trkpt lat="42.722667013495574" lon="12.510455434573206"><ele>209.0</ele><time>2026-05-02T14:21:09Z</time></trkpt><trkpt lat="42.72259251484169" lon="12.510108326103586"><ele>209.0</ele><time>2026-05-02T14:21:10Z</time></trkpt><trkpt lat="42.72251570352857" lon="12.509759935885024"><ele>209.0</ele><time>2026-05-02T14:21:11Z</time></trkpt><trkpt lat="42.722439065152685" lon="12.509413971171018"><ele>209.0</ele><time>2026-05-02T14:21:12Z</time></trkpt><trkpt lat="42.722366137617115" lon="12.509068145820269"><ele>209.0</ele><time>2026-05-02T14:21:13Z</time></trkpt><trkpt lat="42.722289895094214" lon="12.50871594470413"><ele>209.5</ele><time>2026-05-02T14:21:14Z</time></trkpt><trkpt lat="42.72221390191873" lon="12.50836833047052"><ele>210.0</ele><time>2026-05-02T14:21:15Z</time></trkpt><trkpt lat="42.72213989470104" lon="12.50802258427798"><ele>210.5</ele><time>2026-05-02T14:21:16Z</time></trkpt><trkpt lat="42.722064003937575" lon="12.507674208053013"><ele>211.0</ele><time>2026-05-02T14:21:17Z</time></trkpt><trkpt lat="42.72199252879234" lon="12.507329643589152"><ele>212.0</ele><time>2026-05-02T14:21:18Z</time></trkpt><trkpt lat="42.72191871328159" lon="12.506985081685405"><ele>213.0</ele><time>2026-05-02T14:21:19Z</time></trkpt><trkpt lat="42.721850494588374" lon="12.506639101759971"><ele>209.5</ele><time>2026-05-02T14:21:20Z</time></trkpt><trkpt lat="42.721782154981604" lon="12.50629424065536"><ele>206.0</ele><time>2026-05-02T14:21:21Z</time></trkpt><trkpt lat="42.72171813824656" lon="12.505945570875523"><ele>206.0</ele><time>2026-05-02T14:21:22Z</time></trkpt><trkpt lat="42.72166493479925" lon="12.505596323334629"><ele>206.0</ele><time>2026-05-02T14:21:23Z</time></trkpt><trkpt lat="42.72161795654261" lon="12.50523941438551"><ele>206.0</ele><time>2026-05-02T14:21:24Z</time></trkpt><trkpt lat="42.72158211968171" lon="12.504885817843823"><ele>206.0</ele><time>2026-05-02T14:21:25Z</time></trkpt><trkpt lat="42.72154940027047" lon="12.504525480199582"><ele>206.5</ele><time>2026-05-02T14:21:26Z</time></trkpt><trkpt lat="42.721525882198684" lon="12.50416962623684"><ele>207.0</ele><time>2026-05-02T14:21:27Z</time></trkpt><trkpt lat="42.72151092032224" lon="12.503809107588298"><ele>206.5</ele><time>2026-05-02T14:21:28Z</time></trkpt><trkpt lat="42.72150181248169" lon="12.503447149730876"><ele>206.0</ele><time>2026-05-02T14:21:29Z</time></trkpt><trkpt lat="42.72149390867465" lon="12.503082446548692"><ele>206.0</ele><time>2026-05-02T14:21:30Z</time></trkpt><trkpt lat="42.72149576767863" lon="12.502718198665075"><ele>206.0</ele><time>2026-05-02T14:21:31Z</time></trkpt><trkpt lat="42.721504547764305" lon="12.502354326770673"><ele>206.5</ele><time>2026-05-02T14:21:32Z</time></trkpt><trkpt lat="42.72151927321707" lon="12.501991212728425"><ele>207.0</ele><time>2026-05-02T14:21:33Z</time></trkpt><trkpt lat="42.72153745392939" lon="12.501631026702762"><ele>207.0</ele><time>2026-05-02T14:21:34Z</time></trkpt><trkpt lat="42.72155972700695" lon="12.501270689964578"><ele>207.0</ele><time>2026-05-02T14:21:35Z</time></trkpt><trkpt lat="42.721589334793514" lon="12.500912318238186"><ele>206.5</ele><time>2026-05-02T14:21:36Z</time></trkpt><trkpt lat="42.72161062216372" lon="12.500544435371397"><ele>206.0</ele><time>2026-05-02T14:21:37Z</time></trkpt><trkpt lat="42.721641318313836" lon="12.500187673422424"><ele>206.0</ele><time>2026-05-02T14:21:38Z</time></trkpt><trkpt lat="42.72166894177981" lon="12.499828163693271"><ele>206.0</ele><time>2026-05-02T14:21:39Z</time></trkpt><trkpt lat="42.7216971795472" lon="12.499469789981937"><ele>206.0</ele><time>2026-05-02T14:21:40Z</time></trkpt><trkpt lat="42.72172590061301" lon="12.499111918659736"><ele>206.0</ele><time>2026-05-02T14:21:41Z</time></trkpt><trkpt lat="42.72175210196634" lon="12.498756420521623"><ele>205.5</ele><time>2026-05-02T14:21:42Z</time></trkpt><trkpt lat="42.72177836465705" lon="12.498396035428778"><ele>205.0</ele><time>2026-05-02T14:21:43Z</time></trkpt><trkpt lat="42.72180205419283" lon="12.498034310305089"><ele>204.5</ele><time>2026-05-02T14:21:44Z</time></trkpt><trkpt lat="42.72183317155436" lon="12.497681996530146"><ele>204.0</ele><time>2026-05-02T14:21:45Z</time></trkpt><trkpt lat="42.7218606431133" lon="12.497318092035352"><ele>204.0</ele><time>2026-05-02T14:21:46Z</time></trkpt><trkpt lat="42.72188349969481" lon="12.49695141819239"><ele>204.0</ele><time>2026-05-02T14:21:47Z</time></trkpt><trkpt lat="42.72190996737053" lon="12.496587235881803"><ele>201.5</ele><time>2026-05-02T14:21:48Z</time></trkpt><trkpt lat="42.72193423425712" lon="12.49621751472744"><ele>199.0</ele><time>2026-05-02T14:21:49Z</time></trkpt><trkpt lat="42.72196096549539" lon="12.495849833895116"><ele>199.0</ele><time>2026-05-02T14:21:50Z</time></trkpt><trkpt lat="42.72198845170165" lon="12.49548521713472"><ele>199.0</ele><time>2026-05-02T14:21:51Z</time></trkpt><trkpt lat="42.72201472682278" lon="12.495113136888788"><ele>199.5</ele><time>2026-05-02T14:21:52Z</time></trkpt><trkpt lat="42.72203895716007" lon="12.494746330071385"><ele>200.0</ele><time>2026-05-02T14:21:53Z</time></trkpt><trkpt lat="42.72206110193369" lon="12.494373433801416"><ele>200.0</ele><time>2026-05-02T14:21:54Z</time></trkpt><trkpt lat="42.72209130656257" lon="12.494014804756038"><ele>200.0</ele><time>2026-05-02T14:21:55Z</time></trkpt><trkpt lat="42.72211915392343" lon="12.493650691424236"><ele>200.5</ele><time>2026-05-02T14:21:56Z</time></trkpt><trkpt lat="42.72215086533392" lon="12.493287045537645"><ele>201.0</ele><time>2026-05-02T14:21:57Z</time></trkpt><trkpt lat="42.72218096123367" lon="12.492925380578535"><ele>200.5</ele><time>2026-05-02T14:21:58Z</time></trkpt><trkpt lat="42.722206866471595" lon="12.492557065848889"><ele>200.0</ele><time>2026-05-02T14:21:59Z</time></trkpt><trkpt lat="42.72223960596594" lon="12.492201262167965"><ele>199.5</ele><time>2026-05-02T14:22:00Z</time></trkpt><trkpt lat="42.72226769398763" lon="12.491840022908788"><ele>199.0</ele><time>2026-05-02T14:22:01Z</time></trkpt><trkpt lat="42.722292880966116" lon="12.491479067210628"><ele>200.0</ele><time>2026-05-02T14:22:02Z</time></trkpt><trkpt lat="42.72231801817467" lon="12.491119916137709"><ele>201.0</ele><time>2026-05-02T14:22:03Z</time></trkpt><trkpt lat="42.72234302415483" lon="12.49076429359099"><ele>201.0</ele><time>2026-05-02T14:22:04Z</time></trkpt><trkpt lat="42.722370863273625" lon="12.490410194271073"><ele>201.0</ele><time>2026-05-02T14:22:05Z</time></trkpt><trkpt lat="42.722394260915344" lon="12.490056452404241"><ele>201.0</ele><time>2026-05-02T14:22:06Z</time></trkpt><trkpt lat="42.72242258746042" lon="12.489699797429495"><ele>201.0</ele><time>2026-05-02T14:22:07Z</time></trkpt><trkpt lat="42.722451812659436" lon="12.489347528741815"><ele>201.0</ele><time>2026-05-02T14:22:08Z</time></trkpt><trkpt lat="42.72247669599535" lon="12.488991572466595"><ele>201.0</ele><time>2026-05-02T14:22:09Z</time></trkpt><trkpt lat="42.72250656740426" lon="12.488634193590656"><ele>201.0</ele><time>2026-05-02T14:22:10Z</time></trkpt><trkpt lat="42.72253252332189" lon="12.488278345182549"><ele>201.0</ele><time>2026-05-02T14:22:11Z</time></trkpt><trkpt lat="42.722560334974325" lon="12.487916804761737"><ele>201.0</ele><time>2026-05-02T14:22:12Z</time></trkpt><trkpt lat="42.722579051374346" lon="12.487543437972608"><ele>201.0</ele><time>2026-05-02T14:22:13Z</time></trkpt><trkpt lat="42.7226073188103" lon="12.487186775493486"><ele>201.5</ele><time>2026-05-02T14:22:14Z</time></trkpt><trkpt lat="42.7226357362466" lon="12.486826567571754"><ele>202.0</ele><time>2026-05-02T14:22:15Z</time></trkpt><trkpt lat="42.72266330059432" lon="12.486464784455059"><ele>203.0</ele><time>2026-05-02T14:22:16Z</time></trkpt><trkpt lat="42.72269015090679" lon="12.486107212897673"><ele>204.0</ele><time>2026-05-02T14:22:17Z</time></trkpt><trkpt lat="42.72272019402743" lon="12.48574704858014"><ele>200.5</ele><time>2026-05-02T14:22:18Z</time></trkpt><trkpt lat="42.72274766796557" lon="12.485387541423124"><ele>197.0</ele><time>2026-05-02T14:22:19Z</time></trkpt><trkpt lat="42.72277177606861" lon="12.485030698593413"><ele>197.0</ele><time>2026-05-02T14:22:20Z</time></trkpt><trkpt lat="42.722795529095066" lon="12.484672562774167"><ele>197.0</ele><time>2026-05-02T14:22:21Z</time></trkpt><trkpt lat="42.72282108225605" lon="12.484321468552901"><ele>198.0</ele><time>2026-05-02T14:22:22Z</time></trkpt><trkpt lat="42.72284711939754" lon="12.483968362449266"><ele>199.0</ele><time>2026-05-02T14:22:23Z</time></trkpt><trkpt lat="42.72287108358732" lon="12.483615193996968"><ele>199.0</ele><time>2026-05-02T14:22:24Z</time></trkpt><trkpt lat="42.72289918286877" lon="12.483266482614653"><ele>199.0</ele><time>2026-05-02T14:22:25Z</time></trkpt><trkpt lat="42.722926406271554" lon="12.48291814970035"><ele>198.0</ele><time>2026-05-02T14:22:26Z</time></trkpt><trkpt lat="42.72295077430077" lon="12.482567402759003"><ele>197.0</ele><time>2026-05-02T14:22:27Z</time></trkpt><trkpt lat="42.72299097968354" lon="12.482210159978258"><ele>197.0</ele><time>2026-05-02T14:22:28Z</time></trkpt><trkpt lat="42.723005748786214" lon="12.481861430457679"><ele>197.0</ele><time>2026-05-02T14:22:29Z</time></trkpt><trkpt lat="42.72302971956191" lon="12.481505326921146"><ele>196.5</ele><time>2026-05-02T14:22:30Z</time></trkpt><trkpt lat="42.72305315883615" lon="12.481155879545861"><ele>196.0</ele><time>2026-05-02T14:22:31Z</time></trkpt><trkpt lat="42.72307328747249" lon="12.48080545959457"><ele>196.0</ele><time>2026-05-02T14:22:32Z</time></trkpt><trkpt lat="42.72309958430778" lon="12.480461087485654"><ele>196.0</ele><time>2026-05-02T14:22:33Z</time></trkpt><trkpt lat="42.72313170789406" lon="12.480120482670927"><ele>196.5</ele><time>2026-05-02T14:22:34Z</time></trkpt><trkpt lat="42.72317736566191" lon="12.479791428335426"><ele>197.0</ele><time>2026-05-02T14:22:35Z</time></trkpt><trkpt lat="42.72324165981213" lon="12.479461824907695"><ele>197.5</ele><time>2026-05-02T14:22:36Z</time></trkpt><trkpt lat="42.723322389591104" lon="12.479135665366924"><ele>198.0</ele><time>2026-05-02T14:22:37Z</time></trkpt><trkpt lat="42.723413840933276" lon="12.478817987599143"><ele>198.0</ele><time>2026-05-02T14:22:38Z</time></trkpt><trkpt lat="42.72351446425862" lon="12.478498731871035"><ele>198.0</ele><time>2026-05-02T14:22:39Z</time></trkpt><trkpt lat="42.723632159111894" lon="12.478194582761196"><ele>198.0</ele><time>2026-05-02T14:22:40Z</time></trkpt><trkpt lat="42.723767038490934" lon="12.477897666029515"><ele>198.0</ele><time>2026-05-02T14:22:41Z</time></trkpt><trkpt lat="42.723914573037405" lon="12.477612591514792"><ele>198.0</ele><time>2026-05-02T14:22:42Z</time></trkpt><trkpt lat="42.72406914782653" lon="12.47732801725623"><ele>198.0</ele><time>2026-05-02T14:22:43Z</time></trkpt><trkpt lat="42.724240931576986" lon="12.477057202468453"><ele>198.0</ele><time>2026-05-02T14:22:44Z</time></trkpt><trkpt lat="42.72442483023435" lon="12.476801429822066"><ele>198.0</ele><time>2026-05-02T14:22:45Z</time></trkpt><trkpt lat="42.72462181687595" lon="12.476560551128545"><ele>198.0</ele><time>2026-05-02T14:22:46Z</time></trkpt><trkpt lat="42.72482556903991" lon="12.47633346253525"><ele>198.0</ele><time>2026-05-02T14:22:47Z</time></trkpt><trkpt lat="42.72502747521142" lon="12.476102835916267"><ele>199.5</ele><time>2026-05-02T14:22:48Z</time></trkpt><trkpt lat="42.72522898913583" lon="12.475869870429703"><ele>201.0</ele><time>2026-05-02T14:22:49Z</time></trkpt><trkpt lat="42.725430867998135" lon="12.475637993762971"><ele>201.5</ele><time>2026-05-02T14:22:50Z</time></trkpt><trkpt lat="42.72563593443426" lon="12.475409419018495"><ele>202.0</ele><time>2026-05-02T14:22:51Z</time></trkpt><trkpt lat="42.72583903778659" lon="12.475175363009047"><ele>202.0</ele><time>2026-05-02T14:22:52Z</time></trkpt><trkpt lat="42.72604049600108" lon="12.474939962995574"><ele>202.0</ele><time>2026-05-02T14:22:53Z</time></trkpt><trkpt lat="42.72624216267955" lon="12.474711963170721"><ele>203.5</ele><time>2026-05-02T14:22:54Z</time></trkpt><trkpt lat="42.726442825695116" lon="12.474483890457257"><ele>205.0</ele><time>2026-05-02T14:22:55Z</time></trkpt><trkpt lat="42.72664344388608" lon="12.474261777898935"><ele>205.0</ele><time>2026-05-02T14:22:56Z</time></trkpt><trkpt lat="42.726841529204975" lon="12.474039250086035"><ele>205.0</ele><time>2026-05-02T14:22:57Z</time></trkpt><trkpt lat="42.72704607105327" lon="12.473821432871098"><ele>204.0</ele><time>2026-05-02T14:22:58Z</time></trkpt><trkpt lat="42.727256975729794" lon="12.473621342155885"><ele>203.0</ele><time>2026-05-02T14:22:59Z</time></trkpt><trkpt lat="42.727480066979616" lon="12.473450220497613"><ele>203.0</ele><time>2026-05-02T14:23:00Z</time></trkpt><trkpt lat="42.727706278107846" lon="12.473301207133611"><ele>203.0</ele><time>2026-05-02T14:23:01Z</time></trkpt><trkpt lat="42.72794088977774" lon="12.473168058911886"><ele>202.5</ele><time>2026-05-02T14:23:02Z</time></trkpt><trkpt lat="42.72818046172248" lon="12.473056471149672"><ele>202.0</ele><time>2026-05-02T14:23:03Z</time></trkpt><trkpt lat="42.728422559494454" lon="12.472959314178699"><ele>206.5</ele><time>2026-05-02T14:23:04Z</time></trkpt><trkpt lat="42.72866619195711" lon="12.472879477662275"><ele>211.0</ele><time>2026-05-02T14:23:05Z</time></trkpt><trkpt lat="42.72891336371999" lon="12.472821963079017"><ele>211.0</ele><time>2026-05-02T14:23:06Z</time></trkpt><trkpt lat="42.72915901830189" lon="12.472780764519364"><ele>211.0</ele><time>2026-05-02T14:23:07Z</time></trkpt><trkpt lat="42.729408034387575" lon="12.472751842460813"><ele>212.0</ele><time>2026-05-02T14:23:08Z</time></trkpt><trkpt lat="42.72965688321956" lon="12.47275217737433"><ele>213.0</ele><time>2026-05-02T14:23:09Z</time></trkpt><trkpt lat="42.729902080654625" lon="12.472766802989907"><ele>213.0</ele><time>2026-05-02T14:23:10Z</time></trkpt><trkpt lat="42.73014447402373" lon="12.472808647331803"><ele>213.0</ele><time>2026-05-02T14:23:11Z</time></trkpt><trkpt lat="42.730387429773614" lon="12.472866111718599"><ele>213.0</ele><time>2026-05-02T14:23:12Z</time></trkpt><trkpt lat="42.730631125151355" lon="12.472931806729864"><ele>213.0</ele><time>2026-05-02T14:23:13Z</time></trkpt><trkpt lat="42.73087560553672" lon="12.472992225413392"><ele>216.0</ele><time>2026-05-02T14:23:14Z</time></trkpt><trkpt lat="42.73112483677099" lon="12.473049308304416"><ele>219.0</ele><time>2026-05-02T14:23:15Z</time></trkpt><trkpt lat="42.73137016882018" lon="12.473108117405154"><ele>219.0</ele><time>2026-05-02T14:23:16Z</time></trkpt><trkpt lat="42.73161578191223" lon="12.473166036198124"><ele>219.0</ele><time>2026-05-02T14:23:17Z</time></trkpt><trkpt lat="42.73186296112365" lon="12.473224026317487"><ele>222.0</ele><time>2026-05-02T14:23:18Z</time></trkpt><trkpt lat="42.73210940388862" lon="12.473278518141722"><ele>225.0</ele><time>2026-05-02T14:23:19Z</time></trkpt><trkpt lat="42.73235706992906" lon="12.473332708403838"><ele>225.0</ele><time>2026-05-02T14:23:20Z</time></trkpt><trkpt lat="42.73260242817165" lon="12.473385763947194"><ele>225.0</ele><time>2026-05-02T14:23:21Z</time></trkpt><trkpt lat="42.73284853695792" lon="12.473444351406492"><ele>228.5</ele><time>2026-05-02T14:23:22Z</time></trkpt><trkpt lat="42.73309055767173" lon="12.473507814904247"><ele>232.0</ele><time>2026-05-02T14:23:23Z</time></trkpt><trkpt lat="42.73333299749055" lon="12.473573229548926"><ele>234.0</ele><time>2026-05-02T14:23:24Z</time></trkpt><trkpt lat="42.73357817615389" lon="12.473634761472649"><ele>236.0</ele><time>2026-05-02T14:23:25Z</time></trkpt><trkpt lat="42.73381902674321" lon="12.473694886605168"><ele>236.0</ele><time>2026-05-02T14:23:26Z</time></trkpt><trkpt lat="42.73406291925302" lon="12.473751686647248"><ele>236.0</ele><time>2026-05-02T14:23:27Z</time></trkpt><trkpt lat="42.734304515253164" lon="12.473806597631363"><ele>235.0</ele><time>2026-05-02T14:23:28Z</time></trkpt><trkpt lat="42.73454794710253" lon="12.473863451071958"><ele>234.0</ele><time>2026-05-02T14:23:29Z</time></trkpt><trkpt lat="42.73479171671806" lon="12.473918093860542"><ele>234.0</ele><time>2026-05-02T14:23:30Z</time></trkpt><trkpt lat="42.73503383341429" lon="12.473968276986279"><ele>234.0</ele><time>2026-05-02T14:23:31Z</time></trkpt><trkpt lat="42.735278074737344" lon="12.47401558855727"><ele>237.0</ele><time>2026-05-02T14:23:32Z</time></trkpt><trkpt lat="42.73551893483555" lon="12.47405649978172"><ele>240.0</ele><time>2026-05-02T14:23:33Z</time></trkpt><trkpt lat="42.73576274296457" lon="12.47409179903761"><ele>240.0</ele><time>2026-05-02T14:23:34Z</time></trkpt><trkpt lat="42.7360058352512" lon="12.474113848023086"><ele>240.0</ele><time>2026-05-02T14:23:35Z</time></trkpt><trkpt lat="42.736248944506414" lon="12.47413137958091"><ele>240.0</ele><time>2026-05-02T14:23:36Z</time></trkpt><trkpt lat="42.736491405366614" lon="12.47414454733423"><ele>240.0</ele><time>2026-05-02T14:23:37Z</time></trkpt><trkpt lat="42.73671808330193" lon="12.474140505238617"><ele>240.33333333333331</ele><time>2026-05-02T14:23:38Z</time></trkpt><trkpt lat="42.736935761703634" lon="12.474121393614672"><ele>240.66666666666666</ele><time>2026-05-02T14:23:39Z</time></trkpt><trkpt lat="42.73715616471947" lon="12.474098946753061"><ele>241.0</ele><time>2026-05-02T14:23:40Z</time></trkpt><trkpt lat="42.73736323946373" lon="12.474072732736765"><ele>241.0</ele><time>2026-05-02T14:23:41Z</time></trkpt><trkpt lat="42.73756563124142" lon="12.47404356442874"><ele>241.0</ele><time>2026-05-02T14:23:42Z</time></trkpt><trkpt lat="42.7377650647724" lon="12.474006822712536"><ele>241.0</ele><time>2026-05-02T14:23:43Z</time></trkpt><trkpt lat="42.73796392157496" lon="12.473977058176553"><ele>240.66666666666666</ele><time>2026-05-02T14:23:44Z</time></trkpt><trkpt lat="42.73815324370858" lon="12.473946657323204"><ele>240.33333333333331</ele><time>2026-05-02T14:23:45Z</time></trkpt><trkpt lat="42.73832125915684" lon="12.47391163036578"><ele>240.0</ele><time>2026-05-02T14:23:46Z</time></trkpt><trkpt lat="42.73847420493213" lon="12.473847055322421"><ele>239.66666666666669</ele><time>2026-05-02T14:23:47Z</time></trkpt><trkpt lat="42.73864240431105" lon="12.473815204925401"><ele>239.33333333333334</ele><time>2026-05-02T14:23:48Z</time></trkpt><trkpt lat="42.738823698721255" lon="12.473772284850975"><ele>239.0</ele><time>2026-05-02T14:23:49Z</time></trkpt><trkpt lat="42.7390104874715" lon="12.473758269505428"><ele>241.0</ele><time>2026-05-02T14:23:50Z</time></trkpt><trkpt lat="42.73919012086633" lon="12.473726958168797"><ele>243.0</ele><time>2026-05-02T14:23:51Z</time></trkpt><trkpt lat="42.73936272663154" lon="12.473700314943253"><ele>245.0</ele><time>2026-05-02T14:23:52Z</time></trkpt><trkpt lat="42.73952950920079" lon="12.473670916488269"><ele>247.33333333333334</ele><time>2026-05-02T14:23:53Z</time></trkpt><trkpt lat="42.7396993817597" lon="12.473645908413323"><ele>249.66666666666669</ele><time>2026-05-02T14:23:54Z</time></trkpt><trkpt lat="42.7398656054592" lon="12.473620354008512"><ele>252.0</ele><time>2026-05-02T14:23:55Z</time></trkpt><trkpt lat="42.74002956494714" lon="12.473603193015775"><ele>252.0</ele><time>2026-05-02T14:23:56Z</time></trkpt><trkpt lat="42.740198271610566" lon="12.473574957639112"><ele>252.0</ele><time>2026-05-02T14:23:57Z</time></trkpt><trkpt lat="42.740365810135444" lon="12.473545985850615"><ele>252.0</ele><time>2026-05-02T14:23:58Z</time></trkpt><trkpt lat="42.74052749363832" lon="12.473514598566977"><ele>255.0</ele><time>2026-05-02T14:23:59Z</time></trkpt><trkpt lat="42.74069667540758" lon="12.473477853013861"><ele>258.0</ele><time>2026-05-02T14:24:00Z</time></trkpt><trkpt lat="42.740868456378784" lon="12.473433684523345"><ele>261.0</ele><time>2026-05-02T14:24:01Z</time></trkpt><trkpt lat="42.74103245890235" lon="12.473379917442784"><ele>266.3333333333333</ele><time>2026-05-02T14:24:02Z</time></trkpt><trkpt lat="42.74120552898679" lon="12.473315676738471"><ele>271.66666666666663</ele><time>2026-05-02T14:24:03Z</time></trkpt><trkpt lat="42.74137884625504" lon="12.473249411494495"><ele>277.0</ele><time>2026-05-02T14:24:04Z</time></trkpt><trkpt lat="42.74155212594127" lon="12.473183017072829"><ele>277.0</ele><time>2026-05-02T14:24:05Z</time></trkpt><trkpt lat="42.74172779808708" lon="12.47311400239901"><ele>277.0</ele><time>2026-05-02T14:24:06Z</time></trkpt><trkpt lat="42.74191091017119" lon="12.47304206484013"><ele>277.0</ele><time>2026-05-02T14:24:07Z</time></trkpt><trkpt lat="42.74209599873001" lon="12.472969350778502"><ele>283.0</ele><time>2026-05-02T14:24:08Z</time></trkpt><trkpt lat="42.7422845717385" lon="12.472895267824915"><ele>289.0</ele><time>2026-05-02T14:24:09Z</time></trkpt><trkpt lat="42.742477823486304" lon="12.472819346780659"><ele>295.0</ele><time>2026-05-02T14:24:10Z</time></trkpt><trkpt lat="42.74267551467414" lon="12.472742554490553"><ele>298.0</ele><time>2026-05-02T14:24:11Z</time></trkpt><trkpt lat="42.74287579238515" lon="12.4726648168908"><ele>301.0</ele><time>2026-05-02T14:24:12Z</time></trkpt><trkpt lat="42.74306752548158" lon="12.472590395970334"><ele>304.0</ele><time>2026-05-02T14:24:13Z</time></trkpt><trkpt lat="42.74327176409675" lon="12.472510666794244"><ele>304.0</ele><time>2026-05-02T14:24:14Z</time></trkpt><trkpt lat="42.743487719413814" lon="12.472426079843576"><ele>304.0</ele><time>2026-05-02T14:24:15Z</time></trkpt><trkpt lat="42.74371967738835" lon="12.472335224827427"><ele>305.3333333333333</ele><time>2026-05-02T14:24:17Z</time></trkpt><trkpt lat="42.7439008103447" lon="12.472264962467998"><ele>306.6666666666667</ele><time>2026-05-02T14:24:18Z</time></trkpt><trkpt lat="42.74408559477714" lon="12.472193734130842"><ele>308.0</ele><time>2026-05-02T14:24:19.017Z</time></trkpt><trkpt lat="42.74605174771184" lon="12.471522283867017"><ele>263.0</ele><time>2026-05-02T14:24:22.559Z</time></trkpt><trkpt lat="42.74682740359162" lon="12.471205132611415"><ele>254.5</ele><time>2026-05-02T14:24:23.559Z</time></trkpt><trkpt lat="42.746977536047574" lon="12.470796033751657"><ele>246.0</ele><time>2026-05-02T14:24:35Z</time></trkpt><trkpt lat="42.747159613421985" lon="12.470716099425003"><ele>246.0</ele><time>2026-05-02T14:24:36Z</time></trkpt><trkpt lat="42.747361410994436" lon="12.470740096882235"><ele>246.0</ele><time>2026-05-02T14:24:37Z</time></trkpt><trkpt lat="42.747520328220645" lon="12.470591259358677"><ele>246.0</ele><time>2026-05-02T14:24:38Z</time></trkpt><trkpt lat="42.74768009460891" lon="12.470424246784448"><ele>244.0</ele><time>2026-05-02T14:24:39Z</time></trkpt><trkpt lat="42.74782808813282" lon="12.470245226386123"><ele>242.0</ele><time>2026-05-02T14:24:40Z</time></trkpt><trkpt lat="42.74795974816228" lon="12.470055724516122"><ele>240.0</ele><time>2026-05-02T14:24:41Z</time></trkpt><trkpt lat="42.74812107368335" lon="12.469859815395363"><ele>240.0</ele><time>2026-05-02T14:24:42Z</time></trkpt><trkpt lat="42.74828922487367" lon="12.469660580983833"><ele>240.0</ele><time>2026-05-02T14:24:43Z</time></trkpt><trkpt lat="42.74847473042418" lon="12.469454747616224"><ele>238.5</ele><time>2026-05-02T14:24:44Z</time></trkpt><trkpt lat="42.74867881779339" lon="12.469275515094502"><ele>237.0</ele><time>2026-05-02T14:24:45Z</time></trkpt><trkpt lat="42.748879439420364" lon="12.469055010795973"><ele>237.0</ele><time>2026-05-02T14:24:46Z</time></trkpt><trkpt lat="42.74906332240925" lon="12.46882510063957"><ele>237.0</ele><time>2026-05-02T14:24:47Z</time></trkpt><trkpt lat="42.74924993337523" lon="12.46858160896761"><ele>236.0</ele><time>2026-05-02T14:24:48Z</time></trkpt><trkpt lat="42.749452928645304" lon="12.468342512738642"><ele>235.0</ele><time>2026-05-02T14:24:49Z</time></trkpt><trkpt lat="42.74965362716353" lon="12.468097799786998"><ele>235.0</ele><time>2026-05-02T14:24:50Z</time></trkpt><trkpt lat="42.74985784061939" lon="12.467857327128689"><ele>235.0</ele><time>2026-05-02T14:24:51Z</time></trkpt><trkpt lat="42.75006604026334" lon="12.467614704510718"><ele>234.0</ele><time>2026-05-02T14:24:52Z</time></trkpt><trkpt lat="42.750279137037595" lon="12.46736682187953"><ele>233.0</ele><time>2026-05-02T14:24:53Z</time></trkpt><trkpt lat="42.750491766720266" lon="12.467119579532595"><ele>232.0</ele><time>2026-05-02T14:24:54Z</time></trkpt><trkpt lat="42.75070578596479" lon="12.466869591784869"><ele>231.0</ele><time>2026-05-02T14:24:55Z</time></trkpt><trkpt lat="42.750920442685825" lon="12.46661685428159"><ele>230.0</ele><time>2026-05-02T14:24:56Z</time></trkpt><trkpt lat="42.75113346676873" lon="12.466364329654635"><ele>229.0</ele><time>2026-05-02T14:24:57Z</time></trkpt><trkpt lat="42.75135022156645" lon="12.466113289533773"><ele>228.5</ele><time>2026-05-02T14:24:58Z</time></trkpt><trkpt lat="42.75156937597992" lon="12.465875435562484"><ele>228.0</ele><time>2026-05-02T14:24:59Z</time></trkpt><trkpt lat="42.751785619921684" lon="12.465629271293746"><ele>226.5</ele><time>2026-05-02T14:25:00Z</time></trkpt><trkpt lat="42.75200238026022" lon="12.465384515274687"><ele>225.0</ele><time>2026-05-02T14:25:01Z</time></trkpt><trkpt lat="42.75221872894783" lon="12.46513265473226"><ele>225.0</ele><time>2026-05-02T14:25:02Z</time></trkpt><trkpt lat="42.752435727581656" lon="12.464877550546607"><ele>225.0</ele><time>2026-05-02T14:25:03Z</time></trkpt><trkpt lat="42.75265333741781" lon="12.464626593781805"><ele>223.5</ele><time>2026-05-02T14:25:04Z</time></trkpt><trkpt lat="42.75288669963624" lon="12.464399574955591"><ele>222.0</ele><time>2026-05-02T14:25:05Z</time></trkpt><trkpt lat="42.75311209963106" lon="12.4641619330528"><ele>222.0</ele><time>2026-05-02T14:25:06Z</time></trkpt><trkpt lat="42.75334148284853" lon="12.463915756483276"><ele>222.0</ele><time>2026-05-02T14:25:07Z</time></trkpt><trkpt lat="42.75356797233122" lon="12.463662500677854"><ele>218.5</ele><time>2026-05-02T14:25:08Z</time></trkpt><trkpt lat="42.75379474517941" lon="12.463415767570222"><ele>215.0</ele><time>2026-05-02T14:25:09Z</time></trkpt><trkpt lat="42.75402100220165" lon="12.46316414500809"><ele>215.0</ele><time>2026-05-02T14:25:10Z</time></trkpt><trkpt lat="42.754245383526886" lon="12.46291832269798"><ele>215.0</ele><time>2026-05-02T14:25:11Z</time></trkpt><trkpt lat="42.7544692472973" lon="12.4626637200996"><ele>214.5</ele><time>2026-05-02T14:25:12Z</time></trkpt><trkpt lat="42.754706145719105" lon="12.462420675252618"><ele>214.0</ele><time>2026-05-02T14:25:13Z</time></trkpt><trkpt lat="42.75492539657467" lon="12.462166793290187"><ele>213.0</ele><time>2026-05-02T14:25:14Z</time></trkpt><trkpt lat="42.75514179054065" lon="12.461912127248297"><ele>212.0</ele><time>2026-05-02T14:25:15Z</time></trkpt><trkpt lat="42.755359678886514" lon="12.4616669712691"><ele>212.5</ele><time>2026-05-02T14:25:16Z</time></trkpt><trkpt lat="42.75557815160125" lon="12.461422130028815"><ele>213.0</ele><time>2026-05-02T14:25:17Z</time></trkpt><trkpt lat="42.75579599339854" lon="12.461175494888623"><ele>213.0</ele><time>2026-05-02T14:25:18Z</time></trkpt><trkpt lat="42.75601349711119" lon="12.460922928676444"><ele>213.0</ele><time>2026-05-02T14:25:19Z</time></trkpt><trkpt lat="42.75622364001178" lon="12.46067563407448"><ele>212.0</ele><time>2026-05-02T14:25:20Z</time></trkpt><trkpt lat="42.75644279885334" lon="12.460430295975534"><ele>211.0</ele><time>2026-05-02T14:25:21Z</time></trkpt><trkpt lat="42.75665782718988" lon="12.460179179436023"><ele>213.5</ele><time>2026-05-02T14:25:22Z</time></trkpt><trkpt lat="42.756870371726485" lon="12.45992394507766"><ele>216.0</ele><time>2026-05-02T14:25:23Z</time></trkpt><trkpt lat="42.75708148941241" lon="12.459666112981807"><ele>213.5</ele><time>2026-05-02T14:25:24Z</time></trkpt><trkpt lat="42.75729346287811" lon="12.459409578238818"><ele>211.0</ele><time>2026-05-02T14:25:25Z</time></trkpt><trkpt lat="42.75750212673141" lon="12.45915101788761"><ele>211.0</ele><time>2026-05-02T14:25:26Z</time></trkpt><trkpt lat="42.757716989453144" lon="12.458903702344541"><ele>211.0</ele><time>2026-05-02T14:25:27Z</time></trkpt><trkpt lat="42.75792828935374" lon="12.458657744636326"><ele>211.0</ele><time>2026-05-02T14:25:28Z</time></trkpt><trkpt lat="42.75813954748055" lon="12.458409047170695"><ele>211.0</ele><time>2026-05-02T14:25:29Z</time></trkpt><trkpt lat="42.75835349976006" lon="12.458163309338016"><ele>209.0</ele><time>2026-05-02T14:25:30Z</time></trkpt><trkpt lat="42.75856985768371" lon="12.457921011122135"><ele>207.0</ele><time>2026-05-02T14:25:31Z</time></trkpt><trkpt lat="42.75879782453445" lon="12.457695930051058"><ele>207.0</ele><time>2026-05-02T14:25:32Z</time></trkpt><trkpt lat="42.75903786582731" lon="12.457488796344006"><ele>207.0</ele><time>2026-05-02T14:25:33Z</time></trkpt><trkpt lat="42.75928869135091" lon="12.4573086093587"><ele>208.0</ele><time>2026-05-02T14:25:34Z</time></trkpt><trkpt lat="42.759537198576574" lon="12.457121338665502"><ele>209.0</ele><time>2026-05-02T14:25:35Z</time></trkpt><trkpt lat="42.75978423133966" lon="12.456938848281624"><ele>206.5</ele><time>2026-05-02T14:25:36Z</time></trkpt><trkpt lat="42.76003256093785" lon="12.456757669698293"><ele>204.0</ele><time>2026-05-02T14:25:37Z</time></trkpt><trkpt lat="42.76027961213286" lon="12.456567931434195"><ele>204.0</ele><time>2026-05-02T14:25:38Z</time></trkpt><trkpt lat="42.76052523837688" lon="12.456372402309185"><ele>204.0</ele><time>2026-05-02T14:25:39Z</time></trkpt><trkpt lat="42.760773474366005" lon="12.456186331121003"><ele>203.0</ele><time>2026-05-02T14:25:40Z</time></trkpt><trkpt lat="42.76102187871496" lon="12.456000154951269"><ele>202.0</ele><time>2026-05-02T14:25:41Z</time></trkpt><trkpt lat="42.76127407306082" lon="12.45581335241558"><ele>202.0</ele><time>2026-05-02T14:25:42Z</time></trkpt><trkpt lat="42.761525024006524" lon="12.455624304458121"><ele>202.0</ele><time>2026-05-02T14:25:43Z</time></trkpt><trkpt lat="42.76177938839121" lon="12.45543751206273"><ele>203.0</ele><time>2026-05-02T14:25:44Z</time></trkpt><trkpt lat="42.76203458949356" lon="12.455249831129134"><ele>204.0</ele><time>2026-05-02T14:25:45Z</time></trkpt><trkpt lat="42.76228484681119" lon="12.455059095702056"><ele>204.0</ele><time>2026-05-02T14:25:46Z</time></trkpt><trkpt lat="42.76253599794619" lon="12.454869189518542"><ele>204.0</ele><time>2026-05-02T14:25:47Z</time></trkpt><trkpt lat="42.76278830959633" lon="12.454680801049562"><ele>201.5</ele><time>2026-05-02T14:25:48Z</time></trkpt><trkpt lat="42.76303603062598" lon="12.454493619565499"><ele>199.0</ele><time>2026-05-02T14:25:49Z</time></trkpt><trkpt lat="42.76327896111676" lon="12.454304118564597"><ele>199.0</ele><time>2026-05-02T14:25:50Z</time></trkpt><trkpt lat="42.763521296937874" lon="12.454118782017263"><ele>199.0</ele><time>2026-05-02T14:25:51Z</time></trkpt><trkpt lat="42.76376036007491" lon="12.453941248252423"><ele>198.0</ele><time>2026-05-02T14:25:52Z</time></trkpt><trkpt lat="42.76399622935508" lon="12.453770189870815"><ele>197.0</ele><time>2026-05-02T14:25:53Z</time></trkpt><trkpt lat="42.76423047570541" lon="12.453598975577687"><ele>196.5</ele><time>2026-05-02T14:25:54Z</time></trkpt><trkpt lat="42.76446150182223" lon="12.45342223779749"><ele>196.0</ele><time>2026-05-02T14:25:55Z</time></trkpt><trkpt lat="42.764699667928575" lon="12.453246582609891"><ele>196.0</ele><time>2026-05-02T14:25:56Z</time></trkpt><trkpt lat="42.76493030954295" lon="12.453075908773375"><ele>196.0</ele><time>2026-05-02T14:25:57Z</time></trkpt><trkpt lat="42.765159474117574" lon="12.452909061882904"><ele>195.5</ele><time>2026-05-02T14:25:58Z</time></trkpt><trkpt lat="42.7653912469256" lon="12.452735084817975"><ele>195.0</ele><time>2026-05-02T14:25:59Z</time></trkpt><trkpt lat="42.76562118611119" lon="12.452566585759325"><ele>195.0</ele><time>2026-05-02T14:26:00Z</time></trkpt><trkpt lat="42.76585136786384" lon="12.452389208159769"><ele>195.0</ele><time>2026-05-02T14:26:01Z</time></trkpt><trkpt lat="42.76607886568921" lon="12.452211170028997"><ele>195.5</ele><time>2026-05-02T14:26:02Z</time></trkpt><trkpt lat="42.76630746110608" lon="12.452029638533539"><ele>196.0</ele><time>2026-05-02T14:26:03Z</time></trkpt><trkpt lat="42.76653206561354" lon="12.451873937926742"><ele>196.0</ele><time>2026-05-02T14:26:04Z</time></trkpt><trkpt lat="42.766761554995796" lon="12.451706023186823"><ele>196.0</ele><time>2026-05-02T14:26:05Z</time></trkpt><trkpt lat="42.76698556453885" lon="12.451543767149234"><ele>194.5</ele><time>2026-05-02T14:26:06Z</time></trkpt><trkpt lat="42.76720581218713" lon="12.451384226603741"><ele>193.0</ele><time>2026-05-02T14:26:07Z</time></trkpt><trkpt lat="42.76741532411721" lon="12.451229044629414"><ele>193.0</ele><time>2026-05-02T14:26:08Z</time></trkpt><trkpt lat="42.767618392957786" lon="12.451063866706766"><ele>193.0</ele><time>2026-05-02T14:26:09Z</time></trkpt><trkpt lat="42.76781912624668" lon="12.45089722278857"><ele>197.5</ele><time>2026-05-02T14:26:10Z</time></trkpt><trkpt lat="42.76802394838624" lon="12.450743855434297"><ele>202.0</ele><time>2026-05-02T14:26:11Z</time></trkpt><trkpt lat="42.76822842834045" lon="12.450589002540774"><ele>200.5</ele><time>2026-05-02T14:26:12Z</time></trkpt><trkpt lat="42.768431123796375" lon="12.450440557181524"><ele>199.0</ele><time>2026-05-02T14:26:13Z</time></trkpt><trkpt lat="42.76862827636444" lon="12.450302309912741"><ele>199.0</ele><time>2026-05-02T14:26:14Z</time></trkpt><trkpt lat="42.76882159536454" lon="12.450161805308698"><ele>199.0</ele><time>2026-05-02T14:26:15Z</time></trkpt><trkpt lat="42.76901485415052" lon="12.450034120655376"><ele>199.0</ele><time>2026-05-02T14:26:16Z</time></trkpt><trkpt lat="42.76920750732123" lon="12.449899234303958"><ele>201.0</ele><time>2026-05-02T14:26:17Z</time></trkpt><trkpt lat="42.76940322168421" lon="12.44977840918907"><ele>203.0</ele><time>2026-05-02T14:26:18Z</time></trkpt><trkpt lat="42.76959940670492" lon="12.44965486466178"><ele>205.0</ele><time>2026-05-02T14:26:19Z</time></trkpt><trkpt lat="42.76979536915692" lon="12.44953945813467"><ele>201.33333333333331</ele><time>2026-05-02T14:26:20Z</time></trkpt><trkpt lat="42.769990667751614" lon="12.449423456577678"><ele>197.66666666666669</ele><time>2026-05-02T14:26:21Z</time></trkpt><trkpt lat="42.77018476265856" lon="12.449302454485153"><ele>194.0</ele><time>2026-05-02T14:26:22Z</time></trkpt><trkpt lat="42.770379188264734" lon="12.449186444335005"><ele>194.0</ele><time>2026-05-02T14:26:23Z</time></trkpt><trkpt lat="42.77057278379016" lon="12.44907346200338"><ele>194.0</ele><time>2026-05-02T14:26:24Z</time></trkpt><trkpt lat="42.77076973820278" lon="12.448951247190086"><ele>194.0</ele><time>2026-05-02T14:26:25Z</time></trkpt><trkpt lat="42.77096695220529" lon="12.448833147501176"><ele>192.33333333333334</ele><time>2026-05-02T14:26:26Z</time></trkpt><trkpt lat="42.77116258103073" lon="12.448722280472932"><ele>190.66666666666669</ele><time>2026-05-02T14:26:27Z</time></trkpt><trkpt lat="42.77135366177698" lon="12.448611093085727"><ele>189.0</ele><time>2026-05-02T14:26:28Z</time></trkpt><trkpt lat="42.77154177234258" lon="12.448504790191128"><ele>189.0</ele><time>2026-05-02T14:26:29Z</time></trkpt><trkpt lat="42.77173052984291" lon="12.448398185035911"><ele>189.0</ele><time>2026-05-02T14:26:30Z</time></trkpt><trkpt lat="42.77191796962537" lon="12.44829428639383"><ele>189.0</ele><time>2026-05-02T14:26:31Z</time></trkpt><trkpt lat="42.77210484385342" lon="12.448186889353067"><ele>188.66666666666666</ele><time>2026-05-02T14:26:32Z</time></trkpt><trkpt lat="42.772288404469236" lon="12.448077773538191"><ele>188.33333333333331</ele><time>2026-05-02T14:26:33Z</time></trkpt><trkpt lat="42.77247039727809" lon="12.44796857183513"><ele>188.0</ele><time>2026-05-02T14:26:34Z</time></trkpt><trkpt lat="42.77264133802789" lon="12.447858061258973"><ele>188.0</ele><time>2026-05-02T14:26:35Z</time></trkpt><trkpt lat="42.77282024621406" lon="12.447752359401182"><ele>188.0</ele><time>2026-05-02T14:26:36Z</time></trkpt><trkpt lat="42.772994966914226" lon="12.447645632537673"><ele>188.0</ele><time>2026-05-02T14:26:37Z</time></trkpt><trkpt lat="42.77317174033454" lon="12.447553068718568"><ele>188.0</ele><time>2026-05-02T14:26:38Z</time></trkpt><trkpt lat="42.773345976245444" lon="12.447454124412163"><ele>188.0</ele><time>2026-05-02T14:26:39Z</time></trkpt><trkpt lat="42.77351900266595" lon="12.447351975113296"><ele>188.0</ele><time>2026-05-02T14:26:40Z</time></trkpt><trkpt lat="42.773693368166896" lon="12.44724712508146"><ele>188.33333333333331</ele><time>2026-05-02T14:26:41Z</time></trkpt><trkpt lat="42.773866381432114" lon="12.447144269497471"><ele>188.66666666666666</ele><time>2026-05-02T14:26:42Z</time></trkpt><trkpt lat="42.77403858649608" lon="12.447040108245094"><ele>189.0</ele><time>2026-05-02T14:26:43Z</time></trkpt><trkpt lat="42.77421038587474" lon="12.446937565824587"><ele>188.33333333333334</ele><time>2026-05-02T14:26:44Z</time></trkpt><trkpt lat="42.77438096956311" lon="12.44683471058302"><ele>187.66666666666669</ele><time>2026-05-02T14:26:45Z</time></trkpt><trkpt lat="42.77455376593936" lon="12.446732504337684"><ele>187.0</ele><time>2026-05-02T14:26:46Z</time></trkpt><trkpt lat="42.77472834128929" lon="12.44663557834707"><ele>187.0</ele><time>2026-05-02T14:26:47Z</time></trkpt><trkpt lat="42.77490291942062" lon="12.446535151714022"><ele>187.0</ele><time>2026-05-02T14:26:48Z</time></trkpt><trkpt lat="42.77507740611612" lon="12.446430147606492"><ele>187.0</ele><time>2026-05-02T14:26:49Z</time></trkpt><trkpt lat="42.775252022858204" lon="12.446326208525576"><ele>188.0</ele><time>2026-05-02T14:26:50Z</time></trkpt><trkpt lat="42.77542824750431" lon="12.446228676436773"><ele>189.0</ele><time>2026-05-02T14:26:51Z</time></trkpt><trkpt lat="42.7756055799885" lon="12.446109861065478"><ele>190.0</ele><time>2026-05-02T14:26:52Z</time></trkpt><trkpt lat="42.77578522144891" lon="12.446001674270017"><ele>190.0</ele><time>2026-05-02T14:26:53Z</time></trkpt><trkpt lat="42.77596335550943" lon="12.445893917151798"><ele>190.0</ele><time>2026-05-02T14:26:54Z</time></trkpt><trkpt lat="42.776147257491345" lon="12.445780673405277"><ele>190.0</ele><time>2026-05-02T14:26:55Z</time></trkpt><trkpt lat="42.77633553819331" lon="12.445675827918832"><ele>190.33333333333334</ele><time>2026-05-02T14:26:56Z</time></trkpt><trkpt lat="42.77652232072212" lon="12.445562362015762"><ele>190.66666666666666</ele><time>2026-05-02T14:26:57Z</time></trkpt><trkpt lat="42.77670889403057" lon="12.445442828401045"><ele>191.0</ele><time>2026-05-02T14:26:58Z</time></trkpt><trkpt lat="42.77688518610849" lon="12.44531549124076"><ele>191.0</ele><time>2026-05-02T14:26:59Z</time></trkpt><trkpt lat="42.77707275971448" lon="12.445194154144067"><ele>191.0</ele><time>2026-05-02T14:27:00Z</time></trkpt><trkpt lat="42.77725762270065" lon="12.445045764572189"><ele>191.0</ele><time>2026-05-02T14:27:01Z</time></trkpt><trkpt lat="42.777439831613044" lon="12.444884613811736"><ele>191.0</ele><time>2026-05-02T14:27:02Z</time></trkpt><trkpt lat="42.777616661698914" lon="12.444722610881435"><ele>191.0</ele><time>2026-05-02T14:27:03Z</time></trkpt><trkpt lat="42.77779081701807" lon="12.444550374429818"><ele>191.0</ele><time>2026-05-02T14:27:04Z</time></trkpt><trkpt lat="42.77796101630575" lon="12.444364135650051"><ele>191.33333333333331</ele><time>2026-05-02T14:27:05Z</time></trkpt><trkpt lat="42.77812482086942" lon="12.444166067641923"><ele>191.66666666666666</ele><time>2026-05-02T14:27:06Z</time></trkpt><trkpt lat="42.778286798188475" lon="12.443973686871685"><ele>192.0</ele><time>2026-05-02T14:27:07Z</time></trkpt><trkpt lat="42.77844273445349" lon="12.443756790939808"><ele>189.33333333333334</ele><time>2026-05-02T14:27:08Z</time></trkpt><trkpt lat="42.778592014165675" lon="12.443540337406725"><ele>186.66666666666669</ele><time>2026-05-02T14:27:09Z</time></trkpt><trkpt lat="42.77873448383484" lon="12.443309089396118"><ele>184.0</ele><time>2026-05-02T14:27:10Z</time></trkpt><trkpt lat="42.77887208821364" lon="12.443076214569377"><ele>186.5</ele><time>2026-05-02T14:27:11Z</time></trkpt><trkpt lat="42.77902445337784" lon="12.442839818214564"><ele>189.0</ele><time>2026-05-02T14:27:12Z</time></trkpt><trkpt lat="42.7791622090371" lon="12.44260214673376"><ele>189.0</ele><time>2026-05-02T14:27:13Z</time></trkpt><trkpt lat="42.77930551383636" lon="12.442367848968779"><ele>189.0</ele><time>2026-05-02T14:27:14Z</time></trkpt><trkpt lat="42.7794356734846" lon="12.442141660985614"><ele>189.0</ele><time>2026-05-02T14:27:15Z</time></trkpt><trkpt lat="42.77957590194173" lon="12.441907281277958"><ele>188.66666666666666</ele><time>2026-05-02T14:27:16Z</time></trkpt><trkpt lat="42.77971860329079" lon="12.441681481578565"><ele>188.33333333333331</ele><time>2026-05-02T14:27:17Z</time></trkpt><trkpt lat="42.779850636079615" lon="12.44146377575114"><ele>188.0</ele><time>2026-05-02T14:27:18Z</time></trkpt><trkpt lat="42.77997504469449" lon="12.441256120240002"><ele>189.33333333333331</ele><time>2026-05-02T14:27:19Z</time></trkpt><trkpt lat="42.78009168909081" lon="12.441063680683667"><ele>190.66666666666666</ele><time>2026-05-02T14:27:20Z</time></trkpt><trkpt lat="42.780196651355986" lon="12.440890734203922"><ele>192.0</ele><time>2026-05-02T14:27:21Z</time></trkpt><trkpt lat="42.780312119595514" lon="12.440688182144108"><ele>188.66666666666666</ele><time>2026-05-02T14:27:22Z</time></trkpt><trkpt lat="42.78043288938015" lon="12.440470594079368"><ele>185.33333333333331</ele><time>2026-05-02T14:27:23Z</time></trkpt><trkpt lat="42.78055987747956" lon="12.440257999728445"><ele>182.0</ele><time>2026-05-02T14:27:24Z</time></trkpt><trkpt lat="42.7806814765255" lon="12.440037987085905"><ele>182.0</ele><time>2026-05-02T14:27:25Z</time></trkpt><trkpt lat="42.78080962496628" lon="12.439808873235672"><ele>182.0</ele><time>2026-05-02T14:27:26Z</time></trkpt><trkpt lat="42.78094195381092" lon="12.439583607929396"><ele>182.0</ele><time>2026-05-02T14:27:27Z</time></trkpt><trkpt lat="42.78107380095313" lon="12.439351668767015"><ele>181.33333333333331</ele><time>2026-05-02T14:27:28Z</time></trkpt><trkpt lat="42.781209509254424" lon="12.439119285643425"><ele>180.66666666666666</ele><time>2026-05-02T14:27:29Z</time></trkpt><trkpt lat="42.78135085621712" lon="12.43888664545683"><ele>180.0</ele><time>2026-05-02T14:27:30Z</time></trkpt><trkpt lat="42.78149425183102" lon="12.438654472629462"><ele>180.0</ele><time>2026-05-02T14:27:31Z</time></trkpt><trkpt lat="42.78163358106737" lon="12.438415842104828"><ele>180.0</ele><time>2026-05-02T14:27:32Z</time></trkpt><trkpt lat="42.7817764007319" lon="12.438178191499999"><ele>180.0</ele><time>2026-05-02T14:27:33Z</time></trkpt><trkpt lat="42.781912044469465" lon="12.43794148331646"><ele>177.33333333333334</ele><time>2026-05-02T14:27:34Z</time></trkpt><trkpt lat="42.78204945293845" lon="12.437709095689776"><ele>174.66666666666669</ele><time>2026-05-02T14:27:35Z</time></trkpt><trkpt lat="42.782191388292546" lon="12.437483813163817"><ele>172.0</ele><time>2026-05-02T14:27:36Z</time></trkpt><trkpt lat="42.782324427229156" lon="12.437242177884666"><ele>171.66666666666669</ele><time>2026-05-02T14:27:37Z</time></trkpt><trkpt lat="42.7824651145452" lon="12.437013642156364"><ele>171.33333333333334</ele><time>2026-05-02T14:27:38Z</time></trkpt><trkpt lat="42.7826002523569" lon="12.436779488307595"><ele>171.0</ele><time>2026-05-02T14:27:39Z</time></trkpt><trkpt lat="42.78273614656064" lon="12.43655091153081"><ele>171.0</ele><time>2026-05-02T14:27:40Z</time></trkpt><trkpt lat="42.782869871322646" lon="12.436326834135059"><ele>171.0</ele><time>2026-05-02T14:27:41Z</time></trkpt><trkpt lat="42.78300322984213" lon="12.436101307577802"><ele>171.0</ele><time>2026-05-02T14:27:42Z</time></trkpt><trkpt lat="42.78313508008756" lon="12.435875058810442"><ele>171.0</ele><time>2026-05-02T14:27:43Z</time></trkpt><trkpt lat="42.783267245035006" lon="12.43565063121592"><ele>171.0</ele><time>2026-05-02T14:27:44Z</time></trkpt><trkpt lat="42.783401086546164" lon="12.43543564926468"><ele>171.0</ele><time>2026-05-02T14:27:45Z</time></trkpt><trkpt lat="42.783535341925464" lon="12.435216438725245"><ele>171.0</ele><time>2026-05-02T14:27:46Z</time></trkpt><trkpt lat="42.7836641242856" lon="12.435002837186675"><ele>171.0</ele><time>2026-05-02T14:27:47Z</time></trkpt><trkpt lat="42.78379095955797" lon="12.434791052801808"><ele>171.0</ele><time>2026-05-02T14:27:48Z</time></trkpt><trkpt lat="42.78391342130693" lon="12.434580928725833"><ele>171.0</ele><time>2026-05-02T14:27:49Z</time></trkpt><trkpt lat="42.78403393380173" lon="12.434374610366788"><ele>171.0</ele><time>2026-05-02T14:27:50Z</time></trkpt><trkpt lat="42.78415538968889" lon="12.434172644355273"><ele>171.0</ele><time>2026-05-02T14:27:51Z</time></trkpt><trkpt lat="42.78427703273737" lon="12.433972098124958"><ele>170.0</ele><time>2026-05-02T14:27:52Z</time></trkpt><trkpt lat="42.784400126392875" lon="12.433768053977317"><ele>169.0</ele><time>2026-05-02T14:27:53Z</time></trkpt><trkpt lat="42.784524087982305" lon="12.433561696584738"><ele>168.0</ele><time>2026-05-02T14:27:54Z</time></trkpt><trkpt lat="42.78464807444478" lon="12.433353851516468"><ele>168.0</ele><time>2026-05-02T14:27:55Z</time></trkpt><trkpt lat="42.78477402298091" lon="12.433146174544662"><ele>168.0</ele><time>2026-05-02T14:27:56Z</time></trkpt><trkpt lat="42.78489572664441" lon="12.432929418270042"><ele>168.0</ele><time>2026-05-02T14:27:57Z</time></trkpt><trkpt lat="42.785021109059564" lon="12.432720341862675"><ele>168.33333333333334</ele><time>2026-05-02T14:27:58Z</time></trkpt><trkpt lat="42.78514552118064" lon="12.432511041802652"><ele>168.66666666666669</ele><time>2026-05-02T14:27:59Z</time></trkpt><trkpt lat="42.785270483334266" lon="12.432303063939244"><ele>169.0</ele><time>2026-05-02T14:28:00Z</time></trkpt><trkpt lat="42.785397897613535" lon="12.432101996755588"><ele>167.66666666666669</ele><time>2026-05-02T14:28:01Z</time></trkpt><trkpt lat="42.78552389895369" lon="12.431892569475387"><ele>166.33333333333334</ele><time>2026-05-02T14:28:02Z</time></trkpt><trkpt lat="42.785649961388756" lon="12.431677017941023"><ele>165.0</ele><time>2026-05-02T14:28:03Z</time></trkpt><trkpt lat="42.78577756038038" lon="12.43145824642441"><ele>165.0</ele><time>2026-05-02T14:28:04Z</time></trkpt><trkpt lat="42.785909722715836" lon="12.431238591807622"><ele>165.0</ele><time>2026-05-02T14:28:05Z</time></trkpt><trkpt lat="42.78604024934944" lon="12.431015579102542"><ele>165.0</ele><time>2026-05-02T14:28:06Z</time></trkpt><trkpt lat="42.78617588634497" lon="12.4307789218841"><ele>165.0</ele><time>2026-05-02T14:28:07Z</time></trkpt><trkpt lat="42.78631576156375" lon="12.430542924470842"><ele>165.0</ele><time>2026-05-02T14:28:08Z</time></trkpt><trkpt lat="42.78645941061563" lon="12.430301026182223"><ele>166.0</ele><time>2026-05-02T14:28:09Z</time></trkpt><trkpt lat="42.78660084387488" lon="12.430044764014466"><ele>167.0</ele><time>2026-05-02T14:28:10Z</time></trkpt><trkpt lat="42.78674476771476" lon="12.429783639101826"><ele>164.0</ele><time>2026-05-02T14:28:11Z</time></trkpt><trkpt lat="42.78689754086039" lon="12.429521875897468"><ele>161.0</ele><time>2026-05-02T14:28:12Z</time></trkpt><trkpt lat="42.78705329741254" lon="12.429260953986292"><ele>161.0</ele><time>2026-05-02T14:28:13Z</time></trkpt><trkpt lat="42.787210411835474" lon="12.42899741491356"><ele>161.0</ele><time>2026-05-02T14:28:14Z</time></trkpt><trkpt lat="42.78737079663902" lon="12.428725265037075"><ele>161.5</ele><time>2026-05-02T14:28:15Z</time></trkpt><trkpt lat="42.787536141194416" lon="12.428456831512731"><ele>162.0</ele><time>2026-05-02T14:28:16Z</time></trkpt><trkpt lat="42.787703700486674" lon="12.42819241665603"><ele>162.5</ele><time>2026-05-02T14:28:17Z</time></trkpt><trkpt lat="42.787878742218936" lon="12.427928383001182"><ele>163.0</ele><time>2026-05-02T14:28:18Z</time></trkpt><trkpt lat="42.78805708869779" lon="12.427661619473533"><ele>163.0</ele><time>2026-05-02T14:28:19Z</time></trkpt><trkpt lat="42.788229526682294" lon="12.427383899781912"><ele>163.0</ele><time>2026-05-02T14:28:20Z</time></trkpt><trkpt lat="42.78839707540593" lon="12.427096967912378"><ele>166.0</ele><time>2026-05-02T14:28:21Z</time></trkpt><trkpt lat="42.78856859378347" lon="12.42681635395874"><ele>169.0</ele><time>2026-05-02T14:28:22Z</time></trkpt><trkpt lat="42.788735481606444" lon="12.426524722991925"><ele>167.5</ele><time>2026-05-02T14:28:23Z</time></trkpt><trkpt lat="42.78889959884102" lon="12.426242316987299"><ele>166.0</ele><time>2026-05-02T14:28:24Z</time></trkpt><trkpt lat="42.789062898168325" lon="12.425970364470245"><ele>166.0</ele><time>2026-05-02T14:28:25Z</time></trkpt><trkpt lat="42.78922525045945" lon="12.425679114388752"><ele>166.0</ele><time>2026-05-02T14:28:26Z</time></trkpt><trkpt lat="42.78939894144962" lon="12.425377232912174"><ele>169.0</ele><time>2026-05-02T14:28:27Z</time></trkpt><trkpt lat="42.789569365673486" lon="12.425078664376304"><ele>172.0</ele><time>2026-05-02T14:28:28Z</time></trkpt><trkpt lat="42.78974208394656" lon="12.424788054113705"><ele>170.5</ele><time>2026-05-02T14:28:29Z</time></trkpt><trkpt lat="42.7899134940932" lon="12.424471582403896"><ele>169.0</ele><time>2026-05-02T14:28:30Z</time></trkpt><trkpt lat="42.790091432893334" lon="12.424165683563693"><ele>171.5</ele><time>2026-05-02T14:28:31Z</time></trkpt><trkpt lat="42.79027143544949" lon="12.42386398612486"><ele>174.0</ele><time>2026-05-02T14:28:32Z</time></trkpt><trkpt lat="42.79044947800107" lon="12.423548758636189"><ele>174.0</ele><time>2026-05-02T14:28:33Z</time></trkpt><trkpt lat="42.79062415454501" lon="12.42321601053613"><ele>174.0</ele><time>2026-05-02T14:28:34Z</time></trkpt><trkpt lat="42.79080357676249" lon="12.4229237241299"><ele>175.0</ele><time>2026-05-02T14:28:35Z</time></trkpt><trkpt lat="42.790978676153465" lon="12.422647873251002"><ele>176.0</ele><time>2026-05-02T14:28:36Z</time></trkpt><trkpt lat="42.79115483754208" lon="12.422367423356501"><ele>171.5</ele><time>2026-05-02T14:28:37Z</time></trkpt><trkpt lat="42.79132887457884" lon="12.42208992881349"><ele>167.0</ele><time>2026-05-02T14:28:38Z</time></trkpt><trkpt lat="42.79151183094433" lon="12.421805029885576"><ele>167.0</ele><time>2026-05-02T14:28:39Z</time></trkpt><trkpt lat="42.79170234776376" lon="12.421539848357682"><ele>167.0</ele><time>2026-05-02T14:28:40Z</time></trkpt><trkpt lat="42.79185835590269" lon="12.421283628409798"><ele>166.5</ele><time>2026-05-02T14:28:41Z</time></trkpt><trkpt lat="42.79204164512132" lon="12.42103750671788"><ele>166.0</ele><time>2026-05-02T14:28:42Z</time></trkpt><trkpt lat="42.79222511528071" lon="12.420798239595369"><ele>166.0</ele><time>2026-05-02T14:28:43Z</time></trkpt><trkpt lat="42.79241040817434" lon="12.420557094425199"><ele>166.0</ele><time>2026-05-02T14:28:44Z</time></trkpt><trkpt lat="42.792601921941525" lon="12.42032201685748"><ele>166.0</ele><time>2026-05-02T14:28:45Z</time></trkpt><trkpt lat="42.7927977687888" lon="12.420100420087538"><ele>166.0</ele><time>2026-05-02T14:28:46Z</time></trkpt><trkpt lat="42.79299215504358" lon="12.419888371008122"><ele>166.0</ele><time>2026-05-02T14:28:47Z</time></trkpt><trkpt lat="42.79318994302862" lon="12.419668545872044"><ele>166.0</ele><time>2026-05-02T14:28:48Z</time></trkpt><trkpt lat="42.79338807695584" lon="12.419441469910018"><ele>169.0</ele><time>2026-05-02T14:28:49Z</time></trkpt><trkpt lat="42.793583296016095" lon="12.419219527711949"><ele>172.0</ele><time>2026-05-02T14:28:50Z</time></trkpt><trkpt lat="42.7937806743063" lon="12.418996598176028"><ele>169.0</ele><time>2026-05-02T14:28:51Z</time></trkpt><trkpt lat="42.79397944244264" lon="12.418767826059584"><ele>166.0</ele><time>2026-05-02T14:28:52Z</time></trkpt><trkpt lat="42.79417985468848" lon="12.418540290963499"><ele>169.0</ele><time>2026-05-02T14:28:53Z</time></trkpt><trkpt lat="42.794382444779146" lon="12.418309810262553"><ele>172.0</ele><time>2026-05-02T14:28:54Z</time></trkpt><trkpt lat="42.79458392814906" lon="12.418072588458013"><ele>168.5</ele><time>2026-05-02T14:28:55Z</time></trkpt><trkpt lat="42.794785648270704" lon="12.417827774920697"><ele>165.0</ele><time>2026-05-02T14:28:56Z</time></trkpt><trkpt lat="42.7949971542839" lon="12.417583221148506"><ele>165.0</ele><time>2026-05-02T14:28:57Z</time></trkpt><trkpt lat="42.795207479693055" lon="12.417328088127448"><ele>165.0</ele><time>2026-05-02T14:28:58Z</time></trkpt><trkpt lat="42.795424347211565" lon="12.417075835952353"><ele>165.0</ele><time>2026-05-02T14:28:59Z</time></trkpt><trkpt lat="42.79564116315281" lon="12.416824765399"><ele>165.0</ele><time>2026-05-02T14:29:00Z</time></trkpt><trkpt lat="42.795857590148564" lon="12.416577668557165"><ele>164.5</ele><time>2026-05-02T14:29:01Z</time></trkpt><trkpt lat="42.79607471692486" lon="12.416329738904281"><ele>164.0</ele><time>2026-05-02T14:29:02Z</time></trkpt><trkpt lat="42.796290157196644" lon="12.416078030461847"><ele>164.0</ele><time>2026-05-02T14:29:03Z</time></trkpt><trkpt lat="42.79650697119237" lon="12.415827728638648"><ele>164.0</ele><time>2026-05-02T14:29:04Z</time></trkpt><trkpt lat="42.796725058643354" lon="12.415577610433917"><ele>162.0</ele><time>2026-05-02T14:29:05Z</time></trkpt><trkpt lat="42.796943321728236" lon="12.415335105762269"><ele>160.0</ele><time>2026-05-02T14:29:06Z</time></trkpt><trkpt lat="42.79715977309074" lon="12.415092329207814"><ele>160.0</ele><time>2026-05-02T14:29:07Z</time></trkpt><trkpt lat="42.79738157093727" lon="12.41485190565223"><ele>160.0</ele><time>2026-05-02T14:29:08Z</time></trkpt><trkpt lat="42.797603981857705" lon="12.41462415693811"><ele>160.0</ele><time>2026-05-02T14:29:09Z</time></trkpt><trkpt lat="42.79781790594557" lon="12.414385153518896"><ele>160.0</ele><time>2026-05-02T14:29:10Z</time></trkpt><trkpt lat="42.79805115024301" lon="12.4141453227401"><ele>160.0</ele><time>2026-05-02T14:29:11Z</time></trkpt><trkpt lat="42.79825768324201" lon="12.413929417971323"><ele>160.0</ele><time>2026-05-02T14:29:12Z</time></trkpt><trkpt lat="42.798447857107206" lon="12.4136739107656"><ele>159.5</ele><time>2026-05-02T14:29:13Z</time></trkpt><trkpt lat="42.79865405860637" lon="12.413446262089323"><ele>159.0</ele><time>2026-05-02T14:29:14Z</time></trkpt><trkpt lat="42.79886039838449" lon="12.413214477780668"><ele>157.0</ele><time>2026-05-02T14:29:15Z</time></trkpt><trkpt lat="42.79906277346814" lon="12.412979974046795"><ele>155.0</ele><time>2026-05-02T14:29:16Z</time></trkpt><trkpt lat="42.79926808955327" lon="12.412741327537322"><ele>155.0</ele><time>2026-05-02T14:29:17Z</time></trkpt><trkpt lat="42.799470378832766" lon="12.41250111465397"><ele>155.0</ele><time>2026-05-02T14:29:18Z</time></trkpt><trkpt lat="42.79967846933553" lon="12.412255415269028"><ele>153.5</ele><time>2026-05-02T14:29:19Z</time></trkpt><trkpt lat="42.79988319471767" lon="12.412008488265597"><ele>152.0</ele><time>2026-05-02T14:29:20Z</time></trkpt><trkpt lat="42.80009274420576" lon="12.41175517119775"><ele>151.5</ele><time>2026-05-02T14:29:21Z</time></trkpt><trkpt lat="42.80030734256132" lon="12.411504524402236"><ele>151.0</ele><time>2026-05-02T14:29:22Z</time></trkpt><trkpt lat="42.800520985460096" lon="12.411263074181187"><ele>151.0</ele><time>2026-05-02T14:29:23Z</time></trkpt><trkpt lat="42.8007391986083" lon="12.41102108193135"><ele>151.0</ele><time>2026-05-02T14:29:24Z</time></trkpt><trkpt lat="42.80095467127925" lon="12.41077637172037"><ele>150.0</ele><time>2026-05-02T14:29:25Z</time></trkpt><trkpt lat="42.80116815136263" lon="12.410526055497975"><ele>149.0</ele><time>2026-05-02T14:29:26Z</time></trkpt><trkpt lat="42.801379916985944" lon="12.410278960375647"><ele>149.0</ele><time>2026-05-02T14:29:27Z</time></trkpt><trkpt lat="42.801591030684996" lon="12.410035844871473"><ele>149.0</ele><time>2026-05-02T14:29:28Z</time></trkpt><trkpt lat="42.80180340368923" lon="12.409800416217907"><ele>149.0</ele><time>2026-05-02T14:29:29Z</time></trkpt><trkpt lat="42.80201433405835" lon="12.409565316151479"><ele>149.0</ele><time>2026-05-02T14:29:30Z</time></trkpt><trkpt lat="42.80222655799172" lon="12.40932576979338"><ele>149.0</ele><time>2026-05-02T14:29:31Z</time></trkpt><trkpt lat="42.802441222096014" lon="12.409094289238572"><ele>149.0</ele><time>2026-05-02T14:29:32Z</time></trkpt><trkpt lat="42.8026585841144" lon="12.408867263066146"><ele>149.0</ele><time>2026-05-02T14:29:33Z</time></trkpt><trkpt lat="42.802885732185175" lon="12.40866068658882"><ele>149.0</ele><time>2026-05-02T14:29:34Z</time></trkpt><trkpt lat="42.80312737049191" lon="12.408483739945337"><ele>149.0</ele><time>2026-05-02T14:29:35Z</time></trkpt><trkpt lat="42.803372912386315" lon="12.408317355310025"><ele>149.0</ele><time>2026-05-02T14:29:36Z</time></trkpt><trkpt lat="42.803628022958264" lon="12.408174857778041"><ele>149.0</ele><time>2026-05-02T14:29:37Z</time></trkpt><trkpt lat="42.80388213729772" lon="12.408044328208538"><ele>149.0</ele><time>2026-05-02T14:29:38Z</time></trkpt><trkpt lat="42.80414063910355" lon="12.407927560166385"><ele>149.0</ele><time>2026-05-02T14:29:39Z</time></trkpt><trkpt lat="42.80440184187499" lon="12.407817233950341"><ele>149.0</ele><time>2026-05-02T14:29:40Z</time></trkpt><trkpt lat="42.8046684066033" lon="12.40773410441358"><ele>149.0</ele><time>2026-05-02T14:29:41Z</time></trkpt><trkpt lat="42.80493410742139" lon="12.40766453395596"><ele>149.0</ele><time>2026-05-02T14:29:42Z</time></trkpt><trkpt lat="42.805201416860385" lon="12.407594282432942"><ele>148.5</ele><time>2026-05-02T14:29:43Z</time></trkpt><trkpt lat="42.8054661591419" lon="12.407528899975375"><ele>148.0</ele><time>2026-05-02T14:29:44Z</time></trkpt><trkpt lat="42.80573561533726" lon="12.40745319196835"><ele>148.0</ele><time>2026-05-02T14:29:45Z</time></trkpt><trkpt lat="42.806006144871596" lon="12.407373477015787"><ele>148.0</ele><time>2026-05-02T14:29:46Z</time></trkpt><trkpt lat="42.806278183004075" lon="12.40729804624233"><ele>148.0</ele><time>2026-05-02T14:29:47Z</time></trkpt><trkpt lat="42.80655115073738" lon="12.407221715456922"><ele>148.0</ele><time>2026-05-02T14:29:48Z</time></trkpt><trkpt lat="42.80682436484453" lon="12.407145687486283"><ele>146.5</ele><time>2026-05-02T14:29:49Z</time></trkpt><trkpt lat="42.80709865747111" lon="12.407072341108265"><ele>145.0</ele><time>2026-05-02T14:29:50Z</time></trkpt><trkpt lat="42.80737225819696" lon="12.406994761466455"><ele>145.0</ele><time>2026-05-02T14:29:51Z</time></trkpt><trkpt lat="42.80764954370151" lon="12.406924804746925"><ele>145.0</ele><time>2026-05-02T14:29:52Z</time></trkpt><trkpt lat="42.807921806762366" lon="12.406842991326542"><ele>145.5</ele><time>2026-05-02T14:29:53Z</time></trkpt><trkpt lat="42.808195694218796" lon="12.406763294480832"><ele>146.0</ele><time>2026-05-02T14:29:54Z</time></trkpt><trkpt lat="42.808475388479735" lon="12.406687990908566"><ele>146.5</ele><time>2026-05-02T14:29:55Z</time></trkpt><trkpt lat="42.80874938436963" lon="12.406611642581023"><ele>147.0</ele><time>2026-05-02T14:29:56Z</time></trkpt><trkpt lat="42.809023735110706" lon="12.406536673381902"><ele>147.0</ele><time>2026-05-02T14:29:57Z</time></trkpt><trkpt lat="42.80930010958262" lon="12.406461059508086"><ele>147.0</ele><time>2026-05-02T14:29:58Z</time></trkpt><trkpt lat="42.80957977257792" lon="12.406379673531308"><ele>146.0</ele><time>2026-05-02T14:29:59Z</time></trkpt><trkpt lat="42.80985581800635" lon="12.406301338180397"><ele>145.0</ele><time>2026-05-02T14:30:00Z</time></trkpt><trkpt lat="42.81013191947478" lon="12.406223067600106"><ele>145.5</ele><time>2026-05-02T14:30:01Z</time></trkpt><trkpt lat="42.81040717248814" lon="12.406147740914504"><ele>146.0</ele><time>2026-05-02T14:30:02Z</time></trkpt><trkpt lat="42.81067564206639" lon="12.406090408200054"><ele>146.0</ele><time>2026-05-02T14:30:03Z</time></trkpt><trkpt lat="42.81096111842125" lon="12.405995766068324"><ele>146.0</ele><time>2026-05-02T14:30:04Z</time></trkpt><trkpt lat="42.81123274631905" lon="12.405917808134353"><ele>146.5</ele><time>2026-05-02T14:30:05Z</time></trkpt><trkpt lat="42.811502480330056" lon="12.405843350783622"><ele>147.0</ele><time>2026-05-02T14:30:06Z</time></trkpt><trkpt lat="42.81177252151782" lon="12.40576710853848"><ele>146.5</ele><time>2026-05-02T14:30:07Z</time></trkpt><trkpt lat="42.812039165433895" lon="12.40568756264696"><ele>146.0</ele><time>2026-05-02T14:30:08Z</time></trkpt><trkpt lat="42.81230322192941" lon="12.405611121703608"><ele>146.0</ele><time>2026-05-02T14:30:09Z</time></trkpt><trkpt lat="42.81256548818001" lon="12.405528535761835"><ele>146.0</ele><time>2026-05-02T14:30:10Z</time></trkpt><trkpt lat="42.81282347288891" lon="12.405433748559577"><ele>147.5</ele><time>2026-05-02T14:30:11Z</time></trkpt><trkpt lat="42.81307677634366" lon="12.405318636431705"><ele>149.0</ele><time>2026-05-02T14:30:12Z</time></trkpt><trkpt lat="42.813325835808726" lon="12.405178647422057"><ele>149.0</ele><time>2026-05-02T14:30:13Z</time></trkpt><trkpt lat="42.81356767567533" lon="12.40504221260531"><ele>149.0</ele><time>2026-05-02T14:30:14Z</time></trkpt><trkpt lat="42.81381129359064" lon="12.404879704793078"><ele>149.0</ele><time>2026-05-02T14:30:15Z</time></trkpt><trkpt lat="42.814049412004806" lon="12.404718124510692"><ele>149.0</ele><time>2026-05-02T14:30:16Z</time></trkpt><trkpt lat="42.81428300429057" lon="12.404547023956129"><ele>149.5</ele><time>2026-05-02T14:30:17Z</time></trkpt><trkpt lat="42.81451516168394" lon="12.404367946381791"><ele>150.0</ele><time>2026-05-02T14:30:18Z</time></trkpt><trkpt lat="42.81473133037717" lon="12.404167443787328"><ele>150.0</ele><time>2026-05-02T14:30:19Z</time></trkpt><trkpt lat="42.81495299138378" lon="12.403967256229212"><ele>150.0</ele><time>2026-05-02T14:30:20Z</time></trkpt><trkpt lat="42.815177385088646" lon="12.403760414030113"><ele>149.5</ele><time>2026-05-02T14:30:21Z</time></trkpt><trkpt lat="42.81540316630854" lon="12.403529660485493"><ele>149.0</ele><time>2026-05-02T14:30:22Z</time></trkpt><trkpt lat="42.81564328616819" lon="12.403308304400708"><ele>149.0</ele><time>2026-05-02T14:30:23Z</time></trkpt><trkpt lat="42.81588620705955" lon="12.403085326366451"><ele>149.0</ele><time>2026-05-02T14:30:24Z</time></trkpt><trkpt lat="42.81613017682086" lon="12.402867581460827"><ele>149.5</ele><time>2026-05-02T14:30:25Z</time></trkpt><trkpt lat="42.8163738698157" lon="12.402656541715032"><ele>150.0</ele><time>2026-05-02T14:30:26Z</time></trkpt><trkpt lat="42.81662017920211" lon="12.402440416936756"><ele>150.0</ele><time>2026-05-02T14:30:27Z</time></trkpt><trkpt lat="42.81686507795318" lon="12.402218501324528"><ele>150.0</ele><time>2026-05-02T14:30:28Z</time></trkpt><trkpt lat="42.81710609578806" lon="12.402014512959841"><ele>150.0</ele><time>2026-05-02T14:30:29Z</time></trkpt><trkpt lat="42.81734606032615" lon="12.401806417552443"><ele>150.0</ele><time>2026-05-02T14:30:30Z</time></trkpt><trkpt lat="42.81759017984273" lon="12.401590176923433"><ele>152.5</ele><time>2026-05-02T14:30:31Z</time></trkpt><trkpt lat="42.81783083171945" lon="12.401375044951227"><ele>155.0</ele><time>2026-05-02T14:30:32Z</time></trkpt><trkpt lat="42.81806634173085" lon="12.401183700134226"><ele>155.0</ele><time>2026-05-02T14:30:33Z</time></trkpt><trkpt lat="42.81831555706553" lon="12.400975595724482"><ele>155.0</ele><time>2026-05-02T14:30:34Z</time></trkpt><trkpt lat="42.81856813781988" lon="12.400786600627201"><ele>157.0</ele><time>2026-05-02T14:30:35Z</time></trkpt><trkpt lat="42.81881108325088" lon="12.400597320239946"><ele>159.0</ele><time>2026-05-02T14:30:36Z</time></trkpt><trkpt lat="42.819094825002736" lon="12.40044000164741"><ele>163.0</ele><time>2026-05-02T14:30:37Z</time></trkpt><trkpt lat="42.81937544627078" lon="12.400319131775207"><ele>167.0</ele><time>2026-05-02T14:30:38Z</time></trkpt><trkpt lat="42.81965505783315" lon="12.400188650364292"><ele>167.0</ele><time>2026-05-02T14:30:39Z</time></trkpt><trkpt lat="42.819937891775425" lon="12.400072429551686"><ele>167.0</ele><time>2026-05-02T14:30:40Z</time></trkpt><trkpt lat="42.82021460441113" lon="12.399973227570628"><ele>168.5</ele><time>2026-05-02T14:30:41Z</time></trkpt><trkpt lat="42.82050245692258" lon="12.399892003591916"><ele>170.0</ele><time>2026-05-02T14:30:42Z</time></trkpt><trkpt lat="42.82080166828443" lon="12.399822462268709"><ele>171.0</ele><time>2026-05-02T14:30:43Z</time></trkpt><trkpt lat="42.82111756984536" lon="12.399754372688571"><ele>172.0</ele><time>2026-05-02T14:30:44Z</time></trkpt><trkpt lat="42.82140510817819" lon="12.399668749199288"><ele>173.0</ele><time>2026-05-02T14:30:45Z</time></trkpt><trkpt lat="42.82167936569208" lon="12.399604722289437"><ele>174.0</ele><time>2026-05-02T14:30:46Z</time></trkpt><trkpt lat="42.82198032533929" lon="12.399528978979214"><ele>176.0</ele><time>2026-05-02T14:30:47Z</time></trkpt><trkpt lat="42.82227128133556" lon="12.3994559233436"><ele>178.0</ele><time>2026-05-02T14:30:48Z</time></trkpt><trkpt lat="42.822565705606" lon="12.399382679492199"><ele>180.0</ele><time>2026-05-02T14:30:49Z</time></trkpt><trkpt lat="42.82285747981621" lon="12.399312796372012"><ele>182.0</ele><time>2026-05-02T14:30:50Z</time></trkpt><trkpt lat="42.82314576932464" lon="12.399254182783276"><ele>182.0</ele><time>2026-05-02T14:30:51Z</time></trkpt><trkpt lat="42.82343506669226" lon="12.399209730714803"><ele>182.0</ele><time>2026-05-02T14:30:52Z</time></trkpt><trkpt lat="42.82372450657079" lon="12.399166257771682"><ele>183.0</ele><time>2026-05-02T14:30:53Z</time></trkpt><trkpt lat="42.82400903441828" lon="12.39910944600536"><ele>184.0</ele><time>2026-05-02T14:30:54Z</time></trkpt><trkpt lat="42.82428104125588" lon="12.399038228427461"><ele>187.0</ele><time>2026-05-02T14:30:55Z</time></trkpt><trkpt lat="42.82453658400672" lon="12.39898895306491"><ele>190.0</ele><time>2026-05-02T14:30:56Z</time></trkpt><trkpt lat="42.82481491793641" lon="12.398961187170764"><ele>190.0</ele><time>2026-05-02T14:30:57Z</time></trkpt><trkpt lat="42.825082516437135" lon="12.398940747098287"><ele>190.0</ele><time>2026-05-02T14:30:58Z</time></trkpt><trkpt lat="42.82534971073237" lon="12.39894588500572"><ele>192.0</ele><time>2026-05-02T14:30:59Z</time></trkpt><trkpt lat="42.82560819309005" lon="12.398954186062994"><ele>194.0</ele><time>2026-05-02T14:31:00Z</time></trkpt><trkpt lat="42.82587504886567" lon="12.398960589535807"><ele>194.0</ele><time>2026-05-02T14:31:01Z</time></trkpt><trkpt lat="42.826144719749905" lon="12.398984132947183"><ele>194.0</ele><time>2026-05-02T14:31:02Z</time></trkpt><trkpt lat="42.826417535992896" lon="12.399014067942923"><ele>194.0</ele><time>2026-05-02T14:31:03Z</time></trkpt><trkpt lat="42.82668949372071" lon="12.399052359228833"><ele>194.0</ele><time>2026-05-02T14:31:04Z</time></trkpt><trkpt lat="42.82695864796879" lon="12.39910374496936"><ele>190.5</ele><time>2026-05-02T14:31:05Z</time></trkpt><trkpt lat="42.82723112858144" lon="12.399187451685076"><ele>187.0</ele><time>2026-05-02T14:31:06Z</time></trkpt><trkpt lat="42.82750722558857" lon="12.399270539606256"><ele>181.5</ele><time>2026-05-02T14:31:07Z</time></trkpt><trkpt lat="42.82778182985119" lon="12.399358618668654"><ele>176.0</ele><time>2026-05-02T14:31:08Z</time></trkpt><trkpt lat="42.82806935586927" lon="12.399455135498744"><ele>176.0</ele><time>2026-05-02T14:31:09Z</time></trkpt><trkpt lat="42.828352341158364" lon="12.399552553547238"><ele>176.0</ele><time>2026-05-02T14:31:10Z</time></trkpt><trkpt lat="42.82861227222905" lon="12.399613477890481"><ele>176.0</ele><time>2026-05-02T14:31:11Z</time></trkpt><trkpt lat="42.82888467648963" lon="12.399689298532559"><ele>176.0</ele><time>2026-05-02T14:31:12Z</time></trkpt><trkpt lat="42.82915548138204" lon="12.3997726746226"><ele>172.5</ele><time>2026-05-02T14:31:13Z</time></trkpt><trkpt lat="42.82943444385603" lon="12.399852669054043"><ele>169.0</ele><time>2026-05-02T14:31:14Z</time></trkpt><trkpt lat="42.82970196144542" lon="12.399941435503896"><ele>169.0</ele><time>2026-05-02T14:31:15Z</time></trkpt><trkpt lat="42.82997648361469" lon="12.400019402102892"><ele>169.0</ele><time>2026-05-02T14:31:16Z</time></trkpt><trkpt lat="42.83025264644217" lon="12.40009440634034"><ele>166.5</ele><time>2026-05-02T14:31:17Z</time></trkpt><trkpt lat="42.830512413865385" lon="12.400165988908226"><ele>164.0</ele><time>2026-05-02T14:31:18Z</time></trkpt><trkpt lat="42.830768917134755" lon="12.40025262023635"><ele>161.0</ele><time>2026-05-02T14:31:19Z</time></trkpt><trkpt lat="42.83100718541121" lon="12.400346405858109"><ele>158.0</ele><time>2026-05-02T14:31:20Z</time></trkpt><trkpt lat="42.831249299742254" lon="12.400453032117573"><ele>161.5</ele><time>2026-05-02T14:31:21Z</time></trkpt><trkpt lat="42.831481990729" lon="12.400569149598029"><ele>165.0</ele><time>2026-05-02T14:31:22Z</time></trkpt><trkpt lat="42.8317167687185" lon="12.400688606262317"><ele>162.5</ele><time>2026-05-02T14:31:23Z</time></trkpt><trkpt lat="42.831943897494064" lon="12.40081461727493"><ele>160.0</ele><time>2026-05-02T14:31:24Z</time></trkpt><trkpt lat="42.832153369810804" lon="12.400946005667759"><ele>160.0</ele><time>2026-05-02T14:31:25Z</time></trkpt><trkpt lat="42.832348769374626" lon="12.40107202900515"><ele>160.0</ele><time>2026-05-02T14:31:26Z</time></trkpt><trkpt lat="42.83253773949844" lon="12.401190684590913"><ele>160.0</ele><time>2026-05-02T14:31:27Z</time></trkpt><trkpt lat="42.83272151053901" lon="12.401314806238537"><ele>159.66666666666669</ele><time>2026-05-02T14:31:28Z</time></trkpt><trkpt lat="42.83290330598843" lon="12.401430793236523"><ele>159.33333333333334</ele><time>2026-05-02T14:31:29Z</time></trkpt><trkpt lat="42.83308676148726" lon="12.401543014777095"><ele>159.0</ele><time>2026-05-02T14:31:30Z</time></trkpt><trkpt lat="42.833276187899095" lon="12.401655524620624"><ele>159.0</ele><time>2026-05-02T14:31:31Z</time></trkpt><trkpt lat="42.83345015900103" lon="12.401771310314341"><ele>159.0</ele><time>2026-05-02T14:31:32Z</time></trkpt><trkpt lat="42.83364021966596" lon="12.401884367689288"><ele>159.0</ele><time>2026-05-02T14:31:33Z</time></trkpt><trkpt lat="42.83384910047593" lon="12.40201601942865"><ele>157.0</ele><time>2026-05-02T14:31:34Z</time></trkpt><trkpt lat="42.834081956254295" lon="12.402146725324746"><ele>155.0</ele><time>2026-05-02T14:31:35Z</time></trkpt><trkpt lat="42.834308479216595" lon="12.40228601348564"><ele>154.5</ele><time>2026-05-02T14:31:36Z</time></trkpt><trkpt lat="42.834529261285404" lon="12.40243201590292"><ele>154.0</ele><time>2026-05-02T14:31:37Z</time></trkpt><trkpt lat="42.83475925013291" lon="12.402577689129824"><ele>154.0</ele><time>2026-05-02T14:31:38Z</time></trkpt><trkpt lat="42.83499465561635" lon="12.40273408362337"><ele>154.0</ele><time>2026-05-02T14:31:39Z</time></trkpt><trkpt lat="42.835230388430176" lon="12.402892355319104"><ele>155.0</ele><time>2026-05-02T14:31:40Z</time></trkpt><trkpt lat="42.83546546041522" lon="12.403052271434364"><ele>156.0</ele><time>2026-05-02T14:31:41Z</time></trkpt><trkpt lat="42.835693831423384" lon="12.403209255555657"><ele>156.0</ele><time>2026-05-02T14:31:42Z</time></trkpt><trkpt lat="42.835927023361606" lon="12.403366267723715"><ele>156.0</ele><time>2026-05-02T14:31:43Z</time></trkpt><trkpt lat="42.83615957302328" lon="12.403524291721704"><ele>157.0</ele><time>2026-05-02T14:31:44Z</time></trkpt><trkpt lat="42.83638764556071" lon="12.403686709976103"><ele>158.0</ele><time>2026-05-02T14:31:45Z</time></trkpt><trkpt lat="42.83661843239694" lon="12.403852683091207"><ele>156.5</ele><time>2026-05-02T14:31:46Z</time></trkpt><trkpt lat="42.8368471522964" lon="12.404025610481513"><ele>155.0</ele><time>2026-05-02T14:31:47Z</time></trkpt><trkpt lat="42.837072105764086" lon="12.40420613372288"><ele>155.0</ele><time>2026-05-02T14:31:48Z</time></trkpt><trkpt lat="42.837296741002916" lon="12.404373664897093"><ele>155.0</ele><time>2026-05-02T14:31:49Z</time></trkpt><trkpt lat="42.83750669495099" lon="12.40456707842303"><ele>154.5</ele><time>2026-05-02T14:31:50Z</time></trkpt><trkpt lat="42.837708391779564" lon="12.404757334770782"><ele>154.0</ele><time>2026-05-02T14:31:51Z</time></trkpt><trkpt lat="42.83792270250927" lon="12.404947902957856"><ele>154.0</ele><time>2026-05-02T14:31:52Z</time></trkpt><trkpt lat="42.838120969362" lon="12.405126148419573"><ele>154.0</ele><time>2026-05-02T14:31:53Z</time></trkpt><trkpt lat="42.8383342459077" lon="12.405310524404168"><ele>154.0</ele><time>2026-05-02T14:31:54Z</time></trkpt><trkpt lat="42.838543390178785" lon="12.405493321593346"><ele>154.0</ele><time>2026-05-02T14:31:55Z</time></trkpt><trkpt lat="42.838749432455295" lon="12.405681258775505"><ele>154.0</ele><time>2026-05-02T14:31:56Z</time></trkpt><trkpt lat="42.83895379388198" lon="12.405864768511945"><ele>154.0</ele><time>2026-05-02T14:31:57Z</time></trkpt><trkpt lat="42.83915970970579" lon="12.406054055842949"><ele>154.0</ele><time>2026-05-02T14:31:58Z</time></trkpt><trkpt lat="42.83936724798006" lon="12.40624330538836"><ele>154.0</ele><time>2026-05-02T14:31:59Z</time></trkpt><trkpt lat="42.83957655555743" lon="12.406430590787382"><ele>155.0</ele><time>2026-05-02T14:32:00Z</time></trkpt><trkpt lat="42.83978297200923" lon="12.406615281631328"><ele>156.0</ele><time>2026-05-02T14:32:01Z</time></trkpt><trkpt lat="42.83998853787346" lon="12.406803619673928"><ele>158.0</ele><time>2026-05-02T14:32:02Z</time></trkpt><trkpt lat="42.84019616381342" lon="12.406995896048256"><ele>160.0</ele><time>2026-05-02T14:32:03Z</time></trkpt><trkpt lat="42.84040321713309" lon="12.407185600079142"><ele>160.0</ele><time>2026-05-02T14:32:04Z</time></trkpt><trkpt lat="42.84060985217525" lon="12.40737469620721"><ele>160.0</ele><time>2026-05-02T14:32:05Z</time></trkpt><trkpt lat="42.84081970885817" lon="12.407565034118226"><ele>157.0</ele><time>2026-05-02T14:32:06Z</time></trkpt><trkpt lat="42.841030582977666" lon="12.407754966827587"><ele>154.0</ele><time>2026-05-02T14:32:07Z</time></trkpt><trkpt lat="42.84124902253138" lon="12.40793610336513"><ele>157.5</ele><time>2026-05-02T14:32:08Z</time></trkpt><trkpt lat="42.84147309487799" lon="12.408106084570502"><ele>161.0</ele><time>2026-05-02T14:32:09Z</time></trkpt><trkpt lat="42.84169652778275" lon="12.408260794972746"><ele>160.0</ele><time>2026-05-02T14:32:10Z</time></trkpt><trkpt lat="42.84192312721378" lon="12.40839512642127"><ele>159.0</ele><time>2026-05-02T14:32:11Z</time></trkpt><trkpt lat="42.8421595402416" lon="12.408513951680552"><ele>159.0</ele><time>2026-05-02T14:32:12Z</time></trkpt><trkpt lat="42.84240186793018" lon="12.40860492843651"><ele>159.0</ele><time>2026-05-02T14:32:13Z</time></trkpt><trkpt lat="42.84264759284708" lon="12.408667785154522"><ele>158.5</ele><time>2026-05-02T14:32:14Z</time></trkpt><trkpt lat="42.842896588538295" lon="12.408709945914097"><ele>158.0</ele><time>2026-05-02T14:32:15Z</time></trkpt><trkpt lat="42.843145163577795" lon="12.408736527625447"><ele>158.0</ele><time>2026-05-02T14:32:16Z</time></trkpt><trkpt lat="42.8433977254071" lon="12.408736704917771"><ele>158.0</ele><time>2026-05-02T14:32:17Z</time></trkpt><trkpt lat="42.843649758047164" lon="12.408717431616731"><ele>158.0</ele><time>2026-05-02T14:32:18Z</time></trkpt><trkpt lat="42.84391001876832" lon="12.408656689537038"><ele>158.0</ele><time>2026-05-02T14:32:19Z</time></trkpt><trkpt lat="42.844161859669256" lon="12.408581168348059"><ele>157.5</ele><time>2026-05-02T14:32:20Z</time></trkpt><trkpt lat="42.84441085151031" lon="12.408477401953979"><ele>157.0</ele><time>2026-05-02T14:32:21Z</time></trkpt><trkpt lat="42.84465621383629" lon="12.40835712696149"><ele>157.0</ele><time>2026-05-02T14:32:22Z</time></trkpt><trkpt lat="42.84489589794463" lon="12.408217753307593"><ele>157.0</ele><time>2026-05-02T14:32:23Z</time></trkpt><trkpt lat="42.845131573401424" lon="12.408056655428235"><ele>156.5</ele><time>2026-05-02T14:32:24Z</time></trkpt><trkpt lat="42.84536793031454" lon="12.40789637166262"><ele>156.0</ele><time>2026-05-02T14:32:25Z</time></trkpt><trkpt lat="42.845604973677666" lon="12.407731886890364"><ele>156.0</ele><time>2026-05-02T14:32:26Z</time></trkpt><trkpt lat="42.84584605242276" lon="12.4075599398747"><ele>156.0</ele><time>2026-05-02T14:32:27Z</time></trkpt><trkpt lat="42.846083202534565" lon="12.407395378312202"><ele>155.5</ele><time>2026-05-02T14:32:28Z</time></trkpt><trkpt lat="42.84631842275654" lon="12.407236892169559"><ele>155.0</ele><time>2026-05-02T14:32:29Z</time></trkpt><trkpt lat="42.846556992765684" lon="12.407077445460564"><ele>157.5</ele><time>2026-05-02T14:32:30Z</time></trkpt><trkpt lat="42.846795395719056" lon="12.406919705378655"><ele>160.0</ele><time>2026-05-02T14:32:31Z</time></trkpt><trkpt lat="42.847021367912134" lon="12.406742461962791"><ele>160.0</ele><time>2026-05-02T14:32:32Z</time></trkpt><trkpt lat="42.84726460124889" lon="12.406579831811333"><ele>160.0</ele><time>2026-05-02T14:32:33Z</time></trkpt><trkpt lat="42.84751462460484" lon="12.406435759468348"><ele>158.5</ele><time>2026-05-02T14:32:34Z</time></trkpt><trkpt lat="42.84772643824908" lon="12.406243501086601"><ele>157.0</ele><time>2026-05-02T14:32:35Z</time></trkpt><trkpt lat="42.84797257601391" lon="12.406090714532588"><ele>157.0</ele><time>2026-05-02T14:32:36Z</time></trkpt><trkpt lat="42.8482161204894" lon="12.405928037937514"><ele>157.0</ele><time>2026-05-02T14:32:37Z</time></trkpt><trkpt lat="42.84845590217063" lon="12.405767368992981"><ele>156.5</ele><time>2026-05-02T14:32:38Z</time></trkpt><trkpt lat="42.84869085389944" lon="12.405621136909193"><ele>156.0</ele><time>2026-05-02T14:32:39Z</time></trkpt><trkpt lat="42.84892647984457" lon="12.405462562225194"><ele>156.0</ele><time>2026-05-02T14:32:40Z</time></trkpt><trkpt lat="42.84916237032916" lon="12.405305662239694"><ele>156.0</ele><time>2026-05-02T14:32:41Z</time></trkpt><trkpt lat="42.84939550089018" lon="12.405149262460721"><ele>156.5</ele><time>2026-05-02T14:32:42Z</time></trkpt><trkpt lat="42.849629044881375" lon="12.404994433067644"><ele>157.0</ele><time>2026-05-02T14:32:43Z</time></trkpt><trkpt lat="42.849862168507286" lon="12.404838752591543"><ele>157.0</ele><time>2026-05-02T14:32:44Z</time></trkpt><trkpt lat="42.85009855455375" lon="12.404682609345263"><ele>157.0</ele><time>2026-05-02T14:32:45Z</time></trkpt><trkpt lat="42.85033253409617" lon="12.404529539950717"><ele>155.5</ele><time>2026-05-02T14:32:46Z</time></trkpt><trkpt lat="42.85056335327397" lon="12.404379378365949"><ele>154.0</ele><time>2026-05-02T14:32:47Z</time></trkpt><trkpt lat="42.85079663598625" lon="12.404226481709543"><ele>155.0</ele><time>2026-05-02T14:32:48Z</time></trkpt><trkpt lat="42.85102837166422" lon="12.40407037420684"><ele>156.0</ele><time>2026-05-02T14:32:49Z</time></trkpt><trkpt lat="42.85125845170315" lon="12.403917861100462"><ele>155.5</ele><time>2026-05-02T14:32:50Z</time></trkpt><trkpt lat="42.85149600787105" lon="12.403762658537387"><ele>155.0</ele><time>2026-05-02T14:32:51Z</time></trkpt><trkpt lat="42.851727996649856" lon="12.403604415064532"><ele>155.5</ele><time>2026-05-02T14:32:52Z</time></trkpt><trkpt lat="42.85195760212646" lon="12.403448019487671"><ele>156.0</ele><time>2026-05-02T14:32:53Z</time></trkpt><trkpt lat="42.85219461191897" lon="12.403296034615558"><ele>156.0</ele><time>2026-05-02T14:32:54Z</time></trkpt><trkpt lat="42.85242994909422" lon="12.403141479192222"><ele>156.0</ele><time>2026-05-02T14:32:55Z</time></trkpt><trkpt lat="42.852665092619105" lon="12.402992569224923"><ele>155.5</ele><time>2026-05-02T14:32:56Z</time></trkpt><trkpt lat="42.85289482618048" lon="12.402838564274338"><ele>155.0</ele><time>2026-05-02T14:32:57Z</time></trkpt><trkpt lat="42.8531253886483" lon="12.402679654865283"><ele>155.0</ele><time>2026-05-02T14:32:58Z</time></trkpt><trkpt lat="42.85335138058925" lon="12.402515053671646"><ele>155.0</ele><time>2026-05-02T14:32:59Z</time></trkpt><trkpt lat="42.853581775534224" lon="12.402357557449536"><ele>155.0</ele><time>2026-05-02T14:33:00Z</time></trkpt><trkpt lat="42.85381293760399" lon="12.40220575103806"><ele>155.0</ele><time>2026-05-02T14:33:01Z</time></trkpt><trkpt lat="42.85404107257088" lon="12.402044145512228"><ele>155.0</ele><time>2026-05-02T14:33:02Z</time></trkpt><trkpt lat="42.85426607002684" lon="12.401895147236177"><ele>155.0</ele><time>2026-05-02T14:33:03Z</time></trkpt><trkpt lat="42.854492650946995" lon="12.401747030530366"><ele>155.5</ele><time>2026-05-02T14:33:04Z</time></trkpt><trkpt lat="42.854718221508534" lon="12.401594713915568"><ele>156.0</ele><time>2026-05-02T14:33:05Z</time></trkpt><trkpt lat="42.85494630065538" lon="12.40145009523913"><ele>155.0</ele><time>2026-05-02T14:33:06Z</time></trkpt><trkpt lat="42.85517213257929" lon="12.401296937165062"><ele>154.0</ele><time>2026-05-02T14:33:07Z</time></trkpt><trkpt lat="42.85539821614217" lon="12.401140280475667"><ele>154.0</ele><time>2026-05-02T14:33:08Z</time></trkpt><trkpt lat="42.855632694598064" lon="12.400974693528148"><ele>154.0</ele><time>2026-05-02T14:33:09Z</time></trkpt><trkpt lat="42.855839294408604" lon="12.400858236199749"><ele>154.0</ele><time>2026-05-02T14:33:10Z</time></trkpt><trkpt lat="42.85609485495325" lon="12.40070464620316"><ele>154.0</ele><time>2026-05-02T14:33:11Z</time></trkpt><trkpt lat="42.85632322353094" lon="12.400571833668085"><ele>154.5</ele><time>2026-05-02T14:33:12Z</time></trkpt><trkpt lat="42.85656040092062" lon="12.40045260958877"><ele>155.0</ele><time>2026-05-02T14:33:13Z</time></trkpt><trkpt lat="42.85680399773833" lon="12.400343710806668"><ele>155.0</ele><time>2026-05-02T14:33:14Z</time></trkpt><trkpt lat="42.857050081590735" lon="12.400246908717193"><ele>155.0</ele><time>2026-05-02T14:33:15Z</time></trkpt><trkpt lat="42.8572991562153" lon="12.400155643143863"><ele>155.0</ele><time>2026-05-02T14:33:16Z</time></trkpt><trkpt lat="42.85754660393998" lon="12.400072431989672"><ele>155.0</ele><time>2026-05-02T14:33:17Z</time></trkpt><trkpt lat="42.85779644046352" lon="12.400001240958638"><ele>155.0</ele><time>2026-05-02T14:33:18Z</time></trkpt><trkpt lat="42.85804780276929" lon="12.399938875266539"><ele>155.0</ele><time>2026-05-02T14:33:19Z</time></trkpt><trkpt lat="42.85829945679687" lon="12.399885516530077"><ele>155.0</ele><time>2026-05-02T14:33:20Z</time></trkpt><trkpt lat="42.858553838344626" lon="12.399835723441845"><ele>155.0</ele><time>2026-05-02T14:33:21Z</time></trkpt><trkpt lat="42.8588084682119" lon="12.39978739550111"><ele>155.0</ele><time>2026-05-02T14:33:22Z</time></trkpt><trkpt lat="42.85906284310245" lon="12.399734643702883"><ele>155.0</ele><time>2026-05-02T14:33:23Z</time></trkpt><trkpt lat="42.859315675006854" lon="12.399678543041428"><ele>155.5</ele><time>2026-05-02T14:33:24Z</time></trkpt><trkpt lat="42.859572895398244" lon="12.399621657445053"><ele>156.0</ele><time>2026-05-02T14:33:25Z</time></trkpt><trkpt lat="42.85981281369559" lon="12.399579357880006"><ele>156.0</ele><time>2026-05-02T14:33:26Z</time></trkpt><trkpt lat="42.86007885250846" lon="12.399528720549919"><ele>156.0</ele><time>2026-05-02T14:33:27Z</time></trkpt><trkpt lat="42.86033962633755" lon="12.399480311938147"><ele>156.5</ele><time>2026-05-02T14:33:28Z</time></trkpt><trkpt lat="42.860596519207995" lon="12.399437456716852"><ele>157.0</ele><time>2026-05-02T14:33:29Z</time></trkpt><trkpt lat="42.86085129709632" lon="12.399372926034848"><ele>156.5</ele><time>2026-05-02T14:33:30Z</time></trkpt><trkpt lat="42.86110763115663" lon="12.399313833961447"><ele>156.0</ele><time>2026-05-02T14:33:31Z</time></trkpt><trkpt lat="42.861365858479644" lon="12.399267257363697"><ele>156.0</ele><time>2026-05-02T14:33:32Z</time></trkpt><trkpt lat="42.86162744304476" lon="12.39921038116597"><ele>156.0</ele><time>2026-05-02T14:33:33Z</time></trkpt><trkpt lat="42.86188895875695" lon="12.399159008222224"><ele>157.0</ele><time>2026-05-02T14:33:34Z</time></trkpt><trkpt lat="42.86214975886199" lon="12.399111002910967"><ele>158.0</ele><time>2026-05-02T14:33:35Z</time></trkpt><trkpt lat="42.862411111987264" lon="12.399058726305222"><ele>158.5</ele><time>2026-05-02T14:33:36Z</time></trkpt><trkpt lat="42.862673929983025" lon="12.399002177689981"><ele>159.0</ele><time>2026-05-02T14:33:37Z</time></trkpt><trkpt lat="42.862936080882015" lon="12.398944266536153"><ele>159.0</ele><time>2026-05-02T14:33:38Z</time></trkpt><trkpt lat="42.863196756974745" lon="12.398886055966912"><ele>159.0</ele><time>2026-05-02T14:33:39Z</time></trkpt><trkpt lat="42.86345984419454" lon="12.398831050113264"><ele>159.5</ele><time>2026-05-02T14:33:40Z</time></trkpt><trkpt lat="42.86372392955483" lon="12.398778177780486"><ele>160.0</ele><time>2026-05-02T14:33:41Z</time></trkpt><trkpt lat="42.863985812566604" lon="12.398719186797727"><ele>160.0</ele><time>2026-05-02T14:33:42Z</time></trkpt><trkpt lat="42.864250371447426" lon="12.398666492496352"><ele>160.0</ele><time>2026-05-02T14:33:43Z</time></trkpt><trkpt lat="42.86451348815539" lon="12.398610947581837"><ele>161.0</ele><time>2026-05-02T14:33:44Z</time></trkpt><trkpt lat="42.864766139620414" lon="12.39855860534544"><ele>162.0</ele><time>2026-05-02T14:33:45Z</time></trkpt><trkpt lat="42.86501467134425" lon="12.398504851640228"><ele>161.0</ele><time>2026-05-02T14:33:46Z</time></trkpt><trkpt lat="42.86526269908254" lon="12.398440224538598"><ele>160.0</ele><time>2026-05-02T14:33:47Z</time></trkpt><trkpt lat="42.8655092112718" lon="12.398381071193398"><ele>160.0</ele><time>2026-05-02T14:33:48Z</time></trkpt><trkpt lat="42.8657584952304" lon="12.39832737210224"><ele>160.0</ele><time>2026-05-02T14:33:49Z</time></trkpt><trkpt lat="42.866010219397296" lon="12.398284827774452"><ele>161.0</ele><time>2026-05-02T14:33:50Z</time></trkpt><trkpt lat="42.86626123771122" lon="12.398233095772472"><ele>162.0</ele><time>2026-05-02T14:33:51Z</time></trkpt><trkpt lat="42.86651257738078" lon="12.398179171753739"><ele>162.0</ele><time>2026-05-02T14:33:52Z</time></trkpt><trkpt lat="42.86676768701654" lon="12.398128756797348"><ele>162.0</ele><time>2026-05-02T14:33:53Z</time></trkpt><trkpt lat="42.867018104869075" lon="12.398075392153123"><ele>162.0</ele><time>2026-05-02T14:33:54Z</time></trkpt><trkpt lat="42.867270239006814" lon="12.398023303549227"><ele>162.0</ele><time>2026-05-02T14:33:55Z</time></trkpt><trkpt lat="42.86752158603198" lon="12.397977144720238"><ele>162.5</ele><time>2026-05-02T14:33:56Z</time></trkpt><trkpt lat="42.867770166926626" lon="12.397919516107907"><ele>163.0</ele><time>2026-05-02T14:33:57Z</time></trkpt><trkpt lat="42.8680211050711" lon="12.397876476086937"><ele>163.0</ele><time>2026-05-02T14:33:58Z</time></trkpt><trkpt lat="42.86827063166253" lon="12.397823733389385"><ele>163.0</ele><time>2026-05-02T14:33:59Z</time></trkpt><trkpt lat="42.86851995937657" lon="12.397777792756461"><ele>162.5</ele><time>2026-05-02T14:34:00Z</time></trkpt><trkpt lat="42.86876767904087" lon="12.397729516516247"><ele>162.0</ele><time>2026-05-02T14:34:01Z</time></trkpt><trkpt lat="42.86903109173594" lon="12.397674497796844"><ele>162.0</ele><time>2026-05-02T14:34:02Z</time></trkpt><trkpt lat="42.869271934743765" lon="12.397625207036642"><ele>162.0</ele><time>2026-05-02T14:34:03Z</time></trkpt><trkpt lat="42.86951459174765" lon="12.397577417380544"><ele>163.0</ele><time>2026-05-02T14:34:04Z</time></trkpt><trkpt lat="42.86976620705997" lon="12.397527360574156"><ele>164.0</ele><time>2026-05-02T14:34:05Z</time></trkpt><trkpt lat="42.87001617361724" lon="12.397482531591304"><ele>165.0</ele><time>2026-05-02T14:34:06Z</time></trkpt><trkpt lat="42.87027552554497" lon="12.397430818157561"><ele>166.0</ele><time>2026-05-02T14:34:07Z</time></trkpt><trkpt lat="42.87052461519296" lon="12.397380687661602"><ele>166.0</ele><time>2026-05-02T14:34:08Z</time></trkpt><trkpt lat="42.870774188716084" lon="12.397322895508372"><ele>166.0</ele><time>2026-05-02T14:34:09Z</time></trkpt><trkpt lat="42.87102451309922" lon="12.39726348653658"><ele>166.5</ele><time>2026-05-02T14:34:10Z</time></trkpt><trkpt lat="42.87127348692541" lon="12.397200518845"><ele>167.0</ele><time>2026-05-02T14:34:11Z</time></trkpt><trkpt lat="42.87152457453566" lon="12.397141311085507"><ele>167.0</ele><time>2026-05-02T14:34:12Z</time></trkpt><trkpt lat="42.87177739362005" lon="12.397098218228223"><ele>167.0</ele><time>2026-05-02T14:34:13Z</time></trkpt><trkpt lat="42.872039858617235" lon="12.397052383396765"><ele>167.0</ele><time>2026-05-02T14:34:14Z</time></trkpt><trkpt lat="42.87229282933319" lon="12.397001543191799"><ele>167.0</ele><time>2026-05-02T14:34:15Z</time></trkpt><trkpt lat="42.872546974411506" lon="12.396951901894633"><ele>165.5</ele><time>2026-05-02T14:34:16Z</time></trkpt><trkpt lat="42.872801323981015" lon="12.396898899574305"><ele>164.0</ele><time>2026-05-02T14:34:17Z</time></trkpt><trkpt lat="42.87305515446305" lon="12.396843131952354"><ele>164.0</ele><time>2026-05-02T14:34:18Z</time></trkpt><trkpt lat="42.873307234996346" lon="12.396786949565982"><ele>164.0</ele><time>2026-05-02T14:34:19Z</time></trkpt><trkpt lat="42.87355956454894" lon="12.396735240171651"><ele>164.5</ele><time>2026-05-02T14:34:20Z</time></trkpt><trkpt lat="42.87381427213949" lon="12.39668432130732"><ele>165.0</ele><time>2026-05-02T14:34:21Z</time></trkpt><trkpt lat="42.874069300022654" lon="12.396635123083579"><ele>165.0</ele><time>2026-05-02T14:34:22Z</time></trkpt><trkpt lat="42.87432502480915" lon="12.396589350632874"><ele>165.0</ele><time>2026-05-02T14:34:23Z</time></trkpt><trkpt lat="42.87458379208352" lon="12.396543681029033"><ele>165.0</ele><time>2026-05-02T14:34:24Z</time></trkpt><trkpt lat="42.87483803949328" lon="12.396497436674194"><ele>165.0</ele><time>2026-05-02T14:34:25Z</time></trkpt><trkpt lat="42.87509370544585" lon="12.396457749272775"><ele>165.5</ele><time>2026-05-02T14:34:26Z</time></trkpt><trkpt lat="42.87535012814685" lon="12.396425245957428"><ele>166.0</ele><time>2026-05-02T14:34:27Z</time></trkpt><trkpt lat="42.87560576808471" lon="12.396385189972214"><ele>166.0</ele><time>2026-05-02T14:34:28Z</time></trkpt><trkpt lat="42.87587034171963" lon="12.396348390441958"><ele>166.0</ele><time>2026-05-02T14:34:29Z</time></trkpt><trkpt lat="42.87612207536364" lon="12.39631592304768"><ele>165.5</ele><time>2026-05-02T14:34:30Z</time></trkpt><trkpt lat="42.876379538101965" lon="12.396280862458093"><ele>165.0</ele><time>2026-05-02T14:34:31Z</time></trkpt><trkpt lat="42.8766357420044" lon="12.396245539545665"><ele>165.0</ele><time>2026-05-02T14:34:32Z</time></trkpt><trkpt lat="42.876890607097266" lon="12.396211182157138"><ele>165.0</ele><time>2026-05-02T14:34:33Z</time></trkpt><trkpt lat="42.877146274635535" lon="12.396171748381262"><ele>165.0</ele><time>2026-05-02T14:34:34Z</time></trkpt><trkpt lat="42.87741356028646" lon="12.396150535321922"><ele>165.0</ele><time>2026-05-02T14:34:35Z</time></trkpt><trkpt lat="42.877667216231295" lon="12.396128293640231"><ele>166.5</ele><time>2026-05-02T14:34:36Z</time></trkpt><trkpt lat="42.877914890321335" lon="12.39607128058884"><ele>168.0</ele><time>2026-05-02T14:34:37Z</time></trkpt><trkpt lat="42.87816738513502" lon="12.396033708422234"><ele>168.0</ele><time>2026-05-02T14:34:38Z</time></trkpt><trkpt lat="42.878427777187554" lon="12.396002954043402"><ele>168.0</ele><time>2026-05-02T14:34:39Z</time></trkpt><trkpt lat="42.878684961338145" lon="12.395969683711382"><ele>169.0</ele><time>2026-05-02T14:34:40Z</time></trkpt><trkpt lat="42.87894683407003" lon="12.395937025954753"><ele>170.0</ele><time>2026-05-02T14:34:41Z</time></trkpt><trkpt lat="42.87920490976747" lon="12.39590203325857"><ele>169.5</ele><time>2026-05-02T14:34:42Z</time></trkpt><trkpt lat="42.879467422706526" lon="12.395862844347933"><ele>169.0</ele><time>2026-05-02T14:34:43Z</time></trkpt><trkpt lat="42.87973166016848" lon="12.395834203662222"><ele>169.0</ele><time>2026-05-02T14:34:44Z</time></trkpt><trkpt lat="42.87999570196246" lon="12.395796283958342"><ele>169.0</ele><time>2026-05-02T14:34:45Z</time></trkpt><trkpt lat="42.88025696832354" lon="12.3957465323621"><ele>169.5</ele><time>2026-05-02T14:34:46Z</time></trkpt><trkpt lat="42.88052451620133" lon="12.3957139026815"><ele>170.0</ele><time>2026-05-02T14:34:47Z</time></trkpt><trkpt lat="42.88079299972518" lon="12.395685304153579"><ele>170.0</ele><time>2026-05-02T14:34:48Z</time></trkpt><trkpt lat="42.88105834917461" lon="12.395644593951982"><ele>170.0</ele><time>2026-05-02T14:34:49Z</time></trkpt><trkpt lat="42.88132344230385" lon="12.3955956034588"><ele>170.0</ele><time>2026-05-02T14:34:50Z</time></trkpt><trkpt lat="42.88159481969524" lon="12.395566061351346"><ele>170.0</ele><time>2026-05-02T14:34:51Z</time></trkpt><trkpt lat="42.881861726396025" lon="12.395532565937435"><ele>169.0</ele><time>2026-05-02T14:34:52Z</time></trkpt><trkpt lat="42.88212770080527" lon="12.395499202754662"><ele>168.0</ele><time>2026-05-02T14:34:53Z</time></trkpt><trkpt lat="42.88238980726773" lon="12.395459644285383"><ele>166.5</ele><time>2026-05-02T14:34:54Z</time></trkpt><trkpt lat="42.88267037075493" lon="12.395429869215882"><ele>165.0</ele><time>2026-05-02T14:34:55Z</time></trkpt><trkpt lat="42.88292826695915" lon="12.39539450361374"><ele>165.0</ele><time>2026-05-02T14:34:56Z</time></trkpt><trkpt lat="42.88319418754545" lon="12.395361227193039"><ele>165.0</ele><time>2026-05-02T14:34:57Z</time></trkpt><trkpt lat="42.883452023617984" lon="12.395326445536833"><ele>165.5</ele><time>2026-05-02T14:34:58Z</time></trkpt><trkpt lat="42.88371020154837" lon="12.395272858714597"><ele>166.0</ele><time>2026-05-02T14:34:59Z</time></trkpt><trkpt lat="42.8839734121837" lon="12.395210786333898"><ele>166.0</ele><time>2026-05-02T14:35:00Z</time></trkpt><trkpt lat="42.88422430406067" lon="12.395134055456378"><ele>166.0</ele><time>2026-05-02T14:35:01Z</time></trkpt><trkpt lat="42.8844921548851" lon="12.395083761867742"><ele>167.0</ele><time>2026-05-02T14:35:02Z</time></trkpt><trkpt lat="42.8847536088821" lon="12.394991168903843"><ele>168.0</ele><time>2026-05-02T14:35:03Z</time></trkpt><trkpt lat="42.88501243063923" lon="12.39488907118218"><ele>167.5</ele><time>2026-05-02T14:35:04Z</time></trkpt><trkpt lat="42.885265945582596" lon="12.394765875059106"><ele>167.0</ele><time>2026-05-02T14:35:05Z</time></trkpt><trkpt lat="42.885514040077595" lon="12.394634847975068"><ele>167.0</ele><time>2026-05-02T14:35:06Z</time></trkpt><trkpt lat="42.88575699927027" lon="12.394485484605514"><ele>167.0</ele><time>2026-05-02T14:35:07Z</time></trkpt><trkpt lat="42.886005286474216" lon="12.394338349942252"><ele>169.0</ele><time>2026-05-02T14:35:08Z</time></trkpt><trkpt lat="42.886249429593654" lon="12.394186615057315"><ele>171.0</ele><time>2026-05-02T14:35:09Z</time></trkpt><trkpt lat="42.886500138655464" lon="12.394039164945022"><ele>171.0</ele><time>2026-05-02T14:35:10Z</time></trkpt><trkpt lat="42.88674990221999" lon="12.3938964864738"><ele>171.0</ele><time>2026-05-02T14:35:11Z</time></trkpt><trkpt lat="42.887003850858605" lon="12.393767771331346"><ele>166.0</ele><time>2026-05-02T14:35:12Z</time></trkpt><trkpt lat="42.88725194950827" lon="12.39360395514412"><ele>161.0</ele><time>2026-05-02T14:35:13Z</time></trkpt><trkpt lat="42.88749356359395" lon="12.393453503470848"><ele>161.5</ele><time>2026-05-02T14:35:14Z</time></trkpt><trkpt lat="42.88773922080443" lon="12.393307602227521"><ele>162.0</ele><time>2026-05-02T14:35:15Z</time></trkpt><trkpt lat="42.88798403627161" lon="12.393159306188366"><ele>162.0</ele><time>2026-05-02T14:35:16Z</time></trkpt><trkpt lat="42.8882340406207" lon="12.393016319131986"><ele>162.0</ele><time>2026-05-02T14:35:17Z</time></trkpt><trkpt lat="42.88847395925554" lon="12.392870168522688"><ele>160.5</ele><time>2026-05-02T14:35:18Z</time></trkpt><trkpt lat="42.88871746113724" lon="12.392727229136957"><ele>159.0</ele><time>2026-05-02T14:35:19Z</time></trkpt><trkpt lat="42.88896335321906" lon="12.392579525327601"><ele>159.0</ele><time>2026-05-02T14:35:20Z</time></trkpt><trkpt lat="42.88921096568082" lon="12.392433107862178"><ele>159.0</ele><time>2026-05-02T14:35:21Z</time></trkpt><trkpt lat="42.88945829717865" lon="12.392288830053168"><ele>156.5</ele><time>2026-05-02T14:35:22Z</time></trkpt><trkpt lat="42.88970834854087" lon="12.392149456802647"><ele>154.0</ele><time>2026-05-02T14:35:23Z</time></trkpt><trkpt lat="42.88995959871474" lon="12.392001992232757"><ele>155.0</ele><time>2026-05-02T14:35:24Z</time></trkpt><trkpt lat="42.8902018637965" lon="12.391848088950766"><ele>156.0</ele><time>2026-05-02T14:35:25Z</time></trkpt><trkpt lat="42.89045063975883" lon="12.391698494363819"><ele>156.0</ele><time>2026-05-02T14:35:26Z</time></trkpt><trkpt lat="42.890689565077714" lon="12.391552910786158"><ele>156.0</ele><time>2026-05-02T14:35:27Z</time></trkpt><trkpt lat="42.89094086431559" lon="12.391419264429592"><ele>155.0</ele><time>2026-05-02T14:35:28Z</time></trkpt><trkpt lat="42.89118762272936" lon="12.39127619048775"><ele>154.0</ele><time>2026-05-02T14:35:29Z</time></trkpt><trkpt lat="42.891433273648715" lon="12.391132415206988"><ele>154.0</ele><time>2026-05-02T14:35:30Z</time></trkpt><trkpt lat="42.891677249137544" lon="12.390986657663928"><ele>154.0</ele><time>2026-05-02T14:35:31Z</time></trkpt><trkpt lat="42.89192000573598" lon="12.390835679976169"><ele>155.5</ele><time>2026-05-02T14:35:32Z</time></trkpt><trkpt lat="42.89216691354808" lon="12.3906907941209"><ele>157.0</ele><time>2026-05-02T14:35:33Z</time></trkpt><trkpt lat="42.892416321556965" lon="12.390548001804053"><ele>157.0</ele><time>2026-05-02T14:35:34Z</time></trkpt><trkpt lat="42.89266681943151" lon="12.39039988127621"><ele>157.0</ele><time>2026-05-02T14:35:35Z</time></trkpt><trkpt lat="42.892912895298096" lon="12.39024795818479"><ele>157.0</ele><time>2026-05-02T14:35:36Z</time></trkpt><trkpt lat="42.89316179224027" lon="12.390103204678375"><ele>157.0</ele><time>2026-05-02T14:35:37Z</time></trkpt><trkpt lat="42.89341320077012" lon="12.389963330313105"><ele>158.0</ele><time>2026-05-02T14:35:38Z</time></trkpt><trkpt lat="42.89366118069056" lon="12.389822224384712"><ele>159.0</ele><time>2026-05-02T14:35:39Z</time></trkpt><trkpt lat="42.893908875483966" lon="12.389676958417681"><ele>158.5</ele><time>2026-05-02T14:35:40Z</time></trkpt><trkpt lat="42.89415921467948" lon="12.389535163368627"><ele>158.0</ele><time>2026-05-02T14:35:41Z</time></trkpt><trkpt lat="42.89440354905222" lon="12.389396649857016"><ele>158.0</ele><time>2026-05-02T14:35:42Z</time></trkpt><trkpt lat="42.89465925207422" lon="12.389276058730777"><ele>158.0</ele><time>2026-05-02T14:35:43Z</time></trkpt><trkpt lat="42.894916131186996" lon="12.389170264748014"><ele>159.0</ele><time>2026-05-02T14:35:44Z</time></trkpt><trkpt lat="42.89517542305857" lon="12.389082565982287"><ele>160.0</ele><time>2026-05-02T14:35:45Z</time></trkpt><trkpt lat="42.89544290491283" lon="12.389014593019255"><ele>160.0</ele><time>2026-05-02T14:35:46Z</time></trkpt><trkpt lat="42.89570850648333" lon="12.388968456941074"><ele>160.0</ele><time>2026-05-02T14:35:47Z</time></trkpt><trkpt lat="42.89597291529593" lon="12.38894295984776"><ele>160.5</ele><time>2026-05-02T14:35:48Z</time></trkpt><trkpt lat="42.89623629727058" lon="12.388930684984814"><ele>161.0</ele><time>2026-05-02T14:35:49Z</time></trkpt><trkpt lat="42.89650146971006" lon="12.388935328115084"><ele>162.5</ele><time>2026-05-02T14:35:50Z</time></trkpt><trkpt lat="42.89676599518292" lon="12.388960856614283"><ele>164.0</ele><time>2026-05-02T14:35:51Z</time></trkpt><trkpt lat="42.897025654459604" lon="12.389005278739063"><ele>164.0</ele><time>2026-05-02T14:35:52Z</time></trkpt><trkpt lat="42.89730417065329" lon="12.389047042845013"><ele>164.0</ele><time>2026-05-02T14:35:53Z</time></trkpt><trkpt lat="42.89756741083181" lon="12.389105371186075"><ele>166.5</ele><time>2026-05-02T14:35:54Z</time></trkpt><trkpt lat="42.897804501911345" lon="12.389162161158021"><ele>169.0</ele><time>2026-05-02T14:35:55Z</time></trkpt><trkpt lat="42.898046722673" lon="12.389214166257052"><ele>169.0</ele><time>2026-05-02T14:35:56Z</time></trkpt><trkpt lat="42.898312849857646" lon="12.38925093988376"><ele>169.0</ele><time>2026-05-02T14:35:57Z</time></trkpt><trkpt lat="42.898572120242704" lon="12.389293782513324"><ele>170.0</ele><time>2026-05-02T14:35:58Z</time></trkpt><trkpt lat="42.898826992103594" lon="12.389345212261347"><ele>171.0</ele><time>2026-05-02T14:35:59Z</time></trkpt><trkpt lat="42.89908308465358" lon="12.38940097845255"><ele>170.0</ele><time>2026-05-02T14:36:00Z</time></trkpt><trkpt lat="42.89934068872855" lon="12.389447977425075"><ele>169.0</ele><time>2026-05-02T14:36:01Z</time></trkpt><trkpt lat="42.899600198054856" lon="12.38950095038002"><ele>169.0</ele><time>2026-05-02T14:36:02Z</time></trkpt><trkpt lat="42.899850831480755" lon="12.389555894472265"><ele>169.0</ele><time>2026-05-02T14:36:03Z</time></trkpt><trkpt lat="42.90010598112734" lon="12.389580901960828"><ele>167.0</ele><time>2026-05-02T14:36:04Z</time></trkpt><trkpt lat="42.900372952323025" lon="12.3896537287746"><ele>165.0</ele><time>2026-05-02T14:36:05Z</time></trkpt><trkpt lat="42.9006406076819" lon="12.389718384338925"><ele>168.0</ele><time>2026-05-02T14:36:06Z</time></trkpt><trkpt lat="42.900908286966725" lon="12.389783205474922"><ele>171.0</ele><time>2026-05-02T14:36:07Z</time></trkpt><trkpt lat="42.901172596699844" lon="12.389836325211151"><ele>171.0</ele><time>2026-05-02T14:36:08Z</time></trkpt><trkpt lat="42.90143404117129" lon="12.389899708744155"><ele>171.0</ele><time>2026-05-02T14:36:09Z</time></trkpt><trkpt lat="42.90169864571689" lon="12.389954801556744"><ele>170.5</ele><time>2026-05-02T14:36:10Z</time></trkpt><trkpt lat="42.901963787092185" lon="12.390019593682869"><ele>170.0</ele><time>2026-05-02T14:36:11Z</time></trkpt><trkpt lat="42.90222518770514" lon="12.390097629953464"><ele>170.0</ele><time>2026-05-02T14:36:12Z</time></trkpt><trkpt lat="42.90247839009976" lon="12.390180738626357"><ele>170.0</ele><time>2026-05-02T14:36:13Z</time></trkpt><trkpt lat="42.90273469872145" lon="12.390262604354133"><ele>169.5</ele><time>2026-05-02T14:36:14Z</time></trkpt><trkpt lat="42.90299010297819" lon="12.390347737473475"><ele>169.0</ele><time>2026-05-02T14:36:15Z</time></trkpt><trkpt lat="42.903248805860585" lon="12.390427141647528"><ele>171.5</ele><time>2026-05-02T14:36:16Z</time></trkpt><trkpt lat="42.90349871607862" lon="12.390520347067321"><ele>174.0</ele><time>2026-05-02T14:36:17Z</time></trkpt><trkpt lat="42.90374921830638" lon="12.390596344405902"><ele>174.0</ele><time>2026-05-02T14:36:18Z</time></trkpt><trkpt lat="42.90400369904687" lon="12.39068203635815"><ele>174.0</ele><time>2026-05-02T14:36:19Z</time></trkpt><trkpt lat="42.90425674046677" lon="12.390767439050654"><ele>173.0</ele><time>2026-05-02T14:36:20Z</time></trkpt><trkpt lat="42.9045080762767" lon="12.390851998357702"><ele>172.0</ele><time>2026-05-02T14:36:21Z</time></trkpt><trkpt lat="42.90475692017059" lon="12.390938185924837"><ele>172.0</ele><time>2026-05-02T14:36:22Z</time></trkpt><trkpt lat="42.90500975708698" lon="12.391013741778377"><ele>172.0</ele><time>2026-05-02T14:36:23Z</time></trkpt><trkpt lat="42.905265599926736" lon="12.391089062744133"><ele>169.5</ele><time>2026-05-02T14:36:24Z</time></trkpt><trkpt lat="42.90551870013277" lon="12.391170549916106"><ele>167.0</ele><time>2026-05-02T14:36:25Z</time></trkpt><trkpt lat="42.90577110589636" lon="12.391251729578766"><ele>166.0</ele><time>2026-05-02T14:36:26Z</time></trkpt><trkpt lat="42.90602555851949" lon="12.391331773274512"><ele>165.0</ele><time>2026-05-02T14:36:27Z</time></trkpt><trkpt lat="42.90627947814064" lon="12.391417458679738"><ele>166.5</ele><time>2026-05-02T14:36:28Z</time></trkpt><trkpt lat="42.90653104583241" lon="12.391505924007204"><ele>168.0</ele><time>2026-05-02T14:36:29Z</time></trkpt><trkpt lat="42.90678494553112" lon="12.391588208193495"><ele>168.0</ele><time>2026-05-02T14:36:30Z</time></trkpt><trkpt lat="42.907031478197645" lon="12.39167432830678"><ele>168.0</ele><time>2026-05-02T14:36:31Z</time></trkpt><trkpt lat="42.90728771955711" lon="12.39174336397716"><ele>168.0</ele><time>2026-05-02T14:36:32Z</time></trkpt><trkpt lat="42.907539168233" lon="12.391812320787"><ele>168.0</ele><time>2026-05-02T14:36:33Z</time></trkpt><trkpt lat="42.9077897941844" lon="12.39188235852392"><ele>168.0</ele><time>2026-05-02T14:36:34Z</time></trkpt><trkpt lat="42.908049125922496" lon="12.391938634426408"><ele>168.0</ele><time>2026-05-02T14:36:35Z</time></trkpt><trkpt lat="42.90829838633361" lon="12.392000109098024"><ele>169.0</ele><time>2026-05-02T14:36:36Z</time></trkpt><trkpt lat="42.90855161145758" lon="12.392040852769787"><ele>170.0</ele><time>2026-05-02T14:36:37Z</time></trkpt><trkpt lat="42.908805547271" lon="12.392087512582075"><ele>170.0</ele><time>2026-05-02T14:36:38Z</time></trkpt><trkpt lat="42.90906446488552" lon="12.39212568085518"><ele>170.0</ele><time>2026-05-02T14:36:39Z</time></trkpt><trkpt lat="42.90932299993479" lon="12.392156877195612"><ele>168.5</ele><time>2026-05-02T14:36:40Z</time></trkpt><trkpt lat="42.909579786967285" lon="12.392182061462753"><ele>167.0</ele><time>2026-05-02T14:36:41Z</time></trkpt><trkpt lat="42.909837985257795" lon="12.392205516188154"><ele>167.0</ele><time>2026-05-02T14:36:42Z</time></trkpt><trkpt lat="42.910096157565434" lon="12.392211238064684"><ele>167.0</ele><time>2026-05-02T14:36:43Z</time></trkpt><trkpt lat="42.910355871469015" lon="12.392216641666066"><ele>167.0</ele><time>2026-05-02T14:36:44Z</time></trkpt><trkpt lat="42.91061558807282" lon="12.392216952626812"><ele>167.0</ele><time>2026-05-02T14:36:45Z</time></trkpt><trkpt lat="42.91087287482195" lon="12.392210135694604"><ele>168.5</ele><time>2026-05-02T14:36:46Z</time></trkpt><trkpt lat="42.91113316977464" lon="12.392199006463288"><ele>170.0</ele><time>2026-05-02T14:36:47Z</time></trkpt><trkpt lat="42.911390473532514" lon="12.392179143165091"><ele>168.5</ele><time>2026-05-02T14:36:48Z</time></trkpt><trkpt lat="42.91164648804404" lon="12.39216397402828"><ele>167.0</ele><time>2026-05-02T14:36:49Z</time></trkpt><trkpt lat="42.91189743353228" lon="12.392132681809574"><ele>167.0</ele><time>2026-05-02T14:36:50Z</time></trkpt><trkpt lat="42.91215356701888" lon="12.392111377657061"><ele>167.0</ele><time>2026-05-02T14:36:51Z</time></trkpt><trkpt lat="42.912407073060336" lon="12.392085160442859"><ele>167.0</ele><time>2026-05-02T14:36:52Z</time></trkpt><trkpt lat="42.91265656771588" lon="12.392059990109468"><ele>167.0</ele><time>2026-05-02T14:36:53Z</time></trkpt><trkpt lat="42.91290863571602" lon="12.392037877930736"><ele>167.0</ele><time>2026-05-02T14:36:54Z</time></trkpt><trkpt lat="42.91315737900399" lon="12.392021230680912"><ele>167.0</ele><time>2026-05-02T14:36:55Z</time></trkpt><trkpt lat="42.91340724800469" lon="12.392004785279617"><ele>167.5</ele><time>2026-05-02T14:36:56Z</time></trkpt><trkpt lat="42.91365489040964" lon="12.39197154379208"><ele>168.0</ele><time>2026-05-02T14:36:57Z</time></trkpt><trkpt lat="42.913904873245656" lon="12.3919489791403"><ele>168.0</ele><time>2026-05-02T14:36:58Z</time></trkpt><trkpt lat="42.91415480816079" lon="12.391924988585096"><ele>168.0</ele><time>2026-05-02T14:36:59Z</time></trkpt><trkpt lat="42.91440586453868" lon="12.391901493884713"><ele>168.5</ele><time>2026-05-02T14:37:00Z</time></trkpt><trkpt lat="42.91465627955071" lon="12.391887959885178"><ele>169.0</ele><time>2026-05-02T14:37:01Z</time></trkpt><trkpt lat="42.91490378207243" lon="12.391861527426826"><ele>168.5</ele><time>2026-05-02T14:37:02Z</time></trkpt><trkpt lat="42.91515330200998" lon="12.391841959307007"><ele>168.0</ele><time>2026-05-02T14:37:03Z</time></trkpt><trkpt lat="42.91540316685773" lon="12.3918257655357"><ele>168.0</ele><time>2026-05-02T14:37:04Z</time></trkpt><trkpt lat="42.915654963245785" lon="12.391810868824809"><ele>168.0</ele><time>2026-05-02T14:37:05Z</time></trkpt><trkpt lat="42.91590791140562" lon="12.39179708822298"><ele>165.0</ele><time>2026-05-02T14:37:06Z</time></trkpt><trkpt lat="42.916158645956024" lon="12.391789632457732"><ele>162.0</ele><time>2026-05-02T14:37:07Z</time></trkpt><trkpt lat="42.91640850584103" lon="12.391786783317633"><ele>162.0</ele><time>2026-05-02T14:37:08Z</time></trkpt><trkpt lat="42.91665758614588" lon="12.391786496034179"><ele>162.0</ele><time>2026-05-02T14:37:09Z</time></trkpt><trkpt lat="42.91690782647216" lon="12.391782874703438"><ele>161.5</ele><time>2026-05-02T14:37:10Z</time></trkpt><trkpt lat="42.917157838213406" lon="12.391779585698295"><ele>161.0</ele><time>2026-05-02T14:37:11Z</time></trkpt><trkpt lat="42.917418520905954" lon="12.391772934024969"><ele>161.5</ele><time>2026-05-02T14:37:12Z</time></trkpt><trkpt lat="42.917662195234996" lon="12.391778156252055"><ele>162.0</ele><time>2026-05-02T14:37:13Z</time></trkpt><trkpt lat="42.917909471032125" lon="12.391784530007058"><ele>162.0</ele><time>2026-05-02T14:37:14Z</time></trkpt><trkpt lat="42.918164279196226" lon="12.391782850305283"><ele>162.0</ele><time>2026-05-02T14:37:15Z</time></trkpt><trkpt lat="42.91841426407428" lon="12.391787128435404"><ele>162.0</ele><time>2026-05-02T14:37:16Z</time></trkpt><trkpt lat="42.918667550027955" lon="12.391783351734915"><ele>162.0</ele><time>2026-05-02T14:37:17Z</time></trkpt><trkpt lat="42.918918071953655" lon="12.391783584326957"><ele>162.0</ele><time>2026-05-02T14:37:18Z</time></trkpt><trkpt lat="42.91916673757131" lon="12.39178600221578"><ele>162.0</ele><time>2026-05-02T14:37:19Z</time></trkpt><trkpt lat="42.91942090600241" lon="12.39179096760426"><ele>162.5</ele><time>2026-05-02T14:37:20Z</time></trkpt><trkpt lat="42.9196575466956" lon="12.391787314945075"><ele>163.0</ele><time>2026-05-02T14:37:21Z</time></trkpt><trkpt lat="42.91990094328938" lon="12.39177803388481"><ele>163.5</ele><time>2026-05-02T14:37:22Z</time></trkpt><trkpt lat="42.92014097517632" lon="12.391778835003713"><ele>164.0</ele><time>2026-05-02T14:37:23Z</time></trkpt><trkpt lat="42.92038688885249" lon="12.391784375915943"><ele>164.0</ele><time>2026-05-02T14:37:24Z</time></trkpt><trkpt lat="42.92061361872528" lon="12.391763475761206"><ele>164.0</ele><time>2026-05-02T14:37:25Z</time></trkpt><trkpt lat="42.92085470882643" lon="12.391770009952333"><ele>165.5</ele><time>2026-05-02T14:37:26Z</time></trkpt><trkpt lat="42.921123156617604" lon="12.391761333685347"><ele>167.0</ele><time>2026-05-02T14:37:27Z</time></trkpt><trkpt lat="42.92138095474984" lon="12.391762862235183"><ele>167.0</ele><time>2026-05-02T14:37:28Z</time></trkpt><trkpt lat="42.921621223455546" lon="12.391746338491743"><ele>167.0</ele><time>2026-05-02T14:37:29Z</time></trkpt><trkpt lat="42.92187621709158" lon="12.391743817852431"><ele>165.0</ele><time>2026-05-02T14:37:30Z</time></trkpt><trkpt lat="42.922135888980854" lon="12.391761513497793"><ele>163.0</ele><time>2026-05-02T14:37:31Z</time></trkpt><trkpt lat="42.92239199435011" lon="12.391793558336428"><ele>161.5</ele><time>2026-05-02T14:37:32Z</time></trkpt><trkpt lat="42.92264520855893" lon="12.391824828870599"><ele>160.0</ele><time>2026-05-02T14:37:33Z</time></trkpt><trkpt lat="42.922893869237754" lon="12.391910657325749"><ele>160.0</ele><time>2026-05-02T14:37:34Z</time></trkpt><trkpt lat="42.923120449612725" lon="12.39203710714174"><ele>160.0</ele><time>2026-05-02T14:37:35Z</time></trkpt><trkpt lat="42.92337798556918" lon="12.392134367109657"><ele>160.0</ele><time>2026-05-02T14:37:36Z</time></trkpt><trkpt lat="42.92362655982784" lon="12.392254060145284"><ele>160.0</ele><time>2026-05-02T14:37:37Z</time></trkpt><trkpt lat="42.92387215777531" lon="12.39240619843752"><ele>160.0</ele><time>2026-05-02T14:37:38Z</time></trkpt><trkpt lat="42.92408979153036" lon="12.392552682611772"><ele>160.0</ele><time>2026-05-02T14:37:39Z</time></trkpt><trkpt lat="42.92431380674904" lon="12.39271181300542"><ele>159.5</ele><time>2026-05-02T14:37:40Z</time></trkpt><trkpt lat="42.924541185772235" lon="12.392888591499128"><ele>159.0</ele><time>2026-05-02T14:37:41Z</time></trkpt><trkpt lat="42.92474731658265" lon="12.393075252442314"><ele>159.0</ele><time>2026-05-02T14:37:42Z</time></trkpt><trkpt lat="42.92495898965615" lon="12.393257679256708"><ele>159.0</ele><time>2026-05-02T14:37:43Z</time></trkpt><trkpt lat="42.925166056848916" lon="12.39344082625497"><ele>158.5</ele><time>2026-05-02T14:37:44Z</time></trkpt><trkpt lat="42.92537203752803" lon="12.393622364588204"><ele>158.0</ele><time>2026-05-02T14:37:45Z</time></trkpt><trkpt lat="42.92558134243518" lon="12.393804257335642"><ele>159.0</ele><time>2026-05-02T14:37:46Z</time></trkpt><trkpt lat="42.92578821014238" lon="12.39398745350175"><ele>160.0</ele><time>2026-05-02T14:37:47Z</time></trkpt><trkpt lat="42.92599540980903" lon="12.394165554534524"><ele>160.5</ele><time>2026-05-02T14:37:48Z</time></trkpt><trkpt lat="42.92619926703941" lon="12.394348935080668"><ele>161.0</ele><time>2026-05-02T14:37:49Z</time></trkpt><trkpt lat="42.926405078090404" lon="12.394533308965846"><ele>161.0</ele><time>2026-05-02T14:37:50Z</time></trkpt><trkpt lat="42.92660466623404" lon="12.394711068435674"><ele>161.0</ele><time>2026-05-02T14:37:51Z</time></trkpt><trkpt lat="42.92680156023527" lon="12.394889172674434"><ele>162.5</ele><time>2026-05-02T14:37:52Z</time></trkpt><trkpt lat="42.927000579806695" lon="12.395061580945551"><ele>164.0</ele><time>2026-05-02T14:37:53Z</time></trkpt><trkpt lat="42.92720523535568" lon="12.395236341773439"><ele>164.0</ele><time>2026-05-02T14:37:54Z</time></trkpt><trkpt lat="42.927409300539175" lon="12.39540860482915"><ele>164.0</ele><time>2026-05-02T14:37:55Z</time></trkpt><trkpt lat="42.92761541554881" lon="12.39558110735567"><ele>164.5</ele><time>2026-05-02T14:37:56Z</time></trkpt><trkpt lat="42.92782175422151" lon="12.395758595710419"><ele>165.0</ele><time>2026-05-02T14:37:57Z</time></trkpt><trkpt lat="42.928015718211924" lon="12.39595436201524"><ele>165.0</ele><time>2026-05-02T14:37:58Z</time></trkpt><trkpt lat="42.928219128632804" lon="12.396132683591706"><ele>165.0</ele><time>2026-05-02T14:37:59Z</time></trkpt><trkpt lat="42.92842652412986" lon="12.396312304576762"><ele>165.0</ele><time>2026-05-02T14:38:00Z</time></trkpt><trkpt lat="42.92863497279644" lon="12.396493279390741"><ele>165.0</ele><time>2026-05-02T14:38:01Z</time></trkpt><trkpt lat="42.92883885249957" lon="12.396671246990085"><ele>165.0</ele><time>2026-05-02T14:38:02Z</time></trkpt><trkpt lat="42.92904544785253" lon="12.396852692396415"><ele>165.0</ele><time>2026-05-02T14:38:03Z</time></trkpt><trkpt lat="42.929251903262056" lon="12.39703702704876"><ele>166.5</ele><time>2026-05-02T14:38:04Z</time></trkpt><trkpt lat="42.929452667024904" lon="12.397220895461368"><ele>168.0</ele><time>2026-05-02T14:38:05Z</time></trkpt><trkpt lat="42.92965372694619" lon="12.397401733045667"><ele>168.0</ele><time>2026-05-02T14:38:06Z</time></trkpt><trkpt lat="42.92985420857602" lon="12.397582017166743"><ele>168.0</ele><time>2026-05-02T14:38:07Z</time></trkpt><trkpt lat="42.93005824557183" lon="12.397756259555512"><ele>170.0</ele><time>2026-05-02T14:38:08Z</time></trkpt><trkpt lat="42.930256666636836" lon="12.397917088493804"><ele>172.0</ele><time>2026-05-02T14:38:09Z</time></trkpt><trkpt lat="42.9304578366081" lon="12.398099086400862"><ele>173.5</ele><time>2026-05-02T14:38:10Z</time></trkpt><trkpt lat="42.93066387902303" lon="12.398290758887763"><ele>175.0</ele><time>2026-05-02T14:38:11Z</time></trkpt><trkpt lat="42.9308715969569" lon="12.398463228492298"><ele>177.5</ele><time>2026-05-02T14:38:12Z</time></trkpt><trkpt lat="42.931088750645344" lon="12.398642303519786"><ele>180.0</ele><time>2026-05-02T14:38:13Z</time></trkpt><trkpt lat="42.931313906992266" lon="12.398816950907415"><ele>181.0</ele><time>2026-05-02T14:38:14Z</time></trkpt><trkpt lat="42.9315281448" lon="12.399002805007052"><ele>182.0</ele><time>2026-05-02T14:38:15Z</time></trkpt><trkpt lat="42.93173626575592" lon="12.399205720901085"><ele>182.0</ele><time>2026-05-02T14:38:16Z</time></trkpt><trkpt lat="42.93194648367455" lon="12.39939966489498"><ele>182.0</ele><time>2026-05-02T14:38:17Z</time></trkpt><trkpt lat="42.93215771255192" lon="12.399591434949043"><ele>182.5</ele><time>2026-05-02T14:38:18Z</time></trkpt><trkpt lat="42.93237919823417" lon="12.399761952971396"><ele>183.0</ele><time>2026-05-02T14:38:19Z</time></trkpt><trkpt lat="42.932605565791796" lon="12.399933603529204"><ele>183.0</ele><time>2026-05-02T14:38:20Z</time></trkpt><trkpt lat="42.932838664681654" lon="12.400087947658493"><ele>183.0</ele><time>2026-05-02T14:38:21Z</time></trkpt><trkpt lat="42.93307528451556" lon="12.400227902336848"><ele>183.0</ele><time>2026-05-02T14:38:22Z</time></trkpt><trkpt lat="42.93332462530934" lon="12.400351160755543"><ele>183.0</ele><time>2026-05-02T14:38:23Z</time></trkpt><trkpt lat="42.933563464376576" lon="12.400471134840336"><ele>184.0</ele><time>2026-05-02T14:38:24Z</time></trkpt><trkpt lat="42.93381393571922" lon="12.400563218041638"><ele>185.0</ele><time>2026-05-02T14:38:25Z</time></trkpt><trkpt lat="42.934063353775024" lon="12.400641544793796"><ele>185.5</ele><time>2026-05-02T14:38:26Z</time></trkpt><trkpt lat="42.93431765433625" lon="12.400712573894419"><ele>186.0</ele><time>2026-05-02T14:38:27Z</time></trkpt><trkpt lat="42.934574771931125" lon="12.400775923664403"><ele>186.0</ele><time>2026-05-02T14:38:28Z</time></trkpt><trkpt lat="42.934828326139964" lon="12.400834784064063"><ele>186.0</ele><time>2026-05-02T14:38:29Z</time></trkpt><trkpt lat="42.93507566289619" lon="12.400901862245599"><ele>185.5</ele><time>2026-05-02T14:38:30Z</time></trkpt><trkpt lat="42.93531849938305" lon="12.400968191891593"><ele>185.0</ele><time>2026-05-02T14:38:31Z</time></trkpt><trkpt lat="42.93556544230821" lon="12.401033786731162"><ele>185.0</ele><time>2026-05-02T14:38:32Z</time></trkpt><trkpt lat="42.9358145233855" lon="12.401098350806688"><ele>185.0</ele><time>2026-05-02T14:38:33Z</time></trkpt><trkpt lat="42.93606199384878" lon="12.401159416664932"><ele>187.0</ele><time>2026-05-02T14:38:34Z</time></trkpt><trkpt lat="42.93631028735991" lon="12.40121621617901"><ele>189.0</ele><time>2026-05-02T14:38:35Z</time></trkpt><trkpt lat="42.93655938754385" lon="12.401270864417185"><ele>193.0</ele><time>2026-05-02T14:38:36Z</time></trkpt><trkpt lat="42.93680464251504" lon="12.401326767475762"><ele>197.0</ele><time>2026-05-02T14:38:37Z</time></trkpt><trkpt lat="42.937050386867554" lon="12.40138184793949"><ele>197.0</ele><time>2026-05-02T14:38:38Z</time></trkpt><trkpt lat="42.93729788380441" lon="12.401438310989041"><ele>197.0</ele><time>2026-05-02T14:38:39Z</time></trkpt><trkpt lat="42.937546644346256" lon="12.401505835031118"><ele>200.5</ele><time>2026-05-02T14:38:40Z</time></trkpt><trkpt lat="42.93779947763533" lon="12.401575800937207"><ele>204.0</ele><time>2026-05-02T14:38:41Z</time></trkpt><trkpt lat="42.93804768874713" lon="12.401645972849389"><ele>204.0</ele><time>2026-05-02T14:38:42Z</time></trkpt><trkpt lat="42.93830396598249" lon="12.401714819241219"><ele>204.0</ele><time>2026-05-02T14:38:43Z</time></trkpt><trkpt lat="42.93855934324576" lon="12.401776262969129"><ele>204.5</ele><time>2026-05-02T14:38:44Z</time></trkpt><trkpt lat="42.93881052708266" lon="12.401834213002742"><ele>205.0</ele><time>2026-05-02T14:38:45Z</time></trkpt><trkpt lat="42.93905996628036" lon="12.401902300411932"><ele>201.5</ele><time>2026-05-02T14:38:46Z</time></trkpt><trkpt lat="42.93930765229284" lon="12.40196781979445"><ele>198.0</ele><time>2026-05-02T14:38:47Z</time></trkpt><trkpt lat="42.939563557587654" lon="12.402056911870261"><ele>198.0</ele><time>2026-05-02T14:38:48Z</time></trkpt><trkpt lat="42.93981418281268" lon="12.402125587172414"><ele>198.0</ele><time>2026-05-02T14:38:49Z</time></trkpt><trkpt lat="42.94006504546881" lon="12.402191806146648"><ele>200.0</ele><time>2026-05-02T14:38:50Z</time></trkpt><trkpt lat="42.94031852964601" lon="12.402255927275927"><ele>202.0</ele><time>2026-05-02T14:38:51Z</time></trkpt><trkpt lat="42.94057517040492" lon="12.402305642083494"><ele>202.0</ele><time>2026-05-02T14:38:52Z</time></trkpt><trkpt lat="42.94082625116992" lon="12.402332564307288"><ele>202.0</ele><time>2026-05-02T14:38:53Z</time></trkpt><trkpt lat="42.94108624352524" lon="12.402322173497984"><ele>201.0</ele><time>2026-05-02T14:38:54Z</time></trkpt><trkpt lat="42.94134092115745" lon="12.402292684193434"><ele>200.0</ele><time>2026-05-02T14:38:55Z</time></trkpt><trkpt lat="42.941589454770785" lon="12.402237760564699"><ele>200.5</ele><time>2026-05-02T14:38:56Z</time></trkpt><trkpt lat="42.941842966873324" lon="12.402168589442372"><ele>201.0</ele><time>2026-05-02T14:38:57Z</time></trkpt><trkpt lat="42.94209218618026" lon="12.402085944169434"><ele>196.0</ele><time>2026-05-02T14:38:58Z</time></trkpt><trkpt lat="42.94233843853937" lon="12.402002035136837"><ele>191.0</ele><time>2026-05-02T14:38:59Z</time></trkpt><trkpt lat="42.94258949229338" lon="12.401918117620333"><ele>190.5</ele><time>2026-05-02T14:39:00Z</time></trkpt><trkpt lat="42.94283818034821" lon="12.401840452126585"><ele>190.0</ele><time>2026-05-02T14:39:01Z</time></trkpt><trkpt lat="42.943085333819354" lon="12.401765696685803"><ele>190.0</ele><time>2026-05-02T14:39:02Z</time></trkpt><trkpt lat="42.94333652048705" lon="12.401687121706617"><ele>190.0</ele><time>2026-05-02T14:39:03Z</time></trkpt><trkpt lat="42.94358092504185" lon="12.401608521807818"><ele>191.0</ele><time>2026-05-02T14:39:04Z</time></trkpt><trkpt lat="42.94383076982759" lon="12.401528862930986"><ele>192.0</ele><time>2026-05-02T14:39:05Z</time></trkpt><trkpt lat="42.94408512649616" lon="12.40144267328592"><ele>189.0</ele><time>2026-05-02T14:39:06Z</time></trkpt><trkpt lat="42.94434296500124" lon="12.401355587401577"><ele>186.0</ele><time>2026-05-02T14:39:07Z</time></trkpt><trkpt lat="42.94460221898501" lon="12.401273285433561"><ele>184.0</ele><time>2026-05-02T14:39:08Z</time></trkpt><trkpt lat="42.94486617639996" lon="12.401207842244792"><ele>182.0</ele><time>2026-05-02T14:39:09Z</time></trkpt><trkpt lat="42.94514294118266" lon="12.401153936618538"><ele>180.0</ele><time>2026-05-02T14:39:10Z</time></trkpt><trkpt lat="42.94542091691066" lon="12.401129770206337"><ele>178.0</ele><time>2026-05-02T14:39:11Z</time></trkpt><trkpt lat="42.94568153578291" lon="12.401129048100273"><ele>177.0</ele><time>2026-05-02T14:39:12Z</time></trkpt><trkpt lat="42.94595530805985" lon="12.401132403710687"><ele>176.0</ele><time>2026-05-02T14:39:13Z</time></trkpt><trkpt lat="42.946236984906506" lon="12.401149183093514"><ele>176.0</ele><time>2026-05-02T14:39:14Z</time></trkpt><trkpt lat="42.94651566224024" lon="12.401172797570753"><ele>176.0</ele><time>2026-05-02T14:39:15Z</time></trkpt><trkpt lat="42.946797153662324" lon="12.401192610273451"><ele>176.0</ele><time>2026-05-02T14:39:16Z</time></trkpt><trkpt lat="42.94707769488479" lon="12.401211930340546"><ele>176.0</ele><time>2026-05-02T14:39:17Z</time></trkpt><trkpt lat="42.94735346003026" lon="12.401230209833367"><ele>175.0</ele><time>2026-05-02T14:39:18Z</time></trkpt><trkpt lat="42.947632049198184" lon="12.401257167451046"><ele>174.0</ele><time>2026-05-02T14:39:19Z</time></trkpt><trkpt lat="42.9479152854879" lon="12.401283280059575"><ele>174.0</ele><time>2026-05-02T14:39:20Z</time></trkpt><trkpt lat="42.948189732872855" lon="12.401310299547653"><ele>174.0</ele><time>2026-05-02T14:39:21Z</time></trkpt><trkpt lat="42.948468171736195" lon="12.401330432651273"><ele>176.0</ele><time>2026-05-02T14:39:22Z</time></trkpt><trkpt lat="42.948742916732975" lon="12.401347754747903"><ele>178.0</ele><time>2026-05-02T14:39:23Z</time></trkpt><trkpt lat="42.94901573715949" lon="12.401358310708172"><ele>177.5</ele><time>2026-05-02T14:39:24Z</time></trkpt><trkpt lat="42.949286837298594" lon="12.401368044281277"><ele>177.0</ele><time>2026-05-02T14:39:25Z</time></trkpt><trkpt lat="42.94955775904171" lon="12.40138362890771"><ele>177.0</ele><time>2026-05-02T14:39:26Z</time></trkpt><trkpt lat="42.94982272453313" lon="12.40140563029043"><ele>177.0</ele><time>2026-05-02T14:39:27Z</time></trkpt><trkpt lat="42.95008551830959" lon="12.401428539624764"><ele>176.0</ele><time>2026-05-02T14:39:28Z</time></trkpt><trkpt lat="42.950349528850445" lon="12.40144133312242"><ele>175.0</ele><time>2026-05-02T14:39:29Z</time></trkpt><trkpt lat="42.95061095270433" lon="12.40145486847684"><ele>175.0</ele><time>2026-05-02T14:39:30Z</time></trkpt><trkpt lat="42.950870572165236" lon="12.401463071069175"><ele>175.0</ele><time>2026-05-02T14:39:31Z</time></trkpt><trkpt lat="42.951134191100536" lon="12.401467745397403"><ele>176.0</ele><time>2026-05-02T14:39:32Z</time></trkpt><trkpt lat="42.951394227085366" lon="12.40147508715732"><ele>177.0</ele><time>2026-05-02T14:39:33Z</time></trkpt><trkpt lat="42.9516587881808" lon="12.401485962791822"><ele>177.5</ele><time>2026-05-02T14:39:34Z</time></trkpt><trkpt lat="42.951919626091936" lon="12.401508620277507"><ele>178.0</ele><time>2026-05-02T14:39:35Z</time></trkpt><trkpt lat="42.95218728667726" lon="12.40152287423323"><ele>178.0</ele><time>2026-05-02T14:39:36Z</time></trkpt><trkpt lat="42.952456787248074" lon="12.40153666566701"><ele>178.0</ele><time>2026-05-02T14:39:37Z</time></trkpt><trkpt lat="42.952724077727346" lon="12.40155834682872"><ele>178.0</ele><time>2026-05-02T14:39:38Z</time></trkpt><trkpt lat="42.95299277003506" lon="12.401573226033161"><ele>178.0</ele><time>2026-05-02T14:39:39Z</time></trkpt><trkpt lat="42.95326718152453" lon="12.401585815491519"><ele>179.0</ele><time>2026-05-02T14:39:40Z</time></trkpt><trkpt lat="42.95353770058418" lon="12.40159451523777"><ele>180.0</ele><time>2026-05-02T14:39:41Z</time></trkpt><trkpt lat="42.95380801224975" lon="12.40159434106579"><ele>180.0</ele><time>2026-05-02T14:39:42Z</time></trkpt><trkpt lat="42.954086387342905" lon="12.401589852200399"><ele>180.0</ele><time>2026-05-02T14:39:43Z</time></trkpt><trkpt lat="42.95436093765449" lon="12.40158104525108"><ele>179.5</ele><time>2026-05-02T14:39:44Z</time></trkpt><trkpt lat="42.95463810636287" lon="12.401567915431226"><ele>179.0</ele><time>2026-05-02T14:39:45Z</time></trkpt><trkpt lat="42.95491715665754" lon="12.401557640953692"><ele>181.5</ele><time>2026-05-02T14:39:46Z</time></trkpt><trkpt lat="42.95519803183214" lon="12.401543526945058"><ele>184.0</ele><time>2026-05-02T14:39:47Z</time></trkpt><trkpt lat="42.95547865934126" lon="12.40152892415789"><ele>184.0</ele><time>2026-05-02T14:39:48Z</time></trkpt><trkpt lat="42.95576040495688" lon="12.401511747200976"><ele>184.0</ele><time>2026-05-02T14:39:49Z</time></trkpt><trkpt lat="42.95604265032304" lon="12.401495947805357"><ele>188.0</ele><time>2026-05-02T14:39:50Z</time></trkpt><trkpt lat="42.95631774949884" lon="12.401483751881262"><ele>192.0</ele><time>2026-05-02T14:39:51Z</time></trkpt><trkpt lat="42.95659457178451" lon="12.401464707069158"><ele>193.5</ele><time>2026-05-02T14:39:52Z</time></trkpt><trkpt lat="42.956876519720744" lon="12.401449142522141"><ele>195.0</ele><time>2026-05-02T14:39:53Z</time></trkpt><trkpt lat="42.95715916682755" lon="12.40142517183483"><ele>195.0</ele><time>2026-05-02T14:39:54Z</time></trkpt><trkpt lat="42.957436052422516" lon="12.401402775883854"><ele>195.0</ele><time>2026-05-02T14:39:55Z</time></trkpt><trkpt lat="42.95771820177722" lon="12.401384938044808"><ele>198.0</ele><time>2026-05-02T14:39:56Z</time></trkpt><trkpt lat="42.9579976449615" lon="12.401355020168626"><ele>201.0</ele><time>2026-05-02T14:39:57Z</time></trkpt><trkpt lat="42.95827284342942" lon="12.401340026515625"><ele>203.5</ele><time>2026-05-02T14:39:58Z</time></trkpt><trkpt lat="42.95854388300966" lon="12.401335524594268"><ele>206.0</ele><time>2026-05-02T14:39:59Z</time></trkpt><trkpt lat="42.95881661189164" lon="12.40131857456401"><ele>196.0</ele><time>2026-05-02T14:40:00Z</time></trkpt><trkpt lat="42.959089917626564" lon="12.401306713529772"><ele>186.0</ele><time>2026-05-02T14:40:01Z</time></trkpt><trkpt lat="42.95936908432545" lon="12.401293546176346"><ele>186.0</ele><time>2026-05-02T14:40:02Z</time></trkpt><trkpt lat="42.959646115789" lon="12.401270517563965"><ele>186.0</ele><time>2026-05-02T14:40:03Z</time></trkpt><trkpt lat="42.959922901337876" lon="12.401261623147994"><ele>187.0</ele><time>2026-05-02T14:40:04Z</time></trkpt><trkpt lat="42.96019739985553" lon="12.401253288732077"><ele>188.0</ele><time>2026-05-02T14:40:05Z</time></trkpt><trkpt lat="42.96046529526141" lon="12.401247210325355"><ele>188.0</ele><time>2026-05-02T14:40:06Z</time></trkpt><trkpt lat="42.96074285018469" lon="12.40125518673674"><ele>188.0</ele><time>2026-05-02T14:40:07Z</time></trkpt><trkpt lat="42.9609956634051" lon="12.401253661615678"><ele>187.0</ele><time>2026-05-02T14:40:08Z</time></trkpt><trkpt lat="42.96124084652102" lon="12.401182948012396"><ele>186.0</ele><time>2026-05-02T14:40:09Z</time></trkpt><trkpt lat="42.961492464035786" lon="12.401168853783375"><ele>188.0</ele><time>2026-05-02T14:40:10Z</time></trkpt><trkpt lat="42.961752420164004" lon="12.401147014711462"><ele>190.0</ele><time>2026-05-02T14:40:11Z</time></trkpt><trkpt lat="42.962020648097685" lon="12.401132019155805"><ele>190.0</ele><time>2026-05-02T14:40:12Z</time></trkpt><trkpt lat="42.96229659404592" lon="12.401119540064402"><ele>190.0</ele><time>2026-05-02T14:40:13Z</time></trkpt><trkpt lat="42.96257678712611" lon="12.40110078421473"><ele>190.0</ele><time>2026-05-02T14:40:14Z</time></trkpt><trkpt lat="42.96286398649432" lon="12.401083253210832"><ele>190.0</ele><time>2026-05-02T14:40:15Z</time></trkpt><trkpt lat="42.963154449664856" lon="12.401090348806443"><ele>189.0</ele><time>2026-05-02T14:40:16Z</time></trkpt><trkpt lat="42.963450515905734" lon="12.401140293362165"><ele>188.0</ele><time>2026-05-02T14:40:17Z</time></trkpt><trkpt lat="42.96373984768421" lon="12.40121251317277"><ele>188.0</ele><time>2026-05-02T14:40:18Z</time></trkpt><trkpt lat="42.96403019958804" lon="12.401330921159207"><ele>188.0</ele><time>2026-05-02T14:40:19Z</time></trkpt><trkpt lat="42.96431685131597" lon="12.401443388444534"><ele>187.0</ele><time>2026-05-02T14:40:20Z</time></trkpt><trkpt lat="42.96458434952946" lon="12.401673826161677"><ele>186.0</ele><time>2026-05-02T14:40:21Z</time></trkpt><trkpt lat="42.96485231786538" lon="12.401862491113542"><ele>185.0</ele><time>2026-05-02T14:40:22Z</time></trkpt><trkpt lat="42.96510701519583" lon="12.402044356470686"><ele>184.0</ele><time>2026-05-02T14:40:23Z</time></trkpt><trkpt lat="42.965378948926535" lon="12.40221615905359"><ele>186.0</ele><time>2026-05-02T14:40:24Z</time></trkpt><trkpt lat="42.96564573818049" lon="12.40241162321882"><ele>188.0</ele><time>2026-05-02T14:40:25Z</time></trkpt><trkpt lat="42.965917919288835" lon="12.40261175031073"><ele>191.0</ele><time>2026-05-02T14:40:26Z</time></trkpt><trkpt lat="42.96618617177603" lon="12.402817931806458"><ele>194.0</ele><time>2026-05-02T14:40:27Z</time></trkpt><trkpt lat="42.966454082747134" lon="12.403025249118432"><ele>189.5</ele><time>2026-05-02T14:40:28Z</time></trkpt><trkpt lat="42.966728698310085" lon="12.403213410362998"><ele>185.0</ele><time>2026-05-02T14:40:29Z</time></trkpt><trkpt lat="42.96702511157348" lon="12.403353531261118"><ele>185.0</ele><time>2026-05-02T14:40:30Z</time></trkpt><trkpt lat="42.96734158197116" lon="12.403459296240234"><ele>185.0</ele><time>2026-05-02T14:40:31Z</time></trkpt><trkpt lat="42.96767147789724" lon="12.403525473487177"><ele>181.5</ele><time>2026-05-02T14:40:32Z</time></trkpt><trkpt lat="42.96801809952466" lon="12.403542231489155"><ele>178.0</ele><time>2026-05-02T14:40:33Z</time></trkpt><trkpt lat="42.96837216765619" lon="12.403556727424492"><ele>178.0</ele><time>2026-05-02T14:40:34Z</time></trkpt><trkpt lat="42.96872509475006" lon="12.403599545280017"><ele>178.0</ele><time>2026-05-02T14:40:35Z</time></trkpt><trkpt lat="42.969076316865106" lon="12.403643942425745"><ele>176.0</ele><time>2026-05-02T14:40:36Z</time></trkpt><trkpt lat="42.969425758847535" lon="12.403676707804408"><ele>174.0</ele><time>2026-05-02T14:40:37Z</time></trkpt><trkpt lat="42.969761889118864" lon="12.40370506452205"><ele>170.0</ele><time>2026-05-02T14:40:38Z</time></trkpt><trkpt lat="42.97008998507957" lon="12.403731819784685"><ele>166.0</ele><time>2026-05-02T14:40:39Z</time></trkpt><trkpt lat="42.97041369639574" lon="12.403762112075752"><ele>166.0</ele><time>2026-05-02T14:40:40Z</time></trkpt><trkpt lat="42.97072925163545" lon="12.403793732175089"><ele>166.0</ele><time>2026-05-02T14:40:41Z</time></trkpt><trkpt lat="42.97104495567228" lon="12.403837428042724"><ele>166.0</ele><time>2026-05-02T14:40:42Z</time></trkpt><trkpt lat="42.971357294150806" lon="12.403913488286841"><ele>166.0</ele><time>2026-05-02T14:40:43Z</time></trkpt><trkpt lat="42.971659651585966" lon="12.404039674548489"><ele>166.0</ele><time>2026-05-02T14:40:44Z</time></trkpt><trkpt lat="42.9719493927045" lon="12.404200223107171"><ele>166.0</ele><time>2026-05-02T14:40:45Z</time></trkpt><trkpt lat="42.9722204714815" lon="12.40438656829054"><ele>166.0</ele><time>2026-05-02T14:40:46Z</time></trkpt><trkpt lat="42.97247999222252" lon="12.404586795745127"><ele>166.0</ele><time>2026-05-02T14:40:47Z</time></trkpt><trkpt lat="42.97272777804551" lon="12.404793140233586"><ele>165.0</ele><time>2026-05-02T14:40:48Z</time></trkpt><trkpt lat="42.972971079656034" lon="12.405060692507126"><ele>164.0</ele><time>2026-05-02T14:40:49Z</time></trkpt><trkpt lat="42.97320350809942" lon="12.40533557417793"><ele>163.0</ele><time>2026-05-02T14:40:50Z</time></trkpt><trkpt lat="42.973440872283966" lon="12.405612524551936"><ele>162.0</ele><time>2026-05-02T14:40:51Z</time></trkpt><trkpt lat="42.97368434152163" lon="12.405889094660765"><ele>162.0</ele><time>2026-05-02T14:40:52Z</time></trkpt><trkpt lat="42.97393017085808" lon="12.40616585936195"><ele>162.0</ele><time>2026-05-02T14:40:53Z</time></trkpt><trkpt lat="42.97421266810315" lon="12.406460330893422"><ele>162.0</ele><time>2026-05-02T14:40:54Z</time></trkpt><trkpt lat="42.974423663503366" lon="12.406751656251467"><ele>162.0</ele><time>2026-05-02T14:40:55Z</time></trkpt><trkpt lat="42.974659082841676" lon="12.40704373211232"><ele>163.0</ele><time>2026-05-02T14:40:56Z</time></trkpt><trkpt lat="42.97489481002997" lon="12.407324526835835"><ele>164.0</ele><time>2026-05-02T14:40:57Z</time></trkpt><trkpt lat="42.97513399284317" lon="12.40759560299199"><ele>163.0</ele><time>2026-05-02T14:40:58Z</time></trkpt><trkpt lat="42.97537147141293" lon="12.407861818972012"><ele>162.0</ele><time>2026-05-02T14:40:59Z</time></trkpt><trkpt lat="42.97560593315307" lon="12.408131638389005"><ele>162.0</ele><time>2026-05-02T14:41:00Z</time></trkpt><trkpt lat="42.97584076559438" lon="12.40840220938537"><ele>162.0</ele><time>2026-05-02T14:41:01Z</time></trkpt><trkpt lat="42.976066737686565" lon="12.408655371196813"><ele>162.5</ele><time>2026-05-02T14:41:02Z</time></trkpt><trkpt lat="42.97627678453101" lon="12.408906559655549"><ele>163.0</ele><time>2026-05-02T14:41:03Z</time></trkpt><trkpt lat="42.97652921138821" lon="12.409189225483352"><ele>163.0</ele><time>2026-05-02T14:41:04Z</time></trkpt><trkpt lat="42.97676164074637" lon="12.409447157809021"><ele>163.0</ele><time>2026-05-02T14:41:05Z</time></trkpt><trkpt lat="42.97700008150823" lon="12.40970040589825"><ele>163.5</ele><time>2026-05-02T14:41:06Z</time></trkpt><trkpt lat="42.977224720375155" lon="12.409963366908887"><ele>164.0</ele><time>2026-05-02T14:41:07Z</time></trkpt><trkpt lat="42.97744263099472" lon="12.410231613444145"><ele>164.5</ele><time>2026-05-02T14:41:08Z</time></trkpt><trkpt lat="42.977677047150486" lon="12.410514927543959"><ele>165.0</ele><time>2026-05-02T14:41:09Z</time></trkpt><trkpt lat="42.977909508762224" lon="12.410787022168627"><ele>165.0</ele><time>2026-05-02T14:41:10Z</time></trkpt><trkpt lat="42.97814834790501" lon="12.411063606279797"><ele>165.0</ele><time>2026-05-02T14:41:11Z</time></trkpt><trkpt lat="42.97838933902719" lon="12.411326788453346"><ele>164.5</ele><time>2026-05-02T14:41:12Z</time></trkpt><trkpt lat="42.97863932616579" lon="12.41157701023714"><ele>164.0</ele><time>2026-05-02T14:41:13Z</time></trkpt><trkpt lat="42.97889646872925" lon="12.411807070534662"><ele>164.0</ele><time>2026-05-02T14:41:14Z</time></trkpt><trkpt lat="42.97916095717931" lon="12.412023484912384"><ele>164.0</ele><time>2026-05-02T14:41:15Z</time></trkpt><trkpt lat="42.97942682976064" lon="12.412225728550242"><ele>164.0</ele><time>2026-05-02T14:41:16Z</time></trkpt><trkpt lat="42.97970324368385" lon="12.4124171001419"><ele>164.0</ele><time>2026-05-02T14:41:17Z</time></trkpt><trkpt lat="42.97997482723708" lon="12.412604342214852"><ele>164.0</ele><time>2026-05-02T14:41:18Z</time></trkpt><trkpt lat="42.98024732230925" lon="12.412787648195382"><ele>164.0</ele><time>2026-05-02T14:41:19Z</time></trkpt><trkpt lat="42.980522978068336" lon="12.412975217824537"><ele>164.0</ele><time>2026-05-02T14:41:20Z</time></trkpt><trkpt lat="42.98079694705179" lon="12.413157110604617"><ele>164.0</ele><time>2026-05-02T14:41:21Z</time></trkpt><trkpt lat="42.981063695619795" lon="12.413347290748668"><ele>164.0</ele><time>2026-05-02T14:41:22Z</time></trkpt><trkpt lat="42.98133799741818" lon="12.41353093884714"><ele>164.0</ele><time>2026-05-02T14:41:23Z</time></trkpt><trkpt lat="42.98160642183565" lon="12.413713498386235"><ele>164.0</ele><time>2026-05-02T14:41:24Z</time></trkpt><trkpt lat="42.98187871102781" lon="12.413893572389377"><ele>164.0</ele><time>2026-05-02T14:41:25Z</time></trkpt><trkpt lat="42.98214866978688" lon="12.414078863254225"><ele>164.0</ele><time>2026-05-02T14:41:26Z</time></trkpt><trkpt lat="42.982420037937736" lon="12.414259484695885"><ele>164.0</ele><time>2026-05-02T14:41:27Z</time></trkpt><trkpt lat="42.98268579167933" lon="12.414440656460242"><ele>164.5</ele><time>2026-05-02T14:41:28Z</time></trkpt><trkpt lat="42.98295556570511" lon="12.414618875626358"><ele>165.0</ele><time>2026-05-02T14:41:29Z</time></trkpt><trkpt lat="42.98321769113317" lon="12.41480131883724"><ele>165.5</ele><time>2026-05-02T14:41:30Z</time></trkpt><trkpt lat="42.98348391099319" lon="12.414984934396415"><ele>166.0</ele><time>2026-05-02T14:41:31Z</time></trkpt><trkpt lat="42.983747889265416" lon="12.415175313852464"><ele>166.0</ele><time>2026-05-02T14:41:32Z</time></trkpt><trkpt lat="42.98401111704927" lon="12.415370877023955"><ele>166.0</ele><time>2026-05-02T14:41:33Z</time></trkpt><trkpt lat="42.98426907576429" lon="12.415577552378645"><ele>166.5</ele><time>2026-05-02T14:41:34Z</time></trkpt><trkpt lat="42.984522339131004" lon="12.415793482996913"><ele>167.0</ele><time>2026-05-02T14:41:35Z</time></trkpt><trkpt lat="42.984782748137626" lon="12.416019126146614"><ele>167.5</ele><time>2026-05-02T14:41:36Z</time></trkpt><trkpt lat="42.9850378042569" lon="12.416250880992822"><ele>168.0</ele><time>2026-05-02T14:41:37Z</time></trkpt><trkpt lat="42.985286227440795" lon="12.416487333018543"><ele>168.0</ele><time>2026-05-02T14:41:38Z</time></trkpt><trkpt lat="42.98553380891584" lon="12.41672795660889"><ele>168.0</ele><time>2026-05-02T14:41:39Z</time></trkpt><trkpt lat="42.985786468388646" lon="12.41696575030763"><ele>168.0</ele><time>2026-05-02T14:41:40Z</time></trkpt><trkpt lat="42.98602606162215" lon="12.417204234348636"><ele>168.0</ele><time>2026-05-02T14:41:41Z</time></trkpt><trkpt lat="42.986267346545674" lon="12.417438031029443"><ele>168.0</ele><time>2026-05-02T14:41:42Z</time></trkpt><trkpt lat="42.98650653946987" lon="12.417671363352197"><ele>168.0</ele><time>2026-05-02T14:41:43Z</time></trkpt><trkpt lat="42.98674494055689" lon="12.417905231369623"><ele>169.5</ele><time>2026-05-02T14:41:44Z</time></trkpt><trkpt lat="42.98698352978052" lon="12.41813704160162"><ele>171.0</ele><time>2026-05-02T14:41:45Z</time></trkpt><trkpt lat="42.987220259063875" lon="12.418373181532784"><ele>171.0</ele><time>2026-05-02T14:41:46Z</time></trkpt><trkpt lat="42.98745869277187" lon="12.418607276482579"><ele>171.0</ele><time>2026-05-02T14:41:47Z</time></trkpt><trkpt lat="42.98769773595841" lon="12.418841469107386"><ele>170.0</ele><time>2026-05-02T14:41:48Z</time></trkpt><trkpt lat="42.98793783295561" lon="12.419073231697793"><ele>169.0</ele><time>2026-05-02T14:41:49Z</time></trkpt><trkpt lat="42.98818724635435" lon="12.419297114084523"><ele>168.5</ele><time>2026-05-02T14:41:50Z</time></trkpt><trkpt lat="42.98843199922465" lon="12.419525717923577"><ele>168.0</ele><time>2026-05-02T14:41:51Z</time></trkpt><trkpt lat="42.98867295440232" lon="12.419759414747725"><ele>168.0</ele><time>2026-05-02T14:41:52Z</time></trkpt><trkpt lat="42.98890797040995" lon="12.419996037339915"><ele>168.0</ele><time>2026-05-02T14:41:53Z</time></trkpt><trkpt lat="42.98914304171297" lon="12.420226091834731"><ele>166.5</ele><time>2026-05-02T14:41:54Z</time></trkpt><trkpt lat="42.989381942763195" lon="12.420455932779069"><ele>165.0</ele><time>2026-05-02T14:41:55Z</time></trkpt><trkpt lat="42.98962035168337" lon="12.420681739501312"><ele>165.0</ele><time>2026-05-02T14:41:56Z</time></trkpt><trkpt lat="42.989862027061164" lon="12.420907953289015"><ele>165.0</ele><time>2026-05-02T14:41:57Z</time></trkpt><trkpt lat="42.990099705698036" lon="12.421138729793276"><ele>166.0</ele><time>2026-05-02T14:41:58Z</time></trkpt><trkpt lat="42.99033542895466" lon="12.421369764411457"><ele>167.0</ele><time>2026-05-02T14:41:59Z</time></trkpt><trkpt lat="42.99056794795098" lon="12.42160615910075"><ele>167.0</ele><time>2026-05-02T14:42:00Z</time></trkpt><trkpt lat="42.99080521897321" lon="12.421839313361321"><ele>167.0</ele><time>2026-05-02T14:42:01Z</time></trkpt><trkpt lat="42.99104230606562" lon="12.422070182908445"><ele>168.5</ele><time>2026-05-02T14:42:02Z</time></trkpt><trkpt lat="42.99129236566309" lon="12.42228745852682"><ele>170.0</ele><time>2026-05-02T14:42:03Z</time></trkpt><trkpt lat="42.99152150658996" lon="12.422523242932241"><ele>169.5</ele><time>2026-05-02T14:42:04Z</time></trkpt><trkpt lat="42.991755797279524" lon="12.422754031934106"><ele>169.0</ele><time>2026-05-02T14:42:05Z</time></trkpt><trkpt lat="42.991989745414244" lon="12.4229861424459"><ele>168.0</ele><time>2026-05-02T14:42:06Z</time></trkpt><trkpt lat="42.99221756307124" lon="12.423219763517391"><ele>167.0</ele><time>2026-05-02T14:42:07Z</time></trkpt><trkpt lat="42.99245799700824" lon="12.423459321264525"><ele>167.0</ele><time>2026-05-02T14:42:08Z</time></trkpt><trkpt lat="42.9926804805787" lon="12.423697201719364"><ele>167.0</ele><time>2026-05-02T14:42:09Z</time></trkpt><trkpt lat="42.992913423014" lon="12.423927304930851"><ele>167.5</ele><time>2026-05-02T14:42:10Z</time></trkpt><trkpt lat="42.993145291462106" lon="12.424152360647556"><ele>168.0</ele><time>2026-05-02T14:42:11Z</time></trkpt><trkpt lat="42.99338259918007" lon="12.424373202380457"><ele>168.0</ele><time>2026-05-02T14:42:12Z</time></trkpt><trkpt lat="42.99362380207846" lon="12.42458502858746"><ele>168.0</ele><time>2026-05-02T14:42:13Z</time></trkpt><trkpt lat="42.99386998295922" lon="12.424788839123554"><ele>168.0</ele><time>2026-05-02T14:42:14Z</time></trkpt><trkpt lat="42.99411763597941" lon="12.42497865499859"><ele>168.0</ele><time>2026-05-02T14:42:15Z</time></trkpt><trkpt lat="42.994361110945384" lon="12.42516477505235"><ele>168.0</ele><time>2026-05-02T14:42:16Z</time></trkpt><trkpt lat="42.99460931478883" lon="12.425338508690263"><ele>168.0</ele><time>2026-05-02T14:42:17Z</time></trkpt><trkpt lat="42.99488249805814" lon="12.42548277175553"><ele>170.0</ele><time>2026-05-02T14:42:18Z</time></trkpt><trkpt lat="42.995168201943706" lon="12.425597751475648"><ele>172.0</ele><time>2026-05-02T14:42:19Z</time></trkpt><trkpt lat="42.99543769910229" lon="12.425710377856761"><ele>172.0</ele><time>2026-05-02T14:42:20Z</time></trkpt><trkpt lat="42.99571446655223" lon="12.425810648191007"><ele>172.0</ele><time>2026-05-02T14:42:21Z</time></trkpt><trkpt lat="42.995994471535774" lon="12.42589508373851"><ele>170.0</ele><time>2026-05-02T14:42:22Z</time></trkpt><trkpt lat="42.99626333589183" lon="12.425980360827369"><ele>168.0</ele><time>2026-05-02T14:42:23Z</time></trkpt><trkpt lat="42.99654279293871" lon="12.42604570827365"><ele>168.0</ele><time>2026-05-02T14:42:24Z</time></trkpt><trkpt lat="42.99682568378483" lon="12.426085081506509"><ele>168.0</ele><time>2026-05-02T14:42:25Z</time></trkpt><trkpt lat="42.99710185212294" lon="12.42611279149257"><ele>168.0</ele><time>2026-05-02T14:42:26Z</time></trkpt><trkpt lat="42.99738255989014" lon="12.426126322470324"><ele>168.0</ele><time>2026-05-02T14:42:27Z</time></trkpt><trkpt lat="42.99766158065004" lon="12.426133461312977"><ele>168.5</ele><time>2026-05-02T14:42:28Z</time></trkpt><trkpt lat="42.99794379353132" lon="12.426126559952625"><ele>169.0</ele><time>2026-05-02T14:42:29Z</time></trkpt><trkpt lat="42.998225205974826" lon="12.426115394555005"><ele>169.0</ele><time>2026-05-02T14:42:30Z</time></trkpt><trkpt lat="42.99850425275605" lon="12.426115363263968"><ele>169.0</ele><time>2026-05-02T14:42:31Z</time></trkpt><trkpt lat="42.99878140397189" lon="12.426111960935387"><ele>169.0</ele><time>2026-05-02T14:42:32Z</time></trkpt><trkpt lat="42.99906317004301" lon="12.426113670937875"><ele>169.0</ele><time>2026-05-02T14:42:33Z</time></trkpt><trkpt lat="42.99933623307233" lon="12.426107990047237"><ele>169.5</ele><time>2026-05-02T14:42:34Z</time></trkpt><trkpt lat="42.99961597319693" lon="12.426097590463797"><ele>170.0</ele><time>2026-05-02T14:42:35Z</time></trkpt><trkpt lat="42.99989668823293" lon="12.426081982485913"><ele>170.0</ele><time>2026-05-02T14:42:36Z</time></trkpt><trkpt lat="43.00017755903997" lon="12.426069012449668"><ele>170.0</ele><time>2026-05-02T14:42:37Z</time></trkpt><trkpt lat="43.000470367067166" lon="12.426066824814074"><ele>170.0</ele><time>2026-05-02T14:42:38Z</time></trkpt><trkpt lat="43.00074441584739" lon="12.426071038142204"><ele>170.0</ele><time>2026-05-02T14:42:39Z</time></trkpt><trkpt lat="43.001024625695266" lon="12.426076850522772"><ele>170.0</ele><time>2026-05-02T14:42:40Z</time></trkpt><trkpt lat="43.001303745609476" lon="12.426077744288584"><ele>170.0</ele><time>2026-05-02T14:42:41Z</time></trkpt><trkpt lat="43.00158877409886" lon="12.426070682513556"><ele>169.5</ele><time>2026-05-02T14:42:42Z</time></trkpt><trkpt lat="43.001882228951914" lon="12.426044994645768"><ele>169.0</ele><time>2026-05-02T14:42:43Z</time></trkpt><trkpt lat="43.002178378459156" lon="12.426031402662236"><ele>169.0</ele><time>2026-05-02T14:42:44Z</time></trkpt><trkpt lat="43.002478110858284" lon="12.426023102276597"><ele>169.0</ele><time>2026-05-02T14:42:45Z</time></trkpt><trkpt lat="43.0027794174072" lon="12.426023478830595"><ele>169.0</ele><time>2026-05-02T14:42:46Z</time></trkpt><trkpt lat="43.00308218210844" lon="12.42602339093176"><ele>169.0</ele><time>2026-05-02T14:42:47Z</time></trkpt><trkpt lat="43.003382314466144" lon="12.426032697748585"><ele>169.0</ele><time>2026-05-02T14:42:48Z</time></trkpt><trkpt lat="43.00368846142746" lon="12.426030488136949"><ele>169.0</ele><time>2026-05-02T14:42:49Z</time></trkpt><trkpt lat="43.0039934586862" lon="12.426032021903204"><ele>169.0</ele><time>2026-05-02T14:42:50Z</time></trkpt><trkpt lat="43.004293789909376" lon="12.426034014422386"><ele>169.0</ele><time>2026-05-02T14:42:51Z</time></trkpt><trkpt lat="43.00459277961749" lon="12.426040620638076"><ele>169.0</ele><time>2026-05-02T14:42:52Z</time></trkpt><trkpt lat="43.00488384671465" lon="12.426058363770595"><ele>169.0</ele><time>2026-05-02T14:42:53Z</time></trkpt><trkpt lat="43.00521041127809" lon="12.42601553631369"><ele>168.5</ele><time>2026-05-02T14:42:54Z</time></trkpt><trkpt lat="43.00550654392872" lon="12.426012073995777"><ele>168.0</ele><time>2026-05-02T14:42:55Z</time></trkpt><trkpt lat="43.00580647395781" lon="12.426013891439778"><ele>168.5</ele><time>2026-05-02T14:42:56Z</time></trkpt><trkpt lat="43.00610382054229" lon="12.426012084913685"><ele>169.0</ele><time>2026-05-02T14:42:57Z</time></trkpt><trkpt lat="43.00640185094902" lon="12.426004419298888"><ele>168.0</ele><time>2026-05-02T14:42:58Z</time></trkpt><trkpt lat="43.006700602184935" lon="12.42599458107457"><ele>167.0</ele><time>2026-05-02T14:42:59Z</time></trkpt><trkpt lat="43.00699803823686" lon="12.425983026176535"><ele>167.0</ele><time>2026-05-02T14:43:00Z</time></trkpt><trkpt lat="43.007295025097136" lon="12.425972325452378"><ele>167.0</ele><time>2026-05-02T14:43:01Z</time></trkpt><trkpt lat="43.007591380277034" lon="12.425967987291854"><ele>166.5</ele><time>2026-05-02T14:43:02Z</time></trkpt><trkpt lat="43.00788536741993" lon="12.425966508293152"><ele>166.0</ele><time>2026-05-02T14:43:03Z</time></trkpt><trkpt lat="43.00818040768463" lon="12.425959421376671"><ele>165.5</ele><time>2026-05-02T14:43:04Z</time></trkpt><trkpt lat="43.00847444635096" lon="12.425943814159227"><ele>165.0</ele><time>2026-05-02T14:43:05Z</time></trkpt><trkpt lat="43.00877326865497" lon="12.425926879009504"><ele>165.0</ele><time>2026-05-02T14:43:06Z</time></trkpt><trkpt lat="43.00906944826682" lon="12.425917565558525"><ele>165.0</ele><time>2026-05-02T14:43:07Z</time></trkpt><trkpt lat="43.00936831118889" lon="12.425923748494865"><ele>164.5</ele><time>2026-05-02T14:43:08Z</time></trkpt><trkpt lat="43.00966456815937" lon="12.425921832835733"><ele>164.0</ele><time>2026-05-02T14:43:09Z</time></trkpt><trkpt lat="43.00996374498558" lon="12.425915597743257"><ele>164.5</ele><time>2026-05-02T14:43:10Z</time></trkpt><trkpt lat="43.01025803216522" lon="12.425916069210235"><ele>165.0</ele><time>2026-05-02T14:43:11Z</time></trkpt><trkpt lat="43.01055392138719" lon="12.425912909126186"><ele>166.0</ele><time>2026-05-02T14:43:12Z</time></trkpt><trkpt lat="43.01085045288936" lon="12.425909484126233"><ele>167.0</ele><time>2026-05-02T14:43:13Z</time></trkpt><trkpt lat="43.01114835907688" lon="12.425913672517035"><ele>167.0</ele><time>2026-05-02T14:43:14Z</time></trkpt><trkpt lat="43.01143353270845" lon="12.425903138509865"><ele>167.0</ele><time>2026-05-02T14:43:15Z</time></trkpt><trkpt lat="43.01172651366396" lon="12.425889111789473"><ele>167.5</ele><time>2026-05-02T14:43:16Z</time></trkpt><trkpt lat="43.01202200857311" lon="12.42585517797581"><ele>168.0</ele><time>2026-05-02T14:43:17Z</time></trkpt><trkpt lat="43.012309247668185" lon="12.425799185982937"><ele>168.5</ele><time>2026-05-02T14:43:18Z</time></trkpt><trkpt lat="43.012597898794965" lon="12.425713094373164"><ele>169.0</ele><time>2026-05-02T14:43:19Z</time></trkpt><trkpt lat="43.01288115038029" lon="12.425607888241604"><ele>169.0</ele><time>2026-05-02T14:43:20Z</time></trkpt><trkpt lat="43.01315768295555" lon="12.425484380130719"><ele>169.0</ele><time>2026-05-02T14:43:21Z</time></trkpt><trkpt lat="43.01343220612566" lon="12.425335707892797"><ele>169.0</ele><time>2026-05-02T14:43:22Z</time></trkpt><trkpt lat="43.0137011524965" lon="12.425173901768146"><ele>169.0</ele><time>2026-05-02T14:43:23Z</time></trkpt><trkpt lat="43.01396427003328" lon="12.424991392889742"><ele>168.0</ele><time>2026-05-02T14:43:24Z</time></trkpt><trkpt lat="43.014218875647785" lon="12.424791378094229"><ele>167.0</ele><time>2026-05-02T14:43:25Z</time></trkpt><trkpt lat="43.014455953070375" lon="12.424577642630304"><ele>167.0</ele><time>2026-05-02T14:43:26Z</time></trkpt><trkpt lat="43.01469257812852" lon="12.424381934112109"><ele>167.0</ele><time>2026-05-02T14:43:27Z</time></trkpt><trkpt lat="43.014938038647784" lon="12.424112401303066"><ele>168.0</ele><time>2026-05-02T14:43:28Z</time></trkpt><trkpt lat="43.015170386298195" lon="12.42385573658964"><ele>169.0</ele><time>2026-05-02T14:43:29Z</time></trkpt><trkpt lat="43.01540616796514" lon="12.423610200507353"><ele>169.0</ele><time>2026-05-02T14:43:30Z</time></trkpt><trkpt lat="43.01564394326341" lon="12.423371692822263"><ele>169.0</ele><time>2026-05-02T14:43:31Z</time></trkpt><trkpt lat="43.01587139566198" lon="12.42310460767442"><ele>169.5</ele><time>2026-05-02T14:43:32Z</time></trkpt><trkpt lat="43.016110068169596" lon="12.42286878036899"><ele>170.0</ele><time>2026-05-02T14:43:33Z</time></trkpt><trkpt lat="43.01635260002357" lon="12.422625815001119"><ele>170.0</ele><time>2026-05-02T14:43:34Z</time></trkpt><trkpt lat="43.01658570975359" lon="12.422395147404142"><ele>170.0</ele><time>2026-05-02T14:43:35Z</time></trkpt><trkpt lat="43.01681859113516" lon="12.422152883331446"><ele>170.0</ele><time>2026-05-02T14:43:36Z</time></trkpt><trkpt lat="43.017048799486" lon="12.421909552859754"><ele>170.0</ele><time>2026-05-02T14:43:37Z</time></trkpt><trkpt lat="43.017284096939015" lon="12.421655170606934"><ele>170.0</ele><time>2026-05-02T14:43:38Z</time></trkpt><trkpt lat="43.01749731851333" lon="12.421394950678009"><ele>170.0</ele><time>2026-05-02T14:43:39Z</time></trkpt><trkpt lat="43.01769032942095" lon="12.421119984048142"><ele>170.5</ele><time>2026-05-02T14:43:40Z</time></trkpt><trkpt lat="43.017891149828515" lon="12.42084225651876"><ele>171.0</ele><time>2026-05-02T14:43:41Z</time></trkpt><trkpt lat="43.01809524953162" lon="12.420563987573468"><ele>171.0</ele><time>2026-05-02T14:43:42Z</time></trkpt><trkpt lat="43.01829514313011" lon="12.420277285163827"><ele>171.0</ele><time>2026-05-02T14:43:43Z</time></trkpt><trkpt lat="43.01849424497587" lon="12.419995423267203"><ele>171.0</ele><time>2026-05-02T14:43:44Z</time></trkpt><trkpt lat="43.018686416583826" lon="12.419712271766878"><ele>171.0</ele><time>2026-05-02T14:43:45Z</time></trkpt><trkpt lat="43.01887896653476" lon="12.41942983795974"><ele>171.0</ele><time>2026-05-02T14:43:46Z</time></trkpt><trkpt lat="43.01906770042172" lon="12.41914527301118"><ele>171.0</ele><time>2026-05-02T14:43:47Z</time></trkpt><trkpt lat="43.01925866198469" lon="12.418872566699916"><ele>170.0</ele><time>2026-05-02T14:43:48Z</time></trkpt><trkpt lat="43.01943812478435" lon="12.418593197003371"><ele>169.0</ele><time>2026-05-02T14:43:49Z</time></trkpt><trkpt lat="43.019629722534795" lon="12.418328048601177"><ele>169.0</ele><time>2026-05-02T14:43:50Z</time></trkpt><trkpt lat="43.01981360316246" lon="12.41806862691142"><ele>169.0</ele><time>2026-05-02T14:43:51Z</time></trkpt><trkpt lat="43.01999701919247" lon="12.417808435533889"><ele>170.0</ele><time>2026-05-02T14:43:52Z</time></trkpt><trkpt lat="43.02018143026082" lon="12.41756057086016"><ele>171.0</ele><time>2026-05-02T14:43:53Z</time></trkpt><trkpt lat="43.0203530878771" lon="12.417303520055253"><ele>171.0</ele><time>2026-05-02T14:43:54Z</time></trkpt><trkpt lat="43.0205273538385" lon="12.417010245666987"><ele>171.0</ele><time>2026-05-02T14:43:55Z</time></trkpt><trkpt lat="43.02070823236712" lon="12.416756423629343"><ele>171.0</ele><time>2026-05-02T14:43:56Z</time></trkpt><trkpt lat="43.020878623689796" lon="12.416488708942008"><ele>171.0</ele><time>2026-05-02T14:43:57Z</time></trkpt><trkpt lat="43.0210528340608" lon="12.416231986520131"><ele>170.0</ele><time>2026-05-02T14:43:58Z</time></trkpt><trkpt lat="43.02122712843814" lon="12.415980276309945"><ele>169.0</ele><time>2026-05-02T14:43:59Z</time></trkpt><trkpt lat="43.02140355010493" lon="12.415737944383137"><ele>169.0</ele><time>2026-05-02T14:44:00Z</time></trkpt><trkpt lat="43.02158304449518" lon="12.415507338315788"><ele>169.0</ele><time>2026-05-02T14:44:01Z</time></trkpt><trkpt lat="43.021759984067174" lon="12.415314548723542"><ele>169.66666666666669</ele><time>2026-05-02T14:44:02Z</time></trkpt><trkpt lat="43.021931545030014" lon="12.415124203873738"><ele>170.33333333333334</ele><time>2026-05-02T14:44:03Z</time></trkpt><trkpt lat="43.02211598585902" lon="12.414943452143794"><ele>171.0</ele><time>2026-05-02T14:44:04Z</time></trkpt><trkpt lat="43.02230464741011" lon="12.414776850867074"><ele>171.0</ele><time>2026-05-02T14:44:05Z</time></trkpt><trkpt lat="43.022497449601694" lon="12.414625470398137"><ele>171.0</ele><time>2026-05-02T14:44:06Z</time></trkpt><trkpt lat="43.02269684455967" lon="12.414487007920824"><ele>171.0</ele><time>2026-05-02T14:44:07Z</time></trkpt><trkpt lat="43.02290090071384" lon="12.414354587709818"><ele>171.0</ele><time>2026-05-02T14:44:08Z</time></trkpt><trkpt lat="43.02310647644118" lon="12.414238757393516"><ele>171.0</ele><time>2026-05-02T14:44:09Z</time></trkpt><trkpt lat="43.02332142038111" lon="12.414137943369385"><ele>170.66666666666666</ele><time>2026-05-02T14:44:10Z</time></trkpt><trkpt lat="43.023534508463975" lon="12.41404671400186"><ele>170.33333333333331</ele><time>2026-05-02T14:44:11Z</time></trkpt><trkpt lat="43.023750521648026" lon="12.413966848546256"><ele>170.0</ele><time>2026-05-02T14:44:12Z</time></trkpt><trkpt lat="43.02397133863464" lon="12.413908481539037"><ele>170.0</ele><time>2026-05-02T14:44:13Z</time></trkpt><trkpt lat="43.02419644494102" lon="12.41385293383731"><ele>170.0</ele><time>2026-05-02T14:44:14Z</time></trkpt><trkpt lat="43.02442268814887" lon="12.413803586444036"><ele>170.0</ele><time>2026-05-02T14:44:15Z</time></trkpt><trkpt lat="43.02465814277363" lon="12.413747415783927"><ele>170.0</ele><time>2026-05-02T14:44:16Z</time></trkpt><trkpt lat="43.02489872697905" lon="12.413672063357556"><ele>171.0</ele><time>2026-05-02T14:44:17Z</time></trkpt><trkpt lat="43.025134586543594" lon="12.4136120143282"><ele>172.0</ele><time>2026-05-02T14:44:18Z</time></trkpt><trkpt lat="43.025358271487576" lon="12.413552471911748"><ele>172.0</ele><time>2026-05-02T14:44:19Z</time></trkpt><trkpt lat="43.025594521508104" lon="12.413525126995575"><ele>172.0</ele><time>2026-05-02T14:44:20Z</time></trkpt><trkpt lat="43.02583168534677" lon="12.413478488821411"><ele>171.0</ele><time>2026-05-02T14:44:21Z</time></trkpt><trkpt lat="43.02606780384013" lon="12.413426488148378"><ele>170.0</ele><time>2026-05-02T14:44:22Z</time></trkpt><trkpt lat="43.026303622026376" lon="12.413369435067308"><ele>170.0</ele><time>2026-05-02T14:44:23Z</time></trkpt><trkpt lat="43.02653984898252" lon="12.413306681271818"><ele>170.0</ele><time>2026-05-02T14:44:24Z</time></trkpt><trkpt lat="43.026776999708005" lon="12.413256204450464"><ele>170.0</ele><time>2026-05-02T14:44:25Z</time></trkpt><trkpt lat="43.027014482163295" lon="12.413204454485804"><ele>170.0</ele><time>2026-05-02T14:44:26Z</time></trkpt><trkpt lat="43.02725112004042" lon="12.413146887217373"><ele>170.5</ele><time>2026-05-02T14:44:27Z</time></trkpt><trkpt lat="43.02748874410281" lon="12.41309213123646"><ele>171.0</ele><time>2026-05-02T14:44:28Z</time></trkpt><trkpt lat="43.027726960806774" lon="12.413041588745745"><ele>170.0</ele><time>2026-05-02T14:44:29Z</time></trkpt><trkpt lat="43.027965352458494" lon="12.412986224960841"><ele>169.0</ele><time>2026-05-02T14:44:30Z</time></trkpt><trkpt lat="43.02820430600503" lon="12.41293055242566"><ele>171.0</ele><time>2026-05-02T14:44:31Z</time></trkpt><trkpt lat="43.02844449034281" lon="12.412875913638485"><ele>173.0</ele><time>2026-05-02T14:44:32Z</time></trkpt><trkpt lat="43.02868446926839" lon="12.41282121442316"><ele>173.0</ele><time>2026-05-02T14:44:33Z</time></trkpt><trkpt lat="43.02892173335667" lon="12.412761806269668"><ele>173.0</ele><time>2026-05-02T14:44:34Z</time></trkpt><trkpt lat="43.029159805262076" lon="12.412710450142674"><ele>173.0</ele><time>2026-05-02T14:44:35Z</time></trkpt><trkpt lat="43.02939610721039" lon="12.412658859977467"><ele>173.0</ele><time>2026-05-02T14:44:36Z</time></trkpt><trkpt lat="43.02963013335134" lon="12.41260531560349"><ele>173.0</ele><time>2026-05-02T14:44:37Z</time></trkpt><trkpt lat="43.02985854662524" lon="12.412556423180988"><ele>173.0</ele><time>2026-05-02T14:44:38Z</time></trkpt><trkpt lat="43.03008873706004" lon="12.412506195270119"><ele>173.0</ele><time>2026-05-02T14:44:39Z</time></trkpt><trkpt lat="43.03032528460062" lon="12.412451038030113"><ele>173.0</ele><time>2026-05-02T14:44:40Z</time></trkpt><trkpt lat="43.03055884039111" lon="12.412403977299512"><ele>173.0</ele><time>2026-05-02T14:44:41Z</time></trkpt><trkpt lat="43.03079189218858" lon="12.412349914946205"><ele>173.0</ele><time>2026-05-02T14:44:42Z</time></trkpt><trkpt lat="43.03102476685706" lon="12.412297257591645"><ele>171.5</ele><time>2026-05-02T14:44:43Z</time></trkpt><trkpt lat="43.03125744460064" lon="12.412242820585739"><ele>170.0</ele><time>2026-05-02T14:44:44Z</time></trkpt><trkpt lat="43.03148716667437" lon="12.41218965458921"><ele>170.0</ele><time>2026-05-02T14:44:45Z</time></trkpt><trkpt lat="43.03171907336364" lon="12.412139186557186"><ele>170.0</ele><time>2026-05-02T14:44:46Z</time></trkpt><trkpt lat="43.03194747980035" lon="12.41208688294153"><ele>170.0</ele><time>2026-05-02T14:44:47Z</time></trkpt><trkpt lat="43.032177554836835" lon="12.412033258217543"><ele>170.0</ele><time>2026-05-02T14:44:48Z</time></trkpt><trkpt lat="43.032408532497804" lon="12.411989981273834"><ele>171.5</ele><time>2026-05-02T14:44:49Z</time></trkpt><trkpt lat="43.03263127149836" lon="12.411944401974342"><ele>173.0</ele><time>2026-05-02T14:44:50Z</time></trkpt><trkpt lat="43.03286366443808" lon="12.411894752632524"><ele>173.0</ele><time>2026-05-02T14:44:51Z</time></trkpt><trkpt lat="43.033092154064455" lon="12.411835163292583"><ele>173.0</ele><time>2026-05-02T14:44:52Z</time></trkpt><trkpt lat="43.03330971647097" lon="12.41176887715699"><ele>173.0</ele><time>2026-05-02T14:44:53Z</time></trkpt><trkpt lat="43.033542258204236" lon="12.411725765151882"><ele>173.0</ele><time>2026-05-02T14:44:54Z</time></trkpt><trkpt lat="43.03377345058784" lon="12.411684097929292"><ele>173.0</ele><time>2026-05-02T14:44:55Z</time></trkpt><trkpt lat="43.034008080792724" lon="12.411628993478189"><ele>173.0</ele><time>2026-05-02T14:44:56Z</time></trkpt><trkpt lat="43.03423693117693" lon="12.411579912406543"><ele>173.5</ele><time>2026-05-02T14:44:57Z</time></trkpt><trkpt lat="43.034463814346104" lon="12.411524714082669"><ele>174.0</ele><time>2026-05-02T14:44:58Z</time></trkpt><trkpt lat="43.03469423606901" lon="12.41147582724142"><ele>174.0</ele><time>2026-05-02T14:44:59Z</time></trkpt><trkpt lat="43.034926517056476" lon="12.411430178235813"><ele>174.0</ele><time>2026-05-02T14:45:00Z</time></trkpt><trkpt lat="43.035158325518054" lon="12.411385847376545"><ele>174.0</ele><time>2026-05-02T14:45:01Z</time></trkpt><trkpt lat="43.035389070998534" lon="12.411339987951928"><ele>174.0</ele><time>2026-05-02T14:45:02Z</time></trkpt><trkpt lat="43.035618772074784" lon="12.411289413211483"><ele>175.0</ele><time>2026-05-02T14:45:03Z</time></trkpt><trkpt lat="43.035847808732" lon="12.411243226399552"><ele>176.0</ele><time>2026-05-02T14:45:04Z</time></trkpt><trkpt lat="43.036075157631366" lon="12.411192739848"><ele>176.0</ele><time>2026-05-02T14:45:05Z</time></trkpt><trkpt lat="43.036301972560096" lon="12.411140139888204"><ele>176.0</ele><time>2026-05-02T14:45:06Z</time></trkpt><trkpt lat="43.036526432671394" lon="12.41108326958897"><ele>176.0</ele><time>2026-05-02T14:45:07Z</time></trkpt><trkpt lat="43.03675281041244" lon="12.411025629730004"><ele>176.0</ele><time>2026-05-02T14:45:08Z</time></trkpt><trkpt lat="43.03697909271455" lon="12.41096944457976"><ele>176.0</ele><time>2026-05-02T14:45:09Z</time></trkpt><trkpt lat="43.03720666747099" lon="12.410915164921528"><ele>176.0</ele><time>2026-05-02T14:45:10Z</time></trkpt><trkpt lat="43.03743327940804" lon="12.41086049355448"><ele>175.5</ele><time>2026-05-02T14:45:11Z</time></trkpt><trkpt lat="43.03765913291055" lon="12.41080273732767"><ele>175.0</ele><time>2026-05-02T14:45:12Z</time></trkpt><trkpt lat="43.03788627164048" lon="12.410742847656673"><ele>175.0</ele><time>2026-05-02T14:45:13Z</time></trkpt><trkpt lat="43.03811176251042" lon="12.410682128789269"><ele>175.0</ele><time>2026-05-02T14:45:14Z</time></trkpt><trkpt lat="43.03833723642829" lon="12.410622402908691"><ele>175.0</ele><time>2026-05-02T14:45:15Z</time></trkpt><trkpt lat="43.03856215559673" lon="12.410558410365754"><ele>175.0</ele><time>2026-05-02T14:45:16Z</time></trkpt><trkpt lat="43.03878643340192" lon="12.410490807489854"><ele>175.0</ele><time>2026-05-02T14:45:17Z</time></trkpt><trkpt lat="43.0390127260885" lon="12.410427983925773"><ele>175.0</ele><time>2026-05-02T14:45:18Z</time></trkpt><trkpt lat="43.03924115300769" lon="12.41036821212344"><ele>174.5</ele><time>2026-05-02T14:45:19Z</time></trkpt><trkpt lat="43.039468470396955" lon="12.410305106781818"><ele>174.0</ele><time>2026-05-02T14:45:20Z</time></trkpt><trkpt lat="43.03969601253276" lon="12.41024921171803"><ele>174.0</ele><time>2026-05-02T14:45:21Z</time></trkpt><trkpt lat="43.03992979990897" lon="12.410184461044414"><ele>174.0</ele><time>2026-05-02T14:45:22Z</time></trkpt><trkpt lat="43.0401552243839" lon="12.410125688873702"><ele>175.5</ele><time>2026-05-02T14:45:23Z</time></trkpt><trkpt lat="43.04037991119798" lon="12.410057536329917"><ele>177.0</ele><time>2026-05-02T14:45:24Z</time></trkpt><trkpt lat="43.04060558069722" lon="12.409996144312014"><ele>177.0</ele><time>2026-05-02T14:45:25Z</time></trkpt><trkpt lat="43.04083053799493" lon="12.409944759227637"><ele>177.0</ele><time>2026-05-02T14:45:26Z</time></trkpt><trkpt lat="43.041053830002234" lon="12.409881969684674"><ele>177.0</ele><time>2026-05-02T14:45:27Z</time></trkpt><trkpt lat="43.04127719102468" lon="12.409821514012899"><ele>177.0</ele><time>2026-05-02T14:45:28Z</time></trkpt><trkpt lat="43.0415004682928" lon="12.409763030649934"><ele>177.0</ele><time>2026-05-02T14:45:29Z</time></trkpt><trkpt lat="43.04172269576032" lon="12.409702059208254"><ele>177.0</ele><time>2026-05-02T14:45:30Z</time></trkpt><trkpt lat="43.04194491458547" lon="12.409639538127886"><ele>177.0</ele><time>2026-05-02T14:45:31Z</time></trkpt><trkpt lat="43.042168008170584" lon="12.409582167518682"><ele>177.0</ele><time>2026-05-02T14:45:32Z</time></trkpt><trkpt lat="43.04239141031544" lon="12.409519979775322"><ele>177.0</ele><time>2026-05-02T14:45:33Z</time></trkpt><trkpt lat="43.042613412981545" lon="12.409457143566007"><ele>177.0</ele><time>2026-05-02T14:45:34Z</time></trkpt><trkpt lat="43.04282089320187" lon="12.40938735909933"><ele>177.0</ele><time>2026-05-02T14:45:35Z</time></trkpt><trkpt lat="43.04303082482891" lon="12.409335754071185"><ele>177.0</ele><time>2026-05-02T14:45:36Z</time></trkpt><trkpt lat="43.043235724970174" lon="12.40927687952527"><ele>177.0</ele><time>2026-05-02T14:45:37Z</time></trkpt><trkpt lat="43.04343712289413" lon="12.409219498550332"><ele>177.0</ele><time>2026-05-02T14:45:38Z</time></trkpt><trkpt lat="43.04364083851086" lon="12.40916554795449"><ele>177.0</ele><time>2026-05-02T14:45:39Z</time></trkpt><trkpt lat="43.04384441275513" lon="12.409113835510762"><ele>177.0</ele><time>2026-05-02T14:45:40Z</time></trkpt><trkpt lat="43.04404631262969" lon="12.409064716460852"><ele>177.0</ele><time>2026-05-02T14:45:41Z</time></trkpt><trkpt lat="43.04424985243824" lon="12.409012711382907"><ele>176.66666666666666</ele><time>2026-05-02T14:45:42Z</time></trkpt><trkpt lat="43.04446016656507" lon="12.408958614845442"><ele>176.33333333333331</ele><time>2026-05-02T14:45:43Z</time></trkpt><trkpt lat="43.04466620305676" lon="12.408904652462947"><ele>176.0</ele><time>2026-05-02T14:45:44Z</time></trkpt><trkpt lat="43.04487899614966" lon="12.40884735809804"><ele>176.66666666666666</ele><time>2026-05-02T14:45:45Z</time></trkpt><trkpt lat="43.045085299583434" lon="12.408786804290653"><ele>177.33333333333334</ele><time>2026-05-02T14:45:46Z</time></trkpt><trkpt lat="43.04529484611357" lon="12.408731802791356"><ele>178.0</ele><time>2026-05-02T14:45:47Z</time></trkpt><trkpt lat="43.045506539048965" lon="12.408689782768066"><ele>178.0</ele><time>2026-05-02T14:45:48Z</time></trkpt><trkpt lat="43.04572123164626" lon="12.408651023747732"><ele>178.0</ele><time>2026-05-02T14:45:49Z</time></trkpt><trkpt lat="43.04593700069035" lon="12.4086110359929"><ele>178.0</ele><time>2026-05-02T14:45:50Z</time></trkpt><trkpt lat="43.04615086455864" lon="12.408572242608171"><ele>177.33333333333334</ele><time>2026-05-02T14:45:51Z</time></trkpt><trkpt lat="43.04636782177809" lon="12.408536604817844"><ele>176.66666666666666</ele><time>2026-05-02T14:45:52Z</time></trkpt><trkpt lat="43.04658586366056" lon="12.408505388826347"><ele>176.0</ele><time>2026-05-02T14:45:53Z</time></trkpt><trkpt lat="43.04680387142358" lon="12.408477382154949"><ele>176.66666666666666</ele><time>2026-05-02T14:45:54Z</time></trkpt><trkpt lat="43.0470238488631" lon="12.40845567474716"><ele>177.33333333333334</ele><time>2026-05-02T14:45:55Z</time></trkpt><trkpt lat="43.04724339928305" lon="12.408438729144027"><ele>178.0</ele><time>2026-05-02T14:45:56Z</time></trkpt><trkpt lat="43.04746430475607" lon="12.408422053120244"><ele>178.0</ele><time>2026-05-02T14:45:57Z</time></trkpt><trkpt lat="43.047687538449395" lon="12.408407162841863"><ele>178.0</ele><time>2026-05-02T14:45:58Z</time></trkpt><trkpt lat="43.04790912462148" lon="12.408388928998418"><ele>178.0</ele><time>2026-05-02T14:45:59Z</time></trkpt><trkpt lat="43.048131324344325" lon="12.4083723478114"><ele>177.66666666666669</ele><time>2026-05-02T14:46:00Z</time></trkpt><trkpt lat="43.04835042425367" lon="12.408355758219942"><ele>177.33333333333334</ele><time>2026-05-02T14:46:01Z</time></trkpt><trkpt lat="43.04857127781133" lon="12.408340138911715"><ele>177.0</ele><time>2026-05-02T14:46:02Z</time></trkpt><trkpt lat="43.04879035363853" lon="12.408323139392563"><ele>177.0</ele><time>2026-05-02T14:46:03Z</time></trkpt><trkpt lat="43.04901054190354" lon="12.408305542708524"><ele>177.0</ele><time>2026-05-02T14:46:04Z</time></trkpt><trkpt lat="43.04922958787942" lon="12.408287521019439"><ele>177.0</ele><time>2026-05-02T14:46:05Z</time></trkpt><trkpt lat="43.049447710119864" lon="12.408272903717384"><ele>177.33333333333334</ele><time>2026-05-02T14:46:06Z</time></trkpt><trkpt lat="43.04966701998127" lon="12.408260470693824"><ele>177.66666666666669</ele><time>2026-05-02T14:46:07Z</time></trkpt><trkpt lat="43.04988597939165" lon="12.408242262979122"><ele>178.0</ele><time>2026-05-02T14:46:08Z</time></trkpt><trkpt lat="43.050109651283094" lon="12.408218024999332"><ele>178.0</ele><time>2026-05-02T14:46:09Z</time></trkpt><trkpt lat="43.05033403018511" lon="12.408194025600874"><ele>178.0</ele><time>2026-05-02T14:46:10Z</time></trkpt><trkpt lat="43.05056086212935" lon="12.408172602364546"><ele>178.0</ele><time>2026-05-02T14:46:11Z</time></trkpt><trkpt lat="43.05079001129378" lon="12.408150764225162"><ele>178.0</ele><time>2026-05-02T14:46:12Z</time></trkpt><trkpt lat="43.05102143357355" lon="12.40812765042753"><ele>179.0</ele><time>2026-05-02T14:46:13Z</time></trkpt><trkpt lat="43.0512542692539" lon="12.408110917496671"><ele>180.0</ele><time>2026-05-02T14:46:14Z</time></trkpt><trkpt lat="43.05148771566124" lon="12.40810006001214"><ele>179.5</ele><time>2026-05-02T14:46:15Z</time></trkpt><trkpt lat="43.05172179004286" lon="12.408088534565117"><ele>179.0</ele><time>2026-05-02T14:46:16Z</time></trkpt><trkpt lat="43.05195706514164" lon="12.408079915154357"><ele>179.0</ele><time>2026-05-02T14:46:17Z</time></trkpt><trkpt lat="43.05219116000198" lon="12.408069093332642"><ele>179.0</ele><time>2026-05-02T14:46:18Z</time></trkpt><trkpt lat="43.05242387711807" lon="12.40805561575498"><ele>179.0</ele><time>2026-05-02T14:46:19Z</time></trkpt><trkpt lat="43.052657623621805" lon="12.408037766220318"><ele>179.0</ele><time>2026-05-02T14:46:20Z</time></trkpt><trkpt lat="43.0528908647824" lon="12.408022039108667"><ele>179.0</ele><time>2026-05-02T14:46:21Z</time></trkpt><trkpt lat="43.0531240455135" lon="12.408002118422495"><ele>179.0</ele><time>2026-05-02T14:46:22Z</time></trkpt><trkpt lat="43.053356671641474" lon="12.407983440946454"><ele>179.5</ele><time>2026-05-02T14:46:23Z</time></trkpt><trkpt lat="43.05358838678305" lon="12.407967552175007"><ele>180.0</ele><time>2026-05-02T14:46:24Z</time></trkpt><trkpt lat="43.05382074963244" lon="12.407957407273123"><ele>180.0</ele><time>2026-05-02T14:46:25Z</time></trkpt><trkpt lat="43.05405348999568" lon="12.407957001924748"><ele>180.0</ele><time>2026-05-02T14:46:26Z</time></trkpt><trkpt lat="43.054285426410246" lon="12.407963350403897"><ele>179.5</ele><time>2026-05-02T14:46:27Z</time></trkpt><trkpt lat="43.054518438909305" lon="12.407991421697835"><ele>179.0</ele><time>2026-05-02T14:46:28Z</time></trkpt><trkpt lat="43.05474995162581" lon="12.408036708441665"><ele>179.0</ele><time>2026-05-02T14:46:29Z</time></trkpt><trkpt lat="43.054982360899785" lon="12.408097463320729"><ele>179.0</ele><time>2026-05-02T14:46:30Z</time></trkpt><trkpt lat="43.055216139826705" lon="12.40816726296339"><ele>179.0</ele><time>2026-05-02T14:46:31Z</time></trkpt><trkpt lat="43.055448548595095" lon="12.408249474436904"><ele>179.0</ele><time>2026-05-02T14:46:32Z</time></trkpt><trkpt lat="43.055680361533064" lon="12.40835170273731"><ele>179.5</ele><time>2026-05-02T14:46:33Z</time></trkpt><trkpt lat="43.05590836068492" lon="12.40846177240735"><ele>180.0</ele><time>2026-05-02T14:46:34Z</time></trkpt><trkpt lat="43.05613762139087" lon="12.408578276373493"><ele>180.0</ele><time>2026-05-02T14:46:35Z</time></trkpt><trkpt lat="43.0563678814027" lon="12.408705557379148"><ele>180.0</ele><time>2026-05-02T14:46:36Z</time></trkpt><trkpt lat="43.05660217966067" lon="12.408838487251154"><ele>180.5</ele><time>2026-05-02T14:46:37Z</time></trkpt><trkpt lat="43.05683136027021" lon="12.40897013045974"><ele>181.0</ele><time>2026-05-02T14:46:38Z</time></trkpt><trkpt lat="43.057055182634684" lon="12.409103107537286"><ele>181.0</ele><time>2026-05-02T14:46:39Z</time></trkpt><trkpt lat="43.057288027843235" lon="12.409234321739287"><ele>181.0</ele><time>2026-05-02T14:46:40Z</time></trkpt><trkpt lat="43.05752299700965" lon="12.409360969569514"><ele>181.0</ele><time>2026-05-02T14:46:41Z</time></trkpt><trkpt lat="43.057765514026286" lon="12.409483773190866"><ele>181.0</ele><time>2026-05-02T14:46:42Z</time></trkpt><trkpt lat="43.05800912342697" lon="12.40961693488508"><ele>180.5</ele><time>2026-05-02T14:46:43Z</time></trkpt><trkpt lat="43.05825268809663" lon="12.409748854735062"><ele>180.0</ele><time>2026-05-02T14:46:44Z</time></trkpt><trkpt lat="43.05850034379731" lon="12.4098802925162"><ele>180.0</ele><time>2026-05-02T14:46:45Z</time></trkpt><trkpt lat="43.058743571227794" lon="12.41001519748746"><ele>180.0</ele><time>2026-05-02T14:46:46Z</time></trkpt><trkpt lat="43.05898750391467" lon="12.410154393554437"><ele>180.5</ele><time>2026-05-02T14:46:47Z</time></trkpt><trkpt lat="43.05923200560422" lon="12.41029333995131"><ele>181.0</ele><time>2026-05-02T14:46:48Z</time></trkpt><trkpt lat="43.05948727748566" lon="12.410423337081559"><ele>181.0</ele><time>2026-05-02T14:46:49Z</time></trkpt><trkpt lat="43.05972449206956" lon="12.410571385025994"><ele>181.0</ele><time>2026-05-02T14:46:50Z</time></trkpt><trkpt lat="43.059967950635944" lon="12.410721007125865"><ele>181.0</ele><time>2026-05-02T14:46:51Z</time></trkpt><trkpt lat="43.060208919717496" lon="12.410873530227748"><ele>181.0</ele><time>2026-05-02T14:46:52Z</time></trkpt><trkpt lat="43.060453520625316" lon="12.411028253497879"><ele>181.0</ele><time>2026-05-02T14:46:53Z</time></trkpt><trkpt lat="43.06069960893565" lon="12.411185843410088"><ele>181.0</ele><time>2026-05-02T14:46:54Z</time></trkpt><trkpt lat="43.0609487667405" lon="12.411338543490121"><ele>181.5</ele><time>2026-05-02T14:46:55Z</time></trkpt><trkpt lat="43.06120114172622" lon="12.411495258130216"><ele>182.0</ele><time>2026-05-02T14:46:56Z</time></trkpt><trkpt lat="43.06145527462611" lon="12.411659783775983"><ele>182.0</ele><time>2026-05-02T14:46:57Z</time></trkpt><trkpt lat="43.06170642429981" lon="12.411828620359836"><ele>182.0</ele><time>2026-05-02T14:46:58Z</time></trkpt><trkpt lat="43.06195852524675" lon="12.411995225654765"><ele>182.0</ele><time>2026-05-02T14:46:59Z</time></trkpt><trkpt lat="43.06221326863936" lon="12.412160570407877"><ele>182.0</ele><time>2026-05-02T14:47:00Z</time></trkpt><trkpt lat="43.06246926979627" lon="12.41232855963523"><ele>181.5</ele><time>2026-05-02T14:47:01Z</time></trkpt><trkpt lat="43.062723730819314" lon="12.4124944726092"><ele>181.0</ele><time>2026-05-02T14:47:02Z</time></trkpt><trkpt lat="43.06298404826966" lon="12.412656914533498"><ele>181.0</ele><time>2026-05-02T14:47:03Z</time></trkpt><trkpt lat="43.06323657467058" lon="12.412819162562121"><ele>181.0</ele><time>2026-05-02T14:47:04Z</time></trkpt><trkpt lat="43.06348848410951" lon="12.412975931227242"><ele>180.5</ele><time>2026-05-02T14:47:05Z</time></trkpt><trkpt lat="43.06374065547402" lon="12.413140457391716"><ele>180.0</ele><time>2026-05-02T14:47:06Z</time></trkpt><trkpt lat="43.06399967882078" lon="12.413310643234086"><ele>181.5</ele><time>2026-05-02T14:47:07Z</time></trkpt><trkpt lat="43.06425909185372" lon="12.413471605515321"><ele>183.0</ele><time>2026-05-02T14:47:08Z</time></trkpt><trkpt lat="43.064514136584556" lon="12.41363549062047"><ele>183.0</ele><time>2026-05-02T14:47:09Z</time></trkpt><trkpt lat="43.06476056046044" lon="12.413801396871394"><ele>183.0</ele><time>2026-05-02T14:47:10Z</time></trkpt><trkpt lat="43.06499946668396" lon="12.413971131094431"><ele>182.0</ele><time>2026-05-02T14:47:11Z</time></trkpt><trkpt lat="43.0652368320174" lon="12.414140300247835"><ele>181.0</ele><time>2026-05-02T14:47:12Z</time></trkpt><trkpt lat="43.06547316396434" lon="12.414298872107862"><ele>181.0</ele><time>2026-05-02T14:47:13Z</time></trkpt><trkpt lat="43.06571011133983" lon="12.414442376086315"><ele>181.0</ele><time>2026-05-02T14:47:14Z</time></trkpt><trkpt lat="43.06594488513431" lon="12.414583894524158"><ele>182.5</ele><time>2026-05-02T14:47:15Z</time></trkpt><trkpt lat="43.06617868636849" lon="12.414731050591847"><ele>184.0</ele><time>2026-05-02T14:47:16Z</time></trkpt><trkpt lat="43.06641196885845" lon="12.414880731561933"><ele>184.5</ele><time>2026-05-02T14:47:17Z</time></trkpt><trkpt lat="43.066645285219536" lon="12.415033275834201"><ele>185.0</ele><time>2026-05-02T14:47:18Z</time></trkpt><trkpt lat="43.06688139739811" lon="12.415183558385632"><ele>185.0</ele><time>2026-05-02T14:47:19Z</time></trkpt><trkpt lat="43.067114548979674" lon="12.41533271391482"><ele>185.0</ele><time>2026-05-02T14:47:20Z</time></trkpt><trkpt lat="43.067349107092426" lon="12.415480049718784"><ele>184.5</ele><time>2026-05-02T14:47:21Z</time></trkpt><trkpt lat="43.067585498478095" lon="12.415623576630084"><ele>184.0</ele><time>2026-05-02T14:47:22Z</time></trkpt><trkpt lat="43.067820310030626" lon="12.415768096289133"><ele>184.0</ele><time>2026-05-02T14:47:23Z</time></trkpt><trkpt lat="43.0680542452646" lon="12.415915538083278"><ele>184.0</ele><time>2026-05-02T14:47:24Z</time></trkpt><trkpt lat="43.06828811953373" lon="12.416059875750737"><ele>184.0</ele><time>2026-05-02T14:47:25Z</time></trkpt><trkpt lat="43.068522706470084" lon="12.41620551204245"><ele>184.0</ele><time>2026-05-02T14:47:26Z</time></trkpt><trkpt lat="43.06875737026001" lon="12.41635288077488"><ele>184.0</ele><time>2026-05-02T14:47:27Z</time></trkpt><trkpt lat="43.06899647787294" lon="12.416498053586757"><ele>184.0</ele><time>2026-05-02T14:47:28Z</time></trkpt><trkpt lat="43.0692367331908" lon="12.416644680651414"><ele>184.0</ele><time>2026-05-02T14:47:29Z</time></trkpt><trkpt lat="43.06947978013931" lon="12.416795637413902"><ele>184.0</ele><time>2026-05-02T14:47:30Z</time></trkpt><trkpt lat="43.069722789600355" lon="12.416950649179412"><ele>184.0</ele><time>2026-05-02T14:47:31Z</time></trkpt><trkpt lat="43.06996381073837" lon="12.417099300282839"><ele>184.0</ele><time>2026-05-02T14:47:32Z</time></trkpt><trkpt lat="43.0701967904161" lon="12.417246133972368"><ele>183.5</ele><time>2026-05-02T14:47:33Z</time></trkpt><trkpt lat="43.07043294116752" lon="12.417391809700518"><ele>183.0</ele><time>2026-05-02T14:47:34Z</time></trkpt><trkpt lat="43.07066141960582" lon="12.417543785100401"><ele>183.5</ele><time>2026-05-02T14:47:35Z</time></trkpt><trkpt lat="43.07089599938504" lon="12.417690368340038"><ele>184.0</ele><time>2026-05-02T14:47:36Z</time></trkpt><trkpt lat="43.07112911693121" lon="12.417839248390642"><ele>184.0</ele><time>2026-05-02T14:47:37Z</time></trkpt><trkpt lat="43.071362962246376" lon="12.41798347890702"><ele>184.0</ele><time>2026-05-02T14:47:38Z</time></trkpt><trkpt lat="43.071595700888544" lon="12.418125825034535"><ele>184.0</ele><time>2026-05-02T14:47:39Z</time></trkpt><trkpt lat="43.071831610036085" lon="12.418268277587142"><ele>184.0</ele><time>2026-05-02T14:47:40Z</time></trkpt><trkpt lat="43.072062218194134" lon="12.418414729818657"><ele>184.0</ele><time>2026-05-02T14:47:41Z</time></trkpt><trkpt lat="43.0722951348988" lon="12.41856155466567"><ele>184.0</ele><time>2026-05-02T14:47:42Z</time></trkpt><trkpt lat="43.07253002021915" lon="12.41870467251445"><ele>185.0</ele><time>2026-05-02T14:47:43Z</time></trkpt><trkpt lat="43.072766426115756" lon="12.418846206098511"><ele>186.0</ele><time>2026-05-02T14:47:44Z</time></trkpt><trkpt lat="43.07300176847397" lon="12.418993850376088"><ele>186.0</ele><time>2026-05-02T14:47:45Z</time></trkpt><trkpt lat="43.07323926317852" lon="12.419139506519198"><ele>186.0</ele><time>2026-05-02T14:47:46Z</time></trkpt><trkpt lat="43.07347473726936" lon="12.419285131417986"><ele>186.5</ele><time>2026-05-02T14:47:47Z</time></trkpt><trkpt lat="43.07371577625911" lon="12.419431504125434"><ele>187.0</ele><time>2026-05-02T14:47:48Z</time></trkpt><trkpt lat="43.0739579342399" lon="12.419573464174796"><ele>187.5</ele><time>2026-05-02T14:47:49Z</time></trkpt><trkpt lat="43.0741947400795" lon="12.419722197573439"><ele>188.0</ele><time>2026-05-02T14:47:50Z</time></trkpt><trkpt lat="43.07443106146349" lon="12.419864129705955"><ele>188.0</ele><time>2026-05-02T14:47:51Z</time></trkpt><trkpt lat="43.0746741940107" lon="12.420011331834813"><ele>188.0</ele><time>2026-05-02T14:47:52Z</time></trkpt><trkpt lat="43.074918577460764" lon="12.420159199182795"><ele>187.5</ele><time>2026-05-02T14:47:53Z</time></trkpt><trkpt lat="43.075165377658976" lon="12.420308559938091"><ele>187.0</ele><time>2026-05-02T14:47:54Z</time></trkpt><trkpt lat="43.075408789875084" lon="12.420459028877044"><ele>186.5</ele><time>2026-05-02T14:47:55Z</time></trkpt><trkpt lat="43.07565175740858" lon="12.420606961975855"><ele>186.0</ele><time>2026-05-02T14:47:56Z</time></trkpt><trkpt lat="43.07589303650596" lon="12.420758408144268"><ele>187.0</ele><time>2026-05-02T14:47:57Z</time></trkpt><trkpt lat="43.076135763648836" lon="12.420908682631724"><ele>188.0</ele><time>2026-05-02T14:47:58Z</time></trkpt><trkpt lat="43.0763789884366" lon="12.42105808443218"><ele>189.5</ele><time>2026-05-02T14:47:59Z</time></trkpt><trkpt lat="43.07662357328478" lon="12.421208711353275"><ele>191.0</ele><time>2026-05-02T14:48:00Z</time></trkpt><trkpt lat="43.07686822023768" lon="12.42136788075353"><ele>191.0</ele><time>2026-05-02T14:48:01Z</time></trkpt><trkpt lat="43.07711491587705" lon="12.421523972999442"><ele>191.0</ele><time>2026-05-02T14:48:02Z</time></trkpt><trkpt lat="43.077356484394194" lon="12.421673140162195"><ele>191.5</ele><time>2026-05-02T14:48:03Z</time></trkpt><trkpt lat="43.077598329754224" lon="12.421829752240946"><ele>192.0</ele><time>2026-05-02T14:48:04Z</time></trkpt><trkpt lat="43.07783620639887" lon="12.421984610583511"><ele>192.5</ele><time>2026-05-02T14:48:05Z</time></trkpt><trkpt lat="43.07807339189279" lon="12.422149035997633"><ele>193.0</ele><time>2026-05-02T14:48:06Z</time></trkpt><trkpt lat="43.07830946216633" lon="12.422322433584776"><ele>193.5</ele><time>2026-05-02T14:48:07Z</time></trkpt><trkpt lat="43.07853942435277" lon="12.422501777170801"><ele>194.0</ele><time>2026-05-02T14:48:08Z</time></trkpt><trkpt lat="43.078770055871864" lon="12.42268566694917"><ele>194.0</ele><time>2026-05-02T14:48:09Z</time></trkpt><trkpt lat="43.07899837336554" lon="12.422873297927605"><ele>194.0</ele><time>2026-05-02T14:48:10Z</time></trkpt><trkpt lat="43.07922466711948" lon="12.42306850737346"><ele>193.0</ele><time>2026-05-02T14:48:11Z</time></trkpt><trkpt lat="43.079447726502195" lon="12.423266609362281"><ele>192.0</ele><time>2026-05-02T14:48:12Z</time></trkpt><trkpt lat="43.07966876272981" lon="12.423466231683422"><ele>192.0</ele><time>2026-05-02T14:48:13Z</time></trkpt><trkpt lat="43.07988935584947" lon="12.423669378701746"><ele>192.0</ele><time>2026-05-02T14:48:14Z</time></trkpt><trkpt lat="43.08010723471241" lon="12.42387886208006"><ele>192.5</ele><time>2026-05-02T14:48:15Z</time></trkpt><trkpt lat="43.080324564232605" lon="12.424089954411635"><ele>193.0</ele><time>2026-05-02T14:48:16Z</time></trkpt><trkpt lat="43.08054443586292" lon="12.424303766401481"><ele>193.0</ele><time>2026-05-02T14:48:17Z</time></trkpt><trkpt lat="43.080766657561554" lon="12.424516892619293"><ele>193.0</ele><time>2026-05-02T14:48:18Z</time></trkpt><trkpt lat="43.080987667405914" lon="12.424725045642834"><ele>193.5</ele><time>2026-05-02T14:48:19Z</time></trkpt><trkpt lat="43.0812048006144" lon="12.424930706416069"><ele>194.0</ele><time>2026-05-02T14:48:20Z</time></trkpt><trkpt lat="43.08142108527094" lon="12.425142034807308"><ele>193.5</ele><time>2026-05-02T14:48:21Z</time></trkpt><trkpt lat="43.08163860112158" lon="12.425341887730804"><ele>193.0</ele><time>2026-05-02T14:48:22Z</time></trkpt><trkpt lat="43.08185488221457" lon="12.425541733304529"><ele>192.5</ele><time>2026-05-02T14:48:23Z</time></trkpt><trkpt lat="43.08206721758948" lon="12.425739652423099"><ele>192.0</ele><time>2026-05-02T14:48:24Z</time></trkpt><trkpt lat="43.08226289687025" lon="12.425927395958775"><ele>191.66666666666666</ele><time>2026-05-02T14:48:25Z</time></trkpt><trkpt lat="43.082449179099264" lon="12.426101154212375"><ele>191.33333333333331</ele><time>2026-05-02T14:48:26Z</time></trkpt><trkpt lat="43.08262651243332" lon="12.42626159668078"><ele>191.0</ele><time>2026-05-02T14:48:27Z</time></trkpt><trkpt lat="43.082794315259775" lon="12.42641443380482"><ele>191.0</ele><time>2026-05-02T14:48:28Z</time></trkpt><trkpt lat="43.08295224169291" lon="12.426559072841432"><ele>191.0</ele><time>2026-05-02T14:48:29Z</time></trkpt><trkpt lat="43.08310049007364" lon="12.42670146337622"><ele>191.0</ele><time>2026-05-02T14:48:30Z</time></trkpt><trkpt lat="43.08324228617356" lon="12.426839836072602"><ele>192.33333333333331</ele><time>2026-05-02T14:48:31Z</time></trkpt><trkpt lat="43.08339343458253" lon="12.4269816095415"><ele>193.66666666666666</ele><time>2026-05-02T14:48:32Z</time></trkpt><trkpt lat="43.08354789310454" lon="12.42713840040529"><ele>195.0</ele><time>2026-05-02T14:48:33Z</time></trkpt><trkpt lat="43.08370328093972" lon="12.42730042265838"><ele>195.0</ele><time>2026-05-02T14:48:34Z</time></trkpt><trkpt lat="43.083856798562636" lon="12.427464786582668"><ele>195.0</ele><time>2026-05-02T14:48:35Z</time></trkpt><trkpt lat="43.084005053775286" lon="12.42763052436953"><ele>195.0</ele><time>2026-05-02T14:48:36Z</time></trkpt><trkpt lat="43.08415809977338" lon="12.427797644363412"><ele>195.33333333333331</ele><time>2026-05-02T14:48:37Z</time></trkpt><trkpt lat="43.084293843213715" lon="12.42796853971019"><ele>195.66666666666666</ele><time>2026-05-02T14:48:38Z</time></trkpt><trkpt lat="43.0844247669598" lon="12.428144434098476"><ele>196.0</ele><time>2026-05-02T14:48:39Z</time></trkpt><trkpt lat="43.08454322431785" lon="12.428331188552736"><ele>196.0</ele><time>2026-05-02T14:48:40Z</time></trkpt><trkpt lat="43.08466128086318" lon="12.428509708075453"><ele>196.0</ele><time>2026-05-02T14:48:41Z</time></trkpt><trkpt lat="43.08480414528763" lon="12.428693005843918"><ele>196.0</ele><time>2026-05-02T14:48:42Z</time></trkpt><trkpt lat="43.084937303110614" lon="12.42887483004595"><ele>196.33333333333331</ele><time>2026-05-02T14:48:43Z</time></trkpt><trkpt lat="43.0850475192714" lon="12.429079313215246"><ele>196.66666666666669</ele><time>2026-05-02T14:48:44Z</time></trkpt><trkpt lat="43.08514609715145" lon="12.429293184515195"><ele>197.0</ele><time>2026-05-02T14:48:45Z</time></trkpt><trkpt lat="43.085225902925515" lon="12.429516222531"><ele>197.33333333333334</ele><time>2026-05-02T14:48:46Z</time></trkpt><trkpt lat="43.0852932875143" lon="12.4297260541542"><ele>197.66666666666669</ele><time>2026-05-02T14:48:47Z</time></trkpt><trkpt lat="43.08534221050394" lon="12.429949360867274"><ele>198.0</ele><time>2026-05-02T14:48:48Z</time></trkpt><trkpt lat="43.08535921505489" lon="12.43018791220758"><ele>198.0</ele><time>2026-05-02T14:48:49Z</time></trkpt><trkpt lat="43.08535515560732" lon="12.430422898253095"><ele>198.0</ele><time>2026-05-02T14:48:50Z</time></trkpt><trkpt lat="43.08533679182049" lon="12.430645729665864"><ele>198.0</ele><time>2026-05-02T14:48:51Z</time></trkpt><trkpt lat="43.085326155445486" lon="12.430859220084537"><ele>197.66666666666669</ele><time>2026-05-02T14:48:52Z</time></trkpt><trkpt lat="43.08531678535237" lon="12.4310686815478"><ele>197.33333333333334</ele><time>2026-05-02T14:48:53Z</time></trkpt><trkpt lat="43.085308527907635" lon="12.431277180744248"><ele>197.0</ele><time>2026-05-02T14:48:54Z</time></trkpt><trkpt lat="43.08530118426956" lon="12.43148220712408"><ele>197.0</ele><time>2026-05-02T14:48:55Z</time></trkpt><trkpt lat="43.08529702141808" lon="12.431679901360944"><ele>197.0</ele><time>2026-05-02T14:48:56Z</time></trkpt><trkpt lat="43.08529795163379" lon="12.43186879577523"><ele>197.0</ele><time>2026-05-02T14:48:57Z</time></trkpt><trkpt lat="43.0853275198955" lon="12.432045744338835"><ele>197.0</ele><time>2026-05-02T14:48:58Z</time></trkpt><trkpt lat="43.08538693143341" lon="12.432208334440073"><ele>197.0</ele><time>2026-05-02T14:48:59Z</time></trkpt><trkpt lat="43.085460533233054" lon="12.43234140172375"><ele>197.0</ele><time>2026-05-02T14:49:00Z</time></trkpt><trkpt lat="43.08555607118038" lon="12.43243247407571"><ele>197.0</ele><time>2026-05-02T14:49:01Z</time></trkpt><trkpt lat="43.085661771693516" lon="12.432492556891695"><ele>197.0</ele><time>2026-05-02T14:49:02Z</time></trkpt><trkpt lat="43.08578779264714" lon="12.432501298043334"><ele>197.5</ele><time>2026-05-02T14:49:03Z</time></trkpt><trkpt lat="43.08590938882838" lon="12.432458480805183"><ele>198.0</ele><time>2026-05-02T14:49:04Z</time></trkpt><trkpt lat="43.08602683270188" lon="12.432360368205075"><ele>198.5</ele><time>2026-05-02T14:49:05Z</time></trkpt><trkpt lat="43.08611150624383" lon="12.432231892372759"><ele>199.0</ele><time>2026-05-02T14:49:06Z</time></trkpt><trkpt lat="43.08615460269229" lon="12.432059469428625"><ele>199.0</ele><time>2026-05-02T14:49:07Z</time></trkpt><trkpt lat="43.08615393644624" lon="12.431860667683859"><ele>199.0</ele><time>2026-05-02T14:49:08Z</time></trkpt><trkpt lat="43.08611171221118" lon="12.431619623934367"><ele>199.0</ele><time>2026-05-02T14:49:09Z</time></trkpt><trkpt lat="43.086052023627076" lon="12.431347190825413"><ele>198.0</ele><time>2026-05-02T14:49:10Z</time></trkpt><trkpt lat="43.086002619698895" lon="12.431029590037344"><ele>197.0</ele><time>2026-05-02T14:49:11Z</time></trkpt><trkpt lat="43.08597086541239" lon="12.43072077869491"><ele>197.0</ele><time>2026-05-02T14:49:12Z</time></trkpt><trkpt lat="43.0859425173702" lon="12.430428294706886"><ele>197.0</ele><time>2026-05-02T14:49:13Z</time></trkpt><trkpt lat="43.08592546852494" lon="12.430147323074536"><ele>197.0</ele><time>2026-05-02T14:49:14Z</time></trkpt><trkpt lat="43.08591823418237" lon="12.429870659608456"><ele>198.33333333333334</ele><time>2026-05-02T14:49:15Z</time></trkpt><trkpt lat="43.08591669228023" lon="12.429595825252646"><ele>199.66666666666669</ele><time>2026-05-02T14:49:16Z</time></trkpt><trkpt lat="43.08592498537089" lon="12.42932358813837"><ele>201.0</ele><time>2026-05-02T14:49:17Z</time></trkpt><trkpt lat="43.085955629956906" lon="12.42905438531011"><ele>201.33333333333331</ele><time>2026-05-02T14:49:18Z</time></trkpt><trkpt lat="43.08602561103074" lon="12.428797732255028"><ele>201.66666666666666</ele><time>2026-05-02T14:49:19Z</time></trkpt><trkpt lat="43.086135944139" lon="12.428565276243065"><ele>202.0</ele><time>2026-05-02T14:49:20Z</time></trkpt><trkpt lat="43.08628352222808" lon="12.428356951714177"><ele>202.0</ele><time>2026-05-02T14:49:21Z</time></trkpt><trkpt lat="43.08646393900641" lon="12.428163162350206"><ele>202.0</ele><time>2026-05-02T14:49:22Z</time></trkpt><trkpt lat="43.08667454246238" lon="12.427976362983237"><ele>202.0</ele><time>2026-05-02T14:49:23Z</time></trkpt><trkpt lat="43.08690361098078" lon="12.427779046965117"><ele>202.0</ele><time>2026-05-02T14:49:24Z</time></trkpt><trkpt lat="43.08712133749135" lon="12.42754625508505"><ele>202.0</ele><time>2026-05-02T14:49:25Z</time></trkpt><trkpt lat="43.08734011343811" lon="12.427296599397648"><ele>202.0</ele><time>2026-05-02T14:49:26Z</time></trkpt><trkpt lat="43.087556107737406" lon="12.427046130487534"><ele>203.5</ele><time>2026-05-02T14:49:27Z</time></trkpt><trkpt lat="43.087759758978315" lon="12.426793690059213"><ele>205.0</ele><time>2026-05-02T14:49:28Z</time></trkpt><trkpt lat="43.08796078808665" lon="12.426552628805311"><ele>205.0</ele><time>2026-05-02T14:49:29Z</time></trkpt><trkpt lat="43.08815295687699" lon="12.42633071111031"><ele>205.0</ele><time>2026-05-02T14:49:30Z</time></trkpt><trkpt lat="43.0883451027864" lon="12.426099459862758"><ele>205.5</ele><time>2026-05-02T14:49:31Z</time></trkpt><trkpt lat="43.088529579383405" lon="12.425878295555234"><ele>206.0</ele><time>2026-05-02T14:49:32Z</time></trkpt><trkpt lat="43.08870038183201" lon="12.425677394784977"><ele>206.0</ele><time>2026-05-02T14:49:33Z</time></trkpt><trkpt lat="43.088858850421005" lon="12.425489536040331"><ele>206.0</ele><time>2026-05-02T14:49:34Z</time></trkpt><trkpt lat="43.089009827919796" lon="12.425282369744485"><ele>206.0</ele><time>2026-05-02T14:49:35Z</time></trkpt><trkpt lat="43.089165045760566" lon="12.425068736428022"><ele>211.0</ele><time>2026-05-02T14:49:36Z</time></trkpt><trkpt lat="43.089336898996095" lon="12.42485093193396"><ele>216.0</ele><time>2026-05-02T14:49:37Z</time></trkpt><trkpt lat="43.08952228588985" lon="12.424632659975046"><ele>216.0</ele><time>2026-05-02T14:49:38Z</time></trkpt><trkpt lat="43.08971438114512" lon="12.424404410898966"><ele>216.0</ele><time>2026-05-02T14:49:39Z</time></trkpt><trkpt lat="43.08991448129102" lon="12.424170147116925"><ele>219.0</ele><time>2026-05-02T14:49:40Z</time></trkpt><trkpt lat="43.090114258486146" lon="12.42392832147331"><ele>222.0</ele><time>2026-05-02T14:49:41Z</time></trkpt><trkpt lat="43.09030886328994" lon="12.423672599033099"><ele>222.0</ele><time>2026-05-02T14:49:42Z</time></trkpt><trkpt lat="43.09049408332609" lon="12.423405548156863"><ele>222.0</ele><time>2026-05-02T14:49:43Z</time></trkpt><trkpt lat="43.09066755307732" lon="12.423118710216583"><ele>228.5</ele><time>2026-05-02T14:49:44Z</time></trkpt><trkpt lat="43.090826151570944" lon="12.422824787617934"><ele>235.0</ele><time>2026-05-02T14:49:45Z</time></trkpt><trkpt lat="43.09096180400384" lon="12.42250575489023"><ele>235.0</ele><time>2026-05-02T14:49:46Z</time></trkpt><trkpt lat="43.091072570313514" lon="12.422162331298363"><ele>235.0</ele><time>2026-05-02T14:49:47Z</time></trkpt><trkpt lat="43.09115943742254" lon="12.421817736356664"><ele>240.0</ele><time>2026-05-02T14:49:48Z</time></trkpt><trkpt lat="43.09123927992532" lon="12.421481764684168"><ele>245.0</ele><time>2026-05-02T14:49:49Z</time></trkpt><trkpt lat="43.091292684838606" lon="12.421122837158036"><ele>249.5</ele><time>2026-05-02T14:49:50Z</time></trkpt><trkpt lat="43.091333290163824" lon="12.42076050906571"><ele>254.0</ele><time>2026-05-02T14:49:51Z</time></trkpt><trkpt lat="43.0913782748418" lon="12.420400004826266"><ele>259.0</ele><time>2026-05-02T14:49:52.022Z</time></trkpt><trkpt lat="43.091423048693734" lon="12.420053793974539"><ele>264.0</ele><time>2026-05-02T14:49:53.02Z</time></trkpt><trkpt lat="43.09147414897112" lon="12.41971782062864"><ele>268.0</ele><time>2026-05-02T14:49:54.02Z</time></trkpt><trkpt lat="43.09152963863775" lon="12.419399720342632"><ele>272.0</ele><time>2026-05-02T14:49:55.019Z</time></trkpt><trkpt lat="43.09156369120526" lon="12.419101099773346"><ele>275.33333333333337</ele><time>2026-05-02T14:49:56.021Z</time></trkpt><trkpt lat="43.09159275603394" lon="12.418811049003809"><ele>278.6666666666667</ele><time>2026-05-02T14:49:57.017Z</time></trkpt><trkpt lat="43.09162224762945" lon="12.41851674046206"><ele>282.0</ele><time>2026-05-02T14:49:58.02Z</time></trkpt><trkpt lat="43.09201623317142" lon="12.414653962489604"><ele>275.3333333333333</ele><time>2026-05-02T14:50:12Z</time></trkpt><trkpt lat="43.092027530251336" lon="12.414375105767077"><ele>268.66666666666663</ele><time>2026-05-02T14:50:13Z</time></trkpt><trkpt lat="43.09211220995919" lon="12.414066176330952"><ele>262.0</ele><time>2026-05-02T14:50:14Z</time></trkpt><trkpt lat="43.09213030820001" lon="12.413775594537785"><ele>260.66666666666663</ele><time>2026-05-02T14:50:15Z</time></trkpt><trkpt lat="43.092276041449146" lon="12.413575813194495"><ele>259.3333333333333</ele><time>2026-05-02T14:50:16Z</time></trkpt><trkpt lat="43.09233048958216" lon="12.413326311634737"><ele>258.0</ele><time>2026-05-02T14:50:17Z</time></trkpt><trkpt lat="43.092438988262906" lon="12.413137120937128"><ele>261.3333333333333</ele><time>2026-05-02T14:50:18Z</time></trkpt><trkpt lat="43.09250489524573" lon="12.412930910119531"><ele>264.66666666666663</ele><time>2026-05-02T14:50:19Z</time></trkpt><trkpt lat="43.092584005609815" lon="12.412712134786544"><ele>268.0</ele><time>2026-05-02T14:50:20Z</time></trkpt><trkpt lat="43.09266817716964" lon="12.412489769050397"><ele>268.0</ele><time>2026-05-02T14:50:21Z</time></trkpt><trkpt lat="43.092747432856804" lon="12.4122661025253"><ele>268.0</ele><time>2026-05-02T14:50:22Z</time></trkpt><trkpt lat="43.092832402632865" lon="12.4120537072704"><ele>268.0</ele><time>2026-05-02T14:50:23Z</time></trkpt><trkpt lat="43.09292380265101" lon="12.411849714115588"><ele>267.3333333333333</ele><time>2026-05-02T14:50:24Z</time></trkpt><trkpt lat="43.09300267443934" lon="12.411638124934251"><ele>266.6666666666667</ele><time>2026-05-02T14:50:25Z</time></trkpt><trkpt lat="43.09308101612505" lon="12.411422038184588"><ele>266.0</ele><time>2026-05-02T14:50:26Z</time></trkpt><trkpt lat="43.093160903993734" lon="12.411209405436026"><ele>265.6666666666667</ele><time>2026-05-02T14:50:27Z</time></trkpt><trkpt lat="43.09323920954401" lon="12.410999781373636"><ele>265.3333333333333</ele><time>2026-05-02T14:50:28Z</time></trkpt><trkpt lat="43.09331777641083" lon="12.4107841195085"><ele>265.0</ele><time>2026-05-02T14:50:29Z</time></trkpt><trkpt lat="43.09339938677078" lon="12.410568864464162"><ele>269.3333333333333</ele><time>2026-05-02T14:50:30Z</time></trkpt><trkpt lat="43.09347949866174" lon="12.410347768989487"><ele>273.6666666666667</ele><time>2026-05-02T14:50:31Z</time></trkpt><trkpt lat="43.09355855774231" lon="12.410121691656608"><ele>278.0</ele><time>2026-05-02T14:50:32Z</time></trkpt><trkpt lat="43.093636081672244" lon="12.409889670284521"><ele>277.33333333333337</ele><time>2026-05-02T14:50:33Z</time></trkpt><trkpt lat="43.09370794326272" lon="12.4096568383018"><ele>276.6666666666667</ele><time>2026-05-02T14:50:34Z</time></trkpt><trkpt lat="43.0937772946831" lon="12.40942314387869"><ele>276.0</ele><time>2026-05-02T14:50:35Z</time></trkpt><trkpt lat="43.09384236783713" lon="12.409189247481455"><ele>276.0</ele><time>2026-05-02T14:50:36Z</time></trkpt><trkpt lat="43.09389876510944" lon="12.408955026343161"><ele>276.0</ele><time>2026-05-02T14:50:37Z</time></trkpt><trkpt lat="43.09395118443869" lon="12.408715272854957"><ele>276.0</ele><time>2026-05-02T14:50:38Z</time></trkpt><trkpt lat="43.09400362498633" lon="12.408471121531546"><ele>276.0</ele><time>2026-05-02T14:50:39Z</time></trkpt><trkpt lat="43.094054034861045" lon="12.408226268646791"><ele>276.0</ele><time>2026-05-02T14:50:40Z</time></trkpt><trkpt lat="43.09410027796429" lon="12.407980502936699"><ele>276.0</ele><time>2026-05-02T14:50:41Z</time></trkpt><trkpt lat="43.09413914995259" lon="12.407730411116727"><ele>280.6666666666667</ele><time>2026-05-02T14:50:42Z</time></trkpt><trkpt lat="43.09417842040836" lon="12.407488136510826"><ele>285.33333333333337</ele><time>2026-05-02T14:50:43Z</time></trkpt><trkpt lat="43.09421399095389" lon="12.407248307257932"><ele>290.0</ele><time>2026-05-02T14:50:44Z</time></trkpt><trkpt lat="43.094251793548175" lon="12.406995373737587"><ele>290.6666666666667</ele><time>2026-05-02T14:50:45Z</time></trkpt><trkpt lat="43.094276740733996" lon="12.406748471686118"><ele>291.3333333333333</ele><time>2026-05-02T14:50:46Z</time></trkpt><trkpt lat="43.09429994891627" lon="12.406496051199523"><ele>292.0</ele><time>2026-05-02T14:50:47Z</time></trkpt><trkpt lat="43.094320602311164" lon="12.406238983954639"><ele>292.3333333333333</ele><time>2026-05-02T14:50:48Z</time></trkpt><trkpt lat="43.09433585586178" lon="12.405980101176405"><ele>292.6666666666667</ele><time>2026-05-02T14:50:49Z</time></trkpt><trkpt lat="43.09434996464934" lon="12.4057195895722"><ele>293.0</ele><time>2026-05-02T14:50:50Z</time></trkpt><trkpt lat="43.094360468619406" lon="12.405459543084186"><ele>296.0</ele><time>2026-05-02T14:50:51Z</time></trkpt><trkpt lat="43.09436429442048" lon="12.405197578769872"><ele>299.0</ele><time>2026-05-02T14:50:52Z</time></trkpt><trkpt lat="43.09436344920692" lon="12.404936104457276"><ele>302.0</ele><time>2026-05-02T14:50:53Z</time></trkpt><trkpt lat="43.09435600851997" lon="12.404709713724044"><ele>303.33333333333337</ele><time>2026-05-02T14:50:54Z</time></trkpt><trkpt lat="43.09435773586729" lon="12.404465206424426"><ele>304.6666666666667</ele><time>2026-05-02T14:50:55Z</time></trkpt><trkpt lat="43.094353429877934" lon="12.404214829787799"><ele>306.0</ele><time>2026-05-02T14:50:56Z</time></trkpt><trkpt lat="43.094340883937384" lon="12.403967879980062"><ele>307.6666666666667</ele><time>2026-05-02T14:50:57Z</time></trkpt><trkpt lat="43.094331025621145" lon="12.403730837266325"><ele>309.33333333333337</ele><time>2026-05-02T14:50:58Z</time></trkpt><trkpt lat="43.09432046323472" lon="12.403490734827555"><ele>311.0</ele><time>2026-05-02T14:50:59Z</time></trkpt><trkpt lat="43.094309890201636" lon="12.403247273314852"><ele>311.0</ele><time>2026-05-02T14:51:00Z</time></trkpt><trkpt lat="43.09430106907451" lon="12.402997873491223"><ele>311.0</ele><time>2026-05-02T14:51:01Z</time></trkpt><trkpt lat="43.09428991647747" lon="12.402743184127564"><ele>311.0</ele><time>2026-05-02T14:51:02Z</time></trkpt><trkpt lat="43.0942724629217" lon="12.402480779376017"><ele>315.0</ele><time>2026-05-02T14:51:03Z</time></trkpt><trkpt lat="43.09425601940433" lon="12.402224817555679"><ele>319.0</ele><time>2026-05-02T14:51:04Z</time></trkpt><trkpt lat="43.09423915044824" lon="12.401937960161959"><ele>323.0</ele><time>2026-05-02T14:51:05.022Z</time></trkpt><trkpt lat="43.09422024140826" lon="12.40165909794086"><ele>330.0</ele><time>2026-05-02T14:51:06.02Z</time></trkpt><trkpt lat="43.09420034871715" lon="12.401368769976875"><ele>337.0</ele><time>2026-05-02T14:51:07.016Z</time></trkpt><trkpt lat="43.09417986158053" lon="12.401066063938611"><ele>344.0</ele><time>2026-05-02T14:51:08.021Z</time></trkpt><trkpt lat="43.09415757896869" lon="12.400744554404548"><ele>340.6666666666667</ele><time>2026-05-02T14:51:09.019Z</time></trkpt><trkpt lat="43.09413953687443" lon="12.400420464376774"><ele>337.3333333333333</ele><time>2026-05-02T14:51:10.02Z</time></trkpt><trkpt lat="43.09412596669769" lon="12.400133844785001"><ele>334.0</ele><time>2026-05-02T14:51:11.021Z</time></trkpt><trkpt lat="43.0937218666478" lon="12.388964770373319"><ele>330.66666666666663</ele><time>2026-05-02T14:51:59Z</time></trkpt><trkpt lat="43.093697786261444" lon="12.388733493177101"><ele>327.3333333333333</ele><time>2026-05-02T14:52:00Z</time></trkpt><trkpt lat="43.09371874462039" lon="12.388418295005353"><ele>324.0</ele><time>2026-05-02T14:52:01Z</time></trkpt><trkpt lat="43.0937238440992" lon="12.388117990650203"><ele>322.0</ele><time>2026-05-02T14:52:02Z</time></trkpt><trkpt lat="43.09372938609243" lon="12.38788717074781"><ele>320.0</ele><time>2026-05-02T14:52:03Z</time></trkpt><trkpt lat="43.09377761215254" lon="12.387661959584772"><ele>318.0</ele><time>2026-05-02T14:52:04Z</time></trkpt><trkpt lat="43.09378840807611" lon="12.387285917612948"><ele>317.0</ele><time>2026-05-02T14:52:05Z</time></trkpt><trkpt lat="43.09378077753408" lon="12.387085558668574"><ele>316.0</ele><time>2026-05-02T14:52:06Z</time></trkpt><trkpt lat="43.093810686439745" lon="12.386876917111422"><ele>315.0</ele><time>2026-05-02T14:52:07Z</time></trkpt><trkpt lat="43.09383084654827" lon="12.386671719397736"><ele>315.0</ele><time>2026-05-02T14:52:08Z</time></trkpt><trkpt lat="43.09386014701001" lon="12.386507524089415"><ele>315.0</ele><time>2026-05-02T14:52:09Z</time></trkpt><trkpt lat="43.09389807000775" lon="12.386368454665329"><ele>315.0</ele><time>2026-05-02T14:52:10Z</time></trkpt><trkpt lat="43.09396522727759" lon="12.386251689426812"><ele>315.0</ele><time>2026-05-02T14:52:11Z</time></trkpt><trkpt lat="43.094032375814486" lon="12.386193922336446"><ele>315.0</ele><time>2026-05-02T14:52:12Z</time></trkpt><trkpt lat="43.09411243176719" lon="12.386164910624943"><ele>313.6666666666667</ele><time>2026-05-02T14:52:13Z</time></trkpt><trkpt lat="43.09422336733867" lon="12.386066829733556"><ele>312.33333333333337</ele><time>2026-05-02T14:52:14Z</time></trkpt><trkpt lat="43.09444418547565" lon="12.386108960451903"><ele>311.0</ele><time>2026-05-02T14:52:15Z</time></trkpt><trkpt lat="43.09464191939129" lon="12.3860786182612"><ele>311.0</ele><time>2026-05-02T14:52:16Z</time></trkpt><trkpt lat="43.094862335981304" lon="12.386072868867911"><ele>311.0</ele><time>2026-05-02T14:52:17Z</time></trkpt><trkpt lat="43.09506617065442" lon="12.386017726798888"><ele>311.0</ele><time>2026-05-02T14:52:18Z</time></trkpt><trkpt lat="43.09524228678114" lon="12.385926068237815"><ele>313.33333333333337</ele><time>2026-05-02T14:52:19Z</time></trkpt><trkpt lat="43.0953965959402" lon="12.385825510677451"><ele>315.6666666666667</ele><time>2026-05-02T14:52:20Z</time></trkpt><trkpt lat="43.09552823680757" lon="12.385713838434476"><ele>318.0</ele><time>2026-05-02T14:52:21Z</time></trkpt><trkpt lat="43.09563963009508" lon="12.385599518491832"><ele>318.0</ele><time>2026-05-02T14:52:22Z</time></trkpt><trkpt lat="43.095733345392944" lon="12.385477461229964"><ele>318.0</ele><time>2026-05-02T14:52:23Z</time></trkpt><trkpt lat="43.095815369873556" lon="12.385351642919693"><ele>318.0</ele><time>2026-05-02T14:52:24Z</time></trkpt><trkpt lat="43.09592309773869" lon="12.385294157752075"><ele>318.0</ele><time>2026-05-02T14:52:25Z</time></trkpt><trkpt lat="43.09602385918938" lon="12.385272027231368"><ele>318.0</ele><time>2026-05-02T14:52:26Z</time></trkpt><trkpt lat="43.09612013313931" lon="12.385303093889576"><ele>318.0</ele><time>2026-05-02T14:52:27Z</time></trkpt><trkpt lat="43.096213074604236" lon="12.38535305190588"><ele>318.0</ele><time>2026-05-02T14:52:28Z</time></trkpt><trkpt lat="43.09629859874153" lon="12.385438584567614"><ele>318.0</ele><time>2026-05-02T14:52:29Z</time></trkpt><trkpt lat="43.096369537307645" lon="12.385551507810153"><ele>318.0</ele><time>2026-05-02T14:52:30Z</time></trkpt><trkpt lat="43.09643073245292" lon="12.38564860456511"><ele>318.6</ele><time>2026-05-02T14:52:31Z</time></trkpt><trkpt lat="43.096502635193396" lon="12.38570409101393"><ele>319.20000000000005</ele><time>2026-05-02T14:52:32Z</time></trkpt><trkpt lat="43.09653576853415" lon="12.385783592202289"><ele>319.8</ele><time>2026-05-02T14:52:33Z</time></trkpt><trkpt lat="43.09658629881929" lon="12.385863127916917"><ele>320.40000000000003</ele><time>2026-05-02T14:52:34Z</time></trkpt><trkpt lat="43.09664500934765" lon="12.385955542706808"><ele>321.0</ele><time>2026-05-02T14:52:36Z</time></trkpt><trkpt lat="43.09673073804909" lon="12.385732792513197"><ele>321.0</ele><time>2026-05-02T14:52:39Z</time></trkpt><trkpt lat="43.09680269125737" lon="12.385628690695622"><ele>321.0</ele><time>2026-05-02T14:54:21Z</time></trkpt><trkpt lat="43.09674000139864" lon="12.385554702212778"><ele>321.0</ele><time>2026-05-02T14:54:31Z</time></trkpt></trkseg></trk></gpx>